<?xml version='1.0' encoding='UTF-8'?><gpx version="1.1" creator="JPX - https://github.com/jenetics/jpx" xmlns="http://www.topografix.com/GPX/1/1"><trk><trkseg><trkpt lat="46.02634608968471" lon="11.90348200318752"><ele>281.0</ele><time>2026-04-26T04:24:57.701Z</time></trkpt><trkpt lat="46.026321649819465" lon="11.903387664833051"><ele>281.0</ele><time>2026-04-26T04:25:00.701Z</time></trkpt><trkpt lat="46.026257367285346" lon="11.903382879612062"><ele>281.0</ele><time>2026-04-26T04:25:01.701Z</time></trkpt><trkpt lat="46.02634054593376" lon="11.903406979056369"><ele>281.0</ele><time>2026-04-26T04:26:18.008Z</time></trkpt><trkpt lat="46.026264777956676" lon="11.903373070129854"><ele>281.0</ele><time>2026-04-26T04:26:45.006Z</time></trkpt><trkpt lat="46.02619657141596" lon="11.903414673080619"><ele>281.0</ele><time>2026-04-26T04:27:37.998Z</time></trkpt><trkpt lat="46.026165060569596" lon="11.903570983358811"><ele>281.0</ele><time>2026-04-26T04:27:39.998Z</time></trkpt><trkpt lat="46.026132944525436" lon="11.903698999183677"><ele>281.0</ele><time>2026-04-26T04:27:41.999Z</time></trkpt><trkpt lat="46.026095780860025" lon="11.903830434150546"><ele>281.0</ele><time>2026-04-26T04:27:43.999Z</time></trkpt><trkpt lat="46.02604178138272" lon="11.903958675961713"><ele>281.0</ele><time>2026-04-26T04:27:45.999Z</time></trkpt><trkpt lat="46.02598854962932" lon="11.904065965872752"><ele>281.0</ele><time>2026-04-26T04:27:47.999Z</time></trkpt><trkpt lat="46.0259167889602" lon="11.904057509395347"><ele>281.0</ele><time>2026-04-26T04:27:49.999Z</time></trkpt><trkpt lat="46.02585547885113" lon="11.903992649414551"><ele>281.0</ele><time>2026-04-26T04:27:51.999Z</time></trkpt><trkpt lat="46.02577235340937" lon="11.90390696065352"><ele>281.0</ele><time>2026-04-26T04:27:54Z</time></trkpt><trkpt lat="46.02568760864661" lon="11.90382394891315"><ele>281.0</ele><time>2026-04-26T04:27:56Z</time></trkpt><trkpt lat="46.0255995263725" lon="11.903734611143957"><ele>281.0</ele><time>2026-04-26T04:27:58Z</time></trkpt><trkpt lat="46.02549855723835" lon="11.903674083806864"><ele>281.1666666666667</ele><time>2026-04-26T04:28:00Z</time></trkpt><trkpt lat="46.02540246050371" lon="11.903712516369032"><ele>281.33333333333337</ele><time>2026-04-26T04:28:02Z</time></trkpt><trkpt lat="46.02533730441973" lon="11.90374681962101"><ele>281.5</ele><time>2026-04-26T04:28:05Z</time></trkpt><trkpt lat="46.02532158191806" lon="11.903853201362674"><ele>281.6666666666667</ele><time>2026-04-26T04:28:07Z</time></trkpt><trkpt lat="46.02533166629109" lon="11.90395367406651"><ele>281.8333333333333</ele><time>2026-04-26T04:28:08Z</time></trkpt><trkpt lat="46.02534052624442" lon="11.904057056513414"><ele>282.0</ele><time>2026-04-26T04:28:09Z</time></trkpt><trkpt lat="46.02534692829244" lon="11.904147375377693"><ele>282.0</ele><time>2026-04-26T04:28:10Z</time></trkpt><trkpt lat="46.02535478748457" lon="11.904237547891414"><ele>282.0</ele><time>2026-04-26T04:28:11Z</time></trkpt><trkpt lat="46.025338947263535" lon="11.904375273546117"><ele>282.0</ele><time>2026-04-26T04:28:13Z</time></trkpt><trkpt lat="46.02527786112721" lon="11.904407384187605"><ele>282.0</ele><time>2026-04-26T04:28:14Z</time></trkpt><trkpt lat="46.02520558885748" lon="11.904410554731095"><ele>282.0</ele><time>2026-04-26T04:28:15Z</time></trkpt><trkpt lat="46.025116051160154" lon="11.9044140318242"><ele>282.0</ele><time>2026-04-26T04:28:16Z</time></trkpt><trkpt lat="46.0250270396374" lon="11.904433374102581"><ele>282.2</ele><time>2026-04-26T04:28:17Z</time></trkpt><trkpt lat="46.024931442603545" lon="11.90445909414593"><ele>282.4</ele><time>2026-04-26T04:28:18Z</time></trkpt><trkpt lat="46.02483926241497" lon="11.904490578164792"><ele>282.6</ele><time>2026-04-26T04:28:19Z</time></trkpt><trkpt lat="46.024736006731" lon="11.904517813911129"><ele>282.8</ele><time>2026-04-26T04:28:20Z</time></trkpt><trkpt lat="46.024631939532284" lon="11.904552612047745"><ele>283.0</ele><time>2026-04-26T04:28:21Z</time></trkpt><trkpt lat="46.02452232110173" lon="11.9045810563171"><ele>283.0</ele><time>2026-04-26T04:28:22Z</time></trkpt><trkpt lat="46.024415334642995" lon="11.904604984626301"><ele>283.0</ele><time>2026-04-26T04:28:23Z</time></trkpt><trkpt lat="46.024323475407265" lon="11.904637501638401"><ele>283.0</ele><time>2026-04-26T04:28:24Z</time></trkpt><trkpt lat="46.02422773925112" lon="11.904664751909108"><ele>283.0</ele><time>2026-04-26T04:28:25Z</time></trkpt><trkpt lat="46.02413373189945" lon="11.904687654503936"><ele>283.0</ele><time>2026-04-26T04:28:26Z</time></trkpt><trkpt lat="46.024036515701894" lon="11.904712597735188"><ele>282.2</ele><time>2026-04-26T04:28:27Z</time></trkpt><trkpt lat="46.02394376082707" lon="11.904741056261518"><ele>281.4</ele><time>2026-04-26T04:28:28Z</time></trkpt><trkpt lat="46.02385023059296" lon="11.90476973887886"><ele>280.59999999999997</ele><time>2026-04-26T04:28:29Z</time></trkpt><trkpt lat="46.02375744484228" lon="11.904798892270016"><ele>279.8</ele><time>2026-04-26T04:28:30Z</time></trkpt><trkpt lat="46.02366416966888" lon="11.904821590867973"><ele>279.0</ele><time>2026-04-26T04:28:31Z</time></trkpt><trkpt lat="46.02357032037633" lon="11.904847967778654"><ele>279.0</ele><time>2026-04-26T04:28:32Z</time></trkpt><trkpt lat="46.023483299050156" lon="11.904873812922812"><ele>279.0</ele><time>2026-04-26T04:28:33Z</time></trkpt><trkpt lat="46.023387111171736" lon="11.904900590417789"><ele>279.0</ele><time>2026-04-26T04:28:34Z</time></trkpt><trkpt lat="46.02329449674173" lon="11.904932564853912"><ele>279.0</ele><time>2026-04-26T04:28:35Z</time></trkpt><trkpt lat="46.023201646154156" lon="11.904955392529311"><ele>279.0</ele><time>2026-04-26T04:28:36Z</time></trkpt><trkpt lat="46.02310775002226" lon="11.904982916731132"><ele>279.0</ele><time>2026-04-26T04:28:37Z</time></trkpt><trkpt lat="46.02301237321359" lon="11.905012874395085"><ele>279.0</ele><time>2026-04-26T04:28:38Z</time></trkpt><trkpt lat="46.02291802643748" lon="11.905041396285213"><ele>279.0</ele><time>2026-04-26T04:28:39Z</time></trkpt><trkpt lat="46.022819648247655" lon="11.905064481371445"><ele>279.0</ele><time>2026-04-26T04:28:40Z</time></trkpt><trkpt lat="46.022722804012076" lon="11.905048525218687"><ele>279.0</ele><time>2026-04-26T04:28:41Z</time></trkpt><trkpt lat="46.02263770814405" lon="11.904986436891301"><ele>279.0</ele><time>2026-04-26T04:28:42Z</time></trkpt><trkpt lat="46.02255628734838" lon="11.904916525831139"><ele>279.0</ele><time>2026-04-26T04:28:43Z</time></trkpt><trkpt lat="46.02246639547266" lon="11.904863255326456"><ele>279.0</ele><time>2026-04-26T04:28:44Z</time></trkpt><trkpt lat="46.022379159470724" lon="11.904858182135749"><ele>279.0</ele><time>2026-04-26T04:28:45Z</time></trkpt><trkpt lat="46.022295297231096" lon="11.904898770590487"><ele>279.0</ele><time>2026-04-26T04:28:46Z</time></trkpt><trkpt lat="46.02221223934391" lon="11.904939782508574"><ele>278.1666666666667</ele><time>2026-04-26T04:28:47Z</time></trkpt><trkpt lat="46.022129090475" lon="11.904961043534332"><ele>277.3333333333333</ele><time>2026-04-26T04:28:48Z</time></trkpt><trkpt lat="46.022045860468346" lon="11.904976354857464"><ele>276.5</ele><time>2026-04-26T04:28:49Z</time></trkpt><trkpt lat="46.02196328739968" lon="11.904993207180219"><ele>275.66666666666663</ele><time>2026-04-26T04:28:50Z</time></trkpt><trkpt lat="46.02188481894829" lon="11.90501115148051"><ele>274.8333333333333</ele><time>2026-04-26T04:28:51Z</time></trkpt><trkpt lat="46.0218183473735" lon="11.90502994870451"><ele>274.0</ele><time>2026-04-26T04:28:52Z</time></trkpt><trkpt lat="46.02170332503397" lon="11.905048399313676"><ele>274.0</ele><time>2026-04-26T04:28:54Z</time></trkpt><trkpt lat="46.021613694622516" lon="11.90499301027756"><ele>274.0</ele><time>2026-04-26T04:28:56Z</time></trkpt><trkpt lat="46.02150616507318" lon="11.905003375540494"><ele>274.0</ele><time>2026-04-26T04:28:58Z</time></trkpt><trkpt lat="46.02146565389306" lon="11.905084352530181"><ele>274.0</ele><time>2026-04-26T04:28:59Z</time></trkpt><trkpt lat="46.021464545560626" lon="11.905182000659751"><ele>274.0</ele><time>2026-04-26T04:29:00Z</time></trkpt><trkpt lat="46.02149399794372" lon="11.905287452767578"><ele>274.0</ele><time>2026-04-26T04:29:01Z</time></trkpt><trkpt lat="46.02156158956322" lon="11.905350741205588"><ele>274.0</ele><time>2026-04-26T04:29:02Z</time></trkpt><trkpt lat="46.021534235417725" lon="11.90551045107567"><ele>274.0</ele><time>2026-04-26T04:29:03Z</time></trkpt><trkpt lat="46.02153844736315" lon="11.905637749379034"><ele>274.0</ele><time>2026-04-26T04:29:04Z</time></trkpt><trkpt lat="46.02154773611473" lon="11.905763781788966"><ele>274.0</ele><time>2026-04-26T04:29:05Z</time></trkpt><trkpt lat="46.02155568296231" lon="11.905888067397457"><ele>274.0</ele><time>2026-04-26T04:29:06Z</time></trkpt><trkpt lat="46.02156315700076" lon="11.906015832506512"><ele>273.8</ele><time>2026-04-26T04:29:07Z</time></trkpt><trkpt lat="46.021573231087295" lon="11.90615557415086"><ele>273.59999999999997</ele><time>2026-04-26T04:29:08Z</time></trkpt><trkpt lat="46.02158179124316" lon="11.906298394098572"><ele>273.4</ele><time>2026-04-26T04:29:09Z</time></trkpt><trkpt lat="46.02159550167483" lon="11.906451671060173"><ele>273.2</ele><time>2026-04-26T04:29:10Z</time></trkpt><trkpt lat="46.02161103852895" lon="11.906602621172153"><ele>273.0</ele><time>2026-04-26T04:29:11Z</time></trkpt><trkpt lat="46.02163420309118" lon="11.90675115232283"><ele>272.8</ele><time>2026-04-26T04:29:12Z</time></trkpt><trkpt lat="46.02165662619534" lon="11.90690127922476"><ele>272.6</ele><time>2026-04-26T04:29:13.001Z</time></trkpt><trkpt lat="46.02167976641051" lon="11.907056485142391"><ele>272.4</ele><time>2026-04-26T04:29:14.001Z</time></trkpt><trkpt lat="46.02170481818147" lon="11.907212445409549"><ele>272.2</ele><time>2026-04-26T04:29:15.001Z</time></trkpt><trkpt lat="46.02173398877788" lon="11.907368507421408"><ele>272.0</ele><time>2026-04-26T04:29:16.001Z</time></trkpt><trkpt lat="46.02176696305287" lon="11.907516010484988"><ele>272.2</ele><time>2026-04-26T04:29:17.001Z</time></trkpt><trkpt lat="46.021799831136185" lon="11.907664731738256"><ele>272.4</ele><time>2026-04-26T04:29:18.001Z</time></trkpt><trkpt lat="46.02183188717853" lon="11.907818310963675"><ele>272.6</ele><time>2026-04-26T04:29:19.001Z</time></trkpt><trkpt lat="46.021864657587614" lon="11.907972571073923"><ele>272.8</ele><time>2026-04-26T04:29:20.001Z</time></trkpt><trkpt lat="46.02189879350082" lon="11.908126115645013"><ele>273.0</ele><time>2026-04-26T04:29:21Z</time></trkpt><trkpt lat="46.02193494709525" lon="11.908279322608054"><ele>273.2</ele><time>2026-04-26T04:29:22Z</time></trkpt><trkpt lat="46.02196953433519" lon="11.90843301288922"><ele>273.4</ele><time>2026-04-26T04:29:23Z</time></trkpt><trkpt lat="46.022003854416745" lon="11.908585636475578"><ele>273.59999999999997</ele><time>2026-04-26T04:29:24Z</time></trkpt><trkpt lat="46.02203759114344" lon="11.908737932315894"><ele>273.8</ele><time>2026-04-26T04:29:25Z</time></trkpt><trkpt lat="46.02206998922278" lon="11.908889358371763"><ele>274.0</ele><time>2026-04-26T04:29:26Z</time></trkpt><trkpt lat="46.0221036055021" lon="11.909039683454505"><ele>274.0</ele><time>2026-04-26T04:29:27Z</time></trkpt><trkpt lat="46.02213713156723" lon="11.909187544309777"><ele>274.0</ele><time>2026-04-26T04:29:28Z</time></trkpt><trkpt lat="46.02217086767646" lon="11.909338106354477"><ele>274.0</ele><time>2026-04-26T04:29:29Z</time></trkpt><trkpt lat="46.02220655883739" lon="11.909484063171654"><ele>274.0</ele><time>2026-04-26T04:29:30Z</time></trkpt><trkpt lat="46.02224240505835" lon="11.909626966611295"><ele>274.0</ele><time>2026-04-26T04:29:31Z</time></trkpt><trkpt lat="46.022276117060954" lon="11.909774772491453"><ele>274.2</ele><time>2026-04-26T04:29:32Z</time></trkpt><trkpt lat="46.02230942631477" lon="11.909921660640645"><ele>274.4</ele><time>2026-04-26T04:29:33Z</time></trkpt><trkpt lat="46.02234273165975" lon="11.910067612788128"><ele>274.6</ele><time>2026-04-26T04:29:34Z</time></trkpt><trkpt lat="46.022375961333694" lon="11.910213899543047"><ele>274.8</ele><time>2026-04-26T04:29:35Z</time></trkpt><trkpt lat="46.022406642081" lon="11.910360984803804"><ele>275.0</ele><time>2026-04-26T04:29:36Z</time></trkpt><trkpt lat="46.02243815842973" lon="11.910508650882363"><ele>275.2</ele><time>2026-04-26T04:29:37Z</time></trkpt><trkpt lat="46.02246386904991" lon="11.91065744521355"><ele>275.4</ele><time>2026-04-26T04:29:38Z</time></trkpt><trkpt lat="46.022485607402295" lon="11.910806613592559"><ele>275.6</ele><time>2026-04-26T04:29:39Z</time></trkpt><trkpt lat="46.0225103987742" lon="11.910954303999727"><ele>275.8</ele><time>2026-04-26T04:29:40Z</time></trkpt><trkpt lat="46.02252807872204" lon="11.911103880178743"><ele>276.0</ele><time>2026-04-26T04:29:41Z</time></trkpt><trkpt lat="46.022546161604794" lon="11.911256576276386"><ele>276.2</ele><time>2026-04-26T04:29:42Z</time></trkpt><trkpt lat="46.02255892234048" lon="11.911408729912408"><ele>276.40000000000003</ele><time>2026-04-26T04:29:43Z</time></trkpt><trkpt lat="46.02257196053297" lon="11.911560463304916"><ele>276.6</ele><time>2026-04-26T04:29:44Z</time></trkpt><trkpt lat="46.022582655856944" lon="11.911711556844764"><ele>276.8</ele><time>2026-04-26T04:29:45Z</time></trkpt><trkpt lat="46.02259201738415" lon="11.91184875524073"><ele>277.0</ele><time>2026-04-26T04:29:46Z</time></trkpt><trkpt lat="46.0225997029858" lon="11.911975309959386"><ele>277.0</ele><time>2026-04-26T04:29:47Z</time></trkpt><trkpt lat="46.02259465707466" lon="11.912089283556442"><ele>277.0</ele><time>2026-04-26T04:29:48Z</time></trkpt><trkpt lat="46.02257780685483" lon="11.912201269509971"><ele>277.0</ele><time>2026-04-26T04:29:49Z</time></trkpt><trkpt lat="46.02255546060721" lon="11.912318759143913"><ele>277.0</ele><time>2026-04-26T04:29:50Z</time></trkpt><trkpt lat="46.02253983619876" lon="11.912439793815459"><ele>277.0</ele><time>2026-04-26T04:29:51Z</time></trkpt><trkpt lat="46.02255147062537" lon="11.912567519458745"><ele>277.0</ele><time>2026-04-26T04:29:52Z</time></trkpt><trkpt lat="46.022587744507554" lon="11.912698167338583"><ele>276.6</ele><time>2026-04-26T04:29:53Z</time></trkpt><trkpt lat="46.02261509228213" lon="11.91284178516162"><ele>276.2</ele><time>2026-04-26T04:29:54Z</time></trkpt><trkpt lat="46.022623312713804" lon="11.912986755732552"><ele>275.8</ele><time>2026-04-26T04:29:55Z</time></trkpt><trkpt lat="46.022636714626515" lon="11.913131754977355"><ele>275.4</ele><time>2026-04-26T04:29:56Z</time></trkpt><trkpt lat="46.02264568047435" lon="11.913280690949403"><ele>275.0</ele><time>2026-04-26T04:29:57Z</time></trkpt><trkpt lat="46.022655897062556" lon="11.913430211211343"><ele>275.0</ele><time>2026-04-26T04:29:58Z</time></trkpt><trkpt lat="46.022664796075524" lon="11.913582597823211"><ele>275.0</ele><time>2026-04-26T04:29:59Z</time></trkpt><trkpt lat="46.022670872198056" lon="11.913732993218169"><ele>275.0</ele><time>2026-04-26T04:30:00Z</time></trkpt><trkpt lat="46.022673312205946" lon="11.913884397027882"><ele>275.0</ele><time>2026-04-26T04:30:01Z</time></trkpt><trkpt lat="46.02268054377148" lon="11.914035298307715"><ele>275.0</ele><time>2026-04-26T04:30:02Z</time></trkpt><trkpt lat="46.02269092217144" lon="11.914189729964086"><ele>275.0</ele><time>2026-04-26T04:30:03Z</time></trkpt><trkpt lat="46.022696643014335" lon="11.9143444435906"><ele>275.0</ele><time>2026-04-26T04:30:04Z</time></trkpt><trkpt lat="46.022703606604125" lon="11.914498949974613"><ele>275.0</ele><time>2026-04-26T04:30:05Z</time></trkpt><trkpt lat="46.02271089613638" lon="11.9146522600108"><ele>275.0</ele><time>2026-04-26T04:30:06Z</time></trkpt><trkpt lat="46.02271764936925" lon="11.91480418580218"><ele>275.0</ele><time>2026-04-26T04:30:07Z</time></trkpt><trkpt lat="46.02272390381402" lon="11.914956231898108"><ele>275.6</ele><time>2026-04-26T04:30:08Z</time></trkpt><trkpt lat="46.02272938997334" lon="11.915109726525072"><ele>276.2</ele><time>2026-04-26T04:30:09Z</time></trkpt><trkpt lat="46.02273653494571" lon="11.915262140683227"><ele>276.8</ele><time>2026-04-26T04:30:10Z</time></trkpt><trkpt lat="46.022743047692416" lon="11.915414383506015"><ele>277.4</ele><time>2026-04-26T04:30:11Z</time></trkpt><trkpt lat="46.02274937681157" lon="11.915563646534725"><ele>278.0</ele><time>2026-04-26T04:30:12Z</time></trkpt><trkpt lat="46.02275595958027" lon="11.9157165662723"><ele>278.0</ele><time>2026-04-26T04:30:13Z</time></trkpt><trkpt lat="46.022759398212436" lon="11.915869622513934"><ele>278.0</ele><time>2026-04-26T04:30:14Z</time></trkpt><trkpt lat="46.02276645991828" lon="11.91602516339283"><ele>278.0</ele><time>2026-04-26T04:30:15Z</time></trkpt><trkpt lat="46.02277380883828" lon="11.916181588194183"><ele>278.0</ele><time>2026-04-26T04:30:16Z</time></trkpt><trkpt lat="46.02278351043639" lon="11.916335962878806"><ele>278.0</ele><time>2026-04-26T04:30:17Z</time></trkpt><trkpt lat="46.02278978919501" lon="11.916497721002111"><ele>279.25</ele><time>2026-04-26T04:30:18Z</time></trkpt><trkpt lat="46.02278533982135" lon="11.916667791538895"><ele>280.5</ele><time>2026-04-26T04:30:19Z</time></trkpt><trkpt lat="46.02279016274692" lon="11.916842939836581"><ele>281.75</ele><time>2026-04-26T04:30:20Z</time></trkpt><trkpt lat="46.0227999843363" lon="11.917018589117868"><ele>283.0</ele><time>2026-04-26T04:30:21Z</time></trkpt><trkpt lat="46.02280707722556" lon="11.917192050453341"><ele>283.75</ele><time>2026-04-26T04:30:22Z</time></trkpt><trkpt lat="46.02281655432118" lon="11.91737232177873"><ele>284.5</ele><time>2026-04-26T04:30:23Z</time></trkpt><trkpt lat="46.022823850108054" lon="11.91755334839636"><ele>285.25</ele><time>2026-04-26T04:30:24Z</time></trkpt><trkpt lat="46.02283168220735" lon="11.917728904042848"><ele>286.0</ele><time>2026-04-26T04:30:25Z</time></trkpt><trkpt lat="46.02283784941562" lon="11.917900471087782"><ele>286.25</ele><time>2026-04-26T04:30:26Z</time></trkpt><trkpt lat="46.022844704921404" lon="11.918072282882111"><ele>286.5</ele><time>2026-04-26T04:30:27Z</time></trkpt><trkpt lat="46.02285186728706" lon="11.918242987788197"><ele>286.75</ele><time>2026-04-26T04:30:28Z</time></trkpt><trkpt lat="46.022860669897206" lon="11.918411763907462"><ele>287.0</ele><time>2026-04-26T04:30:29Z</time></trkpt><trkpt lat="46.02286676815282" lon="11.918581051273108"><ele>288.0</ele><time>2026-04-26T04:30:30Z</time></trkpt><trkpt lat="46.02287562855259" lon="11.918750322610745"><ele>289.0</ele><time>2026-04-26T04:30:31Z</time></trkpt><trkpt lat="46.02288322256624" lon="11.91892055051913"><ele>290.0</ele><time>2026-04-26T04:30:32Z</time></trkpt><trkpt lat="46.022889407585374" lon="11.919089118353522"><ele>291.0</ele><time>2026-04-26T04:30:33Z</time></trkpt><trkpt lat="46.02289825391602" lon="11.91925360068627"><ele>291.75</ele><time>2026-04-26T04:30:34Z</time></trkpt><trkpt lat="46.022907508650306" lon="11.919420149087628"><ele>292.5</ele><time>2026-04-26T04:30:35Z</time></trkpt><trkpt lat="46.02291461563147" lon="11.919587868553378"><ele>293.25</ele><time>2026-04-26T04:30:36Z</time></trkpt><trkpt lat="46.022923123970386" lon="11.919757081858481"><ele>294.0</ele><time>2026-04-26T04:30:37Z</time></trkpt><trkpt lat="46.0229310619663" lon="11.919922638351366"><ele>293.8</ele><time>2026-04-26T04:30:38Z</time></trkpt><trkpt lat="46.022940563070065" lon="11.920086875007977"><ele>293.59999999999997</ele><time>2026-04-26T04:30:39Z</time></trkpt><trkpt lat="46.02294855556385" lon="11.920251141106975"><ele>293.4</ele><time>2026-04-26T04:30:40Z</time></trkpt><trkpt lat="46.022958050180755" lon="11.920408557281355"><ele>293.2</ele><time>2026-04-26T04:30:41Z</time></trkpt><trkpt lat="46.02296559280879" lon="11.920547706205694"><ele>293.0</ele><time>2026-04-26T04:30:42Z</time></trkpt><trkpt lat="46.022975843115795" lon="11.920677759042919"><ele>293.0</ele><time>2026-04-26T04:30:43Z</time></trkpt><trkpt lat="46.02297909570014" lon="11.920790621557149"><ele>293.0</ele><time>2026-04-26T04:30:44Z</time></trkpt><trkpt lat="46.02296535703196" lon="11.920902035318207"><ele>293.0</ele><time>2026-04-26T04:30:45Z</time></trkpt><trkpt lat="46.0229110428899" lon="11.921007346933372"><ele>293.0</ele><time>2026-04-26T04:30:46Z</time></trkpt><trkpt lat="46.022841660039965" lon="11.92109004675264"><ele>293.0</ele><time>2026-04-26T04:30:47Z</time></trkpt><trkpt lat="46.02278873889954" lon="11.921195408628222"><ele>293.0</ele><time>2026-04-26T04:30:48Z</time></trkpt><trkpt lat="46.02277616619996" lon="11.921325723182877"><ele>293.0</ele><time>2026-04-26T04:30:49Z</time></trkpt><trkpt lat="46.02279581940485" lon="11.921458682954938"><ele>293.0</ele><time>2026-04-26T04:30:50Z</time></trkpt><trkpt lat="46.02284732514187" lon="11.921579536543344"><ele>293.0</ele><time>2026-04-26T04:30:51Z</time></trkpt><trkpt lat="46.02292001249404" lon="11.921681682043033"><ele>293.0</ele><time>2026-04-26T04:30:51.999Z</time></trkpt><trkpt lat="46.022998886175216" lon="11.92179126464302"><ele>293.0</ele><time>2026-04-26T04:30:52.999Z</time></trkpt><trkpt lat="46.02306975634139" lon="11.921924331079182"><ele>293.0</ele><time>2026-04-26T04:30:53.999Z</time></trkpt><trkpt lat="46.02313195846109" lon="11.922065268175231"><ele>293.0</ele><time>2026-04-26T04:30:54.999Z</time></trkpt><trkpt lat="46.02318521618707" lon="11.922210583075055"><ele>293.0</ele><time>2026-04-26T04:30:55.999Z</time></trkpt><trkpt lat="46.02323662268004" lon="11.922355112197193"><ele>293.0</ele><time>2026-04-26T04:30:56.999Z</time></trkpt><trkpt lat="46.0232929202582" lon="11.922498705414295"><ele>293.5</ele><time>2026-04-26T04:30:57.999Z</time></trkpt><trkpt lat="46.0233498080233" lon="11.922643243574806"><ele>294.0</ele><time>2026-04-26T04:30:58.999Z</time></trkpt><trkpt lat="46.023405126620624" lon="11.922787811156539"><ele>294.5</ele><time>2026-04-26T04:30:59.999Z</time></trkpt><trkpt lat="46.02345983023832" lon="11.922933113745458"><ele>295.0</ele><time>2026-04-26T04:31:00.999Z</time></trkpt><trkpt lat="46.0235166258378" lon="11.923074928506336"><ele>295.0</ele><time>2026-04-26T04:31:01.999Z</time></trkpt><trkpt lat="46.02357704511569" lon="11.923213137381289"><ele>295.0</ele><time>2026-04-26T04:31:02.999Z</time></trkpt><trkpt lat="46.0236401239109" lon="11.923349167068498"><ele>295.0</ele><time>2026-04-26T04:31:03.999Z</time></trkpt><trkpt lat="46.023701010066354" lon="11.923486119912555"><ele>295.0</ele><time>2026-04-26T04:31:04.999Z</time></trkpt><trkpt lat="46.023764594903135" lon="11.923619222160646"><ele>295.5</ele><time>2026-04-26T04:31:05.999Z</time></trkpt><trkpt lat="46.02383136039544" lon="11.923750324570786"><ele>296.0</ele><time>2026-04-26T04:31:06.999Z</time></trkpt><trkpt lat="46.02390087856927" lon="11.923880764831921"><ele>296.5</ele><time>2026-04-26T04:31:07.999Z</time></trkpt><trkpt lat="46.02396959317547" lon="11.924012994921243"><ele>297.0</ele><time>2026-04-26T04:31:08.999Z</time></trkpt><trkpt lat="46.02404023931652" lon="11.924142189872867"><ele>297.0</ele><time>2026-04-26T04:31:09.999Z</time></trkpt><trkpt lat="46.024112168656146" lon="11.924269549976987"><ele>297.0</ele><time>2026-04-26T04:31:10.999Z</time></trkpt><trkpt lat="46.024185082818825" lon="11.924393487090715"><ele>297.0</ele><time>2026-04-26T04:31:11.999Z</time></trkpt><trkpt lat="46.02425594421285" lon="11.92452112035632"><ele>297.0</ele><time>2026-04-26T04:31:12.999Z</time></trkpt><trkpt lat="46.02432894680307" lon="11.924644373758065"><ele>297.0</ele><time>2026-04-26T04:31:13.999Z</time></trkpt><trkpt lat="46.02439806923301" lon="11.924772245112552"><ele>297.0</ele><time>2026-04-26T04:31:14.999Z</time></trkpt><trkpt lat="46.024468097268986" lon="11.924900011854351"><ele>297.0</ele><time>2026-04-26T04:31:15.999Z</time></trkpt><trkpt lat="46.02454202067471" lon="11.925023521867274"><ele>297.0</ele><time>2026-04-26T04:31:16.999Z</time></trkpt><trkpt lat="46.02461587059387" lon="11.925149797921371"><ele>297.75</ele><time>2026-04-26T04:31:18Z</time></trkpt><trkpt lat="46.02468771012074" lon="11.925275770025635"><ele>298.5</ele><time>2026-04-26T04:31:19Z</time></trkpt><trkpt lat="46.02475660907184" lon="11.925402110944226"><ele>299.25</ele><time>2026-04-26T04:31:20Z</time></trkpt><trkpt lat="46.024823504492566" lon="11.925532167030433"><ele>300.0</ele><time>2026-04-26T04:31:21Z</time></trkpt><trkpt lat="46.024887074407424" lon="11.925671082275285"><ele>300.0</ele><time>2026-04-26T04:31:22Z</time></trkpt><trkpt lat="46.024945213247335" lon="11.925804364257509"><ele>300.0</ele><time>2026-04-26T04:31:23Z</time></trkpt><trkpt lat="46.02500565865908" lon="11.925939415163167"><ele>300.0</ele><time>2026-04-26T04:31:24Z</time></trkpt><trkpt lat="46.02506525768001" lon="11.926078768121979"><ele>300.0</ele><time>2026-04-26T04:31:25Z</time></trkpt><trkpt lat="46.02512333169395" lon="11.926218559609994"><ele>300.0</ele><time>2026-04-26T04:31:26Z</time></trkpt><trkpt lat="46.0251776009347" lon="11.926357271606692"><ele>299.75</ele><time>2026-04-26T04:31:27Z</time></trkpt><trkpt lat="46.02523093134709" lon="11.92649997365909"><ele>299.5</ele><time>2026-04-26T04:31:28Z</time></trkpt><trkpt lat="46.02528284474798" lon="11.926644499210877"><ele>299.25</ele><time>2026-04-26T04:31:29Z</time></trkpt><trkpt lat="46.02533282536617" lon="11.926791550317052"><ele>299.0</ele><time>2026-04-26T04:31:30Z</time></trkpt><trkpt lat="46.02538452946719" lon="11.926940145779048"><ele>300.0</ele><time>2026-04-26T04:31:31Z</time></trkpt><trkpt lat="46.02543624143078" lon="11.927092458856917"><ele>301.0</ele><time>2026-04-26T04:31:32Z</time></trkpt><trkpt lat="46.02548576923736" lon="11.927245831874759"><ele>302.0</ele><time>2026-04-26T04:31:33Z</time></trkpt><trkpt lat="46.025534276968344" lon="11.927400946075506"><ele>303.0</ele><time>2026-04-26T04:31:34Z</time></trkpt><trkpt lat="46.025582684241826" lon="11.927558068716218"><ele>303.75</ele><time>2026-04-26T04:31:35Z</time></trkpt><trkpt lat="46.025632235715385" lon="11.927714798179286"><ele>304.5</ele><time>2026-04-26T04:31:36Z</time></trkpt><trkpt lat="46.025681689140406" lon="11.927872868424064"><ele>305.25</ele><time>2026-04-26T04:31:37Z</time></trkpt><trkpt lat="46.025729513843075" lon="11.928032224989943"><ele>306.0</ele><time>2026-04-26T04:31:38Z</time></trkpt><trkpt lat="46.0257777372302" lon="11.928192347883272"><ele>304.75</ele><time>2026-04-26T04:31:39Z</time></trkpt><trkpt lat="46.025825979070646" lon="11.928350574361488"><ele>303.5</ele><time>2026-04-26T04:31:40Z</time></trkpt><trkpt lat="46.025874515317554" lon="11.928509192230011"><ele>302.25</ele><time>2026-04-26T04:31:41Z</time></trkpt><trkpt lat="46.02592080283384" lon="11.928667300612771"><ele>301.0</ele><time>2026-04-26T04:31:42Z</time></trkpt><trkpt lat="46.025967291747214" lon="11.928825904133914"><ele>301.0</ele><time>2026-04-26T04:31:43Z</time></trkpt><trkpt lat="46.026013041231884" lon="11.928983838781024"><ele>301.0</ele><time>2026-04-26T04:31:44Z</time></trkpt><trkpt lat="46.02606091980558" lon="11.929140119592507"><ele>301.0</ele><time>2026-04-26T04:31:45Z</time></trkpt><trkpt lat="46.0261076080768" lon="11.929295975494096"><ele>301.0</ele><time>2026-04-26T04:31:46Z</time></trkpt><trkpt lat="46.02615329070611" lon="11.929453236438393"><ele>302.75</ele><time>2026-04-26T04:31:47Z</time></trkpt><trkpt lat="46.02619686754882" lon="11.929610685041943"><ele>304.5</ele><time>2026-04-26T04:31:48Z</time></trkpt><trkpt lat="46.02623565739259" lon="11.929771027664499"><ele>306.25</ele><time>2026-04-26T04:31:49Z</time></trkpt><trkpt lat="46.02627386417798" lon="11.929930359032987"><ele>308.0</ele><time>2026-04-26T04:31:50Z</time></trkpt><trkpt lat="46.02631257569221" lon="11.930090203679276"><ele>309.25</ele><time>2026-04-26T04:31:51Z</time></trkpt><trkpt lat="46.026348478440894" lon="11.930252901809279"><ele>310.5</ele><time>2026-04-26T04:31:52Z</time></trkpt><trkpt lat="46.02637872941454" lon="11.93041590464252"><ele>311.75</ele><time>2026-04-26T04:31:53Z</time></trkpt><trkpt lat="46.02641427917737" lon="11.9305765719002"><ele>313.0</ele><time>2026-04-26T04:31:54Z</time></trkpt><trkpt lat="46.02644320311381" lon="11.930741097995469"><ele>314.25</ele><time>2026-04-26T04:31:55Z</time></trkpt><trkpt lat="46.02646979779229" lon="11.93090277882642"><ele>315.5</ele><time>2026-04-26T04:31:56Z</time></trkpt><trkpt lat="46.02648734015787" lon="11.931065462884579"><ele>316.75</ele><time>2026-04-26T04:31:57Z</time></trkpt><trkpt lat="46.026508912285635" lon="11.931238242072073"><ele>318.0</ele><time>2026-04-26T04:31:58Z</time></trkpt><trkpt lat="46.02653025056179" lon="11.931409929470364"><ele>318.0</ele><time>2026-04-26T04:31:59Z</time></trkpt><trkpt lat="46.026552333765025" lon="11.931590167572011"><ele>318.0</ele><time>2026-04-26T04:32:00Z</time></trkpt><trkpt lat="46.02656824142352" lon="11.931780385622417"><ele>318.0</ele><time>2026-04-26T04:32:01Z</time></trkpt><trkpt lat="46.02658694626586" lon="11.932001207135672"><ele>318.0</ele><time>2026-04-26T04:32:02Z</time></trkpt><trkpt lat="46.02660525724097" lon="11.932251233500464"><ele>318.3333333333333</ele><time>2026-04-26T04:32:03Z</time></trkpt><trkpt lat="46.02661958975675" lon="11.932486047771036"><ele>318.66666666666663</ele><time>2026-04-26T04:32:04Z</time></trkpt><trkpt lat="46.0266299886909" lon="11.932722226462305"><ele>319.0</ele><time>2026-04-26T04:32:05Z</time></trkpt><trkpt lat="46.02663828393401" lon="11.932953929906196"><ele>314.66666666666663</ele><time>2026-04-26T04:32:06Z</time></trkpt><trkpt lat="46.026649333097176" lon="11.933174049059055"><ele>310.3333333333333</ele><time>2026-04-26T04:32:07Z</time></trkpt><trkpt lat="46.0266618017536" lon="11.933394041692036"><ele>306.0</ele><time>2026-04-26T04:32:08Z</time></trkpt><trkpt lat="46.026674496978636" lon="11.933609009093162"><ele>306.0</ele><time>2026-04-26T04:32:09Z</time></trkpt><trkpt lat="46.02668515077658" lon="11.933823606115894"><ele>306.0</ele><time>2026-04-26T04:32:10Z</time></trkpt><trkpt lat="46.02669772318811" lon="11.934036657234161"><ele>306.0</ele><time>2026-04-26T04:32:11Z</time></trkpt><trkpt lat="46.02671468720984" lon="11.934247122434279"><ele>306.0</ele><time>2026-04-26T04:32:12Z</time></trkpt><trkpt lat="46.02673638078701" lon="11.934457313873105"><ele>306.5</ele><time>2026-04-26T04:32:13Z</time></trkpt><trkpt lat="46.02676192513917" lon="11.934666548787778"><ele>307.0</ele><time>2026-04-26T04:32:14Z</time></trkpt><trkpt lat="46.026790567843314" lon="11.934873651783978"><ele>307.5</ele><time>2026-04-26T04:32:15Z</time></trkpt><trkpt lat="46.02682423787888" lon="11.935080419276307"><ele>308.0</ele><time>2026-04-26T04:32:16Z</time></trkpt><trkpt lat="46.02686190175969" lon="11.935283907113773"><ele>308.0</ele><time>2026-04-26T04:32:17Z</time></trkpt><trkpt lat="46.026898043372775" lon="11.935485606553918"><ele>308.0</ele><time>2026-04-26T04:32:18Z</time></trkpt><trkpt lat="46.02693572253074" lon="11.935684730051996"><ele>308.0</ele><time>2026-04-26T04:32:19Z</time></trkpt><trkpt lat="46.02697525658629" lon="11.93588525008335"><ele>308.0</ele><time>2026-04-26T04:32:20Z</time></trkpt><trkpt lat="46.02701528466101" lon="11.936087811486237"><ele>309.75</ele><time>2026-04-26T04:32:21Z</time></trkpt><trkpt lat="46.02705451427697" lon="11.936287937903463"><ele>311.5</ele><time>2026-04-26T04:32:22Z</time></trkpt><trkpt lat="46.02709484555758" lon="11.936487907942679"><ele>313.25</ele><time>2026-04-26T04:32:23Z</time></trkpt><trkpt lat="46.02713419260008" lon="11.936689191660559"><ele>315.0</ele><time>2026-04-26T04:32:24Z</time></trkpt><trkpt lat="46.027171648316006" lon="11.936889535921976"><ele>315.25</ele><time>2026-04-26T04:32:25Z</time></trkpt><trkpt lat="46.02720948258679" lon="11.937088697024695"><ele>315.5</ele><time>2026-04-26T04:32:26Z</time></trkpt><trkpt lat="46.027246578399705" lon="11.937276149405774"><ele>315.75</ele><time>2026-04-26T04:32:27Z</time></trkpt><trkpt lat="46.02728182069495" lon="11.937457857639593"><ele>316.0</ele><time>2026-04-26T04:32:28Z</time></trkpt><trkpt lat="46.02731579171659" lon="11.93764847095872"><ele>315.0</ele><time>2026-04-26T04:32:29Z</time></trkpt><trkpt lat="46.02735272581021" lon="11.937841047735668"><ele>314.0</ele><time>2026-04-26T04:32:30Z</time></trkpt><trkpt lat="46.0273905767817" lon="11.938036324786186"><ele>313.0</ele><time>2026-04-26T04:32:31Z</time></trkpt><trkpt lat="46.027426973073304" lon="11.93823090865428"><ele>312.0</ele><time>2026-04-26T04:32:32Z</time></trkpt><trkpt lat="46.02746730477003" lon="11.938426363231457"><ele>310.25</ele><time>2026-04-26T04:32:33Z</time></trkpt><trkpt lat="46.02751074994896" lon="11.938623551029904"><ele>308.5</ele><time>2026-04-26T04:32:34Z</time></trkpt><trkpt lat="46.02755702253719" lon="11.938818686434544"><ele>306.75</ele><time>2026-04-26T04:32:35Z</time></trkpt><trkpt lat="46.02760519116701" lon="11.939012025055652"><ele>305.0</ele><time>2026-04-26T04:32:36Z</time></trkpt><trkpt lat="46.027654341471965" lon="11.939202745059484"><ele>305.0</ele><time>2026-04-26T04:32:37Z</time></trkpt><trkpt lat="46.02770675716173" lon="11.939393464524588"><ele>305.0</ele><time>2026-04-26T04:32:38Z</time></trkpt><trkpt lat="46.02775839868268" lon="11.939581646784644"><ele>305.0</ele><time>2026-04-26T04:32:39Z</time></trkpt><trkpt lat="46.02781156390578" lon="11.939771656353429"><ele>305.0</ele><time>2026-04-26T04:32:40Z</time></trkpt><trkpt lat="46.02786588528534" lon="11.939959359526165"><ele>306.25</ele><time>2026-04-26T04:32:41Z</time></trkpt><trkpt lat="46.02792040503802" lon="11.94014759620195"><ele>307.5</ele><time>2026-04-26T04:32:42Z</time></trkpt><trkpt lat="46.02797448313256" lon="11.94033507597407"><ele>308.75</ele><time>2026-04-26T04:32:43Z</time></trkpt><trkpt lat="46.02802827046418" lon="11.94051992452693"><ele>310.0</ele><time>2026-04-26T04:32:44Z</time></trkpt><trkpt lat="46.02808164797812" lon="11.940704081148857"><ele>310.5</ele><time>2026-04-26T04:32:45Z</time></trkpt><trkpt lat="46.028134735868775" lon="11.940889093789009"><ele>311.0</ele><time>2026-04-26T04:32:46Z</time></trkpt><trkpt lat="46.028187711495185" lon="11.941074920803185"><ele>311.5</ele><time>2026-04-26T04:32:47Z</time></trkpt><trkpt lat="46.02824270391651" lon="11.941260971986386"><ele>312.0</ele><time>2026-04-26T04:32:48Z</time></trkpt><trkpt lat="46.02829880945993" lon="11.941447982429253"><ele>311.75</ele><time>2026-04-26T04:32:49Z</time></trkpt><trkpt lat="46.02835305787129" lon="11.941637906814007"><ele>311.5</ele><time>2026-04-26T04:32:50Z</time></trkpt><trkpt lat="46.02841035106497" lon="11.94182387883162"><ele>311.25</ele><time>2026-04-26T04:32:51Z</time></trkpt><trkpt lat="46.02846220353903" lon="11.94201479290467"><ele>311.0</ele><time>2026-04-26T04:32:51.999Z</time></trkpt><trkpt lat="46.02851626360906" lon="11.942202868968979"><ele>312.0</ele><time>2026-04-26T04:32:52.999Z</time></trkpt><trkpt lat="46.02856759223181" lon="11.942390035113066"><ele>313.0</ele><time>2026-04-26T04:32:53.999Z</time></trkpt><trkpt lat="46.0286219979019" lon="11.94257470272119"><ele>314.0</ele><time>2026-04-26T04:32:54.999Z</time></trkpt><trkpt lat="46.02867485965299" lon="11.942756649866261"><ele>315.0</ele><time>2026-04-26T04:32:55.999Z</time></trkpt><trkpt lat="46.028726841935644" lon="11.942937404367127"><ele>315.0</ele><time>2026-04-26T04:32:56.999Z</time></trkpt><trkpt lat="46.028779712998535" lon="11.943121925533607"><ele>315.0</ele><time>2026-04-26T04:32:57.999Z</time></trkpt><trkpt lat="46.02883030166615" lon="11.943304525103668"><ele>315.0</ele><time>2026-04-26T04:32:58.999Z</time></trkpt><trkpt lat="46.02888422690175" lon="11.943488734381168"><ele>315.0</ele><time>2026-04-26T04:32:59.999Z</time></trkpt><trkpt lat="46.028938666723704" lon="11.94367406682979"><ele>315.0</ele><time>2026-04-26T04:33:00.999Z</time></trkpt><trkpt lat="46.02899104276698" lon="11.943858941627962"><ele>315.0</ele><time>2026-04-26T04:33:01.999Z</time></trkpt><trkpt lat="46.029042534949" lon="11.94404266510959"><ele>315.0</ele><time>2026-04-26T04:33:02.999Z</time></trkpt><trkpt lat="46.02909730206414" lon="11.944223238440966"><ele>315.0</ele><time>2026-04-26T04:33:03.999Z</time></trkpt><trkpt lat="46.02915289719049" lon="11.944402172279714"><ele>315.0</ele><time>2026-04-26T04:33:04.999Z</time></trkpt><trkpt lat="46.02919943626052" lon="11.944586941931775"><ele>315.0</ele><time>2026-04-26T04:33:05.999Z</time></trkpt><trkpt lat="46.02924387616894" lon="11.944769934758352"><ele>315.0</ele><time>2026-04-26T04:33:06.999Z</time></trkpt><trkpt lat="46.029284403883686" lon="11.944954897756077"><ele>315.0</ele><time>2026-04-26T04:33:07.999Z</time></trkpt><trkpt lat="46.02932413293718" lon="11.945141276148538"><ele>314.75</ele><time>2026-04-26T04:33:08.999Z</time></trkpt><trkpt lat="46.029359392649425" lon="11.945328795931344"><ele>314.5</ele><time>2026-04-26T04:33:09.999Z</time></trkpt><trkpt lat="46.02939756679744" lon="11.945518757438977"><ele>314.25</ele><time>2026-04-26T04:33:10.999Z</time></trkpt><trkpt lat="46.02943152064416" lon="11.945708371426722"><ele>314.0</ele><time>2026-04-26T04:33:11.999Z</time></trkpt><trkpt lat="46.02947013405746" lon="11.945895763921966"><ele>314.0</ele><time>2026-04-26T04:33:12.999Z</time></trkpt><trkpt lat="46.02950399711532" lon="11.946076067290276"><ele>314.0</ele><time>2026-04-26T04:33:13.999Z</time></trkpt><trkpt lat="46.02953715024672" lon="11.946261312119214"><ele>314.0</ele><time>2026-04-26T04:33:14.999Z</time></trkpt><trkpt lat="46.02956679966919" lon="11.946443826951194"><ele>314.0</ele><time>2026-04-26T04:33:15.999Z</time></trkpt><trkpt lat="46.02959656070349" lon="11.946622848423491"><ele>313.75</ele><time>2026-04-26T04:33:16.999Z</time></trkpt><trkpt lat="46.029629735343924" lon="11.946803942687326"><ele>313.5</ele><time>2026-04-26T04:33:17.999Z</time></trkpt><trkpt lat="46.02966362451228" lon="11.946985218839792"><ele>313.25</ele><time>2026-04-26T04:33:18.999Z</time></trkpt><trkpt lat="46.029696305599934" lon="11.94716801653606"><ele>313.0</ele><time>2026-04-26T04:33:19.999Z</time></trkpt><trkpt lat="46.029728465552296" lon="11.947346163887492"><ele>313.0</ele><time>2026-04-26T04:33:20.999Z</time></trkpt><trkpt lat="46.029762005269916" lon="11.947524717607124"><ele>313.0</ele><time>2026-04-26T04:33:21.999Z</time></trkpt><trkpt lat="46.029794921530524" lon="11.947700846803201"><ele>313.0</ele><time>2026-04-26T04:33:22.999Z</time></trkpt><trkpt lat="46.02982869019654" lon="11.947879079787931"><ele>313.0</ele><time>2026-04-26T04:33:24Z</time></trkpt><trkpt lat="46.029861650941335" lon="11.948060736692412"><ele>312.75</ele><time>2026-04-26T04:33:25Z</time></trkpt><trkpt lat="46.02989460873848" lon="11.948244277498723"><ele>312.5</ele><time>2026-04-26T04:33:26Z</time></trkpt><trkpt lat="46.02992926091962" lon="11.948424951639337"><ele>312.25</ele><time>2026-04-26T04:33:27Z</time></trkpt><trkpt lat="46.02996297005587" lon="11.9486018911628"><ele>312.0</ele><time>2026-04-26T04:33:28Z</time></trkpt><trkpt lat="46.02999564140257" lon="11.948780596120178"><ele>312.0</ele><time>2026-04-26T04:33:29Z</time></trkpt><trkpt lat="46.03002811286476" lon="11.948955560316014"><ele>312.0</ele><time>2026-04-26T04:33:30Z</time></trkpt><trkpt lat="46.03006070928895" lon="11.949130046121656"><ele>312.0</ele><time>2026-04-26T04:33:31Z</time></trkpt><trkpt lat="46.03009100526359" lon="11.949299779213488"><ele>312.0</ele><time>2026-04-26T04:33:32Z</time></trkpt><trkpt lat="46.03012145026951" lon="11.949459341637677"><ele>311.5</ele><time>2026-04-26T04:33:33Z</time></trkpt><trkpt lat="46.030148716587334" lon="11.949607448061464"><ele>311.0</ele><time>2026-04-26T04:33:34Z</time></trkpt><trkpt lat="46.030173873866296" lon="11.949744164290877"><ele>310.5</ele><time>2026-04-26T04:33:35Z</time></trkpt><trkpt lat="46.03019163737688" lon="11.949862012238617"><ele>310.0</ele><time>2026-04-26T04:33:36Z</time></trkpt><trkpt lat="46.03020013948775" lon="11.949952980501045"><ele>309.5</ele><time>2026-04-26T04:33:37Z</time></trkpt><trkpt lat="46.030194445781405" lon="11.950048643654629"><ele>309.0</ele><time>2026-04-26T04:33:38Z</time></trkpt><trkpt lat="46.03020980692902" lon="11.950216103554203"><ele>308.6666666666667</ele><time>2026-04-26T04:33:40Z</time></trkpt><trkpt lat="46.03024234143076" lon="11.950366262821454"><ele>308.3333333333333</ele><time>2026-04-26T04:33:42Z</time></trkpt><trkpt lat="46.030272720534505" lon="11.950479046370907"><ele>308.0</ele><time>2026-04-26T04:33:44Z</time></trkpt><trkpt lat="46.0302919251698" lon="11.950580606721479"><ele>307.66666666666663</ele><time>2026-04-26T04:34:26Z</time></trkpt><trkpt lat="46.03033832745432" lon="11.950712848599625"><ele>307.3333333333333</ele><time>2026-04-26T04:34:28Z</time></trkpt><trkpt lat="46.0303555679198" lon="11.950807666058813"><ele>307.0</ele><time>2026-04-26T04:34:29Z</time></trkpt><trkpt lat="46.03037341447379" lon="11.950928967478895"><ele>307.0</ele><time>2026-04-26T04:34:30Z</time></trkpt><trkpt lat="46.03039674362955" lon="11.951053273274631"><ele>307.0</ele><time>2026-04-26T04:34:31Z</time></trkpt><trkpt lat="46.0304222904767" lon="11.951180838282886"><ele>307.0</ele><time>2026-04-26T04:34:32Z</time></trkpt><trkpt lat="46.03044797331756" lon="11.951311975553972"><ele>307.0</ele><time>2026-04-26T04:34:33Z</time></trkpt><trkpt lat="46.03047438605424" lon="11.95144747600666"><ele>307.0</ele><time>2026-04-26T04:34:34Z</time></trkpt><trkpt lat="46.030501853441606" lon="11.951590552790258"><ele>306.25</ele><time>2026-04-26T04:34:35Z</time></trkpt><trkpt lat="46.030528957748324" lon="11.951748842108781"><ele>305.5</ele><time>2026-04-26T04:34:36Z</time></trkpt><trkpt lat="46.0305572063617" lon="11.951915259675983"><ele>304.75</ele><time>2026-04-26T04:34:37Z</time></trkpt><trkpt lat="46.030585897376746" lon="11.952090494763802"><ele>304.0</ele><time>2026-04-26T04:34:38Z</time></trkpt><trkpt lat="46.03061141366292" lon="11.952266370986784"><ele>304.0</ele><time>2026-04-26T04:34:39Z</time></trkpt><trkpt lat="46.030633893974695" lon="11.952440839824302"><ele>304.0</ele><time>2026-04-26T04:34:40Z</time></trkpt><trkpt lat="46.03065589007037" lon="11.952614697959838"><ele>304.0</ele><time>2026-04-26T04:34:41Z</time></trkpt><trkpt lat="46.030676269061544" lon="11.952790381059966"><ele>304.0</ele><time>2026-04-26T04:34:42Z</time></trkpt><trkpt lat="46.03069518430081" lon="11.952965944716505"><ele>303.75</ele><time>2026-04-26T04:34:43Z</time></trkpt><trkpt lat="46.03071245885516" lon="11.95314291049764"><ele>303.5</ele><time>2026-04-26T04:34:44Z</time></trkpt><trkpt lat="46.03072772675416" lon="11.953317419968068"><ele>303.25</ele><time>2026-04-26T04:34:45Z</time></trkpt><trkpt lat="46.030745690220854" lon="11.953492182040035"><ele>303.0</ele><time>2026-04-26T04:34:46Z</time></trkpt><trkpt lat="46.03076347100207" lon="11.953667259452054"><ele>303.0</ele><time>2026-04-26T04:34:47Z</time></trkpt><trkpt lat="46.03077805831984" lon="11.953842963244938"><ele>303.0</ele><time>2026-04-26T04:34:48Z</time></trkpt><trkpt lat="46.03079478532885" lon="11.954017608773569"><ele>303.0</ele><time>2026-04-26T04:34:49Z</time></trkpt><trkpt lat="46.03081410234809" lon="11.954190957699032"><ele>303.0</ele><time>2026-04-26T04:34:50Z</time></trkpt><trkpt lat="46.03083071064339" lon="11.954364355982115"><ele>301.75</ele><time>2026-04-26T04:34:51Z</time></trkpt><trkpt lat="46.030846168110166" lon="11.954536351767652"><ele>300.5</ele><time>2026-04-26T04:34:52Z</time></trkpt><trkpt lat="46.03086206506063" lon="11.954711378425888"><ele>299.25</ele><time>2026-04-26T04:34:53Z</time></trkpt><trkpt lat="46.03087733500228" lon="11.954886893875749"><ele>298.0</ele><time>2026-04-26T04:34:54Z</time></trkpt><trkpt lat="46.03089360869409" lon="11.955061911004245"><ele>297.75</ele><time>2026-04-26T04:34:55Z</time></trkpt><trkpt lat="46.03090926923676" lon="11.955238368415875"><ele>297.5</ele><time>2026-04-26T04:34:56Z</time></trkpt><trkpt lat="46.030925718628815" lon="11.955415902040627"><ele>297.25</ele><time>2026-04-26T04:34:57Z</time></trkpt><trkpt lat="46.03094304056403" lon="11.955594256043335"><ele>297.0</ele><time>2026-04-26T04:34:58Z</time></trkpt><trkpt lat="46.03096035450543" lon="11.955771323579457"><ele>296.75</ele><time>2026-04-26T04:34:58.999Z</time></trkpt><trkpt lat="46.030977502792695" lon="11.955948432314127"><ele>296.5</ele><time>2026-04-26T04:34:59.999Z</time></trkpt><trkpt lat="46.03099374861693" lon="11.956126573447246"><ele>296.25</ele><time>2026-04-26T04:35:00.999Z</time></trkpt><trkpt lat="46.031011071891946" lon="11.95630436593541"><ele>296.0</ele><time>2026-04-26T04:35:01.999Z</time></trkpt><trkpt lat="46.031029042547004" lon="11.956481120158076"><ele>296.0</ele><time>2026-04-26T04:35:02.999Z</time></trkpt><trkpt lat="46.031047384316565" lon="11.9566592883992"><ele>296.0</ele><time>2026-04-26T04:35:03.999Z</time></trkpt><trkpt lat="46.03106488844977" lon="11.956837905292973"><ele>296.0</ele><time>2026-04-26T04:35:04.999Z</time></trkpt><trkpt lat="46.03108214091002" lon="11.957017354598102"><ele>296.0</ele><time>2026-04-26T04:35:05.999Z</time></trkpt><trkpt lat="46.0310998193919" lon="11.95719722153635"><ele>295.25</ele><time>2026-04-26T04:35:06.999Z</time></trkpt><trkpt lat="46.03111784009556" lon="11.957375172249243"><ele>294.5</ele><time>2026-04-26T04:35:07.999Z</time></trkpt><trkpt lat="46.03113472793136" lon="11.957555871825702"><ele>293.75</ele><time>2026-04-26T04:35:08.999Z</time></trkpt><trkpt lat="46.03115057083258" lon="11.957733555288753"><ele>293.0</ele><time>2026-04-26T04:35:09.999Z</time></trkpt><trkpt lat="46.0311690335677" lon="11.957913390539112"><ele>292.5</ele><time>2026-04-26T04:35:10.999Z</time></trkpt><trkpt lat="46.031187478869946" lon="11.958093129796032"><ele>292.0</ele><time>2026-04-26T04:35:11.999Z</time></trkpt><trkpt lat="46.03120332604217" lon="11.9582737859826"><ele>291.5</ele><time>2026-04-26T04:35:12.999Z</time></trkpt><trkpt lat="46.031217584731294" lon="11.958443336690111"><ele>291.0</ele><time>2026-04-26T04:35:13.999Z</time></trkpt><trkpt lat="46.031233105269756" lon="11.958606010186312"><ele>290.8</ele><time>2026-04-26T04:35:14.999Z</time></trkpt><trkpt lat="46.03124922674896" lon="11.958766127834394"><ele>290.6</ele><time>2026-04-26T04:35:15.999Z</time></trkpt><trkpt lat="46.03126558751057" lon="11.958930575140279"><ele>290.4</ele><time>2026-04-26T04:35:16.999Z</time></trkpt><trkpt lat="46.0312814855718" lon="11.959082080523837"><ele>290.2</ele><time>2026-04-26T04:35:17.999Z</time></trkpt><trkpt lat="46.03129584764532" lon="11.959228649508601"><ele>290.0</ele><time>2026-04-26T04:35:18.999Z</time></trkpt><trkpt lat="46.031308428178605" lon="11.959367621475819"><ele>289.6666666666667</ele><time>2026-04-26T04:35:19.999Z</time></trkpt><trkpt lat="46.03131945349466" lon="11.9595015514574"><ele>289.33333333333337</ele><time>2026-04-26T04:35:20.999Z</time></trkpt><trkpt lat="46.031329591698196" lon="11.95963111248562"><ele>289.0</ele><time>2026-04-26T04:35:21.999Z</time></trkpt><trkpt lat="46.03132918708879" lon="11.959754016986855"><ele>288.6666666666667</ele><time>2026-04-26T04:35:22.999Z</time></trkpt><trkpt lat="46.031304285573874" lon="11.959863849857395"><ele>288.3333333333333</ele><time>2026-04-26T04:35:23.999Z</time></trkpt><trkpt lat="46.031273524690484" lon="11.959977237494508"><ele>288.0</ele><time>2026-04-26T04:35:24.999Z</time></trkpt><trkpt lat="46.031281870616766" lon="11.96010238410422"><ele>287.8</ele><time>2026-04-26T04:35:25.999Z</time></trkpt><trkpt lat="46.03132624659304" lon="11.960218365989805"><ele>287.6</ele><time>2026-04-26T04:35:26.999Z</time></trkpt><trkpt lat="46.031388048359965" lon="11.960332450034976"><ele>287.4</ele><time>2026-04-26T04:35:27.999Z</time></trkpt><trkpt lat="46.03142179883472" lon="11.960475593521826"><ele>287.2</ele><time>2026-04-26T04:35:28.999Z</time></trkpt><trkpt lat="46.031423307460095" lon="11.960635732194563"><ele>287.0</ele><time>2026-04-26T04:35:30Z</time></trkpt><trkpt lat="46.03143364569544" lon="11.960793674375529"><ele>286.6</ele><time>2026-04-26T04:35:31Z</time></trkpt><trkpt lat="46.031447051582425" lon="11.960951413569278"><ele>286.2</ele><time>2026-04-26T04:35:32Z</time></trkpt><trkpt lat="46.03146083231823" lon="11.961108746420244"><ele>285.8</ele><time>2026-04-26T04:35:33Z</time></trkpt><trkpt lat="46.03147597989984" lon="11.96126545903908"><ele>285.4</ele><time>2026-04-26T04:35:34Z</time></trkpt><trkpt lat="46.03149122217473" lon="11.961424646453027"><ele>285.0</ele><time>2026-04-26T04:35:35Z</time></trkpt><trkpt lat="46.0315078407192" lon="11.961595585356442"><ele>285.25</ele><time>2026-04-26T04:35:36Z</time></trkpt><trkpt lat="46.03152539288685" lon="11.961766247851216"><ele>285.5</ele><time>2026-04-26T04:35:37Z</time></trkpt><trkpt lat="46.03154716971477" lon="11.961931985596495"><ele>285.75</ele><time>2026-04-26T04:35:38Z</time></trkpt><trkpt lat="46.03157796332763" lon="11.96209280166194"><ele>286.0</ele><time>2026-04-26T04:35:39Z</time></trkpt><trkpt lat="46.03161732212046" lon="11.962252728832725"><ele>286.0</ele><time>2026-04-26T04:35:40Z</time></trkpt><trkpt lat="46.0316653879929" lon="11.962412870755117"><ele>286.0</ele><time>2026-04-26T04:35:41Z</time></trkpt><trkpt lat="46.03172064354496" lon="11.962572135644242"><ele>286.0</ele><time>2026-04-26T04:35:42Z</time></trkpt><trkpt lat="46.03178373322564" lon="11.962721765529478"><ele>286.0</ele><time>2026-04-26T04:35:43Z</time></trkpt><trkpt lat="46.03185310339044" lon="11.96286488182968"><ele>286.25</ele><time>2026-04-26T04:35:44Z</time></trkpt><trkpt lat="46.03192853260424" lon="11.963001294741368"><ele>286.5</ele><time>2026-04-26T04:35:45Z</time></trkpt><trkpt lat="46.0320089528104" lon="11.963129848408755"><ele>286.75</ele><time>2026-04-26T04:35:46Z</time></trkpt><trkpt lat="46.032087245775635" lon="11.96325884324504"><ele>287.0</ele><time>2026-04-26T04:35:47Z</time></trkpt><trkpt lat="46.03216535046247" lon="11.963390449516044"><ele>286.25</ele><time>2026-04-26T04:35:48Z</time></trkpt><trkpt lat="46.03224345751839" lon="11.963521401010627"><ele>285.5</ele><time>2026-04-26T04:35:49Z</time></trkpt><trkpt lat="46.03232156988668" lon="11.96365169424022"><ele>284.75</ele><time>2026-04-26T04:35:50Z</time></trkpt><trkpt lat="46.032398921259215" lon="11.96378293432887"><ele>284.0</ele><time>2026-04-26T04:35:51Z</time></trkpt><trkpt lat="46.03247739630679" lon="11.963914500490928"><ele>283.0</ele><time>2026-04-26T04:35:52Z</time></trkpt><trkpt lat="46.032555710506614" lon="11.964044946578685"><ele>282.0</ele><time>2026-04-26T04:35:53Z</time></trkpt><trkpt lat="46.032636667127015" lon="11.964179823219446"><ele>281.0</ele><time>2026-04-26T04:35:54Z</time></trkpt><trkpt lat="46.03271435980979" lon="11.964318518336201"><ele>280.0</ele><time>2026-04-26T04:35:55Z</time></trkpt><trkpt lat="46.032785610267545" lon="11.96446452103431"><ele>278.75</ele><time>2026-04-26T04:35:56Z</time></trkpt><trkpt lat="46.03285323231337" lon="11.964616450376864"><ele>277.5</ele><time>2026-04-26T04:35:57Z</time></trkpt><trkpt lat="46.032914427635184" lon="11.964768183221068"><ele>276.25</ele><time>2026-04-26T04:35:58Z</time></trkpt><trkpt lat="46.03297015473885" lon="11.964929836808142"><ele>275.0</ele><time>2026-04-26T04:35:59Z</time></trkpt><trkpt lat="46.03302031139564" lon="11.965092950143278"><ele>274.5</ele><time>2026-04-26T04:36:00Z</time></trkpt><trkpt lat="46.03307259050353" lon="11.965258857280665"><ele>274.0</ele><time>2026-04-26T04:36:01Z</time></trkpt><trkpt lat="46.033124039527074" lon="11.9654217376164"><ele>273.5</ele><time>2026-04-26T04:36:02Z</time></trkpt><trkpt lat="46.03317496022137" lon="11.96558386266073"><ele>273.0</ele><time>2026-04-26T04:36:03Z</time></trkpt><trkpt lat="46.03322614135136" lon="11.965747225548904"><ele>273.5</ele><time>2026-04-26T04:36:04Z</time></trkpt><trkpt lat="46.033276353014706" lon="11.965912426051391"><ele>274.0</ele><time>2026-04-26T04:36:05Z</time></trkpt><trkpt lat="46.03332489953567" lon="11.96607708043029"><ele>274.5</ele><time>2026-04-26T04:36:06Z</time></trkpt><trkpt lat="46.03336748776847" lon="11.966245812879146"><ele>275.0</ele><time>2026-04-26T04:36:07Z</time></trkpt><trkpt lat="46.03340425813029" lon="11.966418220257667"><ele>275.0</ele><time>2026-04-26T04:36:08Z</time></trkpt><trkpt lat="46.033435692529096" lon="11.966591261201184"><ele>275.0</ele><time>2026-04-26T04:36:09Z</time></trkpt><trkpt lat="46.03345884902289" lon="11.966766455799547"><ele>275.0</ele><time>2026-04-26T04:36:10Z</time></trkpt><trkpt lat="46.033472851214945" lon="11.966942399437603"><ele>275.0</ele><time>2026-04-26T04:36:11Z</time></trkpt><trkpt lat="46.03347847113338" lon="11.967119357416353"><ele>274.0</ele><time>2026-04-26T04:36:12Z</time></trkpt><trkpt lat="46.03347917231687" lon="11.967297257102395"><ele>273.0</ele><time>2026-04-26T04:36:13Z</time></trkpt><trkpt lat="46.03347835211842" lon="11.967473228255217"><ele>272.0</ele><time>2026-04-26T04:36:14Z</time></trkpt><trkpt lat="46.03347511825424" lon="11.967651027499551"><ele>271.0</ele><time>2026-04-26T04:36:15Z</time></trkpt><trkpt lat="46.033472931091495" lon="11.96782781440805"><ele>269.75</ele><time>2026-04-26T04:36:16Z</time></trkpt><trkpt lat="46.0334686795132" lon="11.96800351134811"><ele>268.5</ele><time>2026-04-26T04:36:17Z</time></trkpt><trkpt lat="46.03346597934544" lon="11.968178378251078"><ele>267.25</ele><time>2026-04-26T04:36:18Z</time></trkpt><trkpt lat="46.033461921537544" lon="11.968353042660143"><ele>266.0</ele><time>2026-04-26T04:36:19Z</time></trkpt><trkpt lat="46.033455524964204" lon="11.968529768945602"><ele>266.0</ele><time>2026-04-26T04:36:20Z</time></trkpt><trkpt lat="46.033447856619475" lon="11.968707835617273"><ele>266.0</ele><time>2026-04-26T04:36:21Z</time></trkpt><trkpt lat="46.03344220097964" lon="11.968891333969596"><ele>266.0</ele><time>2026-04-26T04:36:22Z</time></trkpt><trkpt lat="46.033437732539966" lon="11.969073003502194"><ele>266.0</ele><time>2026-04-26T04:36:23Z</time></trkpt><trkpt lat="46.033437829774975" lon="11.969251094008838"><ele>266.0</ele><time>2026-04-26T04:36:24Z</time></trkpt><trkpt lat="46.03344557087972" lon="11.96942702916348"><ele>266.0</ele><time>2026-04-26T04:36:25Z</time></trkpt><trkpt lat="46.03346125364032" lon="11.969604079072058"><ele>266.0</ele><time>2026-04-26T04:36:26Z</time></trkpt><trkpt lat="46.033484946424856" lon="11.9697801240542"><ele>266.0</ele><time>2026-04-26T04:36:27Z</time></trkpt><trkpt lat="46.0335186928141" lon="11.969956084926684"><ele>265.25</ele><time>2026-04-26T04:36:28Z</time></trkpt><trkpt lat="46.033557837144585" lon="11.970124470176202"><ele>264.5</ele><time>2026-04-26T04:36:29Z</time></trkpt><trkpt lat="46.033605294273066" lon="11.970290427485304"><ele>263.75</ele><time>2026-04-26T04:36:30Z</time></trkpt><trkpt lat="46.03365685860658" lon="11.970450585137035"><ele>263.0</ele><time>2026-04-26T04:36:31Z</time></trkpt><trkpt lat="46.03371135295256" lon="11.9706074921132"><ele>263.0</ele><time>2026-04-26T04:36:32Z</time></trkpt><trkpt lat="46.03376652902119" lon="11.970759973718078"><ele>263.0</ele><time>2026-04-26T04:36:33Z</time></trkpt><trkpt lat="46.03382165719023" lon="11.970910976385252"><ele>263.0</ele><time>2026-04-26T04:36:34Z</time></trkpt><trkpt lat="46.03387673019282" lon="11.971061749275444"><ele>263.0</ele><time>2026-04-26T04:36:35Z</time></trkpt><trkpt lat="46.033932027936174" lon="11.97121402111363"><ele>262.75</ele><time>2026-04-26T04:36:36Z</time></trkpt><trkpt lat="46.03398748103304" lon="11.971364312853098"><ele>262.5</ele><time>2026-04-26T04:36:37Z</time></trkpt><trkpt lat="46.03404321154156" lon="11.971515357234988"><ele>262.25</ele><time>2026-04-26T04:36:38Z</time></trkpt><trkpt lat="46.03409780972509" lon="11.971669899123762"><ele>262.0</ele><time>2026-04-26T04:36:39Z</time></trkpt><trkpt lat="46.03415525435466" lon="11.971820298612672"><ele>262.75</ele><time>2026-04-26T04:36:40Z</time></trkpt><trkpt lat="46.034210951993266" lon="11.971971907469207"><ele>263.5</ele><time>2026-04-26T04:36:41Z</time></trkpt><trkpt lat="46.034266845929864" lon="11.972122059787806"><ele>264.25</ele><time>2026-04-26T04:36:42Z</time></trkpt><trkpt lat="46.03432276592131" lon="11.972274794854247"><ele>265.0</ele><time>2026-04-26T04:36:43Z</time></trkpt><trkpt lat="46.03437927752077" lon="11.9724266688589"><ele>264.75</ele><time>2026-04-26T04:36:44Z</time></trkpt><trkpt lat="46.03443577977668" lon="11.97257690427729"><ele>264.5</ele><time>2026-04-26T04:36:45Z</time></trkpt><trkpt lat="46.034494381428296" lon="11.972724809896516"><ele>264.25</ele><time>2026-04-26T04:36:46Z</time></trkpt><trkpt lat="46.03455187709688" lon="11.972874060287118"><ele>264.0</ele><time>2026-04-26T04:36:47Z</time></trkpt><trkpt lat="46.03460817993337" lon="11.973022808019305"><ele>264.0</ele><time>2026-04-26T04:36:48Z</time></trkpt><trkpt lat="46.034668235874335" lon="11.973174725539838"><ele>264.0</ele><time>2026-04-26T04:36:49Z</time></trkpt><trkpt lat="46.03472906898043" lon="11.973323187789434"><ele>264.0</ele><time>2026-04-26T04:36:50Z</time></trkpt><trkpt lat="46.034790325159044" lon="11.973473816372401"><ele>264.0</ele><time>2026-04-26T04:36:51Z</time></trkpt><trkpt lat="46.03484977122799" lon="11.973625044162771"><ele>264.25</ele><time>2026-04-26T04:36:52Z</time></trkpt><trkpt lat="46.03490940546846" lon="11.973777488890194"><ele>264.5</ele><time>2026-04-26T04:36:53Z</time></trkpt><trkpt lat="46.03496998722135" lon="11.973928751694432"><ele>264.75</ele><time>2026-04-26T04:36:54Z</time></trkpt><trkpt lat="46.03503004040083" lon="11.974077635673833"><ele>265.0</ele><time>2026-04-26T04:36:55Z</time></trkpt><trkpt lat="46.035088422161294" lon="11.974226713323427"><ele>264.25</ele><time>2026-04-26T04:36:56Z</time></trkpt><trkpt lat="46.03514624447627" lon="11.974371745037116"><ele>263.5</ele><time>2026-04-26T04:36:57Z</time></trkpt><trkpt lat="46.035204605383115" lon="11.974519661600064"><ele>262.75</ele><time>2026-04-26T04:36:58Z</time></trkpt><trkpt lat="46.03526486416947" lon="11.974666989967991"><ele>262.0</ele><time>2026-04-26T04:36:59Z</time></trkpt><trkpt lat="46.03532498595208" lon="11.974814415584587"><ele>262.0</ele><time>2026-04-26T04:36:59.999Z</time></trkpt><trkpt lat="46.03538558949327" lon="11.974966961728262"><ele>262.0</ele><time>2026-04-26T04:37:00.999Z</time></trkpt><trkpt lat="46.03544818051021" lon="11.975118310056823"><ele>262.0</ele><time>2026-04-26T04:37:01.999Z</time></trkpt><trkpt lat="46.03550869051527" lon="11.975267865785106"><ele>262.0</ele><time>2026-04-26T04:37:02.999Z</time></trkpt><trkpt lat="46.03556706459696" lon="11.97540991487666"><ele>262.0</ele><time>2026-04-26T04:37:03.999Z</time></trkpt><trkpt lat="46.03562457826737" lon="11.975549814010613"><ele>262.0</ele><time>2026-04-26T04:37:04.999Z</time></trkpt><trkpt lat="46.035683203366084" lon="11.975689867921908"><ele>262.0</ele><time>2026-04-26T04:37:05.999Z</time></trkpt><trkpt lat="46.03574115790105" lon="11.975833589547197"><ele>262.0</ele><time>2026-04-26T04:37:06.999Z</time></trkpt><trkpt lat="46.03580061555318" lon="11.975978227031767"><ele>260.75</ele><time>2026-04-26T04:37:07.999Z</time></trkpt><trkpt lat="46.03586011223573" lon="11.976124163752427"><ele>259.5</ele><time>2026-04-26T04:37:08.999Z</time></trkpt><trkpt lat="46.035919904154724" lon="11.976271784608244"><ele>258.25</ele><time>2026-04-26T04:37:09.999Z</time></trkpt><trkpt lat="46.035980877423924" lon="11.976421117822353"><ele>257.0</ele><time>2026-04-26T04:37:10.999Z</time></trkpt><trkpt lat="46.036042490623636" lon="11.976569817749093"><ele>257.5</ele><time>2026-04-26T04:37:11.999Z</time></trkpt><trkpt lat="46.036105340815894" lon="11.97671791249877"><ele>258.0</ele><time>2026-04-26T04:37:12.999Z</time></trkpt><trkpt lat="46.036167770664626" lon="11.976865819169952"><ele>258.5</ele><time>2026-04-26T04:37:13.999Z</time></trkpt><trkpt lat="46.03622907651017" lon="11.977016387009465"><ele>259.0</ele><time>2026-04-26T04:37:14.999Z</time></trkpt><trkpt lat="46.03628994932295" lon="11.977165952043325"><ele>259.0</ele><time>2026-04-26T04:37:15.999Z</time></trkpt><trkpt lat="46.0363523467329" lon="11.977317403214128"><ele>259.0</ele><time>2026-04-26T04:37:16.999Z</time></trkpt><trkpt lat="46.03641646350887" lon="11.977470604471888"><ele>259.0</ele><time>2026-04-26T04:37:17.999Z</time></trkpt><trkpt lat="46.03647866967373" lon="11.977625543740144"><ele>259.0</ele><time>2026-04-26T04:37:18.999Z</time></trkpt><trkpt lat="46.0365398932757" lon="11.977774530083943"><ele>258.5</ele><time>2026-04-26T04:37:19.999Z</time></trkpt><trkpt lat="46.036598579198454" lon="11.977927468308172"><ele>258.0</ele><time>2026-04-26T04:37:20.999Z</time></trkpt><trkpt lat="46.0366583705107" lon="11.97807598424804"><ele>257.5</ele><time>2026-04-26T04:37:21.999Z</time></trkpt><trkpt lat="46.036719796100165" lon="11.978225605434101"><ele>257.0</ele><time>2026-04-26T04:37:22.999Z</time></trkpt><trkpt lat="46.036781315095844" lon="11.978373431400183"><ele>258.0</ele><time>2026-04-26T04:37:23.999Z</time></trkpt><trkpt lat="46.03684258259764" lon="11.97852120729723"><ele>259.0</ele><time>2026-04-26T04:37:24.999Z</time></trkpt><trkpt lat="46.036903176378914" lon="11.978668873573215"><ele>260.0</ele><time>2026-04-26T04:37:25.999Z</time></trkpt><trkpt lat="46.03696215624728" lon="11.978815932841183"><ele>261.0</ele><time>2026-04-26T04:37:26.999Z</time></trkpt><trkpt lat="46.03702023167415" lon="11.978964237092379"><ele>261.0</ele><time>2026-04-26T04:37:27.999Z</time></trkpt><trkpt lat="46.03707955060484" lon="11.979109577034999"><ele>261.0</ele><time>2026-04-26T04:37:28.999Z</time></trkpt><trkpt lat="46.03714134529902" lon="11.979258163518114"><ele>261.0</ele><time>2026-04-26T04:37:29.999Z</time></trkpt><trkpt lat="46.03720404955649" lon="11.979407511539765"><ele>261.0</ele><time>2026-04-26T04:37:30.999Z</time></trkpt><trkpt lat="46.03726530072442" lon="11.979561535590573"><ele>259.5</ele><time>2026-04-26T04:37:31.999Z</time></trkpt><trkpt lat="46.037329576673045" lon="11.979718448754099"><ele>258.0</ele><time>2026-04-26T04:37:32.999Z</time></trkpt><trkpt lat="46.037392095491974" lon="11.979874165069319"><ele>256.5</ele><time>2026-04-26T04:37:33.999Z</time></trkpt><trkpt lat="46.03745309228693" lon="11.980024386590314"><ele>255.0</ele><time>2026-04-26T04:37:34.999Z</time></trkpt><trkpt lat="46.037515738791804" lon="11.980178471728857"><ele>253.0</ele><time>2026-04-26T04:37:36Z</time></trkpt><trkpt lat="46.037574757579215" lon="11.980326546150392"><ele>251.0</ele><time>2026-04-26T04:37:37Z</time></trkpt><trkpt lat="46.03763262680599" lon="11.980468253046825"><ele>249.0</ele><time>2026-04-26T04:37:38Z</time></trkpt><trkpt lat="46.03769199004049" lon="11.980614347686203"><ele>247.0</ele><time>2026-04-26T04:37:39Z</time></trkpt><trkpt lat="46.037750962496716" lon="11.980765570557558"><ele>247.0</ele><time>2026-04-26T04:37:40Z</time></trkpt><trkpt lat="46.03781341428399" lon="11.980918607515726"><ele>247.0</ele><time>2026-04-26T04:37:41Z</time></trkpt><trkpt lat="46.03787910985644" lon="11.981073483492569"><ele>247.0</ele><time>2026-04-26T04:37:42Z</time></trkpt><trkpt lat="46.03794134513222" lon="11.981219002434944"><ele>247.0</ele><time>2026-04-26T04:37:43Z</time></trkpt><trkpt lat="46.037999079965935" lon="11.981359654450227"><ele>247.0</ele><time>2026-04-26T04:37:44Z</time></trkpt><trkpt lat="46.038055561960086" lon="11.981497382439002"><ele>247.0</ele><time>2026-04-26T04:37:45Z</time></trkpt><trkpt lat="46.038106080751916" lon="11.981626465483416"><ele>247.0</ele><time>2026-04-26T04:37:46Z</time></trkpt><trkpt lat="46.03815742269911" lon="11.981748142428529"><ele>247.0</ele><time>2026-04-26T04:37:47Z</time></trkpt><trkpt lat="46.03821140550702" lon="11.981877265810938"><ele>247.0</ele><time>2026-04-26T04:37:48Z</time></trkpt><trkpt lat="46.03826881593413" lon="11.982012684309918"><ele>246.8</ele><time>2026-04-26T04:37:49Z</time></trkpt><trkpt lat="46.03832636823837" lon="11.982145916151827"><ele>246.6</ele><time>2026-04-26T04:37:50Z</time></trkpt><trkpt lat="46.038380071284216" lon="11.982266981936354"><ele>246.40000000000003</ele><time>2026-04-26T04:37:51Z</time></trkpt><trkpt lat="46.03842993405018" lon="11.982383162719001"><ele>246.20000000000002</ele><time>2026-04-26T04:37:52Z</time></trkpt><trkpt lat="46.038477126357506" lon="11.982490425571994"><ele>246.0</ele><time>2026-04-26T04:37:53Z</time></trkpt><trkpt lat="46.038521038247815" lon="11.982592524488966"><ele>246.0</ele><time>2026-04-26T04:37:54Z</time></trkpt><trkpt lat="46.03855240111241" lon="11.98270880681342"><ele>246.0</ele><time>2026-04-26T04:37:55Z</time></trkpt><trkpt lat="46.03855947192187" lon="11.982852026070622"><ele>246.0</ele><time>2026-04-26T04:37:56Z</time></trkpt><trkpt lat="46.03855076169896" lon="11.982986428123327"><ele>246.0</ele><time>2026-04-26T04:37:57Z</time></trkpt><trkpt lat="46.03855410155051" lon="11.98310646732279"><ele>246.0</ele><time>2026-04-26T04:37:58Z</time></trkpt><trkpt lat="46.038604730787554" lon="11.983202317349607"><ele>246.0</ele><time>2026-04-26T04:37:59Z</time></trkpt><trkpt lat="46.03867133795068" lon="11.983267857403261"><ele>246.0</ele><time>2026-04-26T04:38:00Z</time></trkpt><trkpt lat="46.03874825655319" lon="11.983290069384621"><ele>246.0</ele><time>2026-04-26T04:38:01Z</time></trkpt><trkpt lat="46.03883025418342" lon="11.98325882930961"><ele>246.0</ele><time>2026-04-26T04:38:02Z</time></trkpt><trkpt lat="46.03889138196195" lon="11.98319707611087"><ele>246.0</ele><time>2026-04-26T04:38:03Z</time></trkpt><trkpt lat="46.03893164944986" lon="11.983102551408816"><ele>246.0</ele><time>2026-04-26T04:38:04Z</time></trkpt><trkpt lat="46.03894543765694" lon="11.982989675251812"><ele>246.0</ele><time>2026-04-26T04:38:05Z</time></trkpt><trkpt lat="46.0389234601802" lon="11.982875131094564"><ele>246.0</ele><time>2026-04-26T04:38:06Z</time></trkpt><trkpt lat="46.03887211275635" lon="11.982779504326926"><ele>246.0</ele><time>2026-04-26T04:38:07Z</time></trkpt><trkpt lat="46.0387931411376" lon="11.982711288588273"><ele>246.0</ele><time>2026-04-26T04:38:08Z</time></trkpt><trkpt lat="46.03870117124956" lon="11.982644755847284"><ele>246.0</ele><time>2026-04-26T04:38:09Z</time></trkpt><trkpt lat="46.03863267662696" lon="11.98256646985116"><ele>246.0</ele><time>2026-04-26T04:38:10Z</time></trkpt><trkpt lat="46.03858849934995" lon="11.982474598387856"><ele>246.0</ele><time>2026-04-26T04:38:11Z</time></trkpt><trkpt lat="46.03856971851366" lon="11.982377431622158"><ele>245.8</ele><time>2026-04-26T04:38:12Z</time></trkpt><trkpt lat="46.03857640086247" lon="11.982272399160273"><ele>245.60000000000002</ele><time>2026-04-26T04:38:13Z</time></trkpt><trkpt lat="46.038570483689945" lon="11.982153374374423"><ele>245.4</ele><time>2026-04-26T04:38:14Z</time></trkpt><trkpt lat="46.038526189072044" lon="11.982032107364997"><ele>245.2</ele><time>2026-04-26T04:38:15Z</time></trkpt><trkpt lat="46.03845642593007" lon="11.981916198223368"><ele>245.0</ele><time>2026-04-26T04:38:16Z</time></trkpt><trkpt lat="46.038332709168614" lon="11.981888874298981"><ele>245.00000000000003</ele><time>2026-04-26T04:38:17Z</time></trkpt><trkpt lat="46.03835812732933" lon="11.981724424018807"><ele>245.0</ele><time>2026-04-26T04:38:18Z</time></trkpt><trkpt lat="46.03832332479256" lon="11.981645375412626"><ele>245.0</ele><time>2026-04-26T04:38:19Z</time></trkpt><trkpt lat="46.03827011331382" lon="11.981510829021303"><ele>245.0</ele><time>2026-04-26T04:38:21Z</time></trkpt><trkpt lat="46.03822725288825" lon="11.981421981302496"><ele>245.00000000000003</ele><time>2026-04-26T04:38:23Z</time></trkpt><trkpt lat="46.038229452800785" lon="11.98132503256107"><ele>245.0</ele><time>2026-04-26T04:39:09.999Z</time></trkpt><trkpt lat="46.03821752091844" lon="11.981198585693289"><ele>245.33333333333334</ele><time>2026-04-26T04:43:52.999Z</time></trkpt><trkpt lat="46.038190076683215" lon="11.981307550347866"><ele>245.66666666666669</ele><time>2026-04-26T04:43:57Z</time></trkpt><trkpt lat="46.03816019466798" lon="11.98140948039057"><ele>246.0</ele><time>2026-04-26T04:44:05Z</time></trkpt><trkpt lat="46.038099020408325" lon="11.981289057151772"><ele>246.33333333333331</ele><time>2026-04-26T04:44:56Z</time></trkpt><trkpt lat="46.03804809163069" lon="11.981350630324933"><ele>246.66666666666666</ele><time>2026-04-26T04:45:01Z</time></trkpt><trkpt lat="46.03806153800364" lon="11.98149778321335"><ele>247.0</ele><time>2026-04-26T04:45:03Z</time></trkpt><trkpt lat="46.03810107044558" lon="11.98162783907987"><ele>246.75</ele><time>2026-04-26T04:45:04Z</time></trkpt><trkpt lat="46.03816851025171" lon="11.981791648762144"><ele>246.5</ele><time>2026-04-26T04:45:05Z</time></trkpt><trkpt lat="46.03824949836634" lon="11.981978035638246"><ele>246.25</ele><time>2026-04-26T04:45:06Z</time></trkpt><trkpt lat="46.0383341615121" lon="11.982178091328175"><ele>246.0</ele><time>2026-04-26T04:45:07Z</time></trkpt><trkpt lat="46.03841606913906" lon="11.982365106328514"><ele>246.0</ele><time>2026-04-26T04:45:08Z</time></trkpt><trkpt lat="46.03848814323687" lon="11.982528429571891"><ele>246.0</ele><time>2026-04-26T04:45:09Z</time></trkpt><trkpt lat="46.03854593324459" lon="11.982674442950312"><ele>246.0</ele><time>2026-04-26T04:45:10Z</time></trkpt><trkpt lat="46.03857955329652" lon="11.982816779744407"><ele>246.0</ele><time>2026-04-26T04:45:11Z</time></trkpt><trkpt lat="46.038564281436706" lon="11.982959679103011"><ele>246.0</ele><time>2026-04-26T04:45:12Z</time></trkpt><trkpt lat="46.03855253401903" lon="11.983098783530513"><ele>246.00000000000003</ele><time>2026-04-26T04:45:13Z</time></trkpt><trkpt lat="46.03858783879659" lon="11.983227773871334"><ele>246.00000000000003</ele><time>2026-04-26T04:45:14Z</time></trkpt><trkpt lat="46.03866289911485" lon="11.983350617000461"><ele>246.0</ele><time>2026-04-26T04:45:15Z</time></trkpt><trkpt lat="46.03871762331089" lon="11.983490057440772"><ele>246.0</ele><time>2026-04-26T04:45:16Z</time></trkpt><trkpt lat="46.03874904984505" lon="11.983642492824082"><ele>246.0</ele><time>2026-04-26T04:45:17Z</time></trkpt><trkpt lat="46.03871164895234" lon="11.983851128241017"><ele>246.0</ele><time>2026-04-26T04:45:18Z</time></trkpt><trkpt lat="46.038686986909106" lon="11.984046337056144"><ele>246.0</ele><time>2026-04-26T04:45:19Z</time></trkpt><trkpt lat="46.038647397403366" lon="11.984239076769347"><ele>246.0</ele><time>2026-04-26T04:45:20Z</time></trkpt><trkpt lat="46.03858065335589" lon="11.984423254693649"><ele>245.0</ele><time>2026-04-26T04:45:21Z</time></trkpt><trkpt lat="46.03850356053596" lon="11.98460434871497"><ele>244.0</ele><time>2026-04-26T04:45:22Z</time></trkpt><trkpt lat="46.03842346287361" lon="11.984782613996547"><ele>243.0</ele><time>2026-04-26T04:45:23Z</time></trkpt><trkpt lat="46.03835276624786" lon="11.984963482412459"><ele>242.0</ele><time>2026-04-26T04:45:24Z</time></trkpt><trkpt lat="46.03828376810395" lon="11.985140210966977"><ele>242.0</ele><time>2026-04-26T04:45:24.999Z</time></trkpt><trkpt lat="46.038218556269115" lon="11.98530360619335"><ele>242.0</ele><time>2026-04-26T04:45:25.999Z</time></trkpt><trkpt lat="46.038148396922246" lon="11.985464562921013"><ele>242.0</ele><time>2026-04-26T04:45:26.999Z</time></trkpt><trkpt lat="46.03808060998363" lon="11.98563119534255"><ele>242.0</ele><time>2026-04-26T04:45:27.999Z</time></trkpt><trkpt lat="46.038031426128796" lon="11.985812155302929"><ele>239.75</ele><time>2026-04-26T04:45:28.999Z</time></trkpt><trkpt lat="46.03800615716738" lon="11.986006110720107"><ele>237.5</ele><time>2026-04-26T04:45:29.999Z</time></trkpt><trkpt lat="46.038010596095766" lon="11.986221918955927"><ele>235.25</ele><time>2026-04-26T04:45:30.999Z</time></trkpt><trkpt lat="46.038009104909975" lon="11.986421218972412"><ele>233.0</ele><time>2026-04-26T04:45:31.999Z</time></trkpt><trkpt lat="46.03800503040408" lon="11.98662153564708"><ele>232.75</ele><time>2026-04-26T04:45:32.999Z</time></trkpt><trkpt lat="46.03800079078125" lon="11.986823960425097"><ele>232.5</ele><time>2026-04-26T04:45:33.999Z</time></trkpt><trkpt lat="46.037996315731284" lon="11.987024070508106"><ele>232.25</ele><time>2026-04-26T04:45:34.999Z</time></trkpt><trkpt lat="46.037991850192874" lon="11.987219466544646"><ele>232.0</ele><time>2026-04-26T04:45:35.999Z</time></trkpt><trkpt lat="46.037986915144316" lon="11.987416373027505"><ele>232.5</ele><time>2026-04-26T04:45:36.999Z</time></trkpt><trkpt lat="46.03797946331492" lon="11.987611621217487"><ele>233.0</ele><time>2026-04-26T04:45:37.999Z</time></trkpt><trkpt lat="46.0379806769393" lon="11.987806940155938"><ele>233.5</ele><time>2026-04-26T04:45:38.999Z</time></trkpt><trkpt lat="46.037987541034376" lon="11.988003015929564"><ele>234.0</ele><time>2026-04-26T04:45:39.999Z</time></trkpt><trkpt lat="46.03800665819038" lon="11.988196329786227"><ele>234.5</ele><time>2026-04-26T04:45:40.999Z</time></trkpt><trkpt lat="46.03803365610551" lon="11.988392068208583"><ele>235.0</ele><time>2026-04-26T04:45:41.999Z</time></trkpt><trkpt lat="46.038063925254555" lon="11.98858417464506"><ele>235.5</ele><time>2026-04-26T04:45:42.999Z</time></trkpt><trkpt lat="46.03809314006682" lon="11.988782403416083"><ele>236.0</ele><time>2026-04-26T04:45:43.999Z</time></trkpt><trkpt lat="46.03812057667015" lon="11.988975670301903"><ele>236.0</ele><time>2026-04-26T04:45:44.999Z</time></trkpt><trkpt lat="46.03814773697207" lon="11.989170791292157"><ele>236.0</ele><time>2026-04-26T04:45:45.999Z</time></trkpt><trkpt lat="46.03817687188125" lon="11.98936476038776"><ele>236.0</ele><time>2026-04-26T04:45:46.999Z</time></trkpt><trkpt lat="46.038204787204165" lon="11.989561268741662"><ele>236.0</ele><time>2026-04-26T04:45:47.999Z</time></trkpt><trkpt lat="46.03822730566628" lon="11.989761061190054"><ele>236.75</ele><time>2026-04-26T04:45:48.999Z</time></trkpt><trkpt lat="46.03823662960002" lon="11.989963755102732"><ele>237.5</ele><time>2026-04-26T04:45:49.999Z</time></trkpt><trkpt lat="46.03823400856716" lon="11.990160045752852"><ele>238.25</ele><time>2026-04-26T04:45:50.999Z</time></trkpt><trkpt lat="46.03822458097389" lon="11.99036079911268"><ele>239.0</ele><time>2026-04-26T04:45:51.999Z</time></trkpt><trkpt lat="46.03820691243129" lon="11.990560002390762"><ele>239.25</ele><time>2026-04-26T04:45:52.999Z</time></trkpt><trkpt lat="46.038186945480405" lon="11.990757382049692"><ele>239.5</ele><time>2026-04-26T04:45:53.999Z</time></trkpt><trkpt lat="46.03816862765089" lon="11.990951191219601"><ele>239.75</ele><time>2026-04-26T04:45:54.999Z</time></trkpt><trkpt lat="46.03814870040954" lon="11.99114664663595"><ele>240.0</ele><time>2026-04-26T04:45:55.999Z</time></trkpt><trkpt lat="46.03812807241096" lon="11.99134314528067"><ele>240.0</ele><time>2026-04-26T04:45:56.999Z</time></trkpt><trkpt lat="46.038110053216236" lon="11.991540516460585"><ele>240.0</ele><time>2026-04-26T04:45:57.999Z</time></trkpt><trkpt lat="46.03810077185136" lon="11.991741652273133"><ele>240.0</ele><time>2026-04-26T04:45:58.999Z</time></trkpt><trkpt lat="46.038091507777445" lon="11.991944833587239"><ele>240.0</ele><time>2026-04-26T04:46:00Z</time></trkpt><trkpt lat="46.03807240546651" lon="11.992150696900257"><ele>240.0</ele><time>2026-04-26T04:46:01Z</time></trkpt><trkpt lat="46.03804973223752" lon="11.992354394607776"><ele>240.0</ele><time>2026-04-26T04:46:02Z</time></trkpt><trkpt lat="46.038030117823425" lon="11.992556608661573"><ele>240.0</ele><time>2026-04-26T04:46:03Z</time></trkpt><trkpt lat="46.0380102518969" lon="11.992753979198563"><ele>240.0</ele><time>2026-04-26T04:46:04Z</time></trkpt><trkpt lat="46.03798999103216" lon="11.992949004070994"><ele>240.0</ele><time>2026-04-26T04:46:05Z</time></trkpt><trkpt lat="46.03796757255949" lon="11.993141607369479"><ele>240.0</ele><time>2026-04-26T04:46:06Z</time></trkpt><trkpt lat="46.03794453702644" lon="11.993331368756891"><ele>240.0</ele><time>2026-04-26T04:46:07Z</time></trkpt><trkpt lat="46.0379200636978" lon="11.99352245275355"><ele>240.0</ele><time>2026-04-26T04:46:08Z</time></trkpt><trkpt lat="46.037895250175616" lon="11.993713189195914"><ele>240.0</ele><time>2026-04-26T04:46:09Z</time></trkpt><trkpt lat="46.037873164499786" lon="11.993905731239675"><ele>240.0</ele><time>2026-04-26T04:46:10Z</time></trkpt><trkpt lat="46.03786111541602" lon="11.994103270672593"><ele>240.0</ele><time>2026-04-26T04:46:11Z</time></trkpt><trkpt lat="46.03785945469841" lon="11.994297234821357"><ele>240.0</ele><time>2026-04-26T04:46:12Z</time></trkpt><trkpt lat="46.03785238196105" lon="11.994493491781759"><ele>240.5</ele><time>2026-04-26T04:46:13Z</time></trkpt><trkpt lat="46.03783654194686" lon="11.994686582275769"><ele>241.0</ele><time>2026-04-26T04:46:14Z</time></trkpt><trkpt lat="46.0378175362539" lon="11.994870546570777"><ele>241.5</ele><time>2026-04-26T04:46:15Z</time></trkpt><trkpt lat="46.03779655535427" lon="11.995054670494426"><ele>242.0</ele><time>2026-04-26T04:46:16Z</time></trkpt><trkpt lat="46.037775028870556" lon="11.99523974058264"><ele>242.0</ele><time>2026-04-26T04:46:17Z</time></trkpt><trkpt lat="46.037761169301746" lon="11.995422002721254"><ele>242.0</ele><time>2026-04-26T04:46:18Z</time></trkpt><trkpt lat="46.03774732808603" lon="11.995611715392318"><ele>242.0</ele><time>2026-04-26T04:46:19Z</time></trkpt><trkpt lat="46.037736122881114" lon="11.995804183486753"><ele>242.0</ele><time>2026-04-26T04:46:20Z</time></trkpt><trkpt lat="46.03772682938769" lon="11.995995880853856"><ele>242.0</ele><time>2026-04-26T04:46:21Z</time></trkpt><trkpt lat="46.037720256381164" lon="11.996186478815641"><ele>242.0</ele><time>2026-04-26T04:46:22Z</time></trkpt><trkpt lat="46.0377163596037" lon="11.996376158615107"><ele>242.0</ele><time>2026-04-26T04:46:23Z</time></trkpt><trkpt lat="46.0377137914776" lon="11.99656897052011"><ele>242.0</ele><time>2026-04-26T04:46:24Z</time></trkpt><trkpt lat="46.03771198243134" lon="11.996760541424845"><ele>241.75</ele><time>2026-04-26T04:46:25Z</time></trkpt><trkpt lat="46.03771345107368" lon="11.99695268605562"><ele>241.5</ele><time>2026-04-26T04:46:26Z</time></trkpt><trkpt lat="46.03771826848839" lon="11.99714512121747"><ele>241.25</ele><time>2026-04-26T04:46:27Z</time></trkpt><trkpt lat="46.0377250799597" lon="11.997337787311189"><ele>241.0</ele><time>2026-04-26T04:46:28Z</time></trkpt><trkpt lat="46.03773492112397" lon="11.99752925652507"><ele>240.5</ele><time>2026-04-26T04:46:29Z</time></trkpt><trkpt lat="46.03774809124906" lon="11.997721800625676"><ele>240.0</ele><time>2026-04-26T04:46:30Z</time></trkpt><trkpt lat="46.0377647236269" lon="11.997914695703155"><ele>239.5</ele><time>2026-04-26T04:46:31Z</time></trkpt><trkpt lat="46.037781176174015" lon="11.998106932342278"><ele>239.0</ele><time>2026-04-26T04:46:32Z</time></trkpt><trkpt lat="46.03779959814629" lon="11.99829743092216"><ele>239.75</ele><time>2026-04-26T04:46:33Z</time></trkpt><trkpt lat="46.037818321575514" lon="11.99848531777223"><ele>240.5</ele><time>2026-04-26T04:46:34Z</time></trkpt><trkpt lat="46.03783945681182" lon="11.99866090472326"><ele>241.25</ele><time>2026-04-26T04:46:35Z</time></trkpt><trkpt lat="46.03785902495287" lon="11.9988247914027"><ele>242.0</ele><time>2026-04-26T04:46:36Z</time></trkpt><trkpt lat="46.03787782592976" lon="11.998978533415249"><ele>242.00000000000003</ele><time>2026-04-26T04:46:37Z</time></trkpt><trkpt lat="46.03789621336368" lon="11.999120249068225"><ele>242.0</ele><time>2026-04-26T04:46:38Z</time></trkpt><trkpt lat="46.03791469691772" lon="11.999232353421739"><ele>242.0</ele><time>2026-04-26T04:46:39Z</time></trkpt><trkpt lat="46.0379270602431" lon="11.999326104904682"><ele>242.0</ele><time>2026-04-26T04:46:40Z</time></trkpt><trkpt lat="46.03789756938777" lon="11.999455382688392"><ele>242.00000000000003</ele><time>2026-04-26T04:46:42Z</time></trkpt><trkpt lat="46.037795720416106" lon="11.999457431067201"><ele>242.0</ele><time>2026-04-26T04:46:43Z</time></trkpt><trkpt lat="46.03769777750969" lon="11.99946643167823"><ele>241.83333333333334</ele><time>2026-04-26T04:46:44Z</time></trkpt><trkpt lat="46.037580572075775" lon="11.999494613937273"><ele>241.66666666666669</ele><time>2026-04-26T04:46:45Z</time></trkpt><trkpt lat="46.037490973613046" lon="11.999505380360711"><ele>241.5</ele><time>2026-04-26T04:46:46Z</time></trkpt><trkpt lat="46.03742116659073" lon="11.999529340650813"><ele>241.33333333333331</ele><time>2026-04-26T04:46:47Z</time></trkpt><trkpt lat="46.037357755020594" lon="11.999542053961715"><ele>241.16666666666666</ele><time>2026-04-26T04:46:49Z</time></trkpt><trkpt lat="46.03725900262815" lon="11.99957927272691"><ele>241.0</ele><time>2026-04-26T04:46:53Z</time></trkpt><trkpt lat="46.03718360018665" lon="11.999620079578218"><ele>240.8</ele><time>2026-04-26T04:46:54Z</time></trkpt><trkpt lat="46.03709702767652" lon="11.999666331665562"><ele>240.60000000000002</ele><time>2026-04-26T04:46:55Z</time></trkpt><trkpt lat="46.036994707045075" lon="11.999735168386334"><ele>240.4</ele><time>2026-04-26T04:46:56Z</time></trkpt><trkpt lat="46.03688827925408" lon="11.99982323839144"><ele>240.2</ele><time>2026-04-26T04:46:57Z</time></trkpt><trkpt lat="46.03680974249731" lon="11.999913141296627"><ele>240.0</ele><time>2026-04-26T04:46:58Z</time></trkpt><trkpt lat="46.03675922659297" lon="12.000017169840572"><ele>240.0</ele><time>2026-04-26T04:46:59Z</time></trkpt><trkpt lat="46.036707759500416" lon="12.000077683669842"><ele>240.0</ele><time>2026-04-26T04:47:00Z</time></trkpt><trkpt lat="46.036639596740535" lon="12.000144324270822"><ele>240.0</ele><time>2026-04-26T04:47:02Z</time></trkpt><trkpt lat="46.036627257192194" lon="12.000346466098023"><ele>240.0</ele><time>2026-04-26T04:47:04Z</time></trkpt><trkpt lat="46.036630311726796" lon="12.000497688165312"><ele>240.0</ele><time>2026-04-26T04:47:05Z</time></trkpt><trkpt lat="46.036609847301364" lon="12.00066724366364"><ele>240.0</ele><time>2026-04-26T04:47:06Z</time></trkpt><trkpt lat="46.036575831387104" lon="12.000817241359629"><ele>240.0</ele><time>2026-04-26T04:47:07Z</time></trkpt><trkpt lat="46.036523916782215" lon="12.000931066202954"><ele>240.0</ele><time>2026-04-26T04:47:08Z</time></trkpt><trkpt lat="46.03648742463749" lon="12.001053438055404"><ele>240.0</ele><time>2026-04-26T04:47:09Z</time></trkpt><trkpt lat="46.03643610229" lon="12.00116643825504"><ele>240.0</ele><time>2026-04-26T04:47:10Z</time></trkpt><trkpt lat="46.03646172841068" lon="12.001329380739596"><ele>240.2</ele><time>2026-04-26T04:47:11Z</time></trkpt><trkpt lat="46.036471376948995" lon="12.001505403756022"><ele>240.4</ele><time>2026-04-26T04:47:12Z</time></trkpt><trkpt lat="46.03647890560548" lon="12.00167090739958"><ele>240.60000000000002</ele><time>2026-04-26T04:47:13Z</time></trkpt><trkpt lat="46.03649539119355" lon="12.001807108382408"><ele>240.8</ele><time>2026-04-26T04:47:14Z</time></trkpt><trkpt lat="46.03649282564981" lon="12.0019304958216"><ele>241.0</ele><time>2026-04-26T04:47:15Z</time></trkpt><trkpt lat="46.036490530725494" lon="12.002040638251094"><ele>240.99999999999997</ele><time>2026-04-26T04:47:16Z</time></trkpt><trkpt lat="46.03647408977821" lon="12.002143579339393"><ele>241.0</ele><time>2026-04-26T04:47:17Z</time></trkpt><trkpt lat="46.036432477502935" lon="12.002255527604074"><ele>241.0</ele><time>2026-04-26T04:47:18Z</time></trkpt><trkpt lat="46.03638047111636" lon="12.00235502368608"><ele>241.0</ele><time>2026-04-26T04:47:19Z</time></trkpt><trkpt lat="46.0363194311501" lon="12.00243606728026"><ele>240.99999999999997</ele><time>2026-04-26T04:47:20Z</time></trkpt><trkpt lat="46.03627182462921" lon="12.002542151618396"><ele>241.0</ele><time>2026-04-26T04:47:21Z</time></trkpt><trkpt lat="46.0362672066066" lon="12.002681709418313"><ele>240.99999999999997</ele><time>2026-04-26T04:47:22Z</time></trkpt><trkpt lat="46.03628188397124" lon="12.00281988304403"><ele>241.0</ele><time>2026-04-26T04:47:23Z</time></trkpt><trkpt lat="46.03631238318754" lon="12.002956819577244"><ele>241.0</ele><time>2026-04-26T04:47:24Z</time></trkpt><trkpt lat="46.03633944146514" lon="12.003079539293838"><ele>241.0</ele><time>2026-04-26T04:47:25Z</time></trkpt><trkpt lat="46.03636412750885" lon="12.003194450599437"><ele>240.99999999999997</ele><time>2026-04-26T04:47:26Z</time></trkpt><trkpt lat="46.036386725473655" lon="12.003299492204778"><ele>241.0</ele><time>2026-04-26T04:47:27Z</time></trkpt><trkpt lat="46.03639999271016" lon="12.00340647585183"><ele>240.83333333333331</ele><time>2026-04-26T04:47:27.999Z</time></trkpt><trkpt lat="46.03638703907586" lon="12.003502326290633"><ele>240.66666666666666</ele><time>2026-04-26T04:47:28.999Z</time></trkpt><trkpt lat="46.03635317299032" lon="12.00361314180772"><ele>240.5</ele><time>2026-04-26T04:47:29.999Z</time></trkpt><trkpt lat="46.03630034067304" lon="12.003727235883881"><ele>240.33333333333331</ele><time>2026-04-26T04:47:30.999Z</time></trkpt><trkpt lat="46.03623480534056" lon="12.003831365292962"><ele>240.16666666666666</ele><time>2026-04-26T04:47:31.999Z</time></trkpt><trkpt lat="46.03616110018176" lon="12.003918953159564"><ele>240.0</ele><time>2026-04-26T04:47:32.999Z</time></trkpt><trkpt lat="46.03609386312593" lon="12.003979631449786"><ele>240.0</ele><time>2026-04-26T04:47:33.999Z</time></trkpt><trkpt lat="46.0360355432293" lon="12.00404146084808"><ele>240.0</ele><time>2026-04-26T04:47:34.999Z</time></trkpt><trkpt lat="46.03598363304609" lon="12.004104625097918"><ele>240.0</ele><time>2026-04-26T04:47:35.999Z</time></trkpt><trkpt lat="46.035939122784384" lon="12.004189768970747"><ele>240.0</ele><time>2026-04-26T04:47:36.999Z</time></trkpt><trkpt lat="46.035916625429806" lon="12.004295586510416"><ele>240.0</ele><time>2026-04-26T04:47:37.999Z</time></trkpt><trkpt lat="46.03590560171905" lon="12.004419462170981"><ele>240.0</ele><time>2026-04-26T04:47:38.999Z</time></trkpt><trkpt lat="46.03590685968636" lon="12.00454690549435"><ele>240.2</ele><time>2026-04-26T04:47:39.999Z</time></trkpt><trkpt lat="46.03591382106244" lon="12.004677574987106"><ele>240.4</ele><time>2026-04-26T04:47:40.999Z</time></trkpt><trkpt lat="46.03592878945051" lon="12.00481427209976"><ele>240.60000000000002</ele><time>2026-04-26T04:47:41.999Z</time></trkpt><trkpt lat="46.03595073699681" lon="12.004964377130833"><ele>240.8</ele><time>2026-04-26T04:47:42.999Z</time></trkpt><trkpt lat="46.035981815865945" lon="12.00512485023772"><ele>241.0</ele><time>2026-04-26T04:47:43.999Z</time></trkpt><trkpt lat="46.036021333976166" lon="12.005290636326702"><ele>241.20000000000002</ele><time>2026-04-26T04:47:44.999Z</time></trkpt><trkpt lat="46.03606081104846" lon="12.005451425187006"><ele>241.40000000000003</ele><time>2026-04-26T04:47:45.999Z</time></trkpt><trkpt lat="46.03609774792467" lon="12.005607523368331"><ele>241.6</ele><time>2026-04-26T04:47:46.999Z</time></trkpt><trkpt lat="46.036123281493936" lon="12.005749249365266"><ele>241.8</ele><time>2026-04-26T04:47:47.999Z</time></trkpt><trkpt lat="46.03612991483738" lon="12.005880318433599"><ele>242.0</ele><time>2026-04-26T04:47:48.999Z</time></trkpt><trkpt lat="46.03611205905392" lon="12.006022079631395"><ele>242.0</ele><time>2026-04-26T04:47:49.999Z</time></trkpt><trkpt lat="46.03606565061644" lon="12.00616032316577"><ele>242.0</ele><time>2026-04-26T04:47:50.999Z</time></trkpt><trkpt lat="46.03600674719507" lon="12.006292333171366"><ele>242.0</ele><time>2026-04-26T04:47:51.999Z</time></trkpt><trkpt lat="46.035964510430546" lon="12.006438787705315"><ele>242.0</ele><time>2026-04-26T04:47:52.999Z</time></trkpt><trkpt lat="46.035931327999485" lon="12.006598372915938"><ele>242.0</ele><time>2026-04-26T04:47:53.999Z</time></trkpt><trkpt lat="46.03590085873099" lon="12.006763912530827"><ele>242.0</ele><time>2026-04-26T04:47:54.999Z</time></trkpt><trkpt lat="46.035878460420804" lon="12.006928840073224"><ele>242.0</ele><time>2026-04-26T04:47:55.999Z</time></trkpt><trkpt lat="46.035864869062465" lon="12.007095444830355"><ele>242.0</ele><time>2026-04-26T04:47:56.999Z</time></trkpt><trkpt lat="46.03585523517024" lon="12.007255440836792"><ele>242.0</ele><time>2026-04-26T04:47:57.999Z</time></trkpt><trkpt lat="46.03585225165297" lon="12.007418624258053"><ele>242.5</ele><time>2026-04-26T04:47:58.999Z</time></trkpt><trkpt lat="46.035861627776654" lon="12.007580634597906"><ele>243.0</ele><time>2026-04-26T04:47:59.999Z</time></trkpt><trkpt lat="46.03589553675252" lon="12.007737747459103"><ele>243.5</ele><time>2026-04-26T04:48:00.999Z</time></trkpt><trkpt lat="46.03594280132475" lon="12.007886075611005"><ele>244.0</ele><time>2026-04-26T04:48:01.999Z</time></trkpt><trkpt lat="46.03600630889406" lon="12.00802583143802"><ele>244.0</ele><time>2026-04-26T04:48:02.999Z</time></trkpt><trkpt lat="46.03608620990195" lon="12.008162498350227"><ele>244.0</ele><time>2026-04-26T04:48:03.999Z</time></trkpt><trkpt lat="46.03616029181508" lon="12.008321932950079"><ele>244.0</ele><time>2026-04-26T04:48:04.999Z</time></trkpt><trkpt lat="46.036254850200486" lon="12.008475019919588"><ele>244.0</ele><time>2026-04-26T04:48:06Z</time></trkpt><trkpt lat="46.03636624023936" lon="12.008604393805044"><ele>244.2</ele><time>2026-04-26T04:48:07Z</time></trkpt><trkpt lat="46.03645450686072" lon="12.008724309351646"><ele>244.39999999999998</ele><time>2026-04-26T04:48:08Z</time></trkpt><trkpt lat="46.03654729600995" lon="12.00881747166905"><ele>244.6</ele><time>2026-04-26T04:48:09Z</time></trkpt><trkpt lat="46.036629991961746" lon="12.008892858789046"><ele>244.8</ele><time>2026-04-26T04:48:10Z</time></trkpt><trkpt lat="46.036702371264" lon="12.008931565476681"><ele>245.0</ele><time>2026-04-26T04:48:11Z</time></trkpt><trkpt lat="46.03674045703315" lon="12.009012882456268"><ele>245.4</ele><time>2026-04-26T04:48:12Z</time></trkpt><trkpt lat="46.03665872625083" lon="12.009255347869043"><ele>245.8</ele><time>2026-04-26T04:48:15Z</time></trkpt><trkpt lat="46.03659952302389" lon="12.009314531735805"><ele>246.2</ele><time>2026-04-26T04:48:16Z</time></trkpt><trkpt lat="46.03653769374761" lon="12.009371417007562"><ele>246.6</ele><time>2026-04-26T04:48:17Z</time></trkpt><trkpt lat="46.0364788052205" lon="12.009428952732222"><ele>247.0</ele><time>2026-04-26T04:48:18Z</time></trkpt><trkpt lat="46.03643064897431" lon="12.009490922594113"><ele>247.0</ele><time>2026-04-26T04:48:19Z</time></trkpt><trkpt lat="46.03637398243952" lon="12.009634188591043"><ele>247.0</ele><time>2026-04-26T04:48:21Z</time></trkpt><trkpt lat="46.0363757677144" lon="12.009788616862313"><ele>247.0</ele><time>2026-04-26T04:48:23Z</time></trkpt><trkpt lat="46.036417838694476" lon="12.009911823890569"><ele>247.0</ele><time>2026-04-26T04:48:25Z</time></trkpt><trkpt lat="46.036475485639556" lon="12.010044852794236"><ele>247.0</ele><time>2026-04-26T04:48:27Z</time></trkpt><trkpt lat="46.03650999697358" lon="12.01013240047632"><ele>247.2</ele><time>2026-04-26T04:48:28Z</time></trkpt><trkpt lat="46.036555235151276" lon="12.010233926149082"><ele>247.39999999999998</ele><time>2026-04-26T04:48:29Z</time></trkpt><trkpt lat="46.03660921852453" lon="12.010356221077863"><ele>247.60000000000002</ele><time>2026-04-26T04:48:30Z</time></trkpt><trkpt lat="46.03666703469569" lon="12.010493438404394"><ele>247.8</ele><time>2026-04-26T04:48:31Z</time></trkpt><trkpt lat="46.03673680484359" lon="12.010659976419413"><ele>248.0</ele><time>2026-04-26T04:48:32Z</time></trkpt><trkpt lat="46.03680824213212" lon="12.0108350140683"><ele>249.0</ele><time>2026-04-26T04:48:33Z</time></trkpt><trkpt lat="46.036880742218784" lon="12.011035354521129"><ele>250.0</ele><time>2026-04-26T04:48:34Z</time></trkpt><trkpt lat="46.03694555053677" lon="12.011248297587663"><ele>251.0</ele><time>2026-04-26T04:48:35Z</time></trkpt><trkpt lat="46.03700640592876" lon="12.011465040275946"><ele>252.25</ele><time>2026-04-26T04:48:36Z</time></trkpt><trkpt lat="46.03706428256623" lon="12.011663014511383"><ele>253.5</ele><time>2026-04-26T04:48:37Z</time></trkpt><trkpt lat="46.03712313567105" lon="12.011854949000163"><ele>254.75</ele><time>2026-04-26T04:48:38Z</time></trkpt><trkpt lat="46.037178588790276" lon="12.012049626260934"><ele>256.0</ele><time>2026-04-26T04:48:39Z</time></trkpt><trkpt lat="46.0372305760197" lon="12.012235191385024"><ele>256.0</ele><time>2026-04-26T04:48:40Z</time></trkpt><trkpt lat="46.03728461617535" lon="12.012417132910093"><ele>256.0</ele><time>2026-04-26T04:48:41Z</time></trkpt><trkpt lat="46.037335698701206" lon="12.012587786417065"><ele>256.0</ele><time>2026-04-26T04:48:42Z</time></trkpt><trkpt lat="46.037384281458294" lon="12.012758973734584"><ele>256.0</ele><time>2026-04-26T04:48:43Z</time></trkpt><trkpt lat="46.03743493459628" lon="12.012931404778254"><ele>255.5</ele><time>2026-04-26T04:48:44Z</time></trkpt><trkpt lat="46.03748498904421" lon="12.013097503952954"><ele>255.0</ele><time>2026-04-26T04:48:45Z</time></trkpt><trkpt lat="46.037533952944536" lon="12.013261916212436"><ele>254.5</ele><time>2026-04-26T04:48:46Z</time></trkpt><trkpt lat="46.037581080714766" lon="12.01342636560486"><ele>254.0</ele><time>2026-04-26T04:48:47Z</time></trkpt><trkpt lat="46.037620531666235" lon="12.013577954167406"><ele>254.00000000000003</ele><time>2026-04-26T04:48:48Z</time></trkpt><trkpt lat="46.037656058055305" lon="12.013717987266727"><ele>254.0</ele><time>2026-04-26T04:48:49Z</time></trkpt><trkpt lat="46.03768973405834" lon="12.013848997943876"><ele>254.0</ele><time>2026-04-26T04:48:50Z</time></trkpt><trkpt lat="46.03771859929058" lon="12.013966166375305"><ele>254.0</ele><time>2026-04-26T04:48:51Z</time></trkpt><trkpt lat="46.03774507714763" lon="12.014073690746214"><ele>254.00000000000003</ele><time>2026-04-26T04:48:52Z</time></trkpt><trkpt lat="46.03776983072975" lon="12.014177618271757"><ele>254.0</ele><time>2026-04-26T04:48:53Z</time></trkpt><trkpt lat="46.03779541156385" lon="12.01428903865258"><ele>254.6</ele><time>2026-04-26T04:48:54Z</time></trkpt><trkpt lat="46.03781875816883" lon="12.014385368839614"><ele>255.2</ele><time>2026-04-26T04:48:55Z</time></trkpt><trkpt lat="46.037858698060866" lon="12.014540286801324"><ele>255.79999999999998</ele><time>2026-04-26T04:48:57Z</time></trkpt><trkpt lat="46.03788996209116" lon="12.014678063080394"><ele>256.4</ele><time>2026-04-26T04:48:59Z</time></trkpt><trkpt lat="46.037980897386774" lon="12.01480037410015"><ele>257.0</ele><time>2026-04-26T04:49:01Z</time></trkpt><trkpt lat="46.0380441334636" lon="12.014834246853681"><ele>257.0</ele><time>2026-04-26T04:49:02Z</time></trkpt><trkpt lat="46.03810942845148" lon="12.014843777620106"><ele>257.0</ele><time>2026-04-26T04:49:03Z</time></trkpt><trkpt lat="46.03817523918597" lon="12.014828076121065"><ele>257.0</ele><time>2026-04-26T04:49:04Z</time></trkpt><trkpt lat="46.03823597121828" lon="12.014788021665927"><ele>257.0</ele><time>2026-04-26T04:49:05Z</time></trkpt><trkpt lat="46.03829809465202" lon="12.014738607103236"><ele>257.0</ele><time>2026-04-26T04:49:06Z</time></trkpt><trkpt lat="46.03836323545784" lon="12.014681051399059"><ele>257.0</ele><time>2026-04-26T04:49:07Z</time></trkpt><trkpt lat="46.03842998145712" lon="12.014619288170373"><ele>257.0</ele><time>2026-04-26T04:49:08Z</time></trkpt><trkpt lat="46.03849310175931" lon="12.014567269976135"><ele>256.75</ele><time>2026-04-26T04:49:09Z</time></trkpt><trkpt lat="46.03855084526017" lon="12.014518745788456"><ele>256.5</ele><time>2026-04-26T04:49:11Z</time></trkpt><trkpt lat="46.03844216520707" lon="12.014593470014828"><ele>256.25</ele><time>2026-04-26T04:49:17Z</time></trkpt><trkpt lat="46.038619117267274" lon="12.014502961326489"><ele>256.0</ele><time>2026-04-26T04:49:18Z</time></trkpt><trkpt lat="46.038364228182935" lon="12.01489604057507"><ele>255.99999999999997</ele><time>2026-04-26T04:49:19Z</time></trkpt><trkpt lat="46.038307676062175" lon="12.01498276289926"><ele>256.0</ele><time>2026-04-26T04:49:20Z</time></trkpt><trkpt lat="46.0382517205908" lon="12.015068660305529"><ele>256.0</ele><time>2026-04-26T04:49:21Z</time></trkpt><trkpt lat="46.03819839222945" lon="12.015148105209674"><ele>256.0</ele><time>2026-04-26T04:49:22Z</time></trkpt><trkpt lat="46.03814775586672" lon="12.015220012947585"><ele>255.99999999999997</ele><time>2026-04-26T04:49:23Z</time></trkpt><trkpt lat="46.038092395413805" lon="12.015298256719534"><ele>256.0</ele><time>2026-04-26T04:49:24Z</time></trkpt><trkpt lat="46.0380399177427" lon="12.015366246762747"><ele>256.3333333333333</ele><time>2026-04-26T04:49:25Z</time></trkpt><trkpt lat="46.03794357347215" lon="12.015456569168755"><ele>256.66666666666663</ele><time>2026-04-26T04:49:27Z</time></trkpt><trkpt lat="46.037882358405575" lon="12.015492133220532"><ele>257.0</ele><time>2026-04-26T04:49:28Z</time></trkpt><trkpt lat="46.03781736312269" lon="12.015514918472885"><ele>257.3333333333333</ele><time>2026-04-26T04:49:29Z</time></trkpt><trkpt lat="46.03775169930316" lon="12.015527089886104"><ele>257.6666666666667</ele><time>2026-04-26T04:49:30Z</time></trkpt><trkpt lat="46.03764585808757" lon="12.015501117351935"><ele>258.0</ele><time>2026-04-26T04:49:32Z</time></trkpt><trkpt lat="46.03755334318118" lon="12.015479510873877"><ele>259.8333333333333</ele><time>2026-04-26T04:49:34Z</time></trkpt><trkpt lat="46.03745001739688" lon="12.0154327544165"><ele>261.6666666666667</ele><time>2026-04-26T04:49:36Z</time></trkpt><trkpt lat="46.03739338975784" lon="12.015386932793417"><ele>263.5</ele><time>2026-04-26T04:49:37Z</time></trkpt><trkpt lat="46.03733364798197" lon="12.015345268622971"><ele>265.33333333333337</ele><time>2026-04-26T04:49:38Z</time></trkpt><trkpt lat="46.03722687129379" lon="12.015256096820648"><ele>267.1666666666667</ele><time>2026-04-26T04:49:40Z</time></trkpt><trkpt lat="46.03717832371784" lon="12.015198071533487"><ele>269.0</ele><time>2026-04-26T04:49:41Z</time></trkpt><trkpt lat="46.037083680923374" lon="12.015092518328045"><ele>269.0</ele><time>2026-04-26T04:49:43Z</time></trkpt><trkpt lat="46.03702351346647" lon="12.015058850007241"><ele>269.0</ele><time>2026-04-26T04:49:44Z</time></trkpt><trkpt lat="46.03695808491092" lon="12.015021154636127"><ele>269.0</ele><time>2026-04-26T04:49:44.999Z</time></trkpt><trkpt lat="46.03685331203018" lon="12.015004089061401"><ele>269.0</ele><time>2026-04-26T04:49:46.999Z</time></trkpt><trkpt lat="46.03673183626033" lon="12.014989238878004"><ele>269.0</ele><time>2026-04-26T04:49:48.999Z</time></trkpt><trkpt lat="46.036630076095925" lon="12.015004325958271"><ele>271.33333333333337</ele><time>2026-04-26T04:49:50.999Z</time></trkpt><trkpt lat="46.036533466707546" lon="12.0150603211143"><ele>273.6666666666667</ele><time>2026-04-26T04:49:52.999Z</time></trkpt><trkpt lat="46.03647406846307" lon="12.015096844306001"><ele>276.0</ele><time>2026-04-26T04:49:53.999Z</time></trkpt><trkpt lat="46.036415968128566" lon="12.01513511326813"><ele>278.3333333333333</ele><time>2026-04-26T04:49:54.999Z</time></trkpt><trkpt lat="46.036319159114626" lon="12.015199723298426"><ele>280.66666666666663</ele><time>2026-04-26T04:49:56.999Z</time></trkpt><trkpt lat="46.03625513360163" lon="12.015304640561121"><ele>283.0</ele><time>2026-04-26T04:49:58.999Z</time></trkpt><trkpt lat="46.03621429392663" lon="12.015404038254303"><ele>283.0</ele><time>2026-04-26T04:50:00.999Z</time></trkpt><trkpt lat="46.03621169111288" lon="12.01553003891958"><ele>283.0</ele><time>2026-04-26T04:50:02.999Z</time></trkpt><trkpt lat="46.03619531524726" lon="12.015694923001153"><ele>283.0</ele><time>2026-04-26T04:50:04.999Z</time></trkpt><trkpt lat="46.03618287687788" lon="12.01583978602422"><ele>283.0</ele><time>2026-04-26T04:50:06.999Z</time></trkpt><trkpt lat="46.036157912289845" lon="12.015937549842286"><ele>283.0</ele><time>2026-04-26T04:50:08.999Z</time></trkpt><trkpt lat="46.036078207598756" lon="12.01599400146763"><ele>284.5</ele><time>2026-04-26T04:50:10.999Z</time></trkpt><trkpt lat="46.035977550955785" lon="12.015984839891813"><ele>286.0</ele><time>2026-04-26T04:50:13Z</time></trkpt><trkpt lat="46.035886188057695" lon="12.015988232260188"><ele>287.5</ele><time>2026-04-26T04:50:15Z</time></trkpt><trkpt lat="46.0358033768601" lon="12.016003568350431"><ele>289.0</ele><time>2026-04-26T04:50:17Z</time></trkpt><trkpt lat="46.0357238976205" lon="12.016017113553323"><ele>290.5</ele><time>2026-04-26T04:50:19Z</time></trkpt><trkpt lat="46.035640145910854" lon="12.016012775068134"><ele>292.0</ele><time>2026-04-26T04:50:21Z</time></trkpt><trkpt lat="46.03555970042901" lon="12.016087530119098"><ele>295.8</ele><time>2026-04-26T04:50:23Z</time></trkpt><trkpt lat="46.03543884568347" lon="12.016115286961234"><ele>299.6</ele><time>2026-04-26T04:50:25Z</time></trkpt><trkpt lat="46.03535761043416" lon="12.016139215489305"><ele>303.40000000000003</ele><time>2026-04-26T04:50:34Z</time></trkpt><trkpt lat="46.03525986961806" lon="12.016230355454288"><ele>307.2</ele><time>2026-04-26T04:50:36Z</time></trkpt><trkpt lat="46.035208312831706" lon="12.016338413417532"><ele>311.0</ele><time>2026-04-26T04:50:38Z</time></trkpt><trkpt lat="46.03514595268413" lon="12.016476795956148"><ele>311.0</ele><time>2026-04-26T04:50:40Z</time></trkpt><trkpt lat="46.03510672948708" lon="12.01657404306508"><ele>311.0</ele><time>2026-04-26T04:50:41Z</time></trkpt><trkpt lat="46.03509677566485" lon="12.016720764637167"><ele>311.0</ele><time>2026-04-26T04:50:43Z</time></trkpt><trkpt lat="46.0350848214365" lon="12.016860061900575"><ele>311.0</ele><time>2026-04-26T04:50:45Z</time></trkpt><trkpt lat="46.03509912043182" lon="12.016952961596195"><ele>311.0</ele><time>2026-04-26T04:50:46Z</time></trkpt><trkpt lat="46.035108231000436" lon="12.01712578870894"><ele>312.5</ele><time>2026-04-26T04:50:48Z</time></trkpt><trkpt lat="46.035059414908595" lon="12.017227451858522"><ele>314.0</ele><time>2026-04-26T04:50:51Z</time></trkpt><trkpt lat="46.034984406920394" lon="12.017271998794161"><ele>315.5</ele><time>2026-04-26T04:50:54Z</time></trkpt><trkpt lat="46.03490984738806" lon="12.017260760823701"><ele>317.0</ele><time>2026-04-26T04:50:56Z</time></trkpt><trkpt lat="46.034814865312136" lon="12.017194296455592"><ele>318.5</ele><time>2026-04-26T04:50:59Z</time></trkpt><trkpt lat="46.034744207903884" lon="12.017111984614216"><ele>320.0</ele><time>2026-04-26T04:51:01Z</time></trkpt><trkpt lat="46.03467608119381" lon="12.017095190687787"><ele>323.33333333333337</ele><time>2026-04-26T04:51:03Z</time></trkpt><trkpt lat="46.03458665907292" lon="12.017069081187062"><ele>326.6666666666667</ele><time>2026-04-26T04:51:05Z</time></trkpt><trkpt lat="46.034517076844104" lon="12.017122498595544"><ele>330.0</ele><time>2026-04-26T04:51:07Z</time></trkpt><trkpt lat="46.034447729882366" lon="12.017161077471494"><ele>333.3333333333333</ele><time>2026-04-26T04:51:09Z</time></trkpt><trkpt lat="46.03437363019787" lon="12.017208409472113"><ele>336.66666666666663</ele><time>2026-04-26T04:51:10Z</time></trkpt><trkpt lat="46.03429791861879" lon="12.017232322779211"><ele>340.0</ele><time>2026-04-26T04:51:11Z</time></trkpt><trkpt lat="46.03418099428398" lon="12.017242212168929"><ele>342.8</ele><time>2026-04-26T04:51:13Z</time></trkpt><trkpt lat="46.034078433328915" lon="12.017250644222125"><ele>345.6</ele><time>2026-04-26T04:51:15Z</time></trkpt><trkpt lat="46.033974126690225" lon="12.017238876046182"><ele>348.4</ele><time>2026-04-26T04:51:17Z</time></trkpt><trkpt lat="46.03390626714064" lon="12.017241317768203"><ele>351.2</ele><time>2026-04-26T04:51:18Z</time></trkpt><trkpt lat="46.03379063192278" lon="12.017238706623639"><ele>354.0</ele><time>2026-04-26T04:51:20Z</time></trkpt><trkpt lat="46.03370051105945" lon="12.017249413751172"><ele>354.0</ele><time>2026-04-26T04:51:22Z</time></trkpt><trkpt lat="46.03356257907397" lon="12.017248276114769"><ele>354.0</ele><time>2026-04-26T04:51:24Z</time></trkpt><trkpt lat="46.03349792779864" lon="12.017244187910793"><ele>354.0</ele><time>2026-04-26T04:51:25Z</time></trkpt><trkpt lat="46.033399715535616" lon="12.017234051402248"><ele>354.0</ele><time>2026-04-26T04:51:27Z</time></trkpt><trkpt lat="46.03333268840069" lon="12.017203646894089"><ele>354.0</ele><time>2026-04-26T04:51:28Z</time></trkpt><trkpt lat="46.03324438890796" lon="12.017227614562529"><ele>356.8333333333333</ele><time>2026-04-26T04:51:32Z</time></trkpt><trkpt lat="46.03313332032946" lon="12.017249662943941"><ele>359.6666666666667</ele><time>2026-04-26T04:51:34Z</time></trkpt><trkpt lat="46.03305059442481" lon="12.017296715777404"><ele>362.5</ele><time>2026-04-26T04:51:36Z</time></trkpt><trkpt lat="46.03298404681337" lon="12.017350533589868"><ele>365.33333333333337</ele><time>2026-04-26T04:51:38Z</time></trkpt><trkpt lat="46.03297239820587" lon="12.017450750892475"><ele>368.1666666666667</ele><time>2026-04-26T04:51:40Z</time></trkpt><trkpt lat="46.03297100698012" lon="12.017561020551076"><ele>371.0</ele><time>2026-04-26T04:51:42Z</time></trkpt><trkpt lat="46.03292127649088" lon="12.017637672845119"><ele>372.5</ele><time>2026-04-26T04:51:47.999Z</time></trkpt><trkpt lat="46.03285313993579" lon="12.017654231812148"><ele>374.0</ele><time>2026-04-26T04:51:48.999Z</time></trkpt><trkpt lat="46.03278439279177" lon="12.017711175375558"><ele>375.5</ele><time>2026-04-26T04:51:49.999Z</time></trkpt><trkpt lat="46.03271953241125" lon="12.017813232102005"><ele>377.0</ele><time>2026-04-26T04:51:50.999Z</time></trkpt><trkpt lat="46.03266159758291" lon="12.017948390143179"><ele>378.5</ele><time>2026-04-26T04:51:51.999Z</time></trkpt><trkpt lat="46.0326040840805" lon="12.018023762019627"><ele>380.0</ele><time>2026-04-26T04:51:52.999Z</time></trkpt><trkpt lat="46.032484891505774" lon="12.018049134161577"><ele>381.33333333333337</ele><time>2026-04-26T04:51:54.999Z</time></trkpt><trkpt lat="46.03241884414625" lon="12.01799446395002"><ele>382.6666666666667</ele><time>2026-04-26T04:51:55.999Z</time></trkpt><trkpt lat="46.03237258196903" lon="12.017906163826384"><ele>384.0</ele><time>2026-04-26T04:51:56.999Z</time></trkpt><trkpt lat="46.032352756574674" lon="12.017783948247407"><ele>385.33333333333337</ele><time>2026-04-26T04:51:57.999Z</time></trkpt><trkpt lat="46.03232513967391" lon="12.017660185249387"><ele>386.6666666666667</ele><time>2026-04-26T04:51:58.999Z</time></trkpt><trkpt lat="46.03228890209441" lon="12.01755003251597"><ele>388.0</ele><time>2026-04-26T04:51:59.999Z</time></trkpt><trkpt lat="46.03226510439894" lon="12.017454280356654"><ele>388.0</ele><time>2026-04-26T04:52:00.999Z</time></trkpt><trkpt lat="46.03214808783116" lon="12.017367115875059"><ele>388.0</ele><time>2026-04-26T04:52:01.999Z</time></trkpt><trkpt lat="46.03205131762812" lon="12.01727617096591"><ele>388.0</ele><time>2026-04-26T04:52:02.999Z</time></trkpt><trkpt lat="46.03194596813984" lon="12.017209385157923"><ele>388.0</ele><time>2026-04-26T04:52:03.999Z</time></trkpt><trkpt lat="46.03186112322556" lon="12.017105510630786"><ele>388.0</ele><time>2026-04-26T04:52:04.999Z</time></trkpt><trkpt lat="46.03178534533887" lon="12.016977151790892"><ele>388.0</ele><time>2026-04-26T04:52:05.999Z</time></trkpt><trkpt lat="46.03173765992671" lon="12.01682127786639"><ele>388.0</ele><time>2026-04-26T04:52:06.999Z</time></trkpt><trkpt lat="46.03169990023533" lon="12.016659005718186"><ele>388.0</ele><time>2026-04-26T04:52:07.999Z</time></trkpt><trkpt lat="46.03167212428658" lon="12.016494107711015"><ele>393.2</ele><time>2026-04-26T04:52:08.999Z</time></trkpt><trkpt lat="46.03162951575559" lon="12.01633802909492"><ele>398.4</ele><time>2026-04-26T04:52:09.999Z</time></trkpt><trkpt lat="46.03158134416185" lon="12.016195495019439"><ele>403.59999999999997</ele><time>2026-04-26T04:52:10.999Z</time></trkpt><trkpt lat="46.03153123490611" lon="12.016067507498116"><ele>408.79999999999995</ele><time>2026-04-26T04:52:11.999Z</time></trkpt><trkpt lat="46.03148948622315" lon="12.015956369090434"><ele>414.0</ele><time>2026-04-26T04:52:12.999Z</time></trkpt><trkpt lat="46.03145517880694" lon="12.015860734420041"><ele>414.0</ele><time>2026-04-26T04:52:13.999Z</time></trkpt><trkpt lat="46.03143241881374" lon="12.015736568202188"><ele>414.0</ele><time>2026-04-26T04:52:15.999Z</time></trkpt><trkpt lat="46.03145317714862" lon="12.015869436170677"><ele>414.0</ele><time>2026-04-26T04:52:25Z</time></trkpt><trkpt lat="46.03135778489141" lon="12.01607622724584"><ele>414.0</ele><time>2026-04-26T04:52:27Z</time></trkpt><trkpt lat="46.03136548195197" lon="12.016234354593626"><ele>414.0</ele><time>2026-04-26T04:52:29Z</time></trkpt><trkpt lat="46.03137357969442" lon="12.016374363314732"><ele>414.0</ele><time>2026-04-26T04:52:31Z</time></trkpt><trkpt lat="46.03136589748316" lon="12.016492868574453"><ele>414.0</ele><time>2026-04-26T04:52:33Z</time></trkpt><trkpt lat="46.031333050161166" lon="12.01664024756548"><ele>414.0</ele><time>2026-04-26T04:52:35Z</time></trkpt><trkpt lat="46.03132563609443" lon="12.016732399478109"><ele>414.0</ele><time>2026-04-26T04:52:36Z</time></trkpt><trkpt lat="46.0313168778818" lon="12.016822357626394"><ele>414.0</ele><time>2026-04-26T04:52:37Z</time></trkpt><trkpt lat="46.03131334477546" lon="12.016915186623356"><ele>415.6</ele><time>2026-04-26T04:52:38Z</time></trkpt><trkpt lat="46.031283172810475" lon="12.017073084062664"><ele>417.2</ele><time>2026-04-26T04:52:40Z</time></trkpt><trkpt lat="46.03124222216046" lon="12.017224554297869"><ele>418.8</ele><time>2026-04-26T04:52:42Z</time></trkpt><trkpt lat="46.03122758343997" lon="12.017351101369385"><ele>420.40000000000003</ele><time>2026-04-26T04:52:44Z</time></trkpt><trkpt lat="46.031242514745685" lon="12.01746365626928"><ele>422.0</ele><time>2026-04-26T04:52:46Z</time></trkpt><trkpt lat="46.03125313124928" lon="12.017612222968195"><ele>423.0</ele><time>2026-04-26T04:52:48Z</time></trkpt><trkpt lat="46.03130712752419" lon="12.017786096011864"><ele>424.0</ele><time>2026-04-26T04:52:50Z</time></trkpt><trkpt lat="46.031373464115475" lon="12.017929867834605"><ele>425.00000000000006</ele><time>2026-04-26T04:52:52Z</time></trkpt><trkpt lat="46.031408062396906" lon="12.018027956722904"><ele>426.0</ele><time>2026-04-26T04:52:54Z</time></trkpt><trkpt lat="46.03142713197197" lon="12.018165499203525"><ele>427.0</ele><time>2026-04-26T04:52:56Z</time></trkpt><trkpt lat="46.03141013633882" lon="12.018254461767274"><ele>429.20000000000005</ele><time>2026-04-26T04:52:57Z</time></trkpt><trkpt lat="46.03136269771521" lon="12.018334740060533"><ele>431.40000000000003</ele><time>2026-04-26T04:52:59Z</time></trkpt><trkpt lat="46.03126805642218" lon="12.018448523153216"><ele>433.59999999999997</ele><time>2026-04-26T04:53:01Z</time></trkpt><trkpt lat="46.03120880321504" lon="12.018535327146418"><ele>435.79999999999995</ele><time>2026-04-26T04:53:02Z</time></trkpt><trkpt lat="46.031152734715334" lon="12.018627545722694"><ele>438.0</ele><time>2026-04-26T04:53:04Z</time></trkpt><trkpt lat="46.03106273352209" lon="12.018697820793141"><ele>438.0</ele><time>2026-04-26T04:53:06Z</time></trkpt><trkpt lat="46.03098302095908" lon="12.018746472927177"><ele>438.0</ele><time>2026-04-26T04:53:08Z</time></trkpt><trkpt lat="46.03101998530057" lon="12.018826178399085"><ele>438.0</ele><time>2026-04-26T04:53:10Z</time></trkpt><trkpt lat="46.03105347687531" lon="12.01892337834668"><ele>438.0</ele><time>2026-04-26T04:53:12Z</time></trkpt><trkpt lat="46.03109408864813" lon="12.019018075018677"><ele>438.0</ele><time>2026-04-26T04:53:14Z</time></trkpt><trkpt lat="46.03120288945476" lon="12.019007041559322"><ele>438.0</ele><time>2026-04-26T04:53:16Z</time></trkpt><trkpt lat="46.03130639317541" lon="12.018925650920842"><ele>438.0</ele><time>2026-04-26T04:53:18Z</time></trkpt><trkpt lat="46.031381815618616" lon="12.018928679434772"><ele>437.99999999999994</ele><time>2026-04-26T04:53:20Z</time></trkpt><trkpt lat="46.03150377059698" lon="12.018924494685852"><ele>437.99999999999994</ele><time>2026-04-26T04:53:23Z</time></trkpt><trkpt lat="46.03158676082645" lon="12.019006687569007"><ele>438.0</ele><time>2026-04-26T04:53:25Z</time></trkpt><trkpt lat="46.03170142780633" lon="12.019046061551187"><ele>438.0</ele><time>2026-04-26T04:53:27Z</time></trkpt><trkpt lat="46.031773093910054" lon="12.019125328503478"><ele>435.8333333333333</ele><time>2026-04-26T04:53:29Z</time></trkpt><trkpt lat="46.03183217744691" lon="12.019173363904349"><ele>433.66666666666663</ele><time>2026-04-26T04:53:31Z</time></trkpt><trkpt lat="46.03188287527709" lon="12.019296244015337"><ele>431.5</ele><time>2026-04-26T04:53:33Z</time></trkpt><trkpt lat="46.03193046487176" lon="12.019381399250753"><ele>429.3333333333333</ele><time>2026-04-26T04:53:35Z</time></trkpt><trkpt lat="46.03194945013167" lon="12.019513515761744"><ele>427.16666666666663</ele><time>2026-04-26T04:53:38Z</time></trkpt><trkpt lat="46.0319760234127" lon="12.019660247637987"><ele>425.0</ele><time>2026-04-26T04:53:39.999Z</time></trkpt><trkpt lat="46.032021203036" lon="12.01976975696919"><ele>425.0</ele><time>2026-04-26T04:53:41.999Z</time></trkpt><trkpt lat="46.031972847942065" lon="12.019888815813248"><ele>425.0</ele><time>2026-04-26T04:53:43.999Z</time></trkpt><trkpt lat="46.03195497434812" lon="12.020080641032411"><ele>425.0</ele><time>2026-04-26T04:53:45.999Z</time></trkpt><trkpt lat="46.03193817544737" lon="12.02019155732792"><ele>425.0</ele><time>2026-04-26T04:53:47.999Z</time></trkpt><trkpt lat="46.031941119541244" lon="12.020324449542299"><ele>425.0</ele><time>2026-04-26T04:53:49.999Z</time></trkpt><trkpt lat="46.031912162225126" lon="12.0205062922163"><ele>426.2857142857143</ele><time>2026-04-26T04:53:51.999Z</time></trkpt><trkpt lat="46.0318885627026" lon="12.02059340487977"><ele>427.57142857142856</ele><time>2026-04-26T04:53:52.999Z</time></trkpt><trkpt lat="46.03186537068269" lon="12.020682863492533"><ele>428.8571428571429</ele><time>2026-04-26T04:53:53.999Z</time></trkpt><trkpt lat="46.03185105952842" lon="12.020772830150202"><ele>430.1428571428571</ele><time>2026-04-26T04:53:54.999Z</time></trkpt><trkpt lat="46.03184495586592" lon="12.020889967062407"><ele>431.42857142857144</ele><time>2026-04-26T04:53:56.999Z</time></trkpt><trkpt lat="46.03183615967941" lon="12.021030595730206"><ele>432.7142857142857</ele><time>2026-04-26T04:53:58.999Z</time></trkpt><trkpt lat="46.03182153623848" lon="12.021132079121013"><ele>434.0</ele><time>2026-04-26T04:54:00.999Z</time></trkpt><trkpt lat="46.03183902015887" lon="12.021270108701342"><ele>434.16666666666663</ele><time>2026-04-26T04:54:02.999Z</time></trkpt><trkpt lat="46.03188179443755" lon="12.021414137301907"><ele>434.3333333333333</ele><time>2026-04-26T04:54:04.999Z</time></trkpt><trkpt lat="46.03191279658349" lon="12.02149358648958"><ele>434.5</ele><time>2026-04-26T04:54:05.999Z</time></trkpt><trkpt lat="46.031984642906046" lon="12.021637853231853"><ele>434.66666666666663</ele><time>2026-04-26T04:54:07.999Z</time></trkpt><trkpt lat="46.03203390958106" lon="12.021703197237446"><ele>434.8333333333333</ele><time>2026-04-26T04:54:08.999Z</time></trkpt><trkpt lat="46.03208594932579" lon="12.02176272457255"><ele>435.0</ele><time>2026-04-26T04:54:09.999Z</time></trkpt><trkpt lat="46.032141315360754" lon="12.021817868001024"><ele>435.25</ele><time>2026-04-26T04:54:10.999Z</time></trkpt><trkpt lat="46.0322467290109" lon="12.02191891091705"><ele>435.5</ele><time>2026-04-26T04:54:12.999Z</time></trkpt><trkpt lat="46.032345386181746" lon="12.022008273786247"><ele>435.75</ele><time>2026-04-26T04:54:14.999Z</time></trkpt><trkpt lat="46.03244555246713" lon="12.022094140284468"><ele>436.0</ele><time>2026-04-26T04:54:16.999Z</time></trkpt><trkpt lat="46.03253846306629" lon="12.022186849894304"><ele>435.6</ele><time>2026-04-26T04:54:18.999Z</time></trkpt><trkpt lat="46.032628306781355" lon="12.022285975174182"><ele>435.20000000000005</ele><time>2026-04-26T04:54:20.999Z</time></trkpt><trkpt lat="46.032720735083856" lon="12.022379109708577"><ele>434.79999999999995</ele><time>2026-04-26T04:54:22.999Z</time></trkpt><trkpt lat="46.03279025341232" lon="12.022494621598947"><ele>434.4</ele><time>2026-04-26T04:54:25Z</time></trkpt><trkpt lat="46.032842914566906" lon="12.022635197020445"><ele>434.0</ele><time>2026-04-26T04:54:27Z</time></trkpt><trkpt lat="46.0328963523797" lon="12.0227840213412"><ele>434.0</ele><time>2026-04-26T04:54:29Z</time></trkpt><trkpt lat="46.03295249507238" lon="12.022925462524324"><ele>434.0</ele><time>2026-04-26T04:54:31Z</time></trkpt><trkpt lat="46.03302839851387" lon="12.023038211665519"><ele>434.0</ele><time>2026-04-26T04:54:33Z</time></trkpt><trkpt lat="46.03313344428022" lon="12.02313737283789"><ele>434.0</ele><time>2026-04-26T04:54:35Z</time></trkpt><trkpt lat="46.03324203025252" lon="12.023201178272817"><ele>436.79999999999995</ele><time>2026-04-26T04:54:37Z</time></trkpt><trkpt lat="46.03335514395458" lon="12.023271347092694"><ele>439.59999999999997</ele><time>2026-04-26T04:54:39Z</time></trkpt><trkpt lat="46.03341496781107" lon="12.02330163309744"><ele>442.4</ele><time>2026-04-26T04:54:40Z</time></trkpt><trkpt lat="46.03352057332351" lon="12.02338273443315"><ele>445.2</ele><time>2026-04-26T04:54:42Z</time></trkpt><trkpt lat="46.03358294929052" lon="12.023419580165529"><ele>448.0</ele><time>2026-04-26T04:54:43Z</time></trkpt><trkpt lat="46.033669338245815" lon="12.023494868155854"><ele>448.00000000000006</ele><time>2026-04-26T04:54:45Z</time></trkpt><trkpt lat="46.033731164862715" lon="12.023622903025627"><ele>448.0</ele><time>2026-04-26T04:54:47Z</time></trkpt><trkpt lat="46.03376308257396" lon="12.023733504494034"><ele>448.0</ele><time>2026-04-26T04:54:49Z</time></trkpt><trkpt lat="46.033790119492366" lon="12.023828233830534"><ele>448.0</ele><time>2026-04-26T04:54:51Z</time></trkpt><trkpt lat="46.03379613533919" lon="12.023921669132823"><ele>448.00000000000006</ele><time>2026-04-26T04:54:53Z</time></trkpt><trkpt lat="46.033700502887484" lon="12.023919984907108"><ele>448.0</ele><time>2026-04-26T04:54:55Z</time></trkpt><trkpt lat="46.03362734638569" lon="12.02395733984653"><ele>448.00000000000006</ele><time>2026-04-26T04:54:56Z</time></trkpt><trkpt lat="46.03355547899193" lon="12.023999038533667"><ele>448.0</ele><time>2026-04-26T04:54:57Z</time></trkpt><trkpt lat="46.033484642357976" lon="12.024062655623895"><ele>448.0</ele><time>2026-04-26T04:54:58Z</time></trkpt><trkpt lat="46.03340405493508" lon="12.024104204138467"><ele>448.0</ele><time>2026-04-26T04:54:59Z</time></trkpt><trkpt lat="46.033327928511994" lon="12.024142161430685"><ele>448.00000000000006</ele><time>2026-04-26T04:55:00Z</time></trkpt><trkpt lat="46.03325419539714" lon="12.024168338135011"><ele>448.0</ele><time>2026-04-26T04:55:01Z</time></trkpt><trkpt lat="46.03317093228195" lon="12.024197875875553"><ele>449.6666666666667</ele><time>2026-04-26T04:55:02Z</time></trkpt><trkpt lat="46.03310755404184" lon="12.024268154601252"><ele>451.33333333333337</ele><time>2026-04-26T04:55:03Z</time></trkpt><trkpt lat="46.03307942592572" lon="12.024381814679042"><ele>453.0</ele><time>2026-04-26T04:55:04Z</time></trkpt><trkpt lat="46.033048957072715" lon="12.024518726305303"><ele>454.66666666666663</ele><time>2026-04-26T04:55:05Z</time></trkpt><trkpt lat="46.03301924609203" lon="12.024659375427412"><ele>456.3333333333333</ele><time>2026-04-26T04:55:06Z</time></trkpt><trkpt lat="46.033002587102104" lon="12.024767191919873"><ele>458.0</ele><time>2026-04-26T04:55:07Z</time></trkpt><trkpt lat="46.032974131080366" lon="12.024899722589721"><ele>458.0</ele><time>2026-04-26T04:55:09Z</time></trkpt><trkpt lat="46.032865732769125" lon="12.024853712885232"><ele>457.99999999999994</ele><time>2026-04-26T04:55:11Z</time></trkpt><trkpt lat="46.03278532634444" lon="12.024824994328826"><ele>457.99999999999994</ele><time>2026-04-26T04:55:12Z</time></trkpt><trkpt lat="46.0327069166453" lon="12.024799223954638"><ele>458.0</ele><time>2026-04-26T04:55:13Z</time></trkpt><trkpt lat="46.03261645901574" lon="12.02476949402763"><ele>458.0</ele><time>2026-04-26T04:55:14Z</time></trkpt><trkpt lat="46.03254259756353" lon="12.024704704113955"><ele>460.59999999999997</ele><time>2026-04-26T04:55:15Z</time></trkpt><trkpt lat="46.03245780407581" lon="12.02463108603824"><ele>463.19999999999993</ele><time>2026-04-26T04:55:16Z</time></trkpt><trkpt lat="46.03239574990147" lon="12.024501133045508"><ele>465.8</ele><time>2026-04-26T04:55:17Z</time></trkpt><trkpt lat="46.0323349111869" lon="12.024364937816532"><ele>468.4</ele><time>2026-04-26T04:55:18Z</time></trkpt><trkpt lat="46.0322686225002" lon="12.0242334947667"><ele>471.0</ele><time>2026-04-26T04:55:19Z</time></trkpt><trkpt lat="46.0322135133781" lon="12.024088222392418"><ele>471.0</ele><time>2026-04-26T04:55:20Z</time></trkpt><trkpt lat="46.03215851616219" lon="12.023973349646415"><ele>471.0</ele><time>2026-04-26T04:55:21Z</time></trkpt><trkpt lat="46.03211089158433" lon="12.023858895771017"><ele>471.0</ele><time>2026-04-26T04:55:22Z</time></trkpt><trkpt lat="46.03205260952659" lon="12.023751079030857"><ele>471.0</ele><time>2026-04-26T04:55:23Z</time></trkpt><trkpt lat="46.03198888844528" lon="12.02364320257625"><ele>471.0</ele><time>2026-04-26T04:55:24Z</time></trkpt><trkpt lat="46.031899334025134" lon="12.023554647704689"><ele>471.0</ele><time>2026-04-26T04:55:25Z</time></trkpt><trkpt lat="46.031800979599424" lon="12.023464563290105"><ele>471.0</ele><time>2026-04-26T04:55:26Z</time></trkpt><trkpt lat="46.031740410930496" lon="12.023325985567388"><ele>471.0</ele><time>2026-04-26T04:55:27Z</time></trkpt><trkpt lat="46.03166218097908" lon="12.023197960947757"><ele>471.0</ele><time>2026-04-26T04:55:28Z</time></trkpt><trkpt lat="46.03156060102378" lon="12.023089091960728"><ele>472.0</ele><time>2026-04-26T04:55:29Z</time></trkpt><trkpt lat="46.03146238882908" lon="12.022982544255301"><ele>473.0</ele><time>2026-04-26T04:55:30Z</time></trkpt><trkpt lat="46.03138549180241" lon="12.022894220138358"><ele>474.0</ele><time>2026-04-26T04:55:31Z</time></trkpt><trkpt lat="46.03129524322104" lon="12.02280806195376"><ele>475.0</ele><time>2026-04-26T04:55:32Z</time></trkpt><trkpt lat="46.03119163527957" lon="12.022728981995824"><ele>476.0</ele><time>2026-04-26T04:55:33Z</time></trkpt><trkpt lat="46.03110460746302" lon="12.022643614124076"><ele>476.0</ele><time>2026-04-26T04:55:34Z</time></trkpt><trkpt lat="46.03102095637009" lon="12.02258147155535"><ele>476.0</ele><time>2026-04-26T04:55:35Z</time></trkpt><trkpt lat="46.03094303869773" lon="12.02253402016601"><ele>476.0</ele><time>2026-04-26T04:55:36Z</time></trkpt><trkpt lat="46.03084648732261" lon="12.022496562598695"><ele>476.0</ele><time>2026-04-26T04:55:37Z</time></trkpt><trkpt lat="46.03072718237302" lon="12.022476510110005"><ele>476.0</ele><time>2026-04-26T04:55:38Z</time></trkpt><trkpt lat="46.030611079161545" lon="12.022510513296853"><ele>480.6</ele><time>2026-04-26T04:55:39Z</time></trkpt><trkpt lat="46.03048383323535" lon="12.022559823507072"><ele>485.20000000000005</ele><time>2026-04-26T04:55:40Z</time></trkpt><trkpt lat="46.03036356573175" lon="12.022589143652535"><ele>489.79999999999995</ele><time>2026-04-26T04:55:41Z</time></trkpt><trkpt lat="46.03028355761585" lon="12.02261046296848"><ele>494.4</ele><time>2026-04-26T04:55:42Z</time></trkpt><trkpt lat="46.0301991847646" lon="12.022640360601256"><ele>499.0</ele><time>2026-04-26T04:55:43Z</time></trkpt><trkpt lat="46.030136706346596" lon="12.02256356594663"><ele>499.0</ele><time>2026-04-26T04:55:44Z</time></trkpt><trkpt lat="46.03009382025647" lon="12.02249668077985"><ele>499.0</ele><time>2026-04-26T04:55:45Z</time></trkpt><trkpt lat="46.03006225389242" lon="12.022382750916082"><ele>499.0</ele><time>2026-04-26T04:55:46Z</time></trkpt><trkpt lat="46.03005504241468" lon="12.022201051927786"><ele>499.0</ele><time>2026-04-26T04:55:47Z</time></trkpt><trkpt lat="46.0300340175611" lon="12.022038075291297"><ele>499.0</ele><time>2026-04-26T04:55:48Z</time></trkpt><trkpt lat="46.03001202043719" lon="12.021864201363432"><ele>500.25</ele><time>2026-04-26T04:55:49Z</time></trkpt><trkpt lat="46.03000832859314" lon="12.021730272059969"><ele>501.5</ele><time>2026-04-26T04:55:50Z</time></trkpt><trkpt lat="46.0299929332618" lon="12.021610894309822"><ele>502.75</ele><time>2026-04-26T04:55:51Z</time></trkpt><trkpt lat="46.029895420258995" lon="12.021421643233895"><ele>504.0</ele><time>2026-04-26T04:55:53Z</time></trkpt><trkpt lat="46.029813870775996" lon="12.021317216362137"><ele>504.0</ele><time>2026-04-26T04:55:53.999Z</time></trkpt><trkpt lat="46.029713056637135" lon="12.021227363981316"><ele>504.0</ele><time>2026-04-26T04:55:54.999Z</time></trkpt><trkpt lat="46.029646157816025" lon="12.02109229635089"><ele>504.0</ele><time>2026-04-26T04:55:55.999Z</time></trkpt><trkpt lat="46.029591192388224" lon="12.020957822799442"><ele>504.0</ele><time>2026-04-26T04:55:56.999Z</time></trkpt><trkpt lat="46.02954318680865" lon="12.02084438745174"><ele>504.0</ele><time>2026-04-26T04:55:57.999Z</time></trkpt><trkpt lat="46.0294799948882" lon="12.020737737278324"><ele>501.4</ele><time>2026-04-26T04:55:58.999Z</time></trkpt><trkpt lat="46.02939684070957" lon="12.020654327337917"><ele>498.79999999999995</ele><time>2026-04-26T04:55:59.999Z</time></trkpt><trkpt lat="46.02932503115495" lon="12.020562896098136"><ele>496.20000000000005</ele><time>2026-04-26T04:56:00.999Z</time></trkpt><trkpt lat="46.02928924932146" lon="12.02043027016577"><ele>493.6</ele><time>2026-04-26T04:56:01.999Z</time></trkpt><trkpt lat="46.02926954601766" lon="12.020277989656407"><ele>491.0</ele><time>2026-04-26T04:56:02.999Z</time></trkpt><trkpt lat="46.02924670217763" lon="12.020131383951624"><ele>491.0</ele><time>2026-04-26T04:56:03.999Z</time></trkpt><trkpt lat="46.02921650124362" lon="12.019997598669304"><ele>491.0</ele><time>2026-04-26T04:56:04.999Z</time></trkpt><trkpt lat="46.029171304999196" lon="12.019858218397617"><ele>491.0</ele><time>2026-04-26T04:56:05.999Z</time></trkpt><trkpt lat="46.02911251401757" lon="12.019720105846496"><ele>491.0</ele><time>2026-04-26T04:56:06.999Z</time></trkpt><trkpt lat="46.02906880607995" lon="12.019556727576342"><ele>491.0</ele><time>2026-04-26T04:56:07.999Z</time></trkpt><trkpt lat="46.02902868147972" lon="12.019417987169026"><ele>494.66666666666663</ele><time>2026-04-26T04:56:08.999Z</time></trkpt><trkpt lat="46.02899385371807" lon="12.019286084602744"><ele>498.3333333333333</ele><time>2026-04-26T04:56:09.999Z</time></trkpt><trkpt lat="46.028987996451754" lon="12.019143156766752"><ele>502.0</ele><time>2026-04-26T04:56:10.999Z</time></trkpt><trkpt lat="46.028988908517654" lon="12.019033557996764"><ele>505.66666666666663</ele><time>2026-04-26T04:56:11.999Z</time></trkpt><trkpt lat="46.02896519889628" lon="12.018922257261416"><ele>509.3333333333333</ele><time>2026-04-26T04:56:12.999Z</time></trkpt><trkpt lat="46.02895534643397" lon="12.018807435440506"><ele>513.0</ele><time>2026-04-26T04:56:13.999Z</time></trkpt><trkpt lat="46.028945670694945" lon="12.01867529842235"><ele>513.0</ele><time>2026-04-26T04:56:14.999Z</time></trkpt><trkpt lat="46.02893695076431" lon="12.018551158087359"><ele>513.0</ele><time>2026-04-26T04:56:15.999Z</time></trkpt><trkpt lat="46.02893547982414" lon="12.01843882445766"><ele>513.0</ele><time>2026-04-26T04:56:16.999Z</time></trkpt><trkpt lat="46.028929014628936" lon="12.018347825652548"><ele>513.0</ele><time>2026-04-26T04:56:17.999Z</time></trkpt><trkpt lat="46.02891593538407" lon="12.01823737266179"><ele>513.0</ele><time>2026-04-26T04:56:18.999Z</time></trkpt><trkpt lat="46.028911707694405" lon="12.018117236398645"><ele>513.0</ele><time>2026-04-26T04:56:19.999Z</time></trkpt><trkpt lat="46.02888246827095" lon="12.01799113854104"><ele>512.6</ele><time>2026-04-26T04:56:20.999Z</time></trkpt><trkpt lat="46.028863305410475" lon="12.01786885379772"><ele>512.1999999999999</ele><time>2026-04-26T04:56:21.999Z</time></trkpt><trkpt lat="46.028845011946984" lon="12.01776134466113"><ele>511.8</ele><time>2026-04-26T04:56:22.999Z</time></trkpt><trkpt lat="46.02881073265977" lon="12.017606803160893"><ele>511.4</ele><time>2026-04-26T04:56:24.999Z</time></trkpt><trkpt lat="46.02877570396214" lon="12.017452112950544"><ele>511.0</ele><time>2026-04-26T04:56:26.999Z</time></trkpt><trkpt lat="46.02875640343419" lon="12.01734262972639"><ele>511.00000000000006</ele><time>2026-04-26T04:56:28.999Z</time></trkpt><trkpt lat="46.02865800376103" lon="12.017401546905326"><ele>511.0</ele><time>2026-04-26T04:56:32Z</time></trkpt><trkpt lat="46.02861347920048" lon="12.01753119998598"><ele>511.0</ele><time>2026-04-26T04:56:34Z</time></trkpt><trkpt lat="46.02858403908944" lon="12.017625343661132"><ele>511.0</ele><time>2026-04-26T04:56:35Z</time></trkpt><trkpt lat="46.02855271253114" lon="12.017708403491648"><ele>511.00000000000006</ele><time>2026-04-26T04:56:36Z</time></trkpt><trkpt lat="46.0285186977482" lon="12.017830878090367"><ele>511.0</ele><time>2026-04-26T04:56:37Z</time></trkpt><trkpt lat="46.02851050168305" lon="12.017959724401038"><ele>511.00000000000006</ele><time>2026-04-26T04:56:38Z</time></trkpt><trkpt lat="46.02849571618748" lon="12.018081715336159"><ele>511.0</ele><time>2026-04-26T04:56:39Z</time></trkpt><trkpt lat="46.02845502373407" lon="12.01819921664319"><ele>511.0</ele><time>2026-04-26T04:56:40Z</time></trkpt><trkpt lat="46.028422162765864" lon="12.018317683015976"><ele>511.0</ele><time>2026-04-26T04:56:41Z</time></trkpt><trkpt lat="46.02838252103952" lon="12.018420979372054"><ele>511.00000000000006</ele><time>2026-04-26T04:56:42Z</time></trkpt><trkpt lat="46.0283411071972" lon="12.018516455218988"><ele>511.0</ele><time>2026-04-26T04:56:43Z</time></trkpt><trkpt lat="46.028299779228284" lon="12.018600276538466"><ele>517.6</ele><time>2026-04-26T04:56:44Z</time></trkpt><trkpt lat="46.02819385592267" lon="12.018689592581067"><ele>524.2</ele><time>2026-04-26T04:56:46Z</time></trkpt><trkpt lat="46.028125824123784" lon="12.018755812436083"><ele>530.8</ele><time>2026-04-26T04:56:47Z</time></trkpt><trkpt lat="46.02805783553043" lon="12.01885051612332"><ele>537.4</ele><time>2026-04-26T04:56:48Z</time></trkpt><trkpt lat="46.028008708164435" lon="12.018968143538135"><ele>544.0</ele><time>2026-04-26T04:56:49Z</time></trkpt><trkpt lat="46.02795735443177" lon="12.019081742897564"><ele>543.4</ele><time>2026-04-26T04:56:50Z</time></trkpt><trkpt lat="46.02791061403635" lon="12.019212532542518"><ele>542.8</ele><time>2026-04-26T04:56:51Z</time></trkpt><trkpt lat="46.02792874763409" lon="12.019381604996479"><ele>542.2</ele><time>2026-04-26T04:56:52Z</time></trkpt><trkpt lat="46.02789990981253" lon="12.019518694331536"><ele>541.6</ele><time>2026-04-26T04:56:53Z</time></trkpt><trkpt lat="46.02787112026561" lon="12.019630135878689"><ele>541.0</ele><time>2026-04-26T04:56:54Z</time></trkpt><trkpt lat="46.02780157079958" lon="12.019735959177368"><ele>541.0</ele><time>2026-04-26T04:56:56Z</time></trkpt><trkpt lat="46.02775038380567" lon="12.019631688040038"><ele>541.0</ele><time>2026-04-26T04:56:58Z</time></trkpt><trkpt lat="46.027680190176554" lon="12.019609462106335"><ele>541.0</ele><time>2026-04-26T04:57:00Z</time></trkpt><trkpt lat="46.02761465749601" lon="12.019577196212516"><ele>541.0</ele><time>2026-04-26T04:57:02Z</time></trkpt><trkpt lat="46.027531017579825" lon="12.01949134014292"><ele>541.0</ele><time>2026-04-26T04:57:04Z</time></trkpt><trkpt lat="46.02747055635739" lon="12.019414010427663"><ele>541.0</ele><time>2026-04-26T04:57:07Z</time></trkpt><trkpt lat="46.027415839063984" lon="12.019325738055416"><ele>543.6666666666667</ele><time>2026-04-26T04:57:10Z</time></trkpt><trkpt lat="46.02737106266129" lon="12.01925350276009"><ele>546.3333333333334</ele><time>2026-04-26T04:57:18Z</time></trkpt><trkpt lat="46.027279341420474" lon="12.019298777468254"><ele>549.0</ele><time>2026-04-26T04:57:52Z</time></trkpt><trkpt lat="46.02728299230236" lon="12.019176811939078"><ele>551.6666666666666</ele><time>2026-04-26T04:58:26.999Z</time></trkpt><trkpt lat="46.02724071589002" lon="12.019013318639567"><ele>554.3333333333333</ele><time>2026-04-26T04:58:28.999Z</time></trkpt><trkpt lat="46.02720399963473" lon="12.018913714659114"><ele>557.0</ele><time>2026-04-26T04:58:30.999Z</time></trkpt><trkpt lat="46.027146499913" lon="12.018839531395368"><ele>557.0</ele><time>2026-04-26T04:58:32.999Z</time></trkpt><trkpt lat="46.02702937484726" lon="12.018771270607479"><ele>557.0</ele><time>2026-04-26T04:58:34.999Z</time></trkpt><trkpt lat="46.02693331166954" lon="12.018713072368081"><ele>557.0</ele><time>2026-04-26T04:58:37Z</time></trkpt><trkpt lat="46.02686500280542" lon="12.018635573655446"><ele>557.0</ele><time>2026-04-26T04:58:39Z</time></trkpt><trkpt lat="46.026787634904096" lon="12.018530603014721"><ele>557.0</ele><time>2026-04-26T04:58:41Z</time></trkpt><trkpt lat="46.02672829829523" lon="12.018370976589647"><ele>556.6</ele><time>2026-04-26T04:58:43Z</time></trkpt><trkpt lat="46.026770035492376" lon="12.01817039091481"><ele>556.2</ele><time>2026-04-26T04:58:45Z</time></trkpt><trkpt lat="46.02676149623387" lon="12.018021175610702"><ele>555.8</ele><time>2026-04-26T04:58:47Z</time></trkpt><trkpt lat="46.02673441001077" lon="12.017929875648747"><ele>555.4</ele><time>2026-04-26T04:58:48Z</time></trkpt><trkpt lat="46.026695063017165" lon="12.017801848566782"><ele>555.0</ele><time>2026-04-26T04:58:50Z</time></trkpt><trkpt lat="46.02666163405889" lon="12.017705382622017"><ele>557.4</ele><time>2026-04-26T04:58:51Z</time></trkpt><trkpt lat="46.02662068909589" lon="12.017595915739243"><ele>559.8</ele><time>2026-04-26T04:58:53Z</time></trkpt><trkpt lat="46.026569016138104" lon="12.017467169179502"><ele>562.2</ele><time>2026-04-26T04:58:55Z</time></trkpt><trkpt lat="46.02653684373352" lon="12.017379398341204"><ele>564.6</ele><time>2026-04-26T04:58:56Z</time></trkpt><trkpt lat="46.02649452103604" lon="12.017293319845278"><ele>567.0</ele><time>2026-04-26T04:58:57Z</time></trkpt><trkpt lat="46.02641813372786" lon="12.01716002260658"><ele>567.0</ele><time>2026-04-26T04:58:59Z</time></trkpt><trkpt lat="46.02637309911313" lon="12.017085514750576"><ele>567.0</ele><time>2026-04-26T04:59:00Z</time></trkpt><trkpt lat="46.02630103143601" lon="12.016969473793742"><ele>567.0</ele><time>2026-04-26T04:59:02Z</time></trkpt><trkpt lat="46.02624229879423" lon="12.016874905610559"><ele>567.0</ele><time>2026-04-26T04:59:05Z</time></trkpt><trkpt lat="46.02618738171751" lon="12.016772970770635"><ele>567.0</ele><time>2026-04-26T04:59:08Z</time></trkpt><trkpt lat="46.02613312708742" lon="12.016659373618223"><ele>567.0</ele><time>2026-04-26T04:59:11Z</time></trkpt><trkpt lat="46.025822984336244" lon="12.016870938986028"><ele>567.0</ele><time>2026-04-26T04:59:13Z</time></trkpt><trkpt lat="46.02572501673128" lon="12.016783533432816"><ele>567.1666666666666</ele><time>2026-04-26T04:59:15Z</time></trkpt><trkpt lat="46.025644617188625" lon="12.01679059629194"><ele>567.3333333333334</ele><time>2026-04-26T04:59:16Z</time></trkpt><trkpt lat="46.025574271208775" lon="12.016760334309637"><ele>567.5</ele><time>2026-04-26T04:59:17Z</time></trkpt><trkpt lat="46.02545012108582" lon="12.016695075813853"><ele>567.6666666666667</ele><time>2026-04-26T04:59:19Z</time></trkpt><trkpt lat="46.025389685093224" lon="12.016634844146079"><ele>567.8333333333334</ele><time>2026-04-26T04:59:20Z</time></trkpt><trkpt lat="46.02532637651927" lon="12.016561024554585"><ele>568.0</ele><time>2026-04-26T04:59:21Z</time></trkpt><trkpt lat="46.025234145017905" lon="12.016460548416267"><ele>568.0</ele><time>2026-04-26T04:59:23Z</time></trkpt><trkpt lat="46.02511964911465" lon="12.016362075788862"><ele>568.0</ele><time>2026-04-26T04:59:25Z</time></trkpt><trkpt lat="46.025058278808956" lon="12.01632047016792"><ele>568.0</ele><time>2026-04-26T04:59:26Z</time></trkpt><trkpt lat="46.024949361341356" lon="12.016284522699387"><ele>568.0</ele><time>2026-04-26T04:59:28Z</time></trkpt><trkpt lat="46.02486262769805" lon="12.016330735987687"><ele>568.0</ele><time>2026-04-26T04:59:30Z</time></trkpt><trkpt lat="46.02484723475151" lon="12.016463975151497"><ele>569.3333333333334</ele><time>2026-04-26T04:59:34Z</time></trkpt><trkpt lat="46.02488404190744" lon="12.016553820253863"><ele>570.6666666666667</ele><time>2026-04-26T04:59:36Z</time></trkpt><trkpt lat="46.02486088107183" lon="12.016661786508577"><ele>572.0</ele><time>2026-04-26T04:59:38Z</time></trkpt><trkpt lat="46.0248830793" lon="12.016775353202975"><ele>573.3333333333334</ele><time>2026-04-26T04:59:39Z</time></trkpt><trkpt lat="46.02492631483227" lon="12.016888213173102"><ele>574.6666666666666</ele><time>2026-04-26T04:59:40Z</time></trkpt><trkpt lat="46.024947814570126" lon="12.017032966988141"><ele>576.0</ele><time>2026-04-26T04:59:42Z</time></trkpt><trkpt lat="46.02495751760515" lon="12.017146391028703"><ele>580.6</ele><time>2026-04-26T04:59:43Z</time></trkpt><trkpt lat="46.02494933872761" lon="12.017297981729923"><ele>585.2</ele><time>2026-04-26T04:59:45Z</time></trkpt><trkpt lat="46.024934290629474" lon="12.017429971781846"><ele>589.8</ele><time>2026-04-26T04:59:46Z</time></trkpt><trkpt lat="46.024929527826465" lon="12.017524920236314"><ele>594.4</ele><time>2026-04-26T04:59:47Z</time></trkpt><trkpt lat="46.024913525569" lon="12.017682307209654"><ele>599.0</ele><time>2026-04-26T04:59:48Z</time></trkpt><trkpt lat="46.02489621444057" lon="12.01779730194356"><ele>602.2857142857143</ele><time>2026-04-26T04:59:49Z</time></trkpt><trkpt lat="46.024903578495625" lon="12.017921761890477"><ele>605.5714285714286</ele><time>2026-04-26T04:59:50Z</time></trkpt><trkpt lat="46.02489433912857" lon="12.018022225000779"><ele>608.8571428571429</ele><time>2026-04-26T04:59:51Z</time></trkpt><trkpt lat="46.02488432116238" lon="12.018118028508448"><ele>612.1428571428571</ele><time>2026-04-26T04:59:52Z</time></trkpt><trkpt lat="46.02488873315322" lon="12.018231814757376"><ele>615.4285714285714</ele><time>2026-04-26T04:59:53Z</time></trkpt><trkpt lat="46.024878348560236" lon="12.018328884830407"><ele>618.7142857142857</ele><time>2026-04-26T04:59:54Z</time></trkpt><trkpt lat="46.024876027098415" lon="12.018424878976454"><ele>622.0</ele><time>2026-04-26T04:59:55Z</time></trkpt><trkpt lat="46.02488179397889" lon="12.018598756395548"><ele>624.6666666666667</ele><time>2026-04-26T04:59:56.999Z</time></trkpt><trkpt lat="46.024876691870375" lon="12.01871105996655"><ele>627.3333333333334</ele><time>2026-04-26T04:59:58.999Z</time></trkpt><trkpt lat="46.02486793837028" lon="12.018832465746188"><ele>630.0</ele><time>2026-04-26T05:00:00.999Z</time></trkpt><trkpt lat="46.02485887833733" lon="12.018929700455535"><ele>632.6666666666666</ele><time>2026-04-26T05:00:01.999Z</time></trkpt><trkpt lat="46.0248674827592" lon="12.019022579064803"><ele>635.3333333333333</ele><time>2026-04-26T05:00:02.999Z</time></trkpt><trkpt lat="46.02486572033461" lon="12.019138254509581"><ele>638.0</ele><time>2026-04-26T05:00:04.999Z</time></trkpt><trkpt lat="46.024896632901246" lon="12.019292038728821"><ele>639.8333333333333</ele><time>2026-04-26T05:00:06.999Z</time></trkpt><trkpt lat="46.02489751078264" lon="12.019437924940101"><ele>641.6666666666666</ele><time>2026-04-26T05:00:08.999Z</time></trkpt><trkpt lat="46.02489112723286" lon="12.019578021026414"><ele>643.5</ele><time>2026-04-26T05:00:10.999Z</time></trkpt><trkpt lat="46.02490767850404" lon="12.019686554916165"><ele>645.3333333333334</ele><time>2026-04-26T05:00:12.999Z</time></trkpt><trkpt lat="46.024879566403015" lon="12.019778116348087"><ele>647.1666666666667</ele><time>2026-04-26T05:00:15.999Z</time></trkpt><trkpt lat="46.024873603711285" lon="12.019887574947939"><ele>649.0</ele><time>2026-04-26T05:00:17.999Z</time></trkpt><trkpt lat="46.02487256919121" lon="12.020005776844348"><ele>649.0</ele><time>2026-04-26T05:00:19.999Z</time></trkpt><trkpt lat="46.02486420317661" lon="12.02010292406732"><ele>649.0</ele><time>2026-04-26T05:00:20.999Z</time></trkpt><trkpt lat="46.024864052740156" lon="12.020215273824284"><ele>649.0</ele><time>2026-04-26T05:00:21.999Z</time></trkpt><trkpt lat="46.02485378794039" lon="12.02037338297223"><ele>649.0</ele><time>2026-04-26T05:00:23.999Z</time></trkpt><trkpt lat="46.02482151781585" lon="12.020470598537136"><ele>649.0</ele><time>2026-04-26T05:00:24.999Z</time></trkpt><trkpt lat="46.02479116454741" lon="12.020604578965532"><ele>649.0</ele><time>2026-04-26T05:00:26.999Z</time></trkpt><trkpt lat="46.02473545541677" lon="12.020719590329055"><ele>649.0</ele><time>2026-04-26T05:00:28.999Z</time></trkpt><trkpt lat="46.024639411300946" lon="12.020754653502422"><ele>649.0</ele><time>2026-04-26T05:00:30.999Z</time></trkpt><trkpt lat="46.02456817025914" lon="12.02073173992281"><ele>649.0</ele><time>2026-04-26T05:00:32.999Z</time></trkpt><trkpt lat="46.02448770326831" lon="12.020715943039301"><ele>649.0</ele><time>2026-04-26T05:00:36.999Z</time></trkpt><trkpt lat="46.024413683277345" lon="12.020686771301975"><ele>649.0</ele><time>2026-04-26T05:00:39.999Z</time></trkpt><trkpt lat="46.02431945990484" lon="12.020626983243979"><ele>649.0</ele><time>2026-04-26T05:00:42Z</time></trkpt><trkpt lat="46.024260512322016" lon="12.020567034758269"><ele>649.0</ele><time>2026-04-26T05:00:44Z</time></trkpt><trkpt lat="46.02419750101608" lon="12.0204634824792"><ele>649.0</ele><time>2026-04-26T05:00:46Z</time></trkpt><trkpt lat="46.024101681225495" lon="12.020361026132548"><ele>649.0</ele><time>2026-04-26T05:00:48Z</time></trkpt><trkpt lat="46.02404706880768" lon="12.020284623078652"><ele>649.0</ele><time>2026-04-26T05:00:50Z</time></trkpt><trkpt lat="46.023967489109445" lon="12.020158124116756"><ele>649.0</ele><time>2026-04-26T05:00:52Z</time></trkpt><trkpt lat="46.0238909474203" lon="12.020066853588421"><ele>650.6666666666667</ele><time>2026-04-26T05:00:54Z</time></trkpt><trkpt lat="46.02386761020769" lon="12.019980888980909"><ele>652.3333333333334</ele><time>2026-04-26T05:00:57Z</time></trkpt><trkpt lat="46.02386324582339" lon="12.019827954560679"><ele>654.0</ele><time>2026-04-26T05:01:00Z</time></trkpt><trkpt lat="46.02391510464986" lon="12.019692133224536"><ele>655.6666666666666</ele><time>2026-04-26T05:01:03Z</time></trkpt><trkpt lat="46.02393411240297" lon="12.019571312795076"><ele>657.3333333333333</ele><time>2026-04-26T05:01:11Z</time></trkpt><trkpt lat="46.02388937785281" lon="12.019644790167598"><ele>659.0</ele><time>2026-04-26T05:02:05Z</time></trkpt><trkpt lat="46.02388552147308" lon="12.01975114575124"><ele>659.0</ele><time>2026-04-26T05:02:09Z</time></trkpt><trkpt lat="46.02382040997471" lon="12.019829419306033"><ele>659.0</ele><time>2026-04-26T05:02:13Z</time></trkpt><trkpt lat="46.02376662300374" lon="12.019884679114503"><ele>659.0</ele><time>2026-04-26T05:02:18Z</time></trkpt><trkpt lat="46.023699394182806" lon="12.019821455321269"><ele>659.0</ele><time>2026-04-26T05:02:22Z</time></trkpt><trkpt lat="46.023721294154356" lon="12.019732571278118"><ele>659.0</ele><time>2026-04-26T05:02:25Z</time></trkpt><trkpt lat="46.023679558157895" lon="12.019633613114696"><ele>659.0</ele><time>2026-04-26T05:02:27Z</time></trkpt><trkpt lat="46.023637445670225" lon="12.01953812870198"><ele>659.0</ele><time>2026-04-26T05:02:29Z</time></trkpt><trkpt lat="46.023556741643034" lon="12.019481607566934"><ele>659.0</ele><time>2026-04-26T05:02:32Z</time></trkpt><trkpt lat="46.02347985752835" lon="12.0194144077554"><ele>659.0</ele><time>2026-04-26T05:02:35Z</time></trkpt><trkpt lat="46.023423098893126" lon="12.01932417572016"><ele>659.0</ele><time>2026-04-26T05:02:38Z</time></trkpt><trkpt lat="46.0233456627371" lon="12.01928910339623"><ele>659.0</ele><time>2026-04-26T05:02:44.999Z</time></trkpt><trkpt lat="46.023321150403405" lon="12.019381646800335"><ele>659.0</ele><time>2026-04-26T05:02:50Z</time></trkpt><trkpt lat="46.023325226063456" lon="12.019482206352787"><ele>663.4285714285714</ele><time>2026-04-26T05:02:56Z</time></trkpt><trkpt lat="46.02327586584201" lon="12.019551931654243"><ele>667.8571428571428</ele><time>2026-04-26T05:03:01Z</time></trkpt><trkpt lat="46.02321538726819" lon="12.019588162920535"><ele>672.2857142857142</ele><time>2026-04-26T05:03:10Z</time></trkpt><trkpt lat="46.023182815342196" lon="12.019508099258589"><ele>676.7142857142858</ele><time>2026-04-26T05:03:18Z</time></trkpt><trkpt lat="46.023156395711375" lon="12.019420182327464"><ele>681.1428571428571</ele><time>2026-04-26T05:03:20Z</time></trkpt><trkpt lat="46.02320457226247" lon="12.019493547945542"><ele>685.5714285714286</ele><time>2026-04-26T05:03:35Z</time></trkpt><trkpt lat="46.023204306010356" lon="12.019400913369436"><ele>690.0</ele><time>2026-04-26T05:04:08Z</time></trkpt><trkpt lat="46.023141757504675" lon="12.019342560026681"><ele>690.0</ele><time>2026-04-26T05:05:02Z</time></trkpt><trkpt lat="46.02305561085493" lon="12.019289657030189"><ele>690.0</ele><time>2026-04-26T05:05:04Z</time></trkpt><trkpt lat="46.02298887037963" lon="12.019192959657724"><ele>690.0</ele><time>2026-04-26T05:05:06Z</time></trkpt><trkpt lat="46.022920489830874" lon="12.019094926376228"><ele>690.0</ele><time>2026-04-26T05:05:08Z</time></trkpt><trkpt lat="46.02284538496129" lon="12.018991518449141"><ele>690.0</ele><time>2026-04-26T05:05:10Z</time></trkpt><trkpt lat="46.0227928860275" lon="12.018933217415281"><ele>687.6</ele><time>2026-04-26T05:05:11Z</time></trkpt><trkpt lat="46.02270591896621" lon="12.018825326419472"><ele>685.2</ele><time>2026-04-26T05:05:13Z</time></trkpt><trkpt lat="46.022605635414585" lon="12.01870801333655"><ele>682.8</ele><time>2026-04-26T05:05:15Z</time></trkpt><trkpt lat="46.02251708521284" lon="12.018594762117269"><ele>680.4</ele><time>2026-04-26T05:05:17Z</time></trkpt><trkpt lat="46.02248501987956" lon="12.01851444726808"><ele>678.0</ele><time>2026-04-26T05:05:18Z</time></trkpt><trkpt lat="46.02244977813181" lon="12.01843423485886"><ele>681.4</ele><time>2026-04-26T05:05:19Z</time></trkpt><trkpt lat="46.02235785867236" lon="12.018290074884272"><ele>684.8</ele><time>2026-04-26T05:05:21Z</time></trkpt><trkpt lat="46.02228012660677" lon="12.018157670086678"><ele>688.2</ele><time>2026-04-26T05:05:23Z</time></trkpt><trkpt lat="46.02220438680512" lon="12.018087249214384"><ele>691.6</ele><time>2026-04-26T05:05:24Z</time></trkpt><trkpt lat="46.0221485125531" lon="12.018019062687584"><ele>695.0</ele><time>2026-04-26T05:05:25Z</time></trkpt><trkpt lat="46.02206235848239" lon="12.017892500220581"><ele>695.0</ele><time>2026-04-26T05:05:27Z</time></trkpt><trkpt lat="46.02200461415508" lon="12.017828847457398"><ele>695.0</ele><time>2026-04-26T05:05:28Z</time></trkpt><trkpt lat="46.021950037082625" lon="12.01777522614557"><ele>695.0</ele><time>2026-04-26T05:05:29Z</time></trkpt><trkpt lat="46.02185774768671" lon="12.017683997867525"><ele>695.0</ele><time>2026-04-26T05:05:31Z</time></trkpt><trkpt lat="46.02177192464509" lon="12.017624887946502"><ele>695.0</ele><time>2026-04-26T05:05:33Z</time></trkpt><trkpt lat="46.02167648596854" lon="12.01757490185045"><ele>695.0</ele><time>2026-04-26T05:05:35Z</time></trkpt><trkpt lat="46.0216141991669" lon="12.017593380661559"><ele>697.0</ele><time>2026-04-26T05:05:36Z</time></trkpt><trkpt lat="46.02154264325343" lon="12.017581933467227"><ele>699.0</ele><time>2026-04-26T05:05:37Z</time></trkpt><trkpt lat="46.02146353312975" lon="12.017556464329662"><ele>701.0</ele><time>2026-04-26T05:05:38Z</time></trkpt><trkpt lat="46.02133394945616" lon="12.017509381891196"><ele>703.0</ele><time>2026-04-26T05:05:40Z</time></trkpt><trkpt lat="46.02124962735316" lon="12.017456413089553"><ele>705.0</ele><time>2026-04-26T05:05:42Z</time></trkpt><trkpt lat="46.021166185352676" lon="12.017379839677075"><ele>707.8</ele><time>2026-04-26T05:05:44Z</time></trkpt><trkpt lat="46.02121017532249" lon="12.017547721613182"><ele>710.6</ele><time>2026-04-26T05:05:52Z</time></trkpt><trkpt lat="46.02124490067233" lon="12.017640258923302"><ele>713.4000000000001</ele><time>2026-04-26T05:05:53Z</time></trkpt><trkpt lat="46.021288509990285" lon="12.017713959887338"><ele>716.2</ele><time>2026-04-26T05:05:54Z</time></trkpt><trkpt lat="46.02135290451583" lon="12.017863544273713"><ele>719.0</ele><time>2026-04-26T05:05:56Z</time></trkpt><trkpt lat="46.02138833043967" lon="12.017946467237621"><ele>719.0</ele><time>2026-04-26T05:05:57Z</time></trkpt><trkpt lat="46.02143588032309" lon="12.018104007478806"><ele>719.0</ele><time>2026-04-26T05:05:59Z</time></trkpt><trkpt lat="46.02148763738644" lon="12.01816770523182"><ele>719.0</ele><time>2026-04-26T05:06:00Z</time></trkpt><trkpt lat="46.02152252705591" lon="12.018246720487866"><ele>719.0</ele><time>2026-04-26T05:06:01Z</time></trkpt><trkpt lat="46.02155801063235" lon="12.01838149051547"><ele>719.0</ele><time>2026-04-26T05:06:03Z</time></trkpt><trkpt lat="46.02161816229773" lon="12.018507541670564"><ele>716.8333333333333</ele><time>2026-04-26T05:06:05Z</time></trkpt><trkpt lat="46.02166469383186" lon="12.01864923484309"><ele>714.6666666666666</ele><time>2026-04-26T05:06:07Z</time></trkpt><trkpt lat="46.021700327183304" lon="12.018727168642126"><ele>712.5</ele><time>2026-04-26T05:06:08Z</time></trkpt><trkpt lat="46.02177205328292" lon="12.01886047601115"><ele>710.3333333333334</ele><time>2026-04-26T05:06:10Z</time></trkpt><trkpt lat="46.02181800146331" lon="12.018952241266534"><ele>708.1666666666667</ele><time>2026-04-26T05:06:11Z</time></trkpt><trkpt lat="46.02186013827754" lon="12.01902272911306"><ele>706.0</ele><time>2026-04-26T05:06:12Z</time></trkpt><trkpt lat="46.0219174239637" lon="12.019079297381083"><ele>706.0</ele><time>2026-04-26T05:06:13Z</time></trkpt><trkpt lat="46.02198331432364" lon="12.019130730532819"><ele>706.0</ele><time>2026-04-26T05:06:14Z</time></trkpt><trkpt lat="46.02205183303389" lon="12.019168877740466"><ele>706.0</ele><time>2026-04-26T05:06:15Z</time></trkpt><trkpt lat="46.02211503409124" lon="12.019211198855736"><ele>706.0</ele><time>2026-04-26T05:06:16Z</time></trkpt><trkpt lat="46.0222031015501" lon="12.019325983497723"><ele>706.0</ele><time>2026-04-26T05:06:18Z</time></trkpt><trkpt lat="46.022247604771934" lon="12.019411559896604"><ele>706.0</ele><time>2026-04-26T05:06:19Z</time></trkpt><trkpt lat="46.022282850935326" lon="12.019513552574127"><ele>704.5999999999999</ele><time>2026-04-26T05:06:20Z</time></trkpt><trkpt lat="46.02233250931515" lon="12.01961431592133"><ele>703.2</ele><time>2026-04-26T05:06:21Z</time></trkpt><trkpt lat="46.02236190930481" lon="12.019734867288854"><ele>701.8</ele><time>2026-04-26T05:06:22Z</time></trkpt><trkpt lat="46.02241587005437" lon="12.019844527371335"><ele>700.4000000000001</ele><time>2026-04-26T05:06:23Z</time></trkpt><trkpt lat="46.022483307363764" lon="12.019977992997443"><ele>699.0</ele><time>2026-04-26T05:06:25Z</time></trkpt><trkpt lat="46.02252113167659" lon="12.020060025385973"><ele>699.0</ele><time>2026-04-26T05:06:26Z</time></trkpt><trkpt lat="46.02259848268065" lon="12.020167981717474"><ele>699.0</ele><time>2026-04-26T05:06:28Z</time></trkpt><trkpt lat="46.02265193848402" lon="12.020216672569811"><ele>699.0</ele><time>2026-04-26T05:06:29Z</time></trkpt><trkpt lat="46.02272258218915" lon="12.020322382655017"><ele>699.0</ele><time>2026-04-26T05:06:30Z</time></trkpt><trkpt lat="46.02277550654206" lon="12.020454291267392"><ele>699.0</ele><time>2026-04-26T05:06:32Z</time></trkpt><trkpt lat="46.022813486821384" lon="12.020603883956714"><ele>699.0</ele><time>2026-04-26T05:06:34Z</time></trkpt><trkpt lat="46.02284766070471" lon="12.02076197631318"><ele>699.0</ele><time>2026-04-26T05:06:36Z</time></trkpt><trkpt lat="46.022863705623685" lon="12.020879122928221"><ele>699.0</ele><time>2026-04-26T05:06:37Z</time></trkpt><trkpt lat="46.02287857250765" lon="12.020980005370008"><ele>699.0</ele><time>2026-04-26T05:06:38Z</time></trkpt><trkpt lat="46.022892677669695" lon="12.021075719097631"><ele>699.0</ele><time>2026-04-26T05:06:39Z</time></trkpt><trkpt lat="46.02294823165272" lon="12.021231324617668"><ele>701.4000000000001</ele><time>2026-04-26T05:06:41Z</time></trkpt><trkpt lat="46.023005712714124" lon="12.021370278464786"><ele>703.8</ele><time>2026-04-26T05:06:43Z</time></trkpt><trkpt lat="46.02305154480212" lon="12.021516182330611"><ele>706.2</ele><time>2026-04-26T05:06:45Z</time></trkpt><trkpt lat="46.023060715290306" lon="12.021617542005222"><ele>708.5999999999999</ele><time>2026-04-26T05:06:46Z</time></trkpt><trkpt lat="46.02310254382307" lon="12.021793496727128"><ele>711.0</ele><time>2026-04-26T05:06:48Z</time></trkpt><trkpt lat="46.02313021404609" lon="12.02191885399014"><ele>713.3333333333334</ele><time>2026-04-26T05:06:49Z</time></trkpt><trkpt lat="46.023138967751514" lon="12.022040302498121"><ele>715.6666666666666</ele><time>2026-04-26T05:06:50Z</time></trkpt><trkpt lat="46.023156040259146" lon="12.022136290049433"><ele>718.0</ele><time>2026-04-26T05:06:51Z</time></trkpt><trkpt lat="46.02317679724563" lon="12.022257065329828"><ele>720.3333333333333</ele><time>2026-04-26T05:06:52Z</time></trkpt><trkpt lat="46.023214052097515" lon="12.022415436547956"><ele>722.6666666666666</ele><time>2026-04-26T05:06:54Z</time></trkpt><trkpt lat="46.02324741292794" lon="12.022496743722224"><ele>725.0</ele><time>2026-04-26T05:06:55Z</time></trkpt><trkpt lat="46.023298069216494" lon="12.022654110148263"><ele>720.4</ele><time>2026-04-26T05:06:56.999Z</time></trkpt><trkpt lat="46.02334792406511" lon="12.022722429783075"><ele>715.8</ele><time>2026-04-26T05:06:57.999Z</time></trkpt><trkpt lat="46.02343075575212" lon="12.022822909747996"><ele>711.2</ele><time>2026-04-26T05:07:00Z</time></trkpt><trkpt lat="46.02347997457682" lon="12.022888502292707"><ele>706.6</ele><time>2026-04-26T05:07:01Z</time></trkpt><trkpt lat="46.02355424200922" lon="12.02304776407265"><ele>702.0</ele><time>2026-04-26T05:07:03Z</time></trkpt><trkpt lat="46.023596890049525" lon="12.02320098883967"><ele>703.1666666666666</ele><time>2026-04-26T05:07:05Z</time></trkpt><trkpt lat="46.02361932888254" lon="12.023348589329162"><ele>704.3333333333334</ele><time>2026-04-26T05:07:07Z</time></trkpt><trkpt lat="46.023588163837466" lon="12.023443632785638"><ele>705.5</ele><time>2026-04-26T05:07:08Z</time></trkpt><trkpt lat="46.02360911812482" lon="12.023554264542419"><ele>706.6666666666667</ele><time>2026-04-26T05:07:09Z</time></trkpt><trkpt lat="46.02367823823154" lon="12.023654539052874"><ele>707.8333333333334</ele><time>2026-04-26T05:07:11Z</time></trkpt><trkpt lat="46.02373290894712" lon="12.023741684467758"><ele>709.0</ele><time>2026-04-26T05:07:12Z</time></trkpt><trkpt lat="46.0237731721676" lon="12.023824215836774"><ele>709.0</ele><time>2026-04-26T05:07:13Z</time></trkpt><trkpt lat="46.02382050482588" lon="12.023904236112212"><ele>709.0</ele><time>2026-04-26T05:07:14Z</time></trkpt><trkpt lat="46.02386627324174" lon="12.02406555696323"><ele>709.0</ele><time>2026-04-26T05:07:16Z</time></trkpt><trkpt lat="46.02395758555637" lon="12.02415671933902"><ele>709.0</ele><time>2026-04-26T05:07:18Z</time></trkpt><trkpt lat="46.02401628364872" lon="12.024215144932445"><ele>709.0</ele><time>2026-04-26T05:07:20Z</time></trkpt><trkpt lat="46.02408265815457" lon="12.024222458091328"><ele>709.0</ele><time>2026-04-26T05:07:24Z</time></trkpt><trkpt lat="46.02417074826081" lon="12.024257681392816"><ele>703.2</ele><time>2026-04-26T05:07:26Z</time></trkpt><trkpt lat="46.024238024114425" lon="12.024313161411875"><ele>697.4000000000001</ele><time>2026-04-26T05:07:27Z</time></trkpt><trkpt lat="46.02431442341712" lon="12.024406015105848"><ele>691.6</ele><time>2026-04-26T05:07:28Z</time></trkpt><trkpt lat="46.02436962537094" lon="12.024554690226775"><ele>685.8</ele><time>2026-04-26T05:07:29Z</time></trkpt><trkpt lat="46.02443361518774" lon="12.02470924398587"><ele>680.0</ele><time>2026-04-26T05:07:30Z</time></trkpt><trkpt lat="46.02449977659974" lon="12.02487437600569"><ele>681.0</ele><time>2026-04-26T05:07:31Z</time></trkpt><trkpt lat="46.024573130200324" lon="12.025062402751198"><ele>682.0</ele><time>2026-04-26T05:07:32Z</time></trkpt><trkpt lat="46.024636907967704" lon="12.025259738517127"><ele>683.0</ele><time>2026-04-26T05:07:33Z</time></trkpt><trkpt lat="46.02470879166217" lon="12.025442219031298"><ele>684.0</ele><time>2026-04-26T05:07:34Z</time></trkpt><trkpt lat="46.024783260577074" lon="12.025614079813627"><ele>684.0</ele><time>2026-04-26T05:07:35Z</time></trkpt><trkpt lat="46.02485051066542" lon="12.02575583501258"><ele>684.0</ele><time>2026-04-26T05:07:36Z</time></trkpt><trkpt lat="46.0249066667419" lon="12.025914148214813"><ele>684.0</ele><time>2026-04-26T05:07:37Z</time></trkpt><trkpt lat="46.02494649004287" lon="12.02606557645869"><ele>684.0</ele><time>2026-04-26T05:07:38Z</time></trkpt><trkpt lat="46.02500719329471" lon="12.026220878695488"><ele>679.5</ele><time>2026-04-26T05:07:39Z</time></trkpt><trkpt lat="46.02505321548007" lon="12.026378384964621"><ele>675.0</ele><time>2026-04-26T05:07:40Z</time></trkpt><trkpt lat="46.02510799994921" lon="12.026560982637971"><ele>670.5</ele><time>2026-04-26T05:07:41Z</time></trkpt><trkpt lat="46.0251441518761" lon="12.02676631814881"><ele>666.0</ele><time>2026-04-26T05:07:42Z</time></trkpt><trkpt lat="46.02520747483002" lon="12.026975545354334"><ele>666.0</ele><time>2026-04-26T05:07:43Z</time></trkpt><trkpt lat="46.02522879525086" lon="12.027167435170606"><ele>666.0</ele><time>2026-04-26T05:07:44Z</time></trkpt><trkpt lat="46.02525621824578" lon="12.02735978245402"><ele>666.0</ele><time>2026-04-26T05:07:45Z</time></trkpt><trkpt lat="46.02527704188905" lon="12.027541513499271"><ele>666.0</ele><time>2026-04-26T05:07:46Z</time></trkpt><trkpt lat="46.02530535721425" lon="12.027703810161652"><ele>666.1999999999999</ele><time>2026-04-26T05:07:47Z</time></trkpt><trkpt lat="46.025332791651884" lon="12.027864647272"><ele>666.4</ele><time>2026-04-26T05:07:48Z</time></trkpt><trkpt lat="46.02536109866263" lon="12.028019186638012"><ele>666.6</ele><time>2026-04-26T05:07:49Z</time></trkpt><trkpt lat="46.025407459937696" lon="12.028149870317218"><ele>666.8</ele><time>2026-04-26T05:07:50Z</time></trkpt><trkpt lat="46.02547974290229" lon="12.028259597914715"><ele>667.0</ele><time>2026-04-26T05:07:51Z</time></trkpt><trkpt lat="46.025577568246355" lon="12.028355608774515"><ele>669.75</ele><time>2026-04-26T05:07:52Z</time></trkpt><trkpt lat="46.02569906050951" lon="12.028423909736965"><ele>672.5</ele><time>2026-04-26T05:07:53Z</time></trkpt><trkpt lat="46.02582001937914" lon="12.028503878819818"><ele>675.25</ele><time>2026-04-26T05:07:54Z</time></trkpt><trkpt lat="46.02592669679595" lon="12.028583176437678"><ele>678.0</ele><time>2026-04-26T05:07:55Z</time></trkpt><trkpt lat="46.026007938090885" lon="12.028665177440141"><ele>671.75</ele><time>2026-04-26T05:07:56Z</time></trkpt><trkpt lat="46.02607253202524" lon="12.028777583781899"><ele>665.5</ele><time>2026-04-26T05:07:57Z</time></trkpt><trkpt lat="46.02610903315267" lon="12.028926882839954"><ele>659.25</ele><time>2026-04-26T05:07:58Z</time></trkpt><trkpt lat="46.026154710992515" lon="12.029108646243106"><ele>653.0</ele><time>2026-04-26T05:07:59Z</time></trkpt><trkpt lat="46.02620864915696" lon="12.029315830082412"><ele>653.0</ele><time>2026-04-26T05:08:00Z</time></trkpt><trkpt lat="46.02624562914615" lon="12.029540361441997"><ele>653.0</ele><time>2026-04-26T05:08:01Z</time></trkpt><trkpt lat="46.026289340511795" lon="12.029747222343484"><ele>653.0</ele><time>2026-04-26T05:08:02Z</time></trkpt><trkpt lat="46.026338805007555" lon="12.029945336214919"><ele>652.75</ele><time>2026-04-26T05:08:03Z</time></trkpt><trkpt lat="46.026398851617586" lon="12.030148718256669"><ele>652.5</ele><time>2026-04-26T05:08:04Z</time></trkpt><trkpt lat="46.02646038865425" lon="12.030341615910608"><ele>652.25</ele><time>2026-04-26T05:08:05Z</time></trkpt><trkpt lat="46.026520486430684" lon="12.030527579028004"><ele>652.0</ele><time>2026-04-26T05:08:06Z</time></trkpt><trkpt lat="46.0265842459904" lon="12.03070935687674"><ele>644.6666666666667</ele><time>2026-04-26T05:08:07Z</time></trkpt><trkpt lat="46.0266499839355" lon="12.030900535615348"><ele>637.3333333333334</ele><time>2026-04-26T05:08:08Z</time></trkpt><trkpt lat="46.02670958273237" lon="12.031111713749189"><ele>630.0</ele><time>2026-04-26T05:08:09Z</time></trkpt><trkpt lat="46.02677420424742" lon="12.031325588092379"><ele>630.0</ele><time>2026-04-26T05:08:10Z</time></trkpt><trkpt lat="46.026834537735546" lon="12.031533591823443"><ele>630.0</ele><time>2026-04-26T05:08:11Z</time></trkpt><trkpt lat="46.02689459523439" lon="12.031740673783258"><ele>630.0</ele><time>2026-04-26T05:08:12Z</time></trkpt><trkpt lat="46.02695397892544" lon="12.031939146973263"><ele>630.3333333333334</ele><time>2026-04-26T05:08:13Z</time></trkpt><trkpt lat="46.02701894678046" lon="12.032136844608296"><ele>630.6666666666667</ele><time>2026-04-26T05:08:14Z</time></trkpt><trkpt lat="46.02708684650026" lon="12.032328505406959"><ele>631.0</ele><time>2026-04-26T05:08:15Z</time></trkpt><trkpt lat="46.02715616358921" lon="12.032520246595242"><ele>633.0</ele><time>2026-04-26T05:08:16Z</time></trkpt><trkpt lat="46.027229117825776" lon="12.03271291468067"><ele>635.0</ele><time>2026-04-26T05:08:17Z</time></trkpt><trkpt lat="46.02729904489433" lon="12.032906472163079"><ele>637.0</ele><time>2026-04-26T05:08:18Z</time></trkpt><trkpt lat="46.02737192850517" lon="12.033096908283285"><ele>637.0</ele><time>2026-04-26T05:08:19Z</time></trkpt><trkpt lat="46.027446977251" lon="12.03327273617823"><ele>637.0</ele><time>2026-04-26T05:08:20Z</time></trkpt><trkpt lat="46.02754584032499" lon="12.033429141662678"><ele>637.0</ele><time>2026-04-26T05:08:21Z</time></trkpt><trkpt lat="46.027651510369836" lon="12.033576943769795"><ele>637.0</ele><time>2026-04-26T05:08:22Z</time></trkpt><trkpt lat="46.02776165189301" lon="12.033709735680146"><ele>630.5</ele><time>2026-04-26T05:08:23Z</time></trkpt><trkpt lat="46.02788080053317" lon="12.033838623601344"><ele>624.0</ele><time>2026-04-26T05:08:24Z</time></trkpt><trkpt lat="46.027989149328555" lon="12.033964018187605"><ele>617.5</ele><time>2026-04-26T05:08:25Z</time></trkpt><trkpt lat="46.028084448384185" lon="12.0340740068008"><ele>611.0</ele><time>2026-04-26T05:08:26Z</time></trkpt><trkpt lat="46.028175726566346" lon="12.0341865263996"><ele>610.25</ele><time>2026-04-26T05:08:27Z</time></trkpt><trkpt lat="46.02827214163047" lon="12.034300564578798"><ele>609.5</ele><time>2026-04-26T05:08:28Z</time></trkpt><trkpt lat="46.028367970952544" lon="12.034411486429942"><ele>608.75</ele><time>2026-04-26T05:08:29Z</time></trkpt><trkpt lat="46.028464017006996" lon="12.03451282166738"><ele>608.0</ele><time>2026-04-26T05:08:30Z</time></trkpt><trkpt lat="46.02856267631604" lon="12.03459395552185"><ele>605.1666666666666</ele><time>2026-04-26T05:08:31Z</time></trkpt><trkpt lat="46.02865787508467" lon="12.03465367048727"><ele>602.3333333333333</ele><time>2026-04-26T05:08:32Z</time></trkpt><trkpt lat="46.02874371236005" lon="12.034700136002147"><ele>599.5</ele><time>2026-04-26T05:08:33Z</time></trkpt><trkpt lat="46.02881988861661" lon="12.034746815856632"><ele>596.6666666666666</ele><time>2026-04-26T05:08:34Z</time></trkpt><trkpt lat="46.02888100810883" lon="12.034789148453685"><ele>593.8333333333334</ele><time>2026-04-26T05:08:35Z</time></trkpt><trkpt lat="46.02894487667394" lon="12.034812487226068"><ele>591.0</ele><time>2026-04-26T05:08:37Z</time></trkpt><trkpt lat="46.02891682981167" lon="12.034582967821807"><ele>591.0</ele><time>2026-04-26T05:08:41Z</time></trkpt><trkpt lat="46.02888706418153" lon="12.034456958432129"><ele>591.0</ele><time>2026-04-26T05:08:42Z</time></trkpt><trkpt lat="46.0288784385325" lon="12.034291352320361"><ele>591.0</ele><time>2026-04-26T05:08:42.999Z</time></trkpt><trkpt lat="46.02887153882803" lon="12.034100913359687"><ele>591.0</ele><time>2026-04-26T05:08:43.999Z</time></trkpt><trkpt lat="46.028859975619625" lon="12.033902914314291"><ele>591.25</ele><time>2026-04-26T05:08:44.999Z</time></trkpt><trkpt lat="46.0288428093402" lon="12.03369903056421"><ele>591.5</ele><time>2026-04-26T05:08:45.999Z</time></trkpt><trkpt lat="46.02882074227781" lon="12.03349376018328"><ele>591.75</ele><time>2026-04-26T05:08:46.999Z</time></trkpt><trkpt lat="46.02879509484595" lon="12.033297408199084"><ele>592.0</ele><time>2026-04-26T05:08:47.999Z</time></trkpt><trkpt lat="46.02876221293743" lon="12.033096513234737"><ele>592.0</ele><time>2026-04-26T05:08:48.999Z</time></trkpt><trkpt lat="46.02872703752658" lon="12.032902373203846"><ele>592.0</ele><time>2026-04-26T05:08:49.999Z</time></trkpt><trkpt lat="46.02868877392927" lon="12.032704100027217"><ele>592.0</ele><time>2026-04-26T05:08:50.999Z</time></trkpt><trkpt lat="46.028663955586175" lon="12.032499053116831"><ele>592.0</ele><time>2026-04-26T05:08:51.999Z</time></trkpt><trkpt lat="46.02864141554011" lon="12.032297619867242"><ele>592.25</ele><time>2026-04-26T05:08:52.999Z</time></trkpt><trkpt lat="46.02862940201722" lon="12.032094298302528"><ele>592.5</ele><time>2026-04-26T05:08:53.999Z</time></trkpt><trkpt lat="46.02863138950115" lon="12.031894441809028"><ele>592.75</ele><time>2026-04-26T05:08:54.999Z</time></trkpt><trkpt lat="46.028639466063176" lon="12.031690581413214"><ele>593.0</ele><time>2026-04-26T05:08:55.999Z</time></trkpt><trkpt lat="46.028645585415816" lon="12.031484635250944"><ele>592.25</ele><time>2026-04-26T05:08:56.999Z</time></trkpt><trkpt lat="46.02863831333344" lon="12.031278104045818"><ele>591.5</ele><time>2026-04-26T05:08:57.999Z</time></trkpt><trkpt lat="46.02862454830504" lon="12.031089893261631"><ele>590.75</ele><time>2026-04-26T05:08:58.999Z</time></trkpt><trkpt lat="46.028622612606064" lon="12.030889375322307"><ele>590.0</ele><time>2026-04-26T05:08:59.999Z</time></trkpt><trkpt lat="46.028596972051965" lon="12.030681348270342"><ele>590.0</ele><time>2026-04-26T05:09:00.999Z</time></trkpt><trkpt lat="46.028560545081476" lon="12.030477100354588"><ele>590.0</ele><time>2026-04-26T05:09:01.999Z</time></trkpt><trkpt lat="46.02850641464109" lon="12.03028288505743"><ele>590.0</ele><time>2026-04-26T05:09:02.999Z</time></trkpt><trkpt lat="46.02846936492724" lon="12.030084441526641"><ele>590.0</ele><time>2026-04-26T05:09:03.999Z</time></trkpt><trkpt lat="46.02843476732701" lon="12.029886911782762"><ele>590.0</ele><time>2026-04-26T05:09:04.999Z</time></trkpt><trkpt lat="46.02840124289593" lon="12.029713216409107"><ele>590.0</ele><time>2026-04-26T05:09:06Z</time></trkpt><trkpt lat="46.028366992136434" lon="12.029557693919173"><ele>590.0</ele><time>2026-04-26T05:09:07Z</time></trkpt><trkpt lat="46.028331717670504" lon="12.02939740043203"><ele>590.0</ele><time>2026-04-26T05:09:08Z</time></trkpt><trkpt lat="46.028301583943346" lon="12.029232296145345"><ele>593.0</ele><time>2026-04-26T05:09:09Z</time></trkpt><trkpt lat="46.02826543900372" lon="12.029068852270386"><ele>596.0</ele><time>2026-04-26T05:09:10Z</time></trkpt><trkpt lat="46.02821751345783" lon="12.028909124126832"><ele>599.0</ele><time>2026-04-26T05:09:11Z</time></trkpt><trkpt lat="46.02816042476243" lon="12.028752457625165"><ele>602.0</ele><time>2026-04-26T05:09:12Z</time></trkpt><trkpt lat="46.02809233678961" lon="12.028601977742078"><ele>602.0</ele><time>2026-04-26T05:09:13Z</time></trkpt><trkpt lat="46.02802410301449" lon="12.028442558830156"><ele>602.0</ele><time>2026-04-26T05:09:14Z</time></trkpt><trkpt lat="46.02795424187145" lon="12.028284339265348"><ele>602.0</ele><time>2026-04-26T05:09:15Z</time></trkpt><trkpt lat="46.02788346189766" lon="12.028130263501623"><ele>602.0</ele><time>2026-04-26T05:09:16Z</time></trkpt><trkpt lat="46.027841114090435" lon="12.027978144523843"><ele>599.75</ele><time>2026-04-26T05:09:17Z</time></trkpt><trkpt lat="46.027812567790036" lon="12.027829495326934"><ele>597.5</ele><time>2026-04-26T05:09:18Z</time></trkpt><trkpt lat="46.02777782658781" lon="12.027629749110922"><ele>595.25</ele><time>2026-04-26T05:09:19Z</time></trkpt><trkpt lat="46.027714521440686" lon="12.027484287516772"><ele>593.0</ele><time>2026-04-26T05:09:20Z</time></trkpt><trkpt lat="46.02756581843553" lon="12.027406355922905"><ele>591.5</ele><time>2026-04-26T05:09:21Z</time></trkpt><trkpt lat="46.027502546514796" lon="12.027263749990253"><ele>590.0</ele><time>2026-04-26T05:09:22Z</time></trkpt><trkpt lat="46.02744927794005" lon="12.02711810750089"><ele>588.5</ele><time>2026-04-26T05:09:23Z</time></trkpt><trkpt lat="46.027405013035" lon="12.026958569825279"><ele>587.0</ele><time>2026-04-26T05:09:24Z</time></trkpt><trkpt lat="46.02736908009926" lon="12.026804105351816"><ele>591.4</ele><time>2026-04-26T05:09:25Z</time></trkpt><trkpt lat="46.02735032873647" lon="12.026653960372984"><ele>595.8000000000001</ele><time>2026-04-26T05:09:26Z</time></trkpt><trkpt lat="46.02731516505388" lon="12.026514725588395"><ele>600.2</ele><time>2026-04-26T05:09:27Z</time></trkpt><trkpt lat="46.02728330915278" lon="12.026387797136938"><ele>604.6</ele><time>2026-04-26T05:09:28Z</time></trkpt><trkpt lat="46.02726003527498" lon="12.026273097037874"><ele>609.0</ele><time>2026-04-26T05:09:29Z</time></trkpt><trkpt lat="46.02723852742058" lon="12.026164735275602"><ele>609.0</ele><time>2026-04-26T05:09:30Z</time></trkpt><trkpt lat="46.02725850247167" lon="12.026045771120453"><ele>609.0</ele><time>2026-04-26T05:09:31Z</time></trkpt><trkpt lat="46.02729529683083" lon="12.025920238099529"><ele>609.0</ele><time>2026-04-26T05:09:32Z</time></trkpt><trkpt lat="46.02734254016806" lon="12.025795711857105"><ele>609.0</ele><time>2026-04-26T05:09:33Z</time></trkpt><trkpt lat="46.027373727851156" lon="12.025666059002518"><ele>609.0</ele><time>2026-04-26T05:09:34Z</time></trkpt><trkpt lat="46.027394777805064" lon="12.025518611625733"><ele>607.3333333333334</ele><time>2026-04-26T05:09:35Z</time></trkpt><trkpt lat="46.02739057570803" lon="12.025371211438335"><ele>605.6666666666666</ele><time>2026-04-26T05:09:36Z</time></trkpt><trkpt lat="46.027385617074486" lon="12.02524462603227"><ele>604.0</ele><time>2026-04-26T05:09:37Z</time></trkpt><trkpt lat="46.027407252611475" lon="12.025147078475156"><ele>602.3333333333333</ele><time>2026-04-26T05:09:38Z</time></trkpt><trkpt lat="46.02741593972446" lon="12.025056261719014"><ele>600.6666666666666</ele><time>2026-04-26T05:09:39Z</time></trkpt><trkpt lat="46.027454096221085" lon="12.024920096256427"><ele>599.0</ele><time>2026-04-26T05:09:41Z</time></trkpt><trkpt lat="46.02751058147419" lon="12.024876755836463"><ele>593.0</ele><time>2026-04-26T05:09:42Z</time></trkpt><trkpt lat="46.027585483942" lon="12.024860297501544"><ele>587.0</ele><time>2026-04-26T05:09:43Z</time></trkpt><trkpt lat="46.027665229795915" lon="12.024860600356382"><ele>581.0</ele><time>2026-04-26T05:09:44Z</time></trkpt><trkpt lat="46.02775652602713" lon="12.024848393169618"><ele>575.0</ele><time>2026-04-26T05:09:45Z</time></trkpt><trkpt lat="46.0278439756709" lon="12.02481179979013"><ele>569.0</ele><time>2026-04-26T05:09:46Z</time></trkpt><trkpt lat="46.0279176383453" lon="12.02475944742977"><ele>563.0</ele><time>2026-04-26T05:09:47Z</time></trkpt><trkpt lat="46.02799614249761" lon="12.024672233765816"><ele>563.0</ele><time>2026-04-26T05:09:48Z</time></trkpt><trkpt lat="46.02807037548473" lon="12.024594271674296"><ele>563.0</ele><time>2026-04-26T05:09:49Z</time></trkpt><trkpt lat="46.02813845410926" lon="12.024525193139235"><ele>563.0</ele><time>2026-04-26T05:09:50Z</time></trkpt><trkpt lat="46.02821245948271" lon="12.02448602344945"><ele>563.0</ele><time>2026-04-26T05:09:51Z</time></trkpt><trkpt lat="46.02825451982021" lon="12.024409165823107"><ele>563.0</ele><time>2026-04-26T05:09:52Z</time></trkpt><trkpt lat="46.02831283521913" lon="12.024369291512315"><ele>563.0</ele><time>2026-04-26T05:09:53Z</time></trkpt><trkpt lat="46.02837302082801" lon="12.024337725637562"><ele>561.3333333333333</ele><time>2026-04-26T05:09:54Z</time></trkpt><trkpt lat="46.028437354907325" lon="12.024313648079985"><ele>559.6666666666666</ele><time>2026-04-26T05:09:55Z</time></trkpt><trkpt lat="46.028509494826295" lon="12.024301736651962"><ele>558.0</ele><time>2026-04-26T05:09:56Z</time></trkpt><trkpt lat="46.02858220721937" lon="12.024284636657521"><ele>556.3333333333334</ele><time>2026-04-26T05:09:57Z</time></trkpt><trkpt lat="46.02865828924986" lon="12.024269958208174"><ele>554.6666666666667</ele><time>2026-04-26T05:09:58Z</time></trkpt><trkpt lat="46.0287390440098" lon="12.024253640325357"><ele>553.0</ele><time>2026-04-26T05:09:59Z</time></trkpt><trkpt lat="46.02883870168876" lon="12.024274980229215"><ele>553.0</ele><time>2026-04-26T05:10:00Z</time></trkpt><trkpt lat="46.028934104982866" lon="12.024275792661216"><ele>553.0</ele><time>2026-04-26T05:10:01Z</time></trkpt><trkpt lat="46.02902673950369" lon="12.024256025411486"><ele>553.0</ele><time>2026-04-26T05:10:02Z</time></trkpt><trkpt lat="46.029125174530314" lon="12.024255361789013"><ele>553.0</ele><time>2026-04-26T05:10:03Z</time></trkpt><trkpt lat="46.02922144710616" lon="12.02424768171052"><ele>553.0</ele><time>2026-04-26T05:10:04Z</time></trkpt><trkpt lat="46.029313163301616" lon="12.024239918991364"><ele>551.0</ele><time>2026-04-26T05:10:05Z</time></trkpt><trkpt lat="46.029393571247816" lon="12.024263117924978"><ele>549.0</ele><time>2026-04-26T05:10:06Z</time></trkpt><trkpt lat="46.02950494688064" lon="12.024270860322803"><ele>547.0</ele><time>2026-04-26T05:10:08Z</time></trkpt><trkpt lat="46.02963884429597" lon="12.024062354060664"><ele>545.0</ele><time>2026-04-26T05:10:10Z</time></trkpt><trkpt lat="46.029756449614844" lon="12.024020200106552"><ele>542.0</ele><time>2026-04-26T05:10:12Z</time></trkpt><trkpt lat="46.0298302310072" lon="12.024009250466197"><ele>539.0</ele><time>2026-04-26T05:10:13Z</time></trkpt><trkpt lat="46.02991164012949" lon="12.024011938552189"><ele>536.0</ele><time>2026-04-26T05:10:14Z</time></trkpt><trkpt lat="46.030005399238725" lon="12.024006917796237"><ele>533.0</ele><time>2026-04-26T05:10:15Z</time></trkpt><trkpt lat="46.03009335772707" lon="12.02400489628149"><ele>530.0</ele><time>2026-04-26T05:10:16Z</time></trkpt><trkpt lat="46.030167563306186" lon="12.024003965920995"><ele>527.0</ele><time>2026-04-26T05:10:17Z</time></trkpt><trkpt lat="46.030252737991574" lon="12.023980313830178"><ele>525.5</ele><time>2026-04-26T05:10:18Z</time></trkpt><trkpt lat="46.03033242216197" lon="12.023971740149697"><ele>524.0</ele><time>2026-04-26T05:10:19Z</time></trkpt><trkpt lat="46.03040946964533" lon="12.023964270592641"><ele>522.5</ele><time>2026-04-26T05:10:20Z</time></trkpt><trkpt lat="46.030490340559886" lon="12.023971040569396"><ele>521.0</ele><time>2026-04-26T05:10:21Z</time></trkpt><trkpt lat="46.03057063539262" lon="12.023960253511817"><ele>519.5</ele><time>2026-04-26T05:10:22Z</time></trkpt><trkpt lat="46.030668607610956" lon="12.023938590360089"><ele>518.0</ele><time>2026-04-26T05:10:23Z</time></trkpt><trkpt lat="46.03075743936748" lon="12.023914043947988"><ele>514.6</ele><time>2026-04-26T05:10:24Z</time></trkpt><trkpt lat="46.03082568279722" lon="12.023891804697612"><ele>511.19999999999993</ele><time>2026-04-26T05:10:25Z</time></trkpt><trkpt lat="46.030950597341246" lon="12.02385898080397"><ele>507.8</ele><time>2026-04-26T05:10:27Z</time></trkpt><trkpt lat="46.03104217179512" lon="12.023844974549274"><ele>504.4</ele><time>2026-04-26T05:10:28Z</time></trkpt><trkpt lat="46.031118369410684" lon="12.023829098177679"><ele>501.0</ele><time>2026-04-26T05:10:29Z</time></trkpt><trkpt lat="46.03124976076067" lon="12.023815250407305"><ele>501.0</ele><time>2026-04-26T05:10:31Z</time></trkpt><trkpt lat="46.031324913378945" lon="12.023818282731341"><ele>501.0</ele><time>2026-04-26T05:10:32Z</time></trkpt><trkpt lat="46.03140047780151" lon="12.023844273351811"><ele>501.0</ele><time>2026-04-26T05:10:33Z</time></trkpt><trkpt lat="46.0314691158384" lon="12.023897193689821"><ele>501.0</ele><time>2026-04-26T05:10:34Z</time></trkpt><trkpt lat="46.031543175755814" lon="12.023955688525511"><ele>501.0</ele><time>2026-04-26T05:10:35Z</time></trkpt><trkpt lat="46.03161604541625" lon="12.024007221847887"><ele>501.0</ele><time>2026-04-26T05:10:36Z</time></trkpt><trkpt lat="46.03169087806038" lon="12.02405134311575"><ele>500.0</ele><time>2026-04-26T05:10:37Z</time></trkpt><trkpt lat="46.031755558314806" lon="12.02408757624393"><ele>499.0</ele><time>2026-04-26T05:10:38Z</time></trkpt><trkpt lat="46.031830616246346" lon="12.024132141951334"><ele>498.0</ele><time>2026-04-26T05:10:39Z</time></trkpt><trkpt lat="46.03190660635847" lon="12.024195094313196"><ele>497.0</ele><time>2026-04-26T05:10:40Z</time></trkpt><trkpt lat="46.03197655062514" lon="12.024283684309482"><ele>496.0</ele><time>2026-04-26T05:10:41Z</time></trkpt><trkpt lat="46.03204939410422" lon="12.024381948397263"><ele>495.0</ele><time>2026-04-26T05:10:41.999Z</time></trkpt><trkpt lat="46.03209942549002" lon="12.02446947450596"><ele>495.0</ele><time>2026-04-26T05:10:42.999Z</time></trkpt><trkpt lat="46.03219080475999" lon="12.024600728563817"><ele>495.0</ele><time>2026-04-26T05:10:44.999Z</time></trkpt><trkpt lat="46.03225238055357" lon="12.024656417603927"><ele>495.0</ele><time>2026-04-26T05:10:45.999Z</time></trkpt><trkpt lat="46.032415574102785" lon="12.024600629016229"><ele>495.0</ele><time>2026-04-26T05:10:46.999Z</time></trkpt><trkpt lat="46.032461296358896" lon="12.024678364091868"><ele>495.0</ele><time>2026-04-26T05:10:47.999Z</time></trkpt><trkpt lat="46.03252826718182" lon="12.024775346390067"><ele>495.0</ele><time>2026-04-26T05:10:49.999Z</time></trkpt><trkpt lat="46.03258880256302" lon="12.02482581218385"><ele>495.0</ele><time>2026-04-26T05:10:52.999Z</time></trkpt><trkpt lat="46.03253479559806" lon="12.02475320905524"><ele>495.0</ele><time>2026-04-26T05:10:57.999Z</time></trkpt><trkpt lat="46.0324526368733" lon="12.02473575521307"><ele>495.0</ele><time>2026-04-26T05:10:58.999Z</time></trkpt><trkpt lat="46.03231329993245" lon="12.0246482955046"><ele>495.0</ele><time>2026-04-26T05:10:59.999Z</time></trkpt><trkpt lat="46.03220769850746" lon="12.024537764934239"><ele>495.0</ele><time>2026-04-26T05:11:00.999Z</time></trkpt><trkpt lat="46.032137114639916" lon="12.024441567794346"><ele>495.0</ele><time>2026-04-26T05:11:01.999Z</time></trkpt><trkpt lat="46.032073649" lon="12.024350963601092"><ele>495.0</ele><time>2026-04-26T05:11:02.999Z</time></trkpt><trkpt lat="46.03200821315549" lon="12.024258823319352"><ele>495.0</ele><time>2026-04-26T05:11:03.999Z</time></trkpt><trkpt lat="46.031947912017756" lon="12.024188071564188"><ele>495.0</ele><time>2026-04-26T05:11:04.999Z</time></trkpt><trkpt lat="46.03188487865714" lon="12.024118707412905"><ele>495.0</ele><time>2026-04-26T05:11:05.999Z</time></trkpt><trkpt lat="46.03181389531052" lon="12.024038605358324"><ele>483.0</ele><time>2026-04-26T05:11:06.999Z</time></trkpt><trkpt lat="46.03183382795823" lon="12.023487222289077"><ele>471.0</ele><time>2026-04-26T05:11:08.999Z</time></trkpt><trkpt lat="46.031733250761825" lon="12.023357803912383"><ele>472.25</ele><time>2026-04-26T05:11:09.999Z</time></trkpt><trkpt lat="46.03165649691195" lon="12.02320793236546"><ele>473.5</ele><time>2026-04-26T05:11:10.999Z</time></trkpt><trkpt lat="46.03155755700732" lon="12.023068079157248"><ele>474.75</ele><time>2026-04-26T05:11:12Z</time></trkpt><trkpt lat="46.03144550996457" lon="12.022975212936458"><ele>476.0</ele><time>2026-04-26T05:11:13Z</time></trkpt><trkpt lat="46.03136600528845" lon="12.02286155863437"><ele>476.0</ele><time>2026-04-26T05:11:14Z</time></trkpt><trkpt lat="46.03128922004906" lon="12.022789426139504"><ele>476.0</ele><time>2026-04-26T05:11:15Z</time></trkpt><trkpt lat="46.03118290332378" lon="12.022701756838286"><ele>476.0</ele><time>2026-04-26T05:11:16Z</time></trkpt><trkpt lat="46.031066427044905" lon="12.022627635530085"><ele>476.0</ele><time>2026-04-26T05:11:17Z</time></trkpt><trkpt lat="46.03096392981054" lon="12.02253616878055"><ele>478.0</ele><time>2026-04-26T05:11:18Z</time></trkpt><trkpt lat="46.03088186068564" lon="12.02248126841956"><ele>480.0</ele><time>2026-04-26T05:11:19Z</time></trkpt><trkpt lat="46.030800661526285" lon="12.022474509029639"><ele>482.0</ele><time>2026-04-26T05:11:20Z</time></trkpt><trkpt lat="46.03068695366923" lon="12.022506035684255"><ele>484.0</ele><time>2026-04-26T05:11:21Z</time></trkpt><trkpt lat="46.03056227708057" lon="12.022539458421544"><ele>486.0</ele><time>2026-04-26T05:11:22Z</time></trkpt><trkpt lat="46.03043476673733" lon="12.022570188490427"><ele>486.0</ele><time>2026-04-26T05:11:23Z</time></trkpt><trkpt lat="46.03028729327615" lon="12.022626882915803"><ele>486.0</ele><time>2026-04-26T05:11:24Z</time></trkpt><trkpt lat="46.03019707219292" lon="12.022617857484013"><ele>486.0</ele><time>2026-04-26T05:11:25Z</time></trkpt><trkpt lat="46.03013377734043" lon="12.022581031820021"><ele>486.0</ele><time>2026-04-26T05:11:26Z</time></trkpt><trkpt lat="46.030064337447406" lon="12.02249800070321"><ele>486.0</ele><time>2026-04-26T05:11:28Z</time></trkpt><trkpt lat="46.03004804674291" lon="12.022355641818157"><ele>486.0</ele><time>2026-04-26T05:11:29Z</time></trkpt><trkpt lat="46.030036630749656" lon="12.022205509729405"><ele>486.0</ele><time>2026-04-26T05:11:30Z</time></trkpt><trkpt lat="46.03003125722947" lon="12.02204611241632"><ele>486.0</ele><time>2026-04-26T05:11:31Z</time></trkpt><trkpt lat="46.03001490656978" lon="12.021838804383659"><ele>486.0</ele><time>2026-04-26T05:11:32Z</time></trkpt><trkpt lat="46.0300029914225" lon="12.021696956105044"><ele>483.8</ele><time>2026-04-26T05:11:33Z</time></trkpt><trkpt lat="46.029985867219544" lon="12.021588721470454"><ele>481.6</ele><time>2026-04-26T05:11:34Z</time></trkpt><trkpt lat="46.029947200936505" lon="12.02149598682885"><ele>479.4</ele><time>2026-04-26T05:11:35Z</time></trkpt><trkpt lat="46.02987783606233" lon="12.021402049918485"><ele>477.2</ele><time>2026-04-26T05:11:36Z</time></trkpt><trkpt lat="46.02979191230643" lon="12.021298000246098"><ele>475.0</ele><time>2026-04-26T05:11:37Z</time></trkpt><trkpt lat="46.02970308351391" lon="12.021189265385333"><ele>478.2</ele><time>2026-04-26T05:11:38Z</time></trkpt><trkpt lat="46.029643878952584" lon="12.021045417634745"><ele>481.4</ele><time>2026-04-26T05:11:39Z</time></trkpt><trkpt lat="46.02958056085612" lon="12.020903732255668"><ele>484.6</ele><time>2026-04-26T05:11:40Z</time></trkpt><trkpt lat="46.02952180508737" lon="12.02078467027731"><ele>487.8</ele><time>2026-04-26T05:11:41Z</time></trkpt><trkpt lat="46.029456058696844" lon="12.020675775511675"><ele>491.0</ele><time>2026-04-26T05:11:42Z</time></trkpt><trkpt lat="46.02935660112057" lon="12.0206044201915"><ele>491.0</ele><time>2026-04-26T05:11:43Z</time></trkpt><trkpt lat="46.02929941836663" lon="12.020498716541278"><ele>491.0</ele><time>2026-04-26T05:11:44Z</time></trkpt><trkpt lat="46.02928970799982" lon="12.020360003658167"><ele>491.0</ele><time>2026-04-26T05:11:45Z</time></trkpt><trkpt lat="46.029261314324614" lon="12.020197515655067"><ele>491.0</ele><time>2026-04-26T05:11:46Z</time></trkpt><trkpt lat="46.02921693004038" lon="12.020057702010744"><ele>491.0</ele><time>2026-04-26T05:11:47Z</time></trkpt><trkpt lat="46.02918828653572" lon="12.019920866634921"><ele>489.20000000000005</ele><time>2026-04-26T05:11:48Z</time></trkpt><trkpt lat="46.029145939668425" lon="12.019780839060726"><ele>487.40000000000003</ele><time>2026-04-26T05:11:49Z</time></trkpt><trkpt lat="46.0290834227409" lon="12.019632016531796"><ele>485.6</ele><time>2026-04-26T05:11:50Z</time></trkpt><trkpt lat="46.029046252918455" lon="12.01948373733983"><ele>483.8</ele><time>2026-04-26T05:11:51Z</time></trkpt><trkpt lat="46.029015046230874" lon="12.01934541226591"><ele>482.0</ele><time>2026-04-26T05:11:52Z</time></trkpt><trkpt lat="46.02899866705626" lon="12.01920188986602"><ele>488.20000000000005</ele><time>2026-04-26T05:11:53Z</time></trkpt><trkpt lat="46.02899019018481" lon="12.01905358804547"><ele>494.40000000000003</ele><time>2026-04-26T05:11:54Z</time></trkpt><trkpt lat="46.02898039311278" lon="12.01890048430552"><ele>500.59999999999997</ele><time>2026-04-26T05:11:55Z</time></trkpt><trkpt lat="46.028965426177194" lon="12.018741702086578"><ele>506.79999999999995</ele><time>2026-04-26T05:11:56Z</time></trkpt><trkpt lat="46.02895159575472" lon="12.018568981004892"><ele>513.0</ele><time>2026-04-26T05:11:57Z</time></trkpt><trkpt lat="46.02893876907451" lon="12.018394949415741"><ele>512.5</ele><time>2026-04-26T05:11:58Z</time></trkpt><trkpt lat="46.02892438525755" lon="12.018224320254323"><ele>512.0</ele><time>2026-04-26T05:11:59Z</time></trkpt><trkpt lat="46.0289000056677" lon="12.018049949985953"><ele>511.5</ele><time>2026-04-26T05:12:00Z</time></trkpt><trkpt lat="46.028868387691006" lon="12.017876721413925"><ele>511.0</ele><time>2026-04-26T05:12:01Z</time></trkpt><trkpt lat="46.02884091192585" lon="12.017733351456387"><ele>511.0</ele><time>2026-04-26T05:12:02Z</time></trkpt><trkpt lat="46.02881494952487" lon="12.017604008721571"><ele>511.0</ele><time>2026-04-26T05:12:03Z</time></trkpt><trkpt lat="46.028787545596764" lon="12.017475543214692"><ele>511.0</ele><time>2026-04-26T05:12:04Z</time></trkpt><trkpt lat="46.028735934313396" lon="12.017327754946677"><ele>511.0</ele><time>2026-04-26T05:12:05Z</time></trkpt><trkpt lat="46.02870564473741" lon="12.017145165842123"><ele>511.0</ele><time>2026-04-26T05:12:06Z</time></trkpt><trkpt lat="46.02865407387587" lon="12.016960173987824"><ele>506.6666666666667</ele><time>2026-04-26T05:12:07Z</time></trkpt><trkpt lat="46.02859796893411" lon="12.016761621515737"><ele>502.33333333333337</ele><time>2026-04-26T05:12:08Z</time></trkpt><trkpt lat="46.02854195273147" lon="12.016561455540682"><ele>498.0</ele><time>2026-04-26T05:12:09Z</time></trkpt><trkpt lat="46.02847820991635" lon="12.016324707037993"><ele>495.0</ele><time>2026-04-26T05:12:10Z</time></trkpt><trkpt lat="46.028421816511646" lon="12.016086410524329"><ele>492.0</ele><time>2026-04-26T05:12:11Z</time></trkpt><trkpt lat="46.02837678646651" lon="12.015846846143162"><ele>489.0</ele><time>2026-04-26T05:12:12Z</time></trkpt><trkpt lat="46.028329285161014" lon="12.015621299527739"><ele>490.25</ele><time>2026-04-26T05:12:13Z</time></trkpt><trkpt lat="46.028321117868316" lon="12.015410219480453"><ele>491.5</ele><time>2026-04-26T05:12:14Z</time></trkpt><trkpt lat="46.028305558346574" lon="12.015195208046032"><ele>492.75</ele><time>2026-04-26T05:12:15Z</time></trkpt><trkpt lat="46.0282861557204" lon="12.01498896875915"><ele>494.0</ele><time>2026-04-26T05:12:16Z</time></trkpt><trkpt lat="46.02824358007494" lon="12.014757741815128"><ele>494.0</ele><time>2026-04-26T05:12:17Z</time></trkpt><trkpt lat="46.028191664487075" lon="12.014546992269414"><ele>494.0</ele><time>2026-04-26T05:12:18Z</time></trkpt><trkpt lat="46.0281402766533" lon="12.014350746397685"><ele>494.0</ele><time>2026-04-26T05:12:19Z</time></trkpt><trkpt lat="46.02809007549768" lon="12.014169785973815"><ele>494.0</ele><time>2026-04-26T05:12:20Z</time></trkpt><trkpt lat="46.02802742841673" lon="12.01402030571569"><ele>489.5</ele><time>2026-04-26T05:12:21Z</time></trkpt><trkpt lat="46.02796665025058" lon="12.01388112174703"><ele>485.0</ele><time>2026-04-26T05:12:22Z</time></trkpt><trkpt lat="46.02787756644707" lon="12.013780062741692"><ele>480.5</ele><time>2026-04-26T05:12:23Z</time></trkpt><trkpt lat="46.02776914368615" lon="12.013698217335454"><ele>476.0</ele><time>2026-04-26T05:12:24Z</time></trkpt><trkpt lat="46.02765976790479" lon="12.013618230817043"><ele>476.0</ele><time>2026-04-26T05:12:25Z</time></trkpt><trkpt lat="46.027539050375076" lon="12.013531043371165"><ele>476.0</ele><time>2026-04-26T05:12:26Z</time></trkpt><trkpt lat="46.027413958405404" lon="12.013437433429132"><ele>476.0</ele><time>2026-04-26T05:12:27Z</time></trkpt><trkpt lat="46.02729081320637" lon="12.01334525522626"><ele>476.0</ele><time>2026-04-26T05:12:28Z</time></trkpt><trkpt lat="46.02717105536561" lon="12.01325855454076"><ele>471.20000000000005</ele><time>2026-04-26T05:12:29Z</time></trkpt><trkpt lat="46.02705928393232" lon="12.01317618742731"><ele>466.40000000000003</ele><time>2026-04-26T05:12:30Z</time></trkpt><trkpt lat="46.02696147061128" lon="12.013068205742606"><ele>461.6</ele><time>2026-04-26T05:12:31Z</time></trkpt><trkpt lat="46.02687118601459" lon="12.012989974197453"><ele>456.8</ele><time>2026-04-26T05:12:32Z</time></trkpt><trkpt lat="46.026797208790846" lon="12.012932288206098"><ele>452.0</ele><time>2026-04-26T05:12:33Z</time></trkpt><trkpt lat="46.02671247607261" lon="12.012905825008056"><ele>452.8</ele><time>2026-04-26T05:12:34Z</time></trkpt><trkpt lat="46.02662434820279" lon="12.012921717633793"><ele>453.6</ele><time>2026-04-26T05:12:35Z</time></trkpt><trkpt lat="46.02652110578146" lon="12.012909665517949"><ele>454.40000000000003</ele><time>2026-04-26T05:12:36Z</time></trkpt><trkpt lat="46.02642686619538" lon="12.012940010805506"><ele>455.20000000000005</ele><time>2026-04-26T05:12:37Z</time></trkpt><trkpt lat="46.02633945729214" lon="12.01293773114947"><ele>456.0</ele><time>2026-04-26T05:12:38Z</time></trkpt><trkpt lat="46.02624906148232" lon="12.01291656530678"><ele>456.0</ele><time>2026-04-26T05:12:39Z</time></trkpt><trkpt lat="46.026178008870055" lon="12.012846341725654"><ele>456.0</ele><time>2026-04-26T05:12:40Z</time></trkpt><trkpt lat="46.02611469735833" lon="12.012747354170202"><ele>456.0</ele><time>2026-04-26T05:12:41Z</time></trkpt><trkpt lat="46.026067314812394" lon="12.012641757614492"><ele>456.0</ele><time>2026-04-26T05:12:42Z</time></trkpt><trkpt lat="46.02601466772204" lon="12.012571296517441"><ele>456.0</ele><time>2026-04-26T05:12:43Z</time></trkpt><trkpt lat="46.02597210706854" lon="12.012478810517262"><ele>456.0</ele><time>2026-04-26T05:12:45Z</time></trkpt><trkpt lat="46.025843327643805" lon="12.012495596418407"><ele>459.4</ele><time>2026-04-26T05:12:45.999Z</time></trkpt><trkpt lat="46.025791153047024" lon="12.012569101263027"><ele>462.8</ele><time>2026-04-26T05:12:47.999Z</time></trkpt><trkpt lat="46.025699215688846" lon="12.012710227106815"><ele>466.19999999999993</ele><time>2026-04-26T05:12:49.999Z</time></trkpt><trkpt lat="46.025637153996406" lon="12.012787087302847"><ele>469.59999999999997</ele><time>2026-04-26T05:12:50.999Z</time></trkpt><trkpt lat="46.02555732661599" lon="12.012835371491041"><ele>473.0</ele><time>2026-04-26T05:12:51.999Z</time></trkpt><trkpt lat="46.025470861187095" lon="12.012817295568178"><ele>473.0</ele><time>2026-04-26T05:12:52.999Z</time></trkpt><trkpt lat="46.025384940831714" lon="12.01276654999101"><ele>472.99999999999994</ele><time>2026-04-26T05:12:53.999Z</time></trkpt><trkpt lat="46.02527888436408" lon="12.01273392612104"><ele>472.99999999999994</ele><time>2026-04-26T05:12:54.999Z</time></trkpt><trkpt lat="46.02517310777452" lon="12.012722583221146"><ele>473.0</ele><time>2026-04-26T05:12:55.999Z</time></trkpt><trkpt lat="46.0250518618159" lon="12.012671448272192"><ele>473.0</ele><time>2026-04-26T05:12:56.999Z</time></trkpt><trkpt lat="46.024977231220994" lon="12.012561756622521"><ele>475.59999999999997</ele><time>2026-04-26T05:12:57.999Z</time></trkpt><trkpt lat="46.02491943941361" lon="12.012450719689994"><ele>478.19999999999993</ele><time>2026-04-26T05:12:58.999Z</time></trkpt><trkpt lat="46.02489302919572" lon="12.012306549985155"><ele>480.8</ele><time>2026-04-26T05:12:59.999Z</time></trkpt><trkpt lat="46.024900230633364" lon="12.012154076961721"><ele>483.4</ele><time>2026-04-26T05:13:00.999Z</time></trkpt><trkpt lat="46.02492169208073" lon="12.012014230041828"><ele>486.0</ele><time>2026-04-26T05:13:01.999Z</time></trkpt><trkpt lat="46.02493382143603" lon="12.011858466868729"><ele>486.0</ele><time>2026-04-26T05:13:02.999Z</time></trkpt><trkpt lat="46.02490916515808" lon="12.011683948655115"><ele>486.0</ele><time>2026-04-26T05:13:03.999Z</time></trkpt><trkpt lat="46.02486196771637" lon="12.011503549781718"><ele>486.0</ele><time>2026-04-26T05:13:04.999Z</time></trkpt><trkpt lat="46.02480322794303" lon="12.01131901226818"><ele>486.0</ele><time>2026-04-26T05:13:05.999Z</time></trkpt><trkpt lat="46.02476380375759" lon="12.011165760089485"><ele>484.3333333333333</ele><time>2026-04-26T05:13:06.999Z</time></trkpt><trkpt lat="46.02473426572656" lon="12.011040777389566"><ele>482.66666666666663</ele><time>2026-04-26T05:13:07.999Z</time></trkpt><trkpt lat="46.024683291850565" lon="12.010950924582447"><ele>481.0</ele><time>2026-04-26T05:13:08.999Z</time></trkpt><trkpt lat="46.024615520257306" lon="12.010909783206808"><ele>479.3333333333333</ele><time>2026-04-26T05:13:09.999Z</time></trkpt><trkpt lat="46.02451657221328" lon="12.010898386303552"><ele>477.66666666666663</ele><time>2026-04-26T05:13:10.999Z</time></trkpt><trkpt lat="46.024413288016525" lon="12.01088519391665"><ele>476.0</ele><time>2026-04-26T05:13:11.999Z</time></trkpt><trkpt lat="46.02432136271075" lon="12.010868409638649"><ele>476.0</ele><time>2026-04-26T05:13:12.999Z</time></trkpt><trkpt lat="46.02423815733241" lon="12.010868703447406"><ele>476.0</ele><time>2026-04-26T05:13:13.999Z</time></trkpt><trkpt lat="46.02413518604488" lon="12.010940596289347"><ele>476.0</ele><time>2026-04-26T05:13:14.999Z</time></trkpt><trkpt lat="46.024036717349134" lon="12.0110543447402"><ele>476.0</ele><time>2026-04-26T05:13:15.999Z</time></trkpt><trkpt lat="46.023938037557976" lon="12.011095256952537"><ele>476.0</ele><time>2026-04-26T05:13:16.999Z</time></trkpt><trkpt lat="46.023857123145625" lon="12.011115592459273"><ele>477.8</ele><time>2026-04-26T05:13:18Z</time></trkpt><trkpt lat="46.02378527505293" lon="12.011096272837152"><ele>479.6</ele><time>2026-04-26T05:13:19Z</time></trkpt><trkpt lat="46.02374204487558" lon="12.0109794632619"><ele>481.4</ele><time>2026-04-26T05:13:20Z</time></trkpt><trkpt lat="46.02371309652579" lon="12.01086882175152"><ele>483.2</ele><time>2026-04-26T05:13:21Z</time></trkpt><trkpt lat="46.023680597845754" lon="12.010726668254636"><ele>485.0</ele><time>2026-04-26T05:13:22Z</time></trkpt><trkpt lat="46.02374626830312" lon="12.01059678694897"><ele>484.99999999999994</ele><time>2026-04-26T05:13:23Z</time></trkpt><trkpt lat="46.0237661204035" lon="12.010465317761438"><ele>485.0</ele><time>2026-04-26T05:13:24Z</time></trkpt><trkpt lat="46.023792878652166" lon="12.010366021651292"><ele>485.0</ele><time>2026-04-26T05:13:25Z</time></trkpt><trkpt lat="46.023777303130146" lon="12.01025108658637"><ele>485.0</ele><time>2026-04-26T05:13:26Z</time></trkpt><trkpt lat="46.023724875458164" lon="12.010157082233983"><ele>484.99999999999994</ele><time>2026-04-26T05:13:27Z</time></trkpt><trkpt lat="46.02362897461118" lon="12.010067027895687"><ele>485.0</ele><time>2026-04-26T05:13:28Z</time></trkpt><trkpt lat="46.023530150003616" lon="12.009978061579698"><ele>484.25</ele><time>2026-04-26T05:13:29Z</time></trkpt><trkpt lat="46.02342985203242" lon="12.009874551813326"><ele>483.5</ele><time>2026-04-26T05:13:30Z</time></trkpt><trkpt lat="46.02333318715685" lon="12.009759494675444"><ele>482.75</ele><time>2026-04-26T05:13:31Z</time></trkpt><trkpt lat="46.02323267650809" lon="12.009644261775138"><ele>482.0</ele><time>2026-04-26T05:13:32Z</time></trkpt><trkpt lat="46.023159355987225" lon="12.00948809316898"><ele>486.5</ele><time>2026-04-26T05:13:33Z</time></trkpt><trkpt lat="46.023078837910695" lon="12.009338531666305"><ele>491.0</ele><time>2026-04-26T05:13:34Z</time></trkpt><trkpt lat="46.02300115225222" lon="12.009175764378327"><ele>495.5</ele><time>2026-04-26T05:13:35Z</time></trkpt><trkpt lat="46.022934863809986" lon="12.008997443486534"><ele>500.0</ele><time>2026-04-26T05:13:36Z</time></trkpt><trkpt lat="46.02289567094029" lon="12.00880165461776"><ele>500.0</ele><time>2026-04-26T05:13:37Z</time></trkpt><trkpt lat="46.02287371824343" lon="12.008596736604757"><ele>500.0</ele><time>2026-04-26T05:13:38Z</time></trkpt><trkpt lat="46.022856494158226" lon="12.00839528538053"><ele>500.0</ele><time>2026-04-26T05:13:39Z</time></trkpt><trkpt lat="46.022823300677246" lon="12.008187102018914"><ele>500.0</ele><time>2026-04-26T05:13:40Z</time></trkpt><trkpt lat="46.02281047522078" lon="12.00797500372354"><ele>501.25</ele><time>2026-04-26T05:13:41Z</time></trkpt><trkpt lat="46.02279053369133" lon="12.007765812088556"><ele>502.5</ele><time>2026-04-26T05:13:42Z</time></trkpt><trkpt lat="46.0227869520546" lon="12.007550817235327"><ele>503.75</ele><time>2026-04-26T05:13:43Z</time></trkpt><trkpt lat="46.0227717905871" lon="12.007348285897958"><ele>505.0</ele><time>2026-04-26T05:13:44Z</time></trkpt><trkpt lat="46.022760632117624" lon="12.007126863794158"><ele>505.5</ele><time>2026-04-26T05:13:45Z</time></trkpt><trkpt lat="46.02275538896443" lon="12.006929975929983"><ele>506.0</ele><time>2026-04-26T05:13:46Z</time></trkpt><trkpt lat="46.022757207734955" lon="12.006763362484172"><ele>506.5</ele><time>2026-04-26T05:13:47Z</time></trkpt><trkpt lat="46.022754315403475" lon="12.00659109595715"><ele>507.0</ele><time>2026-04-26T05:13:48Z</time></trkpt><trkpt lat="46.02277474667988" lon="12.006430943120755"><ele>507.0</ele><time>2026-04-26T05:13:49Z</time></trkpt><trkpt lat="46.022798069622475" lon="12.006287245946526"><ele>507.00000000000006</ele><time>2026-04-26T05:13:50Z</time></trkpt><trkpt lat="46.02281252386319" lon="12.006168861444886"><ele>507.00000000000006</ele><time>2026-04-26T05:13:51Z</time></trkpt><trkpt lat="46.022799939214195" lon="12.006031137547179"><ele>507.0</ele><time>2026-04-26T05:13:52Z</time></trkpt><trkpt lat="46.02274275481314" lon="12.005903297200511"><ele>507.0</ele><time>2026-04-26T05:13:53Z</time></trkpt><trkpt lat="46.0226701447588" lon="12.005778791799276"><ele>508.66666666666663</ele><time>2026-04-26T05:13:54Z</time></trkpt><trkpt lat="46.02257374769906" lon="12.005610938232488"><ele>510.3333333333333</ele><time>2026-04-26T05:13:55Z</time></trkpt><trkpt lat="46.02244275080914" lon="12.005419956772368"><ele>512.0</ele><time>2026-04-26T05:13:56Z</time></trkpt><trkpt lat="46.0223463389071" lon="12.005238631495299"><ele>512.0</ele><time>2026-04-26T05:13:57Z</time></trkpt><trkpt lat="46.02226709633234" lon="12.005108321490185"><ele>512.0</ele><time>2026-04-26T05:13:58Z</time></trkpt><trkpt lat="46.022189172158036" lon="12.004971412952997"><ele>512.0</ele><time>2026-04-26T05:13:59Z</time></trkpt><trkpt lat="46.02211642754054" lon="12.004854841817828"><ele>512.0</ele><time>2026-04-26T05:14:00Z</time></trkpt><trkpt lat="46.0220243246436" lon="12.004746368135729"><ele>512.0</ele><time>2026-04-26T05:14:01Z</time></trkpt><trkpt lat="46.02191048241601" lon="12.004660977479324"><ele>512.0</ele><time>2026-04-26T05:14:02Z</time></trkpt><trkpt lat="46.02179064375625" lon="12.004598426299067"><ele>512.0</ele><time>2026-04-26T05:14:03Z</time></trkpt><trkpt lat="46.02168655234136" lon="12.004523091656157"><ele>512.0</ele><time>2026-04-26T05:14:04Z</time></trkpt><trkpt lat="46.02159132779394" lon="12.004469447944501"><ele>512.0</ele><time>2026-04-26T05:14:05Z</time></trkpt><trkpt lat="46.021497294196664" lon="12.004455724618103"><ele>512.0</ele><time>2026-04-26T05:14:06Z</time></trkpt><trkpt lat="46.02140792969354" lon="12.004447989381315"><ele>512.0</ele><time>2026-04-26T05:14:07Z</time></trkpt><trkpt lat="46.021317297045464" lon="12.004507461603755"><ele>512.0</ele><time>2026-04-26T05:14:08Z</time></trkpt><trkpt lat="46.02120622964818" lon="12.00457606233184"><ele>512.0</ele><time>2026-04-26T05:14:09Z</time></trkpt><trkpt lat="46.02110812781746" lon="12.004648156364084"><ele>512.0</ele><time>2026-04-26T05:14:10Z</time></trkpt><trkpt lat="46.021014992254095" lon="12.00469927204316"><ele>512.0</ele><time>2026-04-26T05:14:11Z</time></trkpt><trkpt lat="46.02092785917697" lon="12.004715156195756"><ele>512.0</ele><time>2026-04-26T05:14:12Z</time></trkpt><trkpt lat="46.02086286132186" lon="12.004626255415522"><ele>512.0</ele><time>2026-04-26T05:14:13Z</time></trkpt><trkpt lat="46.02081839921016" lon="12.004526842632743"><ele>512.0</ele><time>2026-04-26T05:14:14Z</time></trkpt><trkpt lat="46.020739139147835" lon="12.004391996878336"><ele>513.5</ele><time>2026-04-26T05:14:15Z</time></trkpt><trkpt lat="46.02065486660201" lon="12.004272276379888"><ele>515.0</ele><time>2026-04-26T05:14:16Z</time></trkpt><trkpt lat="46.02057288039806" lon="12.004152077485216"><ele>516.5</ele><time>2026-04-26T05:14:17Z</time></trkpt><trkpt lat="46.020473654959254" lon="12.004037521797768"><ele>518.0</ele><time>2026-04-26T05:14:18Z</time></trkpt><trkpt lat="46.02035819754528" lon="12.00392660594873"><ele>518.0</ele><time>2026-04-26T05:14:19Z</time></trkpt><trkpt lat="46.02024830584667" lon="12.003777837323499"><ele>518.0</ele><time>2026-04-26T05:14:20Z</time></trkpt><trkpt lat="46.0201729957791" lon="12.003626906573576"><ele>518.0</ele><time>2026-04-26T05:14:21Z</time></trkpt><trkpt lat="46.020127359620105" lon="12.003436566650112"><ele>518.0</ele><time>2026-04-26T05:14:22Z</time></trkpt><trkpt lat="46.02008726365532" lon="12.00328655744689"><ele>518.8333333333333</ele><time>2026-04-26T05:14:23Z</time></trkpt><trkpt lat="46.02004878105714" lon="12.003154506631876"><ele>519.6666666666666</ele><time>2026-04-26T05:14:24Z</time></trkpt><trkpt lat="46.02000967676637" lon="12.00303094632811"><ele>520.5</ele><time>2026-04-26T05:14:25Z</time></trkpt><trkpt lat="46.019976266233336" lon="12.002924391924113"><ele>521.3333333333334</ele><time>2026-04-26T05:14:26Z</time></trkpt><trkpt lat="46.0199455216613" lon="12.002821762261961"><ele>522.1666666666667</ele><time>2026-04-26T05:14:27Z</time></trkpt><trkpt lat="46.01991840517088" lon="12.002724713329497"><ele>523.0</ele><time>2026-04-26T05:14:28Z</time></trkpt><trkpt lat="46.01989234538301" lon="12.002638306369393"><ele>521.0</ele><time>2026-04-26T05:14:29Z</time></trkpt><trkpt lat="46.01984170265986" lon="12.002494541000516"><ele>519.0</ele><time>2026-04-26T05:14:31Z</time></trkpt><trkpt lat="46.01978207141643" lon="12.002390680252224"><ele>517.0</ele><time>2026-04-26T05:14:33Z</time></trkpt><trkpt lat="46.01970886937005" lon="12.00231831149509"><ele>515.0</ele><time>2026-04-26T05:14:35Z</time></trkpt><trkpt lat="46.0196458078333" lon="12.002270707950697"><ele>513.0</ele><time>2026-04-26T05:14:37Z</time></trkpt><trkpt lat="46.019570141310396" lon="12.002196780619647"><ele>513.0</ele><time>2026-04-26T05:14:40Z</time></trkpt><trkpt lat="46.019514135712605" lon="12.002150713542715"><ele>513.0</ele><time>2026-04-26T05:14:42Z</time></trkpt><trkpt lat="46.01943933531261" lon="12.002080297250876"><ele>513.0</ele><time>2026-04-26T05:14:45Z</time></trkpt><trkpt lat="46.01936084478309" lon="12.002008586747126"><ele>513.0</ele><time>2026-04-26T05:14:47.999Z</time></trkpt><trkpt lat="46.01930596000583" lon="12.001948715927906"><ele>513.0</ele><time>2026-04-26T05:14:49.999Z</time></trkpt><trkpt lat="46.01923008645297" lon="12.00187501092982"><ele>513.0</ele><time>2026-04-26T05:14:51.999Z</time></trkpt><trkpt lat="46.019137381335504" lon="12.001806679515813"><ele>514.0</ele><time>2026-04-26T05:14:53.999Z</time></trkpt><trkpt lat="46.019045288221214" lon="12.001800124285822"><ele>515.0</ele><time>2026-04-26T05:14:55.999Z</time></trkpt><trkpt lat="46.01897533099372" lon="12.00175455263429"><ele>516.0</ele><time>2026-04-26T05:14:57.999Z</time></trkpt><trkpt lat="46.01889859890714" lon="12.001836451289964"><ele>517.0</ele><time>2026-04-26T05:14:59.999Z</time></trkpt><trkpt lat="46.018829264194515" lon="12.001956004553731"><ele>518.0</ele><time>2026-04-26T05:15:01.999Z</time></trkpt><trkpt lat="46.01878336337218" lon="12.002031695937289"><ele>519.0</ele><time>2026-04-26T05:15:02.999Z</time></trkpt><trkpt lat="46.0187217033491" lon="12.002125236343215"><ele>519.0</ele><time>2026-04-26T05:15:03.999Z</time></trkpt><trkpt lat="46.0186303525353" lon="12.002218175938083"><ele>519.0</ele><time>2026-04-26T05:15:04.999Z</time></trkpt><trkpt lat="46.01855022179634" lon="12.002288817110134"><ele>519.0</ele><time>2026-04-26T05:15:05.999Z</time></trkpt><trkpt lat="46.0184651280388" lon="12.002337304801094"><ele>519.0</ele><time>2026-04-26T05:15:06.999Z</time></trkpt><trkpt lat="46.01835122777801" lon="12.002371261694377"><ele>519.0</ele><time>2026-04-26T05:15:07.999Z</time></trkpt><trkpt lat="46.01824848868151" lon="12.002385904910309"><ele>523.3333333333334</ele><time>2026-04-26T05:15:08.999Z</time></trkpt><trkpt lat="46.01814541785348" lon="12.002402424478117"><ele>527.6666666666666</ele><time>2026-04-26T05:15:09.999Z</time></trkpt><trkpt lat="46.01807628789844" lon="12.00247810366804"><ele>532.0</ele><time>2026-04-26T05:15:10.999Z</time></trkpt><trkpt lat="46.01801379663266" lon="12.002543183551275"><ele>536.3333333333333</ele><time>2026-04-26T05:15:11.999Z</time></trkpt><trkpt lat="46.01798352807244" lon="12.002648432209744"><ele>540.6666666666666</ele><time>2026-04-26T05:15:12.999Z</time></trkpt><trkpt lat="46.018002032082514" lon="12.002764705717846"><ele>545.0</ele><time>2026-04-26T05:15:13.999Z</time></trkpt><trkpt lat="46.01803126135479" lon="12.002866880225948"><ele>545.0</ele><time>2026-04-26T05:15:14.999Z</time></trkpt><trkpt lat="46.01809360727547" lon="12.002967354283683"><ele>545.0</ele><time>2026-04-26T05:15:15.999Z</time></trkpt><trkpt lat="46.0181756331091" lon="12.003054536672396"><ele>545.0</ele><time>2026-04-26T05:15:16.999Z</time></trkpt><trkpt lat="46.01826917324047" lon="12.003147150473438"><ele>545.0</ele><time>2026-04-26T05:15:17.999Z</time></trkpt><trkpt lat="46.01837352556215" lon="12.003256443799891"><ele>545.0</ele><time>2026-04-26T05:15:18.999Z</time></trkpt><trkpt lat="46.01849486887357" lon="12.003395246367523"><ele>545.0</ele><time>2026-04-26T05:15:19.999Z</time></trkpt><trkpt lat="46.0186292293452" lon="12.0035236530696"><ele>545.0</ele><time>2026-04-26T05:15:20.999Z</time></trkpt><trkpt lat="46.01876830295209" lon="12.003622906606207"><ele>545.0</ele><time>2026-04-26T05:15:21.999Z</time></trkpt><trkpt lat="46.01888999100147" lon="12.003702851055273"><ele>545.0</ele><time>2026-04-26T05:15:22.999Z</time></trkpt><trkpt lat="46.018985816351574" lon="12.003790358870143"><ele>545.0</ele><time>2026-04-26T05:15:24Z</time></trkpt><trkpt lat="46.01907269087834" lon="12.00383984501282"><ele>545.0</ele><time>2026-04-26T05:15:25Z</time></trkpt><trkpt lat="46.01916452014364" lon="12.003923909567039"><ele>545.0</ele><time>2026-04-26T05:15:26Z</time></trkpt><trkpt lat="46.01923778027116" lon="12.00399713434407"><ele>545.0</ele><time>2026-04-26T05:15:27Z</time></trkpt><trkpt lat="46.019304057414566" lon="12.004052385654896"><ele>544.0</ele><time>2026-04-26T05:15:28Z</time></trkpt><trkpt lat="46.01935558177763" lon="12.004127978979907"><ele>543.0</ele><time>2026-04-26T05:15:29Z</time></trkpt><trkpt lat="46.01939070474517" lon="12.004203569115571"><ele>542.0</ele><time>2026-04-26T05:15:30Z</time></trkpt><trkpt lat="46.01935313288024" lon="12.00432585681283"><ele>541.0</ele><time>2026-04-26T05:15:32Z</time></trkpt><trkpt lat="46.01927692101988" lon="12.00433926215262"><ele>540.0</ele><time>2026-04-26T05:15:33Z</time></trkpt><trkpt lat="46.01922569655049" lon="12.004285714936616"><ele>539.0</ele><time>2026-04-26T05:15:34Z</time></trkpt><trkpt lat="46.01909141344462" lon="12.004307063685461"><ele>544.0</ele><time>2026-04-26T05:15:36Z</time></trkpt><trkpt lat="46.01901452362295" lon="12.004297647014944"><ele>549.0</ele><time>2026-04-26T05:15:37Z</time></trkpt><trkpt lat="46.01892689088667" lon="12.004273300260794"><ele>554.0</ele><time>2026-04-26T05:15:38Z</time></trkpt><trkpt lat="46.018857740553145" lon="12.004267746024542"><ele>559.0</ele><time>2026-04-26T05:15:39Z</time></trkpt><trkpt lat="46.018794634064214" lon="12.004258465647284"><ele>564.0</ele><time>2026-04-26T05:15:40Z</time></trkpt><trkpt lat="46.018690382705124" lon="12.004245357824637"><ele>569.0</ele><time>2026-04-26T05:15:42Z</time></trkpt><trkpt lat="46.018604333021116" lon="12.00428274778295"><ele>569.0</ele><time>2026-04-26T05:15:44Z</time></trkpt><trkpt lat="46.01855121003117" lon="12.004408901590875"><ele>569.0</ele><time>2026-04-26T05:15:46Z</time></trkpt><trkpt lat="46.018594475608616" lon="12.004500706229583"><ele>569.0</ele><time>2026-04-26T05:15:47Z</time></trkpt><trkpt lat="46.01864715627832" lon="12.004553952508529"><ele>569.0</ele><time>2026-04-26T05:15:48Z</time></trkpt><trkpt lat="46.018718937424566" lon="12.004591521668004"><ele>569.0</ele><time>2026-04-26T05:15:49Z</time></trkpt><trkpt lat="46.01877893388673" lon="12.00466356273758"><ele>569.0</ele><time>2026-04-26T05:15:50Z</time></trkpt><trkpt lat="46.018825951011536" lon="12.004754901515378"><ele>569.0</ele><time>2026-04-26T05:15:51Z</time></trkpt><trkpt lat="46.018864247142545" lon="12.004848697536389"><ele>569.0</ele><time>2026-04-26T05:15:52Z</time></trkpt><trkpt lat="46.01890192638527" lon="12.004966496983174"><ele>569.0</ele><time>2026-04-26T05:15:53Z</time></trkpt><trkpt lat="46.01892799883226" lon="12.005098206985028"><ele>569.0</ele><time>2026-04-26T05:15:54Z</time></trkpt><trkpt lat="46.018991629190204" lon="12.005223148970318"><ele>569.0</ele><time>2026-04-26T05:15:55Z</time></trkpt><trkpt lat="46.01907183300932" lon="12.005370015721356"><ele>569.5</ele><time>2026-04-26T05:15:56Z</time></trkpt><trkpt lat="46.01914931431144" lon="12.00554633552545"><ele>570.0</ele><time>2026-04-26T05:15:57Z</time></trkpt><trkpt lat="46.01923070978789" lon="12.005696979866482"><ele>570.5</ele><time>2026-04-26T05:15:58Z</time></trkpt><trkpt lat="46.01929385849283" lon="12.005808960666231"><ele>571.0</ele><time>2026-04-26T05:15:59Z</time></trkpt><trkpt lat="46.0193474918995" lon="12.005917014767734"><ele>574.6</ele><time>2026-04-26T05:16:00Z</time></trkpt><trkpt lat="46.01939031484052" lon="12.006042930239245"><ele>578.2</ele><time>2026-04-26T05:16:01Z</time></trkpt><trkpt lat="46.01942852715759" lon="12.006178238184367"><ele>581.8</ele><time>2026-04-26T05:16:02Z</time></trkpt><trkpt lat="46.019453449587914" lon="12.006316014467437"><ele>585.4</ele><time>2026-04-26T05:16:03Z</time></trkpt><trkpt lat="46.01946796346222" lon="12.006458446742432"><ele>589.0</ele><time>2026-04-26T05:16:04Z</time></trkpt><trkpt lat="46.019476506103636" lon="12.006612326407918"><ele>591.8</ele><time>2026-04-26T05:16:05Z</time></trkpt><trkpt lat="46.01945472185771" lon="12.00676253181189"><ele>594.5999999999999</ele><time>2026-04-26T05:16:06Z</time></trkpt><trkpt lat="46.01942440605728" lon="12.006916467274838"><ele>597.4</ele><time>2026-04-26T05:16:07Z</time></trkpt><trkpt lat="46.0194112403865" lon="12.007062576710437"><ele>600.1999999999999</ele><time>2026-04-26T05:16:08Z</time></trkpt><trkpt lat="46.01938814457854" lon="12.007184567768647"><ele>603.0</ele><time>2026-04-26T05:16:09Z</time></trkpt><trkpt lat="46.019365552112355" lon="12.007284967726685"><ele>603.0</ele><time>2026-04-26T05:16:10Z</time></trkpt><trkpt lat="46.019322533513744" lon="12.007415358307139"><ele>603.0</ele><time>2026-04-26T05:16:11Z</time></trkpt><trkpt lat="46.01931746044186" lon="12.007546667020522"><ele>603.0</ele><time>2026-04-26T05:16:12Z</time></trkpt><trkpt lat="46.019336573942624" lon="12.007690970167694"><ele>603.0</ele><time>2026-04-26T05:16:13Z</time></trkpt><trkpt lat="46.01935706637839" lon="12.007823070694876"><ele>603.0</ele><time>2026-04-26T05:16:14Z</time></trkpt><trkpt lat="46.019371239466984" lon="12.007938434718039"><ele>604.5</ele><time>2026-04-26T05:16:15Z</time></trkpt><trkpt lat="46.019368617422195" lon="12.00804503482841"><ele>606.0</ele><time>2026-04-26T05:16:16Z</time></trkpt><trkpt lat="46.019344194002706" lon="12.00815127025868"><ele>607.5</ele><time>2026-04-26T05:16:17Z</time></trkpt><trkpt lat="46.01930658827233" lon="12.008260731454463"><ele>609.0</ele><time>2026-04-26T05:16:18Z</time></trkpt><trkpt lat="46.019253993448096" lon="12.008374431336511"><ele>610.5</ele><time>2026-04-26T05:16:19Z</time></trkpt><trkpt lat="46.019189665910076" lon="12.008486432187619"><ele>612.0</ele><time>2026-04-26T05:16:20Z</time></trkpt><trkpt lat="46.01916008931171" lon="12.00861782952229"><ele>613.1666666666666</ele><time>2026-04-26T05:16:21Z</time></trkpt><trkpt lat="46.01915472592082" lon="12.008749683654926"><ele>614.3333333333334</ele><time>2026-04-26T05:16:22Z</time></trkpt><trkpt lat="46.01915080596302" lon="12.008875472251805"><ele>615.5</ele><time>2026-04-26T05:16:23Z</time></trkpt><trkpt lat="46.01914395922799" lon="12.008997525700767"><ele>616.6666666666667</ele><time>2026-04-26T05:16:24Z</time></trkpt><trkpt lat="46.01912751660672" lon="12.00911371071726"><ele>617.8333333333334</ele><time>2026-04-26T05:16:25Z</time></trkpt><trkpt lat="46.01909756562802" lon="12.009220902085943"><ele>619.0</ele><time>2026-04-26T05:16:26Z</time></trkpt><trkpt lat="46.019063661237574" lon="12.009327290487713"><ele>623.3333333333334</ele><time>2026-04-26T05:16:27Z</time></trkpt><trkpt lat="46.019006846221245" lon="12.009412299965842"><ele>627.6666666666667</ele><time>2026-04-26T05:16:28Z</time></trkpt><trkpt lat="46.018929221290726" lon="12.009468939148732"><ele>632.0</ele><time>2026-04-26T05:16:29Z</time></trkpt><trkpt lat="46.0188608020303" lon="12.009457439855787"><ele>636.3333333333334</ele><time>2026-04-26T05:16:30Z</time></trkpt><trkpt lat="46.01879701900195" lon="12.009442487840735"><ele>640.6666666666666</ele><time>2026-04-26T05:16:31Z</time></trkpt><trkpt lat="46.01872938268386" lon="12.009407189598491"><ele>645.0</ele><time>2026-04-26T05:16:32Z</time></trkpt><trkpt lat="46.01865151085164" lon="12.009368917578445"><ele>645.0</ele><time>2026-04-26T05:16:33Z</time></trkpt><trkpt lat="46.018565875502915" lon="12.009354330414995"><ele>645.0</ele><time>2026-04-26T05:16:34Z</time></trkpt><trkpt lat="46.018476904002284" lon="12.009296823894829"><ele>645.0</ele><time>2026-04-26T05:16:35Z</time></trkpt><trkpt lat="46.01837735573541" lon="12.009264208003371"><ele>645.0</ele><time>2026-04-26T05:16:36Z</time></trkpt><trkpt lat="46.018285883917784" lon="12.009232902896017"><ele>645.0</ele><time>2026-04-26T05:16:37Z</time></trkpt><trkpt lat="46.01819058546788" lon="12.00919320271336"><ele>648.0</ele><time>2026-04-26T05:16:38Z</time></trkpt><trkpt lat="46.018091602447086" lon="12.009143863965278"><ele>651.0</ele><time>2026-04-26T05:16:39Z</time></trkpt><trkpt lat="46.017995924169824" lon="12.009088849091308"><ele>654.0</ele><time>2026-04-26T05:16:40Z</time></trkpt><trkpt lat="46.017878484175995" lon="12.009025101300749"><ele>657.0</ele><time>2026-04-26T05:16:41Z</time></trkpt><trkpt lat="46.017782182328965" lon="12.008978814917437"><ele>660.0</ele><time>2026-04-26T05:16:42Z</time></trkpt><trkpt lat="46.0177072750308" lon="12.00891954606717"><ele>660.0</ele><time>2026-04-26T05:16:43Z</time></trkpt><trkpt lat="46.017624452899135" lon="12.00885300672202"><ele>660.0</ele><time>2026-04-26T05:16:43.999Z</time></trkpt><trkpt lat="46.01752717170295" lon="12.008812713861564"><ele>660.0</ele><time>2026-04-26T05:16:44.999Z</time></trkpt><trkpt lat="46.017438905598304" lon="12.008797953279327"><ele>660.0</ele><time>2026-04-26T05:16:45.999Z</time></trkpt><trkpt lat="46.017350220626106" lon="12.008801379035685"><ele>660.0</ele><time>2026-04-26T05:16:46.999Z</time></trkpt><trkpt lat="46.01728433547574" lon="12.008852732356207"><ele>660.0</ele><time>2026-04-26T05:16:47.999Z</time></trkpt><trkpt lat="46.01720913808327" lon="12.008863091764479"><ele>664.2</ele><time>2026-04-26T05:16:48.999Z</time></trkpt><trkpt lat="46.01713758753968" lon="12.008990568131221"><ele>668.4</ele><time>2026-04-26T05:16:49.999Z</time></trkpt><trkpt lat="46.01706200146726" lon="12.009056863333626"><ele>672.5999999999999</ele><time>2026-04-26T05:16:50.999Z</time></trkpt><trkpt lat="46.01700077167118" lon="12.009089084519811"><ele>676.8</ele><time>2026-04-26T05:16:51.999Z</time></trkpt><trkpt lat="46.0169444191307" lon="12.009177911388745"><ele>681.0</ele><time>2026-04-26T05:16:52.999Z</time></trkpt><trkpt lat="46.01679066892565" lon="12.009288107462378"><ele>681.0</ele><time>2026-04-26T05:16:54.999Z</time></trkpt><trkpt lat="46.01671285101077" lon="12.009313855905523"><ele>681.0</ele><time>2026-04-26T05:16:55.999Z</time></trkpt><trkpt lat="46.016637651700464" lon="12.009345124420136"><ele>681.0</ele><time>2026-04-26T05:16:56.999Z</time></trkpt><trkpt lat="46.01656225406666" lon="12.00934950835029"><ele>681.0</ele><time>2026-04-26T05:16:57.999Z</time></trkpt><trkpt lat="46.01647729698641" lon="12.009377144784972"><ele>681.0</ele><time>2026-04-26T05:16:58.999Z</time></trkpt><trkpt lat="46.01638088017886" lon="12.00940745862047"><ele>681.0</ele><time>2026-04-26T05:16:59.999Z</time></trkpt><trkpt lat="46.01629781810336" lon="12.009426746343907"><ele>686.3333333333334</ele><time>2026-04-26T05:17:00.999Z</time></trkpt><trkpt lat="46.016229798038154" lon="12.009438993092092"><ele>691.6666666666666</ele><time>2026-04-26T05:17:01.999Z</time></trkpt><trkpt lat="46.01612025542976" lon="12.009428712434893"><ele>697.0</ele><time>2026-04-26T05:17:03.999Z</time></trkpt><trkpt lat="46.0160687340608" lon="12.009359044843352"><ele>702.3333333333333</ele><time>2026-04-26T05:17:05.999Z</time></trkpt><trkpt lat="46.01605112868571" lon="12.009234622032887"><ele>707.6666666666666</ele><time>2026-04-26T05:17:07.999Z</time></trkpt><trkpt lat="46.01610943804052" lon="12.009115434854278"><ele>713.0</ele><time>2026-04-26T05:17:09.999Z</time></trkpt><trkpt lat="46.016179854532986" lon="12.008958655614784"><ele>713.0</ele><time>2026-04-26T05:17:11.999Z</time></trkpt><trkpt lat="46.016231149477456" lon="12.008729660093946"><ele>713.0</ele><time>2026-04-26T05:17:13.999Z</time></trkpt><trkpt lat="46.016232959101835" lon="12.008607068147052"><ele>713.0</ele><time>2026-04-26T05:17:14.999Z</time></trkpt><trkpt lat="46.01621446742131" lon="12.008509616314688"><ele>713.0</ele><time>2026-04-26T05:17:15.999Z</time></trkpt><trkpt lat="46.016111272429896" lon="12.008489128728652"><ele>713.0</ele><time>2026-04-26T05:17:16.999Z</time></trkpt><trkpt lat="46.01605724070496" lon="12.0083843679721"><ele>713.0</ele><time>2026-04-26T05:17:17.999Z</time></trkpt><trkpt lat="46.016001346005766" lon="12.008336300208269"><ele>713.0</ele><time>2026-04-26T05:17:18.999Z</time></trkpt><trkpt lat="46.0159416154455" lon="12.008295126551593"><ele>713.0</ele><time>2026-04-26T05:17:19.999Z</time></trkpt><trkpt lat="46.01585311434113" lon="12.008253559435499"><ele>713.0</ele><time>2026-04-26T05:17:20.999Z</time></trkpt><trkpt lat="46.015784666960144" lon="12.008181531253586"><ele>713.0</ele><time>2026-04-26T05:17:21.999Z</time></trkpt><trkpt lat="46.01570325948406" lon="12.00811939658593"><ele>713.0</ele><time>2026-04-26T05:17:22.999Z</time></trkpt><trkpt lat="46.01563059912527" lon="12.008056095400992"><ele>716.2</ele><time>2026-04-26T05:17:23.999Z</time></trkpt><trkpt lat="46.01556567210977" lon="12.008000333721947"><ele>719.4</ele><time>2026-04-26T05:17:24.999Z</time></trkpt><trkpt lat="46.01548769876823" lon="12.007933084443419"><ele>722.6</ele><time>2026-04-26T05:17:25.999Z</time></trkpt><trkpt lat="46.01540948399046" lon="12.007865626757415"><ele>725.8000000000001</ele><time>2026-04-26T05:17:26.999Z</time></trkpt><trkpt lat="46.01533575201134" lon="12.00779795002125"><ele>729.0</ele><time>2026-04-26T05:17:27.999Z</time></trkpt><trkpt lat="46.01524712139204" lon="12.007711956567082"><ele>729.0</ele><time>2026-04-26T05:17:28.999Z</time></trkpt><trkpt lat="46.015163406775535" lon="12.007667685097276"><ele>729.0</ele><time>2026-04-26T05:17:30Z</time></trkpt><trkpt lat="46.015087375956" lon="12.007667487991112"><ele>729.0</ele><time>2026-04-26T05:17:31Z</time></trkpt><trkpt lat="46.0149895273576" lon="12.007748696334627"><ele>729.0</ele><time>2026-04-26T05:17:32Z</time></trkpt><trkpt lat="46.01492310067347" lon="12.007854824268598"><ele>729.0</ele><time>2026-04-26T05:17:33Z</time></trkpt><trkpt lat="46.01487300307318" lon="12.007953652154233"><ele>733.0</ele><time>2026-04-26T05:17:34Z</time></trkpt><trkpt lat="46.01479580227828" lon="12.008065101814443"><ele>737.0</ele><time>2026-04-26T05:17:35Z</time></trkpt><trkpt lat="46.014716885438055" lon="12.008236396957438"><ele>741.0</ele><time>2026-04-26T05:17:36Z</time></trkpt><trkpt lat="46.014667867974396" lon="12.00835363308614"><ele>745.0</ele><time>2026-04-26T05:17:37Z</time></trkpt><trkpt lat="46.01461324055992" lon="12.008457148880765"><ele>749.0</ele><time>2026-04-26T05:17:38Z</time></trkpt><trkpt lat="46.01456291773668" lon="12.008578069774705"><ele>750.1666666666666</ele><time>2026-04-26T05:17:39Z</time></trkpt><trkpt lat="46.014510793792724" lon="12.00867337078456"><ele>751.3333333333333</ele><time>2026-04-26T05:17:40Z</time></trkpt><trkpt lat="46.014474128341206" lon="12.008799909650001"><ele>752.5</ele><time>2026-04-26T05:17:41Z</time></trkpt><trkpt lat="46.01444261216115" lon="12.008933156430533"><ele>753.6666666666666</ele><time>2026-04-26T05:17:42Z</time></trkpt><trkpt lat="46.01442216773267" lon="12.00904373358588"><ele>754.8333333333334</ele><time>2026-04-26T05:17:43Z</time></trkpt><trkpt lat="46.01437869197305" lon="12.009143441531565"><ele>756.0</ele><time>2026-04-26T05:17:44Z</time></trkpt><trkpt lat="46.014332275866984" lon="12.009271526770632"><ele>757.0</ele><time>2026-04-26T05:17:45Z</time></trkpt><trkpt lat="46.01429138057089" lon="12.009374429983914"><ele>758.0</ele><time>2026-04-26T05:17:46Z</time></trkpt><trkpt lat="46.01424943166554" lon="12.009503456201424"><ele>759.0</ele><time>2026-04-26T05:17:47Z</time></trkpt><trkpt lat="46.01419415609126" lon="12.009590999442635"><ele>760.0</ele><time>2026-04-26T05:17:48Z</time></trkpt><trkpt lat="46.01412760981349" lon="12.009677351668708"><ele>761.0</ele><time>2026-04-26T05:17:49Z</time></trkpt><trkpt lat="46.0140598741664" lon="12.009746134789792"><ele>762.0</ele><time>2026-04-26T05:17:50Z</time></trkpt><trkpt lat="46.01399072286043" lon="12.009819757797835"><ele>764.6666666666666</ele><time>2026-04-26T05:17:51Z</time></trkpt><trkpt lat="46.013933404464794" lon="12.009906705740708"><ele>767.3333333333333</ele><time>2026-04-26T05:17:52Z</time></trkpt><trkpt lat="46.01385318617847" lon="12.009963632794513"><ele>770.0</ele><time>2026-04-26T05:17:53Z</time></trkpt><trkpt lat="46.01379284321488" lon="12.010048179616895"><ele>772.6666666666666</ele><time>2026-04-26T05:17:54Z</time></trkpt><trkpt lat="46.013738593490906" lon="12.010123607916661"><ele>775.3333333333333</ele><time>2026-04-26T05:17:55Z</time></trkpt><trkpt lat="46.013679700665016" lon="12.01020946605476"><ele>778.0</ele><time>2026-04-26T05:17:56Z</time></trkpt><trkpt lat="46.01361392256157" lon="12.010295710804389"><ele>778.4</ele><time>2026-04-26T05:17:57Z</time></trkpt><trkpt lat="46.01358430627756" lon="12.010417919771877"><ele>778.8</ele><time>2026-04-26T05:17:58Z</time></trkpt><trkpt lat="46.01354492481592" lon="12.010529947599238"><ele>779.2</ele><time>2026-04-26T05:17:59Z</time></trkpt><trkpt lat="46.013508196579544" lon="12.010640797179791"><ele>779.6</ele><time>2026-04-26T05:18:00Z</time></trkpt><trkpt lat="46.01347857261653" lon="12.010766462743753"><ele>780.0</ele><time>2026-04-26T05:18:01Z</time></trkpt><trkpt lat="46.01345209566165" lon="12.010912453712237"><ele>781.2</ele><time>2026-04-26T05:18:02Z</time></trkpt><trkpt lat="46.01341421571511" lon="12.011048206632191"><ele>782.4</ele><time>2026-04-26T05:18:03Z</time></trkpt><trkpt lat="46.01335648538489" lon="12.011163631303937"><ele>783.5999999999999</ele><time>2026-04-26T05:18:04Z</time></trkpt><trkpt lat="46.013320414805165" lon="12.011294061048282"><ele>784.8</ele><time>2026-04-26T05:18:05Z</time></trkpt><trkpt lat="46.01326845245932" lon="12.011390380885661"><ele>786.0</ele><time>2026-04-26T05:18:06Z</time></trkpt><trkpt lat="46.01322524529515" lon="12.011481921671257"><ele>791.0</ele><time>2026-04-26T05:18:07Z</time></trkpt><trkpt lat="46.01317264725325" lon="12.011568771599363"><ele>796.0</ele><time>2026-04-26T05:18:08Z</time></trkpt><trkpt lat="46.01312183776368" lon="12.01164907549477"><ele>801.0</ele><time>2026-04-26T05:18:09Z</time></trkpt><trkpt lat="46.01308194614258" lon="12.01172914691429"><ele>806.0</ele><time>2026-04-26T05:18:10Z</time></trkpt><trkpt lat="46.01302960352324" lon="12.011782057296212"><ele>811.0</ele><time>2026-04-26T05:18:11Z</time></trkpt><trkpt lat="46.012961634540325" lon="12.01191922648696"><ele>816.0</ele><time>2026-04-26T05:18:14Z</time></trkpt><trkpt lat="46.01288072576819" lon="12.012023969087734"><ele>817.1666666666666</ele><time>2026-04-26T05:18:16Z</time></trkpt><trkpt lat="46.01282931561273" lon="12.012118027229262"><ele>818.3333333333333</ele><time>2026-04-26T05:18:17Z</time></trkpt><trkpt lat="46.01278184341833" lon="12.012242065043283"><ele>819.5</ele><time>2026-04-26T05:18:19Z</time></trkpt><trkpt lat="46.01273379703602" lon="12.012308902677063"><ele>820.6666666666666</ele><time>2026-04-26T05:18:20Z</time></trkpt><trkpt lat="46.012685246776556" lon="12.012407534923296"><ele>821.8333333333333</ele><time>2026-04-26T05:18:21Z</time></trkpt><trkpt lat="46.012615950281194" lon="12.012543013097167"><ele>823.0</ele><time>2026-04-26T05:18:23Z</time></trkpt><trkpt lat="46.0125297358943" lon="12.012695209165123"><ele>828.3333333333333</ele><time>2026-04-26T05:18:25Z</time></trkpt><trkpt lat="46.012485018646345" lon="12.012772759125342"><ele>833.6666666666666</ele><time>2026-04-26T05:18:26Z</time></trkpt><trkpt lat="46.012451652205364" lon="12.012856434559067"><ele>839.0</ele><time>2026-04-26T05:18:27Z</time></trkpt><trkpt lat="46.012401854763496" lon="12.012946703629426"><ele>844.3333333333333</ele><time>2026-04-26T05:18:28Z</time></trkpt><trkpt lat="46.01233653194861" lon="12.013056323100095"><ele>849.6666666666666</ele><time>2026-04-26T05:18:30Z</time></trkpt><trkpt lat="46.012272029495534" lon="12.013131068411205"><ele>855.0</ele><time>2026-04-26T05:18:31Z</time></trkpt><trkpt lat="46.0122112801328" lon="12.013215107743282"><ele>855.0</ele><time>2026-04-26T05:18:32Z</time></trkpt><trkpt lat="46.01215521635343" lon="12.013294973885785"><ele>855.0</ele><time>2026-04-26T05:18:33Z</time></trkpt><trkpt lat="46.012066240249524" lon="12.0134110828498"><ele>855.0</ele><time>2026-04-26T05:18:34Z</time></trkpt><trkpt lat="46.01201112547371" lon="12.013507870213283"><ele>855.0</ele><time>2026-04-26T05:18:35Z</time></trkpt><trkpt lat="46.011947589121796" lon="12.013587293981425"><ele>855.0</ele><time>2026-04-26T05:18:36Z</time></trkpt><trkpt lat="46.011878572525994" lon="12.013658409918653"><ele>855.2</ele><time>2026-04-26T05:18:37Z</time></trkpt><trkpt lat="46.011813264549765" lon="12.013754340634266"><ele>855.4</ele><time>2026-04-26T05:18:38Z</time></trkpt><trkpt lat="46.01175668425565" lon="12.0138465230094"><ele>855.5999999999999</ele><time>2026-04-26T05:18:39Z</time></trkpt><trkpt lat="46.011701657403414" lon="12.013962495644579"><ele>855.8</ele><time>2026-04-26T05:18:40Z</time></trkpt><trkpt lat="46.01166234542913" lon="12.014098212025845"><ele>856.0</ele><time>2026-04-26T05:18:41Z</time></trkpt><trkpt lat="46.01164867714061" lon="12.014234976301431"><ele>861.5999999999999</ele><time>2026-04-26T05:18:42Z</time></trkpt><trkpt lat="46.01161901414443" lon="12.014375893776105"><ele>867.1999999999999</ele><time>2026-04-26T05:18:43Z</time></trkpt><trkpt lat="46.01158880219415" lon="12.014538228224648"><ele>872.8000000000001</ele><time>2026-04-26T05:18:44Z</time></trkpt><trkpt lat="46.01153998042671" lon="12.014655987109242"><ele>878.4000000000001</ele><time>2026-04-26T05:18:45Z</time></trkpt><trkpt lat="46.011491923219594" lon="12.014767086325058"><ele>884.0</ele><time>2026-04-26T05:18:47Z</time></trkpt><trkpt lat="46.01142149176799" lon="12.014835635872744"><ele>884.0</ele><time>2026-04-26T05:18:50Z</time></trkpt><trkpt lat="46.011348875292306" lon="12.014869246342096"><ele>884.0000000000001</ele><time>2026-04-26T05:18:52Z</time></trkpt><trkpt lat="46.01124211373062" lon="12.014811073248385"><ele>884.0000000000001</ele><time>2026-04-26T05:18:53.999Z</time></trkpt><trkpt lat="46.01117236971205" lon="12.01473721628544"><ele>884.0</ele><time>2026-04-26T05:18:55.999Z</time></trkpt><trkpt lat="46.011062188590955" lon="12.014685179557524"><ele>884.0</ele><time>2026-04-26T05:18:57.999Z</time></trkpt><trkpt lat="46.01095578440154" lon="12.01460020459037"><ele>884.0</ele><time>2026-04-26T05:18:59.999Z</time></trkpt><trkpt lat="46.010861180054874" lon="12.014503882856362"><ele>884.0</ele><time>2026-04-26T05:19:01.999Z</time></trkpt><trkpt lat="46.01076948874813" lon="12.014435709230895"><ele>884.0</ele><time>2026-04-26T05:19:03.999Z</time></trkpt><trkpt lat="46.010663352059126" lon="12.014383015405473"><ele>884.0</ele><time>2026-04-26T05:19:05.999Z</time></trkpt><trkpt lat="46.01054916570566" lon="12.01429240571571"><ele>889.0</ele><time>2026-04-26T05:19:07.999Z</time></trkpt><trkpt lat="46.01046544430405" lon="12.014188158735902"><ele>894.0000000000001</ele><time>2026-04-26T05:19:09.999Z</time></trkpt><trkpt lat="46.01039921516921" lon="12.014105629166012"><ele>899.0000000000001</ele><time>2026-04-26T05:19:11.999Z</time></trkpt><trkpt lat="46.01031724220927" lon="12.014082695030801"><ele>904.0</ele><time>2026-04-26T05:19:13.999Z</time></trkpt><trkpt lat="46.01025456280288" lon="12.013959158364436"><ele>909.0</ele><time>2026-04-26T05:19:15.999Z</time></trkpt><trkpt lat="46.01020184887519" lon="12.01381841446431"><ele>909.75</ele><time>2026-04-26T05:19:17.999Z</time></trkpt><trkpt lat="46.01022881174428" lon="12.013587011993964"><ele>910.5</ele><time>2026-04-26T05:19:19.999Z</time></trkpt><trkpt lat="46.0101913741318" lon="12.013412026942119"><ele>911.25</ele><time>2026-04-26T05:19:21.999Z</time></trkpt><trkpt lat="46.01015711913765" lon="12.013253965022729"><ele>912.0</ele><time>2026-04-26T05:19:23.999Z</time></trkpt><trkpt lat="46.01012946499404" lon="12.013135759395633"><ele>912.0</ele><time>2026-04-26T05:19:25.999Z</time></trkpt><trkpt lat="46.01009487327206" lon="12.013057990095097"><ele>912.0</ele><time>2026-04-26T05:19:28.999Z</time></trkpt><trkpt lat="46.010101053224105" lon="12.013215979732502"><ele>912.0</ele><time>2026-04-26T05:19:30.999Z</time></trkpt><trkpt lat="46.010097612330014" lon="12.01330826901391"><ele>912.0</ele><time>2026-04-26T05:19:31.999Z</time></trkpt><trkpt lat="46.0100922662478" lon="12.013440782167418"><ele>912.0</ele><time>2026-04-26T05:19:33.999Z</time></trkpt><trkpt lat="46.01008826297909" lon="12.013556870778826"><ele>912.0</ele><time>2026-04-26T05:19:36Z</time></trkpt><trkpt lat="46.009724681560556" lon="12.013528633920085"><ele>915.6666666666666</ele><time>2026-04-26T05:19:38Z</time></trkpt><trkpt lat="46.0096340441819" lon="12.01347090928197"><ele>919.3333333333333</ele><time>2026-04-26T05:19:40Z</time></trkpt><trkpt lat="46.00956859107196" lon="12.01337959659843"><ele>923.0</ele><time>2026-04-26T05:19:42Z</time></trkpt><trkpt lat="46.00951847624354" lon="12.013232760962362"><ele>926.6666666666666</ele><time>2026-04-26T05:19:44Z</time></trkpt><trkpt lat="46.009493857240756" lon="12.013143687784623"><ele>930.3333333333333</ele><time>2026-04-26T05:19:45Z</time></trkpt><trkpt lat="46.009465741015624" lon="12.01305950260495"><ele>934.0</ele><time>2026-04-26T05:19:46Z</time></trkpt><trkpt lat="46.009399518731136" lon="12.01291122935538"><ele>933.9999999999999</ele><time>2026-04-26T05:19:48Z</time></trkpt><trkpt lat="46.00932999010416" lon="12.012790928991791"><ele>934.0</ele><time>2026-04-26T05:19:50Z</time></trkpt><trkpt lat="46.00926944161645" lon="12.01270000737706"><ele>934.0</ele><time>2026-04-26T05:19:52Z</time></trkpt><trkpt lat="46.00919665633976" lon="12.012640259657962"><ele>934.0</ele><time>2026-04-26T05:19:55Z</time></trkpt><trkpt lat="46.00914201846681" lon="12.012569317548794"><ele>933.9999999999999</ele><time>2026-04-26T05:19:57Z</time></trkpt><trkpt lat="46.009103992898304" lon="12.012473254929873"><ele>934.0</ele><time>2026-04-26T05:19:59Z</time></trkpt><trkpt lat="46.009052011225386" lon="12.012384877944957"><ele>938.6</ele><time>2026-04-26T05:20:00Z</time></trkpt><trkpt lat="46.008984013217805" lon="12.012250228806604"><ele>943.2</ele><time>2026-04-26T05:20:02Z</time></trkpt><trkpt lat="46.008915485662584" lon="12.01215706887795"><ele>947.8000000000001</ele><time>2026-04-26T05:20:04Z</time></trkpt><trkpt lat="46.00888449238838" lon="12.012076918801922"><ele>952.4000000000001</ele><time>2026-04-26T05:20:05Z</time></trkpt><trkpt lat="46.00883760683703" lon="12.011990996957861"><ele>957.0</ele><time>2026-04-26T05:20:08Z</time></trkpt><trkpt lat="46.008779846195885" lon="12.01186098175531"><ele>957.0</ele><time>2026-04-26T05:20:14Z</time></trkpt><trkpt lat="46.00868137371259" lon="12.011824926168911"><ele>957.0</ele><time>2026-04-26T05:20:16Z</time></trkpt><trkpt lat="46.008582582370956" lon="12.011797175906255"><ele>957.0</ele><time>2026-04-26T05:20:18Z</time></trkpt><trkpt lat="46.00848820064258" lon="12.011753287993145"><ele>957.0</ele><time>2026-04-26T05:20:22Z</time></trkpt><trkpt lat="46.00843451628531" lon="12.0116627273634"><ele>957.0</ele><time>2026-04-26T05:20:24Z</time></trkpt><trkpt lat="46.00835203278877" lon="12.011646905549584"><ele>957.0</ele><time>2026-04-26T05:20:27Z</time></trkpt><trkpt lat="46.008335496822816" lon="12.011818479537661"><ele>957.0</ele><time>2026-04-26T05:20:30Z</time></trkpt><trkpt lat="46.00835389907204" lon="12.011965632114201"><ele>957.0</ele><time>2026-04-26T05:20:32Z</time></trkpt><trkpt lat="46.008394511246095" lon="12.012057844486664"><ele>957.0</ele><time>2026-04-26T05:20:34Z</time></trkpt><trkpt lat="46.00842275381284" lon="12.012181402707608"><ele>957.0</ele><time>2026-04-26T05:20:36Z</time></trkpt><trkpt lat="46.00845939760768" lon="12.01230842633608"><ele>957.0</ele><time>2026-04-26T05:20:38Z</time></trkpt><trkpt lat="46.00845497003846" lon="12.012416714045822"><ele>957.0</ele><time>2026-04-26T05:20:40Z</time></trkpt><trkpt lat="46.00850166308255" lon="12.01249867735929"><ele>957.0</ele><time>2026-04-26T05:20:42Z</time></trkpt><trkpt lat="46.00853633037911" lon="12.01263731828272"><ele>957.0</ele><time>2026-04-26T05:20:44Z</time></trkpt><trkpt lat="46.008521810108896" lon="12.01277219704269"><ele>957.0</ele><time>2026-04-26T05:20:46Z</time></trkpt><trkpt lat="46.008496947436896" lon="12.012903180869941"><ele>957.0</ele><time>2026-04-26T05:20:48Z</time></trkpt><trkpt lat="46.00844683562371" lon="12.013062340053331"><ele>959.2</ele><time>2026-04-26T05:20:50Z</time></trkpt><trkpt lat="46.00845665662601" lon="12.013221788485724"><ele>961.4000000000001</ele><time>2026-04-26T05:20:52Z</time></trkpt><trkpt lat="46.00846681140224" lon="12.013357631702075"><ele>963.5999999999999</ele><time>2026-04-26T05:20:54Z</time></trkpt><trkpt lat="46.00845272669195" lon="12.013496503356942"><ele>965.8</ele><time>2026-04-26T05:20:56Z</time></trkpt><trkpt lat="46.008467502997874" lon="12.013653241754687"><ele>968.0</ele><time>2026-04-26T05:20:58Z</time></trkpt><trkpt lat="46.008463308003314" lon="12.013805717170394"><ele>969.3333333333334</ele><time>2026-04-26T05:21:00Z</time></trkpt><trkpt lat="46.00846982756955" lon="12.013945860577294"><ele>970.6666666666667</ele><time>2026-04-26T05:21:01.999Z</time></trkpt><trkpt lat="46.00844547689779" lon="12.014030462182957"><ele>972.0</ele><time>2026-04-26T05:21:03.999Z</time></trkpt><trkpt lat="46.00837068547352" lon="12.014045736141982"><ele>973.3333333333333</ele><time>2026-04-26T05:21:07.999Z</time></trkpt><trkpt lat="46.0083269424308" lon="12.01394641467283"><ele>974.6666666666666</ele><time>2026-04-26T05:21:10.999Z</time></trkpt><trkpt lat="46.00828675798756" lon="12.013829906648887"><ele>976.0</ele><time>2026-04-26T05:21:12.999Z</time></trkpt><trkpt lat="46.00821672738882" lon="12.013741035247628"><ele>979.0</ele><time>2026-04-26T05:21:14.999Z</time></trkpt><trkpt lat="46.00815130352634" lon="12.01363950713065"><ele>981.9999999999999</ele><time>2026-04-26T05:21:16.999Z</time></trkpt><trkpt lat="46.008050645469496" lon="12.013545314367498"><ele>984.9999999999999</ele><time>2026-04-26T05:21:18.999Z</time></trkpt><trkpt lat="46.007991638935835" lon="12.01344594182928"><ele>988.0</ele><time>2026-04-26T05:21:20.999Z</time></trkpt><trkpt lat="46.00792669105464" lon="12.013368072473469"><ele>991.0</ele><time>2026-04-26T05:21:22.999Z</time></trkpt><trkpt lat="46.00786434973507" lon="12.013270893333532"><ele>990.9999999999999</ele><time>2026-04-26T05:21:24.999Z</time></trkpt><trkpt lat="46.00780276713337" lon="12.013239881759196"><ele>991.0</ele><time>2026-04-26T05:21:25.999Z</time></trkpt><trkpt lat="46.00773448385192" lon="12.013172686123204"><ele>991.0</ele><time>2026-04-26T05:21:27.999Z</time></trkpt><trkpt lat="46.00767340665218" lon="12.013065128754384"><ele>991.0</ele><time>2026-04-26T05:21:29.999Z</time></trkpt><trkpt lat="46.00761534787708" lon="12.01310685704091"><ele>990.9999999999999</ele><time>2026-04-26T05:21:32.999Z</time></trkpt><trkpt lat="46.00759018173988" lon="12.013274523351255"><ele>991.0</ele><time>2026-04-26T05:21:35.999Z</time></trkpt><trkpt lat="46.00759601577937" lon="12.013407521930889"><ele>993.4</ele><time>2026-04-26T05:21:37.999Z</time></trkpt><trkpt lat="46.007603565072934" lon="12.013561324036635"><ele>995.8</ele><time>2026-04-26T05:21:39.999Z</time></trkpt><trkpt lat="46.00760689357909" lon="12.013729474354694"><ele>998.1999999999999</ele><time>2026-04-26T05:21:42Z</time></trkpt><trkpt lat="46.00759521309346" lon="12.013882257943253"><ele>1000.5999999999999</ele><time>2026-04-26T05:21:44Z</time></trkpt><trkpt lat="46.007565134426635" lon="12.014036977941037"><ele>1003.0</ele><time>2026-04-26T05:21:46Z</time></trkpt><trkpt lat="46.0075409297649" lon="12.014173566290188"><ele>1003.8</ele><time>2026-04-26T05:21:48Z</time></trkpt><trkpt lat="46.00749879190589" lon="12.014299508524683"><ele>1004.5999999999999</ele><time>2026-04-26T05:21:50Z</time></trkpt><trkpt lat="46.0074627040794" lon="12.01439555084504"><ele>1005.4000000000001</ele><time>2026-04-26T05:21:52Z</time></trkpt><trkpt lat="46.00738447861997" lon="12.014474130607795"><ele>1006.2</ele><time>2026-04-26T05:21:54Z</time></trkpt><trkpt lat="46.00729596053806" lon="12.014547951053888"><ele>1007.0</ele><time>2026-04-26T05:21:56Z</time></trkpt><trkpt lat="46.00720767589574" lon="12.014607600440005"><ele>1012.1666666666667</ele><time>2026-04-26T05:21:58Z</time></trkpt><trkpt lat="46.007149264254025" lon="12.014651134311126"><ele>1017.3333333333334</ele><time>2026-04-26T05:21:59Z</time></trkpt><trkpt lat="46.007090891620344" lon="12.014718174176162"><ele>1022.5</ele><time>2026-04-26T05:22:00Z</time></trkpt><trkpt lat="46.0070346756122" lon="12.014778165332087"><ele>1027.6666666666667</ele><time>2026-04-26T05:22:01Z</time></trkpt><trkpt lat="46.00698224672789" lon="12.014885318457054"><ele>1032.8333333333333</ele><time>2026-04-26T05:22:03Z</time></trkpt><trkpt lat="46.00694813138906" lon="12.014980756982874"><ele>1038.0</ele><time>2026-04-26T05:22:04Z</time></trkpt><trkpt lat="46.00688603376437" lon="12.015102470006772"><ele>1038.0</ele><time>2026-04-26T05:22:06Z</time></trkpt><trkpt lat="46.006827728180745" lon="12.015228610532553"><ele>1038.0</ele><time>2026-04-26T05:22:08Z</time></trkpt><trkpt lat="46.00678589076353" lon="12.015360793840259"><ele>1038.0</ele><time>2026-04-26T05:22:10Z</time></trkpt><trkpt lat="46.00671992972584" lon="12.015461049085458"><ele>1038.0</ele><time>2026-04-26T05:22:12Z</time></trkpt><trkpt lat="46.00666755978196" lon="12.015535041897198"><ele>1038.0</ele><time>2026-04-26T05:22:14Z</time></trkpt><trkpt lat="46.006662814720784" lon="12.01565230373943"><ele>1038.0</ele><time>2026-04-26T05:22:18Z</time></trkpt><trkpt lat="46.00673789062185" lon="12.015689402370088"><ele>1038.0</ele><time>2026-04-26T05:22:22Z</time></trkpt><trkpt lat="46.006818431343866" lon="12.015698848485867"><ele>1038.0</ele><time>2026-04-26T05:22:24Z</time></trkpt><trkpt lat="46.00692896013998" lon="12.015771960676219"><ele>1038.0</ele><time>2026-04-26T05:22:26Z</time></trkpt><trkpt lat="46.007028287222404" lon="12.015868572135128"><ele>1038.0</ele><time>2026-04-26T05:22:28Z</time></trkpt><trkpt lat="46.007120109821685" lon="12.015929687919128"><ele>1037.0</ele><time>2026-04-26T05:22:30Z</time></trkpt><trkpt lat="46.00720254865145" lon="12.015968576559327"><ele>1036.0</ele><time>2026-04-26T05:22:32Z</time></trkpt><trkpt lat="46.00728734339604" lon="12.016017365021103"><ele>1035.0</ele><time>2026-04-26T05:22:34Z</time></trkpt><trkpt lat="46.00734860646718" lon="12.016119626696984"><ele>1034.0</ele><time>2026-04-26T05:22:36Z</time></trkpt><trkpt lat="46.00741767266388" lon="12.016221462606476"><ele>1033.0</ele><time>2026-04-26T05:22:38Z</time></trkpt><trkpt lat="46.0074926440816" lon="12.016304372833508"><ele>1031.8</ele><time>2026-04-26T05:22:40Z</time></trkpt><trkpt lat="46.00754537981654" lon="12.016386388146552"><ele>1030.6</ele><time>2026-04-26T05:22:42Z</time></trkpt><trkpt lat="46.00759953084605" lon="12.016494800678634"><ele>1029.4</ele><time>2026-04-26T05:22:44Z</time></trkpt><trkpt lat="46.007648798314904" lon="12.016633485750278"><ele>1028.2</ele><time>2026-04-26T05:22:46Z</time></trkpt><trkpt lat="46.00767103970582" lon="12.0167732933405"><ele>1027.0</ele><time>2026-04-26T05:22:48Z</time></trkpt><trkpt lat="46.00770204471177" lon="12.01691340534947"><ele>1027.0</ele><time>2026-04-26T05:22:50Z</time></trkpt><trkpt lat="46.007731261257184" lon="12.017057734817623"><ele>1027.0</ele><time>2026-04-26T05:22:52Z</time></trkpt><trkpt lat="46.00771936973291" lon="12.017205205368688"><ele>1027.0</ele><time>2026-04-26T05:22:54Z</time></trkpt><trkpt lat="46.0077316591697" lon="12.01732589862253"><ele>1027.0</ele><time>2026-04-26T05:22:56Z</time></trkpt><trkpt lat="46.007738037230915" lon="12.017458647995943"><ele>1027.0</ele><time>2026-04-26T05:22:58Z</time></trkpt><trkpt lat="46.00775338031689" lon="12.017589119018544"><ele>1028.6666666666665</ele><time>2026-04-26T05:23:00Z</time></trkpt><trkpt lat="46.007801734340795" lon="12.017702085349569"><ele>1030.3333333333333</ele><time>2026-04-26T05:23:02Z</time></trkpt><trkpt lat="46.00782769633413" lon="12.017807217849718"><ele>1032.0</ele><time>2026-04-26T05:23:04Z</time></trkpt><trkpt lat="46.00781982570818" lon="12.017904662647245"><ele>1033.6666666666667</ele><time>2026-04-26T05:23:07Z</time></trkpt><trkpt lat="46.00786287077543" lon="12.017824220960183"><ele>1035.3333333333335</ele><time>2026-04-26T05:23:16Z</time></trkpt><trkpt lat="46.007818940081634" lon="12.017717595887376"><ele>1037.0</ele><time>2026-04-26T05:23:17.999Z</time></trkpt><trkpt lat="46.00776127655394" lon="12.017576038784647"><ele>1035.0</ele><time>2026-04-26T05:23:19.999Z</time></trkpt><trkpt lat="46.007721636299074" lon="12.017431686211047"><ele>1033.0</ele><time>2026-04-26T05:23:21.999Z</time></trkpt><trkpt lat="46.00770314993549" lon="12.017300161917248"><ele>1031.0</ele><time>2026-04-26T05:23:23.999Z</time></trkpt><trkpt lat="46.00769396732941" lon="12.01714336276491"><ele>1029.0</ele><time>2026-04-26T05:23:25.999Z</time></trkpt><trkpt lat="46.00768744519929" lon="12.01700870303881"><ele>1027.0</ele><time>2026-04-26T05:23:27.999Z</time></trkpt><trkpt lat="46.007695838901874" lon="12.016883974656059"><ele>1027.0</ele><time>2026-04-26T05:23:29.999Z</time></trkpt><trkpt lat="46.007680249075165" lon="12.016728165577481"><ele>1027.0</ele><time>2026-04-26T05:23:31.999Z</time></trkpt><trkpt lat="46.00764717120745" lon="12.016588397042588"><ele>1027.0</ele><time>2026-04-26T05:23:33.999Z</time></trkpt><trkpt lat="46.00759307392308" lon="12.016476421412017"><ele>1027.0</ele><time>2026-04-26T05:23:35.999Z</time></trkpt><trkpt lat="46.00753781256405" lon="12.016382232105228"><ele>1027.0</ele><time>2026-04-26T05:23:37.999Z</time></trkpt><trkpt lat="46.00747302213944" lon="12.016311092598759"><ele>1028.0</ele><time>2026-04-26T05:23:39.999Z</time></trkpt><trkpt lat="46.00739624970173" lon="12.01619605271387"><ele>1029.0</ele><time>2026-04-26T05:23:41.999Z</time></trkpt><trkpt lat="46.00735085279779" lon="12.016117304116408"><ele>1030.0</ele><time>2026-04-26T05:23:42.999Z</time></trkpt><trkpt lat="46.00729794958908" lon="12.016020077536226"><ele>1031.0</ele><time>2026-04-26T05:23:44.999Z</time></trkpt><trkpt lat="46.00724435894222" lon="12.015949500351875"><ele>1032.0</ele><time>2026-04-26T05:23:46.999Z</time></trkpt><trkpt lat="46.00714574088912" lon="12.015904176691535"><ele>1033.0</ele><time>2026-04-26T05:23:49Z</time></trkpt><trkpt lat="46.00704097004264" lon="12.015869179237653"><ele>1033.8333333333333</ele><time>2026-04-26T05:23:51Z</time></trkpt><trkpt lat="46.00697549455554" lon="12.01581408039809"><ele>1034.6666666666665</ele><time>2026-04-26T05:23:53Z</time></trkpt><trkpt lat="46.00689646196165" lon="12.015741234156613"><ele>1035.5</ele><time>2026-04-26T05:23:55Z</time></trkpt><trkpt lat="46.00681595036199" lon="12.015728772680509"><ele>1036.3333333333333</ele><time>2026-04-26T05:23:57Z</time></trkpt><trkpt lat="46.006723956018185" lon="12.01568583341133"><ele>1037.1666666666667</ele><time>2026-04-26T05:23:59Z</time></trkpt><trkpt lat="46.00666630003286" lon="12.015620251360309"><ele>1038.0</ele><time>2026-04-26T05:24:01Z</time></trkpt><trkpt lat="46.0066868023325" lon="12.015506090234917"><ele>1038.0</ele><time>2026-04-26T05:24:03Z</time></trkpt><trkpt lat="46.006751900134404" lon="12.015347751937115"><ele>1038.0</ele><time>2026-04-26T05:24:05Z</time></trkpt><trkpt lat="46.006798088819345" lon="12.01527199641411"><ele>1038.0</ele><time>2026-04-26T05:24:06Z</time></trkpt><trkpt lat="46.00684656664858" lon="12.015209790653484"><ele>1038.0</ele><time>2026-04-26T05:24:07Z</time></trkpt><trkpt lat="46.00687728612452" lon="12.015071832612948"><ele>1038.0</ele><time>2026-04-26T05:24:09Z</time></trkpt><trkpt lat="46.006958360909856" lon="12.014961650689878"><ele>1038.0</ele><time>2026-04-26T05:24:11Z</time></trkpt><trkpt lat="46.00704937382135" lon="12.014823677773526"><ele>1038.0</ele><time>2026-04-26T05:24:13Z</time></trkpt><trkpt lat="46.00710845213869" lon="12.014710012417606"><ele>1038.0</ele><time>2026-04-26T05:24:15Z</time></trkpt><trkpt lat="46.00715793699088" lon="12.014653244114395"><ele>1038.0</ele><time>2026-04-26T05:24:16Z</time></trkpt><trkpt lat="46.00722018406755" lon="12.014597707135934"><ele>1038.0</ele><time>2026-04-26T05:24:17Z</time></trkpt><trkpt lat="46.00728845720373" lon="12.014554237120397"><ele>1038.0</ele><time>2026-04-26T05:24:18Z</time></trkpt><trkpt lat="46.00737564908427" lon="12.014487100108536"><ele>1038.0</ele><time>2026-04-26T05:24:20Z</time></trkpt><trkpt lat="46.007458264734474" lon="12.014416012604094"><ele>1038.0</ele><time>2026-04-26T05:24:22Z</time></trkpt><trkpt lat="46.007473021885836" lon="12.014313882041492"><ele>1038.0</ele><time>2026-04-26T05:24:25Z</time></trkpt><trkpt lat="46.007483540787916" lon="12.014220853611112"><ele>1038.0</ele><time>2026-04-26T05:24:27Z</time></trkpt><trkpt lat="46.00753897363994" lon="12.014134109109026"><ele>1038.0</ele><time>2026-04-26T05:24:29Z</time></trkpt><trkpt lat="46.00758706022024" lon="12.013957997286234"><ele>1038.0</ele><time>2026-04-26T05:24:31Z</time></trkpt><trkpt lat="46.00759236278645" lon="12.01384565189622"><ele>1032.1666666666667</ele><time>2026-04-26T05:24:32Z</time></trkpt><trkpt lat="46.007593201505756" lon="12.013751524631687"><ele>1026.3333333333333</ele><time>2026-04-26T05:24:33Z</time></trkpt><trkpt lat="46.007588119142426" lon="12.013603777949758"><ele>1020.5</ele><time>2026-04-26T05:24:35Z</time></trkpt><trkpt lat="46.007624454726006" lon="12.013470177585774"><ele>1014.6666666666666</ele><time>2026-04-26T05:24:43Z</time></trkpt><trkpt lat="46.00761966207488" lon="12.013357665037358"><ele>1008.8333333333333</ele><time>2026-04-26T05:24:45Z</time></trkpt><trkpt lat="46.00761213642491" lon="12.01323805530726"><ele>1003.0</ele><time>2026-04-26T05:24:47Z</time></trkpt><trkpt lat="46.0076054616163" lon="12.013105825643052"><ele>1003.0</ele><time>2026-04-26T05:24:49Z</time></trkpt><trkpt lat="46.00768867150164" lon="12.013115806944148"><ele>1003.0</ele><time>2026-04-26T05:24:53Z</time></trkpt><trkpt lat="46.007766438085085" lon="12.013196594538917"><ele>1003.0</ele><time>2026-04-26T05:24:55Z</time></trkpt><trkpt lat="46.00785271141912" lon="12.013288010773739"><ele>1003.0</ele><time>2026-04-26T05:24:57Z</time></trkpt><trkpt lat="46.00793398675011" lon="12.013374296709946"><ele>1003.0</ele><time>2026-04-26T05:24:59Z</time></trkpt><trkpt lat="46.00800079892639" lon="12.013445795813606"><ele>1003.0</ele><time>2026-04-26T05:25:01Z</time></trkpt><trkpt lat="46.008076734978985" lon="12.013548029536855"><ele>1003.0</ele><time>2026-04-26T05:25:03Z</time></trkpt><trkpt lat="46.00816993817213" lon="12.013673282278283"><ele>1003.0</ele><time>2026-04-26T05:25:05Z</time></trkpt><trkpt lat="46.00824762082307" lon="12.013760801524853"><ele>1003.0</ele><time>2026-04-26T05:25:07Z</time></trkpt><trkpt lat="46.00831455215198" lon="12.013880438110656"><ele>1003.0</ele><time>2026-04-26T05:25:09Z</time></trkpt><trkpt lat="46.008348653923775" lon="12.013980353409583"><ele>998.4999999999999</ele><time>2026-04-26T05:25:11Z</time></trkpt><trkpt lat="46.008390591332784" lon="12.014076451056495"><ele>994.0</ele><time>2026-04-26T05:25:14Z</time></trkpt><trkpt lat="46.0084412581079" lon="12.014014126088144"><ele>989.5</ele><time>2026-04-26T05:25:15.999Z</time></trkpt><trkpt lat="46.008443477854875" lon="12.013875863881443"><ele>985.0</ele><time>2026-04-26T05:25:17.999Z</time></trkpt><trkpt lat="46.00844232131266" lon="12.013781817222993"><ele>980.4999999999999</ele><time>2026-04-26T05:25:18.999Z</time></trkpt><trkpt lat="46.00843443309683" lon="12.01362801431018"><ele>976.0</ele><time>2026-04-26T05:25:20.999Z</time></trkpt><trkpt lat="46.00843595954718" lon="12.01353377622032"><ele>976.0</ele><time>2026-04-26T05:25:21.999Z</time></trkpt><trkpt lat="46.00843201516199" lon="12.013375279266219"><ele>975.9999999999999</ele><time>2026-04-26T05:25:23.999Z</time></trkpt><trkpt lat="46.008443901802515" lon="12.013259910817311"><ele>975.9999999999999</ele><time>2026-04-26T05:25:24.999Z</time></trkpt><trkpt lat="46.00843226673259" lon="12.013097711277197"><ele>976.0</ele><time>2026-04-26T05:25:26.999Z</time></trkpt><trkpt lat="46.008448097330806" lon="12.012917116479732"><ele>976.0</ele><time>2026-04-26T05:25:28.999Z</time></trkpt><trkpt lat="46.00846057805884" lon="12.012820041270293"><ele>974.6666666666666</ele><time>2026-04-26T05:25:29.999Z</time></trkpt><trkpt lat="46.008480048460655" lon="12.012642951073765"><ele>973.3333333333333</ele><time>2026-04-26T05:25:31.999Z</time></trkpt><trkpt lat="46.008497891848194" lon="12.012554270691934"><ele>972.0</ele><time>2026-04-26T05:25:32.999Z</time></trkpt><trkpt lat="46.00850882218945" lon="12.012462514569833"><ele>970.6666666666667</ele><time>2026-04-26T05:25:33.999Z</time></trkpt><trkpt lat="46.00847562472658" lon="12.012286718380597"><ele>969.3333333333334</ele><time>2026-04-26T05:25:35.999Z</time></trkpt><trkpt lat="46.00843976425387" lon="12.012203560613731"><ele>968.0</ele><time>2026-04-26T05:25:36.999Z</time></trkpt><trkpt lat="46.00840829750765" lon="12.012115006416304"><ele>965.8</ele><time>2026-04-26T05:25:37.999Z</time></trkpt><trkpt lat="46.00836082433196" lon="12.011969781388318"><ele>963.5999999999999</ele><time>2026-04-26T05:25:39.999Z</time></trkpt><trkpt lat="46.00832876823931" lon="12.011829719120147"><ele>961.4000000000001</ele><time>2026-04-26T05:25:41.999Z</time></trkpt><trkpt lat="46.00834070212762" lon="12.011700675057376"><ele>959.2</ele><time>2026-04-26T05:25:43.999Z</time></trkpt><trkpt lat="46.008359098272464" lon="12.011606644399874"><ele>957.0</ele><time>2026-04-26T05:25:45.999Z</time></trkpt><trkpt lat="46.008301507527726" lon="12.011474117259125"><ele>954.5</ele><time>2026-04-26T05:25:48.999Z</time></trkpt><trkpt lat="46.008241394233124" lon="12.011382296503983"><ele>952.0</ele><time>2026-04-26T05:25:50.999Z</time></trkpt><trkpt lat="46.00811728762423" lon="12.011332309073723"><ele>949.5</ele><time>2026-04-26T05:25:52.999Z</time></trkpt><trkpt lat="46.00802446258581" lon="12.011326226844623"><ele>947.0</ele><time>2026-04-26T05:25:54Z</time></trkpt><trkpt lat="46.00787908321824" lon="12.01129113369848"><ele>947.0</ele><time>2026-04-26T05:25:56Z</time></trkpt><trkpt lat="46.00775981539348" lon="12.011256090189356"><ele>947.0</ele><time>2026-04-26T05:25:57Z</time></trkpt><trkpt lat="46.007665976006145" lon="12.011225299084646"><ele>947.0</ele><time>2026-04-26T05:25:58Z</time></trkpt><trkpt lat="46.00758855954653" lon="12.011218689948413"><ele>947.0</ele><time>2026-04-26T05:25:59Z</time></trkpt><trkpt lat="46.00751384691746" lon="12.011209474882456"><ele>947.0</ele><time>2026-04-26T05:26:00Z</time></trkpt><trkpt lat="46.00742589651618" lon="12.011207932098293"><ele>948.2</ele><time>2026-04-26T05:26:01Z</time></trkpt><trkpt lat="46.007332620520934" lon="12.011221357547512"><ele>949.4000000000001</ele><time>2026-04-26T05:26:02Z</time></trkpt><trkpt lat="46.00723509407105" lon="12.011226439122648"><ele>950.5999999999999</ele><time>2026-04-26T05:26:03Z</time></trkpt><trkpt lat="46.00715297212266" lon="12.011222654392741"><ele>951.8</ele><time>2026-04-26T05:26:04Z</time></trkpt><trkpt lat="46.00705310728721" lon="12.011250894026984"><ele>953.0</ele><time>2026-04-26T05:26:05Z</time></trkpt><trkpt lat="46.00693167730311" lon="12.011255110051877"><ele>953.0000000000001</ele><time>2026-04-26T05:26:07Z</time></trkpt><trkpt lat="46.006865572665205" lon="12.011261554237388"><ele>953.0</ele><time>2026-04-26T05:26:08Z</time></trkpt><trkpt lat="46.00681109035793" lon="12.011307021016117"><ele>953.0</ele><time>2026-04-26T05:26:09Z</time></trkpt><trkpt lat="46.006752773842265" lon="12.011373445982219"><ele>953.0</ele><time>2026-04-26T05:26:10Z</time></trkpt><trkpt lat="46.00661690982223" lon="12.011472650689623"><ele>953.0000000000001</ele><time>2026-04-26T05:26:12Z</time></trkpt><trkpt lat="46.006540845614346" lon="12.01150414186506"><ele>953.0</ele><time>2026-04-26T05:26:13Z</time></trkpt><trkpt lat="46.00642530181845" lon="12.011566249474201"><ele>958.2</ele><time>2026-04-26T05:26:15Z</time></trkpt><trkpt lat="46.00630876953466" lon="12.011521617226357"><ele>963.4</ele><time>2026-04-26T05:26:17Z</time></trkpt><trkpt lat="46.00625057450227" lon="12.011461656201366"><ele>968.6000000000001</ele><time>2026-04-26T05:26:18Z</time></trkpt><trkpt lat="46.00619921551643" lon="12.011358494412711"><ele>973.8000000000001</ele><time>2026-04-26T05:26:19Z</time></trkpt><trkpt lat="46.00618940572892" lon="12.011248316449315"><ele>979.0</ele><time>2026-04-26T05:26:20Z</time></trkpt><trkpt lat="46.006146302723096" lon="12.011106641347494"><ele>979.0</ele><time>2026-04-26T05:26:22Z</time></trkpt><trkpt lat="46.00609575684115" lon="12.011027534621261"><ele>979.0</ele><time>2026-04-26T05:26:24Z</time></trkpt><trkpt lat="46.00605274145386" lon="12.010948332794863"><ele>979.0</ele><time>2026-04-26T05:26:26Z</time></trkpt><trkpt lat="46.005988483219326" lon="12.010876641885934"><ele>979.0</ele><time>2026-04-26T05:26:30Z</time></trkpt><trkpt lat="46.00592951342371" lon="12.010838768404842"><ele>979.0</ele><time>2026-04-26T05:26:34Z</time></trkpt><trkpt lat="46.00587662805885" lon="12.010785735637912"><ele>979.0</ele><time>2026-04-26T05:26:36Z</time></trkpt><trkpt lat="46.00580282037" lon="12.010711612381314"><ele>979.0</ele><time>2026-04-26T05:26:38Z</time></trkpt><trkpt lat="46.005771032023084" lon="12.01063009926071"><ele>977.4999999999999</ele><time>2026-04-26T05:26:39Z</time></trkpt><trkpt lat="46.00570308801355" lon="12.010585083791469"><ele>976.0</ele><time>2026-04-26T05:26:40Z</time></trkpt><trkpt lat="46.00564408032482" lon="12.010544163107292"><ele>974.5</ele><time>2026-04-26T05:26:41Z</time></trkpt><trkpt lat="46.005577062009024" lon="12.010508070728317"><ele>973.0</ele><time>2026-04-26T05:26:42Z</time></trkpt><trkpt lat="46.00548893618834" lon="12.01047387289821"><ele>971.4999999999999</ele><time>2026-04-26T05:26:43Z</time></trkpt><trkpt lat="46.005396892540986" lon="12.010460913616962"><ele>970.0</ele><time>2026-04-26T05:26:44Z</time></trkpt><trkpt lat="46.00529238407404" lon="12.010430196802732"><ele>970.0</ele><time>2026-04-26T05:26:45Z</time></trkpt><trkpt lat="46.00519306349035" lon="12.010409952448445"><ele>970.0</ele><time>2026-04-26T05:26:46Z</time></trkpt><trkpt lat="46.00509971767662" lon="12.010382846307563"><ele>970.0</ele><time>2026-04-26T05:26:47Z</time></trkpt><trkpt lat="46.004993670643486" lon="12.010355278764036"><ele>970.0</ele><time>2026-04-26T05:26:48Z</time></trkpt><trkpt lat="46.00489518155609" lon="12.010364463239087"><ele>970.0</ele><time>2026-04-26T05:26:49Z</time></trkpt><trkpt lat="46.00481363924809" lon="12.010359968005744"><ele>971.8333333333333</ele><time>2026-04-26T05:26:50Z</time></trkpt><trkpt lat="46.0047503614758" lon="12.010336016860599"><ele>973.6666666666666</ele><time>2026-04-26T05:26:51Z</time></trkpt><trkpt lat="46.00469295588136" lon="12.010291396907403"><ele>975.5</ele><time>2026-04-26T05:26:52Z</time></trkpt><trkpt lat="46.00458194424288" lon="12.010245508464127"><ele>977.3333333333333</ele><time>2026-04-26T05:26:54Z</time></trkpt><trkpt lat="46.00451189427263" lon="12.010206691678064"><ele>979.1666666666666</ele><time>2026-04-26T05:26:55Z</time></trkpt><trkpt lat="46.00444621119136" lon="12.010182106907491"><ele>981.0</ele><time>2026-04-26T05:26:56Z</time></trkpt><trkpt lat="46.00437456359125" lon="12.010167857817985"><ele>981.0</ele><time>2026-04-26T05:26:57Z</time></trkpt><trkpt lat="46.004279616034616" lon="12.010158214783115"><ele>981.0</ele><time>2026-04-26T05:26:58Z</time></trkpt><trkpt lat="46.00420362092458" lon="12.010155036753039"><ele>981.0</ele><time>2026-04-26T05:26:59Z</time></trkpt><trkpt lat="46.00412507385609" lon="12.010154312895692"><ele>981.0</ele><time>2026-04-26T05:27:00Z</time></trkpt><trkpt lat="46.00405470585142" lon="12.010185701124245"><ele>981.0</ele><time>2026-04-26T05:27:01Z</time></trkpt><trkpt lat="46.00397996708924" lon="12.010203611383966"><ele>981.0</ele><time>2026-04-26T05:27:02Z</time></trkpt><trkpt lat="46.00386835745011" lon="12.01028915986092"><ele>979.1999999999999</ele><time>2026-04-26T05:27:04Z</time></trkpt><trkpt lat="46.00381941375351" lon="12.010360543706224"><ele>977.3999999999999</ele><time>2026-04-26T05:27:05Z</time></trkpt><trkpt lat="46.00376917386201" lon="12.010420089301418"><ele>975.6</ele><time>2026-04-26T05:27:06Z</time></trkpt><trkpt lat="46.00365628327339" lon="12.010507306978788"><ele>973.8</ele><time>2026-04-26T05:27:08Z</time></trkpt><trkpt lat="46.003540344763444" lon="12.010552541976416"><ele>972.0</ele><time>2026-04-26T05:27:10Z</time></trkpt><trkpt lat="46.003444350320414" lon="12.010624380093613"><ele>972.0</ele><time>2026-04-26T05:27:12Z</time></trkpt><trkpt lat="46.00337647846337" lon="12.010770748894723"><ele>972.0</ele><time>2026-04-26T05:27:14Z</time></trkpt><trkpt lat="46.00330397535489" lon="12.010887053489787"><ele>972.0</ele><time>2026-04-26T05:27:16Z</time></trkpt><trkpt lat="46.00322691751132" lon="12.011025046264937"><ele>972.0</ele><time>2026-04-26T05:27:18Z</time></trkpt><trkpt lat="46.00311865345941" lon="12.011058383923322"><ele>976.0</ele><time>2026-04-26T05:27:20Z</time></trkpt><trkpt lat="46.003042237952336" lon="12.011028845681235"><ele>980.0</ele><time>2026-04-26T05:27:21Z</time></trkpt><trkpt lat="46.0029064475891" lon="12.010997995504603"><ele>984.0</ele><time>2026-04-26T05:27:23Z</time></trkpt><trkpt lat="46.00283081080239" lon="12.010985962142227"><ele>988.0</ele><time>2026-04-26T05:27:24Z</time></trkpt><trkpt lat="46.0027357582474" lon="12.010938672878794"><ele>992.0</ele><time>2026-04-26T05:27:26Z</time></trkpt><trkpt lat="46.00266920323327" lon="12.01091017027756"><ele>992.0000000000001</ele><time>2026-04-26T05:27:27.999Z</time></trkpt><trkpt lat="46.00256299166697" lon="12.010864793171105"><ele>992.0</ele><time>2026-04-26T05:27:29.999Z</time></trkpt><trkpt lat="46.002468264376795" lon="12.01083263455899"><ele>992.0</ele><time>2026-04-26T05:27:31.999Z</time></trkpt><trkpt lat="46.00240153356325" lon="12.01079900982436"><ele>992.0</ele><time>2026-04-26T05:27:33.999Z</time></trkpt><trkpt lat="46.00234440301073" lon="12.010840656313711"><ele>992.0000000000001</ele><time>2026-04-26T05:27:35.999Z</time></trkpt><trkpt lat="46.002308785770126" lon="12.01096529233408"><ele>992.0</ele><time>2026-04-26T05:27:37.999Z</time></trkpt><trkpt lat="46.0022822150591" lon="12.011103235744164"><ele>986.6</ele><time>2026-04-26T05:27:39.999Z</time></trkpt><trkpt lat="46.00223121525398" lon="12.011210543918065"><ele>981.2</ele><time>2026-04-26T05:27:40.999Z</time></trkpt><trkpt lat="46.00218884655019" lon="12.011286524348836"><ele>975.8</ele><time>2026-04-26T05:27:41.999Z</time></trkpt><trkpt lat="46.002118414434214" lon="12.011428238054743"><ele>970.4</ele><time>2026-04-26T05:27:43.999Z</time></trkpt><trkpt lat="46.00203626640925" lon="12.011528630606524"><ele>965.0</ele><time>2026-04-26T05:27:45.999Z</time></trkpt><trkpt lat="46.001952403304486" lon="12.01158251791355"><ele>965.0000000000001</ele><time>2026-04-26T05:27:47.999Z</time></trkpt><trkpt lat="46.00186306680493" lon="12.01152770849676"><ele>965.0</ele><time>2026-04-26T05:27:49.999Z</time></trkpt><trkpt lat="46.00177382282775" lon="12.011474027599883"><ele>965.0</ele><time>2026-04-26T05:27:51.999Z</time></trkpt><trkpt lat="46.00169801034172" lon="12.01148019230559"><ele>965.0</ele><time>2026-04-26T05:27:53.999Z</time></trkpt><trkpt lat="46.00165297574173" lon="12.01156877069221"><ele>965.0000000000001</ele><time>2026-04-26T05:27:55.999Z</time></trkpt><trkpt lat="46.001595180907394" lon="12.011667409118102"><ele>965.0</ele><time>2026-04-26T05:27:57.999Z</time></trkpt><trkpt lat="46.00153373626241" lon="12.011811026188685"><ele>965.6</ele><time>2026-04-26T05:28:00Z</time></trkpt><trkpt lat="46.00148135740064" lon="12.011944168836651"><ele>966.2</ele><time>2026-04-26T05:28:02Z</time></trkpt><trkpt lat="46.00140415725393" lon="12.012071853830701"><ele>966.8</ele><time>2026-04-26T05:28:04Z</time></trkpt><trkpt lat="46.0013155780946" lon="12.012196787902845"><ele>967.4</ele><time>2026-04-26T05:28:06Z</time></trkpt><trkpt lat="46.00126443875502" lon="12.012250840353683"><ele>968.0</ele><time>2026-04-26T05:28:07Z</time></trkpt><trkpt lat="46.0012046188671" lon="12.012300353982576"><ele>968.0</ele><time>2026-04-26T05:28:08Z</time></trkpt><trkpt lat="46.001158838046074" lon="12.012375586078193"><ele>968.0</ele><time>2026-04-26T05:28:09Z</time></trkpt><trkpt lat="46.001046383119146" lon="12.012461229729915"><ele>968.0</ele><time>2026-04-26T05:28:11Z</time></trkpt><trkpt lat="46.00098238434157" lon="12.01257828885544"><ele>968.0</ele><time>2026-04-26T05:28:13Z</time></trkpt><trkpt lat="46.000858729187065" lon="12.012647641257217"><ele>968.0</ele><time>2026-04-26T05:28:15Z</time></trkpt><trkpt lat="46.000797020672366" lon="12.012666057257272"><ele>969.1666666666667</ele><time>2026-04-26T05:28:16Z</time></trkpt><trkpt lat="46.00069648433928" lon="12.012647015791574"><ele>970.3333333333334</ele><time>2026-04-26T05:28:18Z</time></trkpt><trkpt lat="46.00067467992275" lon="12.012552147700779"><ele>971.5</ele><time>2026-04-26T05:28:21Z</time></trkpt><trkpt lat="46.00060921442182" lon="12.012440048192767"><ele>972.6666666666667</ele><time>2026-04-26T05:28:23Z</time></trkpt><trkpt lat="46.00057689037381" lon="12.01235028797882"><ele>973.8333333333334</ele><time>2026-04-26T05:29:08Z</time></trkpt><trkpt lat="46.00052271894037" lon="12.012292020808967"><ele>975.0</ele><time>2026-04-26T05:29:11Z</time></trkpt><trkpt lat="46.00048064150127" lon="12.01221869924328"><ele>975.0</ele><time>2026-04-26T05:29:12Z</time></trkpt><trkpt lat="46.000396241856066" lon="12.012157848947757"><ele>975.0</ele><time>2026-04-26T05:29:14Z</time></trkpt><trkpt lat="46.00036493915414" lon="12.012067503327023"><ele>975.0</ele><time>2026-04-26T05:29:16Z</time></trkpt><trkpt lat="46.000285059356806" lon="12.012020735270825"><ele>975.0</ele><time>2026-04-26T05:29:18Z</time></trkpt><trkpt lat="46.00021521587224" lon="12.01202918345208"><ele>975.0</ele><time>2026-04-26T05:29:20Z</time></trkpt><trkpt lat="46.000125836209456" lon="12.01205923829325"><ele>975.0</ele><time>2026-04-26T05:29:22Z</time></trkpt><trkpt lat="46.00002877498464" lon="12.012069692381122"><ele>975.0</ele><time>2026-04-26T05:29:24Z</time></trkpt><trkpt lat="45.999941340364" lon="12.012032916565227"><ele>975.0</ele><time>2026-04-26T05:29:26Z</time></trkpt><trkpt lat="45.9998543376463" lon="12.011924344365655"><ele>975.0</ele><time>2026-04-26T05:29:27.999Z</time></trkpt><trkpt lat="45.99976772787754" lon="12.011857229306777"><ele>975.0</ele><time>2026-04-26T05:29:29.999Z</time></trkpt><trkpt lat="45.9997075327835" lon="12.011826137891251"><ele>975.0</ele><time>2026-04-26T05:29:30.999Z</time></trkpt><trkpt lat="45.99964823218013" lon="12.011772519034595"><ele>975.0</ele><time>2026-04-26T05:29:31.999Z</time></trkpt><trkpt lat="45.99956032650312" lon="12.01171907871224"><ele>968.5</ele><time>2026-04-26T05:29:33.999Z</time></trkpt><trkpt lat="45.999522165949614" lon="12.011624383733443"><ele>962.0</ele><time>2026-04-26T05:29:34.999Z</time></trkpt><trkpt lat="45.999455843324725" lon="12.011558004830539"><ele>955.5</ele><time>2026-04-26T05:29:36.999Z</time></trkpt><trkpt lat="45.99936524219119" lon="12.011495307663303"><ele>949.0</ele><time>2026-04-26T05:29:38.999Z</time></trkpt><trkpt lat="45.99931997820893" lon="12.011396429856081"><ele>942.5</ele><time>2026-04-26T05:29:40.999Z</time></trkpt><trkpt lat="45.999275793685186" lon="12.011292089811898"><ele>936.0</ele><time>2026-04-26T05:29:42.999Z</time></trkpt><trkpt lat="45.99922025747082" lon="12.01117266831875"><ele>936.0</ele><time>2026-04-26T05:29:44.999Z</time></trkpt><trkpt lat="45.99921022476138" lon="12.011031207588688"><ele>936.0</ele><time>2026-04-26T05:29:46.999Z</time></trkpt><trkpt lat="45.99917777685643" lon="12.010885603982846"><ele>936.0</ele><time>2026-04-26T05:29:48.999Z</time></trkpt><trkpt lat="45.99917527473866" lon="12.010755765626092"><ele>936.0</ele><time>2026-04-26T05:29:50.999Z</time></trkpt><trkpt lat="45.99922239924956" lon="12.010666815582058"><ele>936.0</ele><time>2026-04-26T05:29:52.999Z</time></trkpt><trkpt lat="45.99922785341966" lon="12.01056528320647"><ele>936.0</ele><time>2026-04-26T05:29:53.999Z</time></trkpt><trkpt lat="45.99924990019978" lon="12.010395217108474"><ele>929.5999999999999</ele><time>2026-04-26T05:29:55.999Z</time></trkpt><trkpt lat="45.999261266727316" lon="12.01028257442372"><ele>923.1999999999999</ele><time>2026-04-26T05:29:57.999Z</time></trkpt><trkpt lat="45.999270745043596" lon="12.01010804538266"><ele>916.8000000000001</ele><time>2026-04-26T05:29:59.999Z</time></trkpt><trkpt lat="45.99927835762185" lon="12.009939045267894"><ele>910.4000000000001</ele><time>2026-04-26T05:30:01.999Z</time></trkpt><trkpt lat="45.9992690555048" lon="12.009848739935189"><ele>904.0</ele><time>2026-04-26T05:30:02.999Z</time></trkpt><trkpt lat="45.99926261801807" lon="12.009678418080902"><ele>900.0</ele><time>2026-04-26T05:30:04.999Z</time></trkpt><trkpt lat="45.99925500816809" lon="12.009508315111079"><ele>896.0</ele><time>2026-04-26T05:30:07Z</time></trkpt><trkpt lat="45.99923246885021" lon="12.0093212017774"><ele>892.0</ele><time>2026-04-26T05:30:09Z</time></trkpt><trkpt lat="45.99920750798091" lon="12.00915477967265"><ele>888.0</ele><time>2026-04-26T05:30:11Z</time></trkpt><trkpt lat="45.99919497789912" lon="12.008989724889338"><ele>885.6666666666666</ele><time>2026-04-26T05:30:13Z</time></trkpt><trkpt lat="45.99918378964333" lon="12.008891931311096"><ele>883.3333333333333</ele><time>2026-04-26T05:30:14Z</time></trkpt><trkpt lat="45.999132205035586" lon="12.008748421911365"><ele>881.0</ele><time>2026-04-26T05:30:16Z</time></trkpt><trkpt lat="45.999102630699994" lon="12.008661926155527"><ele>878.6666666666666</ele><time>2026-04-26T05:30:17Z</time></trkpt><trkpt lat="45.9990595971407" lon="12.008591946557843"><ele>876.3333333333333</ele><time>2026-04-26T05:30:18Z</time></trkpt><trkpt lat="45.99901095523987" lon="12.008511167955893"><ele>874.0</ele><time>2026-04-26T05:30:19Z</time></trkpt><trkpt lat="45.99894925708791" lon="12.00841842167668"><ele>879.2</ele><time>2026-04-26T05:30:20Z</time></trkpt><trkpt lat="45.99888061938401" lon="12.008344479021131"><ele>884.4000000000001</ele><time>2026-04-26T05:30:21Z</time></trkpt><trkpt lat="45.9987995183061" lon="12.008239179037725"><ele>889.6</ele><time>2026-04-26T05:30:22Z</time></trkpt><trkpt lat="45.99873165624471" lon="12.008127014384561"><ele>894.8</ele><time>2026-04-26T05:30:23Z</time></trkpt><trkpt lat="45.9986716236488" lon="12.00804255064057"><ele>900.0</ele><time>2026-04-26T05:30:24Z</time></trkpt><trkpt lat="45.99860758496192" lon="12.007970459512537"><ele>900.0</ele><time>2026-04-26T05:30:25Z</time></trkpt><trkpt lat="45.998556315055446" lon="12.007904747116187"><ele>900.0</ele><time>2026-04-26T05:30:26Z</time></trkpt><trkpt lat="45.998499850076996" lon="12.007823089529055"><ele>900.0</ele><time>2026-04-26T05:30:27Z</time></trkpt><trkpt lat="45.99845098103683" lon="12.007748751500982"><ele>900.0</ele><time>2026-04-26T05:30:28Z</time></trkpt><trkpt lat="45.9983983307791" lon="12.007683308595013"><ele>900.0</ele><time>2026-04-26T05:30:29Z</time></trkpt><trkpt lat="45.9982971908505" lon="12.007591353027731"><ele>900.0</ele><time>2026-04-26T05:30:31Z</time></trkpt><trkpt lat="45.99824635821664" lon="12.007520199315103"><ele>901.0</ele><time>2026-04-26T05:30:32Z</time></trkpt><trkpt lat="45.99815238427195" lon="12.007432588131454"><ele>902.0</ele><time>2026-04-26T05:30:34Z</time></trkpt><trkpt lat="45.99810104375398" lon="12.00737398168442"><ele>903.0</ele><time>2026-04-26T05:30:35Z</time></trkpt><trkpt lat="45.998031196148894" lon="12.007324786457419"><ele>904.0</ele><time>2026-04-26T05:30:36Z</time></trkpt><trkpt lat="45.99797249323645" lon="12.007269118422023"><ele>905.0</ele><time>2026-04-26T05:30:37Z</time></trkpt><trkpt lat="45.997908889972514" lon="12.007245821769299"><ele>906.0</ele><time>2026-04-26T05:30:38Z</time></trkpt><trkpt lat="45.99784282133564" lon="12.007237994938182"><ele>906.0</ele><time>2026-04-26T05:30:39Z</time></trkpt><trkpt lat="45.99777956555905" lon="12.007249630374284"><ele>906.0</ele><time>2026-04-26T05:30:40Z</time></trkpt><trkpt lat="45.99771637635409" lon="12.007272685227898"><ele>906.0</ele><time>2026-04-26T05:30:41Z</time></trkpt><trkpt lat="45.99764890915584" lon="12.007245036611746"><ele>906.0</ele><time>2026-04-26T05:30:42Z</time></trkpt><trkpt lat="45.997597589057136" lon="12.007189351144914"><ele>906.0</ele><time>2026-04-26T05:30:43Z</time></trkpt><trkpt lat="45.9975618948149" lon="12.00711395753427"><ele>906.0</ele><time>2026-04-26T05:30:44Z</time></trkpt><trkpt lat="45.99750655601002" lon="12.006948358516295"><ele>908.4</ele><time>2026-04-26T05:30:46Z</time></trkpt><trkpt lat="45.997469964708394" lon="12.006776158625444"><ele>910.8</ele><time>2026-04-26T05:30:48Z</time></trkpt><trkpt lat="45.99744056265725" lon="12.006620092427159"><ele>913.1999999999999</ele><time>2026-04-26T05:30:50Z</time></trkpt><trkpt lat="45.997461494022076" lon="12.00648982781478"><ele>915.5999999999999</ele><time>2026-04-26T05:30:51Z</time></trkpt><trkpt lat="45.99751704655415" lon="12.00636242963235"><ele>918.0</ele><time>2026-04-26T05:30:52Z</time></trkpt><trkpt lat="45.99758837928846" lon="12.006261493758874"><ele>918.0</ele><time>2026-04-26T05:30:53Z</time></trkpt><trkpt lat="45.99764481185534" lon="12.00616042751229"><ele>918.0</ele><time>2026-04-26T05:30:54Z</time></trkpt><trkpt lat="45.99769390301433" lon="12.00605793812343"><ele>918.0</ele><time>2026-04-26T05:30:55Z</time></trkpt><trkpt lat="45.997760280014525" lon="12.005967471361137"><ele>918.0</ele><time>2026-04-26T05:30:56Z</time></trkpt><trkpt lat="45.99783153020588" lon="12.005890125768104"><ele>918.0</ele><time>2026-04-26T05:30:57Z</time></trkpt><trkpt lat="45.997891313288456" lon="12.005831097013084"><ele>918.0</ele><time>2026-04-26T05:30:58Z</time></trkpt><trkpt lat="45.99797510955216" lon="12.005768138014137"><ele>915.3333333333334</ele><time>2026-04-26T05:30:59Z</time></trkpt><trkpt lat="45.99807918193534" lon="12.005746566391744"><ele>912.6666666666667</ele><time>2026-04-26T05:31:00Z</time></trkpt><trkpt lat="45.99814497308878" lon="12.005719192401429"><ele>910.0</ele><time>2026-04-26T05:31:01Z</time></trkpt><trkpt lat="45.99822806898394" lon="12.00567257906957"><ele>907.3333333333334</ele><time>2026-04-26T05:31:02Z</time></trkpt><trkpt lat="45.99829114294394" lon="12.00563535209834"><ele>904.6666666666667</ele><time>2026-04-26T05:31:03Z</time></trkpt><trkpt lat="45.998355182636146" lon="12.00560169389155"><ele>902.0</ele><time>2026-04-26T05:31:04Z</time></trkpt><trkpt lat="45.998470602613935" lon="12.005537613249006"><ele>902.0</ele><time>2026-04-26T05:31:06Z</time></trkpt><trkpt lat="45.99856531474567" lon="12.005492515756563"><ele>902.0</ele><time>2026-04-26T05:31:08Z</time></trkpt><trkpt lat="45.99865963996173" lon="12.005406454744445"><ele>902.0</ele><time>2026-04-26T05:31:10Z</time></trkpt><trkpt lat="45.998754879279275" lon="12.005359175646648"><ele>902.0</ele><time>2026-04-26T05:31:12Z</time></trkpt><trkpt lat="45.99883130617212" lon="12.005268494478068"><ele>902.0</ele><time>2026-04-26T05:31:14Z</time></trkpt><trkpt lat="45.99890205573884" lon="12.005145049973379"><ele>902.0</ele><time>2026-04-26T05:31:16Z</time></trkpt><trkpt lat="45.998924954991644" lon="12.005004244752927"><ele>902.0</ele><time>2026-04-26T05:31:18Z</time></trkpt><trkpt lat="45.9989078009866" lon="12.00485165538716"><ele>902.0</ele><time>2026-04-26T05:31:20Z</time></trkpt><trkpt lat="45.99889213438817" lon="12.004744319708568"><ele>902.0</ele><time>2026-04-26T05:31:21Z</time></trkpt><trkpt lat="45.9988568940379" lon="12.004614022667637"><ele>902.0</ele><time>2026-04-26T05:31:22Z</time></trkpt><trkpt lat="45.99883094124411" lon="12.004463883731344"><ele>902.5</ele><time>2026-04-26T05:31:23Z</time></trkpt><trkpt lat="45.99880160017793" lon="12.004311135518575"><ele>903.0</ele><time>2026-04-26T05:31:24Z</time></trkpt><trkpt lat="45.99878638747506" lon="12.00414428622445"><ele>903.5</ele><time>2026-04-26T05:31:25Z</time></trkpt><trkpt lat="45.99877741729262" lon="12.003966419880436"><ele>904.0</ele><time>2026-04-26T05:31:26Z</time></trkpt><trkpt lat="45.99879394580093" lon="12.003809768392358"><ele>903.9999999999999</ele><time>2026-04-26T05:31:27Z</time></trkpt><trkpt lat="45.99881378417612" lon="12.003670778322999"><ele>904.0</ele><time>2026-04-26T05:31:28Z</time></trkpt><trkpt lat="45.998815621833074" lon="12.003570312213713"><ele>904.0</ele><time>2026-04-26T05:31:29Z</time></trkpt><trkpt lat="45.99881484434888" lon="12.003460802648702"><ele>904.0</ele><time>2026-04-26T05:31:30Z</time></trkpt><trkpt lat="45.99880063899092" lon="12.003354999415222"><ele>903.9999999999999</ele><time>2026-04-26T05:31:31Z</time></trkpt><trkpt lat="45.9987858894445" lon="12.00323482264978"><ele>904.0</ele><time>2026-04-26T05:31:32Z</time></trkpt><trkpt lat="45.99875387370873" lon="12.003130719115612"><ele>903.5</ele><time>2026-04-26T05:31:33Z</time></trkpt><trkpt lat="45.99868238434757" lon="12.002915577166958"><ele>903.0</ele><time>2026-04-26T05:31:34.999Z</time></trkpt><trkpt lat="45.99864022998356" lon="12.002784731848818"><ele>902.5</ele><time>2026-04-26T05:31:35.999Z</time></trkpt><trkpt lat="45.99860903970625" lon="12.00265032470913"><ele>902.0</ele><time>2026-04-26T05:31:36.999Z</time></trkpt><trkpt lat="45.99858584476892" lon="12.002531310092763"><ele>901.0</ele><time>2026-04-26T05:31:37.999Z</time></trkpt><trkpt lat="45.99855565068036" lon="12.00241181572003"><ele>900.0</ele><time>2026-04-26T05:31:38.999Z</time></trkpt><trkpt lat="45.99848804755317" lon="12.002262655145406"><ele>899.0</ele><time>2026-04-26T05:31:39.999Z</time></trkpt><trkpt lat="45.998455172784745" lon="12.002166399467972"><ele>898.0</ele><time>2026-04-26T05:31:40.999Z</time></trkpt><trkpt lat="45.99839038277636" lon="12.002052947917916"><ele>897.0</ele><time>2026-04-26T05:31:42.999Z</time></trkpt><trkpt lat="45.99832651702317" lon="12.001970673101654"><ele>903.0</ele><time>2026-04-26T05:31:43.999Z</time></trkpt><trkpt lat="45.99822487948993" lon="12.001824867259552"><ele>909.0</ele><time>2026-04-26T05:31:45.999Z</time></trkpt><trkpt lat="45.998164294991305" lon="12.001769540623226"><ele>915.0</ele><time>2026-04-26T05:31:46.999Z</time></trkpt><trkpt lat="45.998101833126086" lon="12.001732418482499"><ele>921.0</ele><time>2026-04-26T05:31:47.999Z</time></trkpt><trkpt lat="45.99804225520261" lon="12.001700797762451"><ele>927.0</ele><time>2026-04-26T05:31:48.999Z</time></trkpt><trkpt lat="45.997981082331414" lon="12.00167870716568"><ele>933.0</ele><time>2026-04-26T05:31:49.999Z</time></trkpt><trkpt lat="45.997873988292895" lon="12.001682994524003"><ele>933.0</ele><time>2026-04-26T05:31:51.999Z</time></trkpt><trkpt lat="45.99783222585574" lon="12.001779222196008"><ele>933.0</ele><time>2026-04-26T05:35:15.999Z</time></trkpt><trkpt lat="45.99780429215979" lon="12.00186902065742"><ele>933.0</ele><time>2026-04-26T05:35:16.999Z</time></trkpt><trkpt lat="45.99788583056524" lon="12.001994925077536"><ele>933.0</ele><time>2026-04-26T05:35:18.999Z</time></trkpt><trkpt lat="45.997947867367884" lon="12.002043994565327"><ele>933.0</ele><time>2026-04-26T05:35:19.999Z</time></trkpt><trkpt lat="45.99800014423435" lon="12.002108596995381"><ele>933.0</ele><time>2026-04-26T05:35:20.999Z</time></trkpt><trkpt lat="45.99807619159037" lon="12.002271155089847"><ele>933.0</ele><time>2026-04-26T05:35:22.999Z</time></trkpt><trkpt lat="45.99809938655895" lon="12.002356568541723"><ele>933.0</ele><time>2026-04-26T05:35:23.999Z</time></trkpt><trkpt lat="45.99807896128849" lon="12.002528454400645"><ele>933.0</ele><time>2026-04-26T05:35:25.999Z</time></trkpt><trkpt lat="45.99800616714759" lon="12.002603967908524"><ele>933.0</ele><time>2026-04-26T05:35:27.999Z</time></trkpt><trkpt lat="45.99793331067454" lon="12.00260775448"><ele>933.0</ele><time>2026-04-26T05:35:28.999Z</time></trkpt><trkpt lat="45.99785647489132" lon="12.00259175571509"><ele>933.0</ele><time>2026-04-26T05:35:29.999Z</time></trkpt><trkpt lat="45.99776520506566" lon="12.002518124970097"><ele>933.0</ele><time>2026-04-26T05:35:31.999Z</time></trkpt><trkpt lat="45.99770161764364" lon="12.002499394896802"><ele>933.0</ele><time>2026-04-26T05:35:32.999Z</time></trkpt><trkpt lat="45.99758083002743" lon="12.002458810070483"><ele>933.0</ele><time>2026-04-26T05:35:33.999Z</time></trkpt><trkpt lat="45.9974785793032" lon="12.002443297061532"><ele>933.0</ele><time>2026-04-26T05:35:34.999Z</time></trkpt><trkpt lat="45.997380925356225" lon="12.002430044705324"><ele>933.0</ele><time>2026-04-26T05:35:35.999Z</time></trkpt><trkpt lat="45.99728668536996" lon="12.0024179315721"><ele>935.4</ele><time>2026-04-26T05:35:36.999Z</time></trkpt><trkpt lat="45.99718919772997" lon="12.002416418149949"><ele>937.8</ele><time>2026-04-26T05:35:37.999Z</time></trkpt><trkpt lat="45.99709099673887" lon="12.002441388124005"><ele>940.2</ele><time>2026-04-26T05:35:38.999Z</time></trkpt><trkpt lat="45.99698930268228" lon="12.002473344594105"><ele>942.6</ele><time>2026-04-26T05:35:39.999Z</time></trkpt><trkpt lat="45.996877091627525" lon="12.002498362932629"><ele>945.0</ele><time>2026-04-26T05:35:40.999Z</time></trkpt><trkpt lat="45.99677022297478" lon="12.002528949641405"><ele>949.75</ele><time>2026-04-26T05:35:41.999Z</time></trkpt><trkpt lat="45.996672319625404" lon="12.002587085710033"><ele>954.5</ele><time>2026-04-26T05:35:42.999Z</time></trkpt><trkpt lat="45.99655379433493" lon="12.002687955646794"><ele>959.25</ele><time>2026-04-26T05:35:43.999Z</time></trkpt><trkpt lat="45.99644251945987" lon="12.002765695914308"><ele>964.0</ele><time>2026-04-26T05:35:44.999Z</time></trkpt><trkpt lat="45.996341401860114" lon="12.002781969281553"><ele>967.2</ele><time>2026-04-26T05:35:45.999Z</time></trkpt><trkpt lat="45.99624142183083" lon="12.002785522491829"><ele>970.4000000000001</ele><time>2026-04-26T05:35:46.999Z</time></trkpt><trkpt lat="45.99614432584241" lon="12.00279615092487"><ele>973.6</ele><time>2026-04-26T05:35:47.999Z</time></trkpt><trkpt lat="45.99607627771075" lon="12.00280441111497"><ele>976.8</ele><time>2026-04-26T05:35:48.999Z</time></trkpt><trkpt lat="45.99596872275407" lon="12.002891175548978"><ele>980.0</ele><time>2026-04-26T05:35:50.999Z</time></trkpt><trkpt lat="45.99595548923364" lon="12.003006203273673"><ele>980.0000000000001</ele><time>2026-04-26T05:35:51.999Z</time></trkpt><trkpt lat="45.99601802341678" lon="12.003109910735816"><ele>980.0</ele><time>2026-04-26T05:35:52.999Z</time></trkpt><trkpt lat="45.996034357223486" lon="12.003218453261304"><ele>980.0</ele><time>2026-04-26T05:35:53.999Z</time></trkpt><trkpt lat="45.9960740732616" lon="12.00332110400562"><ele>980.0</ele><time>2026-04-26T05:35:54.999Z</time></trkpt><trkpt lat="45.9960962738244" lon="12.003456506347764"><ele>980.0000000000001</ele><time>2026-04-26T05:35:55.999Z</time></trkpt><trkpt lat="45.99612795974762" lon="12.003562924824779"><ele>980.0</ele><time>2026-04-26T05:35:56.999Z</time></trkpt><trkpt lat="45.996120294078885" lon="12.003702104925866"><ele>981.8</ele><time>2026-04-26T05:35:57.999Z</time></trkpt><trkpt lat="45.996098246923125" lon="12.003847126370408"><ele>983.6</ele><time>2026-04-26T05:35:58.999Z</time></trkpt><trkpt lat="45.99608236064726" lon="12.00397248634451"><ele>985.4000000000001</ele><time>2026-04-26T05:35:59.999Z</time></trkpt><trkpt lat="45.996051507707115" lon="12.00407486991802"><ele>987.2</ele><time>2026-04-26T05:36:00.999Z</time></trkpt><trkpt lat="45.99602177896847" lon="12.004194079338404"><ele>989.0</ele><time>2026-04-26T05:36:01.999Z</time></trkpt><trkpt lat="45.995994779204125" lon="12.004322013186078"><ele>990.6</ele><time>2026-04-26T05:36:02.999Z</time></trkpt><trkpt lat="45.9959677014285" lon="12.00442867310246"><ele>992.2</ele><time>2026-04-26T05:36:03.999Z</time></trkpt><trkpt lat="45.99593111766942" lon="12.004570149711235"><ele>993.8000000000001</ele><time>2026-04-26T05:36:04.999Z</time></trkpt><trkpt lat="45.99588676949568" lon="12.004720568240613"><ele>995.4000000000001</ele><time>2026-04-26T05:36:05.999Z</time></trkpt><trkpt lat="45.995833597031144" lon="12.004884489447607"><ele>997.0</ele><time>2026-04-26T05:36:06.999Z</time></trkpt><trkpt lat="45.99578703047982" lon="12.005050249479035"><ele>1004.0</ele><time>2026-04-26T05:36:07.999Z</time></trkpt><trkpt lat="45.995753989685916" lon="12.00521639629784"><ele>1011.0</ele><time>2026-04-26T05:36:08.999Z</time></trkpt><trkpt lat="45.99571293756708" lon="12.005362282031703"><ele>1018.0</ele><time>2026-04-26T05:36:09.999Z</time></trkpt><trkpt lat="45.995693215201165" lon="12.005479146052846"><ele>1025.0</ele><time>2026-04-26T05:36:10.999Z</time></trkpt><trkpt lat="45.995671526306104" lon="12.005596100647441"><ele>1032.0</ele><time>2026-04-26T05:36:11.999Z</time></trkpt><trkpt lat="45.995640556522" lon="12.005707755497136"><ele>1032.0</ele><time>2026-04-26T05:36:12.999Z</time></trkpt><trkpt lat="45.99559085344176" lon="12.005814881939179"><ele>1032.0</ele><time>2026-04-26T05:36:13.999Z</time></trkpt><trkpt lat="45.995523133294896" lon="12.005875468232853"><ele>1032.0</ele><time>2026-04-26T05:36:14.999Z</time></trkpt><trkpt lat="45.99545521482834" lon="12.005913962263202"><ele>1032.0</ele><time>2026-04-26T05:36:15.999Z</time></trkpt><trkpt lat="45.995388284088435" lon="12.005958155000403"><ele>1032.0</ele><time>2026-04-26T05:36:16.999Z</time></trkpt><trkpt lat="45.9953243562481" lon="12.005993243446962"><ele>1032.0</ele><time>2026-04-26T05:36:17.999Z</time></trkpt><trkpt lat="45.995179332974175" lon="12.006045691642631"><ele>1031.6</ele><time>2026-04-26T05:36:19.999Z</time></trkpt><trkpt lat="45.995084555525864" lon="12.00609295016033"><ele>1031.2</ele><time>2026-04-26T05:36:20.999Z</time></trkpt><trkpt lat="45.99498645896545" lon="12.00615172861002"><ele>1030.8</ele><time>2026-04-26T05:36:21.999Z</time></trkpt><trkpt lat="45.99488689864927" lon="12.006216348719303"><ele>1030.4</ele><time>2026-04-26T05:36:22.999Z</time></trkpt><trkpt lat="45.99479813780475" lon="12.006286388763291"><ele>1030.0</ele><time>2026-04-26T05:36:23.999Z</time></trkpt><trkpt lat="45.99471115689654" lon="12.006370789584992"><ele>1034.5</ele><time>2026-04-26T05:36:25.999Z</time></trkpt><trkpt lat="45.994659398021234" lon="12.006450757773052"><ele>1039.0</ele><time>2026-04-26T05:36:27.999Z</time></trkpt><trkpt lat="45.99463425836192" lon="12.006539968277691"><ele>1043.5</ele><time>2026-04-26T05:36:28.999Z</time></trkpt><trkpt lat="45.9946294954893" lon="12.006653701680646"><ele>1048.0</ele><time>2026-04-26T05:36:29.999Z</time></trkpt><trkpt lat="45.99463501911542" lon="12.006752551847534"><ele>1052.5</ele><time>2026-04-26T05:36:30.999Z</time></trkpt><trkpt lat="45.99465374659145" lon="12.006930810798899"><ele>1057.0</ele><time>2026-04-26T05:36:32.999Z</time></trkpt><trkpt lat="45.99467270246885" lon="12.00701991646164"><ele>1057.0</ele><time>2026-04-26T05:36:33.999Z</time></trkpt><trkpt lat="45.99470300868614" lon="12.007114471980588"><ele>1057.0</ele><time>2026-04-26T05:36:34.999Z</time></trkpt><trkpt lat="45.9947250005613" lon="12.007199863836608"><ele>1057.0</ele><time>2026-04-26T05:36:35.999Z</time></trkpt><trkpt lat="45.99472548272983" lon="12.007294785813002"><ele>1057.0</ele><time>2026-04-26T05:36:37.999Z</time></trkpt><trkpt lat="45.994646736024016" lon="12.00732483793164"><ele>1057.0</ele><time>2026-04-26T05:36:39.999Z</time></trkpt><trkpt lat="45.99458467114468" lon="12.00719994338412"><ele>1057.0</ele><time>2026-04-26T05:36:41.999Z</time></trkpt><trkpt lat="45.99456447669522" lon="12.00708673146349"><ele>1057.0</ele><time>2026-04-26T05:36:42.999Z</time></trkpt><trkpt lat="45.99453218587612" lon="12.006978763691437"><ele>1057.0</ele><time>2026-04-26T05:36:43.999Z</time></trkpt><trkpt lat="45.99448799175518" lon="12.006883863919047"><ele>1057.0</ele><time>2026-04-26T05:36:44.999Z</time></trkpt><trkpt lat="45.99443603329304" lon="12.006787954138526"><ele>1057.0</ele><time>2026-04-26T05:36:45.999Z</time></trkpt><trkpt lat="45.994378721741285" lon="12.00669428305632"><ele>1057.0</ele><time>2026-04-26T05:36:46.999Z</time></trkpt><trkpt lat="45.994322619755955" lon="12.00659031530359"><ele>1057.0</ele><time>2026-04-26T05:36:47.999Z</time></trkpt><trkpt lat="45.99427008543138" lon="12.006480975383125"><ele>1058.4</ele><time>2026-04-26T05:36:48.999Z</time></trkpt><trkpt lat="45.99420655214452" lon="12.0063648148357"><ele>1059.8000000000002</ele><time>2026-04-26T05:36:49.999Z</time></trkpt><trkpt lat="45.99413847567095" lon="12.00625487773268"><ele>1061.2</ele><time>2026-04-26T05:36:50.999Z</time></trkpt><trkpt lat="45.99407491852449" lon="12.006177488335991"><ele>1062.6000000000001</ele><time>2026-04-26T05:36:51.999Z</time></trkpt><trkpt lat="45.9940177857436" lon="12.006032143654423"><ele>1064.0</ele><time>2026-04-26T05:36:52.999Z</time></trkpt><trkpt lat="45.99397915872638" lon="12.005934825150767"><ele>1066.5</ele><time>2026-04-26T05:36:53.999Z</time></trkpt><trkpt lat="45.99394102367163" lon="12.005830490501504"><ele>1069.0</ele><time>2026-04-26T05:36:54.999Z</time></trkpt><trkpt lat="45.99394003193332" lon="12.005704507085689"><ele>1071.5</ele><time>2026-04-26T05:36:55.999Z</time></trkpt><trkpt lat="45.99392108276779" lon="12.005558375563643"><ele>1074.0</ele><time>2026-04-26T05:36:56.999Z</time></trkpt><trkpt lat="45.99397095069895" lon="12.005492976753839"><ele>1076.5</ele><time>2026-04-26T05:36:57.999Z</time></trkpt><trkpt lat="45.99399891106512" lon="12.005380885052"><ele>1079.0</ele><time>2026-04-26T05:36:58.999Z</time></trkpt><trkpt lat="45.993995176233774" lon="12.00528439993375"><ele>1079.0</ele><time>2026-04-26T05:36:59.999Z</time></trkpt><trkpt lat="45.99397119868045" lon="12.005196212365163"><ele>1079.0</ele><time>2026-04-26T05:37:00.999Z</time></trkpt><trkpt lat="45.993935905297896" lon="12.005119996934052"><ele>1079.0</ele><time>2026-04-26T05:37:01.999Z</time></trkpt><trkpt lat="45.99392043682044" lon="12.005028948239042"><ele>1079.0</ele><time>2026-04-26T05:37:03Z</time></trkpt><trkpt lat="45.99385676978921" lon="12.004996668436545"><ele>1079.0</ele><time>2026-04-26T05:37:04Z</time></trkpt><trkpt lat="45.99377843682098" lon="12.004990815947977"><ele>1079.0</ele><time>2026-04-26T05:37:05Z</time></trkpt><trkpt lat="45.99371237374149" lon="12.004975409244066"><ele>1079.0</ele><time>2026-04-26T05:37:06Z</time></trkpt><trkpt lat="45.99363482985156" lon="12.004958021611678"><ele>1076.1666666666667</ele><time>2026-04-26T05:37:07Z</time></trkpt><trkpt lat="45.99355770999697" lon="12.004949082659948"><ele>1073.3333333333335</ele><time>2026-04-26T05:37:08Z</time></trkpt><trkpt lat="45.99347124714817" lon="12.004950216830396"><ele>1070.5</ele><time>2026-04-26T05:37:09Z</time></trkpt><trkpt lat="45.99339100793185" lon="12.004974172878194"><ele>1067.6666666666667</ele><time>2026-04-26T05:37:10Z</time></trkpt><trkpt lat="45.99331897363295" lon="12.005023875743284"><ele>1064.8333333333333</ele><time>2026-04-26T05:37:11Z</time></trkpt><trkpt lat="45.993237008608475" lon="12.005068852600512"><ele>1062.0</ele><time>2026-04-26T05:37:12Z</time></trkpt><trkpt lat="45.99315514045957" lon="12.005126214758004"><ele>1069.0</ele><time>2026-04-26T05:37:13Z</time></trkpt><trkpt lat="45.993082198412594" lon="12.005158225418564"><ele>1076.0</ele><time>2026-04-26T05:37:14Z</time></trkpt><trkpt lat="45.99301200182743" lon="12.005162047492025"><ele>1083.0</ele><time>2026-04-26T05:37:15Z</time></trkpt><trkpt lat="45.99293783302317" lon="12.005187565318831"><ele>1090.0</ele><time>2026-04-26T05:37:16Z</time></trkpt><trkpt lat="45.99285263761407" lon="12.005161478568676"><ele>1097.0</ele><time>2026-04-26T05:37:17Z</time></trkpt><trkpt lat="45.992766231034494" lon="12.00514049881932"><ele>1104.0</ele><time>2026-04-26T05:37:18Z</time></trkpt><trkpt lat="45.992714887113166" lon="12.005024629061388"><ele>1104.0</ele><time>2026-04-26T05:37:19Z</time></trkpt><trkpt lat="45.99260976286037" lon="12.00498731293754"><ele>1104.0</ele><time>2026-04-26T05:37:21Z</time></trkpt><trkpt lat="45.992566263945015" lon="12.005072875878847"><ele>1104.0</ele><time>2026-04-26T05:37:22Z</time></trkpt><trkpt lat="45.99252390596745" lon="12.005203655653064"><ele>1104.0</ele><time>2026-04-26T05:37:24Z</time></trkpt><trkpt lat="45.99246706637855" lon="12.00538670740932"><ele>1104.0</ele><time>2026-04-26T05:37:26Z</time></trkpt><trkpt lat="45.99246909534354" lon="12.005496140630367"><ele>1104.0</ele><time>2026-04-26T05:37:28Z</time></trkpt><trkpt lat="45.992570978339295" lon="12.005583668634598"><ele>1104.0</ele><time>2026-04-26T05:37:30Z</time></trkpt><trkpt lat="45.9926244591441" lon="12.005639567771448"><ele>1104.0</ele><time>2026-04-26T05:37:31Z</time></trkpt><trkpt lat="45.99270706635387" lon="12.005710096632518"><ele>1104.0</ele><time>2026-04-26T05:37:33Z</time></trkpt><trkpt lat="45.99279778293482" lon="12.005829458940509"><ele>1104.0</ele><time>2026-04-26T05:37:35Z</time></trkpt><trkpt lat="45.992866038758955" lon="12.005904825654266"><ele>1107.25</ele><time>2026-04-26T05:37:37Z</time></trkpt><trkpt lat="45.99277982126735" lon="12.00602668062381"><ele>1110.5</ele><time>2026-04-26T05:37:39Z</time></trkpt><trkpt lat="45.99270898772697" lon="12.00600219629543"><ele>1113.75</ele><time>2026-04-26T05:37:40.999Z</time></trkpt><trkpt lat="45.9926313538748" lon="12.005945892020852"><ele>1117.0</ele><time>2026-04-26T05:37:42.999Z</time></trkpt><trkpt lat="45.99783222585574" lon="12.001779222196008"><ele>1080.2</ele><time>2026-04-26T05:35:15.999Z</time></trkpt><trkpt lat="45.99780429215979" lon="12.00186902065742"><ele>1043.4</ele><time>2026-04-26T05:35:16.999Z</time></trkpt><trkpt lat="45.99788583056524" lon="12.001994925077536"><ele>1006.5999999999999</ele><time>2026-04-26T05:35:18.999Z</time></trkpt><trkpt lat="45.997947867367884" lon="12.002043994565327"><ele>969.8</ele><time>2026-04-26T05:35:19.999Z</time></trkpt><trkpt lat="45.99800014423435" lon="12.002108596995381"><ele>933.0</ele><time>2026-04-26T05:35:20.999Z</time></trkpt><trkpt lat="45.99807619159037" lon="12.002271155089847"><ele>933.0</ele><time>2026-04-26T05:35:22.999Z</time></trkpt><trkpt lat="45.99809938655895" lon="12.002356568541723"><ele>933.0</ele><time>2026-04-26T05:35:23.999Z</time></trkpt><trkpt lat="45.99807896128849" lon="12.002528454400645"><ele>933.0</ele><time>2026-04-26T05:35:25.999Z</time></trkpt><trkpt lat="45.99800616714759" lon="12.002603967908524"><ele>933.0</ele><time>2026-04-26T05:35:27.999Z</time></trkpt><trkpt lat="45.99793331067454" lon="12.00260775448"><ele>933.0</ele><time>2026-04-26T05:35:28.999Z</time></trkpt><trkpt lat="45.99785647489132" lon="12.00259175571509"><ele>933.0</ele><time>2026-04-26T05:35:29.999Z</time></trkpt><trkpt lat="45.99776520506566" lon="12.002518124970097"><ele>933.0</ele><time>2026-04-26T05:35:31.999Z</time></trkpt><trkpt lat="45.99770161764364" lon="12.002499394896802"><ele>933.0</ele><time>2026-04-26T05:35:32.999Z</time></trkpt><trkpt lat="45.99758083002743" lon="12.002458810070483"><ele>933.0</ele><time>2026-04-26T05:35:33.999Z</time></trkpt><trkpt lat="45.9974785793032" lon="12.002443297061532"><ele>933.0</ele><time>2026-04-26T05:35:34.999Z</time></trkpt><trkpt lat="45.997380925356225" lon="12.002430044705324"><ele>933.0</ele><time>2026-04-26T05:35:35.999Z</time></trkpt><trkpt lat="45.99728668536996" lon="12.0024179315721"><ele>935.4</ele><time>2026-04-26T05:35:36.999Z</time></trkpt><trkpt lat="45.99718919772997" lon="12.002416418149949"><ele>937.8</ele><time>2026-04-26T05:35:37.999Z</time></trkpt><trkpt lat="45.99709099673887" lon="12.002441388124005"><ele>940.2</ele><time>2026-04-26T05:35:38.999Z</time></trkpt><trkpt lat="45.99698930268228" lon="12.002473344594105"><ele>942.6</ele><time>2026-04-26T05:35:39.999Z</time></trkpt><trkpt lat="45.996877091627525" lon="12.002498362932629"><ele>945.0</ele><time>2026-04-26T05:35:40.999Z</time></trkpt><trkpt lat="45.99677022297478" lon="12.002528949641405"><ele>949.75</ele><time>2026-04-26T05:35:41.999Z</time></trkpt><trkpt lat="45.996672319625404" lon="12.002587085710033"><ele>954.5</ele><time>2026-04-26T05:35:42.999Z</time></trkpt><trkpt lat="45.99655379433493" lon="12.002687955646794"><ele>959.25</ele><time>2026-04-26T05:35:43.999Z</time></trkpt><trkpt lat="45.99644251945987" lon="12.002765695914308"><ele>964.0</ele><time>2026-04-26T05:35:44.999Z</time></trkpt><trkpt lat="45.996341401860114" lon="12.002781969281553"><ele>967.2</ele><time>2026-04-26T05:35:45.999Z</time></trkpt><trkpt lat="45.99624142183083" lon="12.002785522491829"><ele>970.4000000000001</ele><time>2026-04-26T05:35:46.999Z</time></trkpt><trkpt lat="45.99614432584241" lon="12.00279615092487"><ele>973.6</ele><time>2026-04-26T05:35:47.999Z</time></trkpt><trkpt lat="45.99607627771075" lon="12.00280441111497"><ele>976.8</ele><time>2026-04-26T05:35:48.999Z</time></trkpt><trkpt lat="45.99596872275407" lon="12.002891175548978"><ele>980.0</ele><time>2026-04-26T05:35:50.999Z</time></trkpt><trkpt lat="45.99595548923364" lon="12.003006203273673"><ele>980.0000000000001</ele><time>2026-04-26T05:35:51.999Z</time></trkpt><trkpt lat="45.99601802341678" lon="12.003109910735816"><ele>980.0</ele><time>2026-04-26T05:35:52.999Z</time></trkpt><trkpt lat="45.996034357223486" lon="12.003218453261304"><ele>980.0</ele><time>2026-04-26T05:35:53.999Z</time></trkpt><trkpt lat="45.9960740732616" lon="12.00332110400562"><ele>980.0</ele><time>2026-04-26T05:35:54.999Z</time></trkpt><trkpt lat="45.9960962738244" lon="12.003456506347764"><ele>980.0000000000001</ele><time>2026-04-26T05:35:55.999Z</time></trkpt><trkpt lat="45.99612795974762" lon="12.003562924824779"><ele>980.0</ele><time>2026-04-26T05:35:56.999Z</time></trkpt><trkpt lat="45.996120294078885" lon="12.003702104925866"><ele>981.8</ele><time>2026-04-26T05:35:57.999Z</time></trkpt><trkpt lat="45.996098246923125" lon="12.003847126370408"><ele>983.6</ele><time>2026-04-26T05:35:58.999Z</time></trkpt><trkpt lat="45.99608236064726" lon="12.00397248634451"><ele>985.4000000000001</ele><time>2026-04-26T05:35:59.999Z</time></trkpt><trkpt lat="45.996051507707115" lon="12.00407486991802"><ele>987.2</ele><time>2026-04-26T05:36:00.999Z</time></trkpt><trkpt lat="45.99602177896847" lon="12.004194079338404"><ele>989.0</ele><time>2026-04-26T05:36:01.999Z</time></trkpt><trkpt lat="45.995994779204125" lon="12.004322013186078"><ele>990.6</ele><time>2026-04-26T05:36:02.999Z</time></trkpt><trkpt lat="45.9959677014285" lon="12.00442867310246"><ele>992.2</ele><time>2026-04-26T05:36:03.999Z</time></trkpt><trkpt lat="45.99593111766942" lon="12.004570149711235"><ele>993.8000000000001</ele><time>2026-04-26T05:36:04.999Z</time></trkpt><trkpt lat="45.99588676949568" lon="12.004720568240613"><ele>995.4000000000001</ele><time>2026-04-26T05:36:05.999Z</time></trkpt><trkpt lat="45.995833597031144" lon="12.004884489447607"><ele>997.0</ele><time>2026-04-26T05:36:06.999Z</time></trkpt><trkpt lat="45.99578703047982" lon="12.005050249479035"><ele>1004.0</ele><time>2026-04-26T05:36:07.999Z</time></trkpt><trkpt lat="45.995753989685916" lon="12.00521639629784"><ele>1011.0</ele><time>2026-04-26T05:36:08.999Z</time></trkpt><trkpt lat="45.99571293756708" lon="12.005362282031703"><ele>1018.0</ele><time>2026-04-26T05:36:09.999Z</time></trkpt><trkpt lat="45.995693215201165" lon="12.005479146052846"><ele>1025.0</ele><time>2026-04-26T05:36:10.999Z</time></trkpt><trkpt lat="45.995671526306104" lon="12.005596100647441"><ele>1032.0</ele><time>2026-04-26T05:36:11.999Z</time></trkpt><trkpt lat="45.995640556522" lon="12.005707755497136"><ele>1032.0</ele><time>2026-04-26T05:36:12.999Z</time></trkpt><trkpt lat="45.99559085344176" lon="12.005814881939179"><ele>1032.0</ele><time>2026-04-26T05:36:13.999Z</time></trkpt><trkpt lat="45.995523133294896" lon="12.005875468232853"><ele>1032.0</ele><time>2026-04-26T05:36:14.999Z</time></trkpt><trkpt lat="45.99545521482834" lon="12.005913962263202"><ele>1032.0</ele><time>2026-04-26T05:36:15.999Z</time></trkpt><trkpt lat="45.995388284088435" lon="12.005958155000403"><ele>1032.0</ele><time>2026-04-26T05:36:16.999Z</time></trkpt><trkpt lat="45.9953243562481" lon="12.005993243446962"><ele>1032.0</ele><time>2026-04-26T05:36:17.999Z</time></trkpt><trkpt lat="45.995179332974175" lon="12.006045691642631"><ele>1031.6</ele><time>2026-04-26T05:36:19.999Z</time></trkpt><trkpt lat="45.995084555525864" lon="12.00609295016033"><ele>1031.2</ele><time>2026-04-26T05:36:20.999Z</time></trkpt><trkpt lat="45.99498645896545" lon="12.00615172861002"><ele>1030.8</ele><time>2026-04-26T05:36:21.999Z</time></trkpt><trkpt lat="45.99488689864927" lon="12.006216348719303"><ele>1030.4</ele><time>2026-04-26T05:36:22.999Z</time></trkpt><trkpt lat="45.99479813780475" lon="12.006286388763291"><ele>1030.0</ele><time>2026-04-26T05:36:23.999Z</time></trkpt><trkpt lat="45.99471115689654" lon="12.006370789584992"><ele>1034.5</ele><time>2026-04-26T05:36:25.999Z</time></trkpt><trkpt lat="45.994659398021234" lon="12.006450757773052"><ele>1039.0</ele><time>2026-04-26T05:36:27.999Z</time></trkpt><trkpt lat="45.99463425836192" lon="12.006539968277691"><ele>1043.5</ele><time>2026-04-26T05:36:28.999Z</time></trkpt><trkpt lat="45.9946294954893" lon="12.006653701680646"><ele>1048.0</ele><time>2026-04-26T05:36:29.999Z</time></trkpt><trkpt lat="45.99463501911542" lon="12.006752551847534"><ele>1052.5</ele><time>2026-04-26T05:36:30.999Z</time></trkpt><trkpt lat="45.99465374659145" lon="12.006930810798899"><ele>1057.0</ele><time>2026-04-26T05:36:32.999Z</time></trkpt><trkpt lat="45.99467270246885" lon="12.00701991646164"><ele>1057.0</ele><time>2026-04-26T05:36:33.999Z</time></trkpt><trkpt lat="45.99470300868614" lon="12.007114471980588"><ele>1057.0</ele><time>2026-04-26T05:36:34.999Z</time></trkpt><trkpt lat="45.9947250005613" lon="12.007199863836608"><ele>1057.0</ele><time>2026-04-26T05:36:35.999Z</time></trkpt><trkpt lat="45.99472548272983" lon="12.007294785813002"><ele>1057.0</ele><time>2026-04-26T05:36:37.999Z</time></trkpt><trkpt lat="45.994646736024016" lon="12.00732483793164"><ele>1057.0</ele><time>2026-04-26T05:36:39.999Z</time></trkpt><trkpt lat="45.99458467114468" lon="12.00719994338412"><ele>1057.0</ele><time>2026-04-26T05:36:41.999Z</time></trkpt><trkpt lat="45.99456447669522" lon="12.00708673146349"><ele>1057.0</ele><time>2026-04-26T05:36:42.999Z</time></trkpt><trkpt lat="45.99453218587612" lon="12.006978763691437"><ele>1057.0</ele><time>2026-04-26T05:36:43.999Z</time></trkpt><trkpt lat="45.99448799175518" lon="12.006883863919047"><ele>1057.0</ele><time>2026-04-26T05:36:44.999Z</time></trkpt><trkpt lat="45.99443603329304" lon="12.006787954138526"><ele>1057.0</ele><time>2026-04-26T05:36:45.999Z</time></trkpt><trkpt lat="45.994378721741285" lon="12.00669428305632"><ele>1057.0</ele><time>2026-04-26T05:36:46.999Z</time></trkpt><trkpt lat="45.994322619755955" lon="12.00659031530359"><ele>1057.0</ele><time>2026-04-26T05:36:47.999Z</time></trkpt><trkpt lat="45.99427008543138" lon="12.006480975383125"><ele>1058.4</ele><time>2026-04-26T05:36:48.999Z</time></trkpt><trkpt lat="45.99420655214452" lon="12.0063648148357"><ele>1059.8000000000002</ele><time>2026-04-26T05:36:49.999Z</time></trkpt><trkpt lat="45.99413847567095" lon="12.00625487773268"><ele>1061.2</ele><time>2026-04-26T05:36:50.999Z</time></trkpt><trkpt lat="45.99407491852449" lon="12.006177488335991"><ele>1062.6000000000001</ele><time>2026-04-26T05:36:51.999Z</time></trkpt><trkpt lat="45.9940177857436" lon="12.006032143654423"><ele>1064.0</ele><time>2026-04-26T05:36:52.999Z</time></trkpt><trkpt lat="45.99397915872638" lon="12.005934825150767"><ele>1066.5</ele><time>2026-04-26T05:36:53.999Z</time></trkpt><trkpt lat="45.99394102367163" lon="12.005830490501504"><ele>1069.0</ele><time>2026-04-26T05:36:54.999Z</time></trkpt><trkpt lat="45.99394003193332" lon="12.005704507085689"><ele>1071.5</ele><time>2026-04-26T05:36:55.999Z</time></trkpt><trkpt lat="45.99392108276779" lon="12.005558375563643"><ele>1074.0</ele><time>2026-04-26T05:36:56.999Z</time></trkpt><trkpt lat="45.99397095069895" lon="12.005492976753839"><ele>1076.5</ele><time>2026-04-26T05:36:57.999Z</time></trkpt><trkpt lat="45.99399891106512" lon="12.005380885052"><ele>1079.0</ele><time>2026-04-26T05:36:58.999Z</time></trkpt><trkpt lat="45.993995176233774" lon="12.00528439993375"><ele>1079.0</ele><time>2026-04-26T05:36:59.999Z</time></trkpt><trkpt lat="45.99397119868045" lon="12.005196212365163"><ele>1079.0</ele><time>2026-04-26T05:37:00.999Z</time></trkpt><trkpt lat="45.993935905297896" lon="12.005119996934052"><ele>1079.0</ele><time>2026-04-26T05:37:01.999Z</time></trkpt><trkpt lat="45.99392043682044" lon="12.005028948239042"><ele>1079.0</ele><time>2026-04-26T05:37:03Z</time></trkpt><trkpt lat="45.99385676978921" lon="12.004996668436545"><ele>1079.0</ele><time>2026-04-26T05:37:04Z</time></trkpt><trkpt lat="45.99377843682098" lon="12.004990815947977"><ele>1079.0</ele><time>2026-04-26T05:37:05Z</time></trkpt><trkpt lat="45.99371237374149" lon="12.004975409244066"><ele>1079.0</ele><time>2026-04-26T05:37:06Z</time></trkpt><trkpt lat="45.99363482985156" lon="12.004958021611678"><ele>1076.1666666666667</ele><time>2026-04-26T05:37:07Z</time></trkpt><trkpt lat="45.99355770999697" lon="12.004949082659948"><ele>1073.3333333333335</ele><time>2026-04-26T05:37:08Z</time></trkpt><trkpt lat="45.99347124714817" lon="12.004950216830396"><ele>1070.5</ele><time>2026-04-26T05:37:09Z</time></trkpt><trkpt lat="45.99339100793185" lon="12.004974172878194"><ele>1067.6666666666667</ele><time>2026-04-26T05:37:10Z</time></trkpt><trkpt lat="45.99331897363295" lon="12.005023875743284"><ele>1064.8333333333333</ele><time>2026-04-26T05:37:11Z</time></trkpt><trkpt lat="45.993237008608475" lon="12.005068852600512"><ele>1062.0</ele><time>2026-04-26T05:37:12Z</time></trkpt><trkpt lat="45.99315514045957" lon="12.005126214758004"><ele>1069.0</ele><time>2026-04-26T05:37:13Z</time></trkpt><trkpt lat="45.993082198412594" lon="12.005158225418564"><ele>1076.0</ele><time>2026-04-26T05:37:14Z</time></trkpt><trkpt lat="45.99301200182743" lon="12.005162047492025"><ele>1083.0</ele><time>2026-04-26T05:37:15Z</time></trkpt><trkpt lat="45.99293783302317" lon="12.005187565318831"><ele>1090.0</ele><time>2026-04-26T05:37:16Z</time></trkpt><trkpt lat="45.99285263761407" lon="12.005161478568676"><ele>1097.0</ele><time>2026-04-26T05:37:17Z</time></trkpt><trkpt lat="45.992766231034494" lon="12.00514049881932"><ele>1104.0</ele><time>2026-04-26T05:37:18Z</time></trkpt><trkpt lat="45.992714887113166" lon="12.005024629061388"><ele>1104.0</ele><time>2026-04-26T05:37:19Z</time></trkpt><trkpt lat="45.99260976286037" lon="12.00498731293754"><ele>1104.0</ele><time>2026-04-26T05:37:21Z</time></trkpt><trkpt lat="45.992566263945015" lon="12.005072875878847"><ele>1104.0</ele><time>2026-04-26T05:37:22Z</time></trkpt><trkpt lat="45.99252390596745" lon="12.005203655653064"><ele>1104.0</ele><time>2026-04-26T05:37:24Z</time></trkpt><trkpt lat="45.99246706637855" lon="12.00538670740932"><ele>1104.0</ele><time>2026-04-26T05:37:26Z</time></trkpt><trkpt lat="45.99246909534354" lon="12.005496140630367"><ele>1104.0</ele><time>2026-04-26T05:37:28Z</time></trkpt><trkpt lat="45.992570978339295" lon="12.005583668634598"><ele>1104.0</ele><time>2026-04-26T05:37:30Z</time></trkpt><trkpt lat="45.9926244591441" lon="12.005639567771448"><ele>1104.0</ele><time>2026-04-26T05:37:31Z</time></trkpt><trkpt lat="45.99270706635387" lon="12.005710096632518"><ele>1104.0</ele><time>2026-04-26T05:37:33Z</time></trkpt><trkpt lat="45.99279778293482" lon="12.005829458940509"><ele>1104.0</ele><time>2026-04-26T05:37:35Z</time></trkpt><trkpt lat="45.992866038758955" lon="12.005904825654266"><ele>1106.1666666666667</ele><time>2026-04-26T05:37:37Z</time></trkpt><trkpt lat="45.99277982126735" lon="12.00602668062381"><ele>1108.3333333333333</ele><time>2026-04-26T05:37:39Z</time></trkpt><trkpt lat="45.99270898772697" lon="12.00600219629543"><ele>1110.5</ele><time>2026-04-26T05:37:40.999Z</time></trkpt><trkpt lat="45.9926313538748" lon="12.005945892020852"><ele>1112.6666666666665</ele><time>2026-04-26T05:37:42.999Z</time></trkpt><trkpt lat="45.9925512079651" lon="12.005981677013104"><ele>1114.8333333333333</ele><time>2026-04-26T05:37:44.999Z</time></trkpt><trkpt lat="45.992504444138895" lon="12.006077079680997"><ele>1117.0</ele><time>2026-04-26T05:37:46.999Z</time></trkpt><trkpt lat="45.99248591157612" lon="12.006167309353412"><ele>1117.6666666666665</ele><time>2026-04-26T05:37:47.999Z</time></trkpt><trkpt lat="45.992467718291884" lon="12.006256899512676"><ele>1118.3333333333333</ele><time>2026-04-26T05:37:48.999Z</time></trkpt><trkpt lat="45.99246246547074" lon="12.006354313487238"><ele>1119.0</ele><time>2026-04-26T05:37:49.999Z</time></trkpt><trkpt lat="45.99246545843142" lon="12.006459350745162"><ele>1119.6666666666667</ele><time>2026-04-26T05:37:50.999Z</time></trkpt><trkpt lat="45.992472881501534" lon="12.00657198018813"><ele>1120.3333333333335</ele><time>2026-04-26T05:37:51.999Z</time></trkpt><trkpt lat="45.992467934989634" lon="12.006774091270909"><ele>1121.0</ele><time>2026-04-26T05:37:53.999Z</time></trkpt><trkpt lat="45.99246569172815" lon="12.006872991884883"><ele>1125.3999999999999</ele><time>2026-04-26T05:37:54.999Z</time></trkpt><trkpt lat="45.99247241492421" lon="12.007031917617862"><ele>1129.8</ele><time>2026-04-26T05:37:56.999Z</time></trkpt><trkpt lat="45.99243421284817" lon="12.007138461820754"><ele>1134.1999999999998</ele><time>2026-04-26T05:37:58.999Z</time></trkpt><trkpt lat="45.992344717572415" lon="12.00716628844828"><ele>1138.6</ele><time>2026-04-26T05:38:00.999Z</time></trkpt><trkpt lat="45.99227092439389" lon="12.007166154287848"><ele>1143.0</ele><time>2026-04-26T05:38:01.999Z</time></trkpt><trkpt lat="45.992159964589234" lon="12.007202676194748"><ele>1143.0</ele><time>2026-04-26T05:38:03.999Z</time></trkpt><trkpt lat="45.99208015178936" lon="12.007277530807503"><ele>1143.0</ele><time>2026-04-26T05:38:05.999Z</time></trkpt><trkpt lat="45.992117894667814" lon="12.007425200995167"><ele>1143.0</ele><time>2026-04-26T05:38:07.999Z</time></trkpt><trkpt lat="45.99221639951871" lon="12.00751620767794"><ele>1143.0</ele><time>2026-04-26T05:38:09.999Z</time></trkpt><trkpt lat="45.992287711160664" lon="12.007658761793998"><ele>1143.0</ele><time>2026-04-26T05:38:11.999Z</time></trkpt><trkpt lat="45.99232393621864" lon="12.00776766298852"><ele>1141.8333333333333</ele><time>2026-04-26T05:38:12.999Z</time></trkpt><trkpt lat="45.99237306471183" lon="12.00786124138103"><ele>1140.6666666666667</ele><time>2026-04-26T05:38:13.999Z</time></trkpt><trkpt lat="45.99242396376475" lon="12.007955441036954"><ele>1139.5</ele><time>2026-04-26T05:38:14.999Z</time></trkpt><trkpt lat="45.99247773698108" lon="12.00802663690117"><ele>1138.3333333333335</ele><time>2026-04-26T05:38:15.999Z</time></trkpt><trkpt lat="45.992529727801575" lon="12.00813739818399"><ele>1137.1666666666667</ele><time>2026-04-26T05:38:17.999Z</time></trkpt><trkpt lat="45.99254541066867" lon="12.008240372384435"><ele>1136.0</ele><time>2026-04-26T05:38:19.999Z</time></trkpt><trkpt lat="45.99247929423093" lon="12.008294238725119"><ele>1139.8333333333335</ele><time>2026-04-26T05:38:21.999Z</time></trkpt><trkpt lat="45.99241092923175" lon="12.008214762594916"><ele>1143.6666666666667</ele><time>2026-04-26T05:38:23.999Z</time></trkpt><trkpt lat="45.992349054160094" lon="12.008174195388278"><ele>1147.5</ele><time>2026-04-26T05:38:24.999Z</time></trkpt><trkpt lat="45.9922796017551" lon="12.00813848818689"><ele>1151.3333333333333</ele><time>2026-04-26T05:38:25.999Z</time></trkpt><trkpt lat="45.99221157970368" lon="12.008115038276348"><ele>1155.1666666666665</ele><time>2026-04-26T05:38:26.999Z</time></trkpt><trkpt lat="45.992142179396055" lon="12.008090461630488"><ele>1159.0</ele><time>2026-04-26T05:38:27.999Z</time></trkpt><trkpt lat="45.99207433060932" lon="12.008014024830471"><ele>1159.0</ele><time>2026-04-26T05:38:28.999Z</time></trkpt><trkpt lat="45.99199595457269" lon="12.008078291144855"><ele>1159.0</ele><time>2026-04-26T05:38:31Z</time></trkpt><trkpt lat="45.9919990709217" lon="12.00820490962703"><ele>1159.0</ele><time>2026-04-26T05:38:32Z</time></trkpt><trkpt lat="45.99202080419987" lon="12.008376028481742"><ele>1159.0</ele><time>2026-04-26T05:38:34Z</time></trkpt><trkpt lat="45.99204635444914" lon="12.008469336580552"><ele>1159.0</ele><time>2026-04-26T05:38:35Z</time></trkpt><trkpt lat="45.99206684207232" lon="12.008571857389612"><ele>1159.0</ele><time>2026-04-26T05:38:36Z</time></trkpt><trkpt lat="45.992086750787905" lon="12.008687648846553"><ele>1161.6666666666665</ele><time>2026-04-26T05:38:37Z</time></trkpt><trkpt lat="45.992105687028385" lon="12.008790372992681"><ele>1164.3333333333333</ele><time>2026-04-26T05:38:38Z</time></trkpt><trkpt lat="45.99210758175748" lon="12.008889997006847"><ele>1167.0</ele><time>2026-04-26T05:38:39Z</time></trkpt><trkpt lat="45.99208025298499" lon="12.00901808918652"><ele>1169.6666666666667</ele><time>2026-04-26T05:38:40Z</time></trkpt><trkpt lat="45.99205332260454" lon="12.009154407595773"><ele>1172.3333333333335</ele><time>2026-04-26T05:38:41Z</time></trkpt><trkpt lat="45.992015681946064" lon="12.009292249551939"><ele>1175.0</ele><time>2026-04-26T05:38:42Z</time></trkpt><trkpt lat="45.99198061266432" lon="12.009429176208682"><ele>1177.6</ele><time>2026-04-26T05:38:43Z</time></trkpt><trkpt lat="45.9919539969547" lon="12.009551158026564"><ele>1180.2</ele><time>2026-04-26T05:38:44Z</time></trkpt><trkpt lat="45.991929126867866" lon="12.00966739571141"><ele>1182.8</ele><time>2026-04-26T05:38:45Z</time></trkpt><trkpt lat="45.99187799444406" lon="12.009791455315737"><ele>1185.4</ele><time>2026-04-26T05:38:46Z</time></trkpt><trkpt lat="45.99184312638352" lon="12.009919413886237"><ele>1188.0</ele><time>2026-04-26T05:38:47Z</time></trkpt><trkpt lat="45.99179967876149" lon="12.01003133982705"><ele>1188.1666666666667</ele><time>2026-04-26T05:38:48Z</time></trkpt><trkpt lat="45.991774540748786" lon="12.010136114969685"><ele>1188.3333333333333</ele><time>2026-04-26T05:38:49Z</time></trkpt><trkpt lat="45.99174861722799" lon="12.010230341009729"><ele>1188.5</ele><time>2026-04-26T05:38:50Z</time></trkpt><trkpt lat="45.99171727026886" lon="12.010341215636583"><ele>1188.6666666666665</ele><time>2026-04-26T05:38:51Z</time></trkpt><trkpt lat="45.99168944937372" lon="12.01045619471645"><ele>1188.8333333333333</ele><time>2026-04-26T05:38:52Z</time></trkpt><trkpt lat="45.99166846935048" lon="12.010579853353407"><ele>1189.0</ele><time>2026-04-26T05:38:53Z</time></trkpt><trkpt lat="45.99165137137552" lon="12.010701447125195"><ele>1189.2</ele><time>2026-04-26T05:38:54Z</time></trkpt><trkpt lat="45.99165170107851" lon="12.010799501797491"><ele>1189.4</ele><time>2026-04-26T05:38:55Z</time></trkpt><trkpt lat="45.99168247387001" lon="12.010903209801173"><ele>1189.6</ele><time>2026-04-26T05:38:56Z</time></trkpt><trkpt lat="45.99171092487223" lon="12.011036937654637"><ele>1189.8</ele><time>2026-04-26T05:38:57Z</time></trkpt><trkpt lat="45.9917278864147" lon="12.011190320545648"><ele>1190.0</ele><time>2026-04-26T05:38:58Z</time></trkpt><trkpt lat="45.991769610920585" lon="12.011334881699637"><ele>1190.6</ele><time>2026-04-26T05:38:59Z</time></trkpt><trkpt lat="45.99177841063926" lon="12.011461064151858"><ele>1191.2</ele><time>2026-04-26T05:39:00Z</time></trkpt><trkpt lat="45.99179384751304" lon="12.011594126909479"><ele>1191.8</ele><time>2026-04-26T05:39:01Z</time></trkpt><trkpt lat="45.991815570129" lon="12.011739772450909"><ele>1192.4</ele><time>2026-04-26T05:39:02Z</time></trkpt><trkpt lat="45.99184149405734" lon="12.01189105013803"><ele>1193.0</ele><time>2026-04-26T05:39:03Z</time></trkpt><trkpt lat="45.991866874064016" lon="12.011998839649282"><ele>1195.3333333333335</ele><time>2026-04-26T05:39:04Z</time></trkpt><trkpt lat="45.9918922695257" lon="12.012106926287231"><ele>1197.6666666666667</ele><time>2026-04-26T05:39:05Z</time></trkpt><trkpt lat="45.99191124889339" lon="12.012193351514856"><ele>1200.0</ele><time>2026-04-26T05:39:06Z</time></trkpt><trkpt lat="45.9919324498505" lon="12.012319915311364"><ele>1202.3333333333333</ele><time>2026-04-26T05:39:08Z</time></trkpt><trkpt lat="45.99191538144397" lon="12.012420681888658"><ele>1204.6666666666665</ele><time>2026-04-26T05:39:10Z</time></trkpt><trkpt lat="45.991887410686296" lon="12.012545450331935"><ele>1207.0</ele><time>2026-04-26T05:39:13Z</time></trkpt><trkpt lat="45.99184703417957" lon="12.012643040649316"><ele>1207.5</ele><time>2026-04-26T05:39:16Z</time></trkpt><trkpt lat="45.991797048963335" lon="12.012734995762127"><ele>1208.0</ele><time>2026-04-26T05:39:20Z</time></trkpt><trkpt lat="45.9917317806698" lon="12.01280557941866"><ele>1208.5</ele><time>2026-04-26T05:39:23Z</time></trkpt><trkpt lat="45.99167128577452" lon="12.012869923229468"><ele>1209.0</ele><time>2026-04-26T05:39:25Z</time></trkpt><trkpt lat="45.991579404397164" lon="12.012949813562566"><ele>1209.5</ele><time>2026-04-26T05:39:27Z</time></trkpt><trkpt lat="45.99151705200511" lon="12.013008694277035"><ele>1210.0</ele><time>2026-04-26T05:39:28Z</time></trkpt><trkpt lat="45.991435573015686" lon="12.013074293522259"><ele>1210.3333333333333</ele><time>2026-04-26T05:39:29Z</time></trkpt><trkpt lat="45.99136290379022" lon="12.01312711250536"><ele>1210.6666666666665</ele><time>2026-04-26T05:39:30Z</time></trkpt><trkpt lat="45.991287430684686" lon="12.013172127758208"><ele>1211.0</ele><time>2026-04-26T05:39:31Z</time></trkpt><trkpt lat="45.9912182317318" lon="12.013228347754671"><ele>1211.3333333333333</ele><time>2026-04-26T05:39:32Z</time></trkpt><trkpt lat="45.99114326380593" lon="12.013289530622556"><ele>1211.6666666666667</ele><time>2026-04-26T05:39:33Z</time></trkpt><trkpt lat="45.991075658632425" lon="12.013337070622516"><ele>1212.0</ele><time>2026-04-26T05:39:34Z</time></trkpt><trkpt lat="45.991008467475986" lon="12.013365746977323"><ele>1212.0</ele><time>2026-04-26T05:39:35Z</time></trkpt><trkpt lat="45.990937557354876" lon="12.013352319353451"><ele>1212.0</ele><time>2026-04-26T05:39:36Z</time></trkpt><trkpt lat="45.990871598615485" lon="12.01334926133425"><ele>1212.0</ele><time>2026-04-26T05:39:37Z</time></trkpt><trkpt lat="45.99080397782508" lon="12.013347261836754"><ele>1212.0</ele><time>2026-04-26T05:39:38Z</time></trkpt><trkpt lat="45.99073661666267" lon="12.013358778016856"><ele>1212.0</ele><time>2026-04-26T05:39:39Z</time></trkpt><trkpt lat="45.990658180451334" lon="12.013374944385799"><ele>1212.0</ele><time>2026-04-26T05:39:40Z</time></trkpt><trkpt lat="45.99058625340715" lon="12.013422549508107"><ele>1212.0</ele><time>2026-04-26T05:39:41Z</time></trkpt><trkpt lat="45.990500136560634" lon="12.013412725039709"><ele>1212.75</ele><time>2026-04-26T05:39:42Z</time></trkpt><trkpt lat="45.990400884509796" lon="12.013397010879"><ele>1213.5</ele><time>2026-04-26T05:39:43Z</time></trkpt><trkpt lat="45.99028216399458" lon="12.013397064222875"><ele>1214.25</ele><time>2026-04-26T05:39:44Z</time></trkpt><trkpt lat="45.9901644288902" lon="12.013409826035476"><ele>1215.0</ele><time>2026-04-26T05:39:45Z</time></trkpt><trkpt lat="45.99004451996408" lon="12.013430562910216"><ele>1214.6</ele><time>2026-04-26T05:39:46Z</time></trkpt><trkpt lat="45.98993571549963" lon="12.01344589524182"><ele>1214.2</ele><time>2026-04-26T05:39:47Z</time></trkpt><trkpt lat="45.98982683131744" lon="12.013445841729009"><ele>1213.8</ele><time>2026-04-26T05:39:48Z</time></trkpt><trkpt lat="45.98971450277127" lon="12.013427907208488"><ele>1213.4</ele><time>2026-04-26T05:39:49Z</time></trkpt><trkpt lat="45.989598795224886" lon="12.013402806912536"><ele>1213.0</ele><time>2026-04-26T05:39:50Z</time></trkpt><trkpt lat="45.989480114311725" lon="12.01338019846585"><ele>1213.0</ele><time>2026-04-26T05:39:51Z</time></trkpt><trkpt lat="45.989358426630076" lon="12.013361791608288"><ele>1213.0</ele><time>2026-04-26T05:39:52Z</time></trkpt><trkpt lat="45.989254702570214" lon="12.013346141840675"><ele>1213.0</ele><time>2026-04-26T05:39:53Z</time></trkpt><trkpt lat="45.989179549702385" lon="12.013334109711623"><ele>1213.0</ele><time>2026-04-26T05:39:54Z</time></trkpt><trkpt lat="45.98910212817689" lon="12.013341252491433"><ele>1213.0</ele><time>2026-04-26T05:39:56Z</time></trkpt><trkpt lat="45.989005677511805" lon="12.013302820968276"><ele>1208.2</ele><time>2026-04-26T05:40:08Z</time></trkpt><trkpt lat="45.98891948667153" lon="12.0132895652906"><ele>1203.4</ele><time>2026-04-26T05:40:09Z</time></trkpt><trkpt lat="45.98881579772116" lon="12.013279831221658"><ele>1198.6000000000001</ele><time>2026-04-26T05:40:10Z</time></trkpt><trkpt lat="45.9886966997533" lon="12.013284989913645"><ele>1193.8</ele><time>2026-04-26T05:40:11Z</time></trkpt><trkpt lat="45.98857918283359" lon="12.013252692782233"><ele>1189.0</ele><time>2026-04-26T05:40:12Z</time></trkpt><trkpt lat="45.98846623589564" lon="12.01319366120939"><ele>1189.0</ele><time>2026-04-26T05:40:13Z</time></trkpt><trkpt lat="45.98838695564176" lon="12.013061319012438"><ele>1189.0</ele><time>2026-04-26T05:40:14Z</time></trkpt><trkpt lat="45.988280769964135" lon="12.013009297420682"><ele>1189.0</ele><time>2026-04-26T05:40:15Z</time></trkpt><trkpt lat="45.98819321551518" lon="12.013006213317071"><ele>1189.0</ele><time>2026-04-26T05:40:16Z</time></trkpt><trkpt lat="45.988112001017846" lon="12.012996695756364"><ele>1189.0</ele><time>2026-04-26T05:40:17Z</time></trkpt><trkpt lat="45.988019221939325" lon="12.012986623952688"><ele>1189.8</ele><time>2026-04-26T05:40:18Z</time></trkpt><trkpt lat="45.98791216769082" lon="12.012973029961861"><ele>1190.6000000000001</ele><time>2026-04-26T05:40:19Z</time></trkpt><trkpt lat="45.98780584049753" lon="12.01294948006477"><ele>1191.4</ele><time>2026-04-26T05:40:20Z</time></trkpt><trkpt lat="45.98769641388928" lon="12.012917163645998"><ele>1192.2</ele><time>2026-04-26T05:40:21Z</time></trkpt><trkpt lat="45.987582512054914" lon="12.012875236356118"><ele>1193.0</ele><time>2026-04-26T05:40:22Z</time></trkpt><trkpt lat="45.98746033790157" lon="12.012829556230622"><ele>1194.25</ele><time>2026-04-26T05:40:23Z</time></trkpt><trkpt lat="45.98733634987427" lon="12.012829682394"><ele>1195.5</ele><time>2026-04-26T05:40:24Z</time></trkpt><trkpt lat="45.98722944477598" lon="12.012783101738982"><ele>1196.75</ele><time>2026-04-26T05:40:25Z</time></trkpt><trkpt lat="45.987118512517625" lon="12.012737609279498"><ele>1198.0</ele><time>2026-04-26T05:40:26Z</time></trkpt><trkpt lat="45.98700878193216" lon="12.012690084492919"><ele>1198.0</ele><time>2026-04-26T05:40:27Z</time></trkpt><trkpt lat="45.98690180363806" lon="12.012635068518973"><ele>1198.0</ele><time>2026-04-26T05:40:28Z</time></trkpt><trkpt lat="45.98680163164931" lon="12.012561006581597"><ele>1198.0</ele><time>2026-04-26T05:40:29Z</time></trkpt><trkpt lat="45.98670894211822" lon="12.012477008514665"><ele>1198.0</ele><time>2026-04-26T05:40:30Z</time></trkpt><trkpt lat="45.98664875895706" lon="12.01232938202413"><ele>1196.6</ele><time>2026-04-26T05:40:31Z</time></trkpt><trkpt lat="45.98652487567449" lon="12.012295082761806"><ele>1195.1999999999998</ele><time>2026-04-26T05:40:32Z</time></trkpt><trkpt lat="45.9864360945927" lon="12.012222558215255"><ele>1193.8</ele><time>2026-04-26T05:40:33Z</time></trkpt><trkpt lat="45.98634754998452" lon="12.012160097078517"><ele>1192.3999999999999</ele><time>2026-04-26T05:40:34Z</time></trkpt><trkpt lat="45.98626517134563" lon="12.012088608697628"><ele>1191.0</ele><time>2026-04-26T05:40:35Z</time></trkpt><trkpt lat="45.98623868790367" lon="12.011958258841483"><ele>1191.0</ele><time>2026-04-26T05:40:36.001Z</time></trkpt><trkpt lat="45.98617227388853" lon="12.011878955243992"><ele>1191.0</ele><time>2026-04-26T05:40:37.001Z</time></trkpt><trkpt lat="45.98610468637857" lon="12.011801713018492"><ele>1191.0</ele><time>2026-04-26T05:40:38.001Z</time></trkpt><trkpt lat="45.98603849283025" lon="12.011726311274298"><ele>1191.0</ele><time>2026-04-26T05:40:39.001Z</time></trkpt><trkpt lat="45.98597605026293" lon="12.011651317555934"><ele>1191.0</ele><time>2026-04-26T05:40:40.001Z</time></trkpt><trkpt lat="45.98592174468369" lon="12.01158083297889"><ele>1191.0</ele><time>2026-04-26T05:40:41.001Z</time></trkpt><trkpt lat="45.985874661870895" lon="12.011507997593826"><ele>1190.3333333333333</ele><time>2026-04-26T05:40:42.001Z</time></trkpt><trkpt lat="45.98582232619063" lon="12.011432778991379"><ele>1189.6666666666667</ele><time>2026-04-26T05:40:43Z</time></trkpt><trkpt lat="45.98574180925097" lon="12.011377441137544"><ele>1189.0</ele><time>2026-04-26T05:40:44Z</time></trkpt><trkpt lat="45.9856551990251" lon="12.011329244894165"><ele>1188.3333333333335</ele><time>2026-04-26T05:40:45Z</time></trkpt><trkpt lat="45.98556180113963" lon="12.011311804824675"><ele>1187.6666666666667</ele><time>2026-04-26T05:40:46Z</time></trkpt><trkpt lat="45.985485714356805" lon="12.011242799458678"><ele>1187.0</ele><time>2026-04-26T05:40:47Z</time></trkpt><trkpt lat="45.98541721606023" lon="12.011179804744103"><ele>1187.0</ele><time>2026-04-26T05:40:48Z</time></trkpt><trkpt lat="45.985353685790415" lon="12.011122014744217"><ele>1187.0</ele><time>2026-04-26T05:40:49Z</time></trkpt><trkpt lat="45.98529248282494" lon="12.011073051717787"><ele>1187.0</ele><time>2026-04-26T05:40:50Z</time></trkpt><trkpt lat="45.98520080113521" lon="12.011065566133617"><ele>1187.0</ele><time>2026-04-26T05:40:51Z</time></trkpt><trkpt lat="45.98510705242097" lon="12.011043982757108"><ele>1187.0</ele><time>2026-04-26T05:40:52Z</time></trkpt><trkpt lat="45.98500524847351" lon="12.011025400435539"><ele>1187.0</ele><time>2026-04-26T05:40:53Z</time></trkpt><trkpt lat="45.98491447827958" lon="12.010978501189003"><ele>1185.6</ele><time>2026-04-26T05:40:54Z</time></trkpt><trkpt lat="45.98482549849134" lon="12.010912317171119"><ele>1184.2</ele><time>2026-04-26T05:40:55Z</time></trkpt><trkpt lat="45.98474073163052" lon="12.010844834011612"><ele>1182.8</ele><time>2026-04-26T05:40:56Z</time></trkpt><trkpt lat="45.9846583966091" lon="12.010771359633111"><ele>1181.4</ele><time>2026-04-26T05:40:57Z</time></trkpt><trkpt lat="45.98458263659551" lon="12.010694264353393"><ele>1180.0</ele><time>2026-04-26T05:40:58Z</time></trkpt><trkpt lat="45.984506426092054" lon="12.01061189703323"><ele>1180.0</ele><time>2026-04-26T05:40:59Z</time></trkpt><trkpt lat="45.984433147750146" lon="12.01053592625821"><ele>1180.0</ele><time>2026-04-26T05:41:00Z</time></trkpt><trkpt lat="45.98437483832854" lon="12.010480408487291"><ele>1180.0</ele><time>2026-04-26T05:41:01Z</time></trkpt><trkpt lat="45.9842515185174" lon="12.010454170962579"><ele>1180.0</ele><time>2026-04-26T05:41:03Z</time></trkpt><trkpt lat="45.98418232437688" lon="12.010449882138055"><ele>1180.0</ele><time>2026-04-26T05:41:04Z</time></trkpt><trkpt lat="45.98410400197569" lon="12.0104150509316"><ele>1180.0</ele><time>2026-04-26T05:41:05Z</time></trkpt><trkpt lat="45.984009582560525" lon="12.010402508611808"><ele>1183.8</ele><time>2026-04-26T05:41:06Z</time></trkpt><trkpt lat="45.98391309262392" lon="12.010361100394041"><ele>1187.6</ele><time>2026-04-26T05:41:08Z</time></trkpt><trkpt lat="45.98383280511741" lon="12.010316546864022"><ele>1191.4</ele><time>2026-04-26T05:41:10Z</time></trkpt><trkpt lat="45.983731198514995" lon="12.010261314865637"><ele>1195.2</ele><time>2026-04-26T05:41:12Z</time></trkpt><trkpt lat="45.98365549902978" lon="12.010291902295746"><ele>1199.0</ele><time>2026-04-26T05:41:13Z</time></trkpt><trkpt lat="45.98360091828138" lon="12.010376691747433"><ele>1199.0</ele><time>2026-04-26T05:41:14Z</time></trkpt><trkpt lat="45.98359096664349" lon="12.010492108135566"><ele>1199.0</ele><time>2026-04-26T05:41:15Z</time></trkpt><trkpt lat="45.98356232820484" lon="12.010584344433125"><ele>1199.0</ele><time>2026-04-26T05:41:16Z</time></trkpt><trkpt lat="45.9835316515087" lon="12.010692080379375"><ele>1199.0</ele><time>2026-04-26T05:41:17Z</time></trkpt><trkpt lat="45.983493714168794" lon="12.01080185799783"><ele>1199.0</ele><time>2026-04-26T05:41:18Z</time></trkpt><trkpt lat="45.98345031212198" lon="12.010924970024686"><ele>1199.0</ele><time>2026-04-26T05:41:19Z</time></trkpt><trkpt lat="45.983409670482516" lon="12.011041367257087"><ele>1200.5</ele><time>2026-04-26T05:41:20Z</time></trkpt><trkpt lat="45.98335329418321" lon="12.011136593881108"><ele>1202.0</ele><time>2026-04-26T05:41:21Z</time></trkpt><trkpt lat="45.98331163844545" lon="12.011240245006285"><ele>1203.5</ele><time>2026-04-26T05:41:22Z</time></trkpt><trkpt lat="45.983246155215" lon="12.011287018264836"><ele>1205.0</ele><time>2026-04-26T05:41:23Z</time></trkpt><trkpt lat="45.9831788958432" lon="12.011338052675123"><ele>1206.5</ele><time>2026-04-26T05:41:24Z</time></trkpt><trkpt lat="45.98310047857331" lon="12.011348079391784"><ele>1208.0</ele><time>2026-04-26T05:41:25Z</time></trkpt><trkpt lat="45.98301512975932" lon="12.011377567882937"><ele>1208.0</ele><time>2026-04-26T05:41:26Z</time></trkpt><trkpt lat="45.982935605627034" lon="12.011412082480334"><ele>1208.0</ele><time>2026-04-26T05:41:27Z</time></trkpt><trkpt lat="45.98286317280642" lon="12.011451271447982"><ele>1208.0</ele><time>2026-04-26T05:41:28Z</time></trkpt><trkpt lat="45.98279113887858" lon="12.011497225547766"><ele>1208.0</ele><time>2026-04-26T05:41:29Z</time></trkpt><trkpt lat="45.98272953766039" lon="12.011542249948747"><ele>1208.0</ele><time>2026-04-26T05:41:30Z</time></trkpt><trkpt lat="45.98267404354772" lon="12.011599972963872"><ele>1208.0</ele><time>2026-04-26T05:41:31Z</time></trkpt><trkpt lat="45.98260433276135" lon="12.011731833029796"><ele>1206.4</ele><time>2026-04-26T05:41:33Z</time></trkpt><trkpt lat="45.982571303914774" lon="12.011823595198296"><ele>1204.8</ele><time>2026-04-26T05:41:34Z</time></trkpt><trkpt lat="45.98254303224124" lon="12.011944592275762"><ele>1203.2</ele><time>2026-04-26T05:41:35Z</time></trkpt><trkpt lat="45.98251460577169" lon="12.012075136970747"><ele>1201.6</ele><time>2026-04-26T05:41:36Z</time></trkpt><trkpt lat="45.982477223412424" lon="12.012198571386214"><ele>1200.0</ele><time>2026-04-26T05:41:37Z</time></trkpt><trkpt lat="45.98242541631315" lon="12.012323075528785"><ele>1200.0</ele><time>2026-04-26T05:41:38Z</time></trkpt><trkpt lat="45.98235802624718" lon="12.012457667530494"><ele>1200.0</ele><time>2026-04-26T05:41:39Z</time></trkpt><trkpt lat="45.98229484866579" lon="12.01255134810165"><ele>1200.0</ele><time>2026-04-26T05:41:40Z</time></trkpt><trkpt lat="45.98222897672404" lon="12.012600705969247"><ele>1200.0</ele><time>2026-04-26T05:41:41Z</time></trkpt><trkpt lat="45.98216551613776" lon="12.012622946929923"><ele>1200.0</ele><time>2026-04-26T05:41:42Z</time></trkpt><trkpt lat="45.98208524542823" lon="12.012670459873119"><ele>1200.0</ele><time>2026-04-26T05:41:43Z</time></trkpt><trkpt lat="45.98200712919492" lon="12.012725990959987"><ele>1198.8</ele><time>2026-04-26T05:41:44Z</time></trkpt><trkpt lat="45.9819278868013" lon="12.012823004248737"><ele>1197.6</ele><time>2026-04-26T05:41:45Z</time></trkpt><trkpt lat="45.98184953347521" lon="12.012914856294842"><ele>1196.4</ele><time>2026-04-26T05:41:46Z</time></trkpt><trkpt lat="45.981760049841675" lon="12.013007368666575"><ele>1195.2</ele><time>2026-04-26T05:41:47Z</time></trkpt><trkpt lat="45.98168749409515" lon="12.013083138976922"><ele>1194.0</ele><time>2026-04-26T05:41:48Z</time></trkpt><trkpt lat="45.98160133436701" lon="12.013135457034478"><ele>1194.0</ele><time>2026-04-26T05:41:49Z</time></trkpt><trkpt lat="45.9815187689195" lon="12.013202192678357"><ele>1194.0</ele><time>2026-04-26T05:41:50Z</time></trkpt><trkpt lat="45.98143397089848" lon="12.013262154703789"><ele>1194.0</ele><time>2026-04-26T05:41:51Z</time></trkpt><trkpt lat="45.981349327412254" lon="12.013319888936167"><ele>1194.0</ele><time>2026-04-26T05:41:52Z</time></trkpt><trkpt lat="45.98127537054504" lon="12.013397339986271"><ele>1194.0</ele><time>2026-04-26T05:41:53Z</time></trkpt><trkpt lat="45.98119637439051" lon="12.013450942941756"><ele>1196.3333333333333</ele><time>2026-04-26T05:41:54Z</time></trkpt><trkpt lat="45.98112246561847" lon="12.013515338231299"><ele>1198.6666666666667</ele><time>2026-04-26T05:41:55Z</time></trkpt><trkpt lat="45.98105645881008" lon="12.013583096004805"><ele>1201.0</ele><time>2026-04-26T05:41:56Z</time></trkpt><trkpt lat="45.980993502388394" lon="12.013653796278884"><ele>1203.3333333333335</ele><time>2026-04-26T05:41:57Z</time></trkpt><trkpt lat="45.98094218953625" lon="12.01372564213819"><ele>1205.6666666666667</ele><time>2026-04-26T05:41:58Z</time></trkpt><trkpt lat="45.98089463634795" lon="12.01380072547548"><ele>1208.0</ele><time>2026-04-26T05:41:59Z</time></trkpt><trkpt lat="45.98085255343008" lon="12.01387466359167"><ele>1207.8333333333335</ele><time>2026-04-26T05:42:00Z</time></trkpt><trkpt lat="45.98080418368639" lon="12.01395457145938"><ele>1207.6666666666667</ele><time>2026-04-26T05:42:01Z</time></trkpt><trkpt lat="45.980758663439914" lon="12.01404680658875"><ele>1207.5</ele><time>2026-04-26T05:42:02Z</time></trkpt><trkpt lat="45.98071384851276" lon="12.014150521861334"><ele>1207.3333333333333</ele><time>2026-04-26T05:42:03Z</time></trkpt><trkpt lat="45.98064870440238" lon="12.014231541764588"><ele>1207.1666666666665</ele><time>2026-04-26T05:42:04Z</time></trkpt><trkpt lat="45.98060489771884" lon="12.01434541672471"><ele>1207.0</ele><time>2026-04-26T05:42:05Z</time></trkpt><trkpt lat="45.98053789677888" lon="12.014438922265159"><ele>1206.7142857142856</ele><time>2026-04-26T05:42:06Z</time></trkpt><trkpt lat="45.98050217910969" lon="12.014539535017663"><ele>1206.4285714285713</ele><time>2026-04-26T05:42:07Z</time></trkpt><trkpt lat="45.98046386803898" lon="12.014633357049663"><ele>1206.142857142857</ele><time>2026-04-26T05:42:08Z</time></trkpt><trkpt lat="45.98043926972372" lon="12.014723971631673"><ele>1205.8571428571427</ele><time>2026-04-26T05:42:09Z</time></trkpt><trkpt lat="45.98041912025872" lon="12.01481978508005"><ele>1205.5714285714284</ele><time>2026-04-26T05:42:10Z</time></trkpt><trkpt lat="45.9803973273645" lon="12.01492636988752"><ele>1205.2857142857142</ele><time>2026-04-26T05:42:11Z</time></trkpt><trkpt lat="45.98037624863515" lon="12.015036291978731"><ele>1205.0</ele><time>2026-04-26T05:42:12Z</time></trkpt><trkpt lat="45.98035883258297" lon="12.015141127510233"><ele>1201.4</ele><time>2026-04-26T05:42:13Z</time></trkpt><trkpt lat="45.98033015760299" lon="12.01531773092203"><ele>1197.8</ele><time>2026-04-26T05:42:15Z</time></trkpt><trkpt lat="45.98031528303416" lon="12.015423160826774"><ele>1194.2</ele><time>2026-04-26T05:42:16Z</time></trkpt><trkpt lat="45.98030666334061" lon="12.015538906184865"><ele>1190.6</ele><time>2026-04-26T05:42:17Z</time></trkpt><trkpt lat="45.98030200152339" lon="12.015640134289619"><ele>1187.0</ele><time>2026-04-26T05:42:18Z</time></trkpt><trkpt lat="45.98029251883313" lon="12.015799726436555"><ele>1183.8333333333335</ele><time>2026-04-26T05:42:20Z</time></trkpt><trkpt lat="45.98026939277618" lon="12.015963425550952"><ele>1180.6666666666667</ele><time>2026-04-26T05:42:22Z</time></trkpt><trkpt lat="45.98023693696626" lon="12.016053326769656"><ele>1177.5</ele><time>2026-04-26T05:42:23Z</time></trkpt><trkpt lat="45.98018882878647" lon="12.016162195822679"><ele>1174.3333333333333</ele><time>2026-04-26T05:42:24Z</time></trkpt><trkpt lat="45.98014427088363" lon="12.016258973653443"><ele>1171.1666666666665</ele><time>2026-04-26T05:42:25Z</time></trkpt><trkpt lat="45.980100279028385" lon="12.016353942895892"><ele>1168.0</ele><time>2026-04-26T05:42:26Z</time></trkpt><trkpt lat="45.980073199120206" lon="12.016453084445601"><ele>1169.2</ele><time>2026-04-26T05:42:27Z</time></trkpt><trkpt lat="45.98001001059839" lon="12.016607782994553"><ele>1170.4</ele><time>2026-04-26T05:42:29Z</time></trkpt><trkpt lat="45.979973240598234" lon="12.01668296748028"><ele>1171.6000000000001</ele><time>2026-04-26T05:42:30Z</time></trkpt><trkpt lat="45.97989746542397" lon="12.016804207336522"><ele>1172.8</ele><time>2026-04-26T05:42:32Z</time></trkpt><trkpt lat="45.979812786971706" lon="12.016856596314419"><ele>1174.0</ele><time>2026-04-26T05:42:34Z</time></trkpt><trkpt lat="45.97969378622779" lon="12.01686630359169"><ele>1174.0</ele><time>2026-04-26T05:42:36Z</time></trkpt><trkpt lat="45.97958573857424" lon="12.016886146824428"><ele>1174.0</ele><time>2026-04-26T05:42:38Z</time></trkpt><trkpt lat="45.979473976027215" lon="12.016900374679564"><ele>1174.0</ele><time>2026-04-26T05:42:40Z</time></trkpt><trkpt lat="45.97934752548346" lon="12.016925403609036"><ele>1174.0</ele><time>2026-04-26T05:42:42.001Z</time></trkpt><trkpt lat="45.97925189821695" lon="12.016977800030118"><ele>1177.3333333333333</ele><time>2026-04-26T05:42:43.001Z</time></trkpt><trkpt lat="45.979177111572945" lon="12.017038358366085"><ele>1180.6666666666665</ele><time>2026-04-26T05:42:44.001Z</time></trkpt><trkpt lat="45.979112021283626" lon="12.017098471307518"><ele>1184.0</ele><time>2026-04-26T05:42:45.001Z</time></trkpt><trkpt lat="45.97905299582288" lon="12.017159440907468"><ele>1187.3333333333333</ele><time>2026-04-26T05:42:46.001Z</time></trkpt><trkpt lat="45.97900269638995" lon="12.017216713384693"><ele>1190.6666666666667</ele><time>2026-04-26T05:42:47.001Z</time></trkpt><trkpt lat="45.978950703068115" lon="12.017286441875843"><ele>1194.0</ele><time>2026-04-26T05:42:48.001Z</time></trkpt><trkpt lat="45.97887880200388" lon="12.017410747012422"><ele>1188.8333333333333</ele><time>2026-04-26T05:42:49.001Z</time></trkpt><trkpt lat="45.97884070498682" lon="12.017514269052704"><ele>1183.6666666666667</ele><time>2026-04-26T05:42:50Z</time></trkpt><trkpt lat="45.978810276114444" lon="12.017615757567478"><ele>1178.5</ele><time>2026-04-26T05:42:51Z</time></trkpt><trkpt lat="45.97878462943012" lon="12.017703258010105"><ele>1173.3333333333335</ele><time>2026-04-26T05:42:52Z</time></trkpt><trkpt lat="45.978766462460925" lon="12.017868747677406"><ele>1168.1666666666667</ele><time>2026-04-26T05:42:54Z</time></trkpt><trkpt lat="45.978704321754385" lon="12.017946231615833"><ele>1163.0</ele><time>2026-04-26T05:42:56Z</time></trkpt><trkpt lat="45.9786291172767" lon="12.017949501376622"><ele>1163.0</ele><time>2026-04-26T05:42:58Z</time></trkpt><trkpt lat="45.978552188446315" lon="12.01790945594344"><ele>1163.0</ele><time>2026-04-26T05:43:00Z</time></trkpt><trkpt lat="45.97845548341766" lon="12.017885958654254"><ele>1163.0</ele><time>2026-04-26T05:43:02Z</time></trkpt><trkpt lat="45.978348772917975" lon="12.017824576412018"><ele>1163.0</ele><time>2026-04-26T05:43:04Z</time></trkpt><trkpt lat="45.978253645942665" lon="12.017777084075917"><ele>1163.0</ele><time>2026-04-26T05:43:06Z</time></trkpt><trkpt lat="45.9781669394469" lon="12.017756345235941"><ele>1166.4</ele><time>2026-04-26T05:43:08Z</time></trkpt><trkpt lat="45.97808544495157" lon="12.017722619185582"><ele>1169.8</ele><time>2026-04-26T05:43:10Z</time></trkpt><trkpt lat="45.97796926435196" lon="12.017758235240406"><ele>1173.2</ele><time>2026-04-26T05:43:12Z</time></trkpt><trkpt lat="45.97787302813613" lon="12.017825312742573"><ele>1176.6</ele><time>2026-04-26T05:43:14Z</time></trkpt><trkpt lat="45.977779957026115" lon="12.017908319457115"><ele>1180.0</ele><time>2026-04-26T05:43:17Z</time></trkpt><trkpt lat="45.97768981886237" lon="12.01800039367895"><ele>1180.0</ele><time>2026-04-26T05:43:19Z</time></trkpt><trkpt lat="45.977601451712076" lon="12.018094786789472"><ele>1180.0</ele><time>2026-04-26T05:43:21Z</time></trkpt><trkpt lat="45.97753751937984" lon="12.018166257304644"><ele>1180.0</ele><time>2026-04-26T05:43:23Z</time></trkpt><trkpt lat="45.97747669881192" lon="12.018234893429902"><ele>1180.0</ele><time>2026-04-26T05:43:25Z</time></trkpt><trkpt lat="45.97742254959958" lon="12.01829663853676"><ele>1180.0</ele><time>2026-04-26T05:43:29Z</time></trkpt><trkpt lat="45.9772813973245" lon="12.018468420985387"><ele>1175.8</ele><time>2026-04-26T05:44:10Z</time></trkpt><trkpt lat="45.977218750692174" lon="12.018550464046358"><ele>1171.6</ele><time>2026-04-26T05:44:12Z</time></trkpt><trkpt lat="45.97713488457414" lon="12.018674450681308"><ele>1167.4</ele><time>2026-04-26T05:44:14Z</time></trkpt><trkpt lat="45.97709320908657" lon="12.018743094170178"><ele>1163.2</ele><time>2026-04-26T05:44:15Z</time></trkpt><trkpt lat="45.977051762012245" lon="12.018881948829574"><ele>1159.0</ele><time>2026-04-26T05:44:17Z</time></trkpt><trkpt lat="45.97699469561217" lon="12.019014053273208"><ele>1153.6666666666665</ele><time>2026-04-26T05:44:19Z</time></trkpt><trkpt lat="45.9770130168237" lon="12.01917194556939"><ele>1148.3333333333333</ele><time>2026-04-26T05:44:21Z</time></trkpt><trkpt lat="45.97699902132763" lon="12.019303836555405"><ele>1143.0</ele><time>2026-04-26T05:44:22Z</time></trkpt><trkpt lat="45.97702455115181" lon="12.019406353347039"><ele>1137.6666666666667</ele><time>2026-04-26T05:44:23Z</time></trkpt><trkpt lat="45.97703979468686" lon="12.01950430790281"><ele>1132.3333333333335</ele><time>2026-04-26T05:44:24Z</time></trkpt><trkpt lat="45.977040120607015" lon="12.019617397085055"><ele>1127.0</ele><time>2026-04-26T05:44:25Z</time></trkpt><trkpt lat="45.97704935788848" lon="12.019712608799443"><ele>1127.0</ele><time>2026-04-26T05:44:26Z</time></trkpt><trkpt lat="45.97710742517797" lon="12.019836823037174"><ele>1127.0</ele><time>2026-04-26T05:44:28Z</time></trkpt><trkpt lat="45.97713521625634" lon="12.019922922380653"><ele>1127.0</ele><time>2026-04-26T05:44:29Z</time></trkpt><trkpt lat="45.97713740644446" lon="12.02002722206287"><ele>1127.0</ele><time>2026-04-26T05:44:30Z</time></trkpt><trkpt lat="45.977099370566215" lon="12.020201275942197"><ele>1127.0</ele><time>2026-04-26T05:44:32Z</time></trkpt><trkpt lat="45.977072252766774" lon="12.020289890950586"><ele>1127.0</ele><time>2026-04-26T05:44:33Z</time></trkpt><trkpt lat="45.977026189164235" lon="12.020357132434631"><ele>1122.8333333333335</ele><time>2026-04-26T05:44:34Z</time></trkpt><trkpt lat="45.97698970810517" lon="12.020433775860658"><ele>1118.6666666666667</ele><time>2026-04-26T05:44:35Z</time></trkpt><trkpt lat="45.976938508658144" lon="12.020535757598644"><ele>1114.5</ele><time>2026-04-26T05:44:36Z</time></trkpt><trkpt lat="45.97688035963766" lon="12.020598213517523"><ele>1110.3333333333333</ele><time>2026-04-26T05:44:37Z</time></trkpt><trkpt lat="45.976790052222675" lon="12.020597999498676"><ele>1106.1666666666665</ele><time>2026-04-26T05:44:38Z</time></trkpt><trkpt lat="45.976726197886194" lon="12.02066208280162"><ele>1102.0</ele><time>2026-04-26T05:44:39Z</time></trkpt><trkpt lat="45.97665585110859" lon="12.020736533213727"><ele>1108.0</ele><time>2026-04-26T05:44:40Z</time></trkpt><trkpt lat="45.976593372177774" lon="12.020797531981309"><ele>1114.0</ele><time>2026-04-26T05:44:41Z</time></trkpt><trkpt lat="45.97651340940457" lon="12.020952642218722"><ele>1120.0</ele><time>2026-04-26T05:44:43Z</time></trkpt><trkpt lat="45.97645578926123" lon="12.021029776683678"><ele>1126.0</ele><time>2026-04-26T05:44:44Z</time></trkpt><trkpt lat="45.97637525933364" lon="12.021113240624453"><ele>1132.0</ele><time>2026-04-26T05:44:45Z</time></trkpt><trkpt lat="45.97631001781875" lon="12.021196846614236"><ele>1132.0</ele><time>2026-04-26T05:44:46Z</time></trkpt><trkpt lat="45.976247607675376" lon="12.021273689914052"><ele>1132.0</ele><time>2026-04-26T05:44:47Z</time></trkpt><trkpt lat="45.97619176032811" lon="12.021332678191332"><ele>1132.0</ele><time>2026-04-26T05:44:48Z</time></trkpt><trkpt lat="45.97608886909183" lon="12.021402049904884"><ele>1132.0</ele><time>2026-04-26T05:44:50Z</time></trkpt><trkpt lat="45.976018755902544" lon="12.021347796843482"><ele>1132.0</ele><time>2026-04-26T05:44:52Z</time></trkpt><trkpt lat="45.975964282308674" lon="12.021239135009766"><ele>1132.0</ele><time>2026-04-26T05:44:54Z</time></trkpt><trkpt lat="45.97589925251198" lon="12.021093551345835"><ele>1132.6666666666665</ele><time>2026-04-26T05:44:56Z</time></trkpt><trkpt lat="45.97584636469002" lon="12.021013693144043"><ele>1133.3333333333333</ele><time>2026-04-26T05:44:57Z</time></trkpt><trkpt lat="45.97580393378927" lon="12.020894073229142"><ele>1134.0</ele><time>2026-04-26T05:44:58Z</time></trkpt><trkpt lat="45.97575250693486" lon="12.020777899121185"><ele>1134.6666666666667</ele><time>2026-04-26T05:44:59Z</time></trkpt><trkpt lat="45.97571829137617" lon="12.020689435224758"><ele>1135.3333333333335</ele><time>2026-04-26T05:45:00Z</time></trkpt><trkpt lat="45.975677897242775" lon="12.020565809740184"><ele>1136.0</ele><time>2026-04-26T05:45:01Z</time></trkpt><trkpt lat="45.97564289437752" lon="12.020485730513737"><ele>1141.6666666666667</ele><time>2026-04-26T05:45:02Z</time></trkpt><trkpt lat="45.9755979717154" lon="12.020417088700242"><ele>1147.3333333333335</ele><time>2026-04-26T05:45:03Z</time></trkpt><trkpt lat="45.9755403637026" lon="12.02034527443484"><ele>1153.0</ele><time>2026-04-26T05:45:04Z</time></trkpt><trkpt lat="45.97547713192107" lon="12.020317031413482"><ele>1158.6666666666667</ele><time>2026-04-26T05:45:06Z</time></trkpt><trkpt lat="45.975369625730885" lon="12.020409300700804"><ele>1164.3333333333333</ele><time>2026-04-26T05:45:08Z</time></trkpt><trkpt lat="45.975269336644054" lon="12.020369675432981"><ele>1170.0</ele><time>2026-04-26T05:45:09Z</time></trkpt><trkpt lat="45.975177805777655" lon="12.020414543701204"><ele>1170.0</ele><time>2026-04-26T05:45:10Z</time></trkpt><trkpt lat="45.97506544104319" lon="12.020458324675797"><ele>1170.0</ele><time>2026-04-26T05:45:12Z</time></trkpt><trkpt lat="45.974984122505596" lon="12.020428277348703"><ele>1170.0</ele><time>2026-04-26T05:45:13Z</time></trkpt><trkpt lat="45.97486127365223" lon="12.020472125103511"><ele>1170.0</ele><time>2026-04-26T05:45:15Z</time></trkpt><trkpt lat="45.97477077173541" lon="12.020607289921852"><ele>1169.8</ele><time>2026-04-26T05:45:17Z</time></trkpt><trkpt lat="45.97471654857393" lon="12.02068183769609"><ele>1169.6</ele><time>2026-04-26T05:45:18Z</time></trkpt><trkpt lat="45.97466696348948" lon="12.02077736248813"><ele>1169.4</ele><time>2026-04-26T05:45:19Z</time></trkpt><trkpt lat="45.9745997921783" lon="12.020873295037681"><ele>1169.2</ele><time>2026-04-26T05:45:21Z</time></trkpt><trkpt lat="45.974504988924615" lon="12.020890932304962"><ele>1169.0</ele><time>2026-04-26T05:45:23Z</time></trkpt><trkpt lat="45.9743829598677" lon="12.020945238772573"><ele>1165.0</ele><time>2026-04-26T05:45:25Z</time></trkpt><trkpt lat="45.97430554666334" lon="12.020998489156572"><ele>1161.0</ele><time>2026-04-26T05:45:26Z</time></trkpt><trkpt lat="45.97424644515897" lon="12.021042373037835"><ele>1157.0</ele><time>2026-04-26T05:45:27Z</time></trkpt><trkpt lat="45.974163213637624" lon="12.021129285711849"><ele>1153.0</ele><time>2026-04-26T05:45:28Z</time></trkpt><trkpt lat="45.97411182381455" lon="12.021206369269104"><ele>1149.0</ele><time>2026-04-26T05:45:29Z</time></trkpt><trkpt lat="45.974039434463734" lon="12.021332194374818"><ele>1145.0</ele><time>2026-04-26T05:45:31Z</time></trkpt><trkpt lat="45.97396524263062" lon="12.02129792432536"><ele>1145.0</ele><time>2026-04-26T05:45:33Z</time></trkpt><trkpt lat="45.973872463751746" lon="12.021221710022054"><ele>1145.0</ele><time>2026-04-26T05:45:35Z</time></trkpt><trkpt lat="45.97377361751401" lon="12.021150878545015"><ele>1145.0</ele><time>2026-04-26T05:45:37Z</time></trkpt><trkpt lat="45.97371279699582" lon="12.021092295957306"><ele>1145.0</ele><time>2026-04-26T05:45:38Z</time></trkpt><trkpt lat="45.973644115775" lon="12.021016372439052"><ele>1145.0</ele><time>2026-04-26T05:45:39Z</time></trkpt><trkpt lat="45.97357826596927" lon="12.020936448885907"><ele>1145.0</ele><time>2026-04-26T05:45:40Z</time></trkpt><trkpt lat="45.973503984399336" lon="12.020845604833783"><ele>1145.0</ele><time>2026-04-26T05:45:41Z</time></trkpt><trkpt lat="45.97343081524874" lon="12.020755862546538"><ele>1145.0</ele><time>2026-04-26T05:45:42Z</time></trkpt><trkpt lat="45.973356423207974" lon="12.02067295992937"><ele>1145.0</ele><time>2026-04-26T05:45:43Z</time></trkpt><trkpt lat="45.973282293705054" lon="12.020605534109093"><ele>1145.0</ele><time>2026-04-26T05:45:44Z</time></trkpt><trkpt lat="45.97321402309489" lon="12.020577872332002"><ele>1145.0</ele><time>2026-04-26T05:45:45Z</time></trkpt><trkpt lat="45.97315723583543" lon="12.020531159232165"><ele>1143.1666666666667</ele><time>2026-04-26T05:45:46Z</time></trkpt><trkpt lat="45.9730910883383" lon="12.02051121848524"><ele>1141.3333333333335</ele><time>2026-04-26T05:45:47Z</time></trkpt><trkpt lat="45.97302058053798" lon="12.020523816954354"><ele>1139.5</ele><time>2026-04-26T05:45:48Z</time></trkpt><trkpt lat="45.972943447288905" lon="12.020545421088814"><ele>1137.6666666666667</ele><time>2026-04-26T05:45:49Z</time></trkpt><trkpt lat="45.972833851761415" lon="12.020640994867946"><ele>1135.8333333333333</ele><time>2026-04-26T05:45:51Z</time></trkpt><trkpt lat="45.972773020116044" lon="12.020737451723232"><ele>1134.0</ele><time>2026-04-26T05:45:52Z</time></trkpt><trkpt lat="45.972717993156536" lon="12.020871302723915"><ele>1134.0</ele><time>2026-04-26T05:45:53Z</time></trkpt><trkpt lat="45.972650060267256" lon="12.020952550374437"><ele>1134.0</ele><time>2026-04-26T05:45:54Z</time></trkpt><trkpt lat="45.97258506385277" lon="12.020994863756417"><ele>1134.0</ele><time>2026-04-26T05:45:55Z</time></trkpt><trkpt lat="45.972492976342906" lon="12.02098361020644"><ele>1134.0</ele><time>2026-04-26T05:45:57Z</time></trkpt><trkpt lat="45.97242895347039" lon="12.020975734200192"><ele>1134.0</ele><time>2026-04-26T05:45:58Z</time></trkpt><trkpt lat="45.972356390719845" lon="12.020964032981446"><ele>1134.0</ele><time>2026-04-26T05:45:59Z</time></trkpt><trkpt lat="45.9722766753905" lon="12.02095016340381"><ele>1133.8</ele><time>2026-04-26T05:46:00Z</time></trkpt><trkpt lat="45.97221149165256" lon="12.02091797424875"><ele>1133.6000000000001</ele><time>2026-04-26T05:46:01Z</time></trkpt><trkpt lat="45.972121783089065" lon="12.020860454089638"><ele>1133.4</ele><time>2026-04-26T05:46:03Z</time></trkpt><trkpt lat="45.97203316729269" lon="12.020800388933948"><ele>1133.2</ele><time>2026-04-26T05:46:05Z</time></trkpt><trkpt lat="45.97191886924383" lon="12.020702670213407"><ele>1133.0</ele><time>2026-04-26T05:46:07Z</time></trkpt><trkpt lat="45.97178557864169" lon="12.020729932223379"><ele>1140.142857142857</ele><time>2026-04-26T05:46:09Z</time></trkpt><trkpt lat="45.971720019425696" lon="12.020766104701908"><ele>1147.2857142857142</ele><time>2026-04-26T05:46:10Z</time></trkpt><trkpt lat="45.97164925108608" lon="12.020803917201215"><ele>1154.4285714285716</ele><time>2026-04-26T05:46:11Z</time></trkpt><trkpt lat="45.971584463190595" lon="12.020808626328572"><ele>1161.5714285714284</ele><time>2026-04-26T05:46:12Z</time></trkpt><trkpt lat="45.971496132987966" lon="12.02080068523759"><ele>1168.7142857142858</ele><time>2026-04-26T05:46:14Z</time></trkpt><trkpt lat="45.97143439638827" lon="12.020764491079257"><ele>1175.857142857143</ele><time>2026-04-26T05:46:15Z</time></trkpt><trkpt lat="45.971362394856975" lon="12.020726003758051"><ele>1183.0</ele><time>2026-04-26T05:46:16Z</time></trkpt><trkpt lat="45.971265270279595" lon="12.020713921338015"><ele>1183.0</ele><time>2026-04-26T05:46:17Z</time></trkpt><trkpt lat="45.97117549671823" lon="12.020679153904084"><ele>1183.0</ele><time>2026-04-26T05:46:18Z</time></trkpt><trkpt lat="45.97108602274524" lon="12.020641280734974"><ele>1183.0</ele><time>2026-04-26T05:46:19Z</time></trkpt><trkpt lat="45.97098003954801" lon="12.020628440876848"><ele>1183.0</ele><time>2026-04-26T05:46:20Z</time></trkpt><trkpt lat="45.97089671596301" lon="12.02065659471475"><ele>1183.0</ele><time>2026-04-26T05:46:21Z</time></trkpt><trkpt lat="45.97083193867713" lon="12.020675738807777"><ele>1183.0</ele><time>2026-04-26T05:46:22Z</time></trkpt><trkpt lat="45.97073943730137" lon="12.020622299935638"><ele>1180.1666666666665</ele><time>2026-04-26T05:46:24Z</time></trkpt><trkpt lat="45.97069844002173" lon="12.02048635589276"><ele>1177.3333333333333</ele><time>2026-04-26T05:46:26Z</time></trkpt><trkpt lat="45.970640310380396" lon="12.020395239780166"><ele>1174.5</ele><time>2026-04-26T05:46:27Z</time></trkpt><trkpt lat="45.97058206254079" lon="12.020321048703726"><ele>1171.6666666666667</ele><time>2026-04-26T05:46:28Z</time></trkpt><trkpt lat="45.97051620879355" lon="12.020255778239465"><ele>1168.8333333333335</ele><time>2026-04-26T05:46:29Z</time></trkpt><trkpt lat="45.97045527061516" lon="12.02020594325683"><ele>1166.0</ele><time>2026-04-26T05:46:30Z</time></trkpt><trkpt lat="45.97039499550172" lon="12.020170917696928"><ele>1166.0</ele><time>2026-04-26T05:46:31Z</time></trkpt><trkpt lat="45.97032273106494" lon="12.020164710883089"><ele>1166.0</ele><time>2026-04-26T05:46:32Z</time></trkpt><trkpt lat="45.97025117505028" lon="12.020222550594928"><ele>1166.0</ele><time>2026-04-26T05:46:33Z</time></trkpt><trkpt lat="45.97016929155107" lon="12.020234507355884"><ele>1166.0</ele><time>2026-04-26T05:46:34Z</time></trkpt><trkpt lat="45.970093035403245" lon="12.020257701143095"><ele>1166.0</ele><time>2026-04-26T05:46:35Z</time></trkpt><trkpt lat="45.97002968723586" lon="12.020254432817548"><ele>1166.0</ele><time>2026-04-26T05:46:36Z</time></trkpt><trkpt lat="45.96989467657548" lon="12.020192837038342"><ele>1164.3999999999999</ele><time>2026-04-26T05:46:38Z</time></trkpt><trkpt lat="45.96982724142026" lon="12.02018225172434"><ele>1162.8</ele><time>2026-04-26T05:46:39Z</time></trkpt><trkpt lat="45.969753838623994" lon="12.02019702988034"><ele>1161.1999999999998</ele><time>2026-04-26T05:46:40Z</time></trkpt><trkpt lat="45.96969227459183" lon="12.020262282475828"><ele>1159.6</ele><time>2026-04-26T05:46:41Z</time></trkpt><trkpt lat="45.969550956685154" lon="12.020255862208085"><ele>1158.0</ele><time>2026-04-26T05:46:43Z</time></trkpt><trkpt lat="45.969454460309706" lon="12.020176572260773"><ele>1158.0</ele><time>2026-04-26T05:46:44.999Z</time></trkpt><trkpt lat="45.969341203803985" lon="12.020111828246657"><ele>1158.0</ele><time>2026-04-26T05:46:46.999Z</time></trkpt><trkpt lat="45.96923329318065" lon="12.020045342469858"><ele>1158.0</ele><time>2026-04-26T05:46:48.999Z</time></trkpt><trkpt lat="45.969118388367086" lon="12.02003532880907"><ele>1158.0</ele><time>2026-04-26T05:46:50.999Z</time></trkpt><trkpt lat="45.968992594152645" lon="12.020085826250702"><ele>1158.3333333333333</ele><time>2026-04-26T05:46:52.999Z</time></trkpt><trkpt lat="45.96893562971646" lon="12.020129424254883"><ele>1158.6666666666667</ele><time>2026-04-26T05:46:54Z</time></trkpt><trkpt lat="45.96885041756116" lon="12.020148741427032"><ele>1159.0</ele><time>2026-04-26T05:46:56Z</time></trkpt><trkpt lat="45.96874472037918" lon="12.020116287279023"><ele>1159.3333333333335</ele><time>2026-04-26T05:46:58Z</time></trkpt><trkpt lat="45.96865151394407" lon="12.020061880710688"><ele>1159.6666666666667</ele><time>2026-04-26T05:47:00Z</time></trkpt><trkpt lat="45.968603786889304" lon="12.01998195041008"><ele>1160.0</ele><time>2026-04-26T05:47:02Z</time></trkpt><trkpt lat="45.9685409832974" lon="12.019932628362323"><ele>1167.8</ele><time>2026-04-26T05:47:03Z</time></trkpt><trkpt lat="45.96845603207163" lon="12.019888355479125"><ele>1175.6</ele><time>2026-04-26T05:47:04Z</time></trkpt><trkpt lat="45.96838551299313" lon="12.0198836806983"><ele>1183.4</ele><time>2026-04-26T05:47:05Z</time></trkpt><trkpt lat="45.968275565690696" lon="12.019903114307464"><ele>1191.2</ele><time>2026-04-26T05:47:07Z</time></trkpt><trkpt lat="45.968155777690534" lon="12.019930682309369"><ele>1199.0</ele><time>2026-04-26T05:47:09Z</time></trkpt><trkpt lat="45.96804295876774" lon="12.019952215701268"><ele>1199.6000000000001</ele><time>2026-04-26T05:47:11Z</time></trkpt><trkpt lat="45.96797971486191" lon="12.019963549505972"><ele>1200.2</ele><time>2026-04-26T05:47:12Z</time></trkpt><trkpt lat="45.96787668702403" lon="12.019968735082344"><ele>1200.8000000000002</ele><time>2026-04-26T05:47:14Z</time></trkpt><trkpt lat="45.96779110582388" lon="12.01996675595901"><ele>1201.4</ele><time>2026-04-26T05:47:16Z</time></trkpt><trkpt lat="45.96767959904342" lon="12.01998402708954"><ele>1202.0</ele><time>2026-04-26T05:47:18Z</time></trkpt><trkpt lat="45.967561321857026" lon="12.019977236579571"><ele>1203.3333333333335</ele><time>2026-04-26T05:47:20Z</time></trkpt><trkpt lat="45.96743585007317" lon="12.01995754593639"><ele>1204.6666666666667</ele><time>2026-04-26T05:47:22Z</time></trkpt><trkpt lat="45.96736650346453" lon="12.01995636432081"><ele>1206.0</ele><time>2026-04-26T05:47:23Z</time></trkpt><trkpt lat="45.967294738214655" lon="12.019951493290218"><ele>1207.3333333333333</ele><time>2026-04-26T05:47:24Z</time></trkpt><trkpt lat="45.96722765763267" lon="12.019948234779996"><ele>1208.6666666666665</ele><time>2026-04-26T05:47:25Z</time></trkpt><trkpt lat="45.967126772249976" lon="12.019931137747552"><ele>1210.0</ele><time>2026-04-26T05:47:27Z</time></trkpt><trkpt lat="45.966996933808446" lon="12.019948419257192"><ele>1210.0</ele><time>2026-04-26T05:47:29Z</time></trkpt><trkpt lat="45.9669290027842" lon="12.019926685452923"><ele>1210.0</ele><time>2026-04-26T05:47:30Z</time></trkpt><trkpt lat="45.96683399122623" lon="12.01993043760035"><ele>1210.0</ele><time>2026-04-26T05:47:32Z</time></trkpt><trkpt lat="45.96676718989136" lon="12.01993632954345"><ele>1210.0</ele><time>2026-04-26T05:47:33Z</time></trkpt><trkpt lat="45.966702738354044" lon="12.019943326684693"><ele>1210.0</ele><time>2026-04-26T05:47:34Z</time></trkpt><trkpt lat="45.96661003752132" lon="12.019974092729445"><ele>1210.0</ele><time>2026-04-26T05:47:36Z</time></trkpt><trkpt lat="45.96648074114452" lon="12.019985919178682"><ele>1204.1666666666665</ele><time>2026-04-26T05:47:38Z</time></trkpt><trkpt lat="45.96641544857578" lon="12.020011247635932"><ele>1198.3333333333333</ele><time>2026-04-26T05:47:39Z</time></trkpt><trkpt lat="45.96628774407116" lon="12.020022354152692"><ele>1192.5</ele><time>2026-04-26T05:47:41Z</time></trkpt><trkpt lat="45.96621299854669" lon="12.02002872799102"><ele>1186.6666666666667</ele><time>2026-04-26T05:47:42Z</time></trkpt><trkpt lat="45.966151553898804" lon="12.020076281482861"><ele>1180.8333333333335</ele><time>2026-04-26T05:47:43Z</time></trkpt><trkpt lat="45.96608407928845" lon="12.020116791858426"><ele>1175.0</ele><time>2026-04-26T05:47:44Z</time></trkpt><trkpt lat="45.966000580622286" lon="12.020162049276465"><ele>1175.0</ele><time>2026-04-26T05:47:45Z</time></trkpt><trkpt lat="45.96588122915386" lon="12.020180536164176"><ele>1175.0</ele><time>2026-04-26T05:47:47Z</time></trkpt><trkpt lat="45.96577506475811" lon="12.020230059441545"><ele>1175.0</ele><time>2026-04-26T05:47:49Z</time></trkpt><trkpt lat="45.9657090570229" lon="12.020255949480989"><ele>1175.0</ele><time>2026-04-26T05:47:50Z</time></trkpt><trkpt lat="45.96564531962711" lon="12.0202837259116"><ele>1175.0</ele><time>2026-04-26T05:47:51Z</time></trkpt><trkpt lat="45.965518394172435" lon="12.020362178834874"><ele>1179.0</ele><time>2026-04-26T05:47:53Z</time></trkpt><trkpt lat="45.965419066912645" lon="12.020414149741939"><ele>1183.0</ele><time>2026-04-26T05:47:55Z</time></trkpt><trkpt lat="45.96533139340738" lon="12.020429843485571"><ele>1187.0</ele><time>2026-04-26T05:47:57Z</time></trkpt><trkpt lat="45.96520858236535" lon="12.020436166063277"><ele>1191.0</ele><time>2026-04-26T05:47:59Z</time></trkpt><trkpt lat="45.96513800638343" lon="12.020442011683476"><ele>1195.0</ele><time>2026-04-26T05:48:00Z</time></trkpt><trkpt lat="45.96499151642183" lon="12.020474111809241"><ele>1197.5</ele><time>2026-04-26T05:48:02Z</time></trkpt><trkpt lat="45.96491037614738" lon="12.020525390993976"><ele>1200.0</ele><time>2026-04-26T05:48:03Z</time></trkpt><trkpt lat="45.964832614690145" lon="12.020568727611264"><ele>1202.5</ele><time>2026-04-26T05:48:04Z</time></trkpt><trkpt lat="45.964763828936604" lon="12.020576204680479"><ele>1205.0</ele><time>2026-04-26T05:48:05Z</time></trkpt><trkpt lat="45.964686530963775" lon="12.020604625206454"><ele>1207.5</ele><time>2026-04-26T05:48:06Z</time></trkpt><trkpt lat="45.96462118055421" lon="12.0206275305127"><ele>1210.0</ele><time>2026-04-26T05:48:07Z</time></trkpt><trkpt lat="45.96455657888795" lon="12.020668678284988"><ele>1210.0</ele><time>2026-04-26T05:48:08Z</time></trkpt><trkpt lat="45.96449163022423" lon="12.02068676288711"><ele>1210.0</ele><time>2026-04-26T05:48:09Z</time></trkpt><trkpt lat="45.96440012919194" lon="12.020686111064967"><ele>1210.0</ele><time>2026-04-26T05:48:11Z</time></trkpt><trkpt lat="45.96432719713916" lon="12.020701482483613"><ele>1210.0</ele><time>2026-04-26T05:48:12Z</time></trkpt><trkpt lat="45.96425512464829" lon="12.0207157422521"><ele>1210.0</ele><time>2026-04-26T05:48:13Z</time></trkpt><trkpt lat="45.96415123192783" lon="12.020730042406807"><ele>1210.0</ele><time>2026-04-26T05:48:15Z</time></trkpt><trkpt lat="45.964076602610895" lon="12.020734309649065"><ele>1208.5714285714284</ele><time>2026-04-26T05:48:16Z</time></trkpt><trkpt lat="45.96401274604615" lon="12.020739052585762"><ele>1207.142857142857</ele><time>2026-04-26T05:48:17Z</time></trkpt><trkpt lat="45.963939868702006" lon="12.020753286237296"><ele>1205.7142857142858</ele><time>2026-04-26T05:48:18Z</time></trkpt><trkpt lat="45.96386235094812" lon="12.02077731227083"><ele>1204.2857142857142</ele><time>2026-04-26T05:48:19Z</time></trkpt><trkpt lat="45.96378823941349" lon="12.020806325349215"><ele>1202.857142857143</ele><time>2026-04-26T05:48:20Z</time></trkpt><trkpt lat="45.9637118157916" lon="12.02083812363517"><ele>1201.4285714285713</ele><time>2026-04-26T05:48:21Z</time></trkpt><trkpt lat="45.96364012438779" lon="12.0208705392605"><ele>1200.0</ele><time>2026-04-26T05:48:22Z</time></trkpt><trkpt lat="45.963579823744915" lon="12.02090001868491"><ele>1198.3333333333333</ele><time>2026-04-26T05:48:23Z</time></trkpt><trkpt lat="45.96351969055428" lon="12.020935229223706"><ele>1196.6666666666667</ele><time>2026-04-26T05:48:24Z</time></trkpt><trkpt lat="45.96345329054326" lon="12.020986554836757"><ele>1195.0</ele><time>2026-04-26T05:48:25Z</time></trkpt><trkpt lat="45.96338537488039" lon="12.021035435052251"><ele>1193.3333333333335</ele><time>2026-04-26T05:48:26Z</time></trkpt><trkpt lat="45.96330548624122" lon="12.021092931229841"><ele>1191.6666666666667</ele><time>2026-04-26T05:48:27Z</time></trkpt><trkpt lat="45.96324667513348" lon="12.021225740541533"><ele>1190.0</ele><time>2026-04-26T05:48:28Z</time></trkpt><trkpt lat="45.96318505208405" lon="12.021308287886596"><ele>1190.0</ele><time>2026-04-26T05:48:29Z</time></trkpt><trkpt lat="45.96311659659924" lon="12.02140253108023"><ele>1190.0</ele><time>2026-04-26T05:48:30Z</time></trkpt><trkpt lat="45.963060076429194" lon="12.021502599553891"><ele>1190.0</ele><time>2026-04-26T05:48:31Z</time></trkpt><trkpt lat="45.962998211759604" lon="12.021598407491881"><ele>1190.0</ele><time>2026-04-26T05:48:32Z</time></trkpt><trkpt lat="45.962920006262074" lon="12.021681830633543"><ele>1190.0</ele><time>2026-04-26T05:48:33Z</time></trkpt><trkpt lat="45.962849128067205" lon="12.021790873960619"><ele>1190.5</ele><time>2026-04-26T05:48:34Z</time></trkpt><trkpt lat="45.962791847750296" lon="12.02191564591828"><ele>1191.0</ele><time>2026-04-26T05:48:35Z</time></trkpt><trkpt lat="45.962739916459746" lon="12.022022506466655"><ele>1191.5</ele><time>2026-04-26T05:48:36Z</time></trkpt><trkpt lat="45.96267159693594" lon="12.022077746853881"><ele>1192.0</ele><time>2026-04-26T05:48:37Z</time></trkpt><trkpt lat="45.96261412043203" lon="12.022141037319589"><ele>1192.5</ele><time>2026-04-26T05:48:38Z</time></trkpt><trkpt lat="45.96255141209888" lon="12.022204400535001"><ele>1193.0</ele><time>2026-04-26T05:48:39Z</time></trkpt><trkpt lat="45.96249406555008" lon="12.022258526557977"><ele>1193.0</ele><time>2026-04-26T05:48:40Z</time></trkpt><trkpt lat="45.96243552519586" lon="12.022308273251294"><ele>1193.0</ele><time>2026-04-26T05:48:41Z</time></trkpt><trkpt lat="45.9623662506029" lon="12.02237426429821"><ele>1193.0</ele><time>2026-04-26T05:48:42Z</time></trkpt><trkpt lat="45.96229439756237" lon="12.022401189009607"><ele>1193.0</ele><time>2026-04-26T05:48:42.999Z</time></trkpt><trkpt lat="45.962211066816735" lon="12.022434462725752"><ele>1193.0</ele><time>2026-04-26T05:48:43.999Z</time></trkpt><trkpt lat="45.96213765148091" lon="12.022487561499142"><ele>1193.0</ele><time>2026-04-26T05:48:44.999Z</time></trkpt><trkpt lat="45.9620587431581" lon="12.022535662319845"><ele>1193.0</ele><time>2026-04-26T05:48:45.999Z</time></trkpt><trkpt lat="45.961965669246474" lon="12.022608413626493"><ele>1193.0</ele><time>2026-04-26T05:48:47.999Z</time></trkpt><trkpt lat="45.96186073963769" lon="12.022630652556094"><ele>1193.0</ele><time>2026-04-26T05:48:57.999Z</time></trkpt><trkpt lat="45.961868968194835" lon="12.022429750927166"><ele>1193.0</ele><time>2026-04-26T05:48:58.999Z</time></trkpt><trkpt lat="45.961797233620636" lon="12.022363679361185"><ele>1193.0</ele><time>2026-04-26T05:49:01Z</time></trkpt><trkpt lat="45.96170916595356" lon="12.022310303027437"><ele>1190.6666666666667</ele><time>2026-04-26T05:49:03Z</time></trkpt><trkpt lat="45.961639695284326" lon="12.022288402725891"><ele>1188.3333333333335</ele><time>2026-04-26T05:49:05Z</time></trkpt><trkpt lat="45.96155892979859" lon="12.022280582873641"><ele>1186.0</ele><time>2026-04-26T05:49:07Z</time></trkpt><trkpt lat="45.961463547409075" lon="12.022295102734322"><ele>1183.6666666666667</ele><time>2026-04-26T05:49:09Z</time></trkpt><trkpt lat="45.96137518402621" lon="12.02234335371812"><ele>1181.3333333333333</ele><time>2026-04-26T05:49:11Z</time></trkpt><trkpt lat="45.961290228338534" lon="12.0223928788153"><ele>1179.0</ele><time>2026-04-26T05:49:13Z</time></trkpt><trkpt lat="45.96120743897825" lon="12.022448837641177"><ele>1179.0</ele><time>2026-04-26T05:49:15Z</time></trkpt><trkpt lat="45.96113787690736" lon="12.022508632975104"><ele>1179.0</ele><time>2026-04-26T05:49:17Z</time></trkpt><trkpt lat="45.96107792444411" lon="12.022551001245368"><ele>1179.0</ele><time>2026-04-26T05:49:19Z</time></trkpt><trkpt lat="45.96097569179405" lon="12.022512209576217"><ele>1179.0</ele><time>2026-04-26T05:49:21Z</time></trkpt><trkpt lat="45.9608889442334" lon="12.022434041843155"><ele>1179.0</ele><time>2026-04-26T05:49:23Z</time></trkpt><trkpt lat="45.96080226428171" lon="12.022302196348534"><ele>1177.2</ele><time>2026-04-26T05:49:25Z</time></trkpt><trkpt lat="45.960797322167636" lon="12.022164132281896"><ele>1175.4</ele><time>2026-04-26T05:49:26Z</time></trkpt><trkpt lat="45.96069515254034" lon="12.0221152283776"><ele>1173.6</ele><time>2026-04-26T05:49:28Z</time></trkpt><trkpt lat="45.96058378135431" lon="12.022122837188576"><ele>1171.8</ele><time>2026-04-26T05:49:30Z</time></trkpt><trkpt lat="45.960470574410635" lon="12.022165950212662"><ele>1170.0</ele><time>2026-04-26T05:49:32Z</time></trkpt><trkpt lat="45.96040701345538" lon="12.022156902005085"><ele>1170.0</ele><time>2026-04-26T05:49:33Z</time></trkpt><trkpt lat="45.960343487028986" lon="12.02216499725274"><ele>1170.0</ele><time>2026-04-26T05:49:34Z</time></trkpt><trkpt lat="45.960246457763446" lon="12.022174953157927"><ele>1170.0</ele><time>2026-04-26T05:49:36Z</time></trkpt><trkpt lat="45.96018944213497" lon="12.022113021204914"><ele>1170.0</ele><time>2026-04-26T05:49:38Z</time></trkpt><trkpt lat="45.960192586971715" lon="12.021967949824136"><ele>1170.0</ele><time>2026-04-26T05:49:41Z</time></trkpt><trkpt lat="45.960175984032546" lon="12.02181159832158"><ele>1170.0</ele><time>2026-04-26T05:49:43Z</time></trkpt><trkpt lat="45.960155838712915" lon="12.021621872419436"><ele>1169.2</ele><time>2026-04-26T05:49:45Z</time></trkpt><trkpt lat="45.960098324068326" lon="12.021497130505722"><ele>1168.4</ele><time>2026-04-26T05:49:47Z</time></trkpt><trkpt lat="45.960000368412196" lon="12.021434059007444"><ele>1167.6</ele><time>2026-04-26T05:49:49Z</time></trkpt><trkpt lat="45.95994395219678" lon="12.021391969229729"><ele>1166.8</ele><time>2026-04-26T05:49:50Z</time></trkpt><trkpt lat="45.95983866890513" lon="12.021298925656511"><ele>1166.0</ele><time>2026-04-26T05:49:52Z</time></trkpt><trkpt lat="45.95976151095096" lon="12.02126239431341"><ele>1166.0</ele><time>2026-04-26T05:49:53Z</time></trkpt><trkpt lat="45.95968639754903" lon="12.021240522440223"><ele>1166.0</ele><time>2026-04-26T05:49:54Z</time></trkpt><trkpt lat="45.95956618945423" lon="12.021189552088874"><ele>1166.0</ele><time>2026-04-26T05:49:56Z</time></trkpt><trkpt lat="45.95947129647425" lon="12.021152565871867"><ele>1166.0</ele><time>2026-04-26T05:49:58Z</time></trkpt><trkpt lat="45.95940497535812" lon="12.021118925058893"><ele>1166.0</ele><time>2026-04-26T05:49:59Z</time></trkpt><trkpt lat="45.95931095463085" lon="12.021072392042369"><ele>1166.0</ele><time>2026-04-26T05:50:01Z</time></trkpt><trkpt lat="45.959242145969974" lon="12.021032344731793"><ele>1166.0</ele><time>2026-04-26T05:50:03Z</time></trkpt><trkpt lat="45.959279163495715" lon="12.020935259653012"><ele>1166.0</ele><time>2026-04-26T05:50:05Z</time></trkpt><trkpt lat="45.95929112092347" lon="12.02081768907159"><ele>1166.0</ele><time>2026-04-26T05:50:08Z</time></trkpt><trkpt lat="45.95930358078703" lon="12.02070528346404"><ele>1166.0</ele><time>2026-04-26T05:50:10Z</time></trkpt><trkpt lat="45.95932282991975" lon="12.020545897565267"><ele>1166.0</ele><time>2026-04-26T05:50:12Z</time></trkpt><trkpt lat="45.95934111430683" lon="12.020373040444587"><ele>1166.0</ele><time>2026-04-26T05:50:14Z</time></trkpt><trkpt lat="45.95934720610701" lon="12.020281325294446"><ele>1166.0</ele><time>2026-04-26T05:50:15Z</time></trkpt><trkpt lat="45.95932616143353" lon="12.020108696636722"><ele>1166.0</ele><time>2026-04-26T05:50:17Z</time></trkpt><trkpt lat="45.95929242239564" lon="12.020001079252486"><ele>1166.0</ele><time>2026-04-26T05:50:19Z</time></trkpt><trkpt lat="45.95922819216698" lon="12.019962720112806"><ele>1166.0</ele><time>2026-04-26T05:50:21Z</time></trkpt><trkpt lat="45.95915175754572" lon="12.019867816517992"><ele>1166.0</ele><time>2026-04-26T05:50:24Z</time></trkpt><trkpt lat="45.95909353232743" lon="12.01980186061085"><ele>1166.0</ele><time>2026-04-26T05:50:26Z</time></trkpt><trkpt lat="45.95904133870461" lon="12.019727242926368"><ele>1166.0</ele><time>2026-04-26T05:50:28Z</time></trkpt><trkpt lat="45.958993392012424" lon="12.019602935362483"><ele>1166.0</ele><time>2026-04-26T05:50:30Z</time></trkpt><trkpt lat="45.95896277432811" lon="12.019502379496204"><ele>1166.0</ele><time>2026-04-26T05:50:32Z</time></trkpt><trkpt lat="45.958929325596294" lon="12.019421009759549"><ele>1166.0</ele><time>2026-04-26T05:50:34Z</time></trkpt><trkpt lat="45.95883851546602" lon="12.019424257591211"><ele>1166.0</ele><time>2026-04-26T05:50:36Z</time></trkpt><trkpt lat="45.95875395366336" lon="12.019466579095377"><ele>1166.0</ele><time>2026-04-26T05:50:38Z</time></trkpt><trkpt lat="45.95865564712671" lon="12.019508575856296"><ele>1166.0</ele><time>2026-04-26T05:50:40Z</time></trkpt><trkpt lat="45.95856792439794" lon="12.019540403328628"><ele>1166.0</ele><time>2026-04-26T05:50:42Z</time></trkpt><trkpt lat="45.958483897397535" lon="12.019566437768486"><ele>1166.0</ele><time>2026-04-26T05:50:44Z</time></trkpt><trkpt lat="45.95839890958147" lon="12.019591644552685"><ele>1166.0</ele><time>2026-04-26T05:50:46Z</time></trkpt><trkpt lat="45.95830110243613" lon="12.019559964706623"><ele>1164.2</ele><time>2026-04-26T05:50:48Z</time></trkpt><trkpt lat="45.95821159063908" lon="12.019498276875511"><ele>1162.3999999999999</ele><time>2026-04-26T05:50:50Z</time></trkpt><trkpt lat="45.95817358122564" lon="12.019402058504896"><ele>1160.6</ele><time>2026-04-26T05:50:52Z</time></trkpt><trkpt lat="45.958199377076745" lon="12.019259134676052"><ele>1158.8</ele><time>2026-04-26T05:50:54Z</time></trkpt><trkpt lat="45.95821664494361" lon="12.019092237800772"><ele>1157.0</ele><time>2026-04-26T05:50:56Z</time></trkpt><trkpt lat="45.95821350682424" lon="12.01897027970863"><ele>1157.0</ele><time>2026-04-26T05:50:58Z</time></trkpt><trkpt lat="45.95817742300922" lon="12.018781759882806"><ele>1157.0</ele><time>2026-04-26T05:51:00Z</time></trkpt><trkpt lat="45.95815182905466" lon="12.0186886692397"><ele>1157.0</ele><time>2026-04-26T05:51:00.999Z</time></trkpt><trkpt lat="45.958086594174645" lon="12.018663073179864"><ele>1157.0</ele><time>2026-04-26T05:51:01.999Z</time></trkpt><trkpt lat="45.95802719173141" lon="12.018575923496982"><ele>1157.0</ele><time>2026-04-26T05:51:03.999Z</time></trkpt><trkpt lat="45.957978641341995" lon="12.018498964023719"><ele>1157.0</ele><time>2026-04-26T05:51:04.999Z</time></trkpt><trkpt lat="45.957936629388975" lon="12.018429096184464"><ele>1157.0</ele><time>2026-04-26T05:51:06Z</time></trkpt><trkpt lat="45.95789574710633" lon="12.018356465994609"><ele>1157.0</ele><time>2026-04-26T05:51:07Z</time></trkpt><trkpt lat="45.95784783629778" lon="12.018250879706914"><ele>1157.0</ele><time>2026-04-26T05:51:08Z</time></trkpt><trkpt lat="45.95780330727339" lon="12.018183683489855"><ele>1157.0</ele><time>2026-04-26T05:51:09Z</time></trkpt><trkpt lat="45.95777514282811" lon="12.018096762796983"><ele>1157.0</ele><time>2026-04-26T05:51:10Z</time></trkpt><trkpt lat="45.957743893420215" lon="12.017962876008593"><ele>1157.0</ele><time>2026-04-26T05:51:11Z</time></trkpt><trkpt lat="45.957716280812804" lon="12.017864217858884"><ele>1155.8333333333335</ele><time>2026-04-26T05:51:12Z</time></trkpt><trkpt lat="45.957674300402864" lon="12.01778426346535"><ele>1154.6666666666667</ele><time>2026-04-26T05:51:13Z</time></trkpt><trkpt lat="45.95768650669686" lon="12.017670687934833"><ele>1153.5</ele><time>2026-04-26T05:51:14Z</time></trkpt><trkpt lat="45.95768661080802" lon="12.01755723565234"><ele>1152.3333333333333</ele><time>2026-04-26T05:51:15Z</time></trkpt><trkpt lat="45.957698493416395" lon="12.017412429347226"><ele>1151.1666666666665</ele><time>2026-04-26T05:51:17Z</time></trkpt><trkpt lat="45.95760832010243" lon="12.017394570393117"><ele>1150.0</ele><time>2026-04-26T05:51:19Z</time></trkpt><trkpt lat="45.957518738320665" lon="12.017403987168953"><ele>1147.5</ele><time>2026-04-26T05:51:22Z</time></trkpt><trkpt lat="45.9574176766478" lon="12.01740061736241"><ele>1145.0</ele><time>2026-04-26T05:51:24Z</time></trkpt><trkpt lat="45.957339672957424" lon="12.01736628915137"><ele>1142.5</ele><time>2026-04-26T05:51:26Z</time></trkpt><trkpt lat="45.9572558357492" lon="12.017353334007243"><ele>1140.0</ele><time>2026-04-26T05:51:28Z</time></trkpt><trkpt lat="45.957166624989824" lon="12.017373465492815"><ele>1137.5</ele><time>2026-04-26T05:51:30Z</time></trkpt><trkpt lat="45.95708751429597" lon="12.017352297909582"><ele>1135.0</ele><time>2026-04-26T05:51:32Z</time></trkpt><trkpt lat="45.95699050608981" lon="12.017354218036823"><ele>1135.0</ele><time>2026-04-26T05:51:34Z</time></trkpt><trkpt lat="45.956895954858894" lon="12.017317310481594"><ele>1135.0</ele><time>2026-04-26T05:51:36Z</time></trkpt><trkpt lat="45.95680389915339" lon="12.017316339216032"><ele>1135.0</ele><time>2026-04-26T05:51:38Z</time></trkpt><trkpt lat="45.956711279323926" lon="12.017319167095684"><ele>1135.0</ele><time>2026-04-26T05:51:40Z</time></trkpt><trkpt lat="45.9566144613621" lon="12.017253332962095"><ele>1135.0</ele><time>2026-04-26T05:51:42Z</time></trkpt><trkpt lat="45.956556775936654" lon="12.017216455610114"><ele>1135.6</ele><time>2026-04-26T05:51:43Z</time></trkpt><trkpt lat="45.95645033605862" lon="12.017288232487616"><ele>1136.2</ele><time>2026-04-26T05:51:45Z</time></trkpt><trkpt lat="45.95635594492575" lon="12.017296939184217"><ele>1136.8</ele><time>2026-04-26T05:51:47Z</time></trkpt><trkpt lat="45.95626887310214" lon="12.017296939160936"><ele>1137.4</ele><time>2026-04-26T05:51:49Z</time></trkpt><trkpt lat="45.9561818724456" lon="12.017283326241921"><ele>1138.0</ele><time>2026-04-26T05:51:51Z</time></trkpt><trkpt lat="45.956108751732316" lon="12.017270251139777"><ele>1138.0</ele><time>2026-04-26T05:51:53Z</time></trkpt><trkpt lat="45.9560290047937" lon="12.017255990944"><ele>1138.0</ele><time>2026-04-26T05:51:55Z</time></trkpt><trkpt lat="45.955967290474696" lon="12.017156650203566"><ele>1138.0</ele><time>2026-04-26T05:51:57Z</time></trkpt><trkpt lat="45.95595884808646" lon="12.017064102742916"><ele>1138.0</ele><time>2026-04-26T05:51:59Z</time></trkpt><trkpt lat="45.95593719788215" lon="12.016971204930943"><ele>1138.0</ele><time>2026-04-26T05:52:01Z</time></trkpt><trkpt lat="45.955940672189776" lon="12.01686836851869"><ele>1138.0</ele><time>2026-04-26T05:52:03Z</time></trkpt><trkpt lat="45.955941479980176" lon="12.016716257751064"><ele>1137.8</ele><time>2026-04-26T05:52:05Z</time></trkpt><trkpt lat="45.95587265178703" lon="12.016548833186"><ele>1137.6</ele><time>2026-04-26T05:52:07Z</time></trkpt><trkpt lat="45.955853993923725" lon="12.016447893225553"><ele>1137.4</ele><time>2026-04-26T05:52:08Z</time></trkpt><trkpt lat="45.95585064333511" lon="12.016333803006374"><ele>1137.2</ele><time>2026-04-26T05:52:09Z</time></trkpt><trkpt lat="45.95589290218173" lon="12.016183484404324"><ele>1137.0</ele><time>2026-04-26T05:52:11Z</time></trkpt><trkpt lat="45.95598732218269" lon="12.016159288808028"><ele>1137.0</ele><time>2026-04-26T05:52:12Z</time></trkpt><trkpt lat="45.95605419670561" lon="12.016011562371114"><ele>1137.0</ele><time>2026-04-26T05:52:14Z</time></trkpt><trkpt lat="45.95611908773623" lon="12.015881522119827"><ele>1137.0</ele><time>2026-04-26T05:52:16Z</time></trkpt><trkpt lat="45.95616689185238" lon="12.015789871832693"><ele>1137.0</ele><time>2026-04-26T05:52:18Z</time></trkpt><trkpt lat="45.95621834120923" lon="12.015695525026299"><ele>1137.0</ele><time>2026-04-26T05:52:20Z</time></trkpt><trkpt lat="45.95626804147607" lon="12.0156073760519"><ele>1143.6</ele><time>2026-04-26T05:52:22Z</time></trkpt><trkpt lat="45.95632192793746" lon="12.015512244975925"><ele>1150.2</ele><time>2026-04-26T05:52:24Z</time></trkpt><trkpt lat="45.95638535643332" lon="12.015406141518868"><ele>1156.8</ele><time>2026-04-26T05:52:26Z</time></trkpt><trkpt lat="45.95645177040502" lon="12.015284786501038"><ele>1163.4</ele><time>2026-04-26T05:52:29Z</time></trkpt><trkpt lat="45.95650286107349" lon="12.015197100234687"><ele>1170.0</ele><time>2026-04-26T05:52:30Z</time></trkpt><trkpt lat="45.95656776033795" lon="12.015081895168898"><ele>1170.0</ele><time>2026-04-26T05:52:32Z</time></trkpt><trkpt lat="45.956644525694394" lon="12.014991515359066"><ele>1170.0</ele><time>2026-04-26T05:52:34Z</time></trkpt><trkpt lat="45.95669837082583" lon="12.01490563500713"><ele>1170.0</ele><time>2026-04-26T05:52:35Z</time></trkpt><trkpt lat="45.956794774519416" lon="12.014792648950543"><ele>1170.0</ele><time>2026-04-26T05:52:37Z</time></trkpt><trkpt lat="45.95683997327582" lon="12.014713146315463"><ele>1170.0</ele><time>2026-04-26T05:52:38Z</time></trkpt><trkpt lat="45.95693116949689" lon="12.01459291493483"><ele>1169.5</ele><time>2026-04-26T05:52:40Z</time></trkpt><trkpt lat="45.95702183087281" lon="12.014482796655644"><ele>1169.0</ele><time>2026-04-26T05:52:42Z</time></trkpt><trkpt lat="45.95707730600788" lon="12.014424380922224"><ele>1168.5</ele><time>2026-04-26T05:52:43Z</time></trkpt><trkpt lat="45.95713179155914" lon="12.01436278136822"><ele>1168.0</ele><time>2026-04-26T05:52:44Z</time></trkpt><trkpt lat="45.95717534512798" lon="12.014290101077563"><ele>1167.5</ele><time>2026-04-26T05:52:44.999Z</time></trkpt><trkpt lat="45.957238283624534" lon="12.014220386893518"><ele>1167.0</ele><time>2026-04-26T05:52:45.999Z</time></trkpt><trkpt lat="45.95731787721685" lon="12.014148726136007"><ele>1167.0</ele><time>2026-04-26T05:52:46.999Z</time></trkpt><trkpt lat="45.95738945401004" lon="12.014060344449293"><ele>1167.0</ele><time>2026-04-26T05:52:47.999Z</time></trkpt><trkpt lat="45.9574506647774" lon="12.01398119795463"><ele>1167.0</ele><time>2026-04-26T05:52:48.999Z</time></trkpt><trkpt lat="45.95751152913172" lon="12.01389949301624"><ele>1167.0</ele><time>2026-04-26T05:52:49.999Z</time></trkpt><trkpt lat="45.95756674412528" lon="12.013817529122647"><ele>1167.0</ele><time>2026-04-26T05:52:50.999Z</time></trkpt><trkpt lat="45.957629821098536" lon="12.013721106363436"><ele>1167.0</ele><time>2026-04-26T05:52:51.999Z</time></trkpt><trkpt lat="45.95768023164325" lon="12.013633533117678"><ele>1163.6</ele><time>2026-04-26T05:52:52.999Z</time></trkpt><trkpt lat="45.957723331321034" lon="12.013541991061551"><ele>1160.2</ele><time>2026-04-26T05:52:53.999Z</time></trkpt><trkpt lat="45.95776527164168" lon="12.013400942519072"><ele>1156.8</ele><time>2026-04-26T05:52:55.999Z</time></trkpt><trkpt lat="45.957767828119906" lon="12.013305508975435"><ele>1153.4</ele><time>2026-04-26T05:52:57.999Z</time></trkpt><trkpt lat="45.95764995136573" lon="12.013214608942961"><ele>1150.0</ele><time>2026-04-26T05:53:01.999Z</time></trkpt><trkpt lat="45.957585244211316" lon="12.013187439525367"><ele>1149.8</ele><time>2026-04-26T05:53:02.999Z</time></trkpt><trkpt lat="45.95752138659585" lon="12.013206485145796"><ele>1149.6</ele><time>2026-04-26T05:53:03.999Z</time></trkpt><trkpt lat="45.95742448760578" lon="12.01323071264291"><ele>1149.4</ele><time>2026-04-26T05:53:05.999Z</time></trkpt><trkpt lat="45.957296944363534" lon="12.013228399291865"><ele>1149.2</ele><time>2026-04-26T05:53:07.999Z</time></trkpt><trkpt lat="45.957233103368885" lon="12.013214537882288"><ele>1149.0</ele><time>2026-04-26T05:53:08.999Z</time></trkpt><trkpt lat="45.957129723214145" lon="12.013173563630989"><ele>1149.0</ele><time>2026-04-26T05:53:10.999Z</time></trkpt><trkpt lat="45.95702800004375" lon="12.013118152268186"><ele>1149.0</ele><time>2026-04-26T05:53:13Z</time></trkpt><trkpt lat="45.95696401278416" lon="12.013084105553135"><ele>1149.0</ele><time>2026-04-26T05:53:14Z</time></trkpt><trkpt lat="45.95685738167227" lon="12.013042499353633"><ele>1149.0</ele><time>2026-04-26T05:53:16Z</time></trkpt><trkpt lat="45.956746248187784" lon="12.013021452326496"><ele>1149.0</ele><time>2026-04-26T05:53:18Z</time></trkpt><trkpt lat="45.956621945621656" lon="12.013027665584495"><ele>1149.4</ele><time>2026-04-26T05:53:20Z</time></trkpt><trkpt lat="45.9565361484972" lon="12.01299277913659"><ele>1149.8000000000002</ele><time>2026-04-26T05:53:22Z</time></trkpt><trkpt lat="45.95647244028295" lon="12.012999623841102"><ele>1150.1999999999998</ele><time>2026-04-26T05:53:24Z</time></trkpt><trkpt lat="45.95639090701742" lon="12.013002308304024"><ele>1150.6</ele><time>2026-04-26T05:53:26Z</time></trkpt><trkpt lat="45.95626967003179" lon="12.01300635629077"><ele>1151.0</ele><time>2026-04-26T05:53:28Z</time></trkpt><trkpt lat="45.95616321814101" lon="12.01301312702923"><ele>1151.0</ele><time>2026-04-26T05:53:30Z</time></trkpt><trkpt lat="45.956064362766625" lon="12.013006934263457"><ele>1151.0</ele><time>2026-04-26T05:53:32Z</time></trkpt><trkpt lat="45.95597350870279" lon="12.013003920745872"><ele>1151.0</ele><time>2026-04-26T05:53:33Z</time></trkpt><trkpt lat="45.955891974419146" lon="12.012995866496093"><ele>1151.0</ele><time>2026-04-26T05:53:34Z</time></trkpt><trkpt lat="45.95580050236455" lon="12.012982558482841"><ele>1151.0</ele><time>2026-04-26T05:53:35Z</time></trkpt><trkpt lat="45.95571552443758" lon="12.012968889450804"><ele>1151.0</ele><time>2026-04-26T05:53:36Z</time></trkpt><trkpt lat="45.95562302477952" lon="12.01295305616451"><ele>1152.5</ele><time>2026-04-26T05:53:37Z</time></trkpt><trkpt lat="45.95553974583663" lon="12.012935952131928"><ele>1154.0</ele><time>2026-04-26T05:53:38Z</time></trkpt><trkpt lat="45.95546091157576" lon="12.012918752911398"><ele>1155.5</ele><time>2026-04-26T05:53:39Z</time></trkpt><trkpt lat="45.95538392596942" lon="12.01289859960064"><ele>1157.0</ele><time>2026-04-26T05:53:40Z</time></trkpt><trkpt lat="45.9553092161035" lon="12.012876162550354"><ele>1158.5</ele><time>2026-04-26T05:53:41Z</time></trkpt><trkpt lat="45.95521702475226" lon="12.012843101004336"><ele>1160.0</ele><time>2026-04-26T05:53:43Z</time></trkpt><trkpt lat="45.9551418492011" lon="12.012811837060678"><ele>1160.0</ele><time>2026-04-26T05:53:45Z</time></trkpt><trkpt lat="45.95505998744678" lon="12.01275795693891"><ele>1160.0</ele><time>2026-04-26T05:53:47Z</time></trkpt><trkpt lat="45.95497316188587" lon="12.012659899152432"><ele>1160.0</ele><time>2026-04-26T05:53:49Z</time></trkpt><trkpt lat="45.95493870936895" lon="12.012563884877162"><ele>1160.0</ele><time>2026-04-26T05:53:50Z</time></trkpt><trkpt lat="45.95490568757503" lon="12.012468825212851"><ele>1160.0</ele><time>2026-04-26T05:53:51Z</time></trkpt><trkpt lat="45.954933291251194" lon="12.01236005007804"><ele>1160.0</ele><time>2026-04-26T05:53:52Z</time></trkpt><trkpt lat="45.95499755830104" lon="12.012307868940036"><ele>1160.8333333333335</ele><time>2026-04-26T05:53:53Z</time></trkpt><trkpt lat="45.95501681659576" lon="12.01219911957584"><ele>1161.6666666666667</ele><time>2026-04-26T05:53:54Z</time></trkpt><trkpt lat="45.95503936959658" lon="12.012082343779893"><ele>1162.5</ele><time>2026-04-26T05:53:56Z</time></trkpt><trkpt lat="45.955072483348566" lon="12.011947413547253"><ele>1163.3333333333333</ele><time>2026-04-26T05:53:58Z</time></trkpt><trkpt lat="45.95509360711831" lon="12.0118388258491"><ele>1164.1666666666665</ele><time>2026-04-26T05:54:00Z</time></trkpt><trkpt lat="45.955107049361885" lon="12.011700824597645"><ele>1165.0</ele><time>2026-04-26T05:54:02Z</time></trkpt><trkpt lat="45.955134853583644" lon="12.011586112865123"><ele>1165.0</ele><time>2026-04-26T05:54:04Z</time></trkpt><trkpt lat="45.95516699201803" lon="12.011460805418524"><ele>1165.0</ele><time>2026-04-26T05:54:06Z</time></trkpt><trkpt lat="45.955200993964894" lon="12.011326901244642"><ele>1165.0</ele><time>2026-04-26T05:54:09Z</time></trkpt><trkpt lat="45.95514782123162" lon="12.011193574747002"><ele>1165.0</ele><time>2026-04-26T05:54:11Z</time></trkpt><trkpt lat="45.955230805136964" lon="12.011121247813627"><ele>1165.0</ele><time>2026-04-26T05:54:13Z</time></trkpt><trkpt lat="45.955053946206526" lon="12.010935728567503"><ele>1167.5</ele><time>2026-04-26T05:54:15Z</time></trkpt><trkpt lat="45.95505123330969" lon="12.010778408805665"><ele>1170.0</ele><time>2026-04-26T05:54:17Z</time></trkpt><trkpt lat="45.95511512676614" lon="12.010724763101463"><ele>1172.5</ele><time>2026-04-26T05:54:18Z</time></trkpt><trkpt lat="45.95515875069721" lon="12.010653461836753"><ele>1175.0</ele><time>2026-04-26T05:54:19Z</time></trkpt><trkpt lat="45.95521379722025" lon="12.010575112702755"><ele>1177.5</ele><time>2026-04-26T05:54:20Z</time></trkpt><trkpt lat="45.95525441119657" lon="12.010482723724994"><ele>1180.0</ele><time>2026-04-26T05:54:21Z</time></trkpt><trkpt lat="45.95528556851605" lon="12.010393077090697"><ele>1180.0</ele><time>2026-04-26T05:54:22Z</time></trkpt><trkpt lat="45.955417808440565" lon="12.010333536853723"><ele>1180.0</ele><time>2026-04-26T05:54:23Z</time></trkpt><trkpt lat="45.955436399439414" lon="12.010227940833598"><ele>1180.0</ele><time>2026-04-26T05:54:24Z</time></trkpt><trkpt lat="45.95545553961915" lon="12.010093838355822"><ele>1180.0</ele><time>2026-04-26T05:54:25Z</time></trkpt><trkpt lat="45.95547597570538" lon="12.009934203351085"><ele>1180.0</ele><time>2026-04-26T05:54:27Z</time></trkpt><trkpt lat="45.9554971353389" lon="12.00982650347452"><ele>1180.0</ele><time>2026-04-26T05:54:29Z</time></trkpt><trkpt lat="45.955507803264865" lon="12.009669134780383"><ele>1180.0</ele><time>2026-04-26T05:54:31Z</time></trkpt><trkpt lat="45.95552001101719" lon="12.00952162638978"><ele>1180.0</ele><time>2026-04-26T05:54:33Z</time></trkpt><trkpt lat="45.95554687183211" lon="12.009405839854868"><ele>1180.0</ele><time>2026-04-26T05:54:35Z</time></trkpt><trkpt lat="45.95556470355557" lon="12.0093010134442"><ele>1180.0</ele><time>2026-04-26T05:54:37Z</time></trkpt><trkpt lat="45.95559333095771" lon="12.009143175013511"><ele>1180.0</ele><time>2026-04-26T05:54:39Z</time></trkpt><trkpt lat="45.95561115744368" lon="12.009053693824633"><ele>1180.0</ele><time>2026-04-26T05:54:40Z</time></trkpt><trkpt lat="45.955624168040124" lon="12.008944053926248"><ele>1180.0</ele><time>2026-04-26T05:54:41Z</time></trkpt><trkpt lat="45.95564498536273" lon="12.008845800655921"><ele>1180.0</ele><time>2026-04-26T05:54:42Z</time></trkpt><trkpt lat="45.955661691189015" lon="12.008738502468677"><ele>1180.0</ele><time>2026-04-26T05:54:42.999Z</time></trkpt><trkpt lat="45.95569940370971" lon="12.00863439231358"><ele>1180.0</ele><time>2026-04-26T05:54:43.999Z</time></trkpt><trkpt lat="45.955728998330024" lon="12.008490162171972"><ele>1180.0</ele><time>2026-04-26T05:54:44.999Z</time></trkpt><trkpt lat="45.955754686837466" lon="12.008364968418405"><ele>1180.0</ele><time>2026-04-26T05:54:45.999Z</time></trkpt><trkpt lat="45.95577606326197" lon="12.008260789953587"><ele>1180.0</ele><time>2026-04-26T05:54:46.999Z</time></trkpt><trkpt lat="45.95579699668354" lon="12.008161313750266"><ele>1180.0</ele><time>2026-04-26T05:54:47.999Z</time></trkpt><trkpt lat="45.95581062265262" lon="12.008049107171862"><ele>1180.0</ele><time>2026-04-26T05:54:48.999Z</time></trkpt><trkpt lat="45.955839977825526" lon="12.00791362043891"><ele>1180.0</ele><time>2026-04-26T05:54:49.999Z</time></trkpt><trkpt lat="45.95586900663819" lon="12.007795448168352"><ele>1178.2</ele><time>2026-04-26T05:54:50.999Z</time></trkpt><trkpt lat="45.955920452621875" lon="12.007626335053734"><ele>1176.4</ele><time>2026-04-26T05:54:52.999Z</time></trkpt><trkpt lat="45.9559493781731" lon="12.007506594336846"><ele>1174.6</ele><time>2026-04-26T05:54:53.999Z</time></trkpt><trkpt lat="45.95598130307703" lon="12.007378543229267"><ele>1172.8</ele><time>2026-04-26T05:54:55.999Z</time></trkpt><trkpt lat="45.95603833001845" lon="12.007279574113452"><ele>1171.0</ele><time>2026-04-26T05:54:57.999Z</time></trkpt><trkpt lat="45.956017147576866" lon="12.007152827240576"><ele>1168.3999999999999</ele><time>2026-04-26T05:54:58.999Z</time></trkpt><trkpt lat="45.95586594195679" lon="12.007101457881822"><ele>1165.8</ele><time>2026-04-26T05:54:59.999Z</time></trkpt><trkpt lat="45.95577233688505" lon="12.00716611520713"><ele>1163.1999999999998</ele><time>2026-04-26T05:55:00.999Z</time></trkpt><trkpt lat="45.955689628339734" lon="12.007220613557722"><ele>1160.6</ele><time>2026-04-26T05:55:01.999Z</time></trkpt><trkpt lat="45.95562881048641" lon="12.007247942641435"><ele>1158.0</ele><time>2026-04-26T05:55:02.999Z</time></trkpt><trkpt lat="45.955545556175146" lon="12.007294635594024"><ele>1158.0</ele><time>2026-04-26T05:55:03.999Z</time></trkpt><trkpt lat="45.955479475979715" lon="12.007277630493762"><ele>1158.0</ele><time>2026-04-26T05:55:04.999Z</time></trkpt><trkpt lat="45.9554008941703" lon="12.007279023712684"><ele>1158.0</ele><time>2026-04-26T05:55:05.999Z</time></trkpt><trkpt lat="45.955314250469" lon="12.007281030897609"><ele>1158.0</ele><time>2026-04-26T05:55:06.999Z</time></trkpt><trkpt lat="45.9552435858689" lon="12.00728266789627"><ele>1158.0</ele><time>2026-04-26T05:55:07.999Z</time></trkpt><trkpt lat="45.95511516323618" lon="12.00730522442133"><ele>1158.0</ele><time>2026-04-26T05:55:09.999Z</time></trkpt><trkpt lat="45.955047896549274" lon="12.007303535835309"><ele>1158.8</ele><time>2026-04-26T05:55:10.999Z</time></trkpt><trkpt lat="45.95493868428388" lon="12.00733143747903"><ele>1159.6</ele><time>2026-04-26T05:55:12.999Z</time></trkpt><trkpt lat="45.95483975655272" lon="12.007335243143926"><ele>1160.4</ele><time>2026-04-26T05:55:14.999Z</time></trkpt><trkpt lat="45.954728101287635" lon="12.00731284996391"><ele>1161.2</ele><time>2026-04-26T05:55:16.999Z</time></trkpt><trkpt lat="45.954653181053416" lon="12.007283316985731"><ele>1162.0</ele><time>2026-04-26T05:55:18Z</time></trkpt><trkpt lat="45.95457951872208" lon="12.007256564659599"><ele>1162.0</ele><time>2026-04-26T05:55:19Z</time></trkpt><trkpt lat="45.95447451936026" lon="12.007158430528017"><ele>1162.0</ele><time>2026-04-26T05:55:21Z</time></trkpt><trkpt lat="45.954406935553855" lon="12.007100688264996"><ele>1162.0</ele><time>2026-04-26T05:55:22Z</time></trkpt><trkpt lat="45.95435308027164" lon="12.007050607358321"><ele>1162.0</ele><time>2026-04-26T05:55:23Z</time></trkpt><trkpt lat="45.95428174949758" lon="12.00700031563224"><ele>1162.0</ele><time>2026-04-26T05:55:24Z</time></trkpt><trkpt lat="45.95420973654636" lon="12.006914102598492"><ele>1162.0</ele><time>2026-04-26T05:55:26Z</time></trkpt><trkpt lat="45.95411485814055" lon="12.0068138959097"><ele>1161.8</ele><time>2026-04-26T05:55:28Z</time></trkpt><trkpt lat="45.954027430970406" lon="12.006731054596303"><ele>1161.6</ele><time>2026-04-26T05:55:30Z</time></trkpt><trkpt lat="45.95397350021694" lon="12.006674752760846"><ele>1161.3999999999999</ele><time>2026-04-26T05:55:32Z</time></trkpt><trkpt lat="45.95392069355094" lon="12.006624602498945"><ele>1161.2</ele><time>2026-04-26T05:55:33Z</time></trkpt><trkpt lat="45.95382353064135" lon="12.00655181418145"><ele>1161.0</ele><time>2026-04-26T05:55:35Z</time></trkpt><trkpt lat="45.95371719646064" lon="12.006454442150842"><ele>1161.0</ele><time>2026-04-26T05:55:37Z</time></trkpt><trkpt lat="45.953633151018984" lon="12.006402420255961"><ele>1161.0</ele><time>2026-04-26T05:55:39Z</time></trkpt><trkpt lat="45.95354601611019" lon="12.006357523530653"><ele>1161.0</ele><time>2026-04-26T05:55:41Z</time></trkpt><trkpt lat="45.95346316072838" lon="12.006318065803834"><ele>1161.0</ele><time>2026-04-26T05:55:42Z</time></trkpt><trkpt lat="45.95338596644311" lon="12.006274213648478"><ele>1161.0</ele><time>2026-04-26T05:55:44Z</time></trkpt><trkpt lat="45.9533049374614" lon="12.006190839679912"><ele>1167.2</ele><time>2026-04-26T05:55:46Z</time></trkpt><trkpt lat="45.95327460048094" lon="12.006066683657645"><ele>1173.3999999999999</ele><time>2026-04-26T05:55:48Z</time></trkpt><trkpt lat="45.95326777698284" lon="12.005974382931264"><ele>1179.6</ele><time>2026-04-26T05:55:49Z</time></trkpt><trkpt lat="45.953273530980475" lon="12.005828452931866"><ele>1185.8</ele><time>2026-04-26T05:55:51Z</time></trkpt><trkpt lat="45.95329574352507" lon="12.005682806719616"><ele>1192.0</ele><time>2026-04-26T05:55:53Z</time></trkpt><trkpt lat="45.953346864115794" lon="12.005527546401634"><ele>1183.4</ele><time>2026-04-26T05:55:55Z</time></trkpt><trkpt lat="45.95338361759143" lon="12.005371274306729"><ele>1174.8000000000002</ele><time>2026-04-26T05:55:57Z</time></trkpt><trkpt lat="45.953408563373465" lon="12.005244409849647"><ele>1166.2</ele><time>2026-04-26T05:55:58Z</time></trkpt><trkpt lat="45.953425936365846" lon="12.005108489050718"><ele>1157.6000000000001</ele><time>2026-04-26T05:55:59Z</time></trkpt><trkpt lat="45.953451066606675" lon="12.004986946561933"><ele>1149.0</ele><time>2026-04-26T05:56:00Z</time></trkpt><trkpt lat="45.953471982597286" lon="12.00487080416985"><ele>1149.0</ele><time>2026-04-26T05:56:01Z</time></trkpt><trkpt lat="45.95350401958872" lon="12.004725049564822"><ele>1149.0</ele><time>2026-04-26T05:56:03Z</time></trkpt><trkpt lat="45.953521388977" lon="12.004598847775327"><ele>1149.0</ele><time>2026-04-26T05:56:05Z</time></trkpt><trkpt lat="45.95350250597599" lon="12.004460143738433"><ele>1149.0</ele><time>2026-04-26T05:56:07Z</time></trkpt><trkpt lat="45.95346401980015" lon="12.004290600202259"><ele>1149.0</ele><time>2026-04-26T05:56:09Z</time></trkpt><trkpt lat="45.953417400930554" lon="12.004109276465119"><ele>1155.6666666666667</ele><time>2026-04-26T05:56:11Z</time></trkpt><trkpt lat="45.95335194560926" lon="12.004012449746183"><ele>1162.3333333333333</ele><time>2026-04-26T05:56:12Z</time></trkpt><trkpt lat="45.953324387139745" lon="12.003925007910139"><ele>1169.0</ele><time>2026-04-26T05:56:13Z</time></trkpt><trkpt lat="45.953286811564844" lon="12.003839270348445"><ele>1175.6666666666665</ele><time>2026-04-26T05:56:14Z</time></trkpt><trkpt lat="45.95324415948552" lon="12.00374545581043"><ele>1182.3333333333333</ele><time>2026-04-26T05:56:15Z</time></trkpt><trkpt lat="45.95316185033057" lon="12.003614143614294"><ele>1189.0</ele><time>2026-04-26T05:56:17Z</time></trkpt><trkpt lat="45.95312510424178" lon="12.003516302536134"><ele>1189.0</ele><time>2026-04-26T05:56:18Z</time></trkpt><trkpt lat="45.95306080442543" lon="12.003415376212995"><ele>1189.0</ele><time>2026-04-26T05:56:19Z</time></trkpt><trkpt lat="45.95300430149959" lon="12.003352690432923"><ele>1189.0</ele><time>2026-04-26T05:56:20Z</time></trkpt><trkpt lat="45.95296610393497" lon="12.003245305129335"><ele>1189.0</ele><time>2026-04-26T05:56:22Z</time></trkpt><trkpt lat="45.95296889487666" lon="12.003094831016368"><ele>1189.0</ele><time>2026-04-26T05:56:24Z</time></trkpt><trkpt lat="45.95301309882521" lon="12.002949156259973"><ele>1189.4</ele><time>2026-04-26T05:56:26Z</time></trkpt><trkpt lat="45.95305432514793" lon="12.002803327187154"><ele>1189.8000000000002</ele><time>2026-04-26T05:56:28Z</time></trkpt><trkpt lat="45.95309012141292" lon="12.002646758491906"><ele>1190.1999999999998</ele><time>2026-04-26T05:56:30Z</time></trkpt><trkpt lat="45.953084699661986" lon="12.002507652438346"><ele>1190.6</ele><time>2026-04-26T05:56:32Z</time></trkpt><trkpt lat="45.95304428841862" lon="12.002412465010535"><ele>1191.0</ele><time>2026-04-26T05:56:34Z</time></trkpt><trkpt lat="45.952982795945715" lon="12.002365399400839"><ele>1189.0</ele><time>2026-04-26T05:56:36Z</time></trkpt><trkpt lat="45.95289517442556" lon="12.00228176289435"><ele>1187.0</ele><time>2026-04-26T05:56:39Z</time></trkpt><trkpt lat="45.952828588810114" lon="12.00222810694513"><ele>1185.0</ele><time>2026-04-26T05:56:40Z</time></trkpt><trkpt lat="45.9527563788202" lon="12.002172878098552"><ele>1183.0</ele><time>2026-04-26T05:56:42Z</time></trkpt><trkpt lat="45.95268132992918" lon="12.00211397852986"><ele>1181.0</ele><time>2026-04-26T05:56:43Z</time></trkpt><trkpt lat="45.95261534318194" lon="12.002087821267345"><ele>1179.0</ele><time>2026-04-26T05:56:44Z</time></trkpt><trkpt lat="45.952543504551926" lon="12.002036212736023"><ele>1184.5</ele><time>2026-04-26T05:56:45Z</time></trkpt><trkpt lat="45.95247398241401" lon="12.001957583877067"><ele>1190.0</ele><time>2026-04-26T05:56:46Z</time></trkpt><trkpt lat="45.952410332611144" lon="12.00190979411089"><ele>1195.5</ele><time>2026-04-26T05:56:47Z</time></trkpt><trkpt lat="45.95234768168211" lon="12.001860999164872"><ele>1201.0</ele><time>2026-04-26T05:56:48Z</time></trkpt><trkpt lat="45.952279688370446" lon="12.001824587012619"><ele>1206.5</ele><time>2026-04-26T05:56:49Z</time></trkpt><trkpt lat="45.95219147123365" lon="12.001745056477752"><ele>1212.0</ele><time>2026-04-26T05:56:51Z</time></trkpt><trkpt lat="45.95210121477338" lon="12.001606459931192"><ele>1212.0</ele><time>2026-04-26T05:56:53Z</time></trkpt><trkpt lat="45.952057609977295" lon="12.001539989420479"><ele>1212.0</ele><time>2026-04-26T05:56:54Z</time></trkpt><trkpt lat="45.95200304017963" lon="12.001402181042915"><ele>1212.0</ele><time>2026-04-26T05:56:56Z</time></trkpt><trkpt lat="45.9520301692931" lon="12.001316623456002"><ele>1212.0</ele><time>2026-04-26T05:56:58Z</time></trkpt><trkpt lat="45.952067233568336" lon="12.001177578047342"><ele>1212.0</ele><time>2026-04-26T05:57:00Z</time></trkpt><trkpt lat="45.95209100840732" lon="12.001033509538155"><ele>1212.0</ele><time>2026-04-26T05:57:01.999Z</time></trkpt><trkpt lat="45.952124840577845" lon="12.000926284111355"><ele>1212.4</ele><time>2026-04-26T05:57:03.999Z</time></trkpt><trkpt lat="45.95215758120092" lon="12.000796513437828"><ele>1212.8000000000002</ele><time>2026-04-26T05:57:05.999Z</time></trkpt><trkpt lat="45.95216497981037" lon="12.00070420357436"><ele>1213.2</ele><time>2026-04-26T05:57:06.999Z</time></trkpt><trkpt lat="45.952188693429825" lon="12.000566884367034"><ele>1213.6000000000001</ele><time>2026-04-26T05:57:08.999Z</time></trkpt><trkpt lat="45.95219953067772" lon="12.00043436673844"><ele>1214.0</ele><time>2026-04-26T05:57:10.999Z</time></trkpt><trkpt lat="45.95215950048986" lon="12.000278861312712"><ele>1214.0</ele><time>2026-04-26T05:57:12.999Z</time></trkpt><trkpt lat="45.95210370316826" lon="12.000202086025661"><ele>1214.0</ele><time>2026-04-26T05:57:14.999Z</time></trkpt><trkpt lat="45.95200017783951" lon="12.000174147012746"><ele>1214.0</ele><time>2026-04-26T05:57:16.999Z</time></trkpt><trkpt lat="45.951948012328714" lon="12.000082965253208"><ele>1214.0</ele><time>2026-04-26T05:57:17.999Z</time></trkpt><trkpt lat="45.95188698466194" lon="12.000045114326948"><ele>1214.0</ele><time>2026-04-26T05:57:18.999Z</time></trkpt><trkpt lat="45.951776395882604" lon="11.999978724353324"><ele>1220.1666666666667</ele><time>2026-04-26T05:57:20.999Z</time></trkpt><trkpt lat="45.95167055750747" lon="11.99991422127356"><ele>1226.3333333333335</ele><time>2026-04-26T05:57:22.999Z</time></trkpt><trkpt lat="45.951584696437564" lon="11.99986261557024"><ele>1232.5</ele><time>2026-04-26T05:57:24Z</time></trkpt><trkpt lat="45.95150368107578" lon="11.999834042802501"><ele>1238.6666666666667</ele><time>2026-04-26T05:57:25Z</time></trkpt><trkpt lat="45.95144972192529" lon="11.999773132492132"><ele>1244.8333333333333</ele><time>2026-04-26T05:57:26Z</time></trkpt><trkpt lat="45.951453050895324" lon="11.999663057364074"><ele>1251.0</ele><time>2026-04-26T05:57:29Z</time></trkpt><trkpt lat="45.95147277396867" lon="11.999507630269939"><ele>1251.0</ele><time>2026-04-26T05:57:31Z</time></trkpt><trkpt lat="45.951521065787354" lon="11.999431655550325"><ele>1251.0</ele><time>2026-04-26T05:57:32Z</time></trkpt><trkpt lat="45.951574472852954" lon="11.999301331409054"><ele>1251.0</ele><time>2026-04-26T05:57:34Z</time></trkpt><trkpt lat="45.95163496355238" lon="11.999227770145518"><ele>1251.0</ele><time>2026-04-26T05:57:35Z</time></trkpt><trkpt lat="45.95168494240393" lon="11.999140481571198"><ele>1251.0</ele><time>2026-04-26T05:57:36Z</time></trkpt><trkpt lat="45.951717399748645" lon="11.999046828444763"><ele>1251.0</ele><time>2026-04-26T05:57:37Z</time></trkpt><trkpt lat="45.951788171027964" lon="11.998940976982064"><ele>1245.6666666666667</ele><time>2026-04-26T05:57:39Z</time></trkpt><trkpt lat="45.95184928152516" lon="11.998813117736443"><ele>1240.3333333333333</ele><time>2026-04-26T05:57:40Z</time></trkpt><trkpt lat="45.951897100677556" lon="11.998705539972322"><ele>1235.0</ele><time>2026-04-26T05:57:41Z</time></trkpt><trkpt lat="45.95193811667535" lon="11.998616929971073"><ele>1229.6666666666665</ele><time>2026-04-26T05:57:42Z</time></trkpt><trkpt lat="45.95198259173723" lon="11.998536232942383"><ele>1224.3333333333333</ele><time>2026-04-26T05:57:43Z</time></trkpt><trkpt lat="45.952046606207816" lon="11.998449390109927"><ele>1219.0</ele><time>2026-04-26T05:57:44Z</time></trkpt><trkpt lat="45.952110356012845" lon="11.99838018055289"><ele>1224.5</ele><time>2026-04-26T05:57:45Z</time></trkpt><trkpt lat="45.952186524269095" lon="11.998326455821925"><ele>1230.0</ele><time>2026-04-26T05:57:47Z</time></trkpt><trkpt lat="45.952247494159536" lon="11.998276294889482"><ele>1235.5</ele><time>2026-04-26T05:57:48Z</time></trkpt><trkpt lat="45.95230293560871" lon="11.998230682445417"><ele>1241.0</ele><time>2026-04-26T05:57:49Z</time></trkpt><trkpt lat="45.95235611077963" lon="11.998162160305764"><ele>1246.5</ele><time>2026-04-26T05:57:50Z</time></trkpt><trkpt lat="45.952431123551456" lon="11.998127540450865"><ele>1252.0</ele><time>2026-04-26T05:57:51Z</time></trkpt><trkpt lat="45.95250263601434" lon="11.998070919466882"><ele>1245.8</ele><time>2026-04-26T05:57:52Z</time></trkpt><trkpt lat="45.952597478641124" lon="11.997995826530111"><ele>1239.6</ele><time>2026-04-26T05:57:54Z</time></trkpt><trkpt lat="45.95265312245877" lon="11.997951129932037"><ele>1233.3999999999999</ele><time>2026-04-26T05:57:55Z</time></trkpt><trkpt lat="45.952739196210395" lon="11.997881589759306"><ele>1227.2</ele><time>2026-04-26T05:57:57Z</time></trkpt><trkpt lat="45.95279631066563" lon="11.997835445912347"><ele>1221.0</ele><time>2026-04-26T05:57:58Z</time></trkpt><trkpt lat="45.95289571390454" lon="11.997749670068023"><ele>1221.0</ele><time>2026-04-26T05:58:00Z</time></trkpt><trkpt lat="45.95295881173474" lon="11.997695057424616"><ele>1221.0</ele><time>2026-04-26T05:58:01Z</time></trkpt><trkpt lat="45.95306534811731" lon="11.997591924204682"><ele>1221.0</ele><time>2026-04-26T05:58:03Z</time></trkpt><trkpt lat="45.95316029576897" lon="11.997508385507414"><ele>1221.0</ele><time>2026-04-26T05:58:05Z</time></trkpt><trkpt lat="45.95322638504901" lon="11.997435756660384"><ele>1221.0</ele><time>2026-04-26T05:58:07Z</time></trkpt><trkpt lat="45.953295813522345" lon="11.997336089542957"><ele>1222.3333333333333</ele><time>2026-04-26T05:58:09Z</time></trkpt><trkpt lat="45.95334345298476" lon="11.997268287536286"><ele>1223.6666666666667</ele><time>2026-04-26T05:58:10Z</time></trkpt><trkpt lat="45.95337182602486" lon="11.997186158793365"><ele>1225.0</ele><time>2026-04-26T05:58:11Z</time></trkpt><trkpt lat="45.95337696974021" lon="11.997090424562275"><ele>1226.3333333333335</ele><time>2026-04-26T05:58:12Z</time></trkpt><trkpt lat="45.953422369677654" lon="11.996952950151377"><ele>1227.6666666666667</ele><time>2026-04-26T05:58:14Z</time></trkpt><trkpt lat="45.95344685612222" lon="11.99686877156746"><ele>1229.0</ele><time>2026-04-26T05:58:15Z</time></trkpt><trkpt lat="45.95347903488034" lon="11.996725101715883"><ele>1232.0</ele><time>2026-04-26T05:58:17Z</time></trkpt><trkpt lat="45.95348399301016" lon="11.996626477690223"><ele>1235.0</ele><time>2026-04-26T05:58:18Z</time></trkpt><trkpt lat="45.9535229200208" lon="11.996486472357404"><ele>1238.0</ele><time>2026-04-26T05:58:20Z</time></trkpt><trkpt lat="45.95353902408435" lon="11.99633061191694"><ele>1241.0</ele><time>2026-04-26T05:58:22Z</time></trkpt><trkpt lat="45.95355648731417" lon="11.996220013921409"><ele>1244.0</ele><time>2026-04-26T05:58:24Z</time></trkpt><trkpt lat="45.95357741143075" lon="11.996114766818561"><ele>1247.0</ele><time>2026-04-26T05:58:26Z</time></trkpt><trkpt lat="45.953550299800426" lon="11.996002139907883"><ele>1247.0</ele><time>2026-04-26T05:58:28Z</time></trkpt><trkpt lat="45.95358085021246" lon="11.995856642494527"><ele>1247.0</ele><time>2026-04-26T05:58:30Z</time></trkpt><trkpt lat="45.95374276781379" lon="11.995963032225099"><ele>1247.0</ele><time>2026-04-26T05:58:49Z</time></trkpt><trkpt lat="45.95380610477765" lon="11.995970518664942"><ele>1247.0</ele><time>2026-04-26T05:58:51Z</time></trkpt><trkpt lat="45.953856893427506" lon="11.996025867246628"><ele>1247.0</ele><time>2026-04-26T05:58:54.999Z</time></trkpt><trkpt lat="45.95380511949553" lon="11.996116101259824"><ele>1247.0</ele><time>2026-04-26T05:58:58.999Z</time></trkpt><trkpt lat="45.95373040640776" lon="11.996085866050587"><ele>1247.0</ele><time>2026-04-26T05:59:00.999Z</time></trkpt><trkpt lat="45.953650246379546" lon="11.996057470144542"><ele>1247.0</ele><time>2026-04-26T05:59:04.999Z</time></trkpt><trkpt lat="45.953601545307016" lon="11.996121553360057"><ele>1247.0</ele><time>2026-04-26T05:59:06.999Z</time></trkpt><trkpt lat="45.95351854500316" lon="11.996128252269143"><ele>1247.0</ele><time>2026-04-26T05:59:09.999Z</time></trkpt><trkpt lat="45.953499827274264" lon="11.995998564233108"><ele>1247.0</ele><time>2026-04-26T05:59:12.999Z</time></trkpt><trkpt lat="45.9535356873318" lon="11.995858709931264"><ele>1250.0</ele><time>2026-04-26T05:59:14.999Z</time></trkpt><trkpt lat="45.95358504683551" lon="11.995760027384511"><ele>1253.0</ele><time>2026-04-26T05:59:15.999Z</time></trkpt><trkpt lat="45.95363135172334" lon="11.995671137065878"><ele>1256.0</ele><time>2026-04-26T05:59:16.999Z</time></trkpt><trkpt lat="45.95369391312743" lon="11.995628803698713"><ele>1259.0</ele><time>2026-04-26T05:59:17.999Z</time></trkpt><trkpt lat="45.953739875244324" lon="11.995546029541796"><ele>1262.0</ele><time>2026-04-26T05:59:18.999Z</time></trkpt><trkpt lat="45.95378284719835" lon="11.995452031682433"><ele>1265.0</ele><time>2026-04-26T05:59:19.999Z</time></trkpt><trkpt lat="45.95382573527153" lon="11.995347527681918"><ele>1265.0</ele><time>2026-04-26T05:59:20.999Z</time></trkpt><trkpt lat="45.95387198965553" lon="11.9952278528199"><ele>1265.0</ele><time>2026-04-26T05:59:21.999Z</time></trkpt><trkpt lat="45.95391106606316" lon="11.99511699505176"><ele>1265.0</ele><time>2026-04-26T05:59:22.999Z</time></trkpt><trkpt lat="45.95395167807689" lon="11.994998160321128"><ele>1265.0</ele><time>2026-04-26T05:59:23.999Z</time></trkpt><trkpt lat="45.953978120077174" lon="11.994882886496574"><ele>1265.0</ele><time>2026-04-26T05:59:24.999Z</time></trkpt><trkpt lat="45.95398828887349" lon="11.994762133060306"><ele>1265.0</ele><time>2026-04-26T05:59:25.999Z</time></trkpt><trkpt lat="45.953979459237544" lon="11.994653544922013"><ele>1264.1666666666667</ele><time>2026-04-26T05:59:26.999Z</time></trkpt><trkpt lat="45.95399086743986" lon="11.994533060590241"><ele>1263.3333333333335</ele><time>2026-04-26T05:59:27.999Z</time></trkpt><trkpt lat="45.95400319873209" lon="11.99441429289548"><ele>1262.5</ele><time>2026-04-26T05:59:28.999Z</time></trkpt><trkpt lat="45.9540182072671" lon="11.994305320530966"><ele>1261.6666666666667</ele><time>2026-04-26T05:59:30Z</time></trkpt><trkpt lat="45.954056833470354" lon="11.99420777421095"><ele>1260.8333333333333</ele><time>2026-04-26T05:59:31Z</time></trkpt><trkpt lat="45.95408317091308" lon="11.994097874327862"><ele>1260.0</ele><time>2026-04-26T05:59:32Z</time></trkpt><trkpt lat="45.954107849931106" lon="11.994004872760689"><ele>1257.8333333333333</ele><time>2026-04-26T05:59:33Z</time></trkpt><trkpt lat="45.954126594430406" lon="11.993879497991912"><ele>1255.6666666666667</ele><time>2026-04-26T05:59:34Z</time></trkpt><trkpt lat="45.95415536326423" lon="11.993768234336583"><ele>1253.5</ele><time>2026-04-26T05:59:35Z</time></trkpt><trkpt lat="45.954194373030326" lon="11.993670104453761"><ele>1251.3333333333335</ele><time>2026-04-26T05:59:36Z</time></trkpt><trkpt lat="45.954218327405165" lon="11.993568278717783"><ele>1249.1666666666667</ele><time>2026-04-26T05:59:37Z</time></trkpt><trkpt lat="45.95424839913895" lon="11.993449268051547"><ele>1247.0</ele><time>2026-04-26T05:59:38Z</time></trkpt><trkpt lat="45.95428057708684" lon="11.993348847346518"><ele>1248.8333333333335</ele><time>2026-04-26T05:59:39Z</time></trkpt><trkpt lat="45.95430301976674" lon="11.99324764212294"><ele>1250.6666666666667</ele><time>2026-04-26T05:59:40Z</time></trkpt><trkpt lat="45.95436191373214" lon="11.99318941683118"><ele>1252.5</ele><time>2026-04-26T05:59:41Z</time></trkpt><trkpt lat="45.95441714463114" lon="11.993127887264274"><ele>1254.3333333333333</ele><time>2026-04-26T05:59:42Z</time></trkpt><trkpt lat="45.954517216183035" lon="11.99303241781076"><ele>1256.1666666666665</ele><time>2026-04-26T05:59:43Z</time></trkpt><trkpt lat="45.95460517762356" lon="11.99295133604173"><ele>1258.0</ele><time>2026-04-26T05:59:44Z</time></trkpt><trkpt lat="45.95471713352666" lon="11.992846190713772"><ele>1258.0</ele><time>2026-04-26T05:59:46Z</time></trkpt><trkpt lat="45.95479095671242" lon="11.992765674616027"><ele>1258.0</ele><time>2026-04-26T05:59:47Z</time></trkpt><trkpt lat="45.95485666065824" lon="11.99268225450038"><ele>1258.0</ele><time>2026-04-26T05:59:48Z</time></trkpt><trkpt lat="45.954909857433435" lon="11.992582839808286"><ele>1258.0</ele><time>2026-04-26T05:59:49Z</time></trkpt><trkpt lat="45.95495184002288" lon="11.992481173826551"><ele>1258.0</ele><time>2026-04-26T05:59:50Z</time></trkpt><trkpt lat="45.954988928293" lon="11.992366750677693"><ele>1258.0</ele><time>2026-04-26T05:59:51Z</time></trkpt><trkpt lat="45.955026934507586" lon="11.992242306464128"><ele>1257.6666666666665</ele><time>2026-04-26T05:59:52Z</time></trkpt><trkpt lat="45.955061372435516" lon="11.99212285170434"><ele>1257.3333333333333</ele><time>2026-04-26T05:59:53Z</time></trkpt><trkpt lat="45.95509505722381" lon="11.991992762595391"><ele>1257.0</ele><time>2026-04-26T05:59:54Z</time></trkpt><trkpt lat="45.95512554626336" lon="11.991868286691108"><ele>1256.6666666666667</ele><time>2026-04-26T05:59:55Z</time></trkpt><trkpt lat="45.95514841348862" lon="11.991767209069826"><ele>1256.3333333333335</ele><time>2026-04-26T05:59:56Z</time></trkpt><trkpt lat="45.95517121682408" lon="11.991636865949586"><ele>1256.0</ele><time>2026-04-26T05:59:57Z</time></trkpt><trkpt lat="45.955183724301634" lon="11.99152447063035"><ele>1256.0</ele><time>2026-04-26T05:59:58Z</time></trkpt><trkpt lat="45.9551882864683" lon="11.991403521647355"><ele>1256.0</ele><time>2026-04-26T05:59:59Z</time></trkpt><trkpt lat="45.955183944781304" lon="11.991306183573263"><ele>1256.0</ele><time>2026-04-26T06:00:00Z</time></trkpt><trkpt lat="45.955187752916714" lon="11.991185012315961"><ele>1256.0</ele><time>2026-04-26T06:00:01Z</time></trkpt><trkpt lat="45.955211449790525" lon="11.991067993346366"><ele>1256.0</ele><time>2026-04-26T06:00:02Z</time></trkpt><trkpt lat="45.95522578214963" lon="11.990954163257893"><ele>1256.0</ele><time>2026-04-26T06:00:03Z</time></trkpt><trkpt lat="45.95524741112332" lon="11.990846757506175"><ele>1253.5</ele><time>2026-04-26T06:00:04Z</time></trkpt><trkpt lat="45.95527699271333" lon="11.9907502534228"><ele>1251.0</ele><time>2026-04-26T06:00:05Z</time></trkpt><trkpt lat="45.95530367786154" lon="11.990658858164563"><ele>1248.5</ele><time>2026-04-26T06:00:06Z</time></trkpt><trkpt lat="45.95531344836042" lon="11.990560941003098"><ele>1246.0</ele><time>2026-04-26T06:00:07Z</time></trkpt><trkpt lat="45.95537012873805" lon="11.990416493499609"><ele>1243.5</ele><time>2026-04-26T06:00:09Z</time></trkpt><trkpt lat="45.95540632257367" lon="11.99027098472504"><ele>1241.0</ele><time>2026-04-26T06:00:11Z</time></trkpt><trkpt lat="45.955416740927866" lon="11.99014712453365"><ele>1241.0</ele><time>2026-04-26T06:00:13Z</time></trkpt><trkpt lat="45.95532654725332" lon="11.99003893881409"><ele>1241.0</ele><time>2026-04-26T06:00:15Z</time></trkpt><trkpt lat="45.95526721187911" lon="11.99017568755189"><ele>1241.0</ele><time>2026-04-26T06:00:16Z</time></trkpt><trkpt lat="45.95522475092369" lon="11.99031197270834"><ele>1241.0</ele><time>2026-04-26T06:00:18Z</time></trkpt><trkpt lat="45.955161742343385" lon="11.990398820526723"><ele>1241.0</ele><time>2026-04-26T06:00:19Z</time></trkpt><trkpt lat="45.95512184772314" lon="11.99054189481917"><ele>1241.0</ele><time>2026-04-26T06:00:20Z</time></trkpt><trkpt lat="45.95506385582963" lon="11.990681921410339"><ele>1241.0</ele><time>2026-04-26T06:00:21Z</time></trkpt><trkpt lat="45.95501476362382" lon="11.990804355079353"><ele>1241.0</ele><time>2026-04-26T06:00:22Z</time></trkpt><trkpt lat="45.95496972573272" lon="11.990918906862346"><ele>1241.0</ele><time>2026-04-26T06:00:23Z</time></trkpt><trkpt lat="45.954914091447336" lon="11.991011506584453"><ele>1241.0</ele><time>2026-04-26T06:00:24Z</time></trkpt><trkpt lat="45.95486988732084" lon="11.991087901957181"><ele>1237.5</ele><time>2026-04-26T06:00:25Z</time></trkpt><trkpt lat="45.95482000305154" lon="11.991175943426722"><ele>1234.0</ele><time>2026-04-26T06:00:26Z</time></trkpt><trkpt lat="45.95477697190849" lon="11.991259815694908"><ele>1230.5</ele><time>2026-04-26T06:00:27Z</time></trkpt><trkpt lat="45.95473441545881" lon="11.991342013001214"><ele>1227.0</ele><time>2026-04-26T06:00:28Z</time></trkpt><trkpt lat="45.9546968817597" lon="11.991421781559426"><ele>1223.5</ele><time>2026-04-26T06:00:29Z</time></trkpt><trkpt lat="45.95463129869477" lon="11.991568329779664"><ele>1220.0</ele><time>2026-04-26T06:00:31Z</time></trkpt><trkpt lat="45.95460369332407" lon="11.991651261177694"><ele>1222.4285714285716</ele><time>2026-04-26T06:00:32Z</time></trkpt><trkpt lat="45.9545696706821" lon="11.991759765888206"><ele>1224.8571428571427</ele><time>2026-04-26T06:00:33Z</time></trkpt><trkpt lat="45.95453479081253" lon="11.991865194983378"><ele>1227.2857142857142</ele><time>2026-04-26T06:00:34Z</time></trkpt><trkpt lat="45.95449682184696" lon="11.99196273020127"><ele>1229.7142857142858</ele><time>2026-04-26T06:00:35Z</time></trkpt><trkpt lat="45.95445001650732" lon="11.992036080802304"><ele>1232.1428571428573</ele><time>2026-04-26T06:00:36Z</time></trkpt><trkpt lat="45.95441248027945" lon="11.992113032832915"><ele>1234.5714285714284</ele><time>2026-04-26T06:00:37Z</time></trkpt><trkpt lat="45.95435181083645" lon="11.992151662559902"><ele>1237.0</ele><time>2026-04-26T06:00:38Z</time></trkpt><trkpt lat="45.95425678718482" lon="11.992188987260457"><ele>1231.8333333333333</ele><time>2026-04-26T06:00:39Z</time></trkpt><trkpt lat="45.954156748260736" lon="11.992194296119804"><ele>1226.6666666666665</ele><time>2026-04-26T06:00:40Z</time></trkpt><trkpt lat="45.954078631790374" lon="11.992230911101808"><ele>1221.5</ele><time>2026-04-26T06:00:41Z</time></trkpt><trkpt lat="45.95400689080332" lon="11.99226530740187"><ele>1216.3333333333333</ele><time>2026-04-26T06:00:42Z</time></trkpt><trkpt lat="45.953938097561824" lon="11.992298290566506"><ele>1211.1666666666667</ele><time>2026-04-26T06:00:43Z</time></trkpt><trkpt lat="45.95387991223007" lon="11.992341385129576"><ele>1206.0</ele><time>2026-04-26T06:00:44Z</time></trkpt><trkpt lat="45.953822342821105" lon="11.9923828015417"><ele>1206.0</ele><time>2026-04-26T06:00:45Z</time></trkpt><trkpt lat="45.95376104514473" lon="11.992404622085301"><ele>1206.0</ele><time>2026-04-26T06:00:46Z</time></trkpt><trkpt lat="45.953684035237224" lon="11.992473338673493"><ele>1206.0</ele><time>2026-04-26T06:00:47Z</time></trkpt><trkpt lat="45.95360428525127" lon="11.99256328831736"><ele>1206.0</ele><time>2026-04-26T06:00:48Z</time></trkpt><trkpt lat="45.95353783858364" lon="11.992652288087385"><ele>1206.0</ele><time>2026-04-26T06:00:49Z</time></trkpt><trkpt lat="45.953478658050905" lon="11.992743983624054"><ele>1206.0</ele><time>2026-04-26T06:00:50Z</time></trkpt><trkpt lat="45.95344015611882" lon="11.992841336735601"><ele>1206.6666666666667</ele><time>2026-04-26T06:00:51Z</time></trkpt><trkpt lat="45.953386997955214" lon="11.99292655868394"><ele>1207.3333333333333</ele><time>2026-04-26T06:00:52Z</time></trkpt><trkpt lat="45.95334585861115" lon="11.993019042514977"><ele>1208.0</ele><time>2026-04-26T06:00:53Z</time></trkpt><trkpt lat="45.95330878660048" lon="11.993127160331344"><ele>1208.6666666666665</ele><time>2026-04-26T06:00:54Z</time></trkpt><trkpt lat="45.953259711093594" lon="11.993249567886815"><ele>1209.3333333333333</ele><time>2026-04-26T06:00:55Z</time></trkpt><trkpt lat="45.9532222279004" lon="11.993363647065603"><ele>1210.0</ele><time>2026-04-26T06:00:56Z</time></trkpt><trkpt lat="45.95318630874848" lon="11.993467027255761"><ele>1210.0</ele><time>2026-04-26T06:00:57Z</time></trkpt><trkpt lat="45.9531545492609" lon="11.99355568942746"><ele>1210.0</ele><time>2026-04-26T06:00:58Z</time></trkpt><trkpt lat="45.953124772274776" lon="11.99364581238338"><ele>1210.0</ele><time>2026-04-26T06:00:59Z</time></trkpt><trkpt lat="45.953081732765476" lon="11.993746428434868"><ele>1210.0</ele><time>2026-04-26T06:01:00Z</time></trkpt><trkpt lat="45.95302715760371" lon="11.993845578998366"><ele>1210.0</ele><time>2026-04-26T06:01:01Z</time></trkpt><trkpt lat="45.952957630509744" lon="11.993928220316509"><ele>1210.0</ele><time>2026-04-26T06:01:02Z</time></trkpt><trkpt lat="45.952888417288534" lon="11.994021731386429"><ele>1210.0</ele><time>2026-04-26T06:01:03Z</time></trkpt><trkpt lat="45.952837055162355" lon="11.994089529622903"><ele>1210.0</ele><time>2026-04-26T06:01:04Z</time></trkpt><trkpt lat="45.95276292460877" lon="11.994160762394804"><ele>1210.0</ele><time>2026-04-26T06:01:04.999Z</time></trkpt><trkpt lat="45.952697240358205" lon="11.9941755235975"><ele>1210.0</ele><time>2026-04-26T06:01:05.999Z</time></trkpt><trkpt lat="45.95257694348033" lon="11.994128120149078"><ele>1210.0</ele><time>2026-04-26T06:01:07.999Z</time></trkpt><trkpt lat="45.952509941614736" lon="11.994096343909995"><ele>1210.0</ele><time>2026-04-26T06:01:08.999Z</time></trkpt><trkpt lat="45.952431374344144" lon="11.994058492045959"><ele>1207.0</ele><time>2026-04-26T06:01:09.999Z</time></trkpt><trkpt lat="45.95231959208727" lon="11.994004945857908"><ele>1204.0</ele><time>2026-04-26T06:01:10.999Z</time></trkpt><trkpt lat="45.952231887242874" lon="11.993963099335367"><ele>1201.0</ele><time>2026-04-26T06:01:11.999Z</time></trkpt><trkpt lat="45.95217241509155" lon="11.993923254225082"><ele>1198.0</ele><time>2026-04-26T06:01:12.999Z</time></trkpt><trkpt lat="45.95210985439909" lon="11.993874395137997"><ele>1195.0</ele><time>2026-04-26T06:01:13.999Z</time></trkpt><trkpt lat="45.95200197182401" lon="11.99380031804875"><ele>1195.0</ele><time>2026-04-26T06:01:15.999Z</time></trkpt><trkpt lat="45.95190113347442" lon="11.99369577519268"><ele>1195.0</ele><time>2026-04-26T06:01:17.999Z</time></trkpt><trkpt lat="45.951837004142696" lon="11.993672326131458"><ele>1195.0</ele><time>2026-04-26T06:01:18.999Z</time></trkpt><trkpt lat="45.951730159813735" lon="11.993641438874793"><ele>1195.0</ele><time>2026-04-26T06:01:20.999Z</time></trkpt><trkpt lat="45.95161366698768" lon="11.993615748608963"><ele>1195.0</ele><time>2026-04-26T06:01:22.999Z</time></trkpt><trkpt lat="45.95153568437609" lon="11.993652344986439"><ele>1194.0</ele><time>2026-04-26T06:01:23.999Z</time></trkpt><trkpt lat="45.951463340817604" lon="11.993637491344357"><ele>1193.0</ele><time>2026-04-26T06:01:24.999Z</time></trkpt><trkpt lat="45.95139035610375" lon="11.99364572007101"><ele>1192.0</ele><time>2026-04-26T06:01:25.999Z</time></trkpt><trkpt lat="45.95131873393856" lon="11.993656112422334"><ele>1191.0</ele><time>2026-04-26T06:01:26.999Z</time></trkpt><trkpt lat="45.95124328228953" lon="11.993667847045309"><ele>1190.0</ele><time>2026-04-26T06:01:27.999Z</time></trkpt><trkpt lat="45.95112704623671" lon="11.993685924740015"><ele>1189.0</ele><time>2026-04-26T06:01:29.999Z</time></trkpt><trkpt lat="45.95104745582783" lon="11.993677306686168"><ele>1189.0</ele><time>2026-04-26T06:01:30.999Z</time></trkpt><trkpt lat="45.95097667655478" lon="11.993669462547006"><ele>1189.0</ele><time>2026-04-26T06:01:31.999Z</time></trkpt><trkpt lat="45.95089544543849" lon="11.99365178295374"><ele>1189.0</ele><time>2026-04-26T06:01:32.999Z</time></trkpt><trkpt lat="45.950834491381144" lon="11.993625361566458"><ele>1189.0</ele><time>2026-04-26T06:01:33.999Z</time></trkpt><trkpt lat="45.95074886469457" lon="11.993519317232378"><ele>1189.0</ele><time>2026-04-26T06:01:36Z</time></trkpt><trkpt lat="45.950694714440125" lon="11.993319790890995"><ele>1183.0</ele><time>2026-04-26T06:01:38Z</time></trkpt><trkpt lat="45.95065698301879" lon="11.993212353082043"><ele>1177.0</ele><time>2026-04-26T06:01:39Z</time></trkpt><trkpt lat="45.95061809788448" lon="11.993066636653454"><ele>1171.0</ele><time>2026-04-26T06:01:41Z</time></trkpt><trkpt lat="45.95060899712889" lon="11.992965698212602"><ele>1165.0</ele><time>2026-04-26T06:01:42Z</time></trkpt><trkpt lat="45.95055970815497" lon="11.992808819277641"><ele>1159.0</ele><time>2026-04-26T06:01:44Z</time></trkpt><trkpt lat="45.95050063137322" lon="11.99274018353001"><ele>1159.0</ele><time>2026-04-26T06:01:45Z</time></trkpt><trkpt lat="45.95040279006274" lon="11.992649394903987"><ele>1159.0</ele><time>2026-04-26T06:01:47Z</time></trkpt><trkpt lat="45.95033238943804" lon="11.992625616915898"><ele>1159.0</ele><time>2026-04-26T06:01:48Z</time></trkpt><trkpt lat="45.950210907271085" lon="11.992576620278676"><ele>1159.0</ele><time>2026-04-26T06:01:50Z</time></trkpt><trkpt lat="45.95013493216259" lon="11.992589793858661"><ele>1159.0</ele><time>2026-04-26T06:01:51Z</time></trkpt><trkpt lat="45.95002719961184" lon="11.992598760114117"><ele>1161.2</ele><time>2026-04-26T06:01:52Z</time></trkpt><trkpt lat="45.94994032288725" lon="11.992620622545342"><ele>1163.4</ele><time>2026-04-26T06:01:53Z</time></trkpt><trkpt lat="45.9498208831859" lon="11.992696456646145"><ele>1165.6</ele><time>2026-04-26T06:01:55Z</time></trkpt><trkpt lat="45.9497311964953" lon="11.992710638892397"><ele>1167.8</ele><time>2026-04-26T06:01:56Z</time></trkpt><trkpt lat="45.94963990936207" lon="11.992732425796792"><ele>1170.0</ele><time>2026-04-26T06:01:57Z</time></trkpt><trkpt lat="45.949552550643986" lon="11.99274512866602"><ele>1170.0</ele><time>2026-04-26T06:01:58Z</time></trkpt><trkpt lat="45.94946200919961" lon="11.992763082156605"><ele>1170.0</ele><time>2026-04-26T06:01:59Z</time></trkpt><trkpt lat="45.9493894253613" lon="11.992772654054939"><ele>1170.0</ele><time>2026-04-26T06:02:00Z</time></trkpt><trkpt lat="45.949303854569294" lon="11.992773015334508"><ele>1170.0</ele><time>2026-04-26T06:02:02Z</time></trkpt><trkpt lat="45.94918071631992" lon="11.992717549599606"><ele>1170.0</ele><time>2026-04-26T06:02:04Z</time></trkpt><trkpt lat="45.94912318119837" lon="11.992630041865562"><ele>1169.857142857143</ele><time>2026-04-26T06:02:05Z</time></trkpt><trkpt lat="45.94907243163338" lon="11.992559147722078"><ele>1169.7142857142858</ele><time>2026-04-26T06:02:06Z</time></trkpt><trkpt lat="45.94901315940887" lon="11.992486127545288"><ele>1169.5714285714284</ele><time>2026-04-26T06:02:07Z</time></trkpt><trkpt lat="45.94895483661303" lon="11.992444987422413"><ele>1169.4285714285716</ele><time>2026-04-26T06:02:08Z</time></trkpt><trkpt lat="45.9488734544707" lon="11.99238652400264"><ele>1169.2857142857142</ele><time>2026-04-26T06:02:09Z</time></trkpt><trkpt lat="45.948804773248305" lon="11.9923455434459"><ele>1169.142857142857</ele><time>2026-04-26T06:02:10Z</time></trkpt><trkpt lat="45.94874556430337" lon="11.992314205844046"><ele>1169.0</ele><time>2026-04-26T06:02:11Z</time></trkpt><trkpt lat="45.948696780387586" lon="11.992233136547204"><ele>1162.6000000000001</ele><time>2026-04-26T06:02:13Z</time></trkpt><trkpt lat="45.94863840163605" lon="11.992170329792929"><ele>1156.2</ele><time>2026-04-26T06:02:16Z</time></trkpt><trkpt lat="45.94870729056789" lon="11.992131142160781"><ele>1149.8000000000002</ele><time>2026-04-26T06:02:18Z</time></trkpt><trkpt lat="45.948591978771006" lon="11.992222117415519"><ele>1143.4</ele><time>2026-04-26T06:02:22Z</time></trkpt><trkpt lat="45.9484881673689" lon="11.99220004285484"><ele>1137.0</ele><time>2026-04-26T06:02:31Z</time></trkpt><trkpt lat="45.94839688971073" lon="11.99211441308738"><ele>1137.0</ele><time>2026-04-26T06:02:33Z</time></trkpt><trkpt lat="45.94835452441118" lon="11.99204167387747"><ele>1137.0</ele><time>2026-04-26T06:02:35Z</time></trkpt><trkpt lat="45.948394439791926" lon="11.991963176958745"><ele>1137.0</ele><time>2026-04-26T06:02:37Z</time></trkpt><trkpt lat="45.94849316570438" lon="11.991959511183044"><ele>1137.0</ele><time>2026-04-26T06:02:40Z</time></trkpt><trkpt lat="45.948569788055494" lon="11.99198130370641"><ele>1137.0</ele><time>2026-04-26T06:02:41Z</time></trkpt><trkpt lat="45.94865282545821" lon="11.992013331157493"><ele>1137.0</ele><time>2026-04-26T06:02:42Z</time></trkpt><trkpt lat="45.9487523839853" lon="11.992059741079734"><ele>1137.0</ele><time>2026-04-26T06:02:43Z</time></trkpt><trkpt lat="45.94883347715192" lon="11.992063878397095"><ele>1137.0</ele><time>2026-04-26T06:02:44Z</time></trkpt><trkpt lat="45.94891133685152" lon="11.992120156891572"><ele>1137.0</ele><time>2026-04-26T06:02:45Z</time></trkpt><trkpt lat="45.94919629960364" lon="11.99209099017475"><ele>1137.6</ele><time>2026-04-26T06:02:48Z</time></trkpt><trkpt lat="45.949290985809505" lon="11.992083025479426"><ele>1138.2</ele><time>2026-04-26T06:02:49Z</time></trkpt><trkpt lat="45.94941979402546" lon="11.992071740776533"><ele>1138.8</ele><time>2026-04-26T06:02:51Z</time></trkpt><trkpt lat="45.949494895754135" lon="11.992013696047712"><ele>1139.4</ele><time>2026-04-26T06:02:52Z</time></trkpt><trkpt lat="45.94956589214809" lon="11.99197577328952"><ele>1140.0</ele><time>2026-04-26T06:02:53Z</time></trkpt><trkpt lat="45.949649190630346" lon="11.991915886851189"><ele>1140.0</ele><time>2026-04-26T06:02:54Z</time></trkpt><trkpt lat="45.94971561691349" lon="11.991861986607427"><ele>1140.0</ele><time>2026-04-26T06:02:55Z</time></trkpt><trkpt lat="45.9498052415966" lon="11.99177479987957"><ele>1140.0</ele><time>2026-04-26T06:02:57Z</time></trkpt><trkpt lat="45.949862481403834" lon="11.991713160859328"><ele>1140.0</ele><time>2026-04-26T06:02:58Z</time></trkpt><trkpt lat="45.949917217664286" lon="11.991583591789757"><ele>1140.0</ele><time>2026-04-26T06:03:00Z</time></trkpt><trkpt lat="45.949828511699586" lon="11.991448126450615"><ele>1135.3333333333333</ele><time>2026-04-26T06:03:02Z</time></trkpt><trkpt lat="45.949758451993084" lon="11.991455241805589"><ele>1130.6666666666667</ele><time>2026-04-26T06:03:03Z</time></trkpt><trkpt lat="45.94969645240207" lon="11.991507777486115"><ele>1126.0</ele><time>2026-04-26T06:03:04Z</time></trkpt><trkpt lat="45.949636804468305" lon="11.991568613757945"><ele>1121.3333333333335</ele><time>2026-04-26T06:03:05Z</time></trkpt><trkpt lat="45.94955215664447" lon="11.99159217712289"><ele>1116.6666666666667</ele><time>2026-04-26T06:03:06Z</time></trkpt><trkpt lat="45.94947297086463" lon="11.991644639309785"><ele>1112.0</ele><time>2026-04-26T06:03:07Z</time></trkpt><trkpt lat="45.94939983097286" lon="11.991639938268676"><ele>1112.0</ele><time>2026-04-26T06:03:08Z</time></trkpt><trkpt lat="45.94932015321448" lon="11.99163574312646"><ele>1112.0</ele><time>2026-04-26T06:03:09Z</time></trkpt><trkpt lat="45.94920979281588" lon="11.991588675233116"><ele>1112.0</ele><time>2026-04-26T06:03:10.999Z</time></trkpt><trkpt lat="45.94913852047162" lon="11.991537460863983"><ele>1112.0</ele><time>2026-04-26T06:03:11.999Z</time></trkpt><trkpt lat="45.94907695821709" lon="11.991481599031404"><ele>1112.0</ele><time>2026-04-26T06:03:12.999Z</time></trkpt><trkpt lat="45.94902587232249" lon="11.991405175423955"><ele>1112.0</ele><time>2026-04-26T06:03:13.999Z</time></trkpt><trkpt lat="45.94896364669484" lon="11.991315837250323"><ele>1110.6666666666667</ele><time>2026-04-26T06:03:14.999Z</time></trkpt><trkpt lat="45.948899533468996" lon="11.991197585745432"><ele>1109.3333333333335</ele><time>2026-04-26T06:03:16.999Z</time></trkpt><trkpt lat="45.94884846651194" lon="11.991047573790413"><ele>1108.0</ele><time>2026-04-26T06:03:18.999Z</time></trkpt><trkpt lat="45.9488123042336" lon="11.990962210065902"><ele>1106.6666666666667</ele><time>2026-04-26T06:03:19.999Z</time></trkpt><trkpt lat="45.94877921807385" lon="11.99088236299083"><ele>1105.3333333333333</ele><time>2026-04-26T06:03:20.999Z</time></trkpt><trkpt lat="45.9487197494985" lon="11.99081751432433"><ele>1104.0</ele><time>2026-04-26T06:03:21.999Z</time></trkpt><trkpt lat="45.94864383602861" lon="11.99079663509436"><ele>1103.8333333333333</ele><time>2026-04-26T06:03:22.999Z</time></trkpt><trkpt lat="45.94856014232243" lon="11.990790812963875"><ele>1103.6666666666667</ele><time>2026-04-26T06:03:23.999Z</time></trkpt><trkpt lat="45.94849439217448" lon="11.990785021510538"><ele>1103.5</ele><time>2026-04-26T06:03:24.999Z</time></trkpt><trkpt lat="45.9484298284982" lon="11.99077720197829"><ele>1103.3333333333335</ele><time>2026-04-26T06:03:25.999Z</time></trkpt><trkpt lat="45.94836521068531" lon="11.990766450271208"><ele>1103.1666666666667</ele><time>2026-04-26T06:03:26.999Z</time></trkpt><trkpt lat="45.94825577821851" lon="11.99081264438302"><ele>1103.0</ele><time>2026-04-26T06:03:28.999Z</time></trkpt><trkpt lat="45.94814398885346" lon="11.99089271270373"><ele>1103.0</ele><time>2026-04-26T06:03:30.999Z</time></trkpt><trkpt lat="45.94807650183752" lon="11.990938502981818"><ele>1103.0</ele><time>2026-04-26T06:03:31.999Z</time></trkpt><trkpt lat="45.948000990235" lon="11.990984461095533"><ele>1103.0</ele><time>2026-04-26T06:03:32.999Z</time></trkpt><trkpt lat="45.94791952784976" lon="11.991015252671804"><ele>1103.0</ele><time>2026-04-26T06:03:33.999Z</time></trkpt><trkpt lat="45.94783267920671" lon="11.99104086724197"><ele>1103.0</ele><time>2026-04-26T06:03:34.999Z</time></trkpt><trkpt lat="45.94766968477373" lon="11.991071147714116"><ele>1103.0</ele><time>2026-04-26T06:03:36.999Z</time></trkpt><trkpt lat="45.94758009923338" lon="11.991073990361954"><ele>1103.0</ele><time>2026-04-26T06:03:37.999Z</time></trkpt><trkpt lat="45.94749376075511" lon="11.991052430551225"><ele>1103.0</ele><time>2026-04-26T06:03:38.999Z</time></trkpt><trkpt lat="45.94743810533603" lon="11.9910090463989"><ele>1103.0</ele><time>2026-04-26T06:03:39.999Z</time></trkpt><trkpt lat="45.94737669384649" lon="11.990948748595793"><ele>1103.0</ele><time>2026-04-26T06:03:40.999Z</time></trkpt><trkpt lat="45.947316378480025" lon="11.990867684467489"><ele>1103.0</ele><time>2026-04-26T06:03:42Z</time></trkpt><trkpt lat="45.94725959797957" lon="11.990818156646789"><ele>1095.5</ele><time>2026-04-26T06:03:43Z</time></trkpt><trkpt lat="45.947203869874244" lon="11.990774443684268"><ele>1088.0</ele><time>2026-04-26T06:03:44Z</time></trkpt><trkpt lat="45.94714109280629" lon="11.990723773245337"><ele>1080.5</ele><time>2026-04-26T06:03:45Z</time></trkpt><trkpt lat="45.94705433761831" lon="11.990661108810816"><ele>1073.0</ele><time>2026-04-26T06:03:47Z</time></trkpt><trkpt lat="45.94694572338892" lon="11.990611440320876"><ele>1065.5</ele><time>2026-04-26T06:03:49Z</time></trkpt><trkpt lat="45.94687580770195" lon="11.990638543160212"><ele>1058.0</ele><time>2026-04-26T06:03:51Z</time></trkpt><trkpt lat="45.94681465786177" lon="11.9907114794236"><ele>1058.0</ele><time>2026-04-26T06:03:52Z</time></trkpt><trkpt lat="45.94671601535453" lon="11.990753237059764"><ele>1058.0</ele><time>2026-04-26T06:03:53Z</time></trkpt><trkpt lat="45.9466269443158" lon="11.990799840587902"><ele>1058.0</ele><time>2026-04-26T06:03:54Z</time></trkpt><trkpt lat="45.946528656895765" lon="11.990829732396502"><ele>1058.0</ele><time>2026-04-26T06:03:55Z</time></trkpt><trkpt lat="45.94642927951833" lon="11.990902586693606"><ele>1058.0</ele><time>2026-04-26T06:03:56Z</time></trkpt><trkpt lat="45.94633956545371" lon="11.990900726781"><ele>1063.6666666666667</ele><time>2026-04-26T06:03:57Z</time></trkpt><trkpt lat="45.94625184263532" lon="11.990923131726138"><ele>1069.3333333333335</ele><time>2026-04-26T06:03:58Z</time></trkpt><trkpt lat="45.94617047213108" lon="11.99096267562176"><ele>1075.0</ele><time>2026-04-26T06:03:59Z</time></trkpt><trkpt lat="45.94610545671339" lon="11.991002468288977"><ele>1080.6666666666667</ele><time>2026-04-26T06:04:00Z</time></trkpt><trkpt lat="45.94604143504315" lon="11.991048763859922"><ele>1086.3333333333333</ele><time>2026-04-26T06:04:01Z</time></trkpt><trkpt lat="45.94598435923818" lon="11.991090136250213"><ele>1092.0</ele><time>2026-04-26T06:04:02Z</time></trkpt><trkpt lat="45.94592616279605" lon="11.99114220568654"><ele>1086.4</ele><time>2026-04-26T06:04:03Z</time></trkpt><trkpt lat="45.945843687091624" lon="11.991250631281748"><ele>1080.8000000000002</ele><time>2026-04-26T06:04:05Z</time></trkpt><trkpt lat="45.94574518900071" lon="11.991311997704063"><ele>1075.2</ele><time>2026-04-26T06:04:07Z</time></trkpt><trkpt lat="45.94563946231317" lon="11.991342086306474"><ele>1069.6000000000001</ele><time>2026-04-26T06:04:09Z</time></trkpt><trkpt lat="45.94557678927422" lon="11.99126258596021"><ele>1064.0</ele><time>2026-04-26T06:04:10Z</time></trkpt><trkpt lat="45.94559683227463" lon="11.991176282256177"><ele>1056.5</ele><time>2026-04-26T06:04:11Z</time></trkpt><trkpt lat="45.945606436473284" lon="11.99076529341698"><ele>1049.0</ele><time>2026-04-26T06:04:17Z</time></trkpt><trkpt lat="45.94566144252791" lon="11.990694516423543"><ele>1041.5</ele><time>2026-04-26T06:04:18Z</time></trkpt><trkpt lat="45.94568496972003" lon="11.990581362682377"><ele>1034.0</ele><time>2026-04-26T06:04:20Z</time></trkpt><trkpt lat="45.94568694762615" lon="11.99048922535131"><ele>1034.0</ele><time>2026-04-26T06:04:23Z</time></trkpt><trkpt lat="45.945665803822244" lon="11.990389696968286"><ele>1034.0</ele><time>2026-04-26T06:04:26Z</time></trkpt><trkpt lat="45.94560248000115" lon="11.990296273656678"><ele>1034.0</ele><time>2026-04-26T06:04:33Z</time></trkpt><trkpt lat="45.945522034115214" lon="11.99018180938128"><ele>1034.0</ele><time>2026-04-26T06:04:35Z</time></trkpt><trkpt lat="45.94546209250601" lon="11.990145875396815"><ele>1034.0</ele><time>2026-04-26T06:04:36Z</time></trkpt><trkpt lat="45.945403403073506" lon="11.99010756923915"><ele>1034.0</ele><time>2026-04-26T06:04:37Z</time></trkpt><trkpt lat="45.94535427103683" lon="11.990032554822074"><ele>1031.0</ele><time>2026-04-26T06:04:38Z</time></trkpt><trkpt lat="45.94529286452149" lon="11.989962574063389"><ele>1028.0</ele><time>2026-04-26T06:04:39Z</time></trkpt><trkpt lat="45.94523404018867" lon="11.989841262245836"><ele>1025.0</ele><time>2026-04-26T06:04:41Z</time></trkpt><trkpt lat="45.94517451266883" lon="11.989709758784926"><ele>1022.0</ele><time>2026-04-26T06:04:43Z</time></trkpt><trkpt lat="45.94512797568995" lon="11.98962910221977"><ele>1019.0</ele><time>2026-04-26T06:04:44Z</time></trkpt><trkpt lat="45.945220754387414" lon="11.989384738821109"><ele>1019.0000000000001</ele><time>2026-04-26T06:04:45Z</time></trkpt><trkpt lat="45.94524239430058" lon="11.989264457610519"><ele>1019.0</ele><time>2026-04-26T06:04:46Z</time></trkpt><trkpt lat="45.945255056389215" lon="11.989131443226622"><ele>1019.0</ele><time>2026-04-26T06:04:47Z</time></trkpt><trkpt lat="45.945281638711336" lon="11.989045156482735"><ele>1019.0</ele><time>2026-04-26T06:04:48Z</time></trkpt><trkpt lat="45.945313939452966" lon="11.988885747220879"><ele>1019.0000000000001</ele><time>2026-04-26T06:04:50Z</time></trkpt><trkpt lat="45.94532256980557" lon="11.98879392311575"><ele>1019.0</ele><time>2026-04-26T06:04:51Z</time></trkpt><trkpt lat="45.94531573203559" lon="11.988703060543266"><ele>1016.4000000000001</ele><time>2026-04-26T06:04:52Z</time></trkpt><trkpt lat="45.94529752500079" lon="11.988542723455641"><ele>1013.8000000000001</ele><time>2026-04-26T06:04:54Z</time></trkpt><trkpt lat="45.94527195656492" lon="11.988430053717796"><ele>1011.1999999999999</ele><time>2026-04-26T06:04:56Z</time></trkpt><trkpt lat="45.94532908252746" lon="11.988349921018035"><ele>1008.5999999999999</ele><time>2026-04-26T06:04:59Z</time></trkpt><trkpt lat="45.94539685770518" lon="11.988420487135338"><ele>1006.0</ele><time>2026-04-26T06:05:01Z</time></trkpt><trkpt lat="45.94544448321025" lon="11.988548206275533"><ele>1006.0</ele><time>2026-04-26T06:05:03Z</time></trkpt><trkpt lat="45.94545487368386" lon="11.98865678121837"><ele>1005.9999999999999</ele><time>2026-04-26T06:05:04Z</time></trkpt><trkpt lat="45.945468164166975" lon="11.98878603519156"><ele>1005.9999999999999</ele><time>2026-04-26T06:05:06Z</time></trkpt><trkpt lat="45.945517716355425" lon="11.98890587608844"><ele>1006.0</ele><time>2026-04-26T06:05:08Z</time></trkpt><trkpt lat="45.945583445951854" lon="11.988982770588402"><ele>1006.0</ele><time>2026-04-26T06:05:10Z</time></trkpt><trkpt lat="45.945723055312804" lon="11.988969145446829"><ele>1005.9999999999999</ele><time>2026-04-26T06:05:12Z</time></trkpt><trkpt lat="45.94580743499798" lon="11.988926240033793"><ele>1006.0</ele><time>2026-04-26T06:05:13Z</time></trkpt><trkpt lat="45.94589844166769" lon="11.98889514618583"><ele>1006.0</ele><time>2026-04-26T06:05:14Z</time></trkpt><trkpt lat="45.94596316446864" lon="11.988865412261896"><ele>1006.0</ele><time>2026-04-26T06:05:15Z</time></trkpt><trkpt lat="45.9460406652197" lon="11.988837116677692"><ele>1005.9999999999999</ele><time>2026-04-26T06:05:16Z</time></trkpt><trkpt lat="45.94610792737851" lon="11.988844735281196"><ele>1006.0</ele><time>2026-04-26T06:05:17Z</time></trkpt><trkpt lat="45.94619925820996" lon="11.98881946963771"><ele>1005.4</ele><time>2026-04-26T06:05:18.999Z</time></trkpt><trkpt lat="45.94622966753535" lon="11.988730063848106"><ele>1004.8</ele><time>2026-04-26T06:05:20.999Z</time></trkpt><trkpt lat="45.946178126277836" lon="11.988590135177589"><ele>1004.1999999999999</ele><time>2026-04-26T06:05:22.999Z</time></trkpt><trkpt lat="45.94608277121355" lon="11.988493735046426"><ele>1003.5999999999999</ele><time>2026-04-26T06:05:24.999Z</time></trkpt><trkpt lat="45.9459837003503" lon="11.988431218929787"><ele>1003.0</ele><time>2026-04-26T06:05:26.999Z</time></trkpt><trkpt lat="45.94588389749965" lon="11.988452973276452"><ele>1003.5999999999999</ele><time>2026-04-26T06:05:28.999Z</time></trkpt><trkpt lat="45.94582043703563" lon="11.988393977138589"><ele>1004.1999999999999</ele><time>2026-04-26T06:05:30.999Z</time></trkpt><trkpt lat="45.94579912825959" lon="11.988275669571061"><ele>1004.8</ele><time>2026-04-26T06:05:32.999Z</time></trkpt><trkpt lat="45.9458237643665" lon="11.988134323350316"><ele>1005.4</ele><time>2026-04-26T06:05:34.999Z</time></trkpt><trkpt lat="45.94587488993563" lon="11.988004187423007"><ele>1006.0</ele><time>2026-04-26T06:05:36.999Z</time></trkpt><trkpt lat="45.94594342842206" lon="11.987922326786121"><ele>1002.9999999999999</ele><time>2026-04-26T06:05:38.999Z</time></trkpt><trkpt lat="45.94605262681731" lon="11.987876132819528"><ele>1000.0</ele><time>2026-04-26T06:05:40.999Z</time></trkpt><trkpt lat="45.94612578693617" lon="11.987847989447468"><ele>997.0</ele><time>2026-04-26T06:05:41.999Z</time></trkpt><trkpt lat="45.94619805521241" lon="11.98782890148864"><ele>994.0</ele><time>2026-04-26T06:05:42.999Z</time></trkpt><trkpt lat="45.94628899875114" lon="11.987817082513429"><ele>990.9999999999999</ele><time>2026-04-26T06:05:43.999Z</time></trkpt><trkpt lat="45.94638373423258" lon="11.987813339104932"><ele>988.0</ele><time>2026-04-26T06:05:44.999Z</time></trkpt><trkpt lat="45.946470577587746" lon="11.987805696836647"><ele>988.0</ele><time>2026-04-26T06:05:45.999Z</time></trkpt><trkpt lat="45.94655618977642" lon="11.987797443339337"><ele>988.0</ele><time>2026-04-26T06:05:46.999Z</time></trkpt><trkpt lat="45.94666745031607" lon="11.987749530719807"><ele>988.0</ele><time>2026-04-26T06:05:49Z</time></trkpt><trkpt lat="45.94676008201251" lon="11.987625592176355"><ele>988.0</ele><time>2026-04-26T06:05:51Z</time></trkpt><trkpt lat="45.946850302879994" lon="11.987537348972987"><ele>988.0</ele><time>2026-04-26T06:05:53Z</time></trkpt><trkpt lat="45.94691532247478" lon="11.987533921928163"><ele>987.0</ele><time>2026-04-26T06:05:54Z</time></trkpt><trkpt lat="45.94698140652094" lon="11.987538772289346"><ele>986.0</ele><time>2026-04-26T06:05:55Z</time></trkpt><trkpt lat="45.94710944129712" lon="11.987566274964705"><ele>985.0</ele><time>2026-04-26T06:05:57Z</time></trkpt><trkpt lat="45.94718308852711" lon="11.987603347064606"><ele>984.0</ele><time>2026-04-26T06:05:58Z</time></trkpt><trkpt lat="45.94726568471934" lon="11.987670311681915"><ele>983.0</ele><time>2026-04-26T06:05:59Z</time></trkpt><trkpt lat="45.947338870814704" lon="11.98772331644644"><ele>982.9999999999999</ele><time>2026-04-26T06:06:00Z</time></trkpt><trkpt lat="45.94741082928564" lon="11.987779147399062"><ele>983.0</ele><time>2026-04-26T06:06:01Z</time></trkpt><trkpt lat="45.94748369513675" lon="11.987810131656934"><ele>982.9999999999999</ele><time>2026-04-26T06:06:02Z</time></trkpt><trkpt lat="45.94755778793181" lon="11.987834209008863"><ele>982.9999999999999</ele><time>2026-04-26T06:06:03Z</time></trkpt><trkpt lat="45.94763136351417" lon="11.987856622510396"><ele>983.0</ele><time>2026-04-26T06:06:04Z</time></trkpt><trkpt lat="45.94769873904085" lon="11.987870323864426"><ele>982.9999999999999</ele><time>2026-04-26T06:06:05Z</time></trkpt><trkpt lat="45.94776624249401" lon="11.987887002733693"><ele>982.9999999999999</ele><time>2026-04-26T06:06:06Z</time></trkpt><trkpt lat="45.94783339481695" lon="11.98790762297597"><ele>982.4</ele><time>2026-04-26T06:06:07Z</time></trkpt><trkpt lat="45.94793331563671" lon="11.987981446375704"><ele>981.8</ele><time>2026-04-26T06:06:09Z</time></trkpt><trkpt lat="45.947999614732744" lon="11.9880073789171"><ele>981.2</ele><time>2026-04-26T06:06:10Z</time></trkpt><trkpt lat="45.94807781698086" lon="11.988005104611222"><ele>980.6</ele><time>2026-04-26T06:06:11Z</time></trkpt><trkpt lat="45.94820622114777" lon="11.987912847713218"><ele>980.0</ele><time>2026-04-26T06:06:13Z</time></trkpt><trkpt lat="45.94824443009903" lon="11.987832545583089"><ele>980.0</ele><time>2026-04-26T06:06:14Z</time></trkpt><trkpt lat="45.94827887307762" lon="11.987743757269454"><ele>980.0</ele><time>2026-04-26T06:06:15Z</time></trkpt><trkpt lat="45.94831344637912" lon="11.987665160612107"><ele>980.0</ele><time>2026-04-26T06:06:16Z</time></trkpt><trkpt lat="45.94837221702839" lon="11.987511538839916"><ele>980.0</ele><time>2026-04-26T06:06:18Z</time></trkpt><trkpt lat="45.94843030839589" lon="11.987447246818945"><ele>980.0</ele><time>2026-04-26T06:06:19Z</time></trkpt><trkpt lat="45.94848675909778" lon="11.987295480999478"><ele>975.5</ele><time>2026-04-26T06:06:21Z</time></trkpt><trkpt lat="45.94855637519073" lon="11.987161704423709"><ele>971.0</ele><time>2026-04-26T06:06:23Z</time></trkpt><trkpt lat="45.9485869755794" lon="11.987007491468797"><ele>966.5</ele><time>2026-04-26T06:06:25Z</time></trkpt><trkpt lat="45.94867420132625" lon="11.986959031631566"><ele>962.0</ele><time>2026-04-26T06:06:27Z</time></trkpt><trkpt lat="45.948805826226135" lon="11.986968321892197"><ele>962.0000000000001</ele><time>2026-04-26T06:06:29Z</time></trkpt><trkpt lat="45.948887029585826" lon="11.986995296471818"><ele>962.0</ele><time>2026-04-26T06:06:30Z</time></trkpt><trkpt lat="45.94898016002048" lon="11.98700469590165"><ele>962.0</ele><time>2026-04-26T06:06:31Z</time></trkpt><trkpt lat="45.94905455441386" lon="11.987034461917212"><ele>962.0</ele><time>2026-04-26T06:06:32Z</time></trkpt><trkpt lat="45.94915606440532" lon="11.987074199465653"><ele>962.0000000000001</ele><time>2026-04-26T06:06:33Z</time></trkpt><trkpt lat="45.94924174014786" lon="11.987103604062623"><ele>962.0</ele><time>2026-04-26T06:06:34Z</time></trkpt><trkpt lat="45.94935286979389" lon="11.987158249249633"><ele>960.2</ele><time>2026-04-26T06:06:35Z</time></trkpt><trkpt lat="45.94947047717853" lon="11.98718822531986"><ele>958.4000000000001</ele><time>2026-04-26T06:06:36Z</time></trkpt><trkpt lat="45.94954741124326" lon="11.987211629417684"><ele>956.5999999999999</ele><time>2026-04-26T06:06:37Z</time></trkpt><trkpt lat="45.94962237403014" lon="11.987243165775562"><ele>954.8</ele><time>2026-04-26T06:06:38Z</time></trkpt><trkpt lat="45.949687201116035" lon="11.987266367495032"><ele>953.0</ele><time>2026-04-26T06:06:39Z</time></trkpt><trkpt lat="45.94981435711542" lon="11.98726297987173"><ele>953.0000000000001</ele><time>2026-04-26T06:06:42Z</time></trkpt><trkpt lat="45.94988164578888" lon="11.987256290410539"><ele>953.0</ele><time>2026-04-26T06:06:43Z</time></trkpt><trkpt lat="45.94994447432375" lon="11.987217929162506"><ele>953.0</ele><time>2026-04-26T06:06:44Z</time></trkpt><trkpt lat="45.94999917701388" lon="11.987139915259242"><ele>953.0</ele><time>2026-04-26T06:06:45Z</time></trkpt><trkpt lat="45.95004360542937" lon="11.98706760798761"><ele>953.0000000000001</ele><time>2026-04-26T06:06:46Z</time></trkpt><trkpt lat="45.95008007385014" lon="11.986977603200549"><ele>953.0</ele><time>2026-04-26T06:06:47Z</time></trkpt><trkpt lat="45.95013664307878" lon="11.98680785431171"><ele>953.8</ele><time>2026-04-26T06:06:49Z</time></trkpt><trkpt lat="45.950163245082514" lon="11.986719970750743"><ele>954.5999999999999</ele><time>2026-04-26T06:06:50Z</time></trkpt><trkpt lat="45.95021137922945" lon="11.98663573540384"><ele>955.4000000000001</ele><time>2026-04-26T06:06:51Z</time></trkpt><trkpt lat="45.950293470366375" lon="11.98650251179459"><ele>956.2</ele><time>2026-04-26T06:06:53Z</time></trkpt><trkpt lat="45.95031376013425" lon="11.9863762534031"><ele>957.0</ele><time>2026-04-26T06:06:55Z</time></trkpt><trkpt lat="45.95025255032566" lon="11.986259835722244"><ele>957.0</ele><time>2026-04-26T06:06:57Z</time></trkpt><trkpt lat="45.95018214626698" lon="11.986303904909262"><ele>957.0</ele><time>2026-04-26T06:06:58Z</time></trkpt><trkpt lat="45.95008079297519" lon="11.986350861443126"><ele>957.0</ele><time>2026-04-26T06:07:00Z</time></trkpt><trkpt lat="45.95001024499391" lon="11.98641126073228"><ele>957.0</ele><time>2026-04-26T06:07:01Z</time></trkpt><trkpt lat="45.94995147628907" lon="11.986461114702538"><ele>957.0</ele><time>2026-04-26T06:07:02Z</time></trkpt><trkpt lat="45.94989035275317" lon="11.986516450138073"><ele>957.0</ele><time>2026-04-26T06:07:04Z</time></trkpt><trkpt lat="45.94984847013489" lon="11.986408036080652"><ele>951.4000000000001</ele><time>2026-04-26T06:07:06Z</time></trkpt><trkpt lat="45.94991546552217" lon="11.9862560901174"><ele>945.8000000000001</ele><time>2026-04-26T06:07:08Z</time></trkpt><trkpt lat="45.94994295878926" lon="11.986148841201457"><ele>940.2</ele><time>2026-04-26T06:07:09Z</time></trkpt><trkpt lat="45.94995602853177" lon="11.986036491182205"><ele>934.6</ele><time>2026-04-26T06:07:10Z</time></trkpt><trkpt lat="45.949995847751325" lon="11.985900645791556"><ele>929.0</ele><time>2026-04-26T06:07:11Z</time></trkpt><trkpt lat="45.9500092975685" lon="11.985779873096284"><ele>927.4000000000001</ele><time>2026-04-26T06:07:12Z</time></trkpt><trkpt lat="45.95000469717045" lon="11.985619111389719"><ele>925.8000000000001</ele><time>2026-04-26T06:07:14Z</time></trkpt><trkpt lat="45.9498915598629" lon="11.985501979898007"><ele>924.1999999999999</ele><time>2026-04-26T06:07:15.999Z</time></trkpt><trkpt lat="45.949793625168276" lon="11.98554376383117"><ele>922.5999999999999</ele><time>2026-04-26T06:07:16.999Z</time></trkpt><trkpt lat="45.94970572767328" lon="11.985563492775967"><ele>921.0</ele><time>2026-04-26T06:07:17.999Z</time></trkpt><trkpt lat="45.94960554453214" lon="11.98559731192081"><ele>921.0</ele><time>2026-04-26T06:07:19.999Z</time></trkpt><trkpt lat="45.94950025948654" lon="11.985710744701308"><ele>920.9999999999999</ele><time>2026-04-26T06:07:21.999Z</time></trkpt><trkpt lat="45.94945097453586" lon="11.985801821629229"><ele>920.9999999999999</ele><time>2026-04-26T06:07:22.999Z</time></trkpt><trkpt lat="45.94939304780665" lon="11.985896804359573"><ele>921.0</ele><time>2026-04-26T06:07:23.999Z</time></trkpt><trkpt lat="45.94928975306965" lon="11.985969971259873"><ele>921.0</ele><time>2026-04-26T06:07:25.999Z</time></trkpt><trkpt lat="45.94921556375335" lon="11.985982245539548"><ele>922.0</ele><time>2026-04-26T06:07:26.999Z</time></trkpt><trkpt lat="45.94914127228795" lon="11.98599949043891"><ele>923.0</ele><time>2026-04-26T06:07:27.999Z</time></trkpt><trkpt lat="45.9490463961936" lon="11.986020603885473"><ele>924.0</ele><time>2026-04-26T06:07:29.999Z</time></trkpt><trkpt lat="45.94899235221422" lon="11.985967381175959"><ele>925.0</ele><time>2026-04-26T06:07:30.999Z</time></trkpt><trkpt lat="45.94895416582883" lon="11.98588595238205"><ele>926.0</ele><time>2026-04-26T06:07:31.999Z</time></trkpt><trkpt lat="45.94892804173297" lon="11.985751810301322"><ele>927.0</ele><time>2026-04-26T06:07:33.999Z</time></trkpt><trkpt lat="45.94888005505271" lon="11.985578391542509"><ele>923.2857142857142</ele><time>2026-04-26T06:07:35.999Z</time></trkpt><trkpt lat="45.94885412185215" lon="11.985485422802004"><ele>919.5714285714286</ele><time>2026-04-26T06:07:36.999Z</time></trkpt><trkpt lat="45.94882817920829" lon="11.98539242107749"><ele>915.8571428571429</ele><time>2026-04-26T06:07:37.999Z</time></trkpt><trkpt lat="45.94879909914332" lon="11.985305808955268"><ele>912.1428571428571</ele><time>2026-04-26T06:07:38.999Z</time></trkpt><trkpt lat="45.94877063607431" lon="11.98521996761422"><ele>908.4285714285716</ele><time>2026-04-26T06:07:39.999Z</time></trkpt><trkpt lat="45.94872225792436" lon="11.985119324514896"><ele>904.7142857142858</ele><time>2026-04-26T06:07:40.999Z</time></trkpt><trkpt lat="45.94868098015619" lon="11.985044188379073"><ele>901.0</ele><time>2026-04-26T06:07:41.999Z</time></trkpt><trkpt lat="45.94863096201334" lon="11.984955236487727"><ele>899.9999999999999</ele><time>2026-04-26T06:07:42.999Z</time></trkpt><trkpt lat="45.94857879515373" lon="11.984868143495087"><ele>899.0</ele><time>2026-04-26T06:07:43.999Z</time></trkpt><trkpt lat="45.948521114627496" lon="11.984777109113468"><ele>898.0</ele><time>2026-04-26T06:07:44.999Z</time></trkpt><trkpt lat="45.948457921537155" lon="11.984682976177707"><ele>897.0</ele><time>2026-04-26T06:07:45.999Z</time></trkpt><trkpt lat="45.9483896740924" lon="11.984616299276611"><ele>895.9999999999999</ele><time>2026-04-26T06:07:46.999Z</time></trkpt><trkpt lat="45.948328181510576" lon="11.984539611510863"><ele>895.0</ele><time>2026-04-26T06:07:47.999Z</time></trkpt><trkpt lat="45.948272155647516" lon="11.98447121939213"><ele>894.9999999999999</ele><time>2026-04-26T06:07:48.999Z</time></trkpt><trkpt lat="45.94820941549867" lon="11.984401582661086"><ele>895.0</ele><time>2026-04-26T06:07:49.999Z</time></trkpt><trkpt lat="45.94814028258988" lon="11.98434092825455"><ele>895.0</ele><time>2026-04-26T06:07:50.999Z</time></trkpt><trkpt lat="45.94807859134584" lon="11.984232442223869"><ele>895.0</ele><time>2026-04-26T06:07:51.999Z</time></trkpt><trkpt lat="45.94801515312176" lon="11.984152420611059"><ele>894.9999999999999</ele><time>2026-04-26T06:07:52.999Z</time></trkpt><trkpt lat="45.94795014613096" lon="11.984072034118933"><ele>895.0</ele><time>2026-04-26T06:07:54Z</time></trkpt><trkpt lat="45.94787400196937" lon="11.984015362981369"><ele>891.9999999999999</ele><time>2026-04-26T06:07:55Z</time></trkpt><trkpt lat="45.947820063071184" lon="11.983941391057114"><ele>889.0</ele><time>2026-04-26T06:07:56Z</time></trkpt><trkpt lat="45.94776360585427" lon="11.983888202006883"><ele>886.0</ele><time>2026-04-26T06:07:57Z</time></trkpt><trkpt lat="45.94770310964958" lon="11.983801572334151"><ele>883.0</ele><time>2026-04-26T06:07:59Z</time></trkpt><trkpt lat="45.94775367397467" lon="11.983698235724162"><ele>879.9999999999999</ele><time>2026-04-26T06:08:02Z</time></trkpt><trkpt lat="45.94781955567155" lon="11.983694274572938"><ele>877.0</ele><time>2026-04-26T06:08:03Z</time></trkpt><trkpt lat="45.94791758205915" lon="11.983680626029814"><ele>876.9999999999999</ele><time>2026-04-26T06:08:04Z</time></trkpt><trkpt lat="45.948003354145435" lon="11.983649823764948"><ele>877.0</ele><time>2026-04-26T06:08:05Z</time></trkpt><trkpt lat="45.94808510638395" lon="11.983637993296625"><ele>877.0</ele><time>2026-04-26T06:08:06Z</time></trkpt><trkpt lat="45.94815943654735" lon="11.983627458153556"><ele>877.0</ele><time>2026-04-26T06:08:07Z</time></trkpt><trkpt lat="45.94822779374429" lon="11.983609957606312"><ele>876.9999999999999</ele><time>2026-04-26T06:08:08Z</time></trkpt><trkpt lat="45.948292903164564" lon="11.983607774808688"><ele>877.0</ele><time>2026-04-26T06:08:09Z</time></trkpt><trkpt lat="45.94836240794906" lon="11.983617640227564"><ele>877.8571428571429</ele><time>2026-04-26T06:08:10Z</time></trkpt><trkpt lat="45.94842109099116" lon="11.983663141707245"><ele>878.7142857142858</ele><time>2026-04-26T06:08:11Z</time></trkpt><trkpt lat="45.94848856800109" lon="11.98372038210952"><ele>879.5714285714287</ele><time>2026-04-26T06:08:12Z</time></trkpt><trkpt lat="45.94857148014053" lon="11.983760990758842"><ele>880.4285714285714</ele><time>2026-04-26T06:08:13Z</time></trkpt><trkpt lat="45.94863860911893" lon="11.983781643745576"><ele>881.2857142857142</ele><time>2026-04-26T06:08:14Z</time></trkpt><trkpt lat="45.94870538683027" lon="11.983777109690395"><ele>882.1428571428572</ele><time>2026-04-26T06:08:15Z</time></trkpt><trkpt lat="45.94877047521927" lon="11.983754566675671"><ele>883.0</ele><time>2026-04-26T06:08:16Z</time></trkpt><trkpt lat="45.94886869059763" lon="11.983651836380071"><ele>882.9999999999999</ele><time>2026-04-26T06:08:18Z</time></trkpt><trkpt lat="45.94889642824619" lon="11.983555158071178"><ele>883.0</ele><time>2026-04-26T06:08:19Z</time></trkpt><trkpt lat="45.948939462320006" lon="11.983434842532178"><ele>883.0</ele><time>2026-04-26T06:08:20Z</time></trkpt><trkpt lat="45.948973218754055" lon="11.983333661090729"><ele>883.0</ele><time>2026-04-26T06:08:21Z</time></trkpt><trkpt lat="45.94902342932183" lon="11.983272758555296"><ele>882.9999999999999</ele><time>2026-04-26T06:08:22Z</time></trkpt><trkpt lat="45.94906476256114" lon="11.983203083150096"><ele>883.0</ele><time>2026-04-26T06:08:23Z</time></trkpt><trkpt lat="45.94912195280013" lon="11.983086517022308"><ele>884.8</ele><time>2026-04-26T06:08:24Z</time></trkpt><trkpt lat="45.94921781887429" lon="11.982979521676258"><ele>886.5999999999999</ele><time>2026-04-26T06:08:25Z</time></trkpt><trkpt lat="45.94930775996724" lon="11.982903024992856"><ele>888.4000000000001</ele><time>2026-04-26T06:08:26Z</time></trkpt><trkpt lat="45.949398807318246" lon="11.98278230652905"><ele>890.2</ele><time>2026-04-26T06:08:28Z</time></trkpt><trkpt lat="45.94943894934232" lon="11.982666004423741"><ele>892.0</ele><time>2026-04-26T06:08:30Z</time></trkpt><trkpt lat="45.94936070702949" lon="11.982535586795791"><ele>892.0</ele><time>2026-04-26T06:08:32Z</time></trkpt><trkpt lat="45.949301362925205" lon="11.982568288884538"><ele>892.0</ele><time>2026-04-26T06:08:33Z</time></trkpt><trkpt lat="45.94922941784292" lon="11.982576985185496"><ele>892.0</ele><time>2026-04-26T06:08:34Z</time></trkpt><trkpt lat="45.9491667080068" lon="11.982608479158861"><ele>892.0</ele><time>2026-04-26T06:08:35Z</time></trkpt><trkpt lat="45.94909899150117" lon="11.982635265614718"><ele>892.0</ele><time>2026-04-26T06:08:36Z</time></trkpt><trkpt lat="45.949027037361375" lon="11.982643944295997"><ele>892.0</ele><time>2026-04-26T06:08:37Z</time></trkpt><trkpt lat="45.948947266240424" lon="11.98264005339869"><ele>892.0</ele><time>2026-04-26T06:08:38Z</time></trkpt><trkpt lat="45.948858757535874" lon="11.982580889722252"><ele>886.4000000000001</ele><time>2026-04-26T06:08:39Z</time></trkpt><trkpt lat="45.94877337705545" lon="11.982522032642725"><ele>880.8000000000001</ele><time>2026-04-26T06:08:40Z</time></trkpt><trkpt lat="45.948701529196605" lon="11.982421973685025"><ele>875.2</ele><time>2026-04-26T06:08:41Z</time></trkpt><trkpt lat="45.948624270418954" lon="11.98234436996483"><ele>869.6</ele><time>2026-04-26T06:08:42Z</time></trkpt><trkpt lat="45.948536223916285" lon="11.982265707163277"><ele>864.0</ele><time>2026-04-26T06:08:43Z</time></trkpt><trkpt lat="45.94842723482069" lon="11.982194015804847"><ele>860.4000000000001</ele><time>2026-04-26T06:08:44Z</time></trkpt><trkpt lat="45.94830804857842" lon="11.982143690244"><ele>856.8000000000001</ele><time>2026-04-26T06:08:45Z</time></trkpt><trkpt lat="45.94821322728226" lon="11.982042355271236"><ele>853.2</ele><time>2026-04-26T06:08:46Z</time></trkpt><trkpt lat="45.94812419401817" lon="11.981978818459751"><ele>849.5999999999999</ele><time>2026-04-26T06:08:47Z</time></trkpt><trkpt lat="45.948059095438204" lon="11.981880197675494"><ele>846.0</ele><time>2026-04-26T06:08:48Z</time></trkpt><trkpt lat="45.947968831884666" lon="11.981843499476916"><ele>846.0</ele><time>2026-04-26T06:08:49Z</time></trkpt><trkpt lat="45.94787781217946" lon="11.981789993586473"><ele>846.0</ele><time>2026-04-26T06:08:50Z</time></trkpt><trkpt lat="45.94777435055628" lon="11.981720075295721"><ele>846.0</ele><time>2026-04-26T06:08:51Z</time></trkpt><trkpt lat="45.94768870458287" lon="11.981634372592007"><ele>846.0</ele><time>2026-04-26T06:08:52Z</time></trkpt><trkpt lat="45.94760576513212" lon="11.981568751153015"><ele>846.0</ele><time>2026-04-26T06:08:53Z</time></trkpt><trkpt lat="45.94754258613491" lon="11.981520797948411"><ele>843.8</ele><time>2026-04-26T06:08:54Z</time></trkpt><trkpt lat="45.94745276584252" lon="11.981468428211478"><ele>841.5999999999999</ele><time>2026-04-26T06:08:56Z</time></trkpt><trkpt lat="45.94741766378831" lon="11.981378497402952"><ele>839.4</ele><time>2026-04-26T06:08:58Z</time></trkpt><trkpt lat="45.94752949604879" lon="11.981308469928889"><ele>837.2</ele><time>2026-04-26T06:09:01Z</time></trkpt><trkpt lat="45.94761051072562" lon="11.981295885923709"><ele>835.0</ele><time>2026-04-26T06:09:02Z</time></trkpt><trkpt lat="45.94769070463705" lon="11.981261804401715"><ele>834.6</ele><time>2026-04-26T06:09:03Z</time></trkpt><trkpt lat="45.94777661874836" lon="11.981189927952888"><ele>834.2</ele><time>2026-04-26T06:09:04Z</time></trkpt><trkpt lat="45.94786137076326" lon="11.98111210724104"><ele>833.8</ele><time>2026-04-26T06:09:05Z</time></trkpt><trkpt lat="45.94794664526351" lon="11.981044895620734"><ele>833.4</ele><time>2026-04-26T06:09:06Z</time></trkpt><trkpt lat="45.94802061551237" lon="11.980996775556857"><ele>833.0</ele><time>2026-04-26T06:09:07Z</time></trkpt><trkpt lat="45.94809154284066" lon="11.980951694087416"><ele>833.0</ele><time>2026-04-26T06:09:08Z</time></trkpt><trkpt lat="45.94818257225172" lon="11.980919031918836"><ele>833.0</ele><time>2026-04-26T06:09:10Z</time></trkpt><trkpt lat="45.948276704757916" lon="11.980888987068933"><ele>833.0</ele><time>2026-04-26T06:09:12Z</time></trkpt><trkpt lat="45.94837432477096" lon="11.980882324146048"><ele>833.0</ele><time>2026-04-26T06:09:14Z</time></trkpt><trkpt lat="45.9484273420232" lon="11.980761343418031"><ele>833.0</ele><time>2026-04-26T06:09:16Z</time></trkpt><trkpt lat="45.94826203248459" lon="11.980708051884237"><ele>830.5000000000001</ele><time>2026-04-26T06:09:18Z</time></trkpt><trkpt lat="45.948214185990594" lon="11.980619237674164"><ele>828.0</ele><time>2026-04-26T06:09:19Z</time></trkpt><trkpt lat="45.94813336996161" lon="11.980531461962912"><ele>825.5</ele><time>2026-04-26T06:09:21Z</time></trkpt><trkpt lat="45.948082444636036" lon="11.980464420570954"><ele>823.0</ele><time>2026-04-26T06:09:22Z</time></trkpt><trkpt lat="45.948031156561036" lon="11.98040900800451"><ele>820.5000000000001</ele><time>2026-04-26T06:09:23Z</time></trkpt><trkpt lat="45.947976994098305" lon="11.980362054334735"><ele>818.0</ele><time>2026-04-26T06:09:24Z</time></trkpt><trkpt lat="45.94787227457624" lon="11.980276915373114"><ele>818.0000000000001</ele><time>2026-04-26T06:09:26Z</time></trkpt><trkpt lat="45.9478082402437" lon="11.980232725939976"><ele>818.0</ele><time>2026-04-26T06:09:27Z</time></trkpt><trkpt lat="45.94775006155902" lon="11.980197753217682"><ele>818.0</ele><time>2026-04-26T06:09:28Z</time></trkpt><trkpt lat="45.947681036708836" lon="11.980181403121591"><ele>818.0</ele><time>2026-04-26T06:09:29Z</time></trkpt><trkpt lat="45.947566846968435" lon="11.980166987029092"><ele>818.0000000000001</ele><time>2026-04-26T06:09:31Z</time></trkpt><trkpt lat="45.94744587008483" lon="11.980163735684341"><ele>818.0</ele><time>2026-04-26T06:09:33Z</time></trkpt><trkpt lat="45.94733914373219" lon="11.980143514521234"><ele>818.0000000000001</ele><time>2026-04-26T06:09:35Z</time></trkpt><trkpt lat="45.94724886102382" lon="11.980091909920658"><ele>818.0</ele><time>2026-04-26T06:09:37Z</time></trkpt><trkpt lat="45.947274590052366" lon="11.979966826378208"><ele>818.0</ele><time>2026-04-26T06:09:39Z</time></trkpt><trkpt lat="45.94733881720848" lon="11.979942136205167"><ele>818.0</ele><time>2026-04-26T06:09:40Z</time></trkpt><trkpt lat="45.947374528672654" lon="11.979861476095987"><ele>818.0000000000001</ele><time>2026-04-26T06:09:41Z</time></trkpt><trkpt lat="45.94743412813523" lon="11.979746195891499"><ele>818.0</ele><time>2026-04-26T06:09:42Z</time></trkpt><trkpt lat="45.947518079998325" lon="11.979600313311453"><ele>815.5999999999999</ele><time>2026-04-26T06:09:43Z</time></trkpt><trkpt lat="45.94758441355071" lon="11.979500638595491"><ele>813.1999999999999</ele><time>2026-04-26T06:09:44Z</time></trkpt><trkpt lat="45.94762994863805" lon="11.979428937727675"><ele>810.8</ele><time>2026-04-26T06:09:45Z</time></trkpt><trkpt lat="45.94769685110866" lon="11.979314158027268"><ele>808.4</ele><time>2026-04-26T06:09:47Z</time></trkpt><trkpt lat="45.947757015457775" lon="11.979260829000413"><ele>806.0</ele><time>2026-04-26T06:09:48Z</time></trkpt><trkpt lat="45.9478622166428" lon="11.979151105184682"><ele>804.5999999999999</ele><time>2026-04-26T06:09:50Z</time></trkpt><trkpt lat="45.94791953382493" lon="11.979046009590487"><ele>803.2</ele><time>2026-04-26T06:09:52Z</time></trkpt><trkpt lat="45.94791332755858" lon="11.978883008180544"><ele>801.8</ele><time>2026-04-26T06:09:54Z</time></trkpt><trkpt lat="45.94784311646032" lon="11.978829682479768"><ele>800.4000000000001</ele><time>2026-04-26T06:09:55Z</time></trkpt><trkpt lat="45.947769080023015" lon="11.978725604346824"><ele>799.0</ele><time>2026-04-26T06:09:57Z</time></trkpt><trkpt lat="45.947677705757854" lon="11.978649994568569"><ele>799.0</ele><time>2026-04-26T06:09:59Z</time></trkpt><trkpt lat="45.947609212119986" lon="11.97860143763918"><ele>799.0</ele><time>2026-04-26T06:10:01Z</time></trkpt><trkpt lat="45.94750962928018" lon="11.978525499283084"><ele>799.0</ele><time>2026-04-26T06:10:03Z</time></trkpt><trkpt lat="45.947382843148624" lon="11.978412896918169"><ele>799.0</ele><time>2026-04-26T06:10:05Z</time></trkpt><trkpt lat="45.947323677796376" lon="11.978331112042172"><ele>799.0</ele><time>2026-04-26T06:10:06Z</time></trkpt><trkpt lat="45.94724993791468" lon="11.978287700898054"><ele>795.0</ele><time>2026-04-26T06:10:07Z</time></trkpt><trkpt lat="45.947176296132824" lon="11.97820183561345"><ele>791.0</ele><time>2026-04-26T06:10:09Z</time></trkpt><trkpt lat="45.94716676559374" lon="11.978091335050378"><ele>787.0</ele><time>2026-04-26T06:10:10Z</time></trkpt><trkpt lat="45.94715765449369" lon="11.97790648701115"><ele>783.0</ele><time>2026-04-26T06:10:12Z</time></trkpt><trkpt lat="45.947153120919396" lon="11.977794821529034"><ele>779.0</ele><time>2026-04-26T06:10:13Z</time></trkpt><trkpt lat="45.947150152224374" lon="11.977673185189317"><ele>779.0000000000001</ele><time>2026-04-26T06:10:14Z</time></trkpt><trkpt lat="45.947149742142656" lon="11.97755076193772"><ele>779.0</ele><time>2026-04-26T06:10:15Z</time></trkpt><trkpt lat="45.94714974214781" lon="11.977451402146317"><ele>779.0</ele><time>2026-04-26T06:10:16Z</time></trkpt><trkpt lat="45.94715397097722" lon="11.977312307788663"><ele>779.0</ele><time>2026-04-26T06:10:17Z</time></trkpt><trkpt lat="45.94716285719746" lon="11.977177241816916"><ele>779.0000000000001</ele><time>2026-04-26T06:10:18Z</time></trkpt><trkpt lat="45.94717722333287" lon="11.977034446856878"><ele>779.0</ele><time>2026-04-26T06:10:19Z</time></trkpt><trkpt lat="45.947179262834375" lon="11.976889017338292"><ele>777.4000000000001</ele><time>2026-04-26T06:10:20Z</time></trkpt><trkpt lat="45.94720935789023" lon="11.97673868140384"><ele>775.8</ele><time>2026-04-26T06:10:21Z</time></trkpt><trkpt lat="45.94723324662177" lon="11.976593810988522"><ele>774.2</ele><time>2026-04-26T06:10:22Z</time></trkpt><trkpt lat="45.94725078228138" lon="11.97643511076687"><ele>772.5999999999999</ele><time>2026-04-26T06:10:23Z</time></trkpt><trkpt lat="45.947257265818706" lon="11.976274329991776"><ele>771.0</ele><time>2026-04-26T06:10:24Z</time></trkpt><trkpt lat="45.94725189392038" lon="11.976113080461026"><ele>768.0</ele><time>2026-04-26T06:10:25Z</time></trkpt><trkpt lat="45.947240481495136" lon="11.975945352831861"><ele>765.0</ele><time>2026-04-26T06:10:26Z</time></trkpt><trkpt lat="45.94722305220225" lon="11.975773151655142"><ele>762.0</ele><time>2026-04-26T06:10:27Z</time></trkpt><trkpt lat="45.94721526297303" lon="11.975600519088848"><ele>759.0</ele><time>2026-04-26T06:10:28Z</time></trkpt><trkpt lat="45.94720603015053" lon="11.975427254700003"><ele>756.75</ele><time>2026-04-26T06:10:29Z</time></trkpt><trkpt lat="45.947206886331415" lon="11.975236038557185"><ele>754.5</ele><time>2026-04-26T06:10:30Z</time></trkpt><trkpt lat="45.94721129360743" lon="11.975071468386261"><ele>752.25</ele><time>2026-04-26T06:10:31Z</time></trkpt><trkpt lat="45.94722019604925" lon="11.974892344832986"><ele>750.0</ele><time>2026-04-26T06:10:32Z</time></trkpt><trkpt lat="45.94723500905334" lon="11.97471700689659"><ele>747.25</ele><time>2026-04-26T06:10:33Z</time></trkpt><trkpt lat="45.94726427972288" lon="11.974545841352683"><ele>744.5</ele><time>2026-04-26T06:10:34Z</time></trkpt><trkpt lat="45.94728522237102" lon="11.974370912262517"><ele>741.75</ele><time>2026-04-26T06:10:35Z</time></trkpt><trkpt lat="45.94729702605965" lon="11.97420680883539"><ele>739.0</ele><time>2026-04-26T06:10:36Z</time></trkpt><trkpt lat="45.947298857147864" lon="11.974047350961477"><ele>737.25</ele><time>2026-04-26T06:10:37Z</time></trkpt><trkpt lat="45.94725076533336" lon="11.973884408619844"><ele>735.5</ele><time>2026-04-26T06:10:38Z</time></trkpt><trkpt lat="45.94722950125255" lon="11.97371871019529"><ele>733.75</ele><time>2026-04-26T06:10:39Z</time></trkpt><trkpt lat="45.94719314496767" lon="11.973561847801223"><ele>732.0</ele><time>2026-04-26T06:10:40Z</time></trkpt><trkpt lat="45.947141858941734" lon="11.973405475922682"><ele>731.0</ele><time>2026-04-26T06:10:41Z</time></trkpt><trkpt lat="45.94713078739359" lon="11.973231403279344"><ele>730.0</ele><time>2026-04-26T06:10:42Z</time></trkpt><trkpt lat="45.94710767897328" lon="11.97305739099396"><ele>729.0</ele><time>2026-04-26T06:10:43Z</time></trkpt><trkpt lat="45.94708471570163" lon="11.972880881784564"><ele>728.0</ele><time>2026-04-26T06:10:44Z</time></trkpt><trkpt lat="45.94704661438331" lon="11.97270507365354"><ele>728.0</ele><time>2026-04-26T06:10:45Z</time></trkpt><trkpt lat="45.94702416537336" lon="11.972526631728648"><ele>728.0</ele><time>2026-04-26T06:10:46Z</time></trkpt><trkpt lat="45.94700397960686" lon="11.972376454188817"><ele>728.0</ele><time>2026-04-26T06:10:47Z</time></trkpt><trkpt lat="45.94699223156594" lon="11.97224875769312"><ele>728.0</ele><time>2026-04-26T06:10:48Z</time></trkpt><trkpt lat="45.94700232696631" lon="11.972125548844286"><ele>728.0</ele><time>2026-04-26T06:10:49Z</time></trkpt><trkpt lat="45.94703773502396" lon="11.971999020582688"><ele>727.0</ele><time>2026-04-26T06:10:50Z</time></trkpt><trkpt lat="45.94709674389741" lon="11.971890255022082"><ele>726.0</ele><time>2026-04-26T06:10:51Z</time></trkpt><trkpt lat="45.947161307464434" lon="11.971789775179568"><ele>725.0</ele><time>2026-04-26T06:10:52Z</time></trkpt><trkpt lat="45.94722261078962" lon="11.971685069965568"><ele>724.0</ele><time>2026-04-26T06:10:53Z</time></trkpt><trkpt lat="45.9472763936879" lon="11.971577462254633"><ele>723.0</ele><time>2026-04-26T06:10:54Z</time></trkpt><trkpt lat="45.947336283101095" lon="11.971458727847759"><ele>722.8</ele><time>2026-04-26T06:10:55Z</time></trkpt><trkpt lat="45.94740935539793" lon="11.971341815958164"><ele>722.5999999999999</ele><time>2026-04-26T06:10:56Z</time></trkpt><trkpt lat="45.94748011738934" lon="11.971223119437738"><ele>722.4000000000001</ele><time>2026-04-26T06:10:57Z</time></trkpt><trkpt lat="45.947555737614096" lon="11.971099882579967"><ele>722.2</ele><time>2026-04-26T06:10:58Z</time></trkpt><trkpt lat="45.947630779410396" lon="11.970984943597594"><ele>722.0</ele><time>2026-04-26T06:10:59Z</time></trkpt><trkpt lat="45.947718627515506" lon="11.970880761343347"><ele>720.8</ele><time>2026-04-26T06:11:00Z</time></trkpt><trkpt lat="45.94781111859167" lon="11.970791241046205"><ele>719.6</ele><time>2026-04-26T06:11:01Z</time></trkpt><trkpt lat="45.94790220140147" lon="11.970701859933634"><ele>718.4</ele><time>2026-04-26T06:11:02Z</time></trkpt><trkpt lat="45.94798818025678" lon="11.97061120895346"><ele>717.1999999999999</ele><time>2026-04-26T06:11:03Z</time></trkpt><trkpt lat="45.94806932573409" lon="11.970513020737515"><ele>716.0</ele><time>2026-04-26T06:11:04Z</time></trkpt><trkpt lat="45.94813809150519" lon="11.97040602976787"><ele>716.0</ele><time>2026-04-26T06:11:05Z</time></trkpt><trkpt lat="45.948186669092934" lon="11.970284505339288"><ele>716.0</ele><time>2026-04-26T06:11:06Z</time></trkpt><trkpt lat="45.94820950444696" lon="11.97014781856434"><ele>716.0</ele><time>2026-04-26T06:11:07Z</time></trkpt><trkpt lat="45.948222410023284" lon="11.970014376611969"><ele>716.0</ele><time>2026-04-26T06:11:08Z</time></trkpt><trkpt lat="45.94824026752603" lon="11.969892810852782"><ele>716.0</ele><time>2026-04-26T06:11:09Z</time></trkpt><trkpt lat="45.94824003348028" lon="11.969776355725264"><ele>715.1999999999999</ele><time>2026-04-26T06:11:10Z</time></trkpt><trkpt lat="45.94823292828851" lon="11.969644328781374"><ele>714.4</ele><time>2026-04-26T06:11:11Z</time></trkpt><trkpt lat="45.948190687942045" lon="11.969515125568188"><ele>713.6</ele><time>2026-04-26T06:11:12Z</time></trkpt><trkpt lat="45.948148452438176" lon="11.969392111336738"><ele>712.8</ele><time>2026-04-26T06:11:13Z</time></trkpt><trkpt lat="45.948100694568765" lon="11.969270830507865"><ele>712.0</ele><time>2026-04-26T06:11:14Z</time></trkpt><trkpt lat="45.94806021117029" lon="11.969153093416507"><ele>712.0</ele><time>2026-04-26T06:11:15Z</time></trkpt><trkpt lat="45.948038135506195" lon="11.969031977756504"><ele>712.0</ele><time>2026-04-26T06:11:16Z</time></trkpt><trkpt lat="45.94802529261515" lon="11.96889539555272"><ele>712.0</ele><time>2026-04-26T06:11:17Z</time></trkpt><trkpt lat="45.94801250533424" lon="11.968736660468016"><ele>712.0</ele><time>2026-04-26T06:11:18Z</time></trkpt><trkpt lat="45.94800022667856" lon="11.968584239666013"><ele>712.0</ele><time>2026-04-26T06:11:19Z</time></trkpt><trkpt lat="45.947989508210455" lon="11.968451185937576"><ele>711.8333333333334</ele><time>2026-04-26T06:11:20Z</time></trkpt><trkpt lat="45.947979029724046" lon="11.968321111238271"><ele>711.6666666666667</ele><time>2026-04-26T06:11:21Z</time></trkpt><trkpt lat="45.947952048131505" lon="11.968202925494358"><ele>711.5</ele><time>2026-04-26T06:11:22Z</time></trkpt><trkpt lat="45.94793711401185" lon="11.968085229209422"><ele>711.3333333333334</ele><time>2026-04-26T06:11:23Z</time></trkpt><trkpt lat="45.94792332840676" lon="11.967967751781249"><ele>711.1666666666666</ele><time>2026-04-26T06:11:24Z</time></trkpt><trkpt lat="45.94788143014672" lon="11.967871808032381"><ele>711.0</ele><time>2026-04-26T06:11:25Z</time></trkpt><trkpt lat="45.947817863262436" lon="11.967792475003161"><ele>711.0</ele><time>2026-04-26T06:11:26Z</time></trkpt><trkpt lat="45.94774172415304" lon="11.967748652818766"><ele>711.0</ele><time>2026-04-26T06:11:27Z</time></trkpt><trkpt lat="45.94766471202155" lon="11.96769877069326"><ele>711.0</ele><time>2026-04-26T06:11:28Z</time></trkpt><trkpt lat="45.94758486943473" lon="11.967664660360228"><ele>711.0</ele><time>2026-04-26T06:11:29Z</time></trkpt><trkpt lat="45.94750166707334" lon="11.967638896372307"><ele>711.0</ele><time>2026-04-26T06:11:30Z</time></trkpt><trkpt lat="45.94742078062177" lon="11.967589020363455"><ele>711.0</ele><time>2026-04-26T06:11:31Z</time></trkpt><trkpt lat="45.947337971880565" lon="11.967561622842918"><ele>708.0</ele><time>2026-04-26T06:11:32Z</time></trkpt><trkpt lat="45.947254488487935" lon="11.967532959987954"><ele>705.0</ele><time>2026-04-26T06:11:33Z</time></trkpt><trkpt lat="45.947168642844446" lon="11.967503486052136"><ele>702.0</ele><time>2026-04-26T06:11:34Z</time></trkpt><trkpt lat="45.94708355315486" lon="11.967472973893866"><ele>699.0</ele><time>2026-04-26T06:11:35Z</time></trkpt><trkpt lat="45.94699630166553" lon="11.967462479118142"><ele>696.0</ele><time>2026-04-26T06:11:36Z</time></trkpt><trkpt lat="45.94691487043664" lon="11.9674277151287"><ele>693.0</ele><time>2026-04-26T06:11:37Z</time></trkpt><trkpt lat="45.94683440030089" lon="11.96739435305969"><ele>692.1666666666666</ele><time>2026-04-26T06:11:38Z</time></trkpt><trkpt lat="45.94675996920245" lon="11.967359661762877"><ele>691.3333333333334</ele><time>2026-04-26T06:11:39Z</time></trkpt><trkpt lat="45.946684454358966" lon="11.967323772026091"><ele>690.5</ele><time>2026-04-26T06:11:40Z</time></trkpt><trkpt lat="45.946604982915225" lon="11.967287372197712"><ele>689.6666666666667</ele><time>2026-04-26T06:11:41Z</time></trkpt><trkpt lat="45.94652909233482" lon="11.967239652316115"><ele>688.8333333333334</ele><time>2026-04-26T06:11:42Z</time></trkpt><trkpt lat="45.946452898506976" lon="11.96719856345292"><ele>688.0</ele><time>2026-04-26T06:11:43Z</time></trkpt><trkpt lat="45.94637322310908" lon="11.967153980495123"><ele>687.3333333333334</ele><time>2026-04-26T06:11:44Z</time></trkpt><trkpt lat="45.94629560931098" lon="11.967097091402245"><ele>686.6666666666667</ele><time>2026-04-26T06:11:45Z</time></trkpt><trkpt lat="45.94621424132078" lon="11.967050673200772"><ele>686.0</ele><time>2026-04-26T06:11:46Z</time></trkpt><trkpt lat="45.94613851790839" lon="11.967012839943267"><ele>685.3333333333334</ele><time>2026-04-26T06:11:47Z</time></trkpt><trkpt lat="45.946068011536305" lon="11.966967733887124"><ele>684.6666666666666</ele><time>2026-04-26T06:11:48Z</time></trkpt><trkpt lat="45.94600074712808" lon="11.966923028613044"><ele>684.0</ele><time>2026-04-26T06:11:49Z</time></trkpt><trkpt lat="45.94593476640183" lon="11.966884413824294"><ele>683.6666666666666</ele><time>2026-04-26T06:11:50Z</time></trkpt><trkpt lat="45.94587160905432" lon="11.966847086588755"><ele>683.3333333333334</ele><time>2026-04-26T06:11:51Z</time></trkpt><trkpt lat="45.94580404846075" lon="11.966821545404374"><ele>683.0</ele><time>2026-04-26T06:11:52Z</time></trkpt><trkpt lat="45.94574179511271" lon="11.96679884716984"><ele>682.6666666666667</ele><time>2026-04-26T06:11:53Z</time></trkpt><trkpt lat="45.94567755962903" lon="11.966778877084804"><ele>682.3333333333334</ele><time>2026-04-26T06:11:54Z</time></trkpt><trkpt lat="45.945565664955524" lon="11.966681929815772"><ele>682.0</ele><time>2026-04-26T06:11:56Z</time></trkpt><trkpt lat="45.94545083801008" lon="11.96659793096806"><ele>681.3333333333334</ele><time>2026-04-26T06:11:58Z</time></trkpt><trkpt lat="45.945388239374786" lon="11.96653801691908"><ele>680.6666666666667</ele><time>2026-04-26T06:11:59Z</time></trkpt><trkpt lat="45.94531339501903" lon="11.966490637856914"><ele>680.0</ele><time>2026-04-26T06:12:00Z</time></trkpt><trkpt lat="45.94523396906696" lon="11.966453794901652"><ele>679.3333333333334</ele><time>2026-04-26T06:12:01Z</time></trkpt><trkpt lat="45.94515307309361" lon="11.966433513173452"><ele>678.6666666666666</ele><time>2026-04-26T06:12:02Z</time></trkpt><trkpt lat="45.94507565255849" lon="11.966415736080359"><ele>678.0</ele><time>2026-04-26T06:12:03Z</time></trkpt><trkpt lat="45.945004401429586" lon="11.966401403134602"><ele>677.6666666666666</ele><time>2026-04-26T06:12:04Z</time></trkpt><trkpt lat="45.94493650380792" lon="11.966379610802239"><ele>677.3333333333334</ele><time>2026-04-26T06:12:05Z</time></trkpt><trkpt lat="45.9448711673777" lon="11.96635508784381"><ele>677.0</ele><time>2026-04-26T06:12:06Z</time></trkpt><trkpt lat="45.94481042873758" lon="11.966325079873185"><ele>676.6666666666667</ele><time>2026-04-26T06:12:07Z</time></trkpt><trkpt lat="45.944686742221485" lon="11.966254898576148"><ele>676.3333333333334</ele><time>2026-04-26T06:12:09Z</time></trkpt><trkpt lat="45.944617825528795" lon="11.96622150713106"><ele>676.0</ele><time>2026-04-26T06:12:10Z</time></trkpt><trkpt lat="45.94453942324742" lon="11.966203646387783"><ele>676.0</ele><time>2026-04-26T06:12:11Z</time></trkpt><trkpt lat="45.944459849229055" lon="11.966200562482825"><ele>676.0</ele><time>2026-04-26T06:12:12Z</time></trkpt><trkpt lat="45.944370891983276" lon="11.966200786642199"><ele>676.0</ele><time>2026-04-26T06:12:13Z</time></trkpt><trkpt lat="45.9442869471659" lon="11.966202037512492"><ele>676.0</ele><time>2026-04-26T06:12:14Z</time></trkpt><trkpt lat="45.94420868669098" lon="11.966196492243169"><ele>676.0</ele><time>2026-04-26T06:12:15Z</time></trkpt><trkpt lat="45.94413606530256" lon="11.966181876166038"><ele>676.0</ele><time>2026-04-26T06:12:16Z</time></trkpt><trkpt lat="45.94406811662202" lon="11.96614689904016"><ele>675.7142857142858</ele><time>2026-04-26T06:12:17Z</time></trkpt><trkpt lat="45.9440070099393" lon="11.966115972674674"><ele>675.4285714285714</ele><time>2026-04-26T06:12:18Z</time></trkpt><trkpt lat="45.94394439362454" lon="11.96607585762809"><ele>675.1428571428571</ele><time>2026-04-26T06:12:19Z</time></trkpt><trkpt lat="45.943885023949775" lon="11.966036764896254"><ele>674.8571428571429</ele><time>2026-04-26T06:12:20Z</time></trkpt><trkpt lat="45.9438235658402" lon="11.965997007088738"><ele>674.5714285714286</ele><time>2026-04-26T06:12:21Z</time></trkpt><trkpt lat="45.94374616416592" lon="11.965955487432533"><ele>674.2857142857143</ele><time>2026-04-26T06:12:22Z</time></trkpt><trkpt lat="45.943648454391116" lon="11.965926203096837"><ele>674.0</ele><time>2026-04-26T06:12:23Z</time></trkpt><trkpt lat="45.94353178070237" lon="11.965902673664877"><ele>674.0</ele><time>2026-04-26T06:12:24Z</time></trkpt><trkpt lat="45.943406046760295" lon="11.96588749830985"><ele>674.0</ele><time>2026-04-26T06:12:25Z</time></trkpt><trkpt lat="45.94328430082252" lon="11.965890008649753"><ele>674.0</ele><time>2026-04-26T06:12:26Z</time></trkpt><trkpt lat="45.94316065296754" lon="11.965892003343269"><ele>674.0</ele><time>2026-04-26T06:12:27Z</time></trkpt><trkpt lat="45.943038221578725" lon="11.965896030768821"><ele>673.25</ele><time>2026-04-26T06:12:28Z</time></trkpt><trkpt lat="45.94291782416091" lon="11.965917846718638"><ele>672.5</ele><time>2026-04-26T06:12:29Z</time></trkpt><trkpt lat="45.94279872218368" lon="11.965943617125374"><ele>671.75</ele><time>2026-04-26T06:12:30Z</time></trkpt><trkpt lat="45.94267805742668" lon="11.965981448431982"><ele>671.0</ele><time>2026-04-26T06:12:31Z</time></trkpt><trkpt lat="45.94255512480708" lon="11.966023002439357"><ele>667.25</ele><time>2026-04-26T06:12:32Z</time></trkpt><trkpt lat="45.942440730362534" lon="11.966056805149702"><ele>663.5</ele><time>2026-04-26T06:12:33Z</time></trkpt><trkpt lat="45.942336725024845" lon="11.966068219964002"><ele>659.75</ele><time>2026-04-26T06:12:34Z</time></trkpt><trkpt lat="45.94222609484508" lon="11.96606282419466"><ele>656.0</ele><time>2026-04-26T06:12:35Z</time></trkpt><trkpt lat="45.942108629171216" lon="11.966033723370428"><ele>656.0</ele><time>2026-04-26T06:12:36Z</time></trkpt><trkpt lat="45.941993064627596" lon="11.965988878486382"><ele>656.0</ele><time>2026-04-26T06:12:37Z</time></trkpt><trkpt lat="45.94187525268638" lon="11.9659355180051"><ele>656.0</ele><time>2026-04-26T06:12:38Z</time></trkpt><trkpt lat="45.94175935764941" lon="11.965872261795989"><ele>656.0</ele><time>2026-04-26T06:12:39Z</time></trkpt><trkpt lat="45.94164234502628" lon="11.965794304774768"><ele>653.0</ele><time>2026-04-26T06:12:40Z</time></trkpt><trkpt lat="45.94154661523978" lon="11.965666820437747"><ele>650.0</ele><time>2026-04-26T06:12:41Z</time></trkpt><trkpt lat="45.941444694489356" lon="11.965548707020602"><ele>647.0</ele><time>2026-04-26T06:12:42Z</time></trkpt><trkpt lat="45.94134145759262" lon="11.965421406697903"><ele>644.0</ele><time>2026-04-26T06:12:43Z</time></trkpt><trkpt lat="45.941241775810816" lon="11.965289859362358"><ele>644.0</ele><time>2026-04-26T06:12:44Z</time></trkpt><trkpt lat="45.94114577091704" lon="11.965151237726435"><ele>644.0</ele><time>2026-04-26T06:12:45Z</time></trkpt><trkpt lat="45.941061660040695" lon="11.965010193458955"><ele>644.0</ele><time>2026-04-26T06:12:46Z</time></trkpt><trkpt lat="45.94098063056015" lon="11.96485830798067"><ele>644.0</ele><time>2026-04-26T06:12:47Z</time></trkpt><trkpt lat="45.940903337206386" lon="11.96470172148622"><ele>641.0</ele><time>2026-04-26T06:12:48Z</time></trkpt><trkpt lat="45.94084259745577" lon="11.964559925279548"><ele>638.0</ele><time>2026-04-26T06:12:49Z</time></trkpt><trkpt lat="45.94079505850709" lon="11.964420476427634"><ele>635.0</ele><time>2026-04-26T06:12:50Z</time></trkpt><trkpt lat="45.94076000467845" lon="11.964284641478022"><ele>632.0</ele><time>2026-04-26T06:12:51Z</time></trkpt><trkpt lat="45.940736773321056" lon="11.964141708224066"><ele>629.0</ele><time>2026-04-26T06:12:52Z</time></trkpt><trkpt lat="45.94071112208017" lon="11.963991818607642"><ele>629.0</ele><time>2026-04-26T06:12:53Z</time></trkpt><trkpt lat="45.94070178118211" lon="11.963834712572584"><ele>629.0</ele><time>2026-04-26T06:12:54Z</time></trkpt><trkpt lat="45.94069776372142" lon="11.963682520433446"><ele>629.0</ele><time>2026-04-26T06:12:55Z</time></trkpt><trkpt lat="45.94068685745324" lon="11.96351759145922"><ele>629.0</ele><time>2026-04-26T06:12:56Z</time></trkpt><trkpt lat="45.940684626631466" lon="11.963354555306841"><ele>629.0</ele><time>2026-04-26T06:12:57Z</time></trkpt><trkpt lat="45.94069560786473" lon="11.963186472828818"><ele>627.6</ele><time>2026-04-26T06:12:58Z</time></trkpt><trkpt lat="45.94072802924898" lon="11.963028747557436"><ele>626.2</ele><time>2026-04-26T06:12:59Z</time></trkpt><trkpt lat="45.94076621131377" lon="11.962897963540282"><ele>624.8000000000001</ele><time>2026-04-26T06:13:00Z</time></trkpt><trkpt lat="45.9408080185951" lon="11.962787872425597"><ele>623.4</ele><time>2026-04-26T06:13:01Z</time></trkpt><trkpt lat="45.940869152331594" lon="11.962705407900526"><ele>622.0</ele><time>2026-04-26T06:13:02Z</time></trkpt><trkpt lat="45.94096265352331" lon="11.962634440510001"><ele>623.0</ele><time>2026-04-26T06:13:03Z</time></trkpt><trkpt lat="45.94106740784948" lon="11.962567329096156"><ele>624.0</ele><time>2026-04-26T06:13:04Z</time></trkpt><trkpt lat="45.94117999097979" lon="11.962487797576323"><ele>625.0</ele><time>2026-04-26T06:13:05Z</time></trkpt><trkpt lat="45.941300417362356" lon="11.962401736687816"><ele>626.0</ele><time>2026-04-26T06:13:06Z</time></trkpt><trkpt lat="45.94141868437693" lon="11.962326793630208"><ele>626.0</ele><time>2026-04-26T06:13:07Z</time></trkpt><trkpt lat="45.94152988350213" lon="11.962255015817064"><ele>626.0</ele><time>2026-04-26T06:13:08Z</time></trkpt><trkpt lat="45.94163212736569" lon="11.962160104930236"><ele>626.0</ele><time>2026-04-26T06:13:09Z</time></trkpt><trkpt lat="45.94171313209104" lon="11.962045495040845"><ele>626.0</ele><time>2026-04-26T06:13:10Z</time></trkpt><trkpt lat="45.94178607380044" lon="11.961925576282948"><ele>629.0</ele><time>2026-04-26T06:13:11Z</time></trkpt><trkpt lat="45.94183797668529" lon="11.961785433603014"><ele>632.0</ele><time>2026-04-26T06:13:12Z</time></trkpt><trkpt lat="45.94187671342817" lon="11.961617255950557"><ele>635.0</ele><time>2026-04-26T06:13:13Z</time></trkpt><trkpt lat="45.94188817479574" lon="11.961438223493198"><ele>638.0</ele><time>2026-04-26T06:13:14Z</time></trkpt><trkpt lat="45.94192219752214" lon="11.961256639006365"><ele>638.0</ele><time>2026-04-26T06:13:15Z</time></trkpt><trkpt lat="45.94192610376865" lon="11.961058661608943"><ele>638.0</ele><time>2026-04-26T06:13:16Z</time></trkpt><trkpt lat="45.94194662685061" lon="11.960872122510235"><ele>638.0</ele><time>2026-04-26T06:13:17Z</time></trkpt><trkpt lat="45.94196214111503" lon="11.960690751087888"><ele>638.0</ele><time>2026-04-26T06:13:18Z</time></trkpt><trkpt lat="45.941964398248636" lon="11.960511669025445"><ele>635.4</ele><time>2026-04-26T06:13:19Z</time></trkpt><trkpt lat="45.94195844478179" lon="11.960340800966723"><ele>632.8</ele><time>2026-04-26T06:13:20Z</time></trkpt><trkpt lat="45.941959300849405" lon="11.960174525047751"><ele>630.2</ele><time>2026-04-26T06:13:21Z</time></trkpt><trkpt lat="45.94195025397004" lon="11.960018178441407"><ele>627.6</ele><time>2026-04-26T06:13:22Z</time></trkpt><trkpt lat="45.94192733550999" lon="11.959882299498378"><ele>625.0</ele><time>2026-04-26T06:13:23Z</time></trkpt><trkpt lat="45.941862315976344" lon="11.959769786793533"><ele>620.5</ele><time>2026-04-26T06:13:24Z</time></trkpt><trkpt lat="45.94176188636791" lon="11.959660805247953"><ele>616.0</ele><time>2026-04-26T06:13:25Z</time></trkpt><trkpt lat="45.941665720603545" lon="11.959555840891781"><ele>611.5</ele><time>2026-04-26T06:13:26Z</time></trkpt><trkpt lat="45.94156594674772" lon="11.959457850421357"><ele>607.0</ele><time>2026-04-26T06:13:27Z</time></trkpt><trkpt lat="45.94146161252835" lon="11.959377489102657"><ele>605.2</ele><time>2026-04-26T06:13:28Z</time></trkpt><trkpt lat="45.94135497744128" lon="11.959328479544878"><ele>603.4000000000001</ele><time>2026-04-26T06:13:29Z</time></trkpt><trkpt lat="45.941252867648906" lon="11.959299334364987"><ele>601.5999999999999</ele><time>2026-04-26T06:13:30Z</time></trkpt><trkpt lat="45.94116196708708" lon="11.959297881481687"><ele>599.8</ele><time>2026-04-26T06:13:31Z</time></trkpt><trkpt lat="45.94107609147477" lon="11.959346378866268"><ele>598.0</ele><time>2026-04-26T06:13:32Z</time></trkpt><trkpt lat="45.94098865485761" lon="11.959423469060573"><ele>598.0</ele><time>2026-04-26T06:13:33Z</time></trkpt><trkpt lat="45.94089105376225" lon="11.95949159395209"><ele>598.0</ele><time>2026-04-26T06:13:34Z</time></trkpt><trkpt lat="45.940792250772816" lon="11.959550980967741"><ele>598.0</ele><time>2026-04-26T06:13:35Z</time></trkpt><trkpt lat="45.94070559169912" lon="11.95962097031473"><ele>598.0</ele><time>2026-04-26T06:13:36Z</time></trkpt><trkpt lat="45.94064600079467" lon="11.959714109994906"><ele>598.0</ele><time>2026-04-26T06:13:37Z</time></trkpt><trkpt lat="45.940605080564744" lon="11.95985208308573"><ele>596.25</ele><time>2026-04-26T06:13:38Z</time></trkpt><trkpt lat="45.94055728188162" lon="11.960009955303947"><ele>594.5</ele><time>2026-04-26T06:13:39Z</time></trkpt><trkpt lat="45.94047219168643" lon="11.960163655854737"><ele>592.75</ele><time>2026-04-26T06:13:40Z</time></trkpt><trkpt lat="45.94037020818409" lon="11.960311246016458"><ele>591.0</ele><time>2026-04-26T06:13:41Z</time></trkpt><trkpt lat="45.94026064860958" lon="11.960439175228846"><ele>591.0</ele><time>2026-04-26T06:13:42Z</time></trkpt><trkpt lat="45.940142294978294" lon="11.960540173400414"><ele>591.0</ele><time>2026-04-26T06:13:43Z</time></trkpt><trkpt lat="45.940026486485515" lon="11.960612615710252"><ele>591.0</ele><time>2026-04-26T06:13:44Z</time></trkpt><trkpt lat="45.93993205786912" lon="11.960682459885678"><ele>591.0</ele><time>2026-04-26T06:13:45Z</time></trkpt><trkpt lat="45.93985475738239" lon="11.960797504189388"><ele>586.5</ele><time>2026-04-26T06:13:46Z</time></trkpt><trkpt lat="45.93980126402956" lon="11.960936008394643"><ele>582.0</ele><time>2026-04-26T06:13:47Z</time></trkpt><trkpt lat="45.93977772935026" lon="11.96109775101843"><ele>577.5</ele><time>2026-04-26T06:13:48Z</time></trkpt><trkpt lat="45.939756861257685" lon="11.961284513601651"><ele>573.0</ele><time>2026-04-26T06:13:49Z</time></trkpt><trkpt lat="45.93973365933713" lon="11.961486751732298"><ele>573.0</ele><time>2026-04-26T06:13:50Z</time></trkpt><trkpt lat="45.93972567863877" lon="11.96169774107029"><ele>573.0</ele><time>2026-04-26T06:13:51Z</time></trkpt><trkpt lat="45.93972575799948" lon="11.961903341645021"><ele>573.0</ele><time>2026-04-26T06:13:52Z</time></trkpt><trkpt lat="45.93973572037827" lon="11.96210459045858"><ele>573.0</ele><time>2026-04-26T06:13:53Z</time></trkpt><trkpt lat="45.939749593351486" lon="11.96228068375235"><ele>573.3333333333334</ele><time>2026-04-26T06:13:54Z</time></trkpt><trkpt lat="45.93976387828941" lon="11.962412234150301"><ele>573.6666666666666</ele><time>2026-04-26T06:13:55Z</time></trkpt><trkpt lat="45.93975906535487" lon="11.962562207458392"><ele>574.0</ele><time>2026-04-26T06:13:57Z</time></trkpt><trkpt lat="45.939675405138544" lon="11.962588862274263"><ele>574.3333333333333</ele><time>2026-04-26T06:13:58.999Z</time></trkpt><trkpt lat="45.939639063845156" lon="11.962509795174611"><ele>574.6666666666666</ele><time>2026-04-26T06:13:59.999Z</time></trkpt><trkpt lat="45.93967244269709" lon="11.962397447589515"><ele>575.0</ele><time>2026-04-26T06:14:00.999Z</time></trkpt><trkpt lat="45.9396715679437" lon="11.962223644777245"><ele>575.0</ele><time>2026-04-26T06:14:01.999Z</time></trkpt><trkpt lat="45.93965229317123" lon="11.962026573075196"><ele>575.0</ele><time>2026-04-26T06:14:02.999Z</time></trkpt><trkpt lat="45.939621459417864" lon="11.961823671924687"><ele>575.0</ele><time>2026-04-26T06:14:03.999Z</time></trkpt><trkpt lat="45.93957951803078" lon="11.961628693230729"><ele>575.0</ele><time>2026-04-26T06:14:04.999Z</time></trkpt><trkpt lat="45.93953028354951" lon="11.961451386480379"><ele>574.6</ele><time>2026-04-26T06:14:05.999Z</time></trkpt><trkpt lat="45.939478074992785" lon="11.961297913152944"><ele>574.2</ele><time>2026-04-26T06:14:06.999Z</time></trkpt><trkpt lat="45.939436890324174" lon="11.961162523471327"><ele>573.8</ele><time>2026-04-26T06:14:07.999Z</time></trkpt><trkpt lat="45.9394151030343" lon="11.961020226626601"><ele>573.4</ele><time>2026-04-26T06:14:08.999Z</time></trkpt><trkpt lat="45.939381988172144" lon="11.960888332032228"><ele>573.0</ele><time>2026-04-26T06:14:09.999Z</time></trkpt><trkpt lat="45.939368934567746" lon="11.960797239845249"><ele>573.0</ele><time>2026-04-26T06:14:10.999Z</time></trkpt><trkpt lat="45.93931940874622" lon="11.960735115884244"><ele>573.0</ele><time>2026-04-26T06:14:12Z</time></trkpt><trkpt lat="45.93921521530125" lon="11.960800927325732"><ele>573.0</ele><time>2026-04-26T06:14:14Z</time></trkpt><trkpt lat="45.93921352999957" lon="11.960899115841752"><ele>573.0</ele><time>2026-04-26T06:14:15Z</time></trkpt><trkpt lat="45.93925671374183" lon="11.961030666394477"><ele>573.0</ele><time>2026-04-26T06:14:16Z</time></trkpt><trkpt lat="45.939302463326406" lon="11.961169058398012"><ele>573.0</ele><time>2026-04-26T06:14:17Z</time></trkpt><trkpt lat="45.93934321886845" lon="11.961341862447023"><ele>573.0</ele><time>2026-04-26T06:14:18Z</time></trkpt><trkpt lat="45.93937178900865" lon="11.961533555999768"><ele>573.0</ele><time>2026-04-26T06:14:19Z</time></trkpt><trkpt lat="45.93938042123493" lon="11.961740593301114"><ele>573.0</ele><time>2026-04-26T06:14:20Z</time></trkpt><trkpt lat="45.93936834471495" lon="11.961948093539355"><ele>573.5</ele><time>2026-04-26T06:14:21Z</time></trkpt><trkpt lat="45.93935347880852" lon="11.962145483893861"><ele>574.0</ele><time>2026-04-26T06:14:22Z</time></trkpt><trkpt lat="45.93935024090332" lon="11.962333567571974"><ele>574.5</ele><time>2026-04-26T06:14:23Z</time></trkpt><trkpt lat="45.93935669926779" lon="11.96250818366044"><ele>575.0</ele><time>2026-04-26T06:14:24Z</time></trkpt><trkpt lat="45.939370688583494" lon="11.962629338789355"><ele>576.8</ele><time>2026-04-26T06:14:25Z</time></trkpt><trkpt lat="45.93934994801162" lon="11.962722515779724"><ele>578.6</ele><time>2026-04-26T06:14:26Z</time></trkpt><trkpt lat="45.939282142398255" lon="11.962804430472634"><ele>580.4</ele><time>2026-04-26T06:14:27Z</time></trkpt><trkpt lat="45.93918173520843" lon="11.962848362926726"><ele>582.2</ele><time>2026-04-26T06:14:28Z</time></trkpt><trkpt lat="45.93907140179241" lon="11.962909322405173"><ele>584.0</ele><time>2026-04-26T06:14:29Z</time></trkpt><trkpt lat="45.938994662164966" lon="11.963025750162707"><ele>578.0</ele><time>2026-04-26T06:14:30Z</time></trkpt><trkpt lat="45.93893787992745" lon="11.963095211116345"><ele>572.0</ele><time>2026-04-26T06:14:31Z</time></trkpt><trkpt lat="45.93886938362333" lon="11.963109046850555"><ele>566.0</ele><time>2026-04-26T06:14:33Z</time></trkpt><trkpt lat="45.938909329750814" lon="11.962964329976343"><ele>560.0</ele><time>2026-04-26T06:14:35Z</time></trkpt><trkpt lat="45.93896123431512" lon="11.962864061764261"><ele>554.0</ele><time>2026-04-26T06:14:36Z</time></trkpt><trkpt lat="45.93903322460013" lon="11.962763491505976"><ele>548.0</ele><time>2026-04-26T06:14:37Z</time></trkpt><trkpt lat="45.93910883635685" lon="11.962630788046779"><ele>543.75</ele><time>2026-04-26T06:14:38Z</time></trkpt><trkpt lat="45.93918200170107" lon="11.962496172979364"><ele>539.5</ele><time>2026-04-26T06:14:39Z</time></trkpt><trkpt lat="45.939172460407754" lon="11.962313772718312"><ele>535.25</ele><time>2026-04-26T06:14:40Z</time></trkpt><trkpt lat="45.93916661878111" lon="11.96212555100293"><ele>531.0</ele><time>2026-04-26T06:14:41Z</time></trkpt><trkpt lat="45.93915704297242" lon="11.96193013626492"><ele>531.0</ele><time>2026-04-26T06:14:42Z</time></trkpt><trkpt lat="45.939146456994024" lon="11.961758955601997"><ele>531.0</ele><time>2026-04-26T06:14:43Z</time></trkpt><trkpt lat="45.93912306321084" lon="11.961607627440376"><ele>531.0</ele><time>2026-04-26T06:14:44Z</time></trkpt><trkpt lat="45.93906508256152" lon="11.961442751013946"><ele>531.0</ele><time>2026-04-26T06:14:45Z</time></trkpt><trkpt lat="45.93901015558815" lon="11.961294570740973"><ele>530.2</ele><time>2026-04-26T06:14:46Z</time></trkpt><trkpt lat="45.93893197778213" lon="11.96114675347427"><ele>529.4000000000001</ele><time>2026-04-26T06:14:47Z</time></trkpt><trkpt lat="45.93885469314189" lon="11.961027860548263"><ele>528.6</ele><time>2026-04-26T06:14:48Z</time></trkpt><trkpt lat="45.9387988856254" lon="11.960910851004568"><ele>527.8000000000001</ele><time>2026-04-26T06:14:49Z</time></trkpt><trkpt lat="45.93876455567381" lon="11.960782195265237"><ele>527.0</ele><time>2026-04-26T06:14:50Z</time></trkpt><trkpt lat="45.938726434954475" lon="11.960689258124397"><ele>527.0000000000001</ele><time>2026-04-26T06:14:51Z</time></trkpt><trkpt lat="45.938676865807174" lon="11.960632253293905"><ele>527.0</ele><time>2026-04-26T06:14:52Z</time></trkpt><trkpt lat="45.93861413181325" lon="11.960597322933927"><ele>527.0</ele><time>2026-04-26T06:14:53Z</time></trkpt><trkpt lat="45.93855463726727" lon="11.960632098526638"><ele>527.0</ele><time>2026-04-26T06:14:54Z</time></trkpt><trkpt lat="45.93853709029422" lon="11.96072881564897"><ele>527.0</ele><time>2026-04-26T06:14:55Z</time></trkpt><trkpt lat="45.93857354058238" lon="11.960816524985901"><ele>527.0000000000001</ele><time>2026-04-26T06:14:56Z</time></trkpt><trkpt lat="45.93863718310867" lon="11.960893627872563"><ele>527.0</ele><time>2026-04-26T06:14:57Z</time></trkpt><trkpt lat="45.938698984479885" lon="11.960987037401939"><ele>526.25</ele><time>2026-04-26T06:14:58Z</time></trkpt><trkpt lat="45.93874542951042" lon="11.961147012763924"><ele>525.5</ele><time>2026-04-26T06:14:59Z</time></trkpt><trkpt lat="45.938799920139175" lon="11.961315230412268"><ele>524.75</ele><time>2026-04-26T06:15:00Z</time></trkpt><trkpt lat="45.93883938475037" lon="11.961469495785732"><ele>524.0</ele><time>2026-04-26T06:15:01Z</time></trkpt><trkpt lat="45.93884370404605" lon="11.961620035659212"><ele>525.4</ele><time>2026-04-26T06:15:02Z</time></trkpt><trkpt lat="45.938823515476265" lon="11.961774426049292"><ele>526.8</ele><time>2026-04-26T06:15:03Z</time></trkpt><trkpt lat="45.938798844132975" lon="11.961926728305066"><ele>528.2</ele><time>2026-04-26T06:15:04Z</time></trkpt><trkpt lat="45.93875982419567" lon="11.962065289265162"><ele>529.6</ele><time>2026-04-26T06:15:05Z</time></trkpt><trkpt lat="45.9386967150475" lon="11.962197403541747"><ele>531.0</ele><time>2026-04-26T06:15:06Z</time></trkpt><trkpt lat="45.9386373394825" lon="11.962322040193268"><ele>531.0</ele><time>2026-04-26T06:15:07Z</time></trkpt><trkpt lat="45.93860568716691" lon="11.96243949475749"><ele>531.0</ele><time>2026-04-26T06:15:08Z</time></trkpt><trkpt lat="45.938564079123076" lon="11.96252272709649"><ele>531.0</ele><time>2026-04-26T06:15:09Z</time></trkpt><trkpt lat="45.93848508780766" lon="11.962544545636923"><ele>531.0</ele><time>2026-04-26T06:15:10Z</time></trkpt><trkpt lat="45.938388439943566" lon="11.96249177227878"><ele>531.0</ele><time>2026-04-26T06:15:11Z</time></trkpt><trkpt lat="45.938272290030156" lon="11.962491762859697"><ele>532.75</ele><time>2026-04-26T06:15:12Z</time></trkpt><trkpt lat="45.938146278702604" lon="11.962494646457477"><ele>534.5</ele><time>2026-04-26T06:15:13Z</time></trkpt><trkpt lat="45.93801437563747" lon="11.962526138092713"><ele>536.25</ele><time>2026-04-26T06:15:14Z</time></trkpt><trkpt lat="45.93789391810715" lon="11.96256804373444"><ele>538.0</ele><time>2026-04-26T06:15:15Z</time></trkpt><trkpt lat="45.93778093913803" lon="11.962546446952487"><ele>535.4</ele><time>2026-04-26T06:15:16Z</time></trkpt><trkpt lat="45.93769011130458" lon="11.962506932358773"><ele>532.8</ele><time>2026-04-26T06:15:17Z</time></trkpt><trkpt lat="45.93759361087403" lon="11.962505704799272"><ele>530.2</ele><time>2026-04-26T06:15:18Z</time></trkpt><trkpt lat="45.93748679459637" lon="11.962517742340182"><ele>527.6</ele><time>2026-04-26T06:15:19Z</time></trkpt><trkpt lat="45.937372917572" lon="11.962580216998697"><ele>525.0</ele><time>2026-04-26T06:15:20Z</time></trkpt><trkpt lat="45.93726267671888" lon="11.962663878380924"><ele>525.0</ele><time>2026-04-26T06:15:21Z</time></trkpt><trkpt lat="45.937145377621285" lon="11.96271661278646"><ele>525.0</ele><time>2026-04-26T06:15:22Z</time></trkpt><trkpt lat="45.93703263115038" lon="11.962649004279001"><ele>525.0</ele><time>2026-04-26T06:15:23Z</time></trkpt><trkpt lat="45.93692271878602" lon="11.962616160405608"><ele>525.0</ele><time>2026-04-26T06:15:24Z</time></trkpt><trkpt lat="45.93680596181426" lon="11.962582369495449"><ele>524.5</ele><time>2026-04-26T06:15:25Z</time></trkpt><trkpt lat="45.93669153578668" lon="11.962549364052867"><ele>524.0</ele><time>2026-04-26T06:15:26Z</time></trkpt><trkpt lat="45.936586357137415" lon="11.962503914581328"><ele>523.5</ele><time>2026-04-26T06:15:27Z</time></trkpt><trkpt lat="45.936487454804634" lon="11.962429963367404"><ele>523.0</ele><time>2026-04-26T06:15:28Z</time></trkpt><trkpt lat="45.93637573193725" lon="11.962388327867497"><ele>516.6666666666667</ele><time>2026-04-26T06:15:29Z</time></trkpt><trkpt lat="45.9362884965826" lon="11.962353460701287"><ele>510.33333333333337</ele><time>2026-04-26T06:15:30Z</time></trkpt><trkpt lat="45.93619409153753" lon="11.962380217512912"><ele>504.0</ele><time>2026-04-26T06:15:31Z</time></trkpt><trkpt lat="45.93610004135639" lon="11.962366111314948"><ele>497.66666666666663</ele><time>2026-04-26T06:15:32Z</time></trkpt><trkpt lat="45.93603061690508" lon="11.962340552504845"><ele>491.3333333333333</ele><time>2026-04-26T06:15:33Z</time></trkpt><trkpt lat="45.93596051482546" lon="11.962309931929509"><ele>485.0</ele><time>2026-04-26T06:15:34Z</time></trkpt><trkpt lat="45.935859132535604" lon="11.96225969596655"><ele>484.99999999999994</ele><time>2026-04-26T06:15:36Z</time></trkpt><trkpt lat="45.93579278194728" lon="11.962204121967396"><ele>485.0</ele><time>2026-04-26T06:15:38Z</time></trkpt><trkpt lat="45.93574018688254" lon="11.962137557848376"><ele>485.0</ele><time>2026-04-26T06:15:40Z</time></trkpt><trkpt lat="45.93569171847136" lon="11.962061172586806"><ele>485.0</ele><time>2026-04-26T06:15:42Z</time></trkpt><trkpt lat="45.93562948854283" lon="11.961981432956206"><ele>484.99999999999994</ele><time>2026-04-26T06:15:44Z</time></trkpt><trkpt lat="45.93555547803573" lon="11.961923801124675"><ele>485.0</ele><time>2026-04-26T06:15:46Z</time></trkpt><trkpt lat="45.93547264130549" lon="11.96191853781104"><ele>484.99999999999994</ele><time>2026-04-26T06:15:48Z</time></trkpt><trkpt lat="45.93540180291641" lon="11.961873083716107"><ele>485.0</ele><time>2026-04-26T06:15:50Z</time></trkpt><trkpt lat="45.93532899432912" lon="11.96182436703019"><ele>485.0</ele><time>2026-04-26T06:15:52Z</time></trkpt><trkpt lat="45.935251617522404" lon="11.96180094522904"><ele>485.0</ele><time>2026-04-26T06:15:54Z</time></trkpt><trkpt lat="45.93516971629295" lon="11.961835815029888"><ele>484.99999999999994</ele><time>2026-04-26T06:15:56Z</time></trkpt><trkpt lat="45.935111476998685" lon="11.961921357894195"><ele>485.0</ele><time>2026-04-26T06:15:57.999Z</time></trkpt><trkpt lat="45.93506336438138" lon="11.962007386112864"><ele>486.3333333333333</ele><time>2026-04-26T06:15:59.999Z</time></trkpt><trkpt lat="45.93499667460595" lon="11.9620876336054"><ele>487.66666666666663</ele><time>2026-04-26T06:16:01.999Z</time></trkpt><trkpt lat="45.9349260708549" lon="11.962102225635888"><ele>489.0</ele><time>2026-04-26T06:16:03.999Z</time></trkpt><trkpt lat="45.93484628058504" lon="11.962079771931734"><ele>490.33333333333337</ele><time>2026-04-26T06:16:05.999Z</time></trkpt><trkpt lat="45.93479579821075" lon="11.962004556549891"><ele>491.6666666666667</ele><time>2026-04-26T06:16:07.999Z</time></trkpt><trkpt lat="45.93474029887111" lon="11.961923443768905"><ele>493.0</ele><time>2026-04-26T06:16:09.999Z</time></trkpt><trkpt lat="45.93469174971795" lon="11.961835874448655"><ele>493.00000000000006</ele><time>2026-04-26T06:16:11.999Z</time></trkpt><trkpt lat="45.934621493999124" lon="11.961763524571372"><ele>493.0</ele><time>2026-04-26T06:16:13.999Z</time></trkpt><trkpt lat="45.93455399292329" lon="11.961684897610315"><ele>493.0</ele><time>2026-04-26T06:16:15.999Z</time></trkpt><trkpt lat="45.93450061160313" lon="11.961587712415108"><ele>493.0</ele><time>2026-04-26T06:16:18Z</time></trkpt><trkpt lat="45.93445702319263" lon="11.961499369930428"><ele>493.00000000000006</ele><time>2026-04-26T06:16:20Z</time></trkpt><trkpt lat="45.93441392633389" lon="11.961380250054713"><ele>493.0</ele><time>2026-04-26T06:16:22Z</time></trkpt><trkpt lat="45.93436074576169" lon="11.961307034370522"><ele>484.4</ele><time>2026-04-26T06:16:24Z</time></trkpt><trkpt lat="45.93427337771448" lon="11.961233282987433"><ele>475.79999999999995</ele><time>2026-04-26T06:16:26Z</time></trkpt><trkpt lat="45.93419807984261" lon="11.961236634536048"><ele>467.2</ele><time>2026-04-26T06:16:27Z</time></trkpt><trkpt lat="45.9341120749576" lon="11.961271598003773"><ele>458.6</ele><time>2026-04-26T06:16:28Z</time></trkpt><trkpt lat="45.93401246747995" lon="11.961226257613372"><ele>450.0</ele><time>2026-04-26T06:16:29Z</time></trkpt><trkpt lat="45.93389682041955" lon="11.961248306959071"><ele>450.0</ele><time>2026-04-26T06:16:30Z</time></trkpt><trkpt lat="45.9337753788939" lon="11.96131022751237"><ele>450.0</ele><time>2026-04-26T06:16:31Z</time></trkpt><trkpt lat="45.933675159552365" lon="11.961338313813393"><ele>450.0</ele><time>2026-04-26T06:16:32Z</time></trkpt><trkpt lat="45.9335776522" lon="11.961386540792306"><ele>450.0</ele><time>2026-04-26T06:16:33Z</time></trkpt><trkpt lat="45.93349100299721" lon="11.96140819149212"><ele>450.0</ele><time>2026-04-26T06:16:34Z</time></trkpt><trkpt lat="45.933428075244635" lon="11.96141921802545"><ele>450.0</ele><time>2026-04-26T06:16:35Z</time></trkpt><trkpt lat="45.933563327412855" lon="11.961323365649683"><ele>450.0</ele><time>2026-04-26T06:16:40Z</time></trkpt><trkpt lat="45.933657714425145" lon="11.961284920829907"><ele>450.0</ele><time>2026-04-26T06:16:41Z</time></trkpt><trkpt lat="45.93376872336223" lon="11.961192939109463"><ele>450.0</ele><time>2026-04-26T06:16:42Z</time></trkpt><trkpt lat="45.93386098545832" lon="11.961098835031805"><ele>450.0</ele><time>2026-04-26T06:16:43Z</time></trkpt><trkpt lat="45.93394776412591" lon="11.96101584232782"><ele>450.0</ele><time>2026-04-26T06:16:44Z</time></trkpt><trkpt lat="45.93403477441387" lon="11.960947694636573"><ele>450.0</ele><time>2026-04-26T06:16:45Z</time></trkpt><trkpt lat="45.93412851949929" lon="11.960897776828324"><ele>450.0</ele><time>2026-04-26T06:16:46Z</time></trkpt><trkpt lat="45.934225805720715" lon="11.96085424873699"><ele>450.0</ele><time>2026-04-26T06:16:47Z</time></trkpt><trkpt lat="45.9343119670639" lon="11.960829668275125"><ele>450.0</ele><time>2026-04-26T06:16:48Z</time></trkpt><trkpt lat="45.9343799952619" lon="11.960838093881888"><ele>450.0</ele><time>2026-04-26T06:16:49Z</time></trkpt><trkpt lat="45.934469411741084" lon="11.96100038651701"><ele>450.0</ele><time>2026-04-26T06:16:51Z</time></trkpt><trkpt lat="45.93451454515291" lon="11.96112508233486"><ele>450.0</ele><time>2026-04-26T06:16:52Z</time></trkpt><trkpt lat="45.93457504080079" lon="11.96125066472926"><ele>450.0</ele><time>2026-04-26T06:16:53Z</time></trkpt><trkpt lat="45.93467075208551" lon="11.961311759870641"><ele>450.0</ele><time>2026-04-26T06:16:54Z</time></trkpt><trkpt lat="45.93478510418428" lon="11.961360647223744"><ele>450.0</ele><time>2026-04-26T06:16:55Z</time></trkpt><trkpt lat="45.9349066189453" lon="11.961340357218983"><ele>450.0</ele><time>2026-04-26T06:16:56Z</time></trkpt><trkpt lat="45.935028215448654" lon="11.96127267719602"><ele>450.0</ele><time>2026-04-26T06:16:57Z</time></trkpt><trkpt lat="45.93513578610504" lon="11.961227903985632"><ele>447.6</ele><time>2026-04-26T06:16:58Z</time></trkpt><trkpt lat="45.935245972410634" lon="11.961235836919487"><ele>445.2</ele><time>2026-04-26T06:16:59Z</time></trkpt><trkpt lat="45.93534794913939" lon="11.961237577348722"><ele>442.79999999999995</ele><time>2026-04-26T06:17:00Z</time></trkpt><trkpt lat="45.93545203101676" lon="11.961231304521041"><ele>440.4</ele><time>2026-04-26T06:17:01Z</time></trkpt><trkpt lat="45.935546484856026" lon="11.961260917625642"><ele>438.0</ele><time>2026-04-26T06:17:02Z</time></trkpt><trkpt lat="45.93566147711603" lon="11.96131699949484"><ele>438.0</ele><time>2026-04-26T06:17:03Z</time></trkpt><trkpt lat="45.935770975942035" lon="11.961363397814994"><ele>438.0</ele><time>2026-04-26T06:17:04Z</time></trkpt><trkpt lat="45.935912329979146" lon="11.961433788267307"><ele>438.0</ele><time>2026-04-26T06:17:05Z</time></trkpt><trkpt lat="45.93602102465767" lon="11.961448192262765"><ele>438.0</ele><time>2026-04-26T06:17:06Z</time></trkpt><trkpt lat="45.93615392193893" lon="11.961476523945047"><ele>437.4</ele><time>2026-04-26T06:17:07Z</time></trkpt><trkpt lat="45.936274392461634" lon="11.961504220927592"><ele>436.79999999999995</ele><time>2026-04-26T06:17:08Z</time></trkpt><trkpt lat="45.93638666599834" lon="11.961501309039102"><ele>436.2</ele><time>2026-04-26T06:17:09Z</time></trkpt><trkpt lat="45.936491917763675" lon="11.961476548621572"><ele>435.6</ele><time>2026-04-26T06:17:10Z</time></trkpt><trkpt lat="45.93657124598711" lon="11.961459196351075"><ele>435.0</ele><time>2026-04-26T06:17:11Z</time></trkpt><trkpt lat="45.93664707847081" lon="11.961439033841009"><ele>435.0</ele><time>2026-04-26T06:17:12Z</time></trkpt><trkpt lat="45.93669965764556" lon="11.961384498941374"><ele>435.0</ele><time>2026-04-26T06:17:13Z</time></trkpt><trkpt lat="45.93674266765516" lon="11.961263635553195"><ele>435.0</ele><time>2026-04-26T06:17:14Z</time></trkpt><trkpt lat="45.936753191503826" lon="11.961127131201724"><ele>435.0</ele><time>2026-04-26T06:17:15Z</time></trkpt><trkpt lat="45.936775673124004" lon="11.961011506516305"><ele>435.0</ele><time>2026-04-26T06:17:16Z</time></trkpt><trkpt lat="45.93681930877129" lon="11.96092645736908"><ele>435.0</ele><time>2026-04-26T06:17:17Z</time></trkpt><trkpt lat="45.93689900364432" lon="11.960886515808038"><ele>434.6666666666667</ele><time>2026-04-26T06:17:18Z</time></trkpt><trkpt lat="45.93697497973216" lon="11.96085155992451"><ele>434.33333333333337</ele><time>2026-04-26T06:17:19Z</time></trkpt><trkpt lat="45.9370247971026" lon="11.960766888429584"><ele>434.0</ele><time>2026-04-26T06:17:20Z</time></trkpt><trkpt lat="45.9370420150281" lon="11.960634669597015"><ele>433.6666666666667</ele><time>2026-04-26T06:17:21Z</time></trkpt><trkpt lat="45.93703719946515" lon="11.960489453585986"><ele>433.33333333333337</ele><time>2026-04-26T06:17:22Z</time></trkpt><trkpt lat="45.937044795179524" lon="11.960371827908986"><ele>433.0</ele><time>2026-04-26T06:17:23Z</time></trkpt><trkpt lat="45.93703046022415" lon="11.960259932990775"><ele>433.00000000000006</ele><time>2026-04-26T06:17:24Z</time></trkpt><trkpt lat="45.93701474362587" lon="11.960161978616325"><ele>433.0</ele><time>2026-04-26T06:17:25Z</time></trkpt><trkpt lat="45.93698654652886" lon="11.960053388596382"><ele>433.0</ele><time>2026-04-26T06:17:26Z</time></trkpt><trkpt lat="45.936948061504594" lon="11.95994568036942"><ele>433.0</ele><time>2026-04-26T06:17:27Z</time></trkpt><trkpt lat="45.936917556162854" lon="11.95984311288837"><ele>433.00000000000006</ele><time>2026-04-26T06:17:28Z</time></trkpt><trkpt lat="45.936887315861505" lon="11.959717174778898"><ele>433.0</ele><time>2026-04-26T06:17:29Z</time></trkpt><trkpt lat="45.93686153715674" lon="11.959603636206202"><ele>431.4</ele><time>2026-04-26T06:17:30Z</time></trkpt><trkpt lat="45.936871694002775" lon="11.959492717929425"><ele>429.79999999999995</ele><time>2026-04-26T06:17:31Z</time></trkpt><trkpt lat="45.93685525901978" lon="11.959379553258666"><ele>428.2</ele><time>2026-04-26T06:17:32Z</time></trkpt><trkpt lat="45.936793164899576" lon="11.959268840024905"><ele>426.6</ele><time>2026-04-26T06:17:33Z</time></trkpt><trkpt lat="45.93666954792044" lon="11.959240635115986"><ele>425.0</ele><time>2026-04-26T06:17:34Z</time></trkpt><trkpt lat="45.936556678791135" lon="11.959193130625112"><ele>420.25</ele><time>2026-04-26T06:17:35Z</time></trkpt><trkpt lat="45.93644575378035" lon="11.959108957589452"><ele>415.5</ele><time>2026-04-26T06:17:36Z</time></trkpt><trkpt lat="45.936327706812826" lon="11.95904560425382"><ele>410.75</ele><time>2026-04-26T06:17:37Z</time></trkpt><trkpt lat="45.9361872503369" lon="11.958986010491062"><ele>406.0</ele><time>2026-04-26T06:17:38Z</time></trkpt><trkpt lat="45.93605035228265" lon="11.958915224981627"><ele>406.0</ele><time>2026-04-26T06:17:39Z</time></trkpt><trkpt lat="45.93593219763704" lon="11.958818472814539"><ele>406.0</ele><time>2026-04-26T06:17:40Z</time></trkpt><trkpt lat="45.93579875037774" lon="11.958770022885796"><ele>406.0</ele><time>2026-04-26T06:17:41Z</time></trkpt><trkpt lat="45.935673157659714" lon="11.958716871446844"><ele>406.0</ele><time>2026-04-26T06:17:42Z</time></trkpt><trkpt lat="45.93554720861731" lon="11.958674236221771"><ele>400.5</ele><time>2026-04-26T06:17:43Z</time></trkpt><trkpt lat="45.93542647503198" lon="11.958642709863051"><ele>395.0</ele><time>2026-04-26T06:17:44Z</time></trkpt><trkpt lat="45.935310110522764" lon="11.958599119734737"><ele>389.5</ele><time>2026-04-26T06:17:45Z</time></trkpt><trkpt lat="45.93519170181215" lon="11.958560913836235"><ele>384.0</ele><time>2026-04-26T06:17:46Z</time></trkpt><trkpt lat="45.935072929348514" lon="11.958516929839268"><ele>387.75</ele><time>2026-04-26T06:17:47Z</time></trkpt><trkpt lat="45.93495999078362" lon="11.958465966909952"><ele>391.5</ele><time>2026-04-26T06:17:48Z</time></trkpt><trkpt lat="45.93484216622111" lon="11.958385239402153"><ele>395.25</ele><time>2026-04-26T06:17:49Z</time></trkpt><trkpt lat="45.93472760113787" lon="11.95829689353725"><ele>399.0</ele><time>2026-04-26T06:17:50Z</time></trkpt><trkpt lat="45.934620575466006" lon="11.958216587638482"><ele>399.0</ele><time>2026-04-26T06:17:51Z</time></trkpt><trkpt lat="45.934527121880876" lon="11.958104028706034"><ele>399.0</ele><time>2026-04-26T06:17:52Z</time></trkpt><trkpt lat="45.93444070041026" lon="11.957999714208063"><ele>399.0</ele><time>2026-04-26T06:17:53Z</time></trkpt><trkpt lat="45.93435778072757" lon="11.9579287949096"><ele>399.0</ele><time>2026-04-26T06:17:54Z</time></trkpt><trkpt lat="45.93423945178628" lon="11.95792128854859"><ele>390.5</ele><time>2026-04-26T06:17:55Z</time></trkpt><trkpt lat="45.934119538815715" lon="11.957899407468322"><ele>382.0</ele><time>2026-04-26T06:17:56Z</time></trkpt><trkpt lat="45.93398502290601" lon="11.95784800952842"><ele>373.5</ele><time>2026-04-26T06:17:57Z</time></trkpt><trkpt lat="45.93384924548282" lon="11.957751839689143"><ele>365.0</ele><time>2026-04-26T06:17:58Z</time></trkpt><trkpt lat="45.93370201999527" lon="11.957689755721052"><ele>365.0</ele><time>2026-04-26T06:17:59Z</time></trkpt><trkpt lat="45.93355113995453" lon="11.957644555734955"><ele>365.0</ele><time>2026-04-26T06:18:00Z</time></trkpt><trkpt lat="45.93341632505351" lon="11.957601623165996"><ele>365.0</ele><time>2026-04-26T06:18:00.999Z</time></trkpt><trkpt lat="45.93328310702411" lon="11.957561909500981"><ele>365.0</ele><time>2026-04-26T06:18:01.999Z</time></trkpt><trkpt lat="45.933158063625335" lon="11.957520665440162"><ele>367.2</ele><time>2026-04-26T06:18:02.999Z</time></trkpt><trkpt lat="45.93305189589017" lon="11.957485296220918"><ele>369.4</ele><time>2026-04-26T06:18:03.999Z</time></trkpt><trkpt lat="45.93295344162372" lon="11.957446075765995"><ele>371.6</ele><time>2026-04-26T06:18:04.999Z</time></trkpt><trkpt lat="45.93286262124149" lon="11.9573747164862"><ele>373.8</ele><time>2026-04-26T06:18:05.999Z</time></trkpt><trkpt lat="45.93279302356052" lon="11.95727657786282"><ele>376.0</ele><time>2026-04-26T06:18:06.999Z</time></trkpt><trkpt lat="45.93274235497709" lon="11.957168009595662"><ele>376.0</ele><time>2026-04-26T06:18:07.999Z</time></trkpt><trkpt lat="45.93267625790801" lon="11.9570949650928"><ele>376.0</ele><time>2026-04-26T06:18:08.999Z</time></trkpt><trkpt lat="45.932583553380496" lon="11.957082978245754"><ele>376.0</ele><time>2026-04-26T06:18:09.999Z</time></trkpt><trkpt lat="45.93249005615504" lon="11.957116837288197"><ele>376.0</ele><time>2026-04-26T06:18:10.999Z</time></trkpt><trkpt lat="45.93239639700889" lon="11.957198944679194"><ele>376.0</ele><time>2026-04-26T06:18:11.999Z</time></trkpt><trkpt lat="45.93230368381638" lon="11.957325339682425"><ele>372.75</ele><time>2026-04-26T06:18:12.999Z</time></trkpt><trkpt lat="45.93220849915907" lon="11.957441115067674"><ele>369.5</ele><time>2026-04-26T06:18:13.999Z</time></trkpt><trkpt lat="45.932113043531366" lon="11.957545766863111"><ele>366.25</ele><time>2026-04-26T06:18:14.999Z</time></trkpt><trkpt lat="45.932020344962744" lon="11.957648376271518"><ele>363.0</ele><time>2026-04-26T06:18:15.999Z</time></trkpt><trkpt lat="45.931937243680025" lon="11.9577279798599"><ele>358.2</ele><time>2026-04-26T06:18:16.999Z</time></trkpt><trkpt lat="45.9318453539917" lon="11.95777844115696"><ele>353.4</ele><time>2026-04-26T06:18:17.999Z</time></trkpt><trkpt lat="45.93174254168067" lon="11.957805269895907"><ele>348.59999999999997</ele><time>2026-04-26T06:18:18.999Z</time></trkpt><trkpt lat="45.93162434263607" lon="11.95783828893785"><ele>343.79999999999995</ele><time>2026-04-26T06:18:19.999Z</time></trkpt><trkpt lat="45.93151235082265" lon="11.957894075128337"><ele>339.0</ele><time>2026-04-26T06:18:20.999Z</time></trkpt><trkpt lat="45.93140796168549" lon="11.957955313475024"><ele>339.0</ele><time>2026-04-26T06:18:21.999Z</time></trkpt><trkpt lat="45.93130256859227" lon="11.958001976861885"><ele>339.0</ele><time>2026-04-26T06:18:22.999Z</time></trkpt><trkpt lat="45.93119301243049" lon="11.958030650387686"><ele>339.0</ele><time>2026-04-26T06:18:24Z</time></trkpt><trkpt lat="45.93108813717459" lon="11.9580245717365"><ele>339.0</ele><time>2026-04-26T06:18:25Z</time></trkpt><trkpt lat="45.93098651098349" lon="11.958018141299757"><ele>339.0</ele><time>2026-04-26T06:18:26Z</time></trkpt><trkpt lat="45.930894367375394" lon="11.957992724531316"><ele>338.0</ele><time>2026-04-26T06:18:27Z</time></trkpt><trkpt lat="45.930796304456955" lon="11.957945018879036"><ele>337.0</ele><time>2026-04-26T06:18:28Z</time></trkpt><trkpt lat="45.93069581618365" lon="11.957857795685456"><ele>336.0</ele><time>2026-04-26T06:18:29Z</time></trkpt><trkpt lat="45.93057875161768" lon="11.957839510576154"><ele>335.0</ele><time>2026-04-26T06:18:30Z</time></trkpt><trkpt lat="45.93047382714813" lon="11.95781693464749"><ele>334.0</ele><time>2026-04-26T06:18:31Z</time></trkpt><trkpt lat="45.930372781714055" lon="11.95772552227894"><ele>334.0</ele><time>2026-04-26T06:18:32Z</time></trkpt><trkpt lat="45.930251708578595" lon="11.95764263208397"><ele>334.0</ele><time>2026-04-26T06:18:33Z</time></trkpt><trkpt lat="45.930135225412094" lon="11.957563139591905"><ele>334.0</ele><time>2026-04-26T06:18:34Z</time></trkpt><trkpt lat="45.930017327764766" lon="11.957483274550608"><ele>334.0</ele><time>2026-04-26T06:18:35Z</time></trkpt><trkpt lat="45.929903124816384" lon="11.95740648543839"><ele>334.5</ele><time>2026-04-26T06:18:36Z</time></trkpt><trkpt lat="45.929786761642134" lon="11.95733331947095"><ele>335.0</ele><time>2026-04-26T06:18:37Z</time></trkpt><trkpt lat="45.929665857097504" lon="11.957291830031256"><ele>335.5</ele><time>2026-04-26T06:18:38Z</time></trkpt><trkpt lat="45.92955166532839" lon="11.957229661782389"><ele>336.0</ele><time>2026-04-26T06:18:39Z</time></trkpt><trkpt lat="45.92944132926711" lon="11.957174940147434"><ele>336.0</ele><time>2026-04-26T06:18:40Z</time></trkpt><trkpt lat="45.92933314522758" lon="11.957127581070106"><ele>336.0</ele><time>2026-04-26T06:18:41Z</time></trkpt><trkpt lat="45.9292242686205" lon="11.957084354800733"><ele>336.0</ele><time>2026-04-26T06:18:42Z</time></trkpt><trkpt lat="45.92911207994783" lon="11.957059628967368"><ele>336.0</ele><time>2026-04-26T06:18:43Z</time></trkpt><trkpt lat="45.92900018256784" lon="11.957049661194496"><ele>331.6</ele><time>2026-04-26T06:18:44Z</time></trkpt><trkpt lat="45.928888367275974" lon="11.957040048644277"><ele>327.20000000000005</ele><time>2026-04-26T06:18:45Z</time></trkpt><trkpt lat="45.928778696622906" lon="11.95702952745335"><ele>322.79999999999995</ele><time>2026-04-26T06:18:46Z</time></trkpt><trkpt lat="45.92866899055344" lon="11.95702045337932"><ele>318.4</ele><time>2026-04-26T06:18:47Z</time></trkpt><trkpt lat="45.92856124053658" lon="11.95702188668594"><ele>314.0</ele><time>2026-04-26T06:18:48Z</time></trkpt><trkpt lat="45.92846084079009" lon="11.957011015135237"><ele>311.59999999999997</ele><time>2026-04-26T06:18:49Z</time></trkpt><trkpt lat="45.928365310542695" lon="11.956954046054461"><ele>309.2</ele><time>2026-04-26T06:18:50Z</time></trkpt><trkpt lat="45.928270612747326" lon="11.956908984131893"><ele>306.79999999999995</ele><time>2026-04-26T06:18:51Z</time></trkpt><trkpt lat="45.92816388663591" lon="11.956932021636902"><ele>304.4</ele><time>2026-04-26T06:18:52Z</time></trkpt><trkpt lat="45.928049679845174" lon="11.956994969174097"><ele>302.0</ele><time>2026-04-26T06:18:53Z</time></trkpt><trkpt lat="45.92793996737502" lon="11.95706731673622"><ele>302.0</ele><time>2026-04-26T06:18:54Z</time></trkpt><trkpt lat="45.92782355952012" lon="11.957125181999343"><ele>302.0</ele><time>2026-04-26T06:18:55Z</time></trkpt><trkpt lat="45.92770059588282" lon="11.957180252226552"><ele>302.0</ele><time>2026-04-26T06:18:56Z</time></trkpt><trkpt lat="45.92757266158661" lon="11.957233371381895"><ele>302.0</ele><time>2026-04-26T06:18:57Z</time></trkpt><trkpt lat="45.92745172110546" lon="11.957291923088956"><ele>301.6</ele><time>2026-04-26T06:18:58Z</time></trkpt><trkpt lat="45.92734104250831" lon="11.957341157565326"><ele>301.2</ele><time>2026-04-26T06:18:59Z</time></trkpt><trkpt lat="45.92723415308936" lon="11.957383804480958"><ele>300.8</ele><time>2026-04-26T06:19:00Z</time></trkpt><trkpt lat="45.927128018114814" lon="11.957364104571857"><ele>300.4</ele><time>2026-04-26T06:19:01Z</time></trkpt><trkpt lat="45.92701665367129" lon="11.957392256203214"><ele>300.0</ele><time>2026-04-26T06:19:02Z</time></trkpt><trkpt lat="45.92689539610101" lon="11.957435757750547"><ele>300.0</ele><time>2026-04-26T06:19:03Z</time></trkpt><trkpt lat="45.926786644098165" lon="11.957472286620769"><ele>300.0</ele><time>2026-04-26T06:19:04Z</time></trkpt><trkpt lat="45.92667686227464" lon="11.95750200847164"><ele>300.0</ele><time>2026-04-26T06:19:05Z</time></trkpt><trkpt lat="45.92657298681789" lon="11.957536776321946"><ele>300.0</ele><time>2026-04-26T06:19:06Z</time></trkpt><trkpt lat="45.9264843285779" lon="11.957566042392418"><ele>300.0</ele><time>2026-04-26T06:19:07Z</time></trkpt><trkpt lat="45.926385855671555" lon="11.957570019962427"><ele>299.25</ele><time>2026-04-26T06:19:08Z</time></trkpt><trkpt lat="45.926282377611045" lon="11.95755329838132"><ele>298.5</ele><time>2026-04-26T06:19:09Z</time></trkpt><trkpt lat="45.9261602994073" lon="11.957518403229065"><ele>297.75</ele><time>2026-04-26T06:19:10Z</time></trkpt><trkpt lat="45.92602442257807" lon="11.957480414972059"><ele>297.0</ele><time>2026-04-26T06:19:11Z</time></trkpt><trkpt lat="45.925876107444296" lon="11.957477616302517"><ele>295.5</ele><time>2026-04-26T06:19:12Z</time></trkpt><trkpt lat="45.9257267151807" lon="11.957486652128793"><ele>294.0</ele><time>2026-04-26T06:19:13Z</time></trkpt><trkpt lat="45.925583314070266" lon="11.95748467224096"><ele>292.5</ele><time>2026-04-26T06:19:14Z</time></trkpt><trkpt lat="45.92544242724149" lon="11.957479551431367"><ele>291.0</ele><time>2026-04-26T06:19:15Z</time></trkpt><trkpt lat="45.925302566469306" lon="11.957465697081545"><ele>291.0</ele><time>2026-04-26T06:19:16Z</time></trkpt><trkpt lat="45.92516682232806" lon="11.957448948519938"><ele>291.0</ele><time>2026-04-26T06:19:17Z</time></trkpt><trkpt lat="45.9250391191664" lon="11.957440573607403"><ele>291.0</ele><time>2026-04-26T06:19:18Z</time></trkpt><trkpt lat="45.92491099002202" lon="11.957426399700298"><ele>291.0</ele><time>2026-04-26T06:19:19Z</time></trkpt><trkpt lat="45.924786331729344" lon="11.957399434792112"><ele>289.8</ele><time>2026-04-26T06:19:20Z</time></trkpt><trkpt lat="45.9246712691608" lon="11.957367770003602"><ele>288.6</ele><time>2026-04-26T06:19:21Z</time></trkpt><trkpt lat="45.924562648863" lon="11.957334448366018"><ele>287.4</ele><time>2026-04-26T06:19:22Z</time></trkpt><trkpt lat="45.92445939360596" lon="11.957309963660325"><ele>286.2</ele><time>2026-04-26T06:19:23Z</time></trkpt><trkpt lat="45.924357418469995" lon="11.95728870086673"><ele>285.0</ele><time>2026-04-26T06:19:24Z</time></trkpt><trkpt lat="45.92425855962244" lon="11.95727143927018"><ele>282.8</ele><time>2026-04-26T06:19:25Z</time></trkpt><trkpt lat="45.92415563178942" lon="11.957267769926755"><ele>280.6</ele><time>2026-04-26T06:19:26Z</time></trkpt><trkpt lat="45.924050276754585" lon="11.957267267981083"><ele>278.4</ele><time>2026-04-26T06:19:27Z</time></trkpt><trkpt lat="45.923946944355514" lon="11.957272852163692"><ele>276.2</ele><time>2026-04-26T06:19:28Z</time></trkpt><trkpt lat="45.923840780107305" lon="11.95727043376362"><ele>274.0</ele><time>2026-04-26T06:19:29Z</time></trkpt><trkpt lat="45.92373457749612" lon="11.957253605003412"><ele>274.0</ele><time>2026-04-26T06:19:30Z</time></trkpt><trkpt lat="45.92362883646669" lon="11.957217728256065"><ele>274.0</ele><time>2026-04-26T06:19:31Z</time></trkpt><trkpt lat="45.92352847631178" lon="11.957173721373447"><ele>274.0</ele><time>2026-04-26T06:19:32Z</time></trkpt><trkpt lat="45.923425758948355" lon="11.957123161526185"><ele>274.0</ele><time>2026-04-26T06:19:33Z</time></trkpt><trkpt lat="45.92332675764419" lon="11.957071134572264"><ele>274.0</ele><time>2026-04-26T06:19:34Z</time></trkpt><trkpt lat="45.92322785214439" lon="11.957018212298511"><ele>272.59999999999997</ele><time>2026-04-26T06:19:35Z</time></trkpt><trkpt lat="45.923132582255704" lon="11.956964631240186"><ele>271.2</ele><time>2026-04-26T06:19:36Z</time></trkpt><trkpt lat="45.92304390271714" lon="11.956906539457243"><ele>269.79999999999995</ele><time>2026-04-26T06:19:37Z</time></trkpt><trkpt lat="45.92296233232966" lon="11.9568396651935"><ele>268.4</ele><time>2026-04-26T06:19:38Z</time></trkpt><trkpt lat="45.922885272111806" lon="11.956770748603377"><ele>267.0</ele><time>2026-04-26T06:19:39Z</time></trkpt><trkpt lat="45.922813539100424" lon="11.956695817001764"><ele>266.2</ele><time>2026-04-26T06:19:40Z</time></trkpt><trkpt lat="45.92275214585272" lon="11.956614584869019"><ele>265.4</ele><time>2026-04-26T06:19:41Z</time></trkpt><trkpt lat="45.92270034039256" lon="11.956522797327727"><ele>264.6</ele><time>2026-04-26T06:19:42Z</time></trkpt><trkpt lat="45.92267900556998" lon="11.95638828007202"><ele>263.8</ele><time>2026-04-26T06:19:43Z</time></trkpt><trkpt lat="45.92262613619255" lon="11.956281040927713"><ele>263.0</ele><time>2026-04-26T06:19:44Z</time></trkpt><trkpt lat="45.92254427745602" lon="11.956190707623863"><ele>263.0</ele><time>2026-04-26T06:19:45Z</time></trkpt><trkpt lat="45.922459857851756" lon="11.956119287145619"><ele>263.0</ele><time>2026-04-26T06:19:46Z</time></trkpt><trkpt lat="45.92239425495243" lon="11.95604417155417"><ele>263.0</ele><time>2026-04-26T06:19:47Z</time></trkpt><trkpt lat="45.92234346041589" lon="11.955961085602391"><ele>263.0</ele><time>2026-04-26T06:19:48Z</time></trkpt><trkpt lat="45.92229474993829" lon="11.955862235266837"><ele>263.0</ele><time>2026-04-26T06:19:49Z</time></trkpt><trkpt lat="45.922244481956554" lon="11.955753334203312"><ele>263.0</ele><time>2026-04-26T06:19:50Z</time></trkpt><trkpt lat="45.9221936274321" lon="11.955635680338137"><ele>264.6</ele><time>2026-04-26T06:19:51Z</time></trkpt><trkpt lat="45.92214071030315" lon="11.955515676114816"><ele>266.20000000000005</ele><time>2026-04-26T06:19:52Z</time></trkpt><trkpt lat="45.92209013941617" lon="11.955400992333674"><ele>267.8</ele><time>2026-04-26T06:19:53Z</time></trkpt><trkpt lat="45.92202516022115" lon="11.955295541212555"><ele>269.40000000000003</ele><time>2026-04-26T06:19:54Z</time></trkpt><trkpt lat="45.92197426030866" lon="11.955181651355455"><ele>271.0</ele><time>2026-04-26T06:19:55Z</time></trkpt><trkpt lat="45.921915371452876" lon="11.955079662267861"><ele>273.8</ele><time>2026-04-26T06:19:56Z</time></trkpt><trkpt lat="45.92184229153972" lon="11.955019150448816"><ele>276.6</ele><time>2026-04-26T06:19:57Z</time></trkpt><trkpt lat="45.92175235892275" lon="11.954988733475483"><ele>279.4</ele><time>2026-04-26T06:19:58Z</time></trkpt><trkpt lat="45.921656567201495" lon="11.954981109232452"><ele>282.2</ele><time>2026-04-26T06:19:59Z</time></trkpt><trkpt lat="45.92156584989997" lon="11.955011211412609"><ele>285.0</ele><time>2026-04-26T06:20:00Z</time></trkpt><trkpt lat="45.921484754241234" lon="11.95507139437761"><ele>279.3333333333333</ele><time>2026-04-26T06:20:00.999Z</time></trkpt><trkpt lat="45.92141802309571" lon="11.95516053628241"><ele>273.6666666666667</ele><time>2026-04-26T06:20:01.999Z</time></trkpt><trkpt lat="45.92135163822352" lon="11.955249349723333"><ele>268.0</ele><time>2026-04-26T06:20:02.999Z</time></trkpt><trkpt lat="45.92128835708085" lon="11.955338089429642"><ele>262.33333333333337</ele><time>2026-04-26T06:20:03.999Z</time></trkpt><trkpt lat="45.92122604620836" lon="11.955426294311177"><ele>256.6666666666667</ele><time>2026-04-26T06:20:04.999Z</time></trkpt><trkpt lat="45.92117050188493" lon="11.955500174874906"><ele>251.0</ele><time>2026-04-26T06:20:05.999Z</time></trkpt><trkpt lat="45.921110843957194" lon="11.955536519152247"><ele>251.0</ele><time>2026-04-26T06:20:06.999Z</time></trkpt><trkpt lat="45.921034939789074" lon="11.95542931499743"><ele>251.00000000000003</ele><time>2026-04-26T06:20:08.999Z</time></trkpt><trkpt lat="45.92098343366469" lon="11.955340212910452"><ele>251.00000000000003</ele><time>2026-04-26T06:20:09.999Z</time></trkpt><trkpt lat="45.92092497380261" lon="11.955231071241142"><ele>251.0</ele><time>2026-04-26T06:20:10.999Z</time></trkpt><trkpt lat="45.920860189752645" lon="11.955106416341993"><ele>251.0</ele><time>2026-04-26T06:20:11.999Z</time></trkpt><trkpt lat="45.92079043325418" lon="11.954969353562399"><ele>248.4</ele><time>2026-04-26T06:20:12.999Z</time></trkpt><trkpt lat="45.920727982382196" lon="11.954845715426424"><ele>245.8</ele><time>2026-04-26T06:20:13.999Z</time></trkpt><trkpt lat="45.92066793007517" lon="11.954726825570548"><ele>243.20000000000002</ele><time>2026-04-26T06:20:14.999Z</time></trkpt><trkpt lat="45.920607102440314" lon="11.954612989377539"><ele>240.60000000000002</ele><time>2026-04-26T06:20:15.999Z</time></trkpt><trkpt lat="45.920546983535345" lon="11.954499159384643"><ele>238.0</ele><time>2026-04-26T06:20:16.999Z</time></trkpt><trkpt lat="45.92048438453713" lon="11.954380534300652"><ele>238.0</ele><time>2026-04-26T06:20:17.999Z</time></trkpt><trkpt lat="45.9204227486691" lon="11.954263734484945"><ele>238.0</ele><time>2026-04-26T06:20:18.999Z</time></trkpt><trkpt lat="45.92035916263454" lon="11.954146639453489"><ele>238.0</ele><time>2026-04-26T06:20:19.999Z</time></trkpt><trkpt lat="45.92029459215188" lon="11.954031517098482"><ele>238.0</ele><time>2026-04-26T06:20:20.999Z</time></trkpt><trkpt lat="45.920231346786835" lon="11.953918757297423"><ele>238.0</ele><time>2026-04-26T06:20:21.999Z</time></trkpt><trkpt lat="45.92015609613472" lon="11.953820061517076"><ele>238.60000000000002</ele><time>2026-04-26T06:20:22.999Z</time></trkpt><trkpt lat="45.920093587977014" lon="11.953708344109543"><ele>239.20000000000002</ele><time>2026-04-26T06:20:23.999Z</time></trkpt><trkpt lat="45.92003159708606" lon="11.953603428383802"><ele>239.8</ele><time>2026-04-26T06:20:24.999Z</time></trkpt><trkpt lat="45.91999029392557" lon="11.95348607818072"><ele>240.4</ele><time>2026-04-26T06:20:25.999Z</time></trkpt><trkpt lat="45.91995393795557" lon="11.953371157187602"><ele>241.0</ele><time>2026-04-26T06:20:26.999Z</time></trkpt><trkpt lat="45.91995013133137" lon="11.953247315760558"><ele>240.60000000000002</ele><time>2026-04-26T06:20:27.999Z</time></trkpt><trkpt lat="45.91997458952399" lon="11.953125780442825"><ele>240.20000000000002</ele><time>2026-04-26T06:20:28.999Z</time></trkpt><trkpt lat="45.91999148719723" lon="11.95299756561602"><ele>239.79999999999998</ele><time>2026-04-26T06:20:30Z</time></trkpt><trkpt lat="45.9200391699677" lon="11.952887051479104"><ele>239.39999999999998</ele><time>2026-04-26T06:20:31Z</time></trkpt><trkpt lat="45.92009129828247" lon="11.952768147515574"><ele>239.0</ele><time>2026-04-26T06:20:32Z</time></trkpt><trkpt lat="45.92014269004026" lon="11.952648720559802"><ele>239.00000000000003</ele><time>2026-04-26T06:20:33Z</time></trkpt><trkpt lat="45.920216300079915" lon="11.952556232352986"><ele>239.0</ele><time>2026-04-26T06:20:34Z</time></trkpt><trkpt lat="45.92027082669183" lon="11.952441264454263"><ele>239.0</ele><time>2026-04-26T06:20:35Z</time></trkpt><trkpt lat="45.920337335549306" lon="11.9523585339458"><ele>239.0</ele><time>2026-04-26T06:20:36Z</time></trkpt><trkpt lat="45.920395179516234" lon="11.952291362956512"><ele>239.00000000000003</ele><time>2026-04-26T06:20:37Z</time></trkpt><trkpt lat="45.92042112272473" lon="11.952194094847224"><ele>239.0</ele><time>2026-04-26T06:20:38Z</time></trkpt><trkpt lat="45.92037767666701" lon="11.952085585453645"><ele>237.2</ele><time>2026-04-26T06:20:39Z</time></trkpt><trkpt lat="45.920297158359375" lon="11.952064030775558"><ele>235.39999999999998</ele><time>2026-04-26T06:20:40Z</time></trkpt><trkpt lat="45.92022563936315" lon="11.952050752483357"><ele>233.6</ele><time>2026-04-26T06:20:41Z</time></trkpt><trkpt lat="45.92015579555789" lon="11.952191511427419"><ele>231.8</ele><time>2026-04-26T06:20:42Z</time></trkpt><trkpt lat="45.92008796580035" lon="11.952307340502403"><ele>230.0</ele><time>2026-04-26T06:20:43Z</time></trkpt><trkpt lat="45.920005779321244" lon="11.952430074236291"><ele>227.0</ele><time>2026-04-26T06:20:44Z</time></trkpt><trkpt lat="45.91992428073655" lon="11.952573128155093"><ele>224.0</ele><time>2026-04-26T06:20:45Z</time></trkpt><trkpt lat="45.91985937069983" lon="11.952717935218057"><ele>221.0</ele><time>2026-04-26T06:20:46Z</time></trkpt><trkpt lat="45.91979909210858" lon="11.95286421158841"><ele>218.0</ele><time>2026-04-26T06:20:47Z</time></trkpt><trkpt lat="45.91974185761818" lon="11.953012115385736"><ele>218.0</ele><time>2026-04-26T06:20:48Z</time></trkpt><trkpt lat="45.919693518141386" lon="11.953163412033671"><ele>218.0</ele><time>2026-04-26T06:20:49Z</time></trkpt><trkpt lat="45.91964576493823" lon="11.953314045306715"><ele>218.0</ele><time>2026-04-26T06:20:50Z</time></trkpt><trkpt lat="45.91960368401215" lon="11.953441858574864"><ele>218.0</ele><time>2026-04-26T06:20:51Z</time></trkpt><trkpt lat="45.919599879941586" lon="11.95357689302507"><ele>218.0</ele><time>2026-04-26T06:20:52Z</time></trkpt><trkpt lat="45.919612783164446" lon="11.953701388446552"><ele>218.60000000000002</ele><time>2026-04-26T06:20:53Z</time></trkpt><trkpt lat="45.919643831457954" lon="11.953847368261659"><ele>219.20000000000002</ele><time>2026-04-26T06:20:54Z</time></trkpt><trkpt lat="45.919721493869034" lon="11.953975237543872"><ele>219.8</ele><time>2026-04-26T06:20:55Z</time></trkpt><trkpt lat="45.91980162010728" lon="11.95407876989848"><ele>220.4</ele><time>2026-04-26T06:20:56Z</time></trkpt><trkpt lat="45.919866695681094" lon="11.95416882332892"><ele>221.0</ele><time>2026-04-26T06:20:57Z</time></trkpt><trkpt lat="45.91991007568819" lon="11.954285684763704"><ele>221.00000000000003</ele><time>2026-04-26T06:20:58Z</time></trkpt><trkpt lat="45.91992237644821" lon="11.954405989187583"><ele>221.0</ele><time>2026-04-26T06:20:59Z</time></trkpt><trkpt lat="45.919913877545774" lon="11.954497965790825"><ele>221.0</ele><time>2026-04-26T06:21:00Z</time></trkpt><trkpt lat="45.91981240252114" lon="11.95461811707181"><ele>221.0</ele><time>2026-04-26T06:21:02Z</time></trkpt><trkpt lat="45.91975329163441" lon="11.95465173421246"><ele>221.00000000000003</ele><time>2026-04-26T06:21:03Z</time></trkpt><trkpt lat="45.919682167364286" lon="11.954655479490638"><ele>221.0</ele><time>2026-04-26T06:21:04Z</time></trkpt><trkpt lat="45.919615157080244" lon="11.954560729258533"><ele>221.0</ele><time>2026-04-26T06:21:05Z</time></trkpt><trkpt lat="45.919560418344226" lon="11.954472012328017"><ele>221.00000000000003</ele><time>2026-04-26T06:21:06Z</time></trkpt><trkpt lat="45.91948744634028" lon="11.954363469708868"><ele>221.00000000000003</ele><time>2026-04-26T06:21:07Z</time></trkpt><trkpt lat="45.91941762593472" lon="11.95425961506015"><ele>221.0</ele><time>2026-04-26T06:21:08Z</time></trkpt><trkpt lat="45.91935579735213" lon="11.954167647651886"><ele>221.0</ele><time>2026-04-26T06:21:09Z</time></trkpt><trkpt lat="45.919290950393254" lon="11.954071190282848"><ele>218.50000000000003</ele><time>2026-04-26T06:21:10Z</time></trkpt><trkpt lat="45.91923000292071" lon="11.953978042068426"><ele>216.0</ele><time>2026-04-26T06:21:11Z</time></trkpt><trkpt lat="45.91917595468124" lon="11.953884908452522"><ele>213.5</ele><time>2026-04-26T06:21:12Z</time></trkpt><trkpt lat="45.919124348634504" lon="11.953788756991754"><ele>211.0</ele><time>2026-04-26T06:21:13Z</time></trkpt><trkpt lat="45.91907942130076" lon="11.953695108041583"><ele>208.50000000000003</ele><time>2026-04-26T06:21:14Z</time></trkpt><trkpt lat="45.91903771602028" lon="11.95359661584542"><ele>206.0</ele><time>2026-04-26T06:21:15Z</time></trkpt><trkpt lat="45.919002948455365" lon="11.953479711961027"><ele>205.0</ele><time>2026-04-26T06:21:16Z</time></trkpt><trkpt lat="45.918974462066636" lon="11.9533443435347"><ele>204.0</ele><time>2026-04-26T06:21:17Z</time></trkpt><trkpt lat="45.91895666800789" lon="11.953209475982021"><ele>203.0</ele><time>2026-04-26T06:21:18Z</time></trkpt><trkpt lat="45.91894174801407" lon="11.953069716533317"><ele>202.0</ele><time>2026-04-26T06:21:19Z</time></trkpt><trkpt lat="45.91895394205434" lon="11.95294222478042"><ele>201.0</ele><time>2026-04-26T06:21:20Z</time></trkpt><trkpt lat="45.91898018450975" lon="11.952825362949891"><ele>201.0</ele><time>2026-04-26T06:21:21Z</time></trkpt><trkpt lat="45.91899535042866" lon="11.952720516112281"><ele>201.0</ele><time>2026-04-26T06:21:22Z</time></trkpt><trkpt lat="45.91902202931923" lon="11.952634593586225"><ele>201.0</ele><time>2026-04-26T06:21:23Z</time></trkpt><trkpt lat="45.919026096200284" lon="11.952519163806036"><ele>201.0</ele><time>2026-04-26T06:21:26Z</time></trkpt><trkpt lat="45.919082760020686" lon="11.952479715381271"><ele>201.0</ele><time>2026-04-26T06:21:32Z</time></trkpt><trkpt lat="45.91922331000399" lon="11.952599202156234"><ele>201.0</ele><time>2026-04-26T06:21:34Z</time></trkpt><trkpt lat="45.91930736403138" lon="11.952656519184636"><ele>202.8</ele><time>2026-04-26T06:21:35Z</time></trkpt><trkpt lat="45.91940062994599" lon="11.952704400875728"><ele>204.60000000000002</ele><time>2026-04-26T06:21:36Z</time></trkpt><trkpt lat="45.91949453123594" lon="11.952724714627873"><ele>206.4</ele><time>2026-04-26T06:21:37Z</time></trkpt><trkpt lat="45.91958178176821" lon="11.952694049012887"><ele>208.2</ele><time>2026-04-26T06:21:38Z</time></trkpt><trkpt lat="45.91965696060888" lon="11.952612760759882"><ele>210.0</ele><time>2026-04-26T06:21:39Z</time></trkpt><trkpt lat="45.91971709204615" lon="11.952489554100895"><ele>210.0</ele><time>2026-04-26T06:21:40Z</time></trkpt><trkpt lat="45.91977346730386" lon="11.95235268458633"><ele>210.0</ele><time>2026-04-26T06:21:41Z</time></trkpt><trkpt lat="45.91982911222024" lon="11.952210487017608"><ele>210.0</ele><time>2026-04-26T06:21:42Z</time></trkpt><trkpt lat="45.91988069928529" lon="11.952087686658022"><ele>210.0</ele><time>2026-04-26T06:21:43Z</time></trkpt><trkpt lat="45.9199262111501" lon="11.951976644786718"><ele>210.0</ele><time>2026-04-26T06:21:44Z</time></trkpt><trkpt lat="45.91996544684038" lon="11.951871104468147"><ele>210.0</ele><time>2026-04-26T06:21:45Z</time></trkpt><trkpt lat="45.919997960970456" lon="11.951775326819485"><ele>210.0</ele><time>2026-04-26T06:21:46Z</time></trkpt><trkpt lat="45.92003682298252" lon="11.95165778437284"><ele>210.0</ele><time>2026-04-26T06:21:48Z</time></trkpt><trkpt lat="45.920084136540964" lon="11.95157070928225"><ele>210.0</ele><time>2026-04-26T06:21:50Z</time></trkpt><trkpt lat="45.91991832145537" lon="11.95146227956744"><ele>210.0</ele><time>2026-04-26T06:21:52Z</time></trkpt><trkpt lat="45.919802881156386" lon="11.951411379132862"><ele>208.16666666666666</ele><time>2026-04-26T06:21:54Z</time></trkpt><trkpt lat="45.91973599748525" lon="11.95139885313388"><ele>206.33333333333331</ele><time>2026-04-26T06:21:54.999Z</time></trkpt><trkpt lat="45.91967319879898" lon="11.951375588764986"><ele>204.5</ele><time>2026-04-26T06:21:55.999Z</time></trkpt><trkpt lat="45.919612399928816" lon="11.951344858836569"><ele>202.66666666666666</ele><time>2026-04-26T06:21:56.999Z</time></trkpt><trkpt lat="45.91954539177707" lon="11.951302296473141"><ele>200.83333333333331</ele><time>2026-04-26T06:21:57.999Z</time></trkpt><trkpt lat="45.91949009341976" lon="11.951242281358489"><ele>199.0</ele><time>2026-04-26T06:21:58.999Z</time></trkpt><trkpt lat="45.91942136954737" lon="11.951106101692218"><ele>199.0</ele><time>2026-04-26T06:22:00.999Z</time></trkpt><trkpt lat="45.91938100381676" lon="11.950968715746562"><ele>199.0</ele><time>2026-04-26T06:22:02.999Z</time></trkpt><trkpt lat="45.91939843723919" lon="11.950800283977054"><ele>199.0</ele><time>2026-04-26T06:22:04.999Z</time></trkpt><trkpt lat="45.91942093630021" lon="11.95069422827087"><ele>199.0</ele><time>2026-04-26T06:22:05.999Z</time></trkpt><trkpt lat="45.919442423373305" lon="11.95059608714653"><ele>199.0</ele><time>2026-04-26T06:22:06.999Z</time></trkpt><trkpt lat="45.91947498262224" lon="11.950479116613495"><ele>198.33333333333331</ele><time>2026-04-26T06:22:07.999Z</time></trkpt><trkpt lat="45.91951124754423" lon="11.950369872881001"><ele>197.66666666666666</ele><time>2026-04-26T06:22:08.999Z</time></trkpt><trkpt lat="45.919548544043835" lon="11.950266241930738"><ele>197.0</ele><time>2026-04-26T06:22:09.999Z</time></trkpt><trkpt lat="45.919583181316916" lon="11.950174840241106"><ele>196.33333333333331</ele><time>2026-04-26T06:22:10.999Z</time></trkpt><trkpt lat="45.91961827387575" lon="11.95009892007804"><ele>195.66666666666666</ele><time>2026-04-26T06:22:11.999Z</time></trkpt><trkpt lat="45.91964745790753" lon="11.950013216569445"><ele>195.0</ele><time>2026-04-26T06:22:13.999Z</time></trkpt><trkpt lat="45.91978188634916" lon="11.949961124422252"><ele>194.8</ele><time>2026-04-26T06:22:37Z</time></trkpt><trkpt lat="45.91985432482061" lon="11.949966426237326"><ele>194.6</ele><time>2026-04-26T06:22:38Z</time></trkpt><trkpt lat="45.91994124540308" lon="11.949951454893162"><ele>194.39999999999998</ele><time>2026-04-26T06:22:39Z</time></trkpt><trkpt lat="45.920041402649694" lon="11.949933681956676"><ele>194.2</ele><time>2026-04-26T06:22:40Z</time></trkpt><trkpt lat="45.92014878231951" lon="11.949918050915404"><ele>194.0</ele><time>2026-04-26T06:22:41Z</time></trkpt><trkpt lat="45.92027328985626" lon="11.94989947688066"><ele>194.0</ele><time>2026-04-26T06:22:42Z</time></trkpt><trkpt lat="45.920403526698486" lon="11.94988156050215"><ele>194.0</ele><time>2026-04-26T06:22:43Z</time></trkpt><trkpt lat="45.92053405975885" lon="11.949868613415074"><ele>194.0</ele><time>2026-04-26T06:22:44Z</time></trkpt><trkpt lat="45.920669155138974" lon="11.949860857719242"><ele>194.0</ele><time>2026-04-26T06:22:45Z</time></trkpt><trkpt lat="45.920805761565525" lon="11.949848207807586"><ele>197.75</ele><time>2026-04-26T06:22:46Z</time></trkpt><trkpt lat="45.920939698128585" lon="11.949827263897756"><ele>201.5</ele><time>2026-04-26T06:22:47Z</time></trkpt><trkpt lat="45.92107465909578" lon="11.94980958636768"><ele>205.25</ele><time>2026-04-26T06:22:48Z</time></trkpt><trkpt lat="45.921215687817536" lon="11.949791665660722"><ele>209.0</ele><time>2026-04-26T06:22:49Z</time></trkpt><trkpt lat="45.921355480428446" lon="11.949779745238931"><ele>209.0</ele><time>2026-04-26T06:22:50Z</time></trkpt><trkpt lat="45.92149850852188" lon="11.949759125594886"><ele>209.0</ele><time>2026-04-26T06:22:51Z</time></trkpt><trkpt lat="45.92164178370126" lon="11.94974240963443"><ele>209.0</ele><time>2026-04-26T06:22:52Z</time></trkpt><trkpt lat="45.921789439379786" lon="11.949731080646531"><ele>209.0</ele><time>2026-04-26T06:22:53Z</time></trkpt><trkpt lat="45.92193685985648" lon="11.949721155619871"><ele>221.0</ele><time>2026-04-26T06:22:54Z</time></trkpt><trkpt lat="45.92208885194837" lon="11.949713562234322"><ele>233.0</ele><time>2026-04-26T06:22:55.018Z</time></trkpt><trkpt lat="45.92224067332049" lon="11.949703615625015"><ele>245.0</ele><time>2026-04-26T06:22:56.019Z</time></trkpt><trkpt lat="45.92239566089763" lon="11.949690748398801"><ele>245.0</ele><time>2026-04-26T06:22:57.023Z</time></trkpt><trkpt lat="45.92255237496375" lon="11.949681546339766"><ele>245.0</ele><time>2026-04-26T06:22:58.022Z</time></trkpt><trkpt lat="45.92271250686934" lon="11.949696135181858"><ele>245.0</ele><time>2026-04-26T06:22:59.022Z</time></trkpt><trkpt lat="45.92287276746492" lon="11.949688721480252"><ele>313.0</ele><time>2026-04-26T06:23:00.022Z</time></trkpt><trkpt lat="45.923598393842376" lon="11.949591457987658"><ele>313.0</ele><time>2026-04-26T06:23:04.584Z</time></trkpt><trkpt lat="45.92375687875333" lon="11.94956114813221"><ele>313.0</ele><time>2026-04-26T06:23:05.585Z</time></trkpt><trkpt lat="45.923914848071526" lon="11.949525572347502"><ele>313.0</ele><time>2026-04-26T06:23:06.586Z</time></trkpt><trkpt lat="45.92407196954601" lon="11.949487300952034"><ele>313.0</ele><time>2026-04-26T06:23:07.584Z</time></trkpt><trkpt lat="45.92422930237305" lon="11.949444456846832"><ele>313.0</ele><time>2026-04-26T06:23:08.586Z</time></trkpt><trkpt lat="45.924385532245395" lon="11.949397325182522"><ele>313.0</ele><time>2026-04-26T06:23:09.586Z</time></trkpt><trkpt lat="45.9245409928465" lon="11.949344820572412"><ele>305.66666666666663</ele><time>2026-04-26T06:23:10.586Z</time></trkpt><trkpt lat="45.92470004043489" lon="11.949310539603632"><ele>298.3333333333333</ele><time>2026-04-26T06:23:11.586Z</time></trkpt><trkpt lat="45.92484967485121" lon="11.94922701158818"><ele>291.0</ele><time>2026-04-26T06:23:12.586Z</time></trkpt><trkpt lat="45.92500357688644" lon="11.949165729577427"><ele>302.0</ele><time>2026-04-26T06:23:13.586Z</time></trkpt><trkpt lat="45.92515624933567" lon="11.949098477988224"><ele>313.0</ele><time>2026-04-26T06:23:14.586Z</time></trkpt><trkpt lat="45.92531284361226" lon="11.949047321147134"><ele>324.0</ele><time>2026-04-26T06:23:15.586Z</time></trkpt><trkpt lat="45.925456889936044" lon="11.948943339434903"><ele>324.0</ele><time>2026-04-26T06:23:16.587Z</time></trkpt><trkpt lat="45.92560514574134" lon="11.948858548650506"><ele>324.0</ele><time>2026-04-26T06:23:17.586Z</time></trkpt><trkpt lat="45.925759445307" lon="11.948794837100346"><ele>324.0</ele><time>2026-04-26T06:23:18.586Z</time></trkpt><trkpt lat="45.9259000709915" lon="11.948682784883623"><ele>330.0</ele><time>2026-04-26T06:23:19.586Z</time></trkpt><trkpt lat="45.92605328348723" lon="11.948612975764942"><ele>336.0</ele><time>2026-04-26T06:23:20.586Z</time></trkpt><trkpt lat="45.9261915033004" lon="11.948495385394017"><ele>342.0</ele><time>2026-04-26T06:23:21.586Z</time></trkpt><trkpt lat="45.92634202815494" lon="11.94841388310339"><ele>333.3333333333333</ele><time>2026-04-26T06:23:22.586Z</time></trkpt><trkpt lat="45.92648336959427" lon="11.948307253085876"><ele>324.66666666666663</ele><time>2026-04-26T06:23:23.586Z</time></trkpt><trkpt lat="45.92662409953229" lon="11.948197641205777"><ele>316.0</ele><time>2026-04-26T06:23:24.585Z</time></trkpt><trkpt lat="45.92676214631407" lon="11.948081300586086"><ele>316.0</ele><time>2026-04-26T06:23:25.586Z</time></trkpt><trkpt lat="45.9268993157422" lon="11.947964040971803"><ele>316.0</ele><time>2026-04-26T06:23:26.586Z</time></trkpt><trkpt lat="45.92702587618425" lon="11.947821415727395"><ele>316.0</ele><time>2026-04-26T06:23:27.586Z</time></trkpt><trkpt lat="45.9271593112396" lon="11.947695604334095"><ele>316.0</ele><time>2026-04-26T06:23:28.586Z</time></trkpt><trkpt lat="45.92729056735673" lon="11.947565158952656"><ele>316.0</ele><time>2026-04-26T06:23:29.586Z</time></trkpt><trkpt lat="45.92741977916266" lon="11.947430612355424"><ele>316.0</ele><time>2026-04-26T06:23:30.586Z</time></trkpt><trkpt lat="45.92755803975679" lon="11.947313459970452"><ele>322.66666666666663</ele><time>2026-04-26T06:23:31.586Z</time></trkpt><trkpt lat="45.927685466748564" lon="11.94717402751054"><ele>329.3333333333333</ele><time>2026-04-26T06:23:32.586Z</time></trkpt><trkpt lat="45.9277997156089" lon="11.947012285818847"><ele>336.0</ele><time>2026-04-26T06:23:33.586Z</time></trkpt><trkpt lat="45.927920853094555" lon="11.946863091961259"><ele>336.0</ele><time>2026-04-26T06:23:34.586Z</time></trkpt><trkpt lat="45.92805057596277" lon="11.94672741563386"><ele>336.0</ele><time>2026-04-26T06:23:35.586Z</time></trkpt><trkpt lat="45.928156795965535" lon="11.946554127730664"><ele>336.0</ele><time>2026-04-26T06:23:36.587Z</time></trkpt><trkpt lat="45.9282295" lon="11.9464576"><ele>336.0</ele><time>2026-04-26T06:23:37.584Z</time></trkpt><trkpt lat="45.930589693641224" lon="11.942333299677765"><ele>315.0</ele><time>2026-04-26T06:24:09Z</time></trkpt><trkpt lat="45.93066045792619" lon="11.942164105109025"><ele>294.0</ele><time>2026-04-26T06:24:10Z</time></trkpt><trkpt lat="45.93074514374857" lon="11.941962309360276"><ele>273.0</ele><time>2026-04-26T06:24:11Z</time></trkpt><trkpt lat="45.930823446655815" lon="11.94183199134504"><ele>252.0</ele><time>2026-04-26T06:24:12Z</time></trkpt><trkpt lat="45.930936284694184" lon="11.941696559333518"><ele>249.5</ele><time>2026-04-26T06:24:13Z</time></trkpt><trkpt lat="45.93104904987265" lon="11.941573385766313"><ele>247.0</ele><time>2026-04-26T06:24:13.999Z</time></trkpt><trkpt lat="45.931178774897504" lon="11.941495822859398"><ele>244.5</ele><time>2026-04-26T06:24:14.999Z</time></trkpt><trkpt lat="45.931318056806205" lon="11.94143594566601"><ele>242.0</ele><time>2026-04-26T06:24:15.999Z</time></trkpt><trkpt lat="45.93145793321461" lon="11.941389123765946"><ele>242.0</ele><time>2026-04-26T06:24:16.999Z</time></trkpt><trkpt lat="45.931594623313174" lon="11.941318790185043"><ele>242.0</ele><time>2026-04-26T06:24:17.999Z</time></trkpt><trkpt lat="45.931732744187954" lon="11.941243954985826"><ele>242.0</ele><time>2026-04-26T06:24:18.999Z</time></trkpt><trkpt lat="45.931856981199466" lon="11.941152757239726"><ele>242.0</ele><time>2026-04-26T06:24:19.999Z</time></trkpt><trkpt lat="45.93198444040591" lon="11.941047073018877"><ele>244.5</ele><time>2026-04-26T06:24:20.999Z</time></trkpt><trkpt lat="45.93209390667482" lon="11.940941834634188"><ele>247.0</ele><time>2026-04-26T06:24:21.999Z</time></trkpt><trkpt lat="45.93219439748706" lon="11.940833571161326"><ele>249.5</ele><time>2026-04-26T06:24:22.999Z</time></trkpt><trkpt lat="45.93229013290896" lon="11.940724127910675"><ele>252.0</ele><time>2026-04-26T06:24:23.999Z</time></trkpt><trkpt lat="45.93238546551026" lon="11.9406247972162"><ele>248.8</ele><time>2026-04-26T06:24:24.999Z</time></trkpt><trkpt lat="45.93247506118208" lon="11.940523242108652"><ele>245.6</ele><time>2026-04-26T06:24:25.999Z</time></trkpt><trkpt lat="45.932562596157055" lon="11.940425505215321"><ele>242.40000000000003</ele><time>2026-04-26T06:24:26.999Z</time></trkpt><trkpt lat="45.93264283918299" lon="11.940332337968476"><ele>239.20000000000002</ele><time>2026-04-26T06:24:27.999Z</time></trkpt><trkpt lat="45.93271694804102" lon="11.940244147834422"><ele>236.0</ele><time>2026-04-26T06:24:28.999Z</time></trkpt><trkpt lat="45.93279355949794" lon="11.940157773690105"><ele>236.0</ele><time>2026-04-26T06:24:29.999Z</time></trkpt><trkpt lat="45.93287107343048" lon="11.940065158860543"><ele>236.00000000000003</ele><time>2026-04-26T06:24:30.999Z</time></trkpt><trkpt lat="45.932942472374435" lon="11.939980804248638"><ele>236.00000000000003</ele><time>2026-04-26T06:24:31.999Z</time></trkpt><trkpt lat="45.933020628659214" lon="11.939886294515198"><ele>236.0</ele><time>2026-04-26T06:24:32.999Z</time></trkpt><trkpt lat="45.93310571011737" lon="11.939812588510286"><ele>236.0</ele><time>2026-04-26T06:24:33.999Z</time></trkpt><trkpt lat="45.9332001926187" lon="11.939763261492418"><ele>234.60000000000002</ele><time>2026-04-26T06:24:34.999Z</time></trkpt><trkpt lat="45.93329840880585" lon="11.939688196185255"><ele>233.20000000000002</ele><time>2026-04-26T06:24:35.999Z</time></trkpt><trkpt lat="45.933383196229144" lon="11.939643570070839"><ele>231.79999999999998</ele><time>2026-04-26T06:24:36.999Z</time></trkpt><trkpt lat="45.933458231489894" lon="11.939579646500263"><ele>230.39999999999998</ele><time>2026-04-26T06:24:37.999Z</time></trkpt><trkpt lat="45.93348855855887" lon="11.9394661560768"><ele>229.0</ele><time>2026-04-26T06:24:38.999Z</time></trkpt><trkpt lat="45.933481836485875" lon="11.939345350202581"><ele>229.0</ele><time>2026-04-26T06:24:39.999Z</time></trkpt><trkpt lat="45.93346618474088" lon="11.939217477342916"><ele>228.99999999999997</ele><time>2026-04-26T06:24:40.999Z</time></trkpt><trkpt lat="45.93338944001765" lon="11.939097741012665"><ele>228.99999999999997</ele><time>2026-04-26T06:24:42Z</time></trkpt><trkpt lat="45.933300252846756" lon="11.939035812618851"><ele>229.0</ele><time>2026-04-26T06:24:43Z</time></trkpt><trkpt lat="45.93319683127101" lon="11.9390622982865"><ele>229.0</ele><time>2026-04-26T06:24:44Z</time></trkpt><trkpt lat="45.93311283508981" lon="11.939114104306677"><ele>227.79999999999998</ele><time>2026-04-26T06:24:45Z</time></trkpt><trkpt lat="45.933045292253524" lon="11.93921175189193"><ele>226.59999999999997</ele><time>2026-04-26T06:24:46Z</time></trkpt><trkpt lat="45.93297208764522" lon="11.939309332984662"><ele>225.4</ele><time>2026-04-26T06:24:47Z</time></trkpt><trkpt lat="45.93288331673133" lon="11.939389495793062"><ele>224.2</ele><time>2026-04-26T06:24:48Z</time></trkpt><trkpt lat="45.932800849510265" lon="11.939497123126884"><ele>223.0</ele><time>2026-04-26T06:24:49Z</time></trkpt><trkpt lat="45.932737325984064" lon="11.939637190742815"><ele>223.0</ele><time>2026-04-26T06:24:50Z</time></trkpt><trkpt lat="45.93269113527581" lon="11.939798992170159"><ele>223.0</ele><time>2026-04-26T06:24:51Z</time></trkpt><trkpt lat="45.932646189170796" lon="11.939969151125137"><ele>223.0</ele><time>2026-04-26T06:24:52Z</time></trkpt><trkpt lat="45.93256275236083" lon="11.940116322224046"><ele>223.0</ele><time>2026-04-26T06:24:53Z</time></trkpt><trkpt lat="45.93245763527762" lon="11.940240036551758"><ele>223.75</ele><time>2026-04-26T06:24:54Z</time></trkpt><trkpt lat="45.93235219952913" lon="11.940363163399763"><ele>224.5</ele><time>2026-04-26T06:24:55Z</time></trkpt><trkpt lat="45.93225116757237" lon="11.940480492971272"><ele>225.25</ele><time>2026-04-26T06:24:56Z</time></trkpt><trkpt lat="45.93214490087424" lon="11.940599586514084"><ele>226.0</ele><time>2026-04-26T06:24:57Z</time></trkpt><trkpt lat="45.932041031396466" lon="11.940719757489104"><ele>226.0</ele><time>2026-04-26T06:24:58Z</time></trkpt><trkpt lat="45.93192341451706" lon="11.940838850574837"><ele>226.0</ele><time>2026-04-26T06:24:59Z</time></trkpt><trkpt lat="45.931803139991686" lon="11.940937008016485"><ele>226.0</ele><time>2026-04-26T06:25:00Z</time></trkpt><trkpt lat="45.931672032865755" lon="11.941020447345153"><ele>226.0</ele><time>2026-04-26T06:25:01Z</time></trkpt><trkpt lat="45.93153600457014" lon="11.941096429621522"><ele>230.0</ele><time>2026-04-26T06:25:02Z</time></trkpt><trkpt lat="45.93139249005473" lon="11.941151062398601"><ele>234.0</ele><time>2026-04-26T06:25:03Z</time></trkpt><trkpt lat="45.93124246918717" lon="11.941177603684386"><ele>238.0</ele><time>2026-04-26T06:25:04Z</time></trkpt><trkpt lat="45.93109367429375" lon="11.941179407554987"><ele>242.0</ele><time>2026-04-26T06:25:05Z</time></trkpt><trkpt lat="45.930944609524566" lon="11.941170909592222"><ele>233.33333333333334</ele><time>2026-04-26T06:25:06Z</time></trkpt><trkpt lat="45.93078270165669" lon="11.941158823793819"><ele>224.66666666666669</ele><time>2026-04-26T06:25:07Z</time></trkpt><trkpt lat="45.93062766051505" lon="11.941138151410799"><ele>216.0</ele><time>2026-04-26T06:25:08Z</time></trkpt><trkpt lat="45.930468542032074" lon="11.941107032728004"><ele>216.0</ele><time>2026-04-26T06:25:09Z</time></trkpt><trkpt lat="45.93031170146727" lon="11.941076403020622"><ele>216.0</ele><time>2026-04-26T06:25:10Z</time></trkpt><trkpt lat="45.930154135161224" lon="11.941049293902642"><ele>216.0</ele><time>2026-04-26T06:25:11Z</time></trkpt><trkpt lat="45.92999273030652" lon="11.941028999001377"><ele>207.33333333333334</ele><time>2026-04-26T06:25:12Z</time></trkpt><trkpt lat="45.929828863497704" lon="11.941000579615661"><ele>198.66666666666669</ele><time>2026-04-26T06:25:13Z</time></trkpt><trkpt lat="45.92966801688329" lon="11.940972592523009"><ele>190.0</ele><time>2026-04-26T06:25:14Z</time></trkpt><trkpt lat="45.929509627869" lon="11.940945556229313"><ele>190.0</ele><time>2026-04-26T06:25:15Z</time></trkpt><trkpt lat="45.92935236666865" lon="11.940922919674783"><ele>190.0</ele><time>2026-04-26T06:25:16Z</time></trkpt><trkpt lat="45.92919359010225" lon="11.9408951753302"><ele>190.0</ele><time>2026-04-26T06:25:17Z</time></trkpt><trkpt lat="45.929037033711325" lon="11.940867305395333"><ele>189.66666666666669</ele><time>2026-04-26T06:25:18Z</time></trkpt><trkpt lat="45.92887832054821" lon="11.94083735808172"><ele>189.33333333333334</ele><time>2026-04-26T06:25:19Z</time></trkpt><trkpt lat="45.92872296996271" lon="11.940809335989469"><ele>189.0</ele><time>2026-04-26T06:25:20Z</time></trkpt><trkpt lat="45.92856540545935" lon="11.940782722701444"><ele>189.0</ele><time>2026-04-26T06:25:21Z</time></trkpt><trkpt lat="45.92840436482629" lon="11.940755591971246"><ele>189.0</ele><time>2026-04-26T06:25:22Z</time></trkpt><trkpt lat="45.92824380701206" lon="11.940729412609402"><ele>189.0</ele><time>2026-04-26T06:25:23Z</time></trkpt><trkpt lat="45.92808657802222" lon="11.940702702434857"><ele>191.0</ele><time>2026-04-26T06:25:24Z</time></trkpt><trkpt lat="45.92793993664567" lon="11.94067746040771"><ele>193.0</ele><time>2026-04-26T06:25:25Z</time></trkpt><trkpt lat="45.927801474240376" lon="11.940655779453989"><ele>195.0</ele><time>2026-04-26T06:25:26Z</time></trkpt><trkpt lat="45.9276701212449" lon="11.940636445159685"><ele>197.0</ele><time>2026-04-26T06:25:27Z</time></trkpt><trkpt lat="45.92754447385703" lon="11.940615132265846"><ele>199.2</ele><time>2026-04-26T06:25:28Z</time></trkpt><trkpt lat="45.927428089280184" lon="11.940592194645005"><ele>201.39999999999998</ele><time>2026-04-26T06:25:29Z</time></trkpt><trkpt lat="45.9273216008608" lon="11.940563995246738"><ele>203.60000000000002</ele><time>2026-04-26T06:25:30Z</time></trkpt><trkpt lat="45.927227638157554" lon="11.940501648448588"><ele>205.8</ele><time>2026-04-26T06:25:31Z</time></trkpt><trkpt lat="45.927155097066844" lon="11.940407229643231"><ele>208.0</ele><time>2026-04-26T06:25:32Z</time></trkpt><trkpt lat="45.927108747923775" lon="11.940297158526203"><ele>208.0</ele><time>2026-04-26T06:25:33Z</time></trkpt><trkpt lat="45.92708183904514" lon="11.940156255949864"><ele>208.0</ele><time>2026-04-26T06:25:34Z</time></trkpt><trkpt lat="45.92708886052477" lon="11.939997845861763"><ele>208.0</ele><time>2026-04-26T06:25:35Z</time></trkpt><trkpt lat="45.92712709195876" lon="11.93984208103559"><ele>208.0</ele><time>2026-04-26T06:25:36Z</time></trkpt><trkpt lat="45.92717897000195" lon="11.939685894508827"><ele>208.0</ele><time>2026-04-26T06:25:37Z</time></trkpt><trkpt lat="45.9272506602464" lon="11.93949576973185"><ele>209.25</ele><time>2026-04-26T06:25:38Z</time></trkpt><trkpt lat="45.92731494371795" lon="11.939312541605867"><ele>210.5</ele><time>2026-04-26T06:25:39Z</time></trkpt><trkpt lat="45.927365343587944" lon="11.939151273772941"><ele>211.75</ele><time>2026-04-26T06:25:40Z</time></trkpt><trkpt lat="45.927417362821515" lon="11.938988189889496"><ele>213.0</ele><time>2026-04-26T06:25:41Z</time></trkpt><trkpt lat="45.92746621835133" lon="11.938830435877067"><ele>213.60000000000002</ele><time>2026-04-26T06:25:42Z</time></trkpt><trkpt lat="45.92751183150302" lon="11.938688364123445"><ele>214.20000000000002</ele><time>2026-04-26T06:25:43Z</time></trkpt><trkpt lat="45.927553197571875" lon="11.93855770387076"><ele>214.8</ele><time>2026-04-26T06:25:44Z</time></trkpt><trkpt lat="45.92759429807138" lon="11.938431657960006"><ele>215.4</ele><time>2026-04-26T06:25:45Z</time></trkpt><trkpt lat="45.92762753587553" lon="11.938318170449508"><ele>216.0</ele><time>2026-04-26T06:25:46Z</time></trkpt><trkpt lat="45.927659332943435" lon="11.938209430379162"><ele>214.25</ele><time>2026-04-26T06:25:47Z</time></trkpt><trkpt lat="45.927698269421896" lon="11.938089771002655"><ele>212.5</ele><time>2026-04-26T06:25:48Z</time></trkpt><trkpt lat="45.927749223516905" lon="11.937960735443744"><ele>210.75</ele><time>2026-04-26T06:25:49Z</time></trkpt><trkpt lat="45.92778929424814" lon="11.93780969296541"><ele>209.0</ele><time>2026-04-26T06:25:50Z</time></trkpt><trkpt lat="45.9278852252653" lon="11.9376582408296"><ele>211.0</ele><time>2026-04-26T06:25:51Z</time></trkpt><trkpt lat="45.92800607118739" lon="11.937461356103473"><ele>213.0</ele><time>2026-04-26T06:25:52Z</time></trkpt><trkpt lat="45.92812649886823" lon="11.937282412552138"><ele>215.0</ele><time>2026-04-26T06:25:53Z</time></trkpt><trkpt lat="45.928257305715896" lon="11.9371049444148"><ele>215.33333333333334</ele><time>2026-04-26T06:25:54Z</time></trkpt><trkpt lat="45.92841167118064" lon="11.936934234706538"><ele>215.66666666666669</ele><time>2026-04-26T06:25:55Z</time></trkpt><trkpt lat="45.92854935547474" lon="11.936798496009963"><ele>216.0</ele><time>2026-04-26T06:25:56Z</time></trkpt><trkpt lat="45.92868905794842" lon="11.936676485938646"><ele>216.0</ele><time>2026-04-26T06:25:57Z</time></trkpt><trkpt lat="45.92883337812289" lon="11.936558702918502"><ele>216.0</ele><time>2026-04-26T06:25:58Z</time></trkpt><trkpt lat="45.928981757390005" lon="11.93644730406282"><ele>216.0</ele><time>2026-04-26T06:25:59Z</time></trkpt><trkpt lat="45.92913143863516" lon="11.93634151266451"><ele>213.66666666666669</ele><time>2026-04-26T06:26:00Z</time></trkpt><trkpt lat="45.92928120705769" lon="11.936228014602657"><ele>211.33333333333334</ele><time>2026-04-26T06:26:01Z</time></trkpt><trkpt lat="45.92943402977769" lon="11.936112090512976"><ele>209.0</ele><time>2026-04-26T06:26:01.999Z</time></trkpt><trkpt lat="45.92958934029067" lon="11.935991110276357"><ele>211.66666666666669</ele><time>2026-04-26T06:26:02.999Z</time></trkpt><trkpt lat="45.929743321691774" lon="11.935868503899465"><ele>214.33333333333331</ele><time>2026-04-26T06:26:03.999Z</time></trkpt><trkpt lat="45.929895761615896" lon="11.935745943300967"><ele>217.0</ele><time>2026-04-26T06:26:04.999Z</time></trkpt><trkpt lat="45.93004021982535" lon="11.935604471329995"><ele>216.33333333333331</ele><time>2026-04-26T06:26:05.999Z</time></trkpt><trkpt lat="45.930154872844895" lon="11.935464833359731"><ele>215.66666666666669</ele><time>2026-04-26T06:26:06.999Z</time></trkpt><trkpt lat="45.930297569741285" lon="11.935302671368168"><ele>215.0</ele><time>2026-04-26T06:26:07.999Z</time></trkpt><trkpt lat="45.93042600228254" lon="11.93513187294922"><ele>215.66666666666669</ele><time>2026-04-26T06:26:08.999Z</time></trkpt><trkpt lat="45.93054373294711" lon="11.934951501091655"><ele>216.33333333333331</ele><time>2026-04-26T06:26:09.999Z</time></trkpt><trkpt lat="45.930655821131666" lon="11.934762068745389"><ele>217.0</ele><time>2026-04-26T06:26:10.999Z</time></trkpt><trkpt lat="45.93075568503797" lon="11.934570498193901"><ele>217.0</ele><time>2026-04-26T06:26:11.999Z</time></trkpt><trkpt lat="45.930844750925694" lon="11.934369957944531"><ele>217.0</ele><time>2026-04-26T06:26:12.999Z</time></trkpt><trkpt lat="45.93092759280805" lon="11.93416361174261"><ele>217.0</ele><time>2026-04-26T06:26:13.999Z</time></trkpt><trkpt lat="45.9310074182259" lon="11.93395083007957"><ele>216.33333333333331</ele><time>2026-04-26T06:26:14.999Z</time></trkpt><trkpt lat="45.931084585250034" lon="11.933741909592342"><ele>215.66666666666669</ele><time>2026-04-26T06:26:15.999Z</time></trkpt><trkpt lat="45.93116191392433" lon="11.93352990678917"><ele>215.0</ele><time>2026-04-26T06:26:16.999Z</time></trkpt><trkpt lat="45.931245026339276" lon="11.933323532809844"><ele>215.0</ele><time>2026-04-26T06:26:17.999Z</time></trkpt><trkpt lat="45.931327889591806" lon="11.933113991361877"><ele>215.0</ele><time>2026-04-26T06:26:18.999Z</time></trkpt><trkpt lat="45.93140893774073" lon="11.932899961024402"><ele>215.0</ele><time>2026-04-26T06:26:19.999Z</time></trkpt><trkpt lat="45.93147827091656" lon="11.932685959392678"><ele>215.66666666666669</ele><time>2026-04-26T06:26:20.999Z</time></trkpt><trkpt lat="45.931547868290345" lon="11.932468346554126"><ele>216.33333333333331</ele><time>2026-04-26T06:26:21.999Z</time></trkpt><trkpt lat="45.931613993362504" lon="11.932244960024775"><ele>217.0</ele><time>2026-04-26T06:26:22.999Z</time></trkpt><trkpt lat="45.9316765419801" lon="11.932018587010848"><ele>215.66666666666666</ele><time>2026-04-26T06:26:23.999Z</time></trkpt><trkpt lat="45.93173009278073" lon="11.931776150697207"><ele>214.33333333333331</ele><time>2026-04-26T06:26:24.999Z</time></trkpt><trkpt lat="45.93178577114421" lon="11.931539786972639"><ele>213.0</ele><time>2026-04-26T06:26:25.999Z</time></trkpt><trkpt lat="45.93184565325305" lon="11.931302697509492"><ele>213.0</ele><time>2026-04-26T06:26:26.999Z</time></trkpt><trkpt lat="45.93189430903079" lon="11.931067007759653"><ele>213.0</ele><time>2026-04-26T06:26:27.999Z</time></trkpt><trkpt lat="45.93193743755928" lon="11.930830257532723"><ele>213.0</ele><time>2026-04-26T06:26:28.999Z</time></trkpt><trkpt lat="45.931986391742505" lon="11.93058906377837"><ele>212.0</ele><time>2026-04-26T06:26:29.999Z</time></trkpt><trkpt lat="45.93202722978545" lon="11.93036387886836"><ele>211.0</ele><time>2026-04-26T06:26:30.999Z</time></trkpt><trkpt lat="45.932075200250175" lon="11.930137502288996"><ele>210.0</ele><time>2026-04-26T06:26:31.999Z</time></trkpt><trkpt lat="45.93212145460892" lon="11.929899134340273"><ele>210.0</ele><time>2026-04-26T06:26:32.999Z</time></trkpt><trkpt lat="45.932167407229954" lon="11.929663928456817"><ele>210.0</ele><time>2026-04-26T06:26:33.999Z</time></trkpt><trkpt lat="45.93221067228441" lon="11.929434326150169"><ele>210.0</ele><time>2026-04-26T06:26:34.999Z</time></trkpt><trkpt lat="45.93226117423756" lon="11.929197381863522"><ele>210.0</ele><time>2026-04-26T06:26:35.999Z</time></trkpt><trkpt lat="45.932312133965745" lon="11.928961956732769"><ele>210.0</ele><time>2026-04-26T06:26:36.999Z</time></trkpt><trkpt lat="45.93236736571945" lon="11.928728915350032"><ele>210.0</ele><time>2026-04-26T06:26:37.999Z</time></trkpt><trkpt lat="45.93242555990188" lon="11.928497909932666"><ele>210.66666666666669</ele><time>2026-04-26T06:26:38.999Z</time></trkpt><trkpt lat="45.93249289330619" lon="11.92827159246834"><ele>211.33333333333334</ele><time>2026-04-26T06:26:39.999Z</time></trkpt><trkpt lat="45.932582048878835" lon="11.928060693865927"><ele>212.0</ele><time>2026-04-26T06:26:40.999Z</time></trkpt><trkpt lat="45.93266155210186" lon="11.927843636448536"><ele>206.0</ele><time>2026-04-26T06:26:41.999Z</time></trkpt><trkpt lat="45.932747356421054" lon="11.927628114433377"><ele>200.0</ele><time>2026-04-26T06:26:42.999Z</time></trkpt><trkpt lat="45.93282561439949" lon="11.927408946340865"><ele>194.0</ele><time>2026-04-26T06:26:43.999Z</time></trkpt><trkpt lat="45.93292914251014" lon="11.927216015747147"><ele>194.0</ele><time>2026-04-26T06:26:44.999Z</time></trkpt><trkpt lat="45.93303498881636" lon="11.927023908982013"><ele>194.0</ele><time>2026-04-26T06:26:45.999Z</time></trkpt><trkpt lat="45.93314418128966" lon="11.926841135519217"><ele>194.0</ele><time>2026-04-26T06:26:46.999Z</time></trkpt><trkpt lat="45.93325192141843" lon="11.926653259191257"><ele>190.66666666666669</ele><time>2026-04-26T06:26:48Z</time></trkpt><trkpt lat="45.93335902550149" lon="11.926470093067389"><ele>187.33333333333334</ele><time>2026-04-26T06:26:49Z</time></trkpt><trkpt lat="45.9334582840379" lon="11.9262785909843"><ele>184.0</ele><time>2026-04-26T06:26:50Z</time></trkpt><trkpt lat="45.933559165973904" lon="11.926086577700424"><ele>184.0</ele><time>2026-04-26T06:26:51Z</time></trkpt><trkpt lat="45.93366479760908" lon="11.925901531332203"><ele>184.0</ele><time>2026-04-26T06:26:52Z</time></trkpt><trkpt lat="45.933768580405115" lon="11.925711341434392"><ele>184.0</ele><time>2026-04-26T06:26:53Z</time></trkpt><trkpt lat="45.93386923794799" lon="11.925518586020535"><ele>187.0</ele><time>2026-04-26T06:26:54Z</time></trkpt><trkpt lat="45.933973016810036" lon="11.925325018972229"><ele>190.0</ele><time>2026-04-26T06:26:55Z</time></trkpt><trkpt lat="45.93407472060916" lon="11.925135390301635"><ele>193.0</ele><time>2026-04-26T06:26:56Z</time></trkpt><trkpt lat="45.93417253600104" lon="11.92496101747267"><ele>190.33333333333331</ele><time>2026-04-26T06:26:57Z</time></trkpt><trkpt lat="45.93427307151656" lon="11.924784284939996"><ele>187.66666666666666</ele><time>2026-04-26T06:26:58Z</time></trkpt><trkpt lat="45.934372327758574" lon="11.924606140271354"><ele>185.0</ele><time>2026-04-26T06:26:59Z</time></trkpt><trkpt lat="45.934473490953835" lon="11.924425613146482"><ele>185.0</ele><time>2026-04-26T06:27:00Z</time></trkpt><trkpt lat="45.93457043289365" lon="11.924250354139835"><ele>185.0</ele><time>2026-04-26T06:27:01Z</time></trkpt><trkpt lat="45.93466216801523" lon="11.92407749983899"><ele>185.0</ele><time>2026-04-26T06:27:02Z</time></trkpt><trkpt lat="45.934759686688245" lon="11.923897568314867"><ele>187.33333333333331</ele><time>2026-04-26T06:27:03Z</time></trkpt><trkpt lat="45.93485431230382" lon="11.92371416867249"><ele>189.66666666666666</ele><time>2026-04-26T06:27:04Z</time></trkpt><trkpt lat="45.93494908905548" lon="11.92353484417892"><ele>192.0</ele><time>2026-04-26T06:27:05Z</time></trkpt><trkpt lat="45.9350476860732" lon="11.923357436111772"><ele>189.75</ele><time>2026-04-26T06:27:06Z</time></trkpt><trkpt lat="45.93514079558686" lon="11.92319365699433"><ele>187.5</ele><time>2026-04-26T06:27:07Z</time></trkpt><trkpt lat="45.93523884666443" lon="11.923034815776814"><ele>185.25</ele><time>2026-04-26T06:27:08Z</time></trkpt><trkpt lat="45.93533684603352" lon="11.922866488350305"><ele>183.0</ele><time>2026-04-26T06:27:09Z</time></trkpt><trkpt lat="45.93543139812629" lon="11.922692258006972"><ele>187.33333333333331</ele><time>2026-04-26T06:27:10Z</time></trkpt><trkpt lat="45.935523269589794" lon="11.922514155067079"><ele>191.66666666666666</ele><time>2026-04-26T06:27:11Z</time></trkpt><trkpt lat="45.93561856770305" lon="11.922331795371514"><ele>196.0</ele><time>2026-04-26T06:27:12Z</time></trkpt><trkpt lat="45.93571532181487" lon="11.922149913215017"><ele>196.0</ele><time>2026-04-26T06:27:13Z</time></trkpt><trkpt lat="45.935820755489125" lon="11.921973014763207"><ele>196.0</ele><time>2026-04-26T06:27:14Z</time></trkpt><trkpt lat="45.93592426308906" lon="11.921795010906978"><ele>196.0</ele><time>2026-04-26T06:27:15Z</time></trkpt><trkpt lat="45.936026702378875" lon="11.921613544113466"><ele>193.66666666666666</ele><time>2026-04-26T06:27:16Z</time></trkpt><trkpt lat="45.93613247104165" lon="11.921433668549993"><ele>191.33333333333331</ele><time>2026-04-26T06:27:17Z</time></trkpt><trkpt lat="45.936232148885665" lon="11.921256528855228"><ele>189.0</ele><time>2026-04-26T06:27:18Z</time></trkpt><trkpt lat="45.93635003040779" lon="11.921095514338155"><ele>189.0</ele><time>2026-04-26T06:27:19Z</time></trkpt><trkpt lat="45.936491440312224" lon="11.920966155186017"><ele>189.0</ele><time>2026-04-26T06:27:20Z</time></trkpt><trkpt lat="45.93663336089902" lon="11.920852119738694"><ele>189.0</ele><time>2026-04-26T06:27:21Z</time></trkpt><trkpt lat="45.9367783905292" lon="11.920740257101102"><ele>190.0</ele><time>2026-04-26T06:27:22Z</time></trkpt><trkpt lat="45.93692545594326" lon="11.920627883730472"><ele>191.0</ele><time>2026-04-26T06:27:23Z</time></trkpt><trkpt lat="45.937074709774556" lon="11.920515384654223"><ele>192.0</ele><time>2026-04-26T06:27:24Z</time></trkpt><trkpt lat="45.93722805724196" lon="11.920415429383459"><ele>192.0</ele><time>2026-04-26T06:27:25Z</time></trkpt><trkpt lat="45.937385369199575" lon="11.920334594404645"><ele>192.0</ele><time>2026-04-26T06:27:26Z</time></trkpt><trkpt lat="45.93754577996147" lon="11.92026285368699"><ele>192.0</ele><time>2026-04-26T06:27:27Z</time></trkpt><trkpt lat="45.93769853955414" lon="11.920192796872236"><ele>191.66666666666666</ele><time>2026-04-26T06:27:28Z</time></trkpt><trkpt lat="45.93784328658245" lon="11.920122065261964"><ele>191.33333333333331</ele><time>2026-04-26T06:27:29Z</time></trkpt><trkpt lat="45.93798621022032" lon="11.920054138457484"><ele>191.0</ele><time>2026-04-26T06:27:30Z</time></trkpt><trkpt lat="45.93813644206969" lon="11.919990046757423"><ele>193.66666666666666</ele><time>2026-04-26T06:27:31Z</time></trkpt><trkpt lat="45.93828785770879" lon="11.919936069690632"><ele>196.33333333333331</ele><time>2026-04-26T06:27:32Z</time></trkpt><trkpt lat="45.93843641092775" lon="11.919891375020196"><ele>199.0</ele><time>2026-04-26T06:27:33Z</time></trkpt><trkpt lat="45.93858997534612" lon="11.919856487866978"><ele>199.0</ele><time>2026-04-26T06:27:34Z</time></trkpt><trkpt lat="45.938745003820515" lon="11.919828685857125"><ele>199.0</ele><time>2026-04-26T06:27:35Z</time></trkpt><trkpt lat="45.938904645577246" lon="11.919815622532393"><ele>199.0</ele><time>2026-04-26T06:27:36Z</time></trkpt><trkpt lat="45.93906273055921" lon="11.91980673535677"><ele>199.0</ele><time>2026-04-26T06:27:37Z</time></trkpt><trkpt lat="45.93921631592456" lon="11.919800325886666"><ele>199.0</ele><time>2026-04-26T06:27:38Z</time></trkpt><trkpt lat="45.93936387261645" lon="11.919791803094764"><ele>199.0</ele><time>2026-04-26T06:27:39Z</time></trkpt><trkpt lat="45.93951496513741" lon="11.91978102352407"><ele>199.0</ele><time>2026-04-26T06:27:40Z</time></trkpt><trkpt lat="45.939658760610705" lon="11.9197730013619"><ele>199.0</ele><time>2026-04-26T06:27:41Z</time></trkpt><trkpt lat="45.93980399257026" lon="11.91976299393884"><ele>199.0</ele><time>2026-04-26T06:27:42Z</time></trkpt><trkpt lat="45.939953034259126" lon="11.91976457126341"><ele>199.0</ele><time>2026-04-26T06:27:43Z</time></trkpt><trkpt lat="45.94010833805066" lon="11.919783618991113"><ele>200.33333333333331</ele><time>2026-04-26T06:27:44Z</time></trkpt><trkpt lat="45.94026001005572" lon="11.919816173662497"><ele>201.66666666666669</ele><time>2026-04-26T06:27:45Z</time></trkpt><trkpt lat="45.94041457518825" lon="11.919861598395448"><ele>203.0</ele><time>2026-04-26T06:27:46Z</time></trkpt><trkpt lat="45.940570108466474" lon="11.919916509388619"><ele>203.0</ele><time>2026-04-26T06:27:47Z</time></trkpt><trkpt lat="45.94072146812078" lon="11.919981516861961"><ele>203.0</ele><time>2026-04-26T06:27:48Z</time></trkpt><trkpt lat="45.94087118234564" lon="11.920060904893738"><ele>203.0</ele><time>2026-04-26T06:27:49Z</time></trkpt><trkpt lat="45.941030402756354" lon="11.920154277861963"><ele>201.33333333333334</ele><time>2026-04-26T06:27:50Z</time></trkpt><trkpt lat="45.94118577175823" lon="11.920262329099614"><ele>199.66666666666669</ele><time>2026-04-26T06:27:51Z</time></trkpt><trkpt lat="45.941333397239035" lon="11.920368617132981"><ele>198.0</ele><time>2026-04-26T06:27:52Z</time></trkpt><trkpt lat="45.94148443260549" lon="11.920474344181509"><ele>198.0</ele><time>2026-04-26T06:27:53Z</time></trkpt><trkpt lat="45.94163937560513" lon="11.920584784348927"><ele>198.0</ele><time>2026-04-26T06:27:54Z</time></trkpt><trkpt lat="45.941789182022994" lon="11.920692353894946"><ele>198.0</ele><time>2026-04-26T06:27:55Z</time></trkpt><trkpt lat="45.9419399858589" lon="11.920801791291977"><ele>198.66666666666669</ele><time>2026-04-26T06:27:56Z</time></trkpt><trkpt lat="45.942091006159025" lon="11.920911898362736"><ele>199.33333333333334</ele><time>2026-04-26T06:27:57Z</time></trkpt><trkpt lat="45.94224567994207" lon="11.92102088977628"><ele>200.0</ele><time>2026-04-26T06:27:58Z</time></trkpt><trkpt lat="45.94240004649092" lon="11.921131493860464"><ele>205.0</ele><time>2026-04-26T06:27:59Z</time></trkpt><trkpt lat="45.94255115974989" lon="11.921235529112009"><ele>210.0</ele><time>2026-04-26T06:28:00Z</time></trkpt><trkpt lat="45.942703514789265" lon="11.921341470692834"><ele>215.0</ele><time>2026-04-26T06:28:01Z</time></trkpt><trkpt lat="45.94285760856238" lon="11.921447129501958"><ele>215.0</ele><time>2026-04-26T06:28:02Z</time></trkpt><trkpt lat="45.943011220569" lon="11.921546191875555"><ele>215.0</ele><time>2026-04-26T06:28:03Z</time></trkpt><trkpt lat="45.94317066289053" lon="11.921639134575196"><ele>215.0</ele><time>2026-04-26T06:28:04Z</time></trkpt><trkpt lat="45.94333131061575" lon="11.921723881245045"><ele>208.66666666666669</ele><time>2026-04-26T06:28:05Z</time></trkpt><trkpt lat="45.943493249074365" lon="11.921792140837614"><ele>202.33333333333331</ele><time>2026-04-26T06:28:06Z</time></trkpt><trkpt lat="45.943661235885024" lon="11.921852730348066"><ele>196.0</ele><time>2026-04-26T06:28:07Z</time></trkpt><trkpt lat="45.94382891312452" lon="11.921899812067426"><ele>196.0</ele><time>2026-04-26T06:28:08Z</time></trkpt><trkpt lat="45.94399323435704" lon="11.921941381275182"><ele>196.0</ele><time>2026-04-26T06:28:09Z</time></trkpt><trkpt lat="45.94415698550018" lon="11.92197366583331"><ele>196.0</ele><time>2026-04-26T06:28:10Z</time></trkpt><trkpt lat="45.94432376886004" lon="11.922001621557271"><ele>200.0</ele><time>2026-04-26T06:28:10.999Z</time></trkpt><trkpt lat="45.94449059622395" lon="11.92203988515597"><ele>204.0</ele><time>2026-04-26T06:28:11.999Z</time></trkpt><trkpt lat="45.944653541155425" lon="11.922101319934887"><ele>208.0</ele><time>2026-04-26T06:28:12.999Z</time></trkpt><trkpt lat="45.94481464670252" lon="11.922171159346982"><ele>208.0</ele><time>2026-04-26T06:28:13.999Z</time></trkpt><trkpt lat="45.94497358851857" lon="11.922235190820977"><ele>208.0</ele><time>2026-04-26T06:28:14.999Z</time></trkpt><trkpt lat="45.94513223335456" lon="11.922298884014301"><ele>208.0</ele><time>2026-04-26T06:28:15.999Z</time></trkpt><trkpt lat="45.94529829426846" lon="11.92234793093853"><ele>206.33333333333331</ele><time>2026-04-26T06:28:16.999Z</time></trkpt><trkpt lat="45.94546646456506" lon="11.9223833103191"><ele>204.66666666666669</ele><time>2026-04-26T06:28:17.999Z</time></trkpt><trkpt lat="45.94563245318885" lon="11.922398384034246"><ele>203.0</ele><time>2026-04-26T06:28:18.999Z</time></trkpt><trkpt lat="45.94579905375029" lon="11.922402605791353"><ele>209.0</ele><time>2026-04-26T06:28:19.999Z</time></trkpt><trkpt lat="45.94596520603955" lon="11.922408106257594"><ele>215.0</ele><time>2026-04-26T06:28:20.999Z</time></trkpt><trkpt lat="45.94613237758743" lon="11.922420261319548"><ele>221.0</ele><time>2026-04-26T06:28:21.999Z</time></trkpt><trkpt lat="45.946303582200315" lon="11.922435124891662"><ele>221.0</ele><time>2026-04-26T06:28:22.999Z</time></trkpt><trkpt lat="45.946475880663336" lon="11.922480476286694"><ele>221.0</ele><time>2026-04-26T06:28:23.999Z</time></trkpt><trkpt lat="45.946647455911204" lon="11.922534148435126"><ele>221.0</ele><time>2026-04-26T06:28:24.999Z</time></trkpt><trkpt lat="45.94681859783803" lon="11.922602457515199"><ele>215.33333333333334</ele><time>2026-04-26T06:28:25.999Z</time></trkpt><trkpt lat="45.94698595423533" lon="11.922676647703542"><ele>209.66666666666669</ele><time>2026-04-26T06:28:26.999Z</time></trkpt><trkpt lat="45.947142105956004" lon="11.922735561274521"><ele>204.0</ele><time>2026-04-26T06:28:27.999Z</time></trkpt><trkpt lat="45.9473020159141" lon="11.92278786714299"><ele>204.0</ele><time>2026-04-26T06:28:28.999Z</time></trkpt><trkpt lat="45.947458985225964" lon="11.922844082328993"><ele>204.0</ele><time>2026-04-26T06:28:29.999Z</time></trkpt><trkpt lat="45.947615187204754" lon="11.922905941577591"><ele>204.0</ele><time>2026-04-26T06:28:30.999Z</time></trkpt><trkpt lat="45.94777696467439" lon="11.922977972885162"><ele>208.66666666666669</ele><time>2026-04-26T06:28:31.999Z</time></trkpt><trkpt lat="45.947938302165795" lon="11.923067513114027"><ele>213.33333333333334</ele><time>2026-04-26T06:28:32.999Z</time></trkpt><trkpt lat="45.94809133797322" lon="11.923170453305373"><ele>218.0</ele><time>2026-04-26T06:28:33.999Z</time></trkpt><trkpt lat="45.94823558920432" lon="11.923285709454392"><ele>215.0</ele><time>2026-04-26T06:28:34.999Z</time></trkpt><trkpt lat="45.94838081294664" lon="11.923418831246114"><ele>212.0</ele><time>2026-04-26T06:28:35.999Z</time></trkpt><trkpt lat="45.94852206087875" lon="11.92356615077454"><ele>209.0</ele><time>2026-04-26T06:28:36.999Z</time></trkpt><trkpt lat="45.948657897367006" lon="11.923723420340432"><ele>209.0</ele><time>2026-04-26T06:28:37.999Z</time></trkpt><trkpt lat="45.94878639437863" lon="11.923876020669592"><ele>209.0</ele><time>2026-04-26T06:28:38.999Z</time></trkpt><trkpt lat="45.948907670140954" lon="11.924029080344827"><ele>209.0</ele><time>2026-04-26T06:28:39.999Z</time></trkpt><trkpt lat="45.94903179188775" lon="11.92418739768942"><ele>211.66666666666669</ele><time>2026-04-26T06:28:40.999Z</time></trkpt><trkpt lat="45.94915862423409" lon="11.924338714456113"><ele>214.33333333333331</ele><time>2026-04-26T06:28:41.999Z</time></trkpt><trkpt lat="45.94928601244309" lon="11.924495488044533"><ele>217.0</ele><time>2026-04-26T06:28:42.999Z</time></trkpt><trkpt lat="45.94941038307368" lon="11.924651383933579"><ele>217.0</ele><time>2026-04-26T06:28:43.999Z</time></trkpt><trkpt lat="45.949536515161675" lon="11.924810062531737"><ele>217.0</ele><time>2026-04-26T06:28:44.999Z</time></trkpt><trkpt lat="45.94966370188476" lon="11.92496621595066"><ele>217.0</ele><time>2026-04-26T06:28:45.999Z</time></trkpt><trkpt lat="45.949789858349725" lon="11.925122156461432"><ele>217.0</ele><time>2026-04-26T06:28:46.999Z</time></trkpt><trkpt lat="45.949916378240374" lon="11.925278371871393"><ele>217.0</ele><time>2026-04-26T06:28:47.999Z</time></trkpt><trkpt lat="45.95004574998041" lon="11.925428794389141"><ele>217.0</ele><time>2026-04-26T06:28:48.999Z</time></trkpt><trkpt lat="45.95017783194704" lon="11.925573970124987"><ele>217.0</ele><time>2026-04-26T06:28:49.999Z</time></trkpt><trkpt lat="45.95031065587366" lon="11.925707904837259"><ele>217.0</ele><time>2026-04-26T06:28:50.999Z</time></trkpt><trkpt lat="45.95045019976311" lon="11.925829604119496"><ele>217.0</ele><time>2026-04-26T06:28:51.999Z</time></trkpt><trkpt lat="45.95059275311857" lon="11.92594562029982"><ele>214.0</ele><time>2026-04-26T06:28:52.999Z</time></trkpt><trkpt lat="45.950733498841835" lon="11.926056036280835"><ele>211.0</ele><time>2026-04-26T06:28:54Z</time></trkpt><trkpt lat="45.95087432403426" lon="11.926169380148533"><ele>208.0</ele><time>2026-04-26T06:28:55Z</time></trkpt><trkpt lat="45.951018921201005" lon="11.926285292198816"><ele>208.0</ele><time>2026-04-26T06:28:56Z</time></trkpt><trkpt lat="45.95116800936593" lon="11.926400238049997"><ele>208.0</ele><time>2026-04-26T06:28:57Z</time></trkpt><trkpt lat="45.95131740567719" lon="11.926516742842656"><ele>208.0</ele><time>2026-04-26T06:28:58Z</time></trkpt><trkpt lat="45.95146741258926" lon="11.926638149464132"><ele>207.33333333333331</ele><time>2026-04-26T06:28:59Z</time></trkpt><trkpt lat="45.951619184579116" lon="11.926756336714394"><ele>206.66666666666669</ele><time>2026-04-26T06:29:00Z</time></trkpt><trkpt lat="45.951771022574455" lon="11.926871266769126"><ele>206.0</ele><time>2026-04-26T06:29:01Z</time></trkpt><trkpt lat="45.95192286943233" lon="11.926990651540601"><ele>206.0</ele><time>2026-04-26T06:29:02Z</time></trkpt><trkpt lat="45.95207141419081" lon="11.927113625271518"><ele>206.0</ele><time>2026-04-26T06:29:03Z</time></trkpt><trkpt lat="45.95221823883705" lon="11.927233882664064"><ele>206.0</ele><time>2026-04-26T06:29:04Z</time></trkpt><trkpt lat="45.95236087580892" lon="11.927364194664362"><ele>206.0</ele><time>2026-04-26T06:29:05Z</time></trkpt><trkpt lat="45.9525003270685" lon="11.927503637447197"><ele>206.0</ele><time>2026-04-26T06:29:06Z</time></trkpt><trkpt lat="45.95263774489126" lon="11.92764815701361"><ele>206.0</ele><time>2026-04-26T06:29:07Z</time></trkpt><trkpt lat="45.95276814997911" lon="11.92779572392368"><ele>207.66666666666669</ele><time>2026-04-26T06:29:08Z</time></trkpt><trkpt lat="45.95289848938563" lon="11.927943417901213"><ele>209.33333333333331</ele><time>2026-04-26T06:29:09Z</time></trkpt><trkpt lat="45.95303679910793" lon="11.928076440873886"><ele>211.0</ele><time>2026-04-26T06:29:10Z</time></trkpt><trkpt lat="45.953178930850285" lon="11.928202922409902"><ele>211.0</ele><time>2026-04-26T06:29:11Z</time></trkpt><trkpt lat="45.95332303142882" lon="11.928324923027137"><ele>211.0</ele><time>2026-04-26T06:29:12Z</time></trkpt><trkpt lat="45.953469483613716" lon="11.928441417596517"><ele>211.0</ele><time>2026-04-26T06:29:13Z</time></trkpt><trkpt lat="45.95362077396796" lon="11.92855412891069"><ele>209.66666666666666</ele><time>2026-04-26T06:29:14Z</time></trkpt><trkpt lat="45.95377180843969" lon="11.92866302215206"><ele>208.33333333333331</ele><time>2026-04-26T06:29:15Z</time></trkpt><trkpt lat="45.953923329160965" lon="11.928772245566405"><ele>207.0</ele><time>2026-04-26T06:29:16Z</time></trkpt><trkpt lat="45.954074297071244" lon="11.928881718882264"><ele>212.0</ele><time>2026-04-26T06:29:17Z</time></trkpt><trkpt lat="45.954228560297224" lon="11.928988625530932"><ele>217.0</ele><time>2026-04-26T06:29:18Z</time></trkpt><trkpt lat="45.9543813338276" lon="11.929094661917004"><ele>222.0</ele><time>2026-04-26T06:29:19Z</time></trkpt><trkpt lat="45.9545355409156" lon="11.929204456155293"><ele>216.66666666666669</ele><time>2026-04-26T06:29:20Z</time></trkpt><trkpt lat="45.9546870618727" lon="11.92931369707705"><ele>211.33333333333334</ele><time>2026-04-26T06:29:21Z</time></trkpt><trkpt lat="45.95482908169511" lon="11.92942239023968"><ele>206.0</ele><time>2026-04-26T06:29:22Z</time></trkpt><trkpt lat="45.9549684566429" lon="11.92954189180769"><ele>217.33333333333334</ele><time>2026-04-26T06:29:23Z</time></trkpt><trkpt lat="45.95510151337667" lon="11.92968958460089"><ele>228.66666666666669</ele><time>2026-04-26T06:29:24Z</time></trkpt><trkpt lat="45.955224054641015" lon="11.929862214571648"><ele>240.0</ele><time>2026-04-26T06:29:25Z</time></trkpt><trkpt lat="45.95533435076839" lon="11.930051764987168"><ele>233.66666666666669</ele><time>2026-04-26T06:29:26Z</time></trkpt><trkpt lat="45.955430802358634" lon="11.930252419528074"><ele>227.33333333333334</ele><time>2026-04-26T06:29:27Z</time></trkpt><trkpt lat="45.95551968799452" lon="11.930461095162338"><ele>221.0</ele><time>2026-04-26T06:29:28Z</time></trkpt><trkpt lat="45.95560352992452" lon="11.93067410268366"><ele>221.0</ele><time>2026-04-26T06:29:29Z</time></trkpt><trkpt lat="45.95568709086627" lon="11.930881575643564"><ele>221.0</ele><time>2026-04-26T06:29:30Z</time></trkpt><trkpt lat="45.95577733494763" lon="11.931086448499364"><ele>221.0</ele><time>2026-04-26T06:29:31Z</time></trkpt><trkpt lat="45.955870865946544" lon="11.931288297376865"><ele>219.33333333333334</ele><time>2026-04-26T06:29:32Z</time></trkpt><trkpt lat="45.955966816954" lon="11.931487412061717"><ele>217.66666666666669</ele><time>2026-04-26T06:29:33Z</time></trkpt><trkpt lat="45.95606789102243" lon="11.931681129293665"><ele>216.0</ele><time>2026-04-26T06:29:34Z</time></trkpt><trkpt lat="45.95617674133807" lon="11.9318663686841"><ele>216.0</ele><time>2026-04-26T06:29:35Z</time></trkpt><trkpt lat="45.95628960067342" lon="11.932051672162915"><ele>216.0</ele><time>2026-04-26T06:29:36Z</time></trkpt><trkpt lat="45.956409368147845" lon="11.932226477340366"><ele>216.0</ele><time>2026-04-26T06:29:37Z</time></trkpt><trkpt lat="45.95653369303624" lon="11.932392597657241"><ele>215.66666666666669</ele><time>2026-04-26T06:29:38Z</time></trkpt><trkpt lat="45.95666211606924" lon="11.932559890924425"><ele>215.33333333333334</ele><time>2026-04-26T06:29:39Z</time></trkpt><trkpt lat="45.9567808104888" lon="11.932740205568873"><ele>215.0</ele><time>2026-04-26T06:29:40Z</time></trkpt><trkpt lat="45.95690362456202" lon="11.932891000660257"><ele>215.0</ele><time>2026-04-26T06:29:41Z</time></trkpt><trkpt lat="45.957041743239834" lon="11.933024014978303"><ele>215.0</ele><time>2026-04-26T06:29:42Z</time></trkpt><trkpt lat="45.95717587124319" lon="11.933166418346811"><ele>215.0</ele><time>2026-04-26T06:29:43Z</time></trkpt><trkpt lat="45.95732160918301" lon="11.933285354536288"><ele>210.66666666666669</ele><time>2026-04-26T06:29:44Z</time></trkpt><trkpt lat="45.95747395744345" lon="11.933393167754515"><ele>206.33333333333331</ele><time>2026-04-26T06:29:45Z</time></trkpt><trkpt lat="45.95763087838098" lon="11.933492031351957"><ele>202.0</ele><time>2026-04-26T06:29:46Z</time></trkpt><trkpt lat="45.957784289681484" lon="11.93360714794375"><ele>202.0</ele><time>2026-04-26T06:29:47Z</time></trkpt><trkpt lat="45.95794706382345" lon="11.933694620252965"><ele>202.0</ele><time>2026-04-26T06:29:48Z</time></trkpt><trkpt lat="45.95810722329268" lon="11.93374955503103"><ele>202.0</ele><time>2026-04-26T06:29:49Z</time></trkpt><trkpt lat="45.958258693455114" lon="11.933834941753982"><ele>203.0</ele><time>2026-04-26T06:29:50Z</time></trkpt><trkpt lat="45.95841707915564" lon="11.933893377766319"><ele>204.0</ele><time>2026-04-26T06:29:51Z</time></trkpt><trkpt lat="45.958578797864725" lon="11.933914537159907"><ele>205.0</ele><time>2026-04-26T06:29:52Z</time></trkpt><trkpt lat="45.958739846134534" lon="11.933949574595278"><ele>205.0</ele><time>2026-04-26T06:29:53Z</time></trkpt><trkpt lat="45.9588985914332" lon="11.933969002294143"><ele>205.0</ele><time>2026-04-26T06:29:54Z</time></trkpt><trkpt lat="45.95905668773651" lon="11.933978931568072"><ele>205.0</ele><time>2026-04-26T06:29:55Z</time></trkpt><trkpt lat="45.959214567567855" lon="11.933973510247627"><ele>205.33333333333331</ele><time>2026-04-26T06:29:56Z</time></trkpt><trkpt lat="45.95937327250864" lon="11.933960753829838"><ele>205.66666666666669</ele><time>2026-04-26T06:29:57Z</time></trkpt><trkpt lat="45.959532718474826" lon="11.933933636673649"><ele>206.0</ele><time>2026-04-26T06:29:58Z</time></trkpt><trkpt lat="45.95969119093561" lon="11.933921980034837"><ele>206.0</ele><time>2026-04-26T06:29:59Z</time></trkpt><trkpt lat="45.959843664804424" lon="11.933860560138662"><ele>206.0</ele><time>2026-04-26T06:30:00Z</time></trkpt><trkpt lat="45.96000074088565" lon="11.933817910241402"><ele>206.0</ele><time>2026-04-26T06:30:01Z</time></trkpt><trkpt lat="45.96015799736367" lon="11.933771882235606"><ele>204.0</ele><time>2026-04-26T06:30:02Z</time></trkpt><trkpt lat="45.96031706779161" lon="11.933726163444392"><ele>202.0</ele><time>2026-04-26T06:30:03Z</time></trkpt><trkpt lat="45.9604800991575" lon="11.933678156229433"><ele>200.0</ele><time>2026-04-26T06:30:04Z</time></trkpt><trkpt lat="45.960645842790846" lon="11.933630391172159"><ele>200.0</ele><time>2026-04-26T06:30:05Z</time></trkpt><trkpt lat="45.960814219957044" lon="11.933579016009283"><ele>200.0</ele><time>2026-04-26T06:30:06Z</time></trkpt><trkpt lat="45.960985165891216" lon="11.933529387466642"><ele>200.0</ele><time>2026-04-26T06:30:07Z</time></trkpt><trkpt lat="45.961158564320556" lon="11.933477101565224"><ele>198.66666666666669</ele><time>2026-04-26T06:30:08Z</time></trkpt><trkpt lat="45.961328488541575" lon="11.93342818735983"><ele>197.33333333333331</ele><time>2026-04-26T06:30:08.999Z</time></trkpt><trkpt lat="45.96150203332617" lon="11.933379969870904"><ele>196.0</ele><time>2026-04-26T06:30:09.999Z</time></trkpt><trkpt lat="45.96167770764862" lon="11.93333215325202"><ele>198.33333333333331</ele><time>2026-04-26T06:30:10.999Z</time></trkpt><trkpt lat="45.96185097815001" lon="11.933280548591473"><ele>200.66666666666669</ele><time>2026-04-26T06:30:11.999Z</time></trkpt><trkpt lat="45.962026107404384" lon="11.93323258561246"><ele>203.0</ele><time>2026-04-26T06:30:12.999Z</time></trkpt><trkpt lat="45.96219169559841" lon="11.933183859939817"><ele>203.0</ele><time>2026-04-26T06:30:13.999Z</time></trkpt><trkpt lat="45.962353704781954" lon="11.93313385229204"><ele>203.0</ele><time>2026-04-26T06:30:14.999Z</time></trkpt><trkpt lat="45.96251362796744" lon="11.933082742630255"><ele>203.0</ele><time>2026-04-26T06:30:15.999Z</time></trkpt><trkpt lat="45.9626730436363" lon="11.933022764283157"><ele>200.66666666666669</ele><time>2026-04-26T06:30:16.999Z</time></trkpt><trkpt lat="45.96282813916424" lon="11.93295490670167"><ele>198.33333333333331</ele><time>2026-04-26T06:30:17.999Z</time></trkpt><trkpt lat="45.96298925206204" lon="11.932887184943787"><ele>196.0</ele><time>2026-04-26T06:30:18.999Z</time></trkpt><trkpt lat="45.9631451870468" lon="11.932816435347918"><ele>196.0</ele><time>2026-04-26T06:30:19.999Z</time></trkpt><trkpt lat="45.96330425001032" lon="11.93274005915815"><ele>196.0</ele><time>2026-04-26T06:30:20.999Z</time></trkpt><trkpt lat="45.96345848620473" lon="11.932658696087726"><ele>196.0</ele><time>2026-04-26T06:30:21.999Z</time></trkpt><trkpt lat="45.96361166637565" lon="11.932573582662753"><ele>198.33333333333331</ele><time>2026-04-26T06:30:22.999Z</time></trkpt><trkpt lat="45.96376465969628" lon="11.932486896055078"><ele>200.66666666666669</ele><time>2026-04-26T06:30:23.999Z</time></trkpt><trkpt lat="45.963921993973734" lon="11.932402905109507"><ele>203.0</ele><time>2026-04-26T06:30:24.999Z</time></trkpt><trkpt lat="45.96407434846318" lon="11.932311069909199"><ele>201.33333333333334</ele><time>2026-04-26T06:30:25.999Z</time></trkpt><trkpt lat="45.96422675190406" lon="11.932219887951462"><ele>199.66666666666669</ele><time>2026-04-26T06:30:26.999Z</time></trkpt><trkpt lat="45.96438198958906" lon="11.932130619780029"><ele>198.0</ele><time>2026-04-26T06:30:27.999Z</time></trkpt><trkpt lat="45.96453677047099" lon="11.932046790101577"><ele>198.0</ele><time>2026-04-26T06:30:28.999Z</time></trkpt><trkpt lat="45.96469595335034" lon="11.931976922141208"><ele>198.0</ele><time>2026-04-26T06:30:29.999Z</time></trkpt><trkpt lat="45.96485865387716" lon="11.93192863556646"><ele>198.0</ele><time>2026-04-26T06:30:30.999Z</time></trkpt><trkpt lat="45.96502710032416" lon="11.931920081875033"><ele>199.0</ele><time>2026-04-26T06:30:31.999Z</time></trkpt><trkpt lat="45.96519274634303" lon="11.931936369387204"><ele>200.0</ele><time>2026-04-26T06:30:32.999Z</time></trkpt><trkpt lat="45.96535350520311" lon="11.93198834275347"><ele>201.0</ele><time>2026-04-26T06:30:33.999Z</time></trkpt><trkpt lat="45.96550891659923" lon="11.932061861927208"><ele>201.0</ele><time>2026-04-26T06:30:34.999Z</time></trkpt><trkpt lat="45.96566079583556" lon="11.93215534281683"><ele>201.0</ele><time>2026-04-26T06:30:35.999Z</time></trkpt><trkpt lat="45.96581241706039" lon="11.932256178445689"><ele>201.0</ele><time>2026-04-26T06:30:36.999Z</time></trkpt><trkpt lat="45.96596184179685" lon="11.932351502688162"><ele>199.66666666666669</ele><time>2026-04-26T06:30:37.999Z</time></trkpt><trkpt lat="45.96610926455765" lon="11.932446853963606"><ele>198.33333333333334</ele><time>2026-04-26T06:30:38.999Z</time></trkpt><trkpt lat="45.96625732645965" lon="11.932543775465831"><ele>197.0</ele><time>2026-04-26T06:30:39.999Z</time></trkpt><trkpt lat="45.966405958283005" lon="11.932637340787256"><ele>197.0</ele><time>2026-04-26T06:30:40.999Z</time></trkpt><trkpt lat="45.96655679369355" lon="11.932726995888405"><ele>197.0</ele><time>2026-04-26T06:30:41.999Z</time></trkpt><trkpt lat="45.966706526596134" lon="11.932810825349085"><ele>197.0</ele><time>2026-04-26T06:30:42.999Z</time></trkpt><trkpt lat="45.966858170137144" lon="11.932890486454788"><ele>199.0</ele><time>2026-04-26T06:30:43.999Z</time></trkpt><trkpt lat="45.96701149325491" lon="11.932969938901612"><ele>201.0</ele><time>2026-04-26T06:30:44.999Z</time></trkpt><trkpt lat="45.967166448326196" lon="11.93304353282548"><ele>203.0</ele><time>2026-04-26T06:30:45.999Z</time></trkpt><trkpt lat="45.967322294014785" lon="11.933117675436636"><ele>203.0</ele><time>2026-04-26T06:30:46.999Z</time></trkpt><trkpt lat="45.967479280869384" lon="11.933193063845685"><ele>203.0</ele><time>2026-04-26T06:30:47.999Z</time></trkpt><trkpt lat="45.96763940624068" lon="11.933260581787003"><ele>203.0</ele><time>2026-04-26T06:30:48.999Z</time></trkpt><trkpt lat="45.967799128486135" lon="11.933319727878445"><ele>201.33333333333334</ele><time>2026-04-26T06:30:49.999Z</time></trkpt><trkpt lat="45.967964812803764" lon="11.933360932488528"><ele>199.66666666666669</ele><time>2026-04-26T06:30:50.999Z</time></trkpt><trkpt lat="45.968130472890394" lon="11.933390752288528"><ele>198.0</ele><time>2026-04-26T06:30:51.999Z</time></trkpt><trkpt lat="45.968296891689725" lon="11.933405744905993"><ele>197.66666666666669</ele><time>2026-04-26T06:30:52.999Z</time></trkpt><trkpt lat="45.96846215734599" lon="11.933405763580327"><ele>197.33333333333334</ele><time>2026-04-26T06:30:53.999Z</time></trkpt><trkpt lat="45.96862682852566" lon="11.933394149787611"><ele>197.0</ele><time>2026-04-26T06:30:54.999Z</time></trkpt><trkpt lat="45.96879104332072" lon="11.933380225344312"><ele>199.33333333333334</ele><time>2026-04-26T06:30:55.999Z</time></trkpt><trkpt lat="45.968953225240924" lon="11.933366018848035"><ele>201.66666666666669</ele><time>2026-04-26T06:30:56.999Z</time></trkpt><trkpt lat="45.96911480888216" lon="11.933355291320392"><ele>204.0</ele><time>2026-04-26T06:30:57.999Z</time></trkpt><trkpt lat="45.96927692805532" lon="11.933343177069538"><ele>204.0</ele><time>2026-04-26T06:30:58.999Z</time></trkpt><trkpt lat="45.96943965029865" lon="11.93333336611071"><ele>204.0</ele><time>2026-04-26T06:31:00Z</time></trkpt><trkpt lat="45.96960102539346" lon="11.9333235588734"><ele>204.0</ele><time>2026-04-26T06:31:01Z</time></trkpt><trkpt lat="45.96976321413134" lon="11.933328949269411"><ele>204.0</ele><time>2026-04-26T06:31:02Z</time></trkpt><trkpt lat="45.96992777712694" lon="11.933349688013594"><ele>204.0</ele><time>2026-04-26T06:31:03Z</time></trkpt><trkpt lat="45.97009652855144" lon="11.933378422586348"><ele>204.0</ele><time>2026-04-26T06:31:04Z</time></trkpt><trkpt lat="45.97025869094012" lon="11.933416917079498"><ele>202.66666666666669</ele><time>2026-04-26T06:31:05Z</time></trkpt><trkpt lat="45.97042030019682" lon="11.93348403500227"><ele>201.33333333333334</ele><time>2026-04-26T06:31:06Z</time></trkpt><trkpt lat="45.97057202348106" lon="11.933571735819951"><ele>200.0</ele><time>2026-04-26T06:31:07Z</time></trkpt><trkpt lat="45.970720169823856" lon="11.933681335636816"><ele>203.66666666666669</ele><time>2026-04-26T06:31:08Z</time></trkpt><trkpt lat="45.970859446054995" lon="11.933807581688992"><ele>207.33333333333331</ele><time>2026-04-26T06:31:09Z</time></trkpt><trkpt lat="45.97099429259318" lon="11.933942395038583"><ele>211.0</ele><time>2026-04-26T06:31:10Z</time></trkpt><trkpt lat="45.97113106753119" lon="11.934081257988597"><ele>211.0</ele><time>2026-04-26T06:31:11Z</time></trkpt><trkpt lat="45.97126384598071" lon="11.934218040291402"><ele>211.0</ele><time>2026-04-26T06:31:12Z</time></trkpt><trkpt lat="45.97139092751976" lon="11.93436178826281"><ele>211.0</ele><time>2026-04-26T06:31:13Z</time></trkpt><trkpt lat="45.97151268023362" lon="11.934509546328131"><ele>209.0</ele><time>2026-04-26T06:31:14Z</time></trkpt><trkpt lat="45.97163444201352" lon="11.9346660913528"><ele>207.0</ele><time>2026-04-26T06:31:15Z</time></trkpt><trkpt lat="45.971750542253204" lon="11.934828364448371"><ele>205.0</ele><time>2026-04-26T06:31:16Z</time></trkpt><trkpt lat="45.97186438460667" lon="11.934993998603861"><ele>206.66666666666666</ele><time>2026-04-26T06:31:17Z</time></trkpt><trkpt lat="45.97197826153067" lon="11.935161962195632"><ele>208.33333333333331</ele><time>2026-04-26T06:31:18Z</time></trkpt><trkpt lat="45.972089609760985" lon="11.935332055329948"><ele>210.0</ele><time>2026-04-26T06:31:19Z</time></trkpt><trkpt lat="45.972195214273306" lon="11.935514455516255"><ele>210.0</ele><time>2026-04-26T06:31:20Z</time></trkpt><trkpt lat="45.97229759620431" lon="11.935699915276027"><ele>210.0</ele><time>2026-04-26T06:31:21Z</time></trkpt><trkpt lat="45.972405542950746" lon="11.935883598758634"><ele>210.0</ele><time>2026-04-26T06:31:22Z</time></trkpt><trkpt lat="45.97252631522992" lon="11.936051990738848"><ele>210.66666666666669</ele><time>2026-04-26T06:31:23Z</time></trkpt><trkpt lat="45.97265155509151" lon="11.936214171913784"><ele>211.33333333333334</ele><time>2026-04-26T06:31:24Z</time></trkpt><trkpt lat="45.97277537097766" lon="11.936376367601373"><ele>212.0</ele><time>2026-04-26T06:31:25Z</time></trkpt><trkpt lat="45.97289723062057" lon="11.936538106532884"><ele>212.0</ele><time>2026-04-26T06:31:26Z</time></trkpt><trkpt lat="45.97302925863433" lon="11.93668033639176"><ele>212.0</ele><time>2026-04-26T06:31:27Z</time></trkpt><trkpt lat="45.97317841865722" lon="11.936793343033923"><ele>212.0</ele><time>2026-04-26T06:31:28Z</time></trkpt><trkpt lat="45.973338229868" lon="11.936881865516547"><ele>210.33333333333334</ele><time>2026-04-26T06:31:29Z</time></trkpt><trkpt lat="45.9735053829446" lon="11.9369596115785"><ele>208.66666666666669</ele><time>2026-04-26T06:31:30Z</time></trkpt><trkpt lat="45.97369074252607" lon="11.937047046385052"><ele>207.0</ele><time>2026-04-26T06:31:31Z</time></trkpt><trkpt lat="45.973889935884095" lon="11.937149974981374"><ele>207.0</ele><time>2026-04-26T06:31:32Z</time></trkpt><trkpt lat="45.974101211443056" lon="11.9372554708056"><ele>207.0</ele><time>2026-04-26T06:31:33Z</time></trkpt><trkpt lat="45.974325246022865" lon="11.937366833373979"><ele>207.0</ele><time>2026-04-26T06:31:34Z</time></trkpt><trkpt lat="45.9745391292911" lon="11.937475160022824"><ele>207.0</ele><time>2026-04-26T06:31:35Z</time></trkpt><trkpt lat="45.974748331282164" lon="11.937580832987097"><ele>207.0</ele><time>2026-04-26T06:31:36Z</time></trkpt><trkpt lat="45.97495424558883" lon="11.937685579450504"><ele>210.0</ele><time>2026-04-26T06:31:37Z</time></trkpt><trkpt lat="45.97515482540625" lon="11.937794703416152"><ele>213.0</ele><time>2026-04-26T06:31:38Z</time></trkpt><trkpt lat="45.97534876585212" lon="11.9379242533468"><ele>216.0</ele><time>2026-04-26T06:31:39Z</time></trkpt><trkpt lat="45.97552805099514" lon="11.938097111803222"><ele>216.0</ele><time>2026-04-26T06:31:40Z</time></trkpt><trkpt lat="45.97568665868513" lon="11.938304780450594"><ele>216.0</ele><time>2026-04-26T06:31:41Z</time></trkpt><trkpt lat="45.97583439174668" lon="11.938527153359486"><ele>216.0</ele><time>2026-04-26T06:31:42Z</time></trkpt><trkpt lat="45.97598293526076" lon="11.93874776815544"><ele>213.33333333333331</ele><time>2026-04-26T06:31:43Z</time></trkpt><trkpt lat="45.976134033459026" lon="11.938963626878175"><ele>210.66666666666666</ele><time>2026-04-26T06:31:44Z</time></trkpt><trkpt lat="45.97628396876741" lon="11.939184224447265"><ele>208.0</ele><time>2026-04-26T06:31:45Z</time></trkpt><trkpt lat="45.976433524115606" lon="11.939405401019492"><ele>208.33333333333331</ele><time>2026-04-26T06:31:46Z</time></trkpt><trkpt lat="45.97658292444765" lon="11.939630421794252"><ele>208.66666666666669</ele><time>2026-04-26T06:31:47Z</time></trkpt><trkpt lat="45.97673330752" lon="11.939849046603138"><ele>209.0</ele><time>2026-04-26T06:31:48Z</time></trkpt><trkpt lat="45.97688593779387" lon="11.94006531011598"><ele>208.0</ele><time>2026-04-26T06:31:49Z</time></trkpt><trkpt lat="45.97703710914155" lon="11.94028219166197"><ele>207.0</ele><time>2026-04-26T06:31:50Z</time></trkpt><trkpt lat="45.977185576733454" lon="11.94049961856838"><ele>206.0</ele><time>2026-04-26T06:31:51Z</time></trkpt><trkpt lat="45.97733264430739" lon="11.940715116996337"><ele>205.66666666666669</ele><time>2026-04-26T06:31:52Z</time></trkpt><trkpt lat="45.97747842543321" lon="11.940929591277053"><ele>205.33333333333331</ele><time>2026-04-26T06:31:53Z</time></trkpt><trkpt lat="45.97762530520192" lon="11.941142315993579"><ele>205.0</ele><time>2026-04-26T06:31:54Z</time></trkpt><trkpt lat="45.977772159255046" lon="11.941355374314922"><ele>206.33333333333331</ele><time>2026-04-26T06:31:55Z</time></trkpt><trkpt lat="45.97791991287815" lon="11.941569443793947"><ele>207.66666666666669</ele><time>2026-04-26T06:31:56Z</time></trkpt><trkpt lat="45.97806689249407" lon="11.941784017654715"><ele>209.0</ele><time>2026-04-26T06:31:57Z</time></trkpt><trkpt lat="45.97821500597478" lon="11.941998081893214"><ele>209.0</ele><time>2026-04-26T06:31:58Z</time></trkpt><trkpt lat="45.97835134996984" lon="11.942197659020946"><ele>209.0</ele><time>2026-04-26T06:31:59Z</time></trkpt><trkpt lat="45.978477529790084" lon="11.942383071558552"><ele>209.0</ele><time>2026-04-26T06:32:00Z</time></trkpt><trkpt lat="45.978598969994934" lon="11.942558100804517"><ele>209.66666666666669</ele><time>2026-04-26T06:32:01Z</time></trkpt><trkpt lat="45.97871443507422" lon="11.94272291197436"><ele>210.33333333333331</ele><time>2026-04-26T06:32:02Z</time></trkpt><trkpt lat="45.97882903788343" lon="11.942886078653068"><ele>211.0</ele><time>2026-04-26T06:32:03Z</time></trkpt><trkpt lat="45.978944743257266" lon="11.94305380757404"><ele>211.0</ele><time>2026-04-26T06:32:04Z</time></trkpt><trkpt lat="45.97906436458942" lon="11.94323141251329"><ele>211.0</ele><time>2026-04-26T06:32:05Z</time></trkpt><trkpt lat="45.97918815727682" lon="11.943411855947739"><ele>211.0</ele><time>2026-04-26T06:32:06Z</time></trkpt><trkpt lat="45.97931546101072" lon="11.943590995574501"><ele>211.66666666666666</ele><time>2026-04-26T06:32:07Z</time></trkpt><trkpt lat="45.97944286136353" lon="11.943774451549142"><ele>212.33333333333331</ele><time>2026-04-26T06:32:08Z</time></trkpt><trkpt lat="45.97956712329675" lon="11.943963177785566"><ele>213.0</ele><time>2026-04-26T06:32:09Z</time></trkpt><trkpt lat="45.979690698713" lon="11.944140410497303"><ele>210.33333333333331</ele><time>2026-04-26T06:32:10Z</time></trkpt><trkpt lat="45.97980408723082" lon="11.944308201055161"><ele>207.66666666666666</ele><time>2026-04-26T06:32:11Z</time></trkpt><trkpt lat="45.97992051915552" lon="11.94447379724719"><ele>205.0</ele><time>2026-04-26T06:32:12Z</time></trkpt><trkpt lat="45.98003553585677" lon="11.944646396115258"><ele>207.0</ele><time>2026-04-26T06:32:13Z</time></trkpt><trkpt lat="45.980152475613565" lon="11.944814348236777"><ele>209.0</ele><time>2026-04-26T06:32:14Z</time></trkpt><trkpt lat="45.98027048420092" lon="11.944985360945225"><ele>211.0</ele><time>2026-04-26T06:32:15Z</time></trkpt><trkpt lat="45.98038816769151" lon="11.945156816471377"><ele>211.0</ele><time>2026-04-26T06:32:16Z</time></trkpt><trkpt lat="45.98050585503923" lon="11.945330864279288"><ele>211.0</ele><time>2026-04-26T06:32:17Z</time></trkpt><trkpt lat="45.980625310400036" lon="11.945513034532958"><ele>211.0</ele><time>2026-04-26T06:32:18Z</time></trkpt><trkpt lat="45.98074285204473" lon="11.945703399229561"><ele>216.33333333333331</ele><time>2026-04-26T06:32:19Z</time></trkpt><trkpt lat="45.98086076954004" lon="11.945895468132736"><ele>221.66666666666669</ele><time>2026-04-26T06:32:20Z</time></trkpt><trkpt lat="45.980977252842216" lon="11.946095193420108"><ele>227.0</ele><time>2026-04-26T06:32:21Z</time></trkpt><trkpt lat="45.98108659587734" lon="11.946301734587578"><ele>227.0</ele><time>2026-04-26T06:32:22Z</time></trkpt><trkpt lat="45.981195476819984" lon="11.946505862179242"><ele>227.0</ele><time>2026-04-26T06:32:23Z</time></trkpt><trkpt lat="45.981297629421555" lon="11.946719807281623"><ele>227.0</ele><time>2026-04-26T06:32:24Z</time></trkpt><trkpt lat="45.981394251079394" lon="11.946942850134526"><ele>223.0</ele><time>2026-04-26T06:32:25Z</time></trkpt><trkpt lat="45.98148363150981" lon="11.947177654456322"><ele>219.0</ele><time>2026-04-26T06:32:26Z</time></trkpt><trkpt lat="45.9815670767064" lon="11.947414808054749"><ele>215.0</ele><time>2026-04-26T06:32:27Z</time></trkpt><trkpt lat="45.9816523247023" lon="11.947652153962038"><ele>224.0</ele><time>2026-04-26T06:32:28Z</time></trkpt><trkpt lat="45.9817394823644" lon="11.947891886962339"><ele>233.0</ele><time>2026-04-26T06:32:29Z</time></trkpt><trkpt lat="45.98182521803169" lon="11.948132473667448"><ele>242.0</ele><time>2026-04-26T06:32:29.999Z</time></trkpt><trkpt lat="45.981911219560445" lon="11.948375932044154"><ele>237.0</ele><time>2026-04-26T06:32:30.999Z</time></trkpt><trkpt lat="45.981997554652985" lon="11.94861602235263"><ele>232.0</ele><time>2026-04-26T06:32:31.999Z</time></trkpt><trkpt lat="45.98208043484757" lon="11.948844370711331"><ele>227.0</ele><time>2026-04-26T06:32:32.999Z</time></trkpt><trkpt lat="45.98216236206182" lon="11.949075478181513"><ele>222.66666666666669</ele><time>2026-04-26T06:32:33.999Z</time></trkpt><trkpt lat="45.982242958056275" lon="11.949307187105783"><ele>218.33333333333331</ele><time>2026-04-26T06:32:34.999Z</time></trkpt><trkpt lat="45.98232130639427" lon="11.949535981743416"><ele>214.0</ele><time>2026-04-26T06:32:35.999Z</time></trkpt><trkpt lat="45.98240136562835" lon="11.94976449352491"><ele>214.0</ele><time>2026-04-26T06:32:36.999Z</time></trkpt><trkpt lat="45.982484014882075" lon="11.949990101328023"><ele>214.0</ele><time>2026-04-26T06:32:37.999Z</time></trkpt><trkpt lat="45.982573138716795" lon="11.95020986443806"><ele>214.0</ele><time>2026-04-26T06:32:38.999Z</time></trkpt><trkpt lat="45.98267060613754" lon="11.950418911162364"><ele>213.33333333333331</ele><time>2026-04-26T06:32:39.999Z</time></trkpt><trkpt lat="45.982773059698026" lon="11.95061876100365"><ele>212.66666666666669</ele><time>2026-04-26T06:32:40.999Z</time></trkpt><trkpt lat="45.98287938286399" lon="11.950814750194445"><ele>212.0</ele><time>2026-04-26T06:32:41.999Z</time></trkpt><trkpt lat="45.982988537153695" lon="11.951006396124933"><ele>212.0</ele><time>2026-04-26T06:32:42.999Z</time></trkpt><trkpt lat="45.98310325473505" lon="11.951191039476223"><ele>212.0</ele><time>2026-04-26T06:32:43.999Z</time></trkpt><trkpt lat="45.983226059598444" lon="11.951361746868928"><ele>212.0</ele><time>2026-04-26T06:32:44.999Z</time></trkpt><trkpt lat="45.98335327643437" lon="11.951526012628708"><ele>212.66666666666669</ele><time>2026-04-26T06:32:45.999Z</time></trkpt><trkpt lat="45.983485256225784" lon="11.951689774001137"><ele>213.33333333333331</ele><time>2026-04-26T06:32:46.999Z</time></trkpt><trkpt lat="45.983616757713214" lon="11.951850864761735"><ele>214.0</ele><time>2026-04-26T06:32:47.999Z</time></trkpt><trkpt lat="45.98374884616133" lon="11.952013057868472"><ele>214.0</ele><time>2026-04-26T06:32:48.999Z</time></trkpt><trkpt lat="45.98388343892637" lon="11.952175268884764"><ele>214.0</ele><time>2026-04-26T06:32:49.999Z</time></trkpt><trkpt lat="45.984017098929336" lon="11.95233242327318"><ele>214.0</ele><time>2026-04-26T06:32:50.999Z</time></trkpt><trkpt lat="45.98414062660133" lon="11.952482831523486"><ele>214.0</ele><time>2026-04-26T06:32:51.999Z</time></trkpt><trkpt lat="45.98425830894987" lon="11.952625166457276"><ele>214.0</ele><time>2026-04-26T06:32:52.999Z</time></trkpt><trkpt lat="45.984372518111385" lon="11.952758680306172"><ele>214.0</ele><time>2026-04-26T06:32:53.999Z</time></trkpt><trkpt lat="45.984488216863376" lon="11.952898217566377"><ele>214.0</ele><time>2026-04-26T06:32:54.999Z</time></trkpt><trkpt lat="45.984602046802564" lon="11.95303982101815"><ele>214.0</ele><time>2026-04-26T06:32:55.999Z</time></trkpt><trkpt lat="45.984719462843415" lon="11.953172606271169"><ele>214.0</ele><time>2026-04-26T06:32:56.999Z</time></trkpt><trkpt lat="45.98485211637255" lon="11.953264057349124"><ele>214.0</ele><time>2026-04-26T06:32:57.999Z</time></trkpt><trkpt lat="45.9850016097335" lon="11.953334609248861"><ele>212.0</ele><time>2026-04-26T06:32:58.999Z</time></trkpt><trkpt lat="45.98515786686128" lon="11.953382286609564"><ele>210.0</ele><time>2026-04-26T06:32:59.999Z</time></trkpt><trkpt lat="45.985336402526826" lon="11.95341552913859"><ele>208.0</ele><time>2026-04-26T06:33:00.999Z</time></trkpt><trkpt lat="45.9855443146717" lon="11.953440847471708"><ele>208.0</ele><time>2026-04-26T06:33:01.999Z</time></trkpt><trkpt lat="45.985744381226596" lon="11.953460163399576"><ele>208.0</ele><time>2026-04-26T06:33:02.999Z</time></trkpt><trkpt lat="45.98591704765946" lon="11.953473489889564"><ele>208.0</ele><time>2026-04-26T06:33:03.999Z</time></trkpt><trkpt lat="45.986079723820275" lon="11.953483416214327"><ele>208.66666666666666</ele><time>2026-04-26T06:33:04.999Z</time></trkpt><trkpt lat="45.98623342869289" lon="11.953480847105821"><ele>209.33333333333331</ele><time>2026-04-26T06:33:06Z</time></trkpt><trkpt lat="45.98639200417146" lon="11.953475794027131"><ele>210.0</ele><time>2026-04-26T06:33:07Z</time></trkpt><trkpt lat="45.986552361927195" lon="11.953469650576704"><ele>210.33333333333331</ele><time>2026-04-26T06:33:08Z</time></trkpt><trkpt lat="45.986714493008776" lon="11.953486775269846"><ele>210.66666666666666</ele><time>2026-04-26T06:33:09Z</time></trkpt><trkpt lat="45.98687470551936" lon="11.953540769079355"><ele>211.0</ele><time>2026-04-26T06:33:10Z</time></trkpt><trkpt lat="45.98702882303154" lon="11.9536189154047"><ele>211.0</ele><time>2026-04-26T06:33:11Z</time></trkpt><trkpt lat="45.98717485307188" lon="11.953718073981737"><ele>211.0</ele><time>2026-04-26T06:33:12Z</time></trkpt><trkpt lat="45.98730794348114" lon="11.95381491360839"><ele>211.0</ele><time>2026-04-26T06:33:13Z</time></trkpt><trkpt lat="45.98745228747564" lon="11.953890576654494"><ele>212.33333333333331</ele><time>2026-04-26T06:33:14Z</time></trkpt><trkpt lat="45.98760550748261" lon="11.953954738458254"><ele>213.66666666666669</ele><time>2026-04-26T06:33:15Z</time></trkpt><trkpt lat="45.98776755716586" lon="11.953995562906512"><ele>215.0</ele><time>2026-04-26T06:33:16Z</time></trkpt><trkpt lat="45.9879341133779" lon="11.954000819961452"><ele>215.0</ele><time>2026-04-26T06:33:17Z</time></trkpt><trkpt lat="45.988120746158415" lon="11.953983052583926"><ele>215.0</ele><time>2026-04-26T06:33:18Z</time></trkpt><trkpt lat="45.988275127909674" lon="11.9539778157861"><ele>215.0</ele><time>2026-04-26T06:33:19Z</time></trkpt><trkpt lat="45.988422436765376" lon="11.953973615845268"><ele>214.25</ele><time>2026-04-26T06:33:20Z</time></trkpt><trkpt lat="45.98856323935655" lon="11.953963130379295"><ele>213.5</ele><time>2026-04-26T06:33:21Z</time></trkpt><trkpt lat="45.988702344358664" lon="11.95392935478976"><ele>212.75</ele><time>2026-04-26T06:33:22Z</time></trkpt><trkpt lat="45.98884555141926" lon="11.953870539141946"><ele>212.0</ele><time>2026-04-26T06:33:23Z</time></trkpt><trkpt lat="45.98898438019051" lon="11.953795716346457"><ele>212.0</ele><time>2026-04-26T06:33:24Z</time></trkpt><trkpt lat="45.98911823259956" lon="11.953712321648625"><ele>212.0</ele><time>2026-04-26T06:33:25Z</time></trkpt><trkpt lat="45.989257562993586" lon="11.953626296283465"><ele>212.0</ele><time>2026-04-26T06:33:26Z</time></trkpt><trkpt lat="45.98939560917557" lon="11.953541817699566"><ele>212.0</ele><time>2026-04-26T06:33:27Z</time></trkpt><trkpt lat="45.98953243925304" lon="11.953454768949046"><ele>214.66666666666669</ele><time>2026-04-26T06:33:28Z</time></trkpt><trkpt lat="45.98967694816132" lon="11.953367082232143"><ele>217.33333333333331</ele><time>2026-04-26T06:33:29Z</time></trkpt><trkpt lat="45.98982824597257" lon="11.953299640351576"><ele>220.0</ele><time>2026-04-26T06:33:30Z</time></trkpt><trkpt lat="45.98998110522319" lon="11.953261188253178"><ele>219.0</ele><time>2026-04-26T06:33:31Z</time></trkpt><trkpt lat="45.99013193296452" lon="11.953223078519887"><ele>218.0</ele><time>2026-04-26T06:33:32Z</time></trkpt><trkpt lat="45.99028986509756" lon="11.953196003752472"><ele>217.0</ele><time>2026-04-26T06:33:33Z</time></trkpt><trkpt lat="45.99043430937174" lon="11.953175018451713"><ele>217.0</ele><time>2026-04-26T06:33:34Z</time></trkpt><trkpt lat="45.990585811271636" lon="11.953153435238091"><ele>217.0</ele><time>2026-04-26T06:33:35Z</time></trkpt><trkpt lat="45.99073586127144" lon="11.953126139056891"><ele>217.0</ele><time>2026-04-26T06:33:36Z</time></trkpt><trkpt lat="45.99088271403569" lon="11.953071600022128"><ele>216.0</ele><time>2026-04-26T06:33:37Z</time></trkpt><trkpt lat="45.991029365052725" lon="11.952991663343838"><ele>215.0</ele><time>2026-04-26T06:33:38Z</time></trkpt><trkpt lat="45.99117998869708" lon="11.952897297353713"><ele>214.0</ele><time>2026-04-26T06:33:39Z</time></trkpt><trkpt lat="45.99133396923636" lon="11.952799381021283"><ele>214.0</ele><time>2026-04-26T06:33:40Z</time></trkpt><trkpt lat="45.991477401383165" lon="11.952706236100854"><ele>214.0</ele><time>2026-04-26T06:33:41Z</time></trkpt><trkpt lat="45.99163399626606" lon="11.95260423605153"><ele>214.0</ele><time>2026-04-26T06:33:42Z</time></trkpt><trkpt lat="45.991785828479784" lon="11.952508532686974"><ele>215.0</ele><time>2026-04-26T06:33:43Z</time></trkpt><trkpt lat="45.991929105582756" lon="11.95241085061671"><ele>216.0</ele><time>2026-04-26T06:33:44Z</time></trkpt><trkpt lat="45.99207734942251" lon="11.952303381762055"><ele>217.0</ele><time>2026-04-26T06:33:45Z</time></trkpt><trkpt lat="45.99221772475987" lon="11.952181481789669"><ele>217.0</ele><time>2026-04-26T06:33:46Z</time></trkpt><trkpt lat="45.992356978566185" lon="11.952045491578062"><ele>217.0</ele><time>2026-04-26T06:33:47Z</time></trkpt><trkpt lat="45.99249489632879" lon="11.951901844249214"><ele>217.0</ele><time>2026-04-26T06:33:48Z</time></trkpt><trkpt lat="45.99264297659435" lon="11.951754165140873"><ele>216.66666666666666</ele><time>2026-04-26T06:33:49Z</time></trkpt><trkpt lat="45.992783298850796" lon="11.951603563950998"><ele>216.33333333333331</ele><time>2026-04-26T06:33:50Z</time></trkpt><trkpt lat="45.99293654568811" lon="11.951453603836432"><ele>216.0</ele><time>2026-04-26T06:33:51Z</time></trkpt><trkpt lat="45.9930847739878" lon="11.951304715173531"><ele>216.0</ele><time>2026-04-26T06:33:52Z</time></trkpt><trkpt lat="45.9932345443684" lon="11.951153004433783"><ele>216.0</ele><time>2026-04-26T06:33:53Z</time></trkpt><trkpt lat="45.99338199481872" lon="11.950996571115533"><ele>216.0</ele><time>2026-04-26T06:33:54Z</time></trkpt><trkpt lat="45.99352799816764" lon="11.950833631030235"><ele>216.66666666666669</ele><time>2026-04-26T06:33:55Z</time></trkpt><trkpt lat="45.99367075529378" lon="11.95066521130179"><ele>217.33333333333334</ele><time>2026-04-26T06:33:56Z</time></trkpt><trkpt lat="45.9938165148573" lon="11.950493984980431"><ele>218.0</ele><time>2026-04-26T06:33:57Z</time></trkpt><trkpt lat="45.9939572682022" lon="11.95031831227291"><ele>218.0</ele><time>2026-04-26T06:33:58Z</time></trkpt><trkpt lat="45.994101128111254" lon="11.950142746081317"><ele>218.0</ele><time>2026-04-26T06:33:59Z</time></trkpt><trkpt lat="45.99424999506684" lon="11.94996921517341"><ele>218.0</ele><time>2026-04-26T06:34:00Z</time></trkpt><trkpt lat="45.99439607797878" lon="11.949806685854426"><ele>218.66666666666669</ele><time>2026-04-26T06:34:01Z</time></trkpt><trkpt lat="45.99455012182221" lon="11.94966094870195"><ele>219.33333333333331</ele><time>2026-04-26T06:34:02Z</time></trkpt><trkpt lat="45.994715445641454" lon="11.949532225275282"><ele>220.0</ele><time>2026-04-26T06:34:03Z</time></trkpt><trkpt lat="45.99488171264865" lon="11.94941356615923"><ele>219.66666666666666</ele><time>2026-04-26T06:34:04Z</time></trkpt><trkpt lat="45.99504875976991" lon="11.949299893559925"><ele>219.33333333333331</ele><time>2026-04-26T06:34:05Z</time></trkpt><trkpt lat="45.995215615717655" lon="11.949193575773624"><ele>219.0</ele><time>2026-04-26T06:34:06Z</time></trkpt><trkpt lat="45.99537916703378" lon="11.949086996953477"><ele>219.66666666666669</ele><time>2026-04-26T06:34:07Z</time></trkpt><trkpt lat="45.995540854413" lon="11.948982783347905"><ele>220.33333333333334</ele><time>2026-04-26T06:34:08Z</time></trkpt><trkpt lat="45.99570110040921" lon="11.948885919202542"><ele>221.0</ele><time>2026-04-26T06:34:09Z</time></trkpt><trkpt lat="45.99585846647955" lon="11.948797330986594"><ele>221.0</ele><time>2026-04-26T06:34:10Z</time></trkpt><trkpt lat="45.99601784622335" lon="11.948726392089336"><ele>221.0</ele><time>2026-04-26T06:34:11Z</time></trkpt><trkpt lat="45.99617379738444" lon="11.948671715570336"><ele>221.0</ele><time>2026-04-26T06:34:12Z</time></trkpt><trkpt lat="45.99633092312396" lon="11.948624862439134"><ele>221.0</ele><time>2026-04-26T06:34:13Z</time></trkpt><trkpt lat="45.99649065775863" lon="11.948589023612008"><ele>221.0</ele><time>2026-04-26T06:34:14Z</time></trkpt><trkpt lat="45.996638557528556" lon="11.948562594658211"><ele>221.0</ele><time>2026-04-26T06:34:15Z</time></trkpt><trkpt lat="45.99679129510196" lon="11.948541747196872"><ele>221.33333333333334</ele><time>2026-04-26T06:34:16Z</time></trkpt><trkpt lat="45.99694315870063" lon="11.94852645168418"><ele>221.66666666666669</ele><time>2026-04-26T06:34:17Z</time></trkpt><trkpt lat="45.997100180407436" lon="11.948512654844082"><ele>222.0</ele><time>2026-04-26T06:34:18Z</time></trkpt><trkpt lat="45.99725642553042" lon="11.948496454260148"><ele>222.0</ele><time>2026-04-26T06:34:19Z</time></trkpt><trkpt lat="45.99741316233606" lon="11.948480468784867"><ele>222.0</ele><time>2026-04-26T06:34:20Z</time></trkpt><trkpt lat="45.99756926466837" lon="11.94846748786934"><ele>222.0</ele><time>2026-04-26T06:34:21Z</time></trkpt><trkpt lat="45.99772546211014" lon="11.948453242637298"><ele>221.66666666666669</ele><time>2026-04-26T06:34:22Z</time></trkpt><trkpt lat="45.99788001129445" lon="11.94843714896428"><ele>221.33333333333334</ele><time>2026-04-26T06:34:23Z</time></trkpt><trkpt lat="45.99803493868567" lon="11.948422944579688"><ele>221.0</ele><time>2026-04-26T06:34:24Z</time></trkpt><trkpt lat="45.99817417340195" lon="11.948411310071876"><ele>221.0</ele><time>2026-04-26T06:34:25Z</time></trkpt><trkpt lat="45.99830428966004" lon="11.948402334144763"><ele>221.0</ele><time>2026-04-26T06:34:26Z</time></trkpt><trkpt lat="45.998425366306755" lon="11.948397910511659"><ele>221.0</ele><time>2026-04-26T06:34:27Z</time></trkpt><trkpt lat="45.998540720948846" lon="11.948401883821825"><ele>221.0</ele><time>2026-04-26T06:34:28Z</time></trkpt><trkpt lat="45.99866042618426" lon="11.94840575372649"><ele>221.25</ele><time>2026-04-26T06:34:29Z</time></trkpt><trkpt lat="45.99878299546412" lon="11.948409186657836"><ele>221.5</ele><time>2026-04-26T06:34:30Z</time></trkpt><trkpt lat="45.998912033180034" lon="11.948414039708016"><ele>221.75</ele><time>2026-04-26T06:34:31Z</time></trkpt><trkpt lat="45.999038697059895" lon="11.948421869032403"><ele>222.0</ele><time>2026-04-26T06:34:32Z</time></trkpt><trkpt lat="45.99916811839378" lon="11.948421621087446"><ele>221.5</ele><time>2026-04-26T06:34:33Z</time></trkpt><trkpt lat="45.99929537474594" lon="11.948413592663675"><ele>221.0</ele><time>2026-04-26T06:34:34Z</time></trkpt><trkpt lat="45.999424549711605" lon="11.948391255533316"><ele>220.5</ele><time>2026-04-26T06:34:35Z</time></trkpt><trkpt lat="45.99955699768997" lon="11.948350177442597"><ele>220.0</ele><time>2026-04-26T06:34:35.999Z</time></trkpt><trkpt lat="45.99968579564939" lon="11.948296583862192"><ele>221.25</ele><time>2026-04-26T06:34:36.999Z</time></trkpt><trkpt lat="45.999812044632435" lon="11.948227098595988"><ele>222.5</ele><time>2026-04-26T06:34:37.999Z</time></trkpt><trkpt lat="45.99993503650075" lon="11.948147286676038"><ele>223.75</ele><time>2026-04-26T06:34:38.999Z</time></trkpt><trkpt lat="46.00005629238755" lon="11.948047894631268"><ele>225.0</ele><time>2026-04-26T06:34:39.999Z</time></trkpt><trkpt lat="46.00017064109146" lon="11.947929308855887"><ele>225.0</ele><time>2026-04-26T06:34:40.999Z</time></trkpt><trkpt lat="46.000263935714" lon="11.947798845301811"><ele>225.0</ele><time>2026-04-26T06:34:41.999Z</time></trkpt><trkpt lat="46.00034602855381" lon="11.947641311240767"><ele>225.0</ele><time>2026-04-26T06:34:42.999Z</time></trkpt><trkpt lat="46.0004169554037" lon="11.947471885939121"><ele>225.0</ele><time>2026-04-26T06:34:43.999Z</time></trkpt><trkpt lat="46.00047393315342" lon="11.94730734213722"><ele>225.5</ele><time>2026-04-26T06:34:44.999Z</time></trkpt><trkpt lat="46.00053081171514" lon="11.94715732595028"><ele>226.0</ele><time>2026-04-26T06:34:45.999Z</time></trkpt><trkpt lat="46.00059362745879" lon="11.947005441692552"><ele>226.5</ele><time>2026-04-26T06:34:46.999Z</time></trkpt><trkpt lat="46.00065265006511" lon="11.946853469983358"><ele>227.0</ele><time>2026-04-26T06:34:47.999Z</time></trkpt><trkpt lat="46.00071882133789" lon="11.946698111771774"><ele>227.75</ele><time>2026-04-26T06:34:48.999Z</time></trkpt><trkpt lat="46.000783192151296" lon="11.946543320160217"><ele>228.5</ele><time>2026-04-26T06:34:49.999Z</time></trkpt><trkpt lat="46.00084214164754" lon="11.946387248236396"><ele>229.25</ele><time>2026-04-26T06:34:50.999Z</time></trkpt><trkpt lat="46.000902505880276" lon="11.94621915179331"><ele>230.0</ele><time>2026-04-26T06:34:51.999Z</time></trkpt><trkpt lat="46.00093881948807" lon="11.946050191430281"><ele>228.75</ele><time>2026-04-26T06:34:52.999Z</time></trkpt><trkpt lat="46.00097202216019" lon="11.94586795005199"><ele>227.5</ele><time>2026-04-26T06:34:53.999Z</time></trkpt><trkpt lat="46.00099652789208" lon="11.945689705930826"><ele>226.25</ele><time>2026-04-26T06:34:54.999Z</time></trkpt><trkpt lat="46.0010289837522" lon="11.945505528232754"><ele>225.0</ele><time>2026-04-26T06:34:55.999Z</time></trkpt><trkpt lat="46.0010417719568" lon="11.945320405088172"><ele>225.0</ele><time>2026-04-26T06:34:56.999Z</time></trkpt><trkpt lat="46.00106286414629" lon="11.945134729181826"><ele>225.0</ele><time>2026-04-26T06:34:57.999Z</time></trkpt><trkpt lat="46.00107772184153" lon="11.944950865663982"><ele>225.0</ele><time>2026-04-26T06:34:58.999Z</time></trkpt><trkpt lat="46.001092371221766" lon="11.944765121813075"><ele>225.0</ele><time>2026-04-26T06:34:59.999Z</time></trkpt><trkpt lat="46.00108460863645" lon="11.944576917696166"><ele>225.0</ele><time>2026-04-26T06:35:00.999Z</time></trkpt><trkpt lat="46.001065676043666" lon="11.944387132428366"><ele>225.0</ele><time>2026-04-26T06:35:01.999Z</time></trkpt><trkpt lat="46.001025618274376" lon="11.944202826957376"><ele>225.0</ele><time>2026-04-26T06:35:02.999Z</time></trkpt><trkpt lat="46.00097516282027" lon="11.944018882291639"><ele>225.0</ele><time>2026-04-26T06:35:03.999Z</time></trkpt><trkpt lat="46.000916816147424" lon="11.9438429151296"><ele>225.75</ele><time>2026-04-26T06:35:04.999Z</time></trkpt><trkpt lat="46.00084541935954" lon="11.943676550023687"><ele>226.5</ele><time>2026-04-26T06:35:05.999Z</time></trkpt><trkpt lat="46.000763090192436" lon="11.9435139868762"><ele>227.25</ele><time>2026-04-26T06:35:06.999Z</time></trkpt><trkpt lat="46.000673500470526" lon="11.943358913473975"><ele>228.0</ele><time>2026-04-26T06:35:07.999Z</time></trkpt><trkpt lat="46.00057200831328" lon="11.943199119645437"><ele>228.0</ele><time>2026-04-26T06:35:08.999Z</time></trkpt><trkpt lat="46.0004452137666" lon="11.94301800564449"><ele>228.0</ele><time>2026-04-26T06:35:09.999Z</time></trkpt><trkpt lat="46.000304482581264" lon="11.942820921215688"><ele>228.0</ele><time>2026-04-26T06:35:10.999Z</time></trkpt><trkpt lat="46.00017969547074" lon="11.942636944468843"><ele>228.66666666666669</ele><time>2026-04-26T06:35:12Z</time></trkpt><trkpt lat="46.000052974261486" lon="11.942447416203628"><ele>229.33333333333334</ele><time>2026-04-26T06:35:13Z</time></trkpt><trkpt lat="45.99994739265523" lon="11.94226223510261"><ele>230.0</ele><time>2026-04-26T06:35:14Z</time></trkpt><trkpt lat="45.99985583964727" lon="11.942070760623874"><ele>230.0</ele><time>2026-04-26T06:35:15Z</time></trkpt><trkpt lat="45.99977913377981" lon="11.941855714220976"><ele>230.0</ele><time>2026-04-26T06:35:16Z</time></trkpt><trkpt lat="45.99973432527512" lon="11.941624971070722"><ele>230.0</ele><time>2026-04-26T06:35:17Z</time></trkpt><trkpt lat="45.99969852801079" lon="11.941390816626603"><ele>231.33333333333334</ele><time>2026-04-26T06:35:18Z</time></trkpt><trkpt lat="45.99968312621213" lon="11.941156929243833"><ele>232.66666666666669</ele><time>2026-04-26T06:35:19Z</time></trkpt><trkpt lat="45.99968985837851" lon="11.940919816565945"><ele>234.0</ele><time>2026-04-26T06:35:20Z</time></trkpt><trkpt lat="45.9997171315656" lon="11.940685092802308"><ele>234.33333333333331</ele><time>2026-04-26T06:35:21Z</time></trkpt><trkpt lat="45.99975314514753" lon="11.940454185455549"><ele>234.66666666666666</ele><time>2026-04-26T06:35:22Z</time></trkpt><trkpt lat="45.999824075191405" lon="11.94023511626189"><ele>235.0</ele><time>2026-04-26T06:35:23Z</time></trkpt><trkpt lat="45.99991741975982" lon="11.9400324624147"><ele>233.33333333333331</ele><time>2026-04-26T06:35:24Z</time></trkpt><trkpt lat="46.00002900448026" lon="11.939853713650075"><ele>231.66666666666669</ele><time>2026-04-26T06:35:25Z</time></trkpt><trkpt lat="46.000155409575804" lon="11.939695191329465"><ele>230.0</ele><time>2026-04-26T06:35:26Z</time></trkpt><trkpt lat="46.00029522864576" lon="11.939559743664379"><ele>230.0</ele><time>2026-04-26T06:35:27Z</time></trkpt><trkpt lat="46.000442677622765" lon="11.93944862609217"><ele>230.0</ele><time>2026-04-26T06:35:28Z</time></trkpt><trkpt lat="46.00059791450864" lon="11.939346478143884"><ele>230.0</ele><time>2026-04-26T06:35:29Z</time></trkpt><trkpt lat="46.00075785843755" lon="11.939253193212709"><ele>229.66666666666669</ele><time>2026-04-26T06:35:30Z</time></trkpt><trkpt lat="46.000920515870135" lon="11.939163922976492"><ele>229.33333333333331</ele><time>2026-04-26T06:35:31Z</time></trkpt><trkpt lat="46.001083035189154" lon="11.939073726484782"><ele>229.0</ele><time>2026-04-26T06:35:32Z</time></trkpt><trkpt lat="46.00124685782801" lon="11.938981458136984"><ele>229.0</ele><time>2026-04-26T06:35:33Z</time></trkpt><trkpt lat="46.00141138546991" lon="11.93889142451372"><ele>229.0</ele><time>2026-04-26T06:35:34Z</time></trkpt><trkpt lat="46.00157342956004" lon="11.938804027694848"><ele>229.0</ele><time>2026-04-26T06:35:35Z</time></trkpt><trkpt lat="46.001734932427055" lon="11.93871264903482"><ele>235.33333333333331</ele><time>2026-04-26T06:35:36Z</time></trkpt><trkpt lat="46.0018987512103" lon="11.93862383022737"><ele>241.66666666666669</ele><time>2026-04-26T06:35:37Z</time></trkpt><trkpt lat="46.002060661529995" lon="11.938537118965975"><ele>248.0</ele><time>2026-04-26T06:35:38Z</time></trkpt><trkpt lat="46.00222572145858" lon="11.938449661941002"><ele>244.66666666666669</ele><time>2026-04-26T06:35:39Z</time></trkpt><trkpt lat="46.00239028474726" lon="11.938361447909283"><ele>241.33333333333331</ele><time>2026-04-26T06:35:40Z</time></trkpt><trkpt lat="46.002551017321295" lon="11.938271650766316"><ele>238.0</ele><time>2026-04-26T06:35:41Z</time></trkpt><trkpt lat="46.0027159955819" lon="11.93818286138732"><ele>238.0</ele><time>2026-04-26T06:35:42Z</time></trkpt><trkpt lat="46.00288079991948" lon="11.93809310698907"><ele>238.0</ele><time>2026-04-26T06:35:43Z</time></trkpt><trkpt lat="46.003045812012736" lon="11.938001181633153"><ele>238.0</ele><time>2026-04-26T06:35:44Z</time></trkpt><trkpt lat="46.003208048546725" lon="11.937902481167024"><ele>236.33333333333331</ele><time>2026-04-26T06:35:45Z</time></trkpt><trkpt lat="46.003367218713365" lon="11.937803909944057"><ele>234.66666666666669</ele><time>2026-04-26T06:35:46Z</time></trkpt><trkpt lat="46.00353000916298" lon="11.937702981599044"><ele>233.0</ele><time>2026-04-26T06:35:47Z</time></trkpt><trkpt lat="46.003694927283235" lon="11.937602692508591"><ele>232.33333333333334</ele><time>2026-04-26T06:35:48Z</time></trkpt><trkpt lat="46.0038580106632" lon="11.93750235432313"><ele>231.66666666666669</ele><time>2026-04-26T06:35:49Z</time></trkpt><trkpt lat="46.00401871426678" lon="11.937403886779922"><ele>231.0</ele><time>2026-04-26T06:35:50Z</time></trkpt><trkpt lat="46.00417851765751" lon="11.937307862836828"><ele>231.0</ele><time>2026-04-26T06:35:51Z</time></trkpt><trkpt lat="46.00433511227785" lon="11.937210273920883"><ele>231.0</ele><time>2026-04-26T06:35:52Z</time></trkpt><trkpt lat="46.00448265541154" lon="11.937086672980964"><ele>231.0</ele><time>2026-04-26T06:35:53Z</time></trkpt><trkpt lat="46.004617861821885" lon="11.93693490043985"><ele>231.0</ele><time>2026-04-26T06:35:54Z</time></trkpt><trkpt lat="46.00473861573226" lon="11.936760230093343"><ele>231.0</ele><time>2026-04-26T06:35:55Z</time></trkpt><trkpt lat="46.0048394091981" lon="11.936555960212353"><ele>231.0</ele><time>2026-04-26T06:35:56Z</time></trkpt><trkpt lat="46.00492981754331" lon="11.936342746652638"><ele>231.0</ele><time>2026-04-26T06:35:57Z</time></trkpt><trkpt lat="46.00502158515697" lon="11.936126221403422"><ele>231.0</ele><time>2026-04-26T06:35:58Z</time></trkpt><trkpt lat="46.00511777269906" lon="11.935913408488323"><ele>231.0</ele><time>2026-04-26T06:35:59Z</time></trkpt><trkpt lat="46.00521904183296" lon="11.935705057946302"><ele>231.0</ele><time>2026-04-26T06:36:00Z</time></trkpt><trkpt lat="46.005328773581084" lon="11.935500765627994"><ele>231.0</ele><time>2026-04-26T06:36:01Z</time></trkpt><trkpt lat="46.00544092297397" lon="11.935305782763177"><ele>231.0</ele><time>2026-04-26T06:36:02Z</time></trkpt><trkpt lat="46.005550236093505" lon="11.935106936328793"><ele>231.66666666666669</ele><time>2026-04-26T06:36:03Z</time></trkpt><trkpt lat="46.005654224751" lon="11.934906680008288"><ele>232.33333333333334</ele><time>2026-04-26T06:36:04Z</time></trkpt><trkpt lat="46.00576210422859" lon="11.934709637958422"><ele>233.0</ele><time>2026-04-26T06:36:05Z</time></trkpt><trkpt lat="46.0058700203807" lon="11.934514309816619"><ele>233.0</ele><time>2026-04-26T06:36:06Z</time></trkpt><trkpt lat="46.00597898953735" lon="11.934318043955068"><ele>233.0</ele><time>2026-04-26T06:36:07Z</time></trkpt><trkpt lat="46.00608323453399" lon="11.934119020690439"><ele>233.0</ele><time>2026-04-26T06:36:08Z</time></trkpt><trkpt lat="46.006191008551866" lon="11.93392186384001"><ele>233.0</ele><time>2026-04-26T06:36:09Z</time></trkpt><trkpt lat="46.00629640442094" lon="11.93372385372914"><ele>233.0</ele><time>2026-04-26T06:36:10Z</time></trkpt><trkpt lat="46.006404293582754" lon="11.933525194111592"><ele>233.0</ele><time>2026-04-26T06:36:11Z</time></trkpt><trkpt lat="46.006510463721234" lon="11.933326356598918"><ele>233.0</ele><time>2026-04-26T06:36:12Z</time></trkpt><trkpt lat="46.00661628236607" lon="11.933126194092411"><ele>233.0</ele><time>2026-04-26T06:36:13Z</time></trkpt><trkpt lat="46.00672185096256" lon="11.932925346300197"><ele>233.0</ele><time>2026-04-26T06:36:14Z</time></trkpt><trkpt lat="46.00682851192738" lon="11.932725700581972"><ele>233.33333333333334</ele><time>2026-04-26T06:36:15Z</time></trkpt><trkpt lat="46.006940097206424" lon="11.932525108225216"><ele>233.66666666666669</ele><time>2026-04-26T06:36:16Z</time></trkpt><trkpt lat="46.00705111413222" lon="11.932324439034625"><ele>234.0</ele><time>2026-04-26T06:36:17Z</time></trkpt><trkpt lat="46.00716151510645" lon="11.932119765337317"><ele>234.0</ele><time>2026-04-26T06:36:18Z</time></trkpt><trkpt lat="46.007270695791036" lon="11.931915656643424"><ele>234.0</ele><time>2026-04-26T06:36:19Z</time></trkpt><trkpt lat="46.00738137468669" lon="11.931710743862237"><ele>234.0</ele><time>2026-04-26T06:36:20Z</time></trkpt><trkpt lat="46.00749180977968" lon="11.931506633968551"><ele>234.66666666666669</ele><time>2026-04-26T06:36:21Z</time></trkpt><trkpt lat="46.0075978753817" lon="11.931309305624845"><ele>235.33333333333334</ele><time>2026-04-26T06:36:22Z</time></trkpt><trkpt lat="46.00769475440267" lon="11.931123983073224"><ele>236.0</ele><time>2026-04-26T06:36:23Z</time></trkpt><trkpt lat="46.00778690371088" lon="11.930949131556991"><ele>235.25</ele><time>2026-04-26T06:36:24Z</time></trkpt><trkpt lat="46.007874510056865" lon="11.930782804899259"><ele>234.5</ele><time>2026-04-26T06:36:25Z</time></trkpt><trkpt lat="46.00795630762516" lon="11.930625604174"><ele>233.75</ele><time>2026-04-26T06:36:26Z</time></trkpt><trkpt lat="46.00803646846244" lon="11.930476239533943"><ele>233.0</ele><time>2026-04-26T06:36:27Z</time></trkpt><trkpt lat="46.00811204374559" lon="11.93033879099904"><ele>233.0</ele><time>2026-04-26T06:36:28Z</time></trkpt><trkpt lat="46.00818718917719" lon="11.930205908712901"><ele>233.0</ele><time>2026-04-26T06:36:29Z</time></trkpt><trkpt lat="46.008257715630336" lon="11.930081535877354"><ele>233.0</ele><time>2026-04-26T06:36:30Z</time></trkpt><trkpt lat="46.00832458760401" lon="11.929962408936161"><ele>233.0</ele><time>2026-04-26T06:36:31Z</time></trkpt><trkpt lat="46.00838589687467" lon="11.92985047766632"><ele>233.0</ele><time>2026-04-26T06:36:32Z</time></trkpt><trkpt lat="46.00844714555484" lon="11.929753365834342"><ele>233.50000000000003</ele><time>2026-04-26T06:36:33Z</time></trkpt><trkpt lat="46.00851955540178" lon="11.929690584450576"><ele>234.0</ele><time>2026-04-26T06:36:34Z</time></trkpt><trkpt lat="46.00860906276088" lon="11.929661209815192"><ele>234.5</ele><time>2026-04-26T06:36:35Z</time></trkpt><trkpt lat="46.00869263504928" lon="11.92968219092639"><ele>235.0</ele><time>2026-04-26T06:36:36Z</time></trkpt><trkpt lat="46.00877251136691" lon="11.929696215608352"><ele>235.50000000000003</ele><time>2026-04-26T06:36:37Z</time></trkpt><trkpt lat="46.00884594069745" lon="11.929804907133255"><ele>236.0</ele><time>2026-04-26T06:36:38Z</time></trkpt><trkpt lat="46.00892455224227" lon="11.929860798498067"><ele>236.0</ele><time>2026-04-26T06:36:39Z</time></trkpt><trkpt lat="46.009014790250916" lon="11.929863795805723"><ele>236.00000000000003</ele><time>2026-04-26T06:36:40Z</time></trkpt><trkpt lat="46.00910302625332" lon="11.929822929714609"><ele>236.00000000000003</ele><time>2026-04-26T06:36:41Z</time></trkpt><trkpt lat="46.00919018679865" lon="11.929744453020374"><ele>236.0</ele><time>2026-04-26T06:36:42Z</time></trkpt><trkpt lat="46.0092538072446" lon="11.929626980087482"><ele>236.0</ele><time>2026-04-26T06:36:43Z</time></trkpt><trkpt lat="46.00937397674856" lon="11.929562515928472"><ele>236.75</ele><time>2026-04-26T06:36:43.999Z</time></trkpt><trkpt lat="46.00950280823375" lon="11.929504652247957"><ele>237.5</ele><time>2026-04-26T06:36:44.999Z</time></trkpt><trkpt lat="46.0096280850739" lon="11.929389346860681"><ele>238.25</ele><time>2026-04-26T06:36:45.999Z</time></trkpt><trkpt lat="46.00973394086418" lon="11.92922477652485"><ele>239.0</ele><time>2026-04-26T06:36:46.999Z</time></trkpt><trkpt lat="46.00984631364938" lon="11.929032212027892"><ele>239.0</ele><time>2026-04-26T06:36:47.999Z</time></trkpt><trkpt lat="46.009946108647945" lon="11.928847401569058"><ele>239.0</ele><time>2026-04-26T06:36:48.999Z</time></trkpt><trkpt lat="46.01004737663985" lon="11.9286750714926"><ele>239.0</ele><time>2026-04-26T06:36:49.999Z</time></trkpt><trkpt lat="46.01014636922372" lon="11.92850899206059"><ele>239.66666666666669</ele><time>2026-04-26T06:36:50.999Z</time></trkpt><trkpt lat="46.01024822327386" lon="11.928353729047634"><ele>240.33333333333331</ele><time>2026-04-26T06:36:51.999Z</time></trkpt><trkpt lat="46.01034234544051" lon="11.92819909095441"><ele>241.0</ele><time>2026-04-26T06:36:52.999Z</time></trkpt><trkpt lat="46.010452709815794" lon="11.928032167754282"><ele>241.0</ele><time>2026-04-26T06:36:53.999Z</time></trkpt><trkpt lat="46.01055787177971" lon="11.927849762719836"><ele>241.0</ele><time>2026-04-26T06:36:54.999Z</time></trkpt><trkpt lat="46.01065632780126" lon="11.927687266317244"><ele>241.0</ele><time>2026-04-26T06:36:55.999Z</time></trkpt><trkpt lat="46.01074984260653" lon="11.927523288925505"><ele>240.66666666666666</ele><time>2026-04-26T06:36:56.999Z</time></trkpt><trkpt lat="46.01084468664513" lon="11.927354369781012"><ele>240.33333333333331</ele><time>2026-04-26T06:36:57.999Z</time></trkpt><trkpt lat="46.01093479131048" lon="11.927182856110019"><ele>240.0</ele><time>2026-04-26T06:36:58.999Z</time></trkpt><trkpt lat="46.01102410498799" lon="11.927008466104526"><ele>240.0</ele><time>2026-04-26T06:36:59.999Z</time></trkpt><trkpt lat="46.01111368364621" lon="11.926827353125521"><ele>240.0</ele><time>2026-04-26T06:37:00.999Z</time></trkpt><trkpt lat="46.01120076959242" lon="11.926641910406818"><ele>240.0</ele><time>2026-04-26T06:37:01.999Z</time></trkpt><trkpt lat="46.01127732650677" lon="11.926448891954239"><ele>240.66666666666669</ele><time>2026-04-26T06:37:02.999Z</time></trkpt><trkpt lat="46.011343090672796" lon="11.926253289366864"><ele>241.33333333333334</ele><time>2026-04-26T06:37:03.999Z</time></trkpt><trkpt lat="46.01140194567568" lon="11.926052332014237"><ele>242.0</ele><time>2026-04-26T06:37:04.999Z</time></trkpt><trkpt lat="46.01145396661" lon="11.925849563495742"><ele>242.0</ele><time>2026-04-26T06:37:05.999Z</time></trkpt><trkpt lat="46.01150214190556" lon="11.925644042574987"><ele>242.0</ele><time>2026-04-26T06:37:06.999Z</time></trkpt><trkpt lat="46.01154249805742" lon="11.925437524833796"><ele>242.0</ele><time>2026-04-26T06:37:07.999Z</time></trkpt><trkpt lat="46.0115731087778" lon="11.92522809361609"><ele>242.0</ele><time>2026-04-26T06:37:08.999Z</time></trkpt><trkpt lat="46.01160501991395" lon="11.925022320853412"><ele>242.25</ele><time>2026-04-26T06:37:09.999Z</time></trkpt><trkpt lat="46.01164554824348" lon="11.924818136099057"><ele>242.5</ele><time>2026-04-26T06:37:10.999Z</time></trkpt><trkpt lat="46.01168999020692" lon="11.924621066435426"><ele>242.75</ele><time>2026-04-26T06:37:11.999Z</time></trkpt><trkpt lat="46.01174245161822" lon="11.924427987310256"><ele>243.0</ele><time>2026-04-26T06:37:12.999Z</time></trkpt><trkpt lat="46.011806861132094" lon="11.924236477960006"><ele>244.33333333333331</ele><time>2026-04-26T06:37:13.999Z</time></trkpt><trkpt lat="46.01190094779125" lon="11.924064367113328"><ele>245.66666666666666</ele><time>2026-04-26T06:37:14.999Z</time></trkpt><trkpt lat="46.0120105401608" lon="11.923918083107894"><ele>247.0</ele><time>2026-04-26T06:37:15.999Z</time></trkpt><trkpt lat="46.0121415507594" lon="11.923799025102847"><ele>247.0</ele><time>2026-04-26T06:37:16.999Z</time></trkpt><trkpt lat="46.01227672722406" lon="11.923692605126838"><ele>247.0</ele><time>2026-04-26T06:37:18Z</time></trkpt><trkpt lat="46.01240959071893" lon="11.923574642042576"><ele>247.0</ele><time>2026-04-26T06:37:19Z</time></trkpt><trkpt lat="46.01253188120138" lon="11.923441587154143"><ele>249.66666666666666</ele><time>2026-04-26T06:37:20Z</time></trkpt><trkpt lat="46.01265269139685" lon="11.92329681453062"><ele>252.33333333333331</ele><time>2026-04-26T06:37:21Z</time></trkpt><trkpt lat="46.01276828707914" lon="11.923153939727802"><ele>255.0</ele><time>2026-04-26T06:37:22Z</time></trkpt><trkpt lat="46.012875085150895" lon="11.922999217550073"><ele>255.0</ele><time>2026-04-26T06:37:23Z</time></trkpt><trkpt lat="46.01297646177618" lon="11.922826668366694"><ele>255.0</ele><time>2026-04-26T06:37:24Z</time></trkpt><trkpt lat="46.01307002731419" lon="11.92264605380927"><ele>255.0</ele><time>2026-04-26T06:37:25Z</time></trkpt><trkpt lat="46.01315970689168" lon="11.922458360919736"><ele>256.3333333333333</ele><time>2026-04-26T06:37:26Z</time></trkpt><trkpt lat="46.01323873694562" lon="11.922260608251193"><ele>257.66666666666663</ele><time>2026-04-26T06:37:27Z</time></trkpt><trkpt lat="46.013311598065016" lon="11.922062250480256"><ele>259.0</ele><time>2026-04-26T06:37:28Z</time></trkpt><trkpt lat="46.01337293917104" lon="11.921867228734842"><ele>256.66666666666663</ele><time>2026-04-26T06:37:29Z</time></trkpt><trkpt lat="46.01343228536963" lon="11.921666202376054"><ele>254.33333333333331</ele><time>2026-04-26T06:37:30Z</time></trkpt><trkpt lat="46.013479157151735" lon="11.921456329266485"><ele>252.0</ele><time>2026-04-26T06:37:31Z</time></trkpt><trkpt lat="46.0135193241201" lon="11.92124073261369"><ele>252.0</ele><time>2026-04-26T06:37:32Z</time></trkpt><trkpt lat="46.01355136984171" lon="11.9210233047642"><ele>252.0</ele><time>2026-04-26T06:37:33Z</time></trkpt><trkpt lat="46.01357368240411" lon="11.920806663282027"><ele>252.0</ele><time>2026-04-26T06:37:34Z</time></trkpt><trkpt lat="46.013588445219796" lon="11.92059027601784"><ele>253.33333333333331</ele><time>2026-04-26T06:37:35Z</time></trkpt><trkpt lat="46.0136018501596" lon="11.920369827578785"><ele>254.66666666666666</ele><time>2026-04-26T06:37:36Z</time></trkpt><trkpt lat="46.01361050428905" lon="11.920151863426783"><ele>256.0</ele><time>2026-04-26T06:37:37Z</time></trkpt><trkpt lat="46.01361883308512" lon="11.919930529077085"><ele>257.66666666666663</ele><time>2026-04-26T06:37:38Z</time></trkpt><trkpt lat="46.01362413079986" lon="11.919709779265"><ele>259.3333333333333</ele><time>2026-04-26T06:37:39Z</time></trkpt><trkpt lat="46.013628888346155" lon="11.919483442481193"><ele>261.0</ele><time>2026-04-26T06:37:40Z</time></trkpt><trkpt lat="46.013622838792216" lon="11.91926106894095"><ele>260.3333333333333</ele><time>2026-04-26T06:37:41Z</time></trkpt><trkpt lat="46.01361086364847" lon="11.919048852481984"><ele>259.66666666666663</ele><time>2026-04-26T06:37:42Z</time></trkpt><trkpt lat="46.013591862737236" lon="11.918831837591261"><ele>259.0</ele><time>2026-04-26T06:37:43Z</time></trkpt><trkpt lat="46.01356938647056" lon="11.918604184534557"><ele>257.3333333333333</ele><time>2026-04-26T06:37:44Z</time></trkpt><trkpt lat="46.01354713044639" lon="11.918379723369307"><ele>255.66666666666669</ele><time>2026-04-26T06:37:45Z</time></trkpt><trkpt lat="46.013523441303875" lon="11.918155924977714"><ele>254.0</ele><time>2026-04-26T06:37:46Z</time></trkpt><trkpt lat="46.0135032786775" lon="11.917935243259242"><ele>254.0</ele><time>2026-04-26T06:37:47Z</time></trkpt><trkpt lat="46.01349311330044" lon="11.917708400662754"><ele>254.0</ele><time>2026-04-26T06:37:48Z</time></trkpt><trkpt lat="46.01349962741843" lon="11.917480405948623"><ele>254.0</ele><time>2026-04-26T06:37:49Z</time></trkpt><trkpt lat="46.01351418785493" lon="11.91725197488193"><ele>255.33333333333334</ele><time>2026-04-26T06:37:50Z</time></trkpt><trkpt lat="46.013536837109" lon="11.917024396398839"><ele>256.6666666666667</ele><time>2026-04-26T06:37:51Z</time></trkpt><trkpt lat="46.01356057615187" lon="11.91679553288697"><ele>258.0</ele><time>2026-04-26T06:37:52Z</time></trkpt><trkpt lat="46.013606515368394" lon="11.916575751491441"><ele>258.0</ele><time>2026-04-26T06:37:53Z</time></trkpt><trkpt lat="46.01363947036364" lon="11.916352445690663"><ele>258.0</ele><time>2026-04-26T06:37:54Z</time></trkpt><trkpt lat="46.01367048301534" lon="11.916133885503656"><ele>258.0</ele><time>2026-04-26T06:37:55Z</time></trkpt><trkpt lat="46.01370272681676" lon="11.915907621538066"><ele>256.0</ele><time>2026-04-26T06:37:56Z</time></trkpt><trkpt lat="46.01373472615732" lon="11.915685123119946"><ele>254.0</ele><time>2026-04-26T06:37:57Z</time></trkpt><trkpt lat="46.01375214113127" lon="11.915458752480337"><ele>252.0</ele><time>2026-04-26T06:37:58Z</time></trkpt><trkpt lat="46.01379072542788" lon="11.91524610573047"><ele>251.75</ele><time>2026-04-26T06:37:59Z</time></trkpt><trkpt lat="46.013828913663744" lon="11.915049820785201"><ele>251.5</ele><time>2026-04-26T06:38:00Z</time></trkpt><trkpt lat="46.013858115963835" lon="11.914858988673608"><ele>251.25</ele><time>2026-04-26T06:38:01Z</time></trkpt><trkpt lat="46.0138756840975" lon="11.914675660522517"><ele>251.0</ele><time>2026-04-26T06:38:02Z</time></trkpt><trkpt lat="46.01388811590809" lon="11.914486986066445"><ele>251.0</ele><time>2026-04-26T06:38:03Z</time></trkpt><trkpt lat="46.01389514780057" lon="11.914300163007885"><ele>251.0</ele><time>2026-04-26T06:38:04Z</time></trkpt><trkpt lat="46.013897130248296" lon="11.914113517348833"><ele>251.0</ele><time>2026-04-26T06:38:05Z</time></trkpt><trkpt lat="46.013892827690896" lon="11.913937252564219"><ele>251.0</ele><time>2026-04-26T06:38:06Z</time></trkpt><trkpt lat="46.01388269890158" lon="11.913765404549045"><ele>251.0</ele><time>2026-04-26T06:38:07Z</time></trkpt><trkpt lat="46.01386494747333" lon="11.913606413077186"><ele>251.00000000000003</ele><time>2026-04-26T06:38:08Z</time></trkpt><trkpt lat="46.013844753567255" lon="11.913461881725393"><ele>251.00000000000003</ele><time>2026-04-26T06:38:09Z</time></trkpt><trkpt lat="46.01382198843884" lon="11.913326654591025"><ele>251.0</ele><time>2026-04-26T06:38:10Z</time></trkpt><trkpt lat="46.013801904175914" lon="11.913197405098174"><ele>251.0</ele><time>2026-04-26T06:38:11Z</time></trkpt><trkpt lat="46.01378473968495" lon="11.913087680839867"><ele>250.99999999999997</ele><time>2026-04-26T06:38:12Z</time></trkpt><trkpt lat="46.013771482874645" lon="11.912991880247155"><ele>251.0</ele><time>2026-04-26T06:38:13Z</time></trkpt><trkpt lat="46.01377479682497" lon="11.912900084734648"><ele>250.99999999999997</ele><time>2026-04-26T06:38:14Z</time></trkpt><trkpt lat="46.01380133661807" lon="11.912815020468729"><ele>250.99999999999997</ele><time>2026-04-26T06:38:15Z</time></trkpt><trkpt lat="46.01385098260571" lon="11.912733728406796"><ele>251.0</ele><time>2026-04-26T06:38:16Z</time></trkpt><trkpt lat="46.013924408932965" lon="11.912675550282835"><ele>250.99999999999997</ele><time>2026-04-26T06:38:17Z</time></trkpt><trkpt lat="46.01400712401772" lon="11.912655148889565"><ele>250.99999999999997</ele><time>2026-04-26T06:38:18Z</time></trkpt><trkpt lat="46.01408852265568" lon="11.912685995812652"><ele>252.60000000000002</ele><time>2026-04-26T06:38:19Z</time></trkpt><trkpt lat="46.014183169243765" lon="11.912743847251791"><ele>254.20000000000002</ele><time>2026-04-26T06:38:20Z</time></trkpt><trkpt lat="46.01428129764606" lon="11.912796060002961"><ele>255.79999999999998</ele><time>2026-04-26T06:38:21Z</time></trkpt><trkpt lat="46.01438484914928" lon="11.912848440584112"><ele>257.4</ele><time>2026-04-26T06:38:22Z</time></trkpt><trkpt lat="46.014496932908656" lon="11.912905662233097"><ele>259.0</ele><time>2026-04-26T06:38:23Z</time></trkpt><trkpt lat="46.01460403358855" lon="11.91296191485984"><ele>259.0</ele><time>2026-04-26T06:38:24Z</time></trkpt><trkpt lat="46.014718039599124" lon="11.913019710956593"><ele>259.0</ele><time>2026-04-26T06:38:25Z</time></trkpt><trkpt lat="46.01483236858245" lon="11.913087365159448"><ele>259.0</ele><time>2026-04-26T06:38:26Z</time></trkpt><trkpt lat="46.01494409090108" lon="11.913158186913229"><ele>259.0</ele><time>2026-04-26T06:38:27Z</time></trkpt><trkpt lat="46.015062978715875" lon="11.913228206636834"><ele>260.5</ele><time>2026-04-26T06:38:28Z</time></trkpt><trkpt lat="46.015185313989555" lon="11.913315501342812"><ele>262.0</ele><time>2026-04-26T06:38:29Z</time></trkpt><trkpt lat="46.015310436367116" lon="11.913409107999778"><ele>263.5</ele><time>2026-04-26T06:38:30Z</time></trkpt><trkpt lat="46.0154370126383" lon="11.913497207033933"><ele>265.0</ele><time>2026-04-26T06:38:31Z</time></trkpt><trkpt lat="46.015556690399855" lon="11.913600461369267"><ele>265.75</ele><time>2026-04-26T06:38:32Z</time></trkpt><trkpt lat="46.01568308670305" lon="11.913682596474624"><ele>266.5</ele><time>2026-04-26T06:38:33Z</time></trkpt><trkpt lat="46.015805395472555" lon="11.913773077781796"><ele>267.25</ele><time>2026-04-26T06:38:34Z</time></trkpt><trkpt lat="46.01592393813501" lon="11.913858884675227"><ele>268.0</ele><time>2026-04-26T06:38:35Z</time></trkpt><trkpt lat="46.016038053468634" lon="11.913945020513452"><ele>269.0</ele><time>2026-04-26T06:38:36Z</time></trkpt><trkpt lat="46.01616515813879" lon="11.914030626517354"><ele>270.0</ele><time>2026-04-26T06:38:37Z</time></trkpt><trkpt lat="46.0162893046786" lon="11.914118518711316"><ele>271.0</ele><time>2026-04-26T06:38:38Z</time></trkpt><trkpt lat="46.01640904828747" lon="11.914206915898127"><ele>272.0</ele><time>2026-04-26T06:38:39Z</time></trkpt><trkpt lat="46.01653503135513" lon="11.914296722241865"><ele>274.0</ele><time>2026-04-26T06:38:40Z</time></trkpt><trkpt lat="46.016653634177985" lon="11.914384116860502"><ele>276.0</ele><time>2026-04-26T06:38:41Z</time></trkpt><trkpt lat="46.01677997645929" lon="11.914474501800838"><ele>278.0</ele><time>2026-04-26T06:38:42Z</time></trkpt><trkpt lat="46.016903939724685" lon="11.914561064956509"><ele>280.0</ele><time>2026-04-26T06:38:43Z</time></trkpt><trkpt lat="46.01702951492079" lon="11.914645418156852"><ele>280.0</ele><time>2026-04-26T06:38:44Z</time></trkpt><trkpt lat="46.017153616878346" lon="11.914731396474695"><ele>280.0</ele><time>2026-04-26T06:38:45Z</time></trkpt><trkpt lat="46.017280889157234" lon="11.914815956795241"><ele>280.0</ele><time>2026-04-26T06:38:46Z</time></trkpt><trkpt lat="46.01740731682838" lon="11.914901052010597"><ele>280.0</ele><time>2026-04-26T06:38:47Z</time></trkpt><trkpt lat="46.01754685927617" lon="11.914986610161622"><ele>280.3333333333333</ele><time>2026-04-26T06:38:48Z</time></trkpt><trkpt lat="46.01769305056184" lon="11.915058338098493"><ele>280.6666666666667</ele><time>2026-04-26T06:38:49Z</time></trkpt><trkpt lat="46.01784556598558" lon="11.915106642278047"><ele>281.0</ele><time>2026-04-26T06:38:50Z</time></trkpt><trkpt lat="46.0180031509031" lon="11.915150954033798"><ele>282.0</ele><time>2026-04-26T06:38:50.999Z</time></trkpt><trkpt lat="46.018166898979814" lon="11.915187528196457"><ele>283.0</ele><time>2026-04-26T06:38:51.999Z</time></trkpt><trkpt lat="46.01832165457323" lon="11.915226072372715"><ele>284.0</ele><time>2026-04-26T06:38:52.999Z</time></trkpt><trkpt lat="46.01845614584102" lon="11.9152623369665"><ele>285.75</ele><time>2026-04-26T06:38:53.999Z</time></trkpt><trkpt lat="46.0185842048125" lon="11.915297084633949"><ele>287.5</ele><time>2026-04-26T06:38:54.999Z</time></trkpt><trkpt lat="46.018705493358645" lon="11.915329751393955"><ele>289.25</ele><time>2026-04-26T06:38:55.999Z</time></trkpt><trkpt lat="46.018837503381036" lon="11.915361217530675"><ele>291.0</ele><time>2026-04-26T06:38:56.999Z</time></trkpt><trkpt lat="46.018961456895234" lon="11.91539284795324"><ele>291.0</ele><time>2026-04-26T06:38:57.999Z</time></trkpt><trkpt lat="46.019082150585646" lon="11.915420685745222"><ele>291.0</ele><time>2026-04-26T06:38:58.999Z</time></trkpt><trkpt lat="46.019198651949125" lon="11.915445473171626"><ele>291.0</ele><time>2026-04-26T06:38:59.999Z</time></trkpt><trkpt lat="46.01931203577453" lon="11.915469321033012"><ele>291.0</ele><time>2026-04-26T06:39:00.999Z</time></trkpt><trkpt lat="46.01941938811498" lon="11.915494063493929"><ele>292.8</ele><time>2026-04-26T06:39:01.999Z</time></trkpt><trkpt lat="46.01952283853376" lon="11.915520800259868"><ele>294.6</ele><time>2026-04-26T06:39:02.999Z</time></trkpt><trkpt lat="46.019629528911224" lon="11.915544506828612"><ele>296.4</ele><time>2026-04-26T06:39:03.999Z</time></trkpt><trkpt lat="46.01971883271364" lon="11.9155666978318"><ele>298.2</ele><time>2026-04-26T06:39:04.999Z</time></trkpt><trkpt lat="46.0198218347861" lon="11.915597972145326"><ele>300.0</ele><time>2026-04-26T06:39:05.999Z</time></trkpt><trkpt lat="46.019911902272526" lon="11.915663811161961"><ele>300.2</ele><time>2026-04-26T06:39:06.999Z</time></trkpt><trkpt lat="46.01998787795868" lon="11.915754583567086"><ele>300.4</ele><time>2026-04-26T06:39:07.999Z</time></trkpt><trkpt lat="46.02005401412143" lon="11.915876738986785"><ele>300.6</ele><time>2026-04-26T06:39:08.999Z</time></trkpt><trkpt lat="46.02010585044248" lon="11.916016124659846"><ele>300.8</ele><time>2026-04-26T06:39:09.999Z</time></trkpt><trkpt lat="46.020147172826825" lon="11.916149065017839"><ele>301.0</ele><time>2026-04-26T06:39:10.999Z</time></trkpt><trkpt lat="46.02019442735039" lon="11.91628326881706"><ele>301.0</ele><time>2026-04-26T06:39:11.999Z</time></trkpt><trkpt lat="46.02024122896392" lon="11.91642317727438"><ele>301.0</ele><time>2026-04-26T06:39:12.999Z</time></trkpt><trkpt lat="46.0202882096254" lon="11.916566376063214"><ele>301.0</ele><time>2026-04-26T06:39:13.999Z</time></trkpt><trkpt lat="46.02033476153071" lon="11.916712832560647"><ele>301.0</ele><time>2026-04-26T06:39:14.999Z</time></trkpt><trkpt lat="46.02038595908282" lon="11.916863614285177"><ele>301.0</ele><time>2026-04-26T06:39:15.999Z</time></trkpt><trkpt lat="46.02043741004085" lon="11.91701729957765"><ele>302.25</ele><time>2026-04-26T06:39:16.999Z</time></trkpt><trkpt lat="46.020490392646515" lon="11.917163693716855"><ele>303.5</ele><time>2026-04-26T06:39:17.999Z</time></trkpt><trkpt lat="46.02053999562071" lon="11.917308500602557"><ele>304.75</ele><time>2026-04-26T06:39:18.999Z</time></trkpt><trkpt lat="46.02059238101377" lon="11.917452397295325"><ele>306.0</ele><time>2026-04-26T06:39:19.999Z</time></trkpt><trkpt lat="46.02064011334685" lon="11.91759750540865"><ele>307.8</ele><time>2026-04-26T06:39:20.999Z</time></trkpt><trkpt lat="46.020687371897274" lon="11.917738855534212"><ele>309.6</ele><time>2026-04-26T06:39:21.999Z</time></trkpt><trkpt lat="46.02073361814975" lon="11.917882293697248"><ele>311.4</ele><time>2026-04-26T06:39:22.999Z</time></trkpt><trkpt lat="46.02077922635605" lon="11.918027136596477"><ele>313.2</ele><time>2026-04-26T06:39:24Z</time></trkpt><trkpt lat="46.02082928575425" lon="11.918169466458018"><ele>315.0</ele><time>2026-04-26T06:39:25Z</time></trkpt><trkpt lat="46.02087745185259" lon="11.91831355447747"><ele>311.0</ele><time>2026-04-26T06:39:26Z</time></trkpt><trkpt lat="46.020926833028994" lon="11.918468256642807"><ele>307.0</ele><time>2026-04-26T06:39:27Z</time></trkpt><trkpt lat="46.02097806228138" lon="11.91861728056433"><ele>303.0</ele><time>2026-04-26T06:39:28Z</time></trkpt><trkpt lat="46.021026047348776" lon="11.918758028405923"><ele>299.0</ele><time>2026-04-26T06:39:29Z</time></trkpt><trkpt lat="46.02107270090735" lon="11.918895799401998"><ele>295.0</ele><time>2026-04-26T06:39:30Z</time></trkpt><trkpt lat="46.0211215015779" lon="11.919048129137556"><ele>295.0</ele><time>2026-04-26T06:39:31Z</time></trkpt><trkpt lat="46.02117500606696" lon="11.91920724141187"><ele>295.0</ele><time>2026-04-26T06:39:32Z</time></trkpt><trkpt lat="46.02122706503092" lon="11.919361460972489"><ele>295.0</ele><time>2026-04-26T06:39:33Z</time></trkpt><trkpt lat="46.02127333534956" lon="11.919501463145439"><ele>295.0</ele><time>2026-04-26T06:39:34Z</time></trkpt><trkpt lat="46.02132355548521" lon="11.919649655294629"><ele>296.75</ele><time>2026-04-26T06:39:35Z</time></trkpt><trkpt lat="46.02137831570165" lon="11.919790625845684"><ele>298.5</ele><time>2026-04-26T06:39:36Z</time></trkpt><trkpt lat="46.02144502100689" lon="11.919935080866322"><ele>300.25</ele><time>2026-04-26T06:39:37Z</time></trkpt><trkpt lat="46.021527397463835" lon="11.920076647034792"><ele>302.0</ele><time>2026-04-26T06:39:38Z</time></trkpt><trkpt lat="46.02160339636562" lon="11.920197403545535"><ele>299.5</ele><time>2026-04-26T06:39:39Z</time></trkpt><trkpt lat="46.021686928005096" lon="11.920306861510484"><ele>297.0</ele><time>2026-04-26T06:39:40Z</time></trkpt><trkpt lat="46.02177891116517" lon="11.92041411091425"><ele>294.5</ele><time>2026-04-26T06:39:41Z</time></trkpt><trkpt lat="46.02187008456064" lon="11.920515648942036"><ele>292.0</ele><time>2026-04-26T06:39:42Z</time></trkpt><trkpt lat="46.021955585425225" lon="11.920609408504438"><ele>292.0</ele><time>2026-04-26T06:39:43Z</time></trkpt><trkpt lat="46.02203627126054" lon="11.920699256563337"><ele>292.0</ele><time>2026-04-26T06:39:44Z</time></trkpt><trkpt lat="46.0221150170194" lon="11.920787512781436"><ele>292.0</ele><time>2026-04-26T06:39:45Z</time></trkpt><trkpt lat="46.02220001915017" lon="11.920876244244322"><ele>292.0</ele><time>2026-04-26T06:39:46Z</time></trkpt><trkpt lat="46.022285958083565" lon="11.920964656214789"><ele>292.0</ele><time>2026-04-26T06:39:47Z</time></trkpt><trkpt lat="46.02236217255065" lon="11.9210414488365"><ele>291.8</ele><time>2026-04-26T06:39:48Z</time></trkpt><trkpt lat="46.02243578663099" lon="11.921117650616873"><ele>291.6</ele><time>2026-04-26T06:39:49Z</time></trkpt><trkpt lat="46.022515333601554" lon="11.921194548971991"><ele>291.40000000000003</ele><time>2026-04-26T06:39:50Z</time></trkpt><trkpt lat="46.022587023760536" lon="11.92126496316463"><ele>291.2</ele><time>2026-04-26T06:39:51Z</time></trkpt><trkpt lat="46.02265600267079" lon="11.92134109791273"><ele>291.0</ele><time>2026-04-26T06:39:52Z</time></trkpt><trkpt lat="46.02272903072762" lon="11.921419741739928"><ele>291.0</ele><time>2026-04-26T06:39:53Z</time></trkpt><trkpt lat="46.02280646242507" lon="11.92149745001251"><ele>291.0</ele><time>2026-04-26T06:39:54Z</time></trkpt><trkpt lat="46.022886454613285" lon="11.921556783224384"><ele>291.0</ele><time>2026-04-26T06:39:55Z</time></trkpt><trkpt lat="46.02296456839235" lon="11.921588653589728"><ele>291.0</ele><time>2026-04-26T06:39:56Z</time></trkpt><trkpt lat="46.023039575278965" lon="11.921579514319209"><ele>291.0</ele><time>2026-04-26T06:39:57Z</time></trkpt><trkpt lat="46.023110803694934" lon="11.921523893736405"><ele>291.0</ele><time>2026-04-26T06:39:58Z</time></trkpt><trkpt lat="46.023154339386416" lon="11.921422861765773"><ele>291.0</ele><time>2026-04-26T06:39:59Z</time></trkpt><trkpt lat="46.023169388806146" lon="11.921300395973875"><ele>291.0</ele><time>2026-04-26T06:40:00Z</time></trkpt><trkpt lat="46.02314937354145" lon="11.921176748444834"><ele>291.0</ele><time>2026-04-26T06:40:01Z</time></trkpt><trkpt lat="46.02309578157189" lon="11.921053573320153"><ele>291.0</ele><time>2026-04-26T06:40:02Z</time></trkpt><trkpt lat="46.02305042663836" lon="11.920912194265041"><ele>291.0</ele><time>2026-04-26T06:40:03Z</time></trkpt><trkpt lat="46.023030138771674" lon="11.920732882317346"><ele>291.5</ele><time>2026-04-26T06:40:04Z</time></trkpt><trkpt lat="46.023019751126" lon="11.920538762908853"><ele>292.0</ele><time>2026-04-26T06:40:05Z</time></trkpt><trkpt lat="46.02300737820038" lon="11.920339054464435"><ele>292.5</ele><time>2026-04-26T06:40:06Z</time></trkpt><trkpt lat="46.02299571054085" lon="11.92014908557798"><ele>293.0</ele><time>2026-04-26T06:40:07Z</time></trkpt><trkpt lat="46.02298155887544" lon="11.919956524990342"><ele>293.25</ele><time>2026-04-26T06:40:08Z</time></trkpt><trkpt lat="46.02297269435055" lon="11.919753987329974"><ele>293.5</ele><time>2026-04-26T06:40:09Z</time></trkpt><trkpt lat="46.02296262825883" lon="11.91954444546731"><ele>293.75</ele><time>2026-04-26T06:40:10Z</time></trkpt><trkpt lat="46.0229522436861" lon="11.91931674166282"><ele>294.0</ele><time>2026-04-26T06:40:11Z</time></trkpt><trkpt lat="46.02293991554571" lon="11.919097957045489"><ele>293.0</ele><time>2026-04-26T06:40:12Z</time></trkpt><trkpt lat="46.02292935686613" lon="11.918879882622809"><ele>292.0</ele><time>2026-04-26T06:40:13Z</time></trkpt><trkpt lat="46.02291809735042" lon="11.918651276297355"><ele>291.0</ele><time>2026-04-26T06:40:14Z</time></trkpt><trkpt lat="46.022907815740005" lon="11.918430716608603"><ele>290.0</ele><time>2026-04-26T06:40:15Z</time></trkpt><trkpt lat="46.02289815404676" lon="11.918215695156137"><ele>289.0</ele><time>2026-04-26T06:40:16Z</time></trkpt><trkpt lat="46.022887606872494" lon="11.917994950362953"><ele>288.0</ele><time>2026-04-26T06:40:17Z</time></trkpt><trkpt lat="46.0228770799925" lon="11.917788607909356"><ele>287.0</ele><time>2026-04-26T06:40:18Z</time></trkpt><trkpt lat="46.02286631396835" lon="11.917577941052519"><ele>286.75</ele><time>2026-04-26T06:40:19Z</time></trkpt><trkpt lat="46.02285437784535" lon="11.917371757879607"><ele>286.5</ele><time>2026-04-26T06:40:20Z</time></trkpt><trkpt lat="46.022848552473796" lon="11.917165041987689"><ele>286.25</ele><time>2026-04-26T06:40:21Z</time></trkpt><trkpt lat="46.02284251685253" lon="11.91695000471108"><ele>286.0</ele><time>2026-04-26T06:40:22Z</time></trkpt><trkpt lat="46.022828697221" lon="11.916730940425452"><ele>285.25</ele><time>2026-04-26T06:40:23Z</time></trkpt><trkpt lat="46.0228226869364" lon="11.916519991852649"><ele>284.5</ele><time>2026-04-26T06:40:24Z</time></trkpt><trkpt lat="46.022814834065485" lon="11.91631544987132"><ele>283.75</ele><time>2026-04-26T06:40:25Z</time></trkpt><trkpt lat="46.022807464239555" lon="11.916106812369483"><ele>283.0</ele><time>2026-04-26T06:40:26Z</time></trkpt><trkpt lat="46.02279915110638" lon="11.91590902183957"><ele>281.75</ele><time>2026-04-26T06:40:27Z</time></trkpt><trkpt lat="46.02279012057961" lon="11.915703209303047"><ele>280.5</ele><time>2026-04-26T06:40:28Z</time></trkpt><trkpt lat="46.02278721079543" lon="11.915500153855946"><ele>279.25</ele><time>2026-04-26T06:40:29Z</time></trkpt><trkpt lat="46.02277568386101" lon="11.915302613235227"><ele>278.0</ele><time>2026-04-26T06:40:30Z</time></trkpt><trkpt lat="46.022764891689825" lon="11.915104625319639"><ele>277.25</ele><time>2026-04-26T06:40:31Z</time></trkpt><trkpt lat="46.022758387164366" lon="11.914916739942838"><ele>276.5</ele><time>2026-04-26T06:40:32Z</time></trkpt><trkpt lat="46.02274972896001" lon="11.914744759668228"><ele>275.75</ele><time>2026-04-26T06:40:33Z</time></trkpt><trkpt lat="46.022745865634185" lon="11.914577909113703"><ele>275.0</ele><time>2026-04-26T06:40:34Z</time></trkpt><trkpt lat="46.022743406668056" lon="11.914415396814022"><ele>275.0</ele><time>2026-04-26T06:40:35Z</time></trkpt><trkpt lat="46.02273603215997" lon="11.914245622303866"><ele>275.0</ele><time>2026-04-26T06:40:36Z</time></trkpt><trkpt lat="46.02272820564062" lon="11.914080127581437"><ele>275.0</ele><time>2026-04-26T06:40:37Z</time></trkpt><trkpt lat="46.02271889236843" lon="11.913896971202142"><ele>275.0</ele><time>2026-04-26T06:40:38Z</time></trkpt><trkpt lat="46.02270951763156" lon="11.913714323725484"><ele>275.0</ele><time>2026-04-26T06:40:39Z</time></trkpt><trkpt lat="46.02270089789467" lon="11.91355239875154"><ele>275.0</ele><time>2026-04-26T06:40:40Z</time></trkpt><trkpt lat="46.02269410527161" lon="11.913396388752599"><ele>275.0</ele><time>2026-04-26T06:40:41Z</time></trkpt><trkpt lat="46.02268395275277" lon="11.913238366679202"><ele>275.0</ele><time>2026-04-26T06:40:42Z</time></trkpt><trkpt lat="46.02267611982364" lon="11.913076003020056"><ele>275.0</ele><time>2026-04-26T06:40:43Z</time></trkpt><trkpt lat="46.02267105996106" lon="11.912929541943635"><ele>275.0</ele><time>2026-04-26T06:40:44Z</time></trkpt><trkpt lat="46.022667553895126" lon="11.91279230425237"><ele>275.0</ele><time>2026-04-26T06:40:45Z</time></trkpt><trkpt lat="46.022682485389645" lon="11.91266596670499"><ele>275.0</ele><time>2026-04-26T06:40:46Z</time></trkpt><trkpt lat="46.022714316873895" lon="11.912548608746993"><ele>275.0</ele><time>2026-04-26T06:40:47Z</time></trkpt><trkpt lat="46.02271917502667" lon="11.912414287622363"><ele>275.0</ele><time>2026-04-26T06:40:48Z</time></trkpt><trkpt lat="46.02268946395503" lon="11.91227376383514"><ele>275.5</ele><time>2026-04-26T06:40:49Z</time></trkpt><trkpt lat="46.02264424192648" lon="11.912131164105917"><ele>276.0</ele><time>2026-04-26T06:40:50Z</time></trkpt><trkpt lat="46.022620630118084" lon="11.91197091821916"><ele>276.5</ele><time>2026-04-26T06:40:51Z</time></trkpt><trkpt lat="46.022617465138204" lon="11.911793970059513"><ele>277.0</ele><time>2026-04-26T06:40:52Z</time></trkpt><trkpt lat="46.02261050598065" lon="11.911610859717843"><ele>277.0</ele><time>2026-04-26T06:40:53Z</time></trkpt><trkpt lat="46.02259597886245" lon="11.911413168555688"><ele>277.0</ele><time>2026-04-26T06:40:53.999Z</time></trkpt><trkpt lat="46.02257300534276" lon="11.911219716684698"><ele>277.0</ele><time>2026-04-26T06:40:54.999Z</time></trkpt><trkpt lat="46.02254846411807" lon="11.911013535281775"><ele>277.0</ele><time>2026-04-26T06:40:55.999Z</time></trkpt><trkpt lat="46.02252839659242" lon="11.910827318835478"><ele>277.0</ele><time>2026-04-26T06:40:56.999Z</time></trkpt><trkpt lat="46.022495826182784" lon="11.910633831489935"><ele>277.0</ele><time>2026-04-26T06:40:57.999Z</time></trkpt><trkpt lat="46.02245833962678" lon="11.910434694012116"><ele>277.0</ele><time>2026-04-26T06:40:58.999Z</time></trkpt><trkpt lat="46.022417788080176" lon="11.910236991732821"><ele>277.0</ele><time>2026-04-26T06:40:59.999Z</time></trkpt><trkpt lat="46.02238089069624" lon="11.91004688743435"><ele>276.5</ele><time>2026-04-26T06:41:00.999Z</time></trkpt><trkpt lat="46.02233385435018" lon="11.909853746209023"><ele>276.0</ele><time>2026-04-26T06:41:01.999Z</time></trkpt><trkpt lat="46.02228922855778" lon="11.909662908732363"><ele>275.5</ele><time>2026-04-26T06:41:02.999Z</time></trkpt><trkpt lat="46.02223811548841" lon="11.909474676194469"><ele>275.0</ele><time>2026-04-26T06:41:03.999Z</time></trkpt><trkpt lat="46.02219545879476" lon="11.909278911903176"><ele>274.75</ele><time>2026-04-26T06:41:04.999Z</time></trkpt><trkpt lat="46.02214684037318" lon="11.909087633317816"><ele>274.5</ele><time>2026-04-26T06:41:05.999Z</time></trkpt><trkpt lat="46.02210372493619" lon="11.908895045843618"><ele>274.25</ele><time>2026-04-26T06:41:06.999Z</time></trkpt><trkpt lat="46.02205989546417" lon="11.908700199665944"><ele>274.0</ele><time>2026-04-26T06:41:07.999Z</time></trkpt><trkpt lat="46.022017789260666" lon="11.908507886782155"><ele>273.75</ele><time>2026-04-26T06:41:08.999Z</time></trkpt><trkpt lat="46.0219750268175" lon="11.908308050501125"><ele>273.5</ele><time>2026-04-26T06:41:09.999Z</time></trkpt><trkpt lat="46.02193313622047" lon="11.908110886250325"><ele>273.25</ele><time>2026-04-26T06:41:10.999Z</time></trkpt><trkpt lat="46.0218935862131" lon="11.907911499050432"><ele>273.0</ele><time>2026-04-26T06:41:11.999Z</time></trkpt><trkpt lat="46.021854843453866" lon="11.907712538486651"><ele>272.75</ele><time>2026-04-26T06:41:12.999Z</time></trkpt><trkpt lat="46.02181627439038" lon="11.907523429155685"><ele>272.5</ele><time>2026-04-26T06:41:13.999Z</time></trkpt><trkpt lat="46.02177520727994" lon="11.907331451072904"><ele>272.25</ele><time>2026-04-26T06:41:14.999Z</time></trkpt><trkpt lat="46.02173475964336" lon="11.907133081497202"><ele>272.0</ele><time>2026-04-26T06:41:15.999Z</time></trkpt><trkpt lat="46.02170171894924" lon="11.906942565835182"><ele>272.0</ele><time>2026-04-26T06:41:16.999Z</time></trkpt><trkpt lat="46.02167488594867" lon="11.906767621447116"><ele>272.0</ele><time>2026-04-26T06:41:17.999Z</time></trkpt><trkpt lat="46.0216494110421" lon="11.90659615282744"><ele>272.0</ele><time>2026-04-26T06:41:18.999Z</time></trkpt><trkpt lat="46.02162888013484" lon="11.906435759596087"><ele>272.0</ele><time>2026-04-26T06:41:19.999Z</time></trkpt><trkpt lat="46.02160763705707" lon="11.906278910451272"><ele>272.2</ele><time>2026-04-26T06:41:20.999Z</time></trkpt><trkpt lat="46.02159252324285" lon="11.906133723342553"><ele>272.4</ele><time>2026-04-26T06:41:21.999Z</time></trkpt><trkpt lat="46.02157949798316" lon="11.906000191170584"><ele>272.6</ele><time>2026-04-26T06:41:22.999Z</time></trkpt><trkpt lat="46.021572440384176" lon="11.905879351890832"><ele>272.8</ele><time>2026-04-26T06:41:23.999Z</time></trkpt><trkpt lat="46.02153646798864" lon="11.905749113890272"><ele>273.0</ele><time>2026-04-26T06:41:25.999Z</time></trkpt><trkpt lat="46.021439552957126" lon="11.905745383666543"><ele>273.0</ele><time>2026-04-26T06:41:28.999Z</time></trkpt><trkpt lat="46.02148635995087" lon="11.905914015965887"><ele>273.0</ele><time>2026-04-26T06:41:32Z</time></trkpt><trkpt lat="46.021439746147465" lon="11.905981280726671"><ele>273.0</ele><time>2026-04-26T06:41:40Z</time></trkpt><trkpt lat="46.021540750018566" lon="11.905967028826904"><ele>273.0</ele><time>2026-04-26T06:42:47Z</time></trkpt><trkpt lat="46.021459276545464" lon="11.90596022649494"><ele>273.0</ele><time>2026-04-26T06:44:16Z</time></trkpt><trkpt lat="46.02142844439644" lon="11.90625324074673"><ele>273.0</ele><time>2026-04-26T06:45:22.999Z</time></trkpt><trkpt lat="46.02146971189324" lon="11.906330642585983"><ele>273.0</ele><time>2026-04-26T06:45:23.999Z</time></trkpt><trkpt lat="46.021602124739836" lon="11.906164507594461"><ele>273.0</ele><time>2026-04-26T06:45:28.999Z</time></trkpt><trkpt lat="46.021599973058706" lon="11.90602797965967"><ele>273.0</ele><time>2026-04-26T06:45:29.999Z</time></trkpt><trkpt lat="46.02159202261908" lon="11.905875310196603"><ele>273.0</ele><time>2026-04-26T06:45:30.999Z</time></trkpt><trkpt lat="46.021583185513926" lon="11.905764626622723"><ele>273.1666666666667</ele><time>2026-04-26T06:45:31.999Z</time></trkpt><trkpt lat="46.02157880811624" lon="11.905657773560842"><ele>273.3333333333333</ele><time>2026-04-26T06:45:32.999Z</time></trkpt><trkpt lat="46.02156679298042" lon="11.905531739159146"><ele>273.5</ele><time>2026-04-26T06:45:33.999Z</time></trkpt><trkpt lat="46.02156452607234" lon="11.905411028827986"><ele>273.66666666666663</ele><time>2026-04-26T06:45:34.999Z</time></trkpt><trkpt lat="46.02156982888263" lon="11.90531158504402"><ele>273.8333333333333</ele><time>2026-04-26T06:45:35.999Z</time></trkpt><trkpt lat="46.021601647379164" lon="11.905226840550837"><ele>274.0</ele><time>2026-04-26T06:45:36.999Z</time></trkpt><trkpt lat="46.02165710757754" lon="11.905140786952883"><ele>274.0</ele><time>2026-04-26T06:45:37.999Z</time></trkpt><trkpt lat="46.02174127557394" lon="11.905073791798744"><ele>274.0</ele><time>2026-04-26T06:45:38.999Z</time></trkpt><trkpt lat="46.021854877277754" lon="11.905053833062734"><ele>274.0</ele><time>2026-04-26T06:45:39.999Z</time></trkpt><trkpt lat="46.02199155572118" lon="11.90503901474574"><ele>274.0</ele><time>2026-04-26T06:45:40.999Z</time></trkpt><trkpt lat="46.0221206771691" lon="11.905013369896242"><ele>274.0</ele><time>2026-04-26T06:45:42Z</time></trkpt><trkpt lat="46.02222496373655" lon="11.904980547462912"><ele>274.0</ele><time>2026-04-26T06:45:43Z</time></trkpt><trkpt lat="46.02231387096365" lon="11.904948362810137"><ele>274.0</ele><time>2026-04-26T06:45:44Z</time></trkpt><trkpt lat="46.0223926541701" lon="11.904922606731663"><ele>274.0</ele><time>2026-04-26T06:45:45Z</time></trkpt><trkpt lat="46.02247052841738" lon="11.904923306027104"><ele>274.0</ele><time>2026-04-26T06:45:46Z</time></trkpt><trkpt lat="46.02255744574144" lon="11.90496989380779"><ele>274.75</ele><time>2026-04-26T06:45:47Z</time></trkpt><trkpt lat="46.02264452900576" lon="11.905047442800207"><ele>275.5</ele><time>2026-04-26T06:45:48Z</time></trkpt><trkpt lat="46.02274849186527" lon="11.90510299141606"><ele>276.25</ele><time>2026-04-26T06:45:49Z</time></trkpt><trkpt lat="46.02287417644995" lon="11.90510714073722"><ele>277.0</ele><time>2026-04-26T06:45:50Z</time></trkpt><trkpt lat="46.0230147380802" lon="11.90506539773779"><ele>277.66666666666663</ele><time>2026-04-26T06:45:51Z</time></trkpt><trkpt lat="46.023194384900734" lon="11.90500410041169"><ele>278.3333333333333</ele><time>2026-04-26T06:45:52Z</time></trkpt><trkpt lat="46.02338429359579" lon="11.904952338853589"><ele>279.0</ele><time>2026-04-26T06:45:53Z</time></trkpt><trkpt lat="46.02355025751316" lon="11.904907411095301"><ele>279.0</ele><time>2026-04-26T06:45:54Z</time></trkpt><trkpt lat="46.02370138285165" lon="11.904863798519902"><ele>279.0</ele><time>2026-04-26T06:45:55Z</time></trkpt><trkpt lat="46.023857780819775" lon="11.904815616942928"><ele>279.0</ele><time>2026-04-26T06:45:56Z</time></trkpt><trkpt lat="46.02401482098575" lon="11.904769650630662"><ele>280.3333333333333</ele><time>2026-04-26T06:45:57Z</time></trkpt><trkpt lat="46.02417561574178" lon="11.904725048536022"><ele>281.66666666666663</ele><time>2026-04-26T06:45:58Z</time></trkpt><trkpt lat="46.02435278480067" lon="11.90467834894173"><ele>283.0</ele><time>2026-04-26T06:45:59Z</time></trkpt><trkpt lat="46.024517366407814" lon="11.904636665583856"><ele>283.0</ele><time>2026-04-26T06:46:00Z</time></trkpt><trkpt lat="46.02466695701436" lon="11.904588532724928"><ele>283.0</ele><time>2026-04-26T06:46:01Z</time></trkpt><trkpt lat="46.024800486541814" lon="11.904544732405503"><ele>283.0</ele><time>2026-04-26T06:46:02Z</time></trkpt><trkpt lat="46.024927947917305" lon="11.904510909743083"><ele>283.0</ele><time>2026-04-26T06:46:03Z</time></trkpt><trkpt lat="46.02504536700786" lon="11.904484530252574"><ele>283.4</ele><time>2026-04-26T06:46:04Z</time></trkpt><trkpt lat="46.02514587263247" lon="11.904486896303716"><ele>283.8</ele><time>2026-04-26T06:46:05Z</time></trkpt><trkpt lat="46.025221407486676" lon="11.904510566830373"><ele>284.2</ele><time>2026-04-26T06:46:06Z</time></trkpt><trkpt lat="46.025331331875805" lon="11.904593992800994"><ele>284.6</ele><time>2026-04-26T06:46:08Z</time></trkpt><trkpt lat="46.0254374067359" lon="11.904584174089358"><ele>285.0</ele><time>2026-04-26T06:46:10Z</time></trkpt><trkpt lat="46.025471348976474" lon="11.904495922286715"><ele>285.0</ele><time>2026-04-26T06:46:11Z</time></trkpt><trkpt lat="46.02546382398758" lon="11.904383540910075"><ele>285.0</ele><time>2026-04-26T06:46:12Z</time></trkpt><trkpt lat="46.025420739129544" lon="11.904268000973154"><ele>285.0</ele><time>2026-04-26T06:46:13Z</time></trkpt><trkpt lat="46.02537272965197" lon="11.904131000371029"><ele>285.0</ele><time>2026-04-26T06:46:14Z</time></trkpt><trkpt lat="46.02533845773479" lon="11.903971032896909"><ele>285.0</ele><time>2026-04-26T06:46:15Z</time></trkpt><trkpt lat="46.02534414974064" lon="11.903858375739574"><ele>284.4</ele><time>2026-04-26T06:46:16Z</time></trkpt><trkpt lat="46.02535095072444" lon="11.903757525202613"><ele>283.8</ele><time>2026-04-26T06:46:19Z</time></trkpt><trkpt lat="46.0254868249895" lon="11.903759127319956"><ele>283.2</ele><time>2026-04-26T06:46:20Z</time></trkpt><trkpt lat="46.025563227867686" lon="11.903746111276252"><ele>282.6</ele><time>2026-04-26T06:46:21Z</time></trkpt><trkpt lat="46.02564561391746" lon="11.90379752664583"><ele>282.0</ele><time>2026-04-26T06:46:22Z</time></trkpt><trkpt lat="46.025726688195896" lon="11.903882749855928"><ele>282.0</ele><time>2026-04-26T06:46:23Z</time></trkpt><trkpt lat="46.025798993047474" lon="11.903974506077866"><ele>282.0</ele><time>2026-04-26T06:46:24Z</time></trkpt><trkpt lat="46.0258584284775" lon="11.904046144797217"><ele>282.0</ele><time>2026-04-26T06:46:25Z</time></trkpt><trkpt lat="46.025946446821244" lon="11.904156633963144"><ele>282.0</ele><time>2026-04-26T06:46:27Z</time></trkpt><trkpt lat="46.02604196791282" lon="11.904031766862465"><ele>282.0</ele><time>2026-04-26T06:46:29Z</time></trkpt><trkpt lat="46.02609136826637" lon="11.903923624895306"><ele>281.0</ele><time>2026-04-26T06:46:30Z</time></trkpt><trkpt lat="46.026147221130806" lon="11.903775245055987"><ele>281.0</ele><time>2026-04-26T06:46:31Z</time></trkpt><trkpt lat="46.026199155787225" lon="11.903611768431276"><ele>281.0</ele><time>2026-04-26T06:46:32Z</time></trkpt><trkpt lat="46.02623607098308" lon="11.903486079107497"><ele>281.0</ele><time>2026-04-26T06:46:33Z</time></trkpt><trkpt lat="46.02625145136326" lon="11.903386819824393"><ele>283.0</ele><time>2026-04-26T06:46:34Z</time></trkpt></trkseg></trk></gpx>